<?xml version='1.0' encoding='UTF-8'?><gpx version="1.1" creator="JPX - https://github.com/jenetics/jpx" xmlns="http://www.topografix.com/GPX/1/1"><trk><trkseg><trkpt lat="42.153737538852276" lon="14.482033580984934"><ele>79.0</ele><time>2026-04-04T05:19:06.999Z</time></trkpt><trkpt lat="42.15373194176701" lon="14.48193430945101"><ele>79.0</ele><time>2026-04-04T05:19:26.999Z</time></trkpt><trkpt lat="42.15367336608269" lon="14.481879856953775"><ele>79.0</ele><time>2026-04-04T05:19:28.999Z</time></trkpt><trkpt lat="42.15360167011437" lon="14.481898980600654"><ele>79.0</ele><time>2026-04-04T05:19:42Z</time></trkpt><trkpt lat="42.15368281903556" lon="14.481966128437225"><ele>79.0</ele><time>2026-04-04T05:19:45Z</time></trkpt><trkpt lat="42.15367389133167" lon="14.48206274357971"><ele>79.0</ele><time>2026-04-04T05:20:27.999Z</time></trkpt><trkpt lat="42.15371400921664" lon="14.482137216703848"><ele>79.0</ele><time>2026-04-04T05:20:30.999Z</time></trkpt><trkpt lat="42.15377432527275" lon="14.482199631233854"><ele>79.0</ele><time>2026-04-04T05:20:34.999Z</time></trkpt><trkpt lat="42.15391783694787" lon="14.482143534292948"><ele>79.0</ele><time>2026-04-04T05:20:41.999Z</time></trkpt><trkpt lat="42.15397644114246" lon="14.482092094592373"><ele>79.0</ele><time>2026-04-04T05:20:44.999Z</time></trkpt><trkpt lat="42.15403344620387" lon="14.482035105688642"><ele>79.0</ele><time>2026-04-04T05:20:47.999Z</time></trkpt><trkpt lat="42.1540851530036" lon="14.481965761545235"><ele>79.0</ele><time>2026-04-04T05:20:50.999Z</time></trkpt><trkpt lat="42.15409575833352" lon="14.481863914627409"><ele>79.00000000000001</ele><time>2026-04-04T05:20:53.999Z</time></trkpt><trkpt lat="42.15409314801609" lon="14.481743459024752"><ele>79.0</ele><time>2026-04-04T05:20:56.999Z</time></trkpt><trkpt lat="42.15409502225186" lon="14.481656217455068"><ele>79.0</ele><time>2026-04-04T05:20:58.999Z</time></trkpt><trkpt lat="42.15407572429926" lon="14.481562985291333"><ele>79.0</ele><time>2026-04-04T05:21:00.999Z</time></trkpt><trkpt lat="42.15405280180971" lon="14.481474400559668"><ele>79.0</ele><time>2026-04-04T05:21:02.999Z</time></trkpt><trkpt lat="42.15401628060264" lon="14.481398532695648"><ele>79.00000000000001</ele><time>2026-04-04T05:21:04.999Z</time></trkpt><trkpt lat="42.15396893164713" lon="14.481337455511376"><ele>79.0</ele><time>2026-04-04T05:21:06.999Z</time></trkpt><trkpt lat="42.153915824234275" lon="14.481280977093189"><ele>79.0</ele><time>2026-04-04T05:21:08.999Z</time></trkpt><trkpt lat="42.153844865599055" lon="14.481198136424426"><ele>79.0</ele><time>2026-04-04T05:21:11.999Z</time></trkpt><trkpt lat="42.15379863936655" lon="14.481139622215588"><ele>79.0</ele><time>2026-04-04T05:21:13.999Z</time></trkpt><trkpt lat="42.153742618739294" lon="14.481045638136024"><ele>79.0</ele><time>2026-04-04T05:21:16.999Z</time></trkpt><trkpt lat="42.153689904282125" lon="14.480948556407881"><ele>79.0</ele><time>2026-04-04T05:21:19.998Z</time></trkpt><trkpt lat="42.15363230700498" lon="14.480856500449784"><ele>79.0</ele><time>2026-04-04T05:21:22.998Z</time></trkpt><trkpt lat="42.153584122280044" lon="14.480764940017137"><ele>79.0</ele><time>2026-04-04T05:21:25.998Z</time></trkpt><trkpt lat="42.15353288823638" lon="14.480677899068162"><ele>79.0</ele><time>2026-04-04T05:21:28.998Z</time></trkpt><trkpt lat="42.15349282121934" lon="14.480583608142041"><ele>79.0</ele><time>2026-04-04T05:21:31.998Z</time></trkpt><trkpt lat="42.15345404288034" lon="14.480488584248365"><ele>79.0</ele><time>2026-04-04T05:21:34.998Z</time></trkpt><trkpt lat="42.15341569573806" lon="14.48038512623762"><ele>79.0</ele><time>2026-04-04T05:21:38Z</time></trkpt><trkpt lat="42.15338476940682" lon="14.480311082889312"><ele>79.0</ele><time>2026-04-04T05:21:40Z</time></trkpt><trkpt lat="42.15335935001455" lon="14.480226925852222"><ele>79.42857142857143</ele><time>2026-04-04T05:21:42Z</time></trkpt><trkpt lat="42.15333479186671" lon="14.480145556089962"><ele>79.85714285714286</ele><time>2026-04-04T05:21:44Z</time></trkpt><trkpt lat="42.15330776757056" lon="14.48006024824309"><ele>80.28571428571428</ele><time>2026-04-04T05:21:46Z</time></trkpt><trkpt lat="42.15328870337915" lon="14.479971645475041"><ele>80.71428571428572</ele><time>2026-04-04T05:21:48Z</time></trkpt><trkpt lat="42.153275490053645" lon="14.479882991404297"><ele>81.14285714285714</ele><time>2026-04-04T05:21:50Z</time></trkpt><trkpt lat="42.153260650311324" lon="14.479796997929562"><ele>81.57142857142857</ele><time>2026-04-04T05:21:52Z</time></trkpt><trkpt lat="42.15325556210929" lon="14.479676358473613"><ele>82.0</ele><time>2026-04-04T05:21:55Z</time></trkpt><trkpt lat="42.153268453127545" lon="14.47955097243708"><ele>83.0</ele><time>2026-04-04T05:21:58Z</time></trkpt><trkpt lat="42.153303526991024" lon="14.47943589488147"><ele>84.0</ele><time>2026-04-04T05:22:01Z</time></trkpt><trkpt lat="42.15335070104084" lon="14.479336139653187"><ele>85.0</ele><time>2026-04-04T05:22:04Z</time></trkpt><trkpt lat="42.153403749615336" lon="14.479245548832703"><ele>86.0</ele><time>2026-04-04T05:22:07Z</time></trkpt><trkpt lat="42.15345042213773" lon="14.479160374333942"><ele>87.0</ele><time>2026-04-04T05:22:10Z</time></trkpt><trkpt lat="42.153503022855936" lon="14.479067794845868"><ele>88.0</ele><time>2026-04-04T05:22:13Z</time></trkpt><trkpt lat="42.1535540246717" lon="14.478979485273182"><ele>88.0</ele><time>2026-04-04T05:22:16Z</time></trkpt><trkpt lat="42.153601125366826" lon="14.478888793477669"><ele>88.0</ele><time>2026-04-04T05:22:19Z</time></trkpt><trkpt lat="42.153638579834734" lon="14.478787199479681"><ele>88.0</ele><time>2026-04-04T05:22:22Z</time></trkpt><trkpt lat="42.15366444486853" lon="14.478689579536995"><ele>88.0</ele><time>2026-04-04T05:22:24.999Z</time></trkpt><trkpt lat="42.15366906674548" lon="14.4785876109385"><ele>88.0</ele><time>2026-04-04T05:22:27.999Z</time></trkpt><trkpt lat="42.15366102386183" lon="14.47849431318027"><ele>88.0</ele><time>2026-04-04T05:22:30.999Z</time></trkpt><trkpt lat="42.1536368541724" lon="14.478393934869372"><ele>87.80000000000001</ele><time>2026-04-04T05:22:33.999Z</time></trkpt><trkpt lat="42.15360409813866" lon="14.478313901332196"><ele>87.6</ele><time>2026-04-04T05:22:35.999Z</time></trkpt><trkpt lat="42.15357318857834" lon="14.478224395234633"><ele>87.4</ele><time>2026-04-04T05:22:37.999Z</time></trkpt><trkpt lat="42.15354162507658" lon="14.478110798975381"><ele>87.19999999999999</ele><time>2026-04-04T05:22:39.999Z</time></trkpt><trkpt lat="42.15352733614811" lon="14.477967865475643"><ele>87.0</ele><time>2026-04-04T05:22:41.999Z</time></trkpt><trkpt lat="42.15353435622104" lon="14.477798758042535"><ele>85.66666666666667</ele><time>2026-04-04T05:22:43.999Z</time></trkpt><trkpt lat="42.153531126683916" lon="14.47770946473078"><ele>84.33333333333333</ele><time>2026-04-04T05:22:44.999Z</time></trkpt><trkpt lat="42.15352732025058" lon="14.477617926333435"><ele>83.0</ele><time>2026-04-04T05:22:45.999Z</time></trkpt><trkpt lat="42.15352856753712" lon="14.477527708268022"><ele>81.66666666666666</ele><time>2026-04-04T05:22:46.999Z</time></trkpt><trkpt lat="42.153527834579386" lon="14.4774398193743"><ele>80.33333333333333</ele><time>2026-04-04T05:22:47.999Z</time></trkpt><trkpt lat="42.15353260507103" lon="14.477278364709564"><ele>79.0</ele><time>2026-04-04T05:22:49.999Z</time></trkpt><trkpt lat="42.15353616029136" lon="14.47719013381719"><ele>78.0</ele><time>2026-04-04T05:22:50.999Z</time></trkpt><trkpt lat="42.153553226948524" lon="14.477024270108263"><ele>77.0</ele><time>2026-04-04T05:22:52.999Z</time></trkpt><trkpt lat="42.15356995618379" lon="14.476934174668962"><ele>76.0</ele><time>2026-04-04T05:22:53.999Z</time></trkpt><trkpt lat="42.15358689099612" lon="14.476841742446439"><ele>75.0</ele><time>2026-04-04T05:22:54.999Z</time></trkpt><trkpt lat="42.153607325592084" lon="14.47674379252515"><ele>74.0</ele><time>2026-04-04T05:22:55.999Z</time></trkpt><trkpt lat="42.1536241197688" lon="14.47663752888843"><ele>73.0</ele><time>2026-04-04T05:22:56.999Z</time></trkpt><trkpt lat="42.15363687496144" lon="14.476524778858513"><ele>73.0</ele><time>2026-04-04T05:22:57.999Z</time></trkpt><trkpt lat="42.153637847587866" lon="14.476408211548502"><ele>73.0</ele><time>2026-04-04T05:22:58.999Z</time></trkpt><trkpt lat="42.153641769054616" lon="14.476288539271925"><ele>73.0</ele><time>2026-04-04T05:22:59.999Z</time></trkpt><trkpt lat="42.153623607828784" lon="14.47616765339779"><ele>73.0</ele><time>2026-04-04T05:23:00.999Z</time></trkpt><trkpt lat="42.153597586822144" lon="14.476051883270868"><ele>73.0</ele><time>2026-04-04T05:23:01.999Z</time></trkpt><trkpt lat="42.153561728085876" lon="14.475939749215962"><ele>73.0</ele><time>2026-04-04T05:23:02.999Z</time></trkpt><trkpt lat="42.15350254240233" lon="14.475842790020181"><ele>72.33333333333333</ele><time>2026-04-04T05:23:03.999Z</time></trkpt><trkpt lat="42.15345349601845" lon="14.475743905187286"><ele>71.66666666666666</ele><time>2026-04-04T05:23:04.999Z</time></trkpt><trkpt lat="42.153397330516384" lon="14.475653547709715"><ele>71.0</ele><time>2026-04-04T05:23:05.999Z</time></trkpt><trkpt lat="42.15334147637813" lon="14.475570084011151"><ele>70.33333333333333</ele><time>2026-04-04T05:23:06.999Z</time></trkpt><trkpt lat="42.15328591809949" lon="14.475489694229752"><ele>69.66666666666667</ele><time>2026-04-04T05:23:07.999Z</time></trkpt><trkpt lat="42.153242420809605" lon="14.475398533428677"><ele>69.0</ele><time>2026-04-04T05:23:08.999Z</time></trkpt><trkpt lat="42.1531831219667" lon="14.475325813091395"><ele>68.0</ele><time>2026-04-04T05:23:09.999Z</time></trkpt><trkpt lat="42.153120203365646" lon="14.4752575190223"><ele>67.0</ele><time>2026-04-04T05:23:10.999Z</time></trkpt><trkpt lat="42.15305859404061" lon="14.47519016493759"><ele>66.0</ele><time>2026-04-04T05:23:11.999Z</time></trkpt><trkpt lat="42.152998898064936" lon="14.47512241620733"><ele>65.0</ele><time>2026-04-04T05:23:12.999Z</time></trkpt><trkpt lat="42.15294317754982" lon="14.475053272110664"><ele>64.0</ele><time>2026-04-04T05:23:13.999Z</time></trkpt><trkpt lat="42.15288940764978" lon="14.474984523621544"><ele>63.0</ele><time>2026-04-04T05:23:14.999Z</time></trkpt><trkpt lat="42.152838039038905" lon="14.474916030847071"><ele>63.0</ele><time>2026-04-04T05:23:15.999Z</time></trkpt><trkpt lat="42.15278791655539" lon="14.474848086408821"><ele>63.0</ele><time>2026-04-04T05:23:16.999Z</time></trkpt><trkpt lat="42.15273867378598" lon="14.474778778556722"><ele>63.0</ele><time>2026-04-04T05:23:17.998Z</time></trkpt><trkpt lat="42.15268200149634" lon="14.474724041371624"><ele>63.0</ele><time>2026-04-04T05:23:18.998Z</time></trkpt><trkpt lat="42.15263407098168" lon="14.474655265436025"><ele>63.0</ele><time>2026-04-04T05:23:19.998Z</time></trkpt><trkpt lat="42.15258730929895" lon="14.474594918487458"><ele>63.0</ele><time>2026-04-04T05:23:20.998Z</time></trkpt><trkpt lat="42.15255835630763" lon="14.47451945599863"><ele>63.0</ele><time>2026-04-04T05:23:21.998Z</time></trkpt><trkpt lat="42.15248472405888" lon="14.474411330542535"><ele>62.8</ele><time>2026-04-04T05:23:23.998Z</time></trkpt><trkpt lat="42.15242294413668" lon="14.474323083828105"><ele>62.599999999999994</ele><time>2026-04-04T05:23:25.998Z</time></trkpt><trkpt lat="42.152392273489035" lon="14.474239674821076"><ele>62.400000000000006</ele><time>2026-04-04T05:23:28.998Z</time></trkpt><trkpt lat="42.15244928485976" lon="14.474187416259237"><ele>62.2</ele><time>2026-04-04T05:23:30.998Z</time></trkpt><trkpt lat="42.15252740656195" lon="14.474093984174662"><ele>62.0</ele><time>2026-04-04T05:23:32.998Z</time></trkpt><trkpt lat="42.15263045418939" lon="14.474011055277701"><ele>62.0</ele><time>2026-04-04T05:23:34.998Z</time></trkpt><trkpt lat="42.15273675883646" lon="14.473927738723964"><ele>62.0</ele><time>2026-04-04T05:23:36.998Z</time></trkpt><trkpt lat="42.15284105665184" lon="14.473842308438305"><ele>62.0</ele><time>2026-04-04T05:23:38.998Z</time></trkpt><trkpt lat="42.15294378241121" lon="14.473753994338018"><ele>62.0</ele><time>2026-04-04T05:23:40.998Z</time></trkpt><trkpt lat="42.153049352403876" lon="14.473670667485628"><ele>61.85714285714286</ele><time>2026-04-04T05:23:43Z</time></trkpt><trkpt lat="42.15310376589183" lon="14.473625227326108"><ele>61.71428571428572</ele><time>2026-04-04T05:23:44Z</time></trkpt><trkpt lat="42.153160302582016" lon="14.473577171355087"><ele>61.57142857142857</ele><time>2026-04-04T05:23:45Z</time></trkpt><trkpt lat="42.15321749841703" lon="14.473531177122132"><ele>61.42857142857143</ele><time>2026-04-04T05:23:46Z</time></trkpt><trkpt lat="42.15327671030699" lon="14.473489619675952"><ele>61.285714285714285</ele><time>2026-04-04T05:23:47Z</time></trkpt><trkpt lat="42.1533397091537" lon="14.473460799028668"><ele>61.14285714285714</ele><time>2026-04-04T05:23:48Z</time></trkpt><trkpt lat="42.153402286566475" lon="14.473446205498329"><ele>60.99999999999999</ele><time>2026-04-04T05:23:49Z</time></trkpt><trkpt lat="42.15346695244351" lon="14.473444383515531"><ele>59.4</ele><time>2026-04-04T05:23:50Z</time></trkpt><trkpt lat="42.153531912646365" lon="14.473449293763682"><ele>57.8</ele><time>2026-04-04T05:23:51Z</time></trkpt><trkpt lat="42.15364148890775" lon="14.47345995802694"><ele>56.199999999999996</ele><time>2026-04-04T05:23:53Z</time></trkpt><trkpt lat="42.15370263439355" lon="14.473484291313987"><ele>54.599999999999994</ele><time>2026-04-04T05:23:55Z</time></trkpt><trkpt lat="42.15370435411116" lon="14.473270998406923"><ele>53.0</ele><time>2026-04-04T05:23:57Z</time></trkpt><trkpt lat="42.153654908119925" lon="14.473186555744995"><ele>53.0</ele><time>2026-04-04T05:23:59Z</time></trkpt><trkpt lat="42.153608903779215" lon="14.473122728911454"><ele>53.0</ele><time>2026-04-04T05:24:01Z</time></trkpt><trkpt lat="42.15355868291413" lon="14.473035588316977"><ele>53.0</ele><time>2026-04-04T05:24:04Z</time></trkpt><trkpt lat="42.15351681139463" lon="14.472965167647232"><ele>53.0</ele><time>2026-04-04T05:24:07Z</time></trkpt><trkpt lat="42.15347299810669" lon="14.472902067191958"><ele>53.0</ele><time>2026-04-04T05:24:10Z</time></trkpt><trkpt lat="42.15343633487726" lon="14.472824982135641"><ele>53.0</ele><time>2026-04-04T05:24:13Z</time></trkpt><trkpt lat="42.153373690266136" lon="14.472753015179618"><ele>53.0</ele><time>2026-04-04T05:24:17Z</time></trkpt><trkpt lat="42.15332278336941" lon="14.472678333565863"><ele>53.0</ele><time>2026-04-04T05:24:21.999Z</time></trkpt><trkpt lat="42.15330572119878" lon="14.472596422932142"><ele>53.0</ele><time>2026-04-04T05:24:30.999Z</time></trkpt><trkpt lat="42.153308014970236" lon="14.472681513662879"><ele>53.0</ele><time>2026-04-04T05:24:37.999Z</time></trkpt><trkpt lat="42.15337191433946" lon="14.472677356641949"><ele>53.0</ele><time>2026-04-04T05:24:41.999Z</time></trkpt><trkpt lat="42.153353688240834" lon="14.472773283917743"><ele>53.0</ele><time>2026-04-04T05:29:08.999Z</time></trkpt><trkpt lat="42.153406673642436" lon="14.472827906963776"><ele>53.0</ele><time>2026-04-04T05:29:13.999Z</time></trkpt><trkpt lat="42.15344023857881" lon="14.472909643267739"><ele>53.0</ele><time>2026-04-04T05:29:31.998Z</time></trkpt><trkpt lat="42.15348381275799" lon="14.472984340722867"><ele>53.0</ele><time>2026-04-04T05:29:35.998Z</time></trkpt><trkpt lat="42.15353166978827" lon="14.473044694421025"><ele>53.0</ele><time>2026-04-04T05:29:38.998Z</time></trkpt><trkpt lat="42.153572551446636" lon="14.473110223458114"><ele>53.0</ele><time>2026-04-04T05:29:40.998Z</time></trkpt><trkpt lat="42.153612199110036" lon="14.473183295871465"><ele>53.0</ele><time>2026-04-04T05:29:42.998Z</time></trkpt><trkpt lat="42.15365445583836" lon="14.473260299886038"><ele>53.0</ele><time>2026-04-04T05:29:44.998Z</time></trkpt><trkpt lat="42.15369078389743" lon="14.473367507009092"><ele>53.0</ele><time>2026-04-04T05:29:47.998Z</time></trkpt><trkpt lat="42.153719423468964" lon="14.473455736549168"><ele>53.0</ele><time>2026-04-04T05:29:51.998Z</time></trkpt><trkpt lat="42.153794252784586" lon="14.473501966417928"><ele>53.00000000000001</ele><time>2026-04-04T05:29:56.998Z</time></trkpt><trkpt lat="42.15387278676779" lon="14.473515718761666"><ele>53.0</ele><time>2026-04-04T05:30:00Z</time></trkpt><trkpt lat="42.1539465094592" lon="14.473531250198384"><ele>53.0</ele><time>2026-04-04T05:30:03Z</time></trkpt><trkpt lat="42.15402425456791" lon="14.47355110474123"><ele>53.0</ele><time>2026-04-04T05:30:06Z</time></trkpt><trkpt lat="42.154094100353326" lon="14.473565946221166"><ele>53.00000000000001</ele><time>2026-04-04T05:30:11Z</time></trkpt><trkpt lat="42.15401729393011" lon="14.473513866430986"><ele>53.0</ele><time>2026-04-04T05:30:21Z</time></trkpt><trkpt lat="42.15394263313858" lon="14.473496121538842"><ele>53.00000000000001</ele><time>2026-04-04T05:30:24Z</time></trkpt><trkpt lat="42.153869435609074" lon="14.473474159729154"><ele>53.0</ele><time>2026-04-04T05:30:26.999Z</time></trkpt><trkpt lat="42.15380082414657" lon="14.473420505499018"><ele>53.0</ele><time>2026-04-04T05:30:29.999Z</time></trkpt><trkpt lat="42.153740763556996" lon="14.473342883630618"><ele>53.0</ele><time>2026-04-04T05:30:32.999Z</time></trkpt><trkpt lat="42.1536834254472" lon="14.473250662090233"><ele>53.00000000000001</ele><time>2026-04-04T05:30:35.999Z</time></trkpt><trkpt lat="42.153629451908394" lon="14.473144517991734"><ele>53.0</ele><time>2026-04-04T05:30:38.999Z</time></trkpt><trkpt lat="42.153586874120926" lon="14.473074125318796"><ele>53.0</ele><time>2026-04-04T05:30:40.999Z</time></trkpt><trkpt lat="42.15354356628987" lon="14.47300239371992"><ele>53.0</ele><time>2026-04-04T05:30:42.999Z</time></trkpt><trkpt lat="42.15350050872243" lon="14.472935180605084"><ele>53.0</ele><time>2026-04-04T05:30:44.999Z</time></trkpt><trkpt lat="42.15345599854329" lon="14.472867832142148"><ele>53.0</ele><time>2026-04-04T05:30:46.999Z</time></trkpt><trkpt lat="42.15340237129254" lon="14.47279965587214"><ele>53.0</ele><time>2026-04-04T05:30:48.999Z</time></trkpt><trkpt lat="42.15334849081958" lon="14.472735003367506"><ele>53.0</ele><time>2026-04-04T05:30:50.999Z</time></trkpt><trkpt lat="42.15329516564372" lon="14.472673690841416"><ele>53.0</ele><time>2026-04-04T05:30:52.999Z</time></trkpt><trkpt lat="42.15324003057321" lon="14.47261562035483"><ele>53.57142857142857</ele><time>2026-04-04T05:30:54.999Z</time></trkpt><trkpt lat="42.15318634093075" lon="14.472555467295141"><ele>54.14285714285714</ele><time>2026-04-04T05:30:56.999Z</time></trkpt><trkpt lat="42.15313277089058" lon="14.472491456096877"><ele>54.71428571428571</ele><time>2026-04-04T05:30:58.999Z</time></trkpt><trkpt lat="42.15307673871187" lon="14.472430464969714"><ele>55.285714285714285</ele><time>2026-04-04T05:31:00.999Z</time></trkpt><trkpt lat="42.15301887269692" lon="14.472366116184306"><ele>55.85714285714285</ele><time>2026-04-04T05:31:02.999Z</time></trkpt><trkpt lat="42.15296185311425" lon="14.472299632277691"><ele>56.42857142857142</ele><time>2026-04-04T05:31:04.999Z</time></trkpt><trkpt lat="42.15290492108764" lon="14.472234704016463"><ele>57.0</ele><time>2026-04-04T05:31:06.999Z</time></trkpt><trkpt lat="42.15284764899249" lon="14.472172154668444"><ele>57.0</ele><time>2026-04-04T05:31:08.999Z</time></trkpt><trkpt lat="42.15279345276233" lon="14.47211303818774"><ele>56.99999999999999</ele><time>2026-04-04T05:31:10.999Z</time></trkpt><trkpt lat="42.152739903676846" lon="14.472054613878626"><ele>57.0</ele><time>2026-04-04T05:31:12.999Z</time></trkpt><trkpt lat="42.15268767584993" lon="14.471992747844876"><ele>57.0</ele><time>2026-04-04T05:31:14.999Z</time></trkpt><trkpt lat="42.15263716229026" lon="14.47192748381942"><ele>56.99999999999999</ele><time>2026-04-04T05:31:16.999Z</time></trkpt><trkpt lat="42.15258572198239" lon="14.471862948212577"><ele>57.0</ele><time>2026-04-04T05:31:18.999Z</time></trkpt><trkpt lat="42.15253565236929" lon="14.471802212426837"><ele>57.0</ele><time>2026-04-04T05:31:20.998Z</time></trkpt><trkpt lat="42.152486782633034" lon="14.471739860874413"><ele>56.333333333333336</ele><time>2026-04-04T05:31:22.998Z</time></trkpt><trkpt lat="42.15243582303028" lon="14.471666708913366"><ele>55.66666666666667</ele><time>2026-04-04T05:31:24.998Z</time></trkpt><trkpt lat="42.15237993564841" lon="14.471587769695956"><ele>55.0</ele><time>2026-04-04T05:31:26.998Z</time></trkpt><trkpt lat="42.152322452581004" lon="14.471502521428821"><ele>54.333333333333336</ele><time>2026-04-04T05:31:28.998Z</time></trkpt><trkpt lat="42.152268276597226" lon="14.471419905809688"><ele>53.66666666666667</ele><time>2026-04-04T05:31:30.998Z</time></trkpt><trkpt lat="42.15221437473185" lon="14.471341064511538"><ele>53.0</ele><time>2026-04-04T05:31:32.998Z</time></trkpt><trkpt lat="42.15216461951942" lon="14.47126024253517"><ele>52.833333333333336</ele><time>2026-04-04T05:31:34.998Z</time></trkpt><trkpt lat="42.15210725914207" lon="14.471186141877446"><ele>52.66666666666667</ele><time>2026-04-04T05:31:36.998Z</time></trkpt><trkpt lat="42.152055802652185" lon="14.471103721669849"><ele>52.5</ele><time>2026-04-04T05:31:38.998Z</time></trkpt><trkpt lat="42.15200397219361" lon="14.471018976209539"><ele>52.33333333333333</ele><time>2026-04-04T05:31:40.998Z</time></trkpt><trkpt lat="42.151950347140904" lon="14.470938515707834"><ele>52.166666666666664</ele><time>2026-04-04T05:31:42.998Z</time></trkpt><trkpt lat="42.15189836561846" lon="14.47085643336811"><ele>52.0</ele><time>2026-04-04T05:31:44.998Z</time></trkpt><trkpt lat="42.15184569236887" lon="14.470773768592009"><ele>51.99999999999999</ele><time>2026-04-04T05:31:46.998Z</time></trkpt><trkpt lat="42.15179453885288" lon="14.47069474105177"><ele>52.0</ele><time>2026-04-04T05:31:48.998Z</time></trkpt><trkpt lat="42.1517436233114" lon="14.470617182653418"><ele>52.0</ele><time>2026-04-04T05:31:50.998Z</time></trkpt><trkpt lat="42.15169310121182" lon="14.470547005146704"><ele>52.0</ele><time>2026-04-04T05:31:52.998Z</time></trkpt><trkpt lat="42.15164729491098" lon="14.470471548333755"><ele>51.99999999999999</ele><time>2026-04-04T05:31:54.998Z</time></trkpt><trkpt lat="42.15159994804723" lon="14.470396208879249"><ele>52.0</ele><time>2026-04-04T05:31:56.998Z</time></trkpt><trkpt lat="42.151549270121116" lon="14.470315964686717"><ele>52.99999999999999</ele><time>2026-04-04T05:31:58.998Z</time></trkpt><trkpt lat="42.15150739511372" lon="14.470221935372814"><ele>54.0</ele><time>2026-04-04T05:32:00.998Z</time></trkpt><trkpt lat="42.15147683232188" lon="14.470114510651952"><ele>55.0</ele><time>2026-04-04T05:32:02.998Z</time></trkpt><trkpt lat="42.15146307866344" lon="14.470003860111202"><ele>56.0</ele><time>2026-04-04T05:32:04.998Z</time></trkpt><trkpt lat="42.151467340806285" lon="14.469890594454395"><ele>56.99999999999999</ele><time>2026-04-04T05:32:07Z</time></trkpt><trkpt lat="42.151477119745444" lon="14.469777596841082"><ele>58.0</ele><time>2026-04-04T05:32:09Z</time></trkpt><trkpt lat="42.151488492059116" lon="14.4696580590266"><ele>57.49999999999999</ele><time>2026-04-04T05:32:11Z</time></trkpt><trkpt lat="42.1514937791607" lon="14.469537865691716"><ele>57.0</ele><time>2026-04-04T05:32:13Z</time></trkpt><trkpt lat="42.15148423301737" lon="14.469439680374641"><ele>56.5</ele><time>2026-04-04T05:32:15Z</time></trkpt><trkpt lat="42.15145569814483" lon="14.46933617051242"><ele>56.0</ele><time>2026-04-04T05:32:17Z</time></trkpt><trkpt lat="42.151410082469326" lon="14.469232854359502"><ele>55.49999999999999</ele><time>2026-04-04T05:32:19Z</time></trkpt><trkpt lat="42.15136262512892" lon="14.46912377559888"><ele>55.0</ele><time>2026-04-04T05:32:21Z</time></trkpt><trkpt lat="42.15132204171534" lon="14.469035322628992"><ele>54.99999999999999</ele><time>2026-04-04T05:32:23Z</time></trkpt><trkpt lat="42.15128025038346" lon="14.468924247953108"><ele>55.0</ele><time>2026-04-04T05:32:26Z</time></trkpt><trkpt lat="42.151234087325435" lon="14.46881193664932"><ele>55.0</ele><time>2026-04-04T05:32:28.999Z</time></trkpt><trkpt lat="42.15120016357118" lon="14.468734900402136"><ele>55.0</ele><time>2026-04-04T05:32:30.999Z</time></trkpt><trkpt lat="42.15116739024905" lon="14.468659976360073"><ele>54.99999999999999</ele><time>2026-04-04T05:32:32.999Z</time></trkpt><trkpt lat="42.15112439626891" lon="14.468543141071947"><ele>55.0</ele><time>2026-04-04T05:32:35.999Z</time></trkpt><trkpt lat="42.151076728075516" lon="14.468434951146593"><ele>54.857142857142854</ele><time>2026-04-04T05:32:38.999Z</time></trkpt><trkpt lat="42.15104552862872" lon="14.468359212337969"><ele>54.714285714285715</ele><time>2026-04-04T05:32:40.999Z</time></trkpt><trkpt lat="42.15101275068489" lon="14.46828437854662"><ele>54.57142857142857</ele><time>2026-04-04T05:32:42.999Z</time></trkpt><trkpt lat="42.150980453561516" lon="14.4682077288352"><ele>54.42857142857143</ele><time>2026-04-04T05:32:44.999Z</time></trkpt><trkpt lat="42.15094656200137" lon="14.46812568698442"><ele>54.285714285714285</ele><time>2026-04-04T05:32:46.999Z</time></trkpt><trkpt lat="42.15091339511171" lon="14.46804757323891"><ele>54.14285714285714</ele><time>2026-04-04T05:32:48.999Z</time></trkpt><trkpt lat="42.15088751233651" lon="14.467966354560431"><ele>54.0</ele><time>2026-04-04T05:32:50.999Z</time></trkpt><trkpt lat="42.150854312603464" lon="14.467890104980832"><ele>54.0</ele><time>2026-04-04T05:32:52.999Z</time></trkpt><trkpt lat="42.150822318164046" lon="14.467810370580994"><ele>54.0</ele><time>2026-04-04T05:32:54.999Z</time></trkpt><trkpt lat="42.150791248208655" lon="14.467735915547726"><ele>54.0</ele><time>2026-04-04T05:32:56.999Z</time></trkpt><trkpt lat="42.1507484131392" lon="14.467621443228467"><ele>54.0</ele><time>2026-04-04T05:32:59.999Z</time></trkpt><trkpt lat="42.150717809782485" lon="14.4675410990588"><ele>54.0</ele><time>2026-04-04T05:33:01.999Z</time></trkpt><trkpt lat="42.1506819842083" lon="14.467465403307509"><ele>54.0</ele><time>2026-04-04T05:33:03.999Z</time></trkpt><trkpt lat="42.150644211952894" lon="14.467384423548449"><ele>54.0</ele><time>2026-04-04T05:33:05.999Z</time></trkpt><trkpt lat="42.15060830338743" lon="14.467310865878007"><ele>54.714285714285715</ele><time>2026-04-04T05:33:07.999Z</time></trkpt><trkpt lat="42.150573687837436" lon="14.467224688528077"><ele>55.42857142857143</ele><time>2026-04-04T05:33:09.999Z</time></trkpt><trkpt lat="42.15054011411565" lon="14.467140750016082"><ele>56.14285714285714</ele><time>2026-04-04T05:33:11.999Z</time></trkpt><trkpt lat="42.1505055248518" lon="14.467060122215345"><ele>56.85714285714286</ele><time>2026-04-04T05:33:13.999Z</time></trkpt><trkpt lat="42.15047553928783" lon="14.466978797909901"><ele>57.57142857142858</ele><time>2026-04-04T05:33:15.999Z</time></trkpt><trkpt lat="42.1504442136844" lon="14.466893990856379"><ele>58.285714285714285</ele><time>2026-04-04T05:33:17.999Z</time></trkpt><trkpt lat="42.150409078754095" lon="14.466806526326627"><ele>59.0</ele><time>2026-04-04T05:33:19.999Z</time></trkpt><trkpt lat="42.15037195999756" lon="14.466728652978796"><ele>59.00000000000001</ele><time>2026-04-04T05:33:21.998Z</time></trkpt><trkpt lat="42.150331136823475" lon="14.46664324345834"><ele>59.0</ele><time>2026-04-04T05:33:23.998Z</time></trkpt><trkpt lat="42.15029346678193" lon="14.466559139919315"><ele>59.0</ele><time>2026-04-04T05:33:25.998Z</time></trkpt><trkpt lat="42.150250892412345" lon="14.46647847504909"><ele>59.0</ele><time>2026-04-04T05:33:27.998Z</time></trkpt><trkpt lat="42.15021044369252" lon="14.466393566905012"><ele>59.00000000000001</ele><time>2026-04-04T05:33:29.998Z</time></trkpt><trkpt lat="42.15016566080291" lon="14.466308429434998"><ele>59.0</ele><time>2026-04-04T05:33:31.998Z</time></trkpt><trkpt lat="42.150120888734875" lon="14.466221211577704"><ele>59.66666666666667</ele><time>2026-04-04T05:33:33.998Z</time></trkpt><trkpt lat="42.150075442604845" lon="14.466138335444377"><ele>60.333333333333336</ele><time>2026-04-04T05:33:35.998Z</time></trkpt><trkpt lat="42.150029602567066" lon="14.466054128978943"><ele>61.0</ele><time>2026-04-04T05:33:37.998Z</time></trkpt><trkpt lat="42.14998051297739" lon="14.465972509706383"><ele>61.66666666666667</ele><time>2026-04-04T05:33:39.998Z</time></trkpt><trkpt lat="42.14992958963601" lon="14.465892319417557"><ele>62.333333333333336</ele><time>2026-04-04T05:33:41.998Z</time></trkpt><trkpt lat="42.14988131139289" lon="14.46581132409703"><ele>63.0</ele><time>2026-04-04T05:33:43.998Z</time></trkpt><trkpt lat="42.14982766131962" lon="14.465729052219226"><ele>63.0</ele><time>2026-04-04T05:33:45.998Z</time></trkpt><trkpt lat="42.14977367505494" lon="14.465655788330325"><ele>63.0</ele><time>2026-04-04T05:33:47.998Z</time></trkpt><trkpt lat="42.14972530013499" lon="14.465573092476477"><ele>63.0</ele><time>2026-04-04T05:33:49.998Z</time></trkpt><trkpt lat="42.14967818107458" lon="14.465495506623407"><ele>63.0</ele><time>2026-04-04T05:33:51.998Z</time></trkpt><trkpt lat="42.14963383705669" lon="14.465422248772764"><ele>63.0</ele><time>2026-04-04T05:33:53.998Z</time></trkpt><trkpt lat="42.14958214870572" lon="14.465343589405412"><ele>63.0</ele><time>2026-04-04T05:33:55.998Z</time></trkpt><trkpt lat="42.14953283799075" lon="14.465266249862896"><ele>61.666666666666664</ele><time>2026-04-04T05:33:57.998Z</time></trkpt><trkpt lat="42.14947709272784" lon="14.465193935725946"><ele>60.33333333333333</ele><time>2026-04-04T05:33:59.998Z</time></trkpt><trkpt lat="42.14942692028472" lon="14.465117029428214"><ele>59.0</ele><time>2026-04-04T05:34:01.998Z</time></trkpt><trkpt lat="42.14937344108046" lon="14.465040345644569"><ele>57.666666666666664</ele><time>2026-04-04T05:34:03.998Z</time></trkpt><trkpt lat="42.1493257352443" lon="14.464959785256143"><ele>56.33333333333333</ele><time>2026-04-04T05:34:05.998Z</time></trkpt><trkpt lat="42.14927395087293" lon="14.464882317598315"><ele>55.0</ele><time>2026-04-04T05:34:07.998Z</time></trkpt><trkpt lat="42.14922163372629" lon="14.464808435266477"><ele>54.99999999999999</ele><time>2026-04-04T05:34:09.998Z</time></trkpt><trkpt lat="42.14917317084134" lon="14.464732910098684"><ele>55.0</ele><time>2026-04-04T05:34:12Z</time></trkpt><trkpt lat="42.14912364220288" lon="14.464656863802524"><ele>55.0</ele><time>2026-04-04T05:34:14Z</time></trkpt><trkpt lat="42.14907496876948" lon="14.464582161164811"><ele>55.0</ele><time>2026-04-04T05:34:16Z</time></trkpt><trkpt lat="42.149027103740536" lon="14.464506067823187"><ele>55.0</ele><time>2026-04-04T05:34:18Z</time></trkpt><trkpt lat="42.14897737139812" lon="14.464428247015785"><ele>54.99999999999999</ele><time>2026-04-04T05:34:20Z</time></trkpt><trkpt lat="42.14893470998156" lon="14.464344954398785"><ele>55.0</ele><time>2026-04-04T05:34:22Z</time></trkpt><trkpt lat="42.148890779679405" lon="14.464270658434437"><ele>55.14285714285714</ele><time>2026-04-04T05:34:24Z</time></trkpt><trkpt lat="42.14885087854353" lon="14.464203324912601"><ele>55.285714285714285</ele><time>2026-04-04T05:34:26Z</time></trkpt><trkpt lat="42.14878838400278" lon="14.464108856863913"><ele>55.42857142857143</ele><time>2026-04-04T05:34:29Z</time></trkpt><trkpt lat="42.14874285191772" lon="14.464041278563888"><ele>55.57142857142857</ele><time>2026-04-04T05:34:30.999Z</time></trkpt><trkpt lat="42.14869677457602" lon="14.463976074189167"><ele>55.714285714285715</ele><time>2026-04-04T05:34:32.999Z</time></trkpt><trkpt lat="42.14864840838168" lon="14.463908034678365"><ele>55.857142857142854</ele><time>2026-04-04T05:34:34.999Z</time></trkpt><trkpt lat="42.148602020712836" lon="14.463841796398988"><ele>56.0</ele><time>2026-04-04T05:34:36.999Z</time></trkpt><trkpt lat="42.148560862608434" lon="14.46376363940989"><ele>56.0</ele><time>2026-04-04T05:34:38.999Z</time></trkpt><trkpt lat="42.14851565250618" lon="14.463697641142637"><ele>56.0</ele><time>2026-04-04T05:34:40.999Z</time></trkpt><trkpt lat="42.148470874096176" lon="14.463626751316138"><ele>56.0</ele><time>2026-04-04T05:34:42.999Z</time></trkpt><trkpt lat="42.14842453778108" lon="14.463558859900138"><ele>56.0</ele><time>2026-04-04T05:34:44.999Z</time></trkpt><trkpt lat="42.148377659051455" lon="14.46348667909966"><ele>56.0</ele><time>2026-04-04T05:34:46.999Z</time></trkpt><trkpt lat="42.14833017157862" lon="14.463411959368262"><ele>56.0</ele><time>2026-04-04T05:34:48.999Z</time></trkpt><trkpt lat="42.1482814224147" lon="14.46333678978249"><ele>56.0</ele><time>2026-04-04T05:34:50.999Z</time></trkpt><trkpt lat="42.14823705745325" lon="14.46325777939184"><ele>56.285714285714285</ele><time>2026-04-04T05:34:52.999Z</time></trkpt><trkpt lat="42.148187911712334" lon="14.46318057169637"><ele>56.57142857142857</ele><time>2026-04-04T05:34:54.999Z</time></trkpt><trkpt lat="42.14814123592818" lon="14.463106438307038"><ele>56.85714285714286</ele><time>2026-04-04T05:34:56.999Z</time></trkpt><trkpt lat="42.1480924846119" lon="14.463031228394682"><ele>57.142857142857146</ele><time>2026-04-04T05:34:58.999Z</time></trkpt><trkpt lat="42.1480446848291" lon="14.46295567221792"><ele>57.42857142857143</ele><time>2026-04-04T05:35:00.999Z</time></trkpt><trkpt lat="42.14799552112338" lon="14.462880950354155"><ele>57.71428571428572</ele><time>2026-04-04T05:35:02.999Z</time></trkpt><trkpt lat="42.14795033196601" lon="14.462800899735843"><ele>58.00000000000001</ele><time>2026-04-04T05:35:04.999Z</time></trkpt><trkpt lat="42.14789949701908" lon="14.462731663516442"><ele>58.00000000000001</ele><time>2026-04-04T05:35:06.999Z</time></trkpt><trkpt lat="42.14784806609167" lon="14.462664759490206"><ele>58.0</ele><time>2026-04-04T05:35:08.999Z</time></trkpt><trkpt lat="42.14779068044198" lon="14.462603288043438"><ele>58.00000000000001</ele><time>2026-04-04T05:35:10.999Z</time></trkpt><trkpt lat="42.14773084181777" lon="14.462537292161008"><ele>58.00000000000001</ele><time>2026-04-04T05:35:12.999Z</time></trkpt><trkpt lat="42.1476711468092" lon="14.462475167016468"><ele>58.0</ele><time>2026-04-04T05:35:14.999Z</time></trkpt><trkpt lat="42.14761606712502" lon="14.462409364357853"><ele>58.00000000000001</ele><time>2026-04-04T05:35:16.999Z</time></trkpt><trkpt lat="42.147556242598796" lon="14.462350290048365"><ele>58.00000000000001</ele><time>2026-04-04T05:35:18.999Z</time></trkpt><trkpt lat="42.147497056683136" lon="14.462283243763322"><ele>57.99999999999999</ele><time>2026-04-04T05:35:20.999Z</time></trkpt><trkpt lat="42.147441400293616" lon="14.462215012726508"><ele>58.0</ele><time>2026-04-04T05:35:22.999Z</time></trkpt><trkpt lat="42.1473849303574" lon="14.462153142386251"><ele>58.0</ele><time>2026-04-04T05:35:24.999Z</time></trkpt><trkpt lat="42.14732804169473" lon="14.462088406188416"><ele>58.0</ele><time>2026-04-04T05:35:26.999Z</time></trkpt><trkpt lat="42.14726904104334" lon="14.462018614535745"><ele>57.99999999999999</ele><time>2026-04-04T05:35:28.998Z</time></trkpt><trkpt lat="42.14720286581055" lon="14.461954856467917"><ele>58.0</ele><time>2026-04-04T05:35:30.998Z</time></trkpt><trkpt lat="42.14714000909851" lon="14.461880671642673"><ele>58.33333333333333</ele><time>2026-04-04T05:35:32.998Z</time></trkpt><trkpt lat="42.14707433520172" lon="14.4618055684331"><ele>58.666666666666664</ele><time>2026-04-04T05:35:34.998Z</time></trkpt><trkpt lat="42.1470079563143" lon="14.461726106886701"><ele>59.0</ele><time>2026-04-04T05:35:36.998Z</time></trkpt><trkpt lat="42.14693960898846" lon="14.461655378915909"><ele>59.33333333333333</ele><time>2026-04-04T05:35:38.998Z</time></trkpt><trkpt lat="42.14687354351324" lon="14.461582397316898"><ele>59.666666666666664</ele><time>2026-04-04T05:35:40.998Z</time></trkpt><trkpt lat="42.14680741344601" lon="14.461510083141686"><ele>60.0</ele><time>2026-04-04T05:35:42.998Z</time></trkpt><trkpt lat="42.1467405607858" lon="14.461437075008897"><ele>60.0</ele><time>2026-04-04T05:35:44.998Z</time></trkpt><trkpt lat="42.14667331753096" lon="14.461359091944727"><ele>60.0</ele><time>2026-04-04T05:35:46.998Z</time></trkpt><trkpt lat="42.14660272069874" lon="14.461283202381262"><ele>60.0</ele><time>2026-04-04T05:35:48.998Z</time></trkpt><trkpt lat="42.146535384657525" lon="14.46120038236574"><ele>60.0</ele><time>2026-04-04T05:35:50.998Z</time></trkpt><trkpt lat="42.146461248016124" lon="14.461131909767179"><ele>60.0</ele><time>2026-04-04T05:35:52.998Z</time></trkpt><trkpt lat="42.14638196898635" lon="14.461079892453009"><ele>60.0</ele><time>2026-04-04T05:35:54.998Z</time></trkpt><trkpt lat="42.146291775743855" lon="14.461059370981493"><ele>60.333333333333336</ele><time>2026-04-04T05:35:56.998Z</time></trkpt><trkpt lat="42.146198732681015" lon="14.461062845718178"><ele>60.66666666666667</ele><time>2026-04-04T05:35:58.998Z</time></trkpt><trkpt lat="42.1461100256149" lon="14.461069734592941"><ele>61.0</ele><time>2026-04-04T05:36:00.998Z</time></trkpt><trkpt lat="42.1460237720939" lon="14.461077401317779"><ele>61.333333333333336</ele><time>2026-04-04T05:36:02.998Z</time></trkpt><trkpt lat="42.14593546118242" lon="14.461090018090907"><ele>61.66666666666667</ele><time>2026-04-04T05:36:04.998Z</time></trkpt><trkpt lat="42.14584782730356" lon="14.461086981787602"><ele>62.0</ele><time>2026-04-04T05:36:06.998Z</time></trkpt><trkpt lat="42.14576773623947" lon="14.461093911553291"><ele>62.16666666666667</ele><time>2026-04-04T05:36:08.998Z</time></trkpt><trkpt lat="42.1456892564694" lon="14.461073971400399"><ele>62.333333333333336</ele><time>2026-04-04T05:36:10.998Z</time></trkpt><trkpt lat="42.14561480189277" lon="14.46104215984621"><ele>62.5</ele><time>2026-04-04T05:36:12.998Z</time></trkpt><trkpt lat="42.145537816864646" lon="14.460995748484097"><ele>62.66666666666667</ele><time>2026-04-04T05:36:14.998Z</time></trkpt><trkpt lat="42.145462204616635" lon="14.46094691747743"><ele>62.833333333333336</ele><time>2026-04-04T05:36:17Z</time></trkpt><trkpt lat="42.145383520018655" lon="14.460896848744598"><ele>63.0</ele><time>2026-04-04T05:36:19Z</time></trkpt><trkpt lat="42.14530575434036" lon="14.460843589579126"><ele>63.0</ele><time>2026-04-04T05:36:21Z</time></trkpt><trkpt lat="42.14522875916367" lon="14.460795908187544"><ele>63.0</ele><time>2026-04-04T05:36:23Z</time></trkpt><trkpt lat="42.14515176145055" lon="14.46074604017592"><ele>63.0</ele><time>2026-04-04T05:36:25Z</time></trkpt><trkpt lat="42.14507983104441" lon="14.460689857716801"><ele>63.0</ele><time>2026-04-04T05:36:27Z</time></trkpt><trkpt lat="42.14500899710039" lon="14.460628239445054"><ele>63.0</ele><time>2026-04-04T05:36:29Z</time></trkpt><trkpt lat="42.14494347478025" lon="14.46055193475957"><ele>63.0</ele><time>2026-04-04T05:36:31Z</time></trkpt><trkpt lat="42.14487934310714" lon="14.460476478241048"><ele>63.0</ele><time>2026-04-04T05:36:33Z</time></trkpt><trkpt lat="42.144819894580856" lon="14.460393944589311"><ele>63.0</ele><time>2026-04-04T05:36:34.999Z</time></trkpt><trkpt lat="42.14475867809334" lon="14.46030845816445"><ele>63.0</ele><time>2026-04-04T05:36:36.999Z</time></trkpt><trkpt lat="42.144697318237704" lon="14.460224954095018"><ele>63.0</ele><time>2026-04-04T05:36:38.999Z</time></trkpt><trkpt lat="42.14463576158409" lon="14.460140894393755"><ele>63.0</ele><time>2026-04-04T05:36:40.999Z</time></trkpt><trkpt lat="42.144576936519975" lon="14.4600551558962"><ele>63.0</ele><time>2026-04-04T05:36:42.999Z</time></trkpt><trkpt lat="42.14451597529366" lon="14.45997462096919"><ele>63.0</ele><time>2026-04-04T05:36:44.999Z</time></trkpt><trkpt lat="42.14445677981017" lon="14.459898725524479"><ele>63.0</ele><time>2026-04-04T05:36:46.999Z</time></trkpt><trkpt lat="42.14439902694954" lon="14.459825207782353"><ele>63.0</ele><time>2026-04-04T05:36:48.999Z</time></trkpt><trkpt lat="42.14433431757069" lon="14.459757647827706"><ele>63.0</ele><time>2026-04-04T05:36:50.999Z</time></trkpt><trkpt lat="42.14426323554604" lon="14.459693844974328"><ele>63.0</ele><time>2026-04-04T05:36:52.999Z</time></trkpt><trkpt lat="42.14418440395555" lon="14.45964247885727"><ele>63.0</ele><time>2026-04-04T05:36:54.999Z</time></trkpt><trkpt lat="42.14410566680283" lon="14.459602912791722"><ele>63.833333333333336</ele><time>2026-04-04T05:36:56.999Z</time></trkpt><trkpt lat="42.144029165195164" lon="14.459562819575188"><ele>64.66666666666667</ele><time>2026-04-04T05:36:58.999Z</time></trkpt><trkpt lat="42.14395490483045" lon="14.459531554902222"><ele>65.5</ele><time>2026-04-04T05:37:00.999Z</time></trkpt><trkpt lat="42.14388045540192" lon="14.459493915158195"><ele>66.33333333333334</ele><time>2026-04-04T05:37:02.999Z</time></trkpt><trkpt lat="42.14381292204148" lon="14.4594425226324"><ele>67.16666666666667</ele><time>2026-04-04T05:37:04.999Z</time></trkpt><trkpt lat="42.14374989252715" lon="14.45938032448482"><ele>68.0</ele><time>2026-04-04T05:37:06.999Z</time></trkpt><trkpt lat="42.143691860177675" lon="14.459309564236479"><ele>68.0</ele><time>2026-04-04T05:37:08.999Z</time></trkpt><trkpt lat="42.143637451234326" lon="14.459227720874061"><ele>68.0</ele><time>2026-04-04T05:37:10.999Z</time></trkpt><trkpt lat="42.14358865890648" lon="14.459139073642337"><ele>68.0</ele><time>2026-04-04T05:37:12.999Z</time></trkpt><trkpt lat="42.143549308229716" lon="14.459044453696293"><ele>68.0</ele><time>2026-04-04T05:37:14.999Z</time></trkpt><trkpt lat="42.14351665486548" lon="14.458945342251996"><ele>68.0</ele><time>2026-04-04T05:37:16.999Z</time></trkpt><trkpt lat="42.14349950060349" lon="14.458832350003464"><ele>68.0</ele><time>2026-04-04T05:37:18.999Z</time></trkpt><trkpt lat="42.143480353302834" lon="14.458708667306821"><ele>67.0</ele><time>2026-04-04T05:37:20.999Z</time></trkpt><trkpt lat="42.14346463117561" lon="14.458573083349656"><ele>66.0</ele><time>2026-04-04T05:37:22.999Z</time></trkpt><trkpt lat="42.14343958159363" lon="14.458435278089457"><ele>65.0</ele><time>2026-04-04T05:37:24.999Z</time></trkpt><trkpt lat="42.14340375967773" lon="14.458300272569096"><ele>64.0</ele><time>2026-04-04T05:37:26.999Z</time></trkpt><trkpt lat="42.14335211031483" lon="14.458172729428515"><ele>63.0</ele><time>2026-04-04T05:37:28.998Z</time></trkpt><trkpt lat="42.14329224531988" lon="14.458051686787417"><ele>63.599999999999994</ele><time>2026-04-04T05:37:30.998Z</time></trkpt><trkpt lat="42.143234989591136" lon="14.457931757900168"><ele>64.19999999999999</ele><time>2026-04-04T05:37:32.998Z</time></trkpt><trkpt lat="42.14317793057995" lon="14.457819943436974"><ele>64.8</ele><time>2026-04-04T05:37:34.998Z</time></trkpt><trkpt lat="42.143123132353374" lon="14.45770977090944"><ele>65.39999999999999</ele><time>2026-04-04T05:37:36.998Z</time></trkpt><trkpt lat="42.14306894903392" lon="14.457601335595765"><ele>66.0</ele><time>2026-04-04T05:37:38.998Z</time></trkpt><trkpt lat="42.143018313968014" lon="14.45749399733428"><ele>66.0</ele><time>2026-04-04T05:37:40.998Z</time></trkpt><trkpt lat="42.14296574552983" lon="14.457392642713959"><ele>66.0</ele><time>2026-04-04T05:37:42.998Z</time></trkpt><trkpt lat="42.14291089888829" lon="14.45728925993015"><ele>66.0</ele><time>2026-04-04T05:37:44.998Z</time></trkpt><trkpt lat="42.14284443426881" lon="14.457202489500672"><ele>66.0</ele><time>2026-04-04T05:37:46.998Z</time></trkpt><trkpt lat="42.142788723043616" lon="14.45710110533987"><ele>66.0</ele><time>2026-04-04T05:37:48.998Z</time></trkpt><trkpt lat="42.142742228702744" lon="14.456989433779025"><ele>65.0</ele><time>2026-04-04T05:37:50.998Z</time></trkpt><trkpt lat="42.142686957457954" lon="14.456893890756225"><ele>63.99999999999999</ele><time>2026-04-04T05:37:52.998Z</time></trkpt><trkpt lat="42.14263427580453" lon="14.456793822891552"><ele>62.99999999999999</ele><time>2026-04-04T05:37:54.998Z</time></trkpt><trkpt lat="42.14257970848193" lon="14.456697200409257"><ele>62.0</ele><time>2026-04-04T05:37:56.998Z</time></trkpt><trkpt lat="42.14252706507547" lon="14.456595968348523"><ele>61.0</ele><time>2026-04-04T05:37:58.998Z</time></trkpt><trkpt lat="42.14247890028317" lon="14.45649527898948"><ele>60.99999999999999</ele><time>2026-04-04T05:38:00.998Z</time></trkpt><trkpt lat="42.14243008996117" lon="14.45639547592294"><ele>61.0</ele><time>2026-04-04T05:38:02.998Z</time></trkpt><trkpt lat="42.1423775652349" lon="14.456299977839231"><ele>61.0</ele><time>2026-04-04T05:38:04.998Z</time></trkpt><trkpt lat="42.14232497507756" lon="14.456203759193473"><ele>61.0</ele><time>2026-04-04T05:38:06.998Z</time></trkpt><trkpt lat="42.14226417360847" lon="14.456112900613881"><ele>60.99999999999999</ele><time>2026-04-04T05:38:08.998Z</time></trkpt><trkpt lat="42.14221571208091" lon="14.45601517178318"><ele>61.0</ele><time>2026-04-04T05:38:10.998Z</time></trkpt><trkpt lat="42.14216612437077" lon="14.455920185158357"><ele>60.99999999999999</ele><time>2026-04-04T05:38:12.999Z</time></trkpt><trkpt lat="42.142116797711054" lon="14.455825496807597"><ele>61.0</ele><time>2026-04-04T05:38:14.999Z</time></trkpt><trkpt lat="42.14206684762021" lon="14.455736247522811"><ele>61.0</ele><time>2026-04-04T05:38:16.999Z</time></trkpt><trkpt lat="42.14201382199805" lon="14.45564756620768"><ele>61.0</ele><time>2026-04-04T05:38:18.999Z</time></trkpt><trkpt lat="42.141970498340115" lon="14.455550323328719"><ele>60.99999999999999</ele><time>2026-04-04T05:38:20.999Z</time></trkpt><trkpt lat="42.1419207371098" lon="14.45546074543365"><ele>61.0</ele><time>2026-04-04T05:38:23Z</time></trkpt><trkpt lat="42.14187561774704" lon="14.455368100767688"><ele>60.666666666666664</ele><time>2026-04-04T05:38:25Z</time></trkpt><trkpt lat="42.141827925205725" lon="14.45527247280445"><ele>60.33333333333333</ele><time>2026-04-04T05:38:27Z</time></trkpt><trkpt lat="42.141779980991764" lon="14.455180667456709"><ele>60.0</ele><time>2026-04-04T05:38:29Z</time></trkpt><trkpt lat="42.1417337998991" lon="14.455088779489037"><ele>59.66666666666667</ele><time>2026-04-04T05:38:31Z</time></trkpt><trkpt lat="42.14168574447664" lon="14.454998029150524"><ele>59.333333333333336</ele><time>2026-04-04T05:38:33Z</time></trkpt><trkpt lat="42.14164160738328" lon="14.45490155157447"><ele>59.0</ele><time>2026-04-04T05:38:35Z</time></trkpt><trkpt lat="42.141597083355066" lon="14.454809151663682"><ele>59.00000000000001</ele><time>2026-04-04T05:38:37Z</time></trkpt><trkpt lat="42.141556456905676" lon="14.454712658568551"><ele>59.0</ele><time>2026-04-04T05:38:39Z</time></trkpt><trkpt lat="42.141520028937286" lon="14.454617612821972"><ele>59.0</ele><time>2026-04-04T05:38:41Z</time></trkpt><trkpt lat="42.14148827308455" lon="14.454518706989257"><ele>59.0</ele><time>2026-04-04T05:38:43Z</time></trkpt><trkpt lat="42.14145235233939" lon="14.454421253012423"><ele>59.00000000000001</ele><time>2026-04-04T05:38:45Z</time></trkpt><trkpt lat="42.14142117669232" lon="14.454321741424913"><ele>59.0</ele><time>2026-04-04T05:38:47Z</time></trkpt><trkpt lat="42.141393465881045" lon="14.45422212095001"><ele>59.50000000000001</ele><time>2026-04-04T05:38:49Z</time></trkpt><trkpt lat="42.141362347360115" lon="14.454122267874988"><ele>60.0</ele><time>2026-04-04T05:38:51Z</time></trkpt><trkpt lat="42.14133482023244" lon="14.4540211226201"><ele>60.5</ele><time>2026-04-04T05:38:53Z</time></trkpt><trkpt lat="42.141304007039935" lon="14.45392222588869"><ele>61.0</ele><time>2026-04-04T05:38:55Z</time></trkpt><trkpt lat="42.14128044245778" lon="14.453820759774056"><ele>61.50000000000001</ele><time>2026-04-04T05:38:57Z</time></trkpt><trkpt lat="42.14125480406697" lon="14.453715296305159"><ele>62.0</ele><time>2026-04-04T05:38:59Z</time></trkpt><trkpt lat="42.141225077229564" lon="14.45361406999231"><ele>62.00000000000001</ele><time>2026-04-04T05:39:01Z</time></trkpt><trkpt lat="42.14119835784393" lon="14.453516045085776"><ele>62.0</ele><time>2026-04-04T05:39:03Z</time></trkpt><trkpt lat="42.14117149787975" lon="14.453422237556875"><ele>62.0</ele><time>2026-04-04T05:39:05Z</time></trkpt><trkpt lat="42.14114493965456" lon="14.45332931298292"><ele>62.0</ele><time>2026-04-04T05:39:07Z</time></trkpt><trkpt lat="42.14111688989707" lon="14.453232788794436"><ele>62.00000000000001</ele><time>2026-04-04T05:39:09Z</time></trkpt><trkpt lat="42.14108533966742" lon="14.453138872471289"><ele>62.0</ele><time>2026-04-04T05:39:11Z</time></trkpt><trkpt lat="42.14105597797242" lon="14.453046425974598"><ele>62.00000000000001</ele><time>2026-04-04T05:39:13Z</time></trkpt><trkpt lat="42.14102695074202" lon="14.452956725779863"><ele>62.0</ele><time>2026-04-04T05:39:15Z</time></trkpt><trkpt lat="42.14099360053005" lon="14.452873608036509"><ele>62.0</ele><time>2026-04-04T05:39:17Z</time></trkpt><trkpt lat="42.14096585963798" lon="14.452791886530902"><ele>62.0</ele><time>2026-04-04T05:39:19Z</time></trkpt><trkpt lat="42.14093960019333" lon="14.452678062569582"><ele>62.00000000000001</ele><time>2026-04-04T05:39:22Z</time></trkpt><trkpt lat="42.14090900469219" lon="14.452564029944744"><ele>62.0</ele><time>2026-04-04T05:39:25Z</time></trkpt><trkpt lat="42.140868550005536" lon="14.452468997035611"><ele>62.16666666666667</ele><time>2026-04-04T05:39:28Z</time></trkpt><trkpt lat="42.14082111175446" lon="14.452380849177487"><ele>62.333333333333336</ele><time>2026-04-04T05:39:31Z</time></trkpt><trkpt lat="42.14076508794904" lon="14.452326010058657"><ele>62.5</ele><time>2026-04-04T05:39:33.999Z</time></trkpt><trkpt lat="42.14068735382213" lon="14.452342683999591"><ele>62.66666666666667</ele><time>2026-04-04T05:39:37.999Z</time></trkpt><trkpt lat="42.14061998104923" lon="14.45234031360609"><ele>62.833333333333336</ele><time>2026-04-04T05:39:40.999Z</time></trkpt><trkpt lat="42.14053944129318" lon="14.452334086812339"><ele>63.0</ele><time>2026-04-04T05:39:43.999Z</time></trkpt><trkpt lat="42.14044961494198" lon="14.452338581608334"><ele>63.14285714285714</ele><time>2026-04-04T05:39:46.999Z</time></trkpt><trkpt lat="42.14038518807368" lon="14.452347978135336"><ele>63.285714285714285</ele><time>2026-04-04T05:39:48.999Z</time></trkpt><trkpt lat="42.14029472860226" lon="14.452366013052446"><ele>63.42857142857143</ele><time>2026-04-04T05:39:51.999Z</time></trkpt><trkpt lat="42.14020010330597" lon="14.452367376297968"><ele>63.57142857142857</ele><time>2026-04-04T05:39:54.999Z</time></trkpt><trkpt lat="42.140133231623196" lon="14.452363527153775"><ele>63.71428571428571</ele><time>2026-04-04T05:39:56.999Z</time></trkpt><trkpt lat="42.140068742628124" lon="14.452354901508444"><ele>63.857142857142854</ele><time>2026-04-04T05:39:58.999Z</time></trkpt><trkpt lat="42.14000593434644" lon="14.452338204279078"><ele>64.0</ele><time>2026-04-04T05:40:00.999Z</time></trkpt><trkpt lat="42.13994070540224" lon="14.45232282446685"><ele>64.14285714285714</ele><time>2026-04-04T05:40:02.999Z</time></trkpt><trkpt lat="42.13987577832856" lon="14.452301302601573"><ele>64.28571428571428</ele><time>2026-04-04T05:40:04.999Z</time></trkpt><trkpt lat="42.139809811808455" lon="14.452281249473673"><ele>64.42857142857143</ele><time>2026-04-04T05:40:06.999Z</time></trkpt><trkpt lat="42.13974624996395" lon="14.452257676011182"><ele>64.57142857142857</ele><time>2026-04-04T05:40:08.999Z</time></trkpt><trkpt lat="42.139684609661764" lon="14.45222723121982"><ele>64.71428571428572</ele><time>2026-04-04T05:40:10.999Z</time></trkpt><trkpt lat="42.13962523080575" lon="14.452189284932086"><ele>64.85714285714286</ele><time>2026-04-04T05:40:12.999Z</time></trkpt><trkpt lat="42.13956839880402" lon="14.452145672727157"><ele>65.0</ele><time>2026-04-04T05:40:14.999Z</time></trkpt><trkpt lat="42.13952157532458" lon="14.452082971644945"><ele>65.00000000000001</ele><time>2026-04-04T05:40:16.999Z</time></trkpt><trkpt lat="42.139476017465896" lon="14.452014411471527"><ele>65.0</ele><time>2026-04-04T05:40:18.999Z</time></trkpt><trkpt lat="42.13943311995592" lon="14.451942453583893"><ele>65.0</ele><time>2026-04-04T05:40:20.999Z</time></trkpt><trkpt lat="42.13939415130588" lon="14.451866642189113"><ele>65.0</ele><time>2026-04-04T05:40:22.999Z</time></trkpt><trkpt lat="42.139355511563735" lon="14.45178778148752"><ele>65.0</ele><time>2026-04-04T05:40:24.999Z</time></trkpt><trkpt lat="42.139322970833256" lon="14.451699340824987"><ele>65.00000000000001</ele><time>2026-04-04T05:40:26.999Z</time></trkpt><trkpt lat="42.13928875153983" lon="14.451611363989876"><ele>65.0</ele><time>2026-04-04T05:40:29Z</time></trkpt><trkpt lat="42.139259687697155" lon="14.451518172044732"><ele>65.0</ele><time>2026-04-04T05:40:31Z</time></trkpt><trkpt lat="42.139230060695674" lon="14.45142317096881"><ele>65.0</ele><time>2026-04-04T05:40:33Z</time></trkpt><trkpt lat="42.139201894011144" lon="14.451326320683966"><ele>65.0</ele><time>2026-04-04T05:40:35Z</time></trkpt><trkpt lat="42.139176321554515" lon="14.451229371816888"><ele>65.0</ele><time>2026-04-04T05:40:37Z</time></trkpt><trkpt lat="42.139149278420334" lon="14.45113130904323"><ele>65.0</ele><time>2026-04-04T05:40:39Z</time></trkpt><trkpt lat="42.1391214448677" lon="14.45103618250634"><ele>65.0</ele><time>2026-04-04T05:40:41Z</time></trkpt><trkpt lat="42.13909644253226" lon="14.45093802975141"><ele>65.33333333333334</ele><time>2026-04-04T05:40:43Z</time></trkpt><trkpt lat="42.13907140047879" lon="14.45083958434985"><ele>65.66666666666667</ele><time>2026-04-04T05:40:45Z</time></trkpt><trkpt lat="42.13904696207186" lon="14.450738627057449"><ele>66.0</ele><time>2026-04-04T05:40:47Z</time></trkpt><trkpt lat="42.13902201300232" lon="14.45063871872411"><ele>66.33333333333333</ele><time>2026-04-04T05:40:49Z</time></trkpt><trkpt lat="42.13899908727473" lon="14.450541775436015"><ele>66.66666666666666</ele><time>2026-04-04T05:40:51Z</time></trkpt><trkpt lat="42.13897539297252" lon="14.450441948056822"><ele>67.0</ele><time>2026-04-04T05:40:53Z</time></trkpt><trkpt lat="42.13895129905175" lon="14.450343573324302"><ele>67.0</ele><time>2026-04-04T05:40:55Z</time></trkpt><trkpt lat="42.1389273690292" lon="14.450241433797135"><ele>67.0</ele><time>2026-04-04T05:40:57Z</time></trkpt><trkpt lat="42.138902791879175" lon="14.450141519808865"><ele>67.0</ele><time>2026-04-04T05:40:59Z</time></trkpt><trkpt lat="42.13887752958124" lon="14.45004199555864"><ele>67.0</ele><time>2026-04-04T05:41:01Z</time></trkpt><trkpt lat="42.13885205778601" lon="14.449942641205975"><ele>67.0</ele><time>2026-04-04T05:41:03Z</time></trkpt><trkpt lat="42.138828769286455" lon="14.449845451605151"><ele>67.0</ele><time>2026-04-04T05:41:05Z</time></trkpt><trkpt lat="42.13880308599675" lon="14.449745314162056"><ele>67.0</ele><time>2026-04-04T05:41:07Z</time></trkpt><trkpt lat="42.13877936508796" lon="14.449647817876288"><ele>67.0</ele><time>2026-04-04T05:41:09Z</time></trkpt><trkpt lat="42.138754157951844" lon="14.44955233554282"><ele>67.0</ele><time>2026-04-04T05:41:11Z</time></trkpt><trkpt lat="42.13873141237256" lon="14.449456194274797"><ele>67.0</ele><time>2026-04-04T05:41:13Z</time></trkpt><trkpt lat="42.138707214757545" lon="14.449360201829855"><ele>67.0</ele><time>2026-04-04T05:41:15Z</time></trkpt><trkpt lat="42.13868569909434" lon="14.449268461523676"><ele>67.0</ele><time>2026-04-04T05:41:17Z</time></trkpt><trkpt lat="42.138663844776325" lon="14.44917301829401"><ele>67.0</ele><time>2026-04-04T05:41:19Z</time></trkpt><trkpt lat="42.138638957340675" lon="14.449079437896897"><ele>66.83333333333333</ele><time>2026-04-04T05:41:21Z</time></trkpt><trkpt lat="42.13861165213542" lon="14.448982748736238"><ele>66.66666666666666</ele><time>2026-04-04T05:41:23Z</time></trkpt><trkpt lat="42.13858595095248" lon="14.448886110068678"><ele>66.5</ele><time>2026-04-04T05:41:25Z</time></trkpt><trkpt lat="42.138567533153115" lon="14.448788499933967"><ele>66.33333333333333</ele><time>2026-04-04T05:41:27Z</time></trkpt><trkpt lat="42.13853921899154" lon="14.448695235755368"><ele>66.16666666666667</ele><time>2026-04-04T05:41:29Z</time></trkpt><trkpt lat="42.13851665224591" lon="14.448598834225816"><ele>66.0</ele><time>2026-04-04T05:41:31Z</time></trkpt><trkpt lat="42.13849361846331" lon="14.448505823356767"><ele>65.71428571428571</ele><time>2026-04-04T05:41:33Z</time></trkpt><trkpt lat="42.138470117242996" lon="14.4484145182519"><ele>65.42857142857143</ele><time>2026-04-04T05:41:34.999Z</time></trkpt><trkpt lat="42.13844779887766" lon="14.44831852669316"><ele>65.14285714285714</ele><time>2026-04-04T05:41:36.999Z</time></trkpt><trkpt lat="42.1384227625398" lon="14.448222610584281"><ele>64.85714285714286</ele><time>2026-04-04T05:41:38.999Z</time></trkpt><trkpt lat="42.13840074394269" lon="14.448127158143397"><ele>64.57142857142857</ele><time>2026-04-04T05:41:40.999Z</time></trkpt><trkpt lat="42.138377588364655" lon="14.448029319091493"><ele>64.28571428571428</ele><time>2026-04-04T05:41:42.999Z</time></trkpt><trkpt lat="42.13835494205712" lon="14.447932124376493"><ele>64.0</ele><time>2026-04-04T05:41:44.999Z</time></trkpt><trkpt lat="42.138329897478286" lon="14.447835113557774"><ele>63.99999999999999</ele><time>2026-04-04T05:41:46.999Z</time></trkpt><trkpt lat="42.13830435740485" lon="14.44773601256391"><ele>64.0</ele><time>2026-04-04T05:41:48.999Z</time></trkpt><trkpt lat="42.13828013938665" lon="14.44763645591184"><ele>64.0</ele><time>2026-04-04T05:41:50.999Z</time></trkpt><trkpt lat="42.138253797710576" lon="14.447536210029952"><ele>64.0</ele><time>2026-04-04T05:41:52.999Z</time></trkpt><trkpt lat="42.13822683239393" lon="14.447436478995552"><ele>63.99999999999999</ele><time>2026-04-04T05:41:54.999Z</time></trkpt><trkpt lat="42.13819972595395" lon="14.447338622788408"><ele>64.0</ele><time>2026-04-04T05:41:56.999Z</time></trkpt><trkpt lat="42.13817294397264" lon="14.447239535382588"><ele>64.83333333333333</ele><time>2026-04-04T05:41:58.999Z</time></trkpt><trkpt lat="42.138149059203315" lon="14.44714180593223"><ele>65.66666666666666</ele><time>2026-04-04T05:42:00.999Z</time></trkpt><trkpt lat="42.13812084226057" lon="14.447040222735442"><ele>66.5</ele><time>2026-04-04T05:42:02.999Z</time></trkpt><trkpt lat="42.13809869666334" lon="14.446944090063084"><ele>67.33333333333333</ele><time>2026-04-04T05:42:04.999Z</time></trkpt><trkpt lat="42.13807164609939" lon="14.446847422301586"><ele>68.16666666666667</ele><time>2026-04-04T05:42:06.999Z</time></trkpt><trkpt lat="42.138046257089975" lon="14.446754823857024"><ele>69.0</ele><time>2026-04-04T05:42:08.999Z</time></trkpt><trkpt lat="42.13802212558427" lon="14.44666238735525"><ele>69.0</ele><time>2026-04-04T05:42:10.999Z</time></trkpt><trkpt lat="42.13799746706222" lon="14.446565002785647"><ele>69.0</ele><time>2026-04-04T05:42:12.999Z</time></trkpt><trkpt lat="42.137973905315185" lon="14.446468287910214"><ele>69.0</ele><time>2026-04-04T05:42:14.999Z</time></trkpt><trkpt lat="42.1379473878985" lon="14.446371162938137"><ele>69.0</ele><time>2026-04-04T05:42:16.999Z</time></trkpt><trkpt lat="42.13792108860356" lon="14.446278877340397"><ele>69.0</ele><time>2026-04-04T05:42:18.999Z</time></trkpt><trkpt lat="42.137896544169664" lon="14.44618783538263"><ele>69.0</ele><time>2026-04-04T05:42:20.999Z</time></trkpt><trkpt lat="42.13787255146292" lon="14.446097671464612"><ele>69.0</ele><time>2026-04-04T05:42:22.999Z</time></trkpt><trkpt lat="42.137853316855015" lon="14.446009951497079"><ele>69.16666666666667</ele><time>2026-04-04T05:42:24.999Z</time></trkpt><trkpt lat="42.13783395559918" lon="14.445925720679943"><ele>69.33333333333333</ele><time>2026-04-04T05:42:26.999Z</time></trkpt><trkpt lat="42.13784482259946" lon="14.44583099534837"><ele>69.5</ele><time>2026-04-04T05:42:28.998Z</time></trkpt><trkpt lat="42.137895252071175" lon="14.44573815945167"><ele>69.66666666666666</ele><time>2026-04-04T05:42:30.998Z</time></trkpt><trkpt lat="42.13796422404162" lon="14.445656175783768"><ele>69.83333333333333</ele><time>2026-04-04T05:42:32.998Z</time></trkpt><trkpt lat="42.138023490359636" lon="14.445559123639942"><ele>70.0</ele><time>2026-04-04T05:42:35Z</time></trkpt><trkpt lat="42.1380499717382" lon="14.445440532712661"><ele>70.33333333333333</ele><time>2026-04-04T05:42:37Z</time></trkpt><trkpt lat="42.138039669664245" lon="14.44532950994571"><ele>70.66666666666666</ele><time>2026-04-04T05:42:39Z</time></trkpt><trkpt lat="42.13802211879197" lon="14.445230552179115"><ele>71.0</ele><time>2026-04-04T05:42:41Z</time></trkpt><trkpt lat="42.13801666434997" lon="14.445127697347543"><ele>71.33333333333333</ele><time>2026-04-04T05:42:43Z</time></trkpt><trkpt lat="42.138038962889595" lon="14.445026168102798"><ele>71.66666666666667</ele><time>2026-04-04T05:42:45Z</time></trkpt><trkpt lat="42.138100425182586" lon="14.444964180660012"><ele>72.0</ele><time>2026-04-04T05:42:47Z</time></trkpt><trkpt lat="42.13817748883402" lon="14.444942252141466"><ele>71.66666666666667</ele><time>2026-04-04T05:42:49Z</time></trkpt><trkpt lat="42.138262809054496" lon="14.444933918850039"><ele>71.33333333333333</ele><time>2026-04-04T05:42:51Z</time></trkpt><trkpt lat="42.13834526268558" lon="14.444913151356229"><ele>71.0</ele><time>2026-04-04T05:42:53Z</time></trkpt><trkpt lat="42.13843229793375" lon="14.444896737060894"><ele>70.66666666666666</ele><time>2026-04-04T05:42:55Z</time></trkpt><trkpt lat="42.138514119564256" lon="14.44486468596577"><ele>70.33333333333333</ele><time>2026-04-04T05:42:57Z</time></trkpt><trkpt lat="42.138590414488256" lon="14.444817567430903"><ele>70.0</ele><time>2026-04-04T05:42:59Z</time></trkpt><trkpt lat="42.13866372227138" lon="14.444761610756776"><ele>70.0</ele><time>2026-04-04T05:43:01Z</time></trkpt><trkpt lat="42.138729134655186" lon="14.444685252969592"><ele>70.0</ele><time>2026-04-04T05:43:03Z</time></trkpt><trkpt lat="42.13879481304528" lon="14.444600721581217"><ele>70.0</ele><time>2026-04-04T05:43:05Z</time></trkpt><trkpt lat="42.13886027214997" lon="14.444510587798707"><ele>70.0</ele><time>2026-04-04T05:43:07Z</time></trkpt><trkpt lat="42.13892912821391" lon="14.444431991786095"><ele>70.0</ele><time>2026-04-04T05:43:09Z</time></trkpt><trkpt lat="42.13899722831287" lon="14.444351983725591"><ele>69.2</ele><time>2026-04-04T05:43:11Z</time></trkpt><trkpt lat="42.139065784297664" lon="14.444272619707796"><ele>68.4</ele><time>2026-04-04T05:43:13Z</time></trkpt><trkpt lat="42.139135999006456" lon="14.4441863497561"><ele>67.6</ele><time>2026-04-04T05:43:15Z</time></trkpt><trkpt lat="42.1392083031131" lon="14.444102352579797"><ele>66.8</ele><time>2026-04-04T05:43:17Z</time></trkpt><trkpt lat="42.13928169849666" lon="14.444020487840763"><ele>66.0</ele><time>2026-04-04T05:43:19Z</time></trkpt><trkpt lat="42.13934920154544" lon="14.443948011041922"><ele>66.0</ele><time>2026-04-04T05:43:21Z</time></trkpt><trkpt lat="42.13943022010248" lon="14.443926608814508"><ele>66.0</ele><time>2026-04-04T05:43:23Z</time></trkpt><trkpt lat="42.13951475878708" lon="14.443957780523057"><ele>66.0</ele><time>2026-04-04T05:43:25Z</time></trkpt><trkpt lat="42.1396073845379" lon="14.444001986186434"><ele>66.0</ele><time>2026-04-04T05:43:27Z</time></trkpt><trkpt lat="42.13970338660468" lon="14.444039037286466"><ele>66.0</ele><time>2026-04-04T05:43:29Z</time></trkpt><trkpt lat="42.139799271774706" lon="14.444083191420315"><ele>66.2</ele><time>2026-04-04T05:43:31Z</time></trkpt><trkpt lat="42.13990255601236" lon="14.444124670296528"><ele>66.39999999999999</ele><time>2026-04-04T05:43:32.999Z</time></trkpt><trkpt lat="42.1400060138412" lon="14.44416715095617"><ele>66.6</ele><time>2026-04-04T05:43:34.999Z</time></trkpt><trkpt lat="42.14010571288716" lon="14.444205130093946"><ele>66.8</ele><time>2026-04-04T05:43:36.999Z</time></trkpt><trkpt lat="42.14019854920237" lon="14.444239939145431"><ele>67.0</ele><time>2026-04-04T05:43:38.999Z</time></trkpt><trkpt lat="42.14028306582876" lon="14.444276440917571"><ele>67.0</ele><time>2026-04-04T05:43:40.999Z</time></trkpt><trkpt lat="42.14036993981861" lon="14.444308191253958"><ele>67.0</ele><time>2026-04-04T05:43:42.999Z</time></trkpt><trkpt lat="42.14045918189955" lon="14.444349550654337"><ele>67.0</ele><time>2026-04-04T05:43:44.999Z</time></trkpt><trkpt lat="42.14054401565023" lon="14.44439416734629"><ele>67.0</ele><time>2026-04-04T05:43:46.999Z</time></trkpt><trkpt lat="42.14062429247789" lon="14.444439657422352"><ele>67.0</ele><time>2026-04-04T05:43:48.999Z</time></trkpt><trkpt lat="42.14070511183811" lon="14.444493862557051"><ele>66.8</ele><time>2026-04-04T05:43:50.999Z</time></trkpt><trkpt lat="42.140779916867956" lon="14.444558617741555"><ele>66.6</ele><time>2026-04-04T05:43:52.999Z</time></trkpt><trkpt lat="42.140851045777325" lon="14.44463737545849"><ele>66.39999999999999</ele><time>2026-04-04T05:43:54.999Z</time></trkpt><trkpt lat="42.14092022012015" lon="14.444722924577945"><ele>66.2</ele><time>2026-04-04T05:43:56.999Z</time></trkpt><trkpt lat="42.14098774551556" lon="14.444819906049247"><ele>66.0</ele><time>2026-04-04T05:43:58.999Z</time></trkpt><trkpt lat="42.14105550034684" lon="14.444919528933422"><ele>66.0</ele><time>2026-04-04T05:44:00.999Z</time></trkpt><trkpt lat="42.14112210020914" lon="14.44502147366152"><ele>66.0</ele><time>2026-04-04T05:44:02.999Z</time></trkpt><trkpt lat="42.14119148723558" lon="14.445119944829605"><ele>66.0</ele><time>2026-04-04T05:44:04.999Z</time></trkpt><trkpt lat="42.141255310038986" lon="14.445219732999266"><ele>66.0</ele><time>2026-04-04T05:44:06.999Z</time></trkpt><trkpt lat="42.14131607832919" lon="14.445316780295064"><ele>66.0</ele><time>2026-04-04T05:44:08.999Z</time></trkpt><trkpt lat="42.141378944182165" lon="14.445418311670613"><ele>66.0</ele><time>2026-04-04T05:44:10.999Z</time></trkpt><trkpt lat="42.14144342785721" lon="14.44552051584716"><ele>66.0</ele><time>2026-04-04T05:44:12.999Z</time></trkpt><trkpt lat="42.1415154070493" lon="14.445615175887855"><ele>66.0</ele><time>2026-04-04T05:44:14.999Z</time></trkpt><trkpt lat="42.14159251412406" lon="14.445697436440701"><ele>66.0</ele><time>2026-04-04T05:44:16.999Z</time></trkpt><trkpt lat="42.14167948785363" lon="14.44576098859353"><ele>66.0</ele><time>2026-04-04T05:44:18.999Z</time></trkpt><trkpt lat="42.14177399874861" lon="14.445804839990236"><ele>65.8</ele><time>2026-04-04T05:44:20.999Z</time></trkpt><trkpt lat="42.14186993243333" lon="14.445843997485236"><ele>65.6</ele><time>2026-04-04T05:44:22.999Z</time></trkpt><trkpt lat="42.14196832066478" lon="14.44587641469004"><ele>65.4</ele><time>2026-04-04T05:44:24.999Z</time></trkpt><trkpt lat="42.142063205643794" lon="14.445914062981922"><ele>65.2</ele><time>2026-04-04T05:44:26.999Z</time></trkpt><trkpt lat="42.14215751341115" lon="14.445948769859323"><ele>65.0</ele><time>2026-04-04T05:44:28.998Z</time></trkpt><trkpt lat="42.14225452179398" lon="14.445980999041756"><ele>65.0</ele><time>2026-04-04T05:44:30.998Z</time></trkpt><trkpt lat="42.142349308521254" lon="14.446013377208436"><ele>65.0</ele><time>2026-04-04T05:44:32.998Z</time></trkpt><trkpt lat="42.142444364378946" lon="14.446053022617642"><ele>65.0</ele><time>2026-04-04T05:44:34.998Z</time></trkpt><trkpt lat="42.14253869773974" lon="14.446086209039475"><ele>65.0</ele><time>2026-04-04T05:44:36.998Z</time></trkpt><trkpt lat="42.142632299054526" lon="14.446123996601882"><ele>65.0</ele><time>2026-04-04T05:44:38.998Z</time></trkpt><trkpt lat="42.14272843248335" lon="14.446157935693119"><ele>64.4</ele><time>2026-04-04T05:44:41Z</time></trkpt><trkpt lat="42.142828504959226" lon="14.446186189337043"><ele>63.8</ele><time>2026-04-04T05:44:43Z</time></trkpt><trkpt lat="42.14292858083907" lon="14.446191645966579"><ele>63.2</ele><time>2026-04-04T05:44:45Z</time></trkpt><trkpt lat="42.14302859978449" lon="14.446169169253604"><ele>62.6</ele><time>2026-04-04T05:44:47Z</time></trkpt><trkpt lat="42.14312297234682" lon="14.446123386946466"><ele>62.0</ele><time>2026-04-04T05:44:49Z</time></trkpt><trkpt lat="42.14321219013815" lon="14.446069173097612"><ele>61.400000000000006</ele><time>2026-04-04T05:44:51Z</time></trkpt><trkpt lat="42.14329741413851" lon="14.446014401425778"><ele>60.800000000000004</ele><time>2026-04-04T05:44:53Z</time></trkpt><trkpt lat="42.14337988271689" lon="14.445966427729156"><ele>60.2</ele><time>2026-04-04T05:44:55Z</time></trkpt><trkpt lat="42.14346354752834" lon="14.445920201316222"><ele>59.6</ele><time>2026-04-04T05:44:57Z</time></trkpt><trkpt lat="42.143546469145534" lon="14.44587462143065"><ele>59.0</ele><time>2026-04-04T05:44:59Z</time></trkpt><trkpt lat="42.14362748783951" lon="14.445831857512047"><ele>59.00000000000001</ele><time>2026-04-04T05:45:01Z</time></trkpt><trkpt lat="42.14370844336631" lon="14.445798514122957"><ele>59.0</ele><time>2026-04-04T05:45:03Z</time></trkpt><trkpt lat="42.14378832604657" lon="14.445760132206255"><ele>59.0</ele><time>2026-04-04T05:45:05Z</time></trkpt><trkpt lat="42.1438655458644" lon="14.445710175951218"><ele>59.0</ele><time>2026-04-04T05:45:07Z</time></trkpt><trkpt lat="42.143942593230165" lon="14.445669891427022"><ele>59.00000000000001</ele><time>2026-04-04T05:45:09Z</time></trkpt><trkpt lat="42.144021920384866" lon="14.445631006472388"><ele>59.0</ele><time>2026-04-04T05:45:11Z</time></trkpt><trkpt lat="42.144100523384104" lon="14.445583376665484"><ele>59.00000000000001</ele><time>2026-04-04T05:45:13Z</time></trkpt><trkpt lat="42.14417854222392" lon="14.445536540304152"><ele>59.0</ele><time>2026-04-04T05:45:15Z</time></trkpt><trkpt lat="42.14425590352511" lon="14.445480065119606"><ele>59.0</ele><time>2026-04-04T05:45:17Z</time></trkpt><trkpt lat="42.14433104238728" lon="14.44541177164845"><ele>59.0</ele><time>2026-04-04T05:45:19Z</time></trkpt><trkpt lat="42.14440185080876" lon="14.44533621674721"><ele>59.00000000000001</ele><time>2026-04-04T05:45:21Z</time></trkpt><trkpt lat="42.14447193374169" lon="14.445259415125305"><ele>59.0</ele><time>2026-04-04T05:45:23Z</time></trkpt><trkpt lat="42.144537027394755" lon="14.445177961575714"><ele>59.00000000000001</ele><time>2026-04-04T05:45:25Z</time></trkpt><trkpt lat="42.14459833949154" lon="14.445089879255447"><ele>59.0</ele><time>2026-04-04T05:45:27Z</time></trkpt><trkpt lat="42.144653834992226" lon="14.444995573847356"><ele>59.0</ele><time>2026-04-04T05:45:29Z</time></trkpt><trkpt lat="42.144703627453936" lon="14.444895947396525"><ele>59.0</ele><time>2026-04-04T05:45:31Z</time></trkpt><trkpt lat="42.144750079152814" lon="14.444796094855253"><ele>59.00000000000001</ele><time>2026-04-04T05:45:33Z</time></trkpt><trkpt lat="42.14479538055351" lon="14.444701075249101"><ele>59.0</ele><time>2026-04-04T05:45:35Z</time></trkpt><trkpt lat="42.1448370045655" lon="14.444607430645844"><ele>59.00000000000001</ele><time>2026-04-04T05:45:37Z</time></trkpt><trkpt lat="42.14488013024896" lon="14.444510021579724"><ele>59.0</ele><time>2026-04-04T05:45:38.999Z</time></trkpt><trkpt lat="42.144925026509576" lon="14.444406775221095"><ele>59.0</ele><time>2026-04-04T05:45:40.999Z</time></trkpt><trkpt lat="42.144968204643284" lon="14.444302219005841"><ele>59.0</ele><time>2026-04-04T05:45:42.999Z</time></trkpt><trkpt lat="42.145012917797715" lon="14.444195840591325"><ele>59.00000000000001</ele><time>2026-04-04T05:45:44.999Z</time></trkpt><trkpt lat="42.145054789067544" lon="14.444091312045048"><ele>59.0</ele><time>2026-04-04T05:45:46.999Z</time></trkpt><trkpt lat="42.14510209514144" lon="14.443987793930388"><ele>59.00000000000001</ele><time>2026-04-04T05:45:48.999Z</time></trkpt><trkpt lat="42.14515089674353" lon="14.44388045715536"><ele>59.0</ele><time>2026-04-04T05:45:50.999Z</time></trkpt><trkpt lat="42.145204484174045" lon="14.443781526741992"><ele>59.0</ele><time>2026-04-04T05:45:52.999Z</time></trkpt><trkpt lat="42.14525862134099" lon="14.443690717181653"><ele>59.0</ele><time>2026-04-04T05:45:54.999Z</time></trkpt><trkpt lat="42.14532094688348" lon="14.44361142873086"><ele>59.00000000000001</ele><time>2026-04-04T05:45:56.999Z</time></trkpt><trkpt lat="42.14538443141112" lon="14.443537490906417"><ele>59.0</ele><time>2026-04-04T05:45:58.999Z</time></trkpt><trkpt lat="42.14545219805916" lon="14.443465473512667"><ele>58.833333333333336</ele><time>2026-04-04T05:46:00.999Z</time></trkpt><trkpt lat="42.14553135641546" lon="14.443403342042567"><ele>58.66666666666667</ele><time>2026-04-04T05:46:02.999Z</time></trkpt><trkpt lat="42.14561835704357" lon="14.443358530466615"><ele>58.5</ele><time>2026-04-04T05:46:04.999Z</time></trkpt><trkpt lat="42.14570238823309" lon="14.443328447948325"><ele>58.33333333333333</ele><time>2026-04-04T05:46:06.999Z</time></trkpt><trkpt lat="42.145782003801656" lon="14.443300701243766"><ele>58.166666666666664</ele><time>2026-04-04T05:46:08.999Z</time></trkpt><trkpt lat="42.145860776270936" lon="14.443271539741819"><ele>58.0</ele><time>2026-04-04T05:46:10.999Z</time></trkpt><trkpt lat="42.14593509397568" lon="14.443239700144389"><ele>57.99999999999999</ele><time>2026-04-04T05:46:12.999Z</time></trkpt><trkpt lat="42.14600503168433" lon="14.443205612582137"><ele>58.0</ele><time>2026-04-04T05:46:14.999Z</time></trkpt><trkpt lat="42.14607899566354" lon="14.443157677970355"><ele>58.0</ele><time>2026-04-04T05:46:17.999Z</time></trkpt><trkpt lat="42.146153421667556" lon="14.44314491756754"><ele>58.0</ele><time>2026-04-04T05:46:21.999Z</time></trkpt><trkpt lat="42.146189680425024" lon="14.443226990958205"><ele>57.99999999999999</ele><time>2026-04-04T05:46:24.999Z</time></trkpt><trkpt lat="42.1462548259684" lon="14.443300597838622"><ele>58.0</ele><time>2026-04-04T05:46:28.999Z</time></trkpt><trkpt lat="42.14632040279775" lon="14.443374886180106"><ele>57.99999999999999</ele><time>2026-04-04T05:46:31.999Z</time></trkpt><trkpt lat="42.14637196030227" lon="14.44344423032643"><ele>58.0</ele><time>2026-04-04T05:46:33.998Z</time></trkpt><trkpt lat="42.14642358256072" lon="14.443521616689706"><ele>58.0</ele><time>2026-04-04T05:46:35.998Z</time></trkpt><trkpt lat="42.14647990311118" lon="14.443602955544184"><ele>58.0</ele><time>2026-04-04T05:46:37.998Z</time></trkpt><trkpt lat="42.14653581806918" lon="14.44368624987435"><ele>57.99999999999999</ele><time>2026-04-04T05:46:39.998Z</time></trkpt><trkpt lat="42.146593923958264" lon="14.443768378395237"><ele>58.0</ele><time>2026-04-04T05:46:41.998Z</time></trkpt><trkpt lat="42.14665362723557" lon="14.443852320722874"><ele>57.99999999999999</ele><time>2026-04-04T05:46:43.998Z</time></trkpt><trkpt lat="42.146714934631106" lon="14.44393842502536"><ele>58.0</ele><time>2026-04-04T05:46:46Z</time></trkpt><trkpt lat="42.14677640456865" lon="14.444025662296506"><ele>58.0</ele><time>2026-04-04T05:46:48Z</time></trkpt><trkpt lat="42.14683459509747" lon="14.444115452906415"><ele>58.0</ele><time>2026-04-04T05:46:50Z</time></trkpt><trkpt lat="42.14688908100037" lon="14.444195589831146"><ele>57.99999999999999</ele><time>2026-04-04T05:46:52Z</time></trkpt><trkpt lat="42.146940717243986" lon="14.444275091660925"><ele>58.0</ele><time>2026-04-04T05:46:54Z</time></trkpt><trkpt lat="42.146946262133156" lon="14.444394189645307"><ele>57.99999999999999</ele><time>2026-04-04T05:46:57Z</time></trkpt><trkpt lat="42.14698068174997" lon="14.444472181173209"><ele>58.0</ele><time>2026-04-04T05:47:01Z</time></trkpt><trkpt lat="42.14702820744946" lon="14.444383940857643"><ele>58.0</ele><time>2026-04-04T05:51:05Z</time></trkpt><trkpt lat="42.14698220094705" lon="14.444281860032945"><ele>58.0</ele><time>2026-04-04T05:51:08Z</time></trkpt><trkpt lat="42.14692232735679" lon="14.444189781359297"><ele>57.99999999999999</ele><time>2026-04-04T05:51:11Z</time></trkpt><trkpt lat="42.146862488163904" lon="14.444097522594658"><ele>58.0</ele><time>2026-04-04T05:51:14Z</time></trkpt><trkpt lat="42.14682434196275" lon="14.444023417888143"><ele>58.00000000000001</ele><time>2026-04-04T05:51:16Z</time></trkpt><trkpt lat="42.14677673645002" lon="14.443956458655817"><ele>58.0</ele><time>2026-04-04T05:51:18Z</time></trkpt><trkpt lat="42.14673218414139" lon="14.443881862408924"><ele>58.00000000000001</ele><time>2026-04-04T05:51:20Z</time></trkpt><trkpt lat="42.14668283420849" lon="14.443807483501638"><ele>58.00000000000001</ele><time>2026-04-04T05:51:22Z</time></trkpt><trkpt lat="42.14663332699841" lon="14.443730587393887"><ele>58.0</ele><time>2026-04-04T05:51:24Z</time></trkpt><trkpt lat="42.14658271368756" lon="14.4436534579497"><ele>58.00000000000001</ele><time>2026-04-04T05:51:26Z</time></trkpt><trkpt lat="42.1465327344538" lon="14.443580132720502"><ele>58.00000000000001</ele><time>2026-04-04T05:51:28Z</time></trkpt><trkpt lat="42.14648306481843" lon="14.443502186284181"><ele>58.00000000000001</ele><time>2026-04-04T05:51:30Z</time></trkpt><trkpt lat="42.14643244818367" lon="14.443425134990553"><ele>58.0</ele><time>2026-04-04T05:51:32Z</time></trkpt><trkpt lat="42.14638397618444" lon="14.44334547252403"><ele>58.00000000000001</ele><time>2026-04-04T05:51:34Z</time></trkpt><trkpt lat="42.1463332451587" lon="14.443267421277975"><ele>58.00000000000001</ele><time>2026-04-04T05:51:36Z</time></trkpt><trkpt lat="42.14628444775784" lon="14.443198042636562"><ele>58.0</ele><time>2026-04-04T05:51:38Z</time></trkpt><trkpt lat="42.146250285200274" lon="14.443124179363247"><ele>58.00000000000001</ele><time>2026-04-04T05:51:40Z</time></trkpt><trkpt lat="42.14626864883706" lon="14.443030611782639"><ele>58.00000000000001</ele><time>2026-04-04T05:51:42Z</time></trkpt><trkpt lat="42.146332292891906" lon="14.44294744503714"><ele>57.83333333333333</ele><time>2026-04-04T05:51:44Z</time></trkpt><trkpt lat="42.14638928777825" lon="14.442861884948226"><ele>57.666666666666664</ele><time>2026-04-04T05:51:46Z</time></trkpt><trkpt lat="42.14644670338029" lon="14.442776820775922"><ele>57.5</ele><time>2026-04-04T05:51:48Z</time></trkpt><trkpt lat="42.146502449471235" lon="14.44268691989795"><ele>57.33333333333333</ele><time>2026-04-04T05:51:49.999Z</time></trkpt><trkpt lat="42.14655494922843" lon="14.442597614560805"><ele>57.166666666666664</ele><time>2026-04-04T05:51:51.999Z</time></trkpt><trkpt lat="42.14660928209252" lon="14.442512520067131"><ele>57.0</ele><time>2026-04-04T05:51:53.999Z</time></trkpt><trkpt lat="42.146662475091695" lon="14.442430479719365"><ele>57.0</ele><time>2026-04-04T05:51:55.999Z</time></trkpt><trkpt lat="42.14671428063019" lon="14.44235505895816"><ele>57.0</ele><time>2026-04-04T05:51:57.999Z</time></trkpt><trkpt lat="42.14674438816422" lon="14.442263968558178"><ele>57.0</ele><time>2026-04-04T05:51:59.999Z</time></trkpt><trkpt lat="42.146726915902796" lon="14.442161313713834"><ele>57.0</ele><time>2026-04-04T05:52:01.999Z</time></trkpt><trkpt lat="42.14665565134438" lon="14.442052868772658"><ele>57.0</ele><time>2026-04-04T05:52:04.999Z</time></trkpt><trkpt lat="42.1466028058627" lon="14.441971581803239"><ele>57.0</ele><time>2026-04-04T05:52:06.999Z</time></trkpt><trkpt lat="42.14654183509087" lon="14.441869777951466"><ele>57.0</ele><time>2026-04-04T05:52:08.999Z</time></trkpt><trkpt lat="42.14649181717397" lon="14.441789675966701"><ele>57.0</ele><time>2026-04-04T05:52:10.999Z</time></trkpt><trkpt lat="42.14644124958089" lon="14.441708179767154"><ele>57.0</ele><time>2026-04-04T05:52:12.999Z</time></trkpt><trkpt lat="42.146388430652735" lon="14.441634948677848"><ele>57.0</ele><time>2026-04-04T05:52:14.999Z</time></trkpt><trkpt lat="42.14633766869981" lon="14.441560833158057"><ele>57.0</ele><time>2026-04-04T05:52:16.999Z</time></trkpt><trkpt lat="42.14628919651188" lon="14.441488486216214"><ele>57.0</ele><time>2026-04-04T05:52:18.999Z</time></trkpt><trkpt lat="42.146234847717814" lon="14.441410903015909"><ele>57.0</ele><time>2026-04-04T05:52:20.999Z</time></trkpt><trkpt lat="42.14617524395143" lon="14.441326927524152"><ele>57.0</ele><time>2026-04-04T05:52:22.999Z</time></trkpt><trkpt lat="42.14611923560611" lon="14.441245438514569"><ele>57.0</ele><time>2026-04-04T05:52:24.999Z</time></trkpt><trkpt lat="42.14606400774387" lon="14.441159169851026"><ele>57.0</ele><time>2026-04-04T05:52:26.999Z</time></trkpt><trkpt lat="42.146010086102635" lon="14.44107374312494"><ele>57.0</ele><time>2026-04-04T05:52:28.999Z</time></trkpt><trkpt lat="42.145952478204094" lon="14.440991975671981"><ele>57.0</ele><time>2026-04-04T05:52:30.999Z</time></trkpt><trkpt lat="42.14589602304421" lon="14.440908969520454"><ele>57.333333333333336</ele><time>2026-04-04T05:52:32.999Z</time></trkpt><trkpt lat="42.14583811819874" lon="14.440827613635431"><ele>57.66666666666667</ele><time>2026-04-04T05:52:34.999Z</time></trkpt><trkpt lat="42.14578299749281" lon="14.440743651433774"><ele>58.0</ele><time>2026-04-04T05:52:36.999Z</time></trkpt><trkpt lat="42.145733262661636" lon="14.440659627094693"><ele>58.333333333333336</ele><time>2026-04-04T05:52:38.999Z</time></trkpt><trkpt lat="42.14567339253958" lon="14.440580831683421"><ele>58.66666666666667</ele><time>2026-04-04T05:52:40.999Z</time></trkpt><trkpt lat="42.14561425185526" lon="14.440501624583755"><ele>59.0</ele><time>2026-04-04T05:52:42.998Z</time></trkpt><trkpt lat="42.14555632504085" lon="14.440416446185303"><ele>59.00000000000001</ele><time>2026-04-04T05:52:44.998Z</time></trkpt><trkpt lat="42.14550133072906" lon="14.440329901348747"><ele>59.0</ele><time>2026-04-04T05:52:46.998Z</time></trkpt><trkpt lat="42.14544289438865" lon="14.440250640591328"><ele>59.0</ele><time>2026-04-04T05:52:48.998Z</time></trkpt><trkpt lat="42.14538692358311" lon="14.440167825352878"><ele>59.0</ele><time>2026-04-04T05:52:50.998Z</time></trkpt><trkpt lat="42.145333333564984" lon="14.440083140161615"><ele>59.00000000000001</ele><time>2026-04-04T05:52:52.998Z</time></trkpt><trkpt lat="42.14527531635261" lon="14.439997853494217"><ele>59.0</ele><time>2026-04-04T05:52:54.998Z</time></trkpt><trkpt lat="42.145218292146204" lon="14.439913650608434"><ele>59.00000000000001</ele><time>2026-04-04T05:52:56.998Z</time></trkpt><trkpt lat="42.145161224777496" lon="14.439830292127667"><ele>59.0</ele><time>2026-04-04T05:52:58.998Z</time></trkpt><trkpt lat="42.14510165449638" lon="14.439747080264393"><ele>59.0</ele><time>2026-04-04T05:53:00.998Z</time></trkpt><trkpt lat="42.14504577459808" lon="14.439658298699653"><ele>59.0</ele><time>2026-04-04T05:53:02.998Z</time></trkpt><trkpt lat="42.14498858838616" lon="14.439571405136716"><ele>59.00000000000001</ele><time>2026-04-04T05:53:05Z</time></trkpt><trkpt lat="42.14493197936441" lon="14.439481576211191"><ele>59.0</ele><time>2026-04-04T05:53:07Z</time></trkpt><trkpt lat="42.14487340115309" lon="14.439393853504763"><ele>58.833333333333336</ele><time>2026-04-04T05:53:09Z</time></trkpt><trkpt lat="42.144814290942314" lon="14.439306493029672"><ele>58.66666666666667</ele><time>2026-04-04T05:53:11Z</time></trkpt><trkpt lat="42.144755991119304" lon="14.43922203945261"><ele>58.5</ele><time>2026-04-04T05:53:13Z</time></trkpt><trkpt lat="42.14469868396701" lon="14.439133311562308"><ele>58.33333333333333</ele><time>2026-04-04T05:53:15Z</time></trkpt><trkpt lat="42.14463998632644" lon="14.439048277003387"><ele>58.166666666666664</ele><time>2026-04-04T05:53:17Z</time></trkpt><trkpt lat="42.14457997996019" lon="14.43896236431504"><ele>58.0</ele><time>2026-04-04T05:53:19Z</time></trkpt><trkpt lat="42.14451936053025" lon="14.43887138906831"><ele>58.49999999999999</ele><time>2026-04-04T05:53:21Z</time></trkpt><trkpt lat="42.144459686704394" lon="14.438783613536827"><ele>59.0</ele><time>2026-04-04T05:53:23Z</time></trkpt><trkpt lat="42.14440089251352" lon="14.43869886327686"><ele>59.5</ele><time>2026-04-04T05:53:25Z</time></trkpt><trkpt lat="42.14434057764907" lon="14.438613092953302"><ele>60.0</ele><time>2026-04-04T05:53:27Z</time></trkpt><trkpt lat="42.14426311033218" lon="14.438495904868706"><ele>60.49999999999999</ele><time>2026-04-04T05:53:30Z</time></trkpt><trkpt lat="42.14422091972459" lon="14.438431122247612"><ele>61.0</ele><time>2026-04-04T05:53:31Z</time></trkpt><trkpt lat="42.14417076695897" lon="14.438358341766987"><ele>60.99999999999999</ele><time>2026-04-04T05:53:34Z</time></trkpt><trkpt lat="42.14411994053505" lon="14.438280195713785"><ele>61.0</ele><time>2026-04-04T05:53:35Z</time></trkpt><trkpt lat="42.1440607311432" lon="14.438183892738103"><ele>61.0</ele><time>2026-04-04T05:53:37Z</time></trkpt><trkpt lat="42.143998372794734" lon="14.438090325068913"><ele>61.0</ele><time>2026-04-04T05:53:39Z</time></trkpt><trkpt lat="42.143934672730914" lon="14.43801053203271"><ele>60.99999999999999</ele><time>2026-04-04T05:53:41Z</time></trkpt><trkpt lat="42.14388098936765" lon="14.43791790866299"><ele>61.0</ele><time>2026-04-04T05:53:43Z</time></trkpt><trkpt lat="42.1438224855141" lon="14.43783180694681"><ele>60.8</ele><time>2026-04-04T05:53:45Z</time></trkpt><trkpt lat="42.143762289999415" lon="14.437748362517183"><ele>60.599999999999994</ele><time>2026-04-04T05:53:47Z</time></trkpt><trkpt lat="42.143704627250095" lon="14.43766269866288"><ele>60.4</ele><time>2026-04-04T05:53:49Z</time></trkpt><trkpt lat="42.14364642600178" lon="14.437576306637194"><ele>60.2</ele><time>2026-04-04T05:53:50.999Z</time></trkpt><trkpt lat="42.14358808675977" lon="14.437491728905446"><ele>60.0</ele><time>2026-04-04T05:53:52.999Z</time></trkpt><trkpt lat="42.14350757252103" lon="14.437367077170995"><ele>60.0</ele><time>2026-04-04T05:53:55.999Z</time></trkpt><trkpt lat="42.14346095295329" lon="14.437294124927094"><ele>60.0</ele><time>2026-04-04T05:53:57.999Z</time></trkpt><trkpt lat="42.14338548604786" lon="14.437190092640536"><ele>60.0</ele><time>2026-04-04T05:53:59.999Z</time></trkpt><trkpt lat="42.14332801495765" lon="14.437108666257402"><ele>60.0</ele><time>2026-04-04T05:54:01.999Z</time></trkpt><trkpt lat="42.14327157095221" lon="14.437023378755402"><ele>60.0</ele><time>2026-04-04T05:54:03.999Z</time></trkpt><trkpt lat="42.1432163872804" lon="14.436937283173856"><ele>60.0</ele><time>2026-04-04T05:54:05.999Z</time></trkpt><trkpt lat="42.143159221117244" lon="14.436855339978331"><ele>60.0</ele><time>2026-04-04T05:54:07.999Z</time></trkpt><trkpt lat="42.14310345348248" lon="14.436772692139332"><ele>60.0</ele><time>2026-04-04T05:54:09.999Z</time></trkpt><trkpt lat="42.14304710847577" lon="14.436689909959844"><ele>60.0</ele><time>2026-04-04T05:54:11.999Z</time></trkpt><trkpt lat="42.14299077963376" lon="14.436603583892333"><ele>60.0</ele><time>2026-04-04T05:54:13.999Z</time></trkpt><trkpt lat="42.14293486510763" lon="14.436517852473616"><ele>60.0</ele><time>2026-04-04T05:54:15.999Z</time></trkpt><trkpt lat="42.142880461843305" lon="14.436432744090961"><ele>60.0</ele><time>2026-04-04T05:54:17.999Z</time></trkpt><trkpt lat="42.142829800213896" lon="14.43635568520264"><ele>60.333333333333336</ele><time>2026-04-04T05:54:19.999Z</time></trkpt><trkpt lat="42.14276937768258" lon="14.436273776373751"><ele>60.66666666666667</ele><time>2026-04-04T05:54:21.999Z</time></trkpt><trkpt lat="42.14270813697726" lon="14.436186988003426"><ele>61.0</ele><time>2026-04-04T05:54:23.999Z</time></trkpt><trkpt lat="42.14265283977824" lon="14.436100561866477"><ele>61.333333333333336</ele><time>2026-04-04T05:54:25.999Z</time></trkpt><trkpt lat="42.142598720065" lon="14.436018560510577"><ele>61.66666666666667</ele><time>2026-04-04T05:54:27.999Z</time></trkpt><trkpt lat="42.142532901233764" lon="14.435935225311544"><ele>62.0</ele><time>2026-04-04T05:54:29.999Z</time></trkpt><trkpt lat="42.142470501901336" lon="14.435845112923873"><ele>62.00000000000001</ele><time>2026-04-04T05:54:31.999Z</time></trkpt><trkpt lat="42.142412356194264" lon="14.435756202010563"><ele>62.0</ele><time>2026-04-04T05:54:33.999Z</time></trkpt><trkpt lat="42.142355887100706" lon="14.435670639863615"><ele>62.0</ele><time>2026-04-04T05:54:35.999Z</time></trkpt><trkpt lat="42.142305086706834" lon="14.435591513755046"><ele>62.0</ele><time>2026-04-04T05:54:37.999Z</time></trkpt><trkpt lat="42.14226115060009" lon="14.435505623407803"><ele>62.00000000000001</ele><time>2026-04-04T05:54:39.999Z</time></trkpt><trkpt lat="42.14220103211251" lon="14.435426717760834"><ele>62.0</ele><time>2026-04-04T05:54:41.999Z</time></trkpt><trkpt lat="42.14213840031519" lon="14.435338494235303"><ele>62.00000000000001</ele><time>2026-04-04T05:54:43.999Z</time></trkpt><trkpt lat="42.142078069494566" lon="14.435253368648368"><ele>62.0</ele><time>2026-04-04T05:54:45.998Z</time></trkpt><trkpt lat="42.142022278425934" lon="14.435166354725801"><ele>62.0</ele><time>2026-04-04T05:54:47.998Z</time></trkpt><trkpt lat="42.141967699863606" lon="14.435083566764376"><ele>62.0</ele><time>2026-04-04T05:54:49.998Z</time></trkpt><trkpt lat="42.141905811020074" lon="14.434996531505357"><ele>62.00000000000001</ele><time>2026-04-04T05:54:51.998Z</time></trkpt><trkpt lat="42.14184897465204" lon="14.434913824248245"><ele>62.0</ele><time>2026-04-04T05:54:53.998Z</time></trkpt><trkpt lat="42.141792575389864" lon="14.434831264785467"><ele>62.00000000000001</ele><time>2026-04-04T05:54:55.998Z</time></trkpt><trkpt lat="42.14173198839199" lon="14.43474983826497"><ele>62.0</ele><time>2026-04-04T05:54:57.998Z</time></trkpt><trkpt lat="42.14167900703446" lon="14.434665218541511"><ele>62.0</ele><time>2026-04-04T05:54:59.998Z</time></trkpt><trkpt lat="42.14162323689423" lon="14.434581892115656"><ele>62.0</ele><time>2026-04-04T05:55:01.998Z</time></trkpt><trkpt lat="42.14156288993576" lon="14.434493883973326"><ele>62.00000000000001</ele><time>2026-04-04T05:55:03.998Z</time></trkpt><trkpt lat="42.141507733193826" lon="14.434416286618108"><ele>62.0</ele><time>2026-04-04T05:55:05.998Z</time></trkpt><trkpt lat="42.1414511408959" lon="14.434332251702587"><ele>61.66666666666667</ele><time>2026-04-04T05:55:07.998Z</time></trkpt><trkpt lat="42.141394366303416" lon="14.43424421848938"><ele>61.333333333333336</ele><time>2026-04-04T05:55:10Z</time></trkpt><trkpt lat="42.141336222238024" lon="14.434159729438223"><ele>61.0</ele><time>2026-04-04T05:55:12Z</time></trkpt><trkpt lat="42.14127982755208" lon="14.434076637948582"><ele>60.66666666666667</ele><time>2026-04-04T05:55:14Z</time></trkpt><trkpt lat="42.14121909673986" lon="14.433992134738473"><ele>60.333333333333336</ele><time>2026-04-04T05:55:16Z</time></trkpt><trkpt lat="42.141166459869886" lon="14.433907802258425"><ele>60.0</ele><time>2026-04-04T05:55:18Z</time></trkpt><trkpt lat="42.14110999374117" lon="14.433820419861744"><ele>60.0</ele><time>2026-04-04T05:55:20Z</time></trkpt><trkpt lat="42.14105489758042" lon="14.433737963883535"><ele>60.0</ele><time>2026-04-04T05:55:22Z</time></trkpt><trkpt lat="42.14100174794593" lon="14.433656024914834"><ele>60.0</ele><time>2026-04-04T05:55:24Z</time></trkpt><trkpt lat="42.140944188159395" lon="14.433573908856133"><ele>60.0</ele><time>2026-04-04T05:55:26Z</time></trkpt><trkpt lat="42.14088250323113" lon="14.433482518441217"><ele>60.0</ele><time>2026-04-04T05:55:28Z</time></trkpt><trkpt lat="42.14082813526423" lon="14.433393970509893"><ele>60.0</ele><time>2026-04-04T05:55:30Z</time></trkpt><trkpt lat="42.14076896601522" lon="14.433311650506454"><ele>60.5</ele><time>2026-04-04T05:55:32Z</time></trkpt><trkpt lat="42.14071121655183" lon="14.43322936822256"><ele>61.0</ele><time>2026-04-04T05:55:34Z</time></trkpt><trkpt lat="42.14065660195826" lon="14.433143415985905"><ele>61.5</ele><time>2026-04-04T05:55:36Z</time></trkpt><trkpt lat="42.14060042145189" lon="14.43306395878623"><ele>62.0</ele><time>2026-04-04T05:55:38Z</time></trkpt><trkpt lat="42.14054810558201" lon="14.432981945542148"><ele>62.5</ele><time>2026-04-04T05:55:40Z</time></trkpt><trkpt lat="42.140495809376915" lon="14.43290851442837"><ele>63.0</ele><time>2026-04-04T05:55:42Z</time></trkpt><trkpt lat="42.140437609084174" lon="14.432839724632288"><ele>63.14285714285714</ele><time>2026-04-04T05:55:46Z</time></trkpt><trkpt lat="42.14038557577866" lon="14.432783609498763"><ele>63.285714285714285</ele><time>2026-04-04T05:55:51.999Z</time></trkpt><trkpt lat="42.140374264797316" lon="14.43287501147208"><ele>63.42857142857143</ele><time>2026-04-04T05:55:57.999Z</time></trkpt><trkpt lat="42.14043269467815" lon="14.432923050180806"><ele>63.57142857142857</ele><time>2026-04-04T05:56:03.999Z</time></trkpt><trkpt lat="42.140379411808134" lon="14.432867691770138"><ele>63.71428571428571</ele><time>2026-04-04T05:56:44.999Z</time></trkpt><trkpt lat="42.14044068775807" lon="14.432922460735897"><ele>63.857142857142854</ele><time>2026-04-04T05:56:52.998Z</time></trkpt><trkpt lat="42.14042975090783" lon="14.432836201013602"><ele>64.0</ele><time>2026-04-04T05:57:10.998Z</time></trkpt><trkpt lat="42.14037654539061" lon="14.432756191633935"><ele>63.99999999999999</ele><time>2026-04-04T05:57:14.998Z</time></trkpt><trkpt lat="42.14033128307273" lon="14.432694200335659"><ele>64.0</ele><time>2026-04-04T05:57:18Z</time></trkpt><trkpt lat="42.14028549519325" lon="14.43262054743168"><ele>64.0</ele><time>2026-04-04T05:57:21Z</time></trkpt><trkpt lat="42.140237042083974" lon="14.43253010433148"><ele>64.0</ele><time>2026-04-04T05:57:24Z</time></trkpt><trkpt lat="42.14017573690519" lon="14.432452290272636"><ele>63.99999999999999</ele><time>2026-04-04T05:57:27Z</time></trkpt><trkpt lat="42.140119498207746" lon="14.432354362498565"><ele>64.0</ele><time>2026-04-04T05:57:30Z</time></trkpt><trkpt lat="42.140073448666776" lon="14.432287729352103"><ele>64.0</ele><time>2026-04-04T05:57:32Z</time></trkpt><trkpt lat="42.140030375301755" lon="14.432220669080158"><ele>63.99999999999999</ele><time>2026-04-04T05:57:34Z</time></trkpt><trkpt lat="42.13998523813873" lon="14.432154677610699"><ele>64.0</ele><time>2026-04-04T05:57:36Z</time></trkpt><trkpt lat="42.13993968752323" lon="14.432085366792185"><ele>64.0</ele><time>2026-04-04T05:57:38Z</time></trkpt><trkpt lat="42.139893122442786" lon="14.43201971777865"><ele>63.99999999999999</ele><time>2026-04-04T05:57:40Z</time></trkpt><trkpt lat="42.139846644190264" lon="14.431953505362925"><ele>64.0</ele><time>2026-04-04T05:57:42Z</time></trkpt><trkpt lat="42.13980131952911" lon="14.431882920979698"><ele>64.0</ele><time>2026-04-04T05:57:44Z</time></trkpt><trkpt lat="42.13975293097694" lon="14.43181421430343"><ele>64.28571428571428</ele><time>2026-04-04T05:57:46Z</time></trkpt><trkpt lat="42.13970567264647" lon="14.431743903975567"><ele>64.57142857142857</ele><time>2026-04-04T05:57:48Z</time></trkpt><trkpt lat="42.13965928511719" lon="14.431674899180145"><ele>64.85714285714286</ele><time>2026-04-04T05:57:50Z</time></trkpt><trkpt lat="42.13961253777027" lon="14.431604780048108"><ele>65.14285714285714</ele><time>2026-04-04T05:57:52Z</time></trkpt><trkpt lat="42.139563317251174" lon="14.431533013820225"><ele>65.42857142857143</ele><time>2026-04-04T05:57:54Z</time></trkpt><trkpt lat="42.13951420562428" lon="14.431459069057446"><ele>65.71428571428571</ele><time>2026-04-04T05:57:55.999Z</time></trkpt><trkpt lat="42.13946360267647" lon="14.431384436526708"><ele>66.0</ele><time>2026-04-04T05:57:57.999Z</time></trkpt><trkpt lat="42.13941535793051" lon="14.431311854270524"><ele>65.85714285714286</ele><time>2026-04-04T05:57:59.999Z</time></trkpt><trkpt lat="42.139367412059535" lon="14.431241389465399"><ele>65.71428571428572</ele><time>2026-04-04T05:58:01.999Z</time></trkpt><trkpt lat="42.13931790366184" lon="14.431167209465197"><ele>65.57142857142858</ele><time>2026-04-04T05:58:03.999Z</time></trkpt><trkpt lat="42.13926591432289" lon="14.43109432385498"><ele>65.42857142857143</ele><time>2026-04-04T05:58:05.999Z</time></trkpt><trkpt lat="42.13921462801119" lon="14.43101827344786"><ele>65.28571428571429</ele><time>2026-04-04T05:58:07.999Z</time></trkpt><trkpt lat="42.1391645290775" lon="14.430943536334757"><ele>65.14285714285715</ele><time>2026-04-04T05:58:09.999Z</time></trkpt><trkpt lat="42.13911679608853" lon="14.430868980728219"><ele>65.0</ele><time>2026-04-04T05:58:11.999Z</time></trkpt><trkpt lat="42.13906856707672" lon="14.430795417250929"><ele>65.0</ele><time>2026-04-04T05:58:13.999Z</time></trkpt><trkpt lat="42.13901956384243" lon="14.4307217307433"><ele>65.0</ele><time>2026-04-04T05:58:15.999Z</time></trkpt><trkpt lat="42.138966253570786" lon="14.43064758791965"><ele>65.0</ele><time>2026-04-04T05:58:17.999Z</time></trkpt><trkpt lat="42.138915647820724" lon="14.43057229490538"><ele>65.0</ele><time>2026-04-04T05:58:19.999Z</time></trkpt><trkpt lat="42.13886852214948" lon="14.430495820608153"><ele>65.0</ele><time>2026-04-04T05:58:21.999Z</time></trkpt><trkpt lat="42.138817509930085" lon="14.430420745135132"><ele>65.0</ele><time>2026-04-04T05:58:23.999Z</time></trkpt><trkpt lat="42.13876478689756" lon="14.43034717450744"><ele>65.16666666666667</ele><time>2026-04-04T05:58:25.999Z</time></trkpt><trkpt lat="42.13871570751806" lon="14.430272941802405"><ele>65.33333333333334</ele><time>2026-04-04T05:58:27.999Z</time></trkpt><trkpt lat="42.13866536984747" lon="14.430199019220522"><ele>65.5</ele><time>2026-04-04T05:58:29.999Z</time></trkpt><trkpt lat="42.13861255391637" lon="14.43012708591175"><ele>65.66666666666667</ele><time>2026-04-04T05:58:31.999Z</time></trkpt><trkpt lat="42.13856135814869" lon="14.430051338449296"><ele>65.83333333333333</ele><time>2026-04-04T05:58:33.999Z</time></trkpt><trkpt lat="42.1385086802313" lon="14.429977644121909"><ele>66.0</ele><time>2026-04-04T05:58:35.999Z</time></trkpt><trkpt lat="42.13845932356624" lon="14.429897795259699"><ele>66.0</ele><time>2026-04-04T05:58:37.999Z</time></trkpt><trkpt lat="42.138406791633926" lon="14.42982341069341"><ele>66.0</ele><time>2026-04-04T05:58:39.999Z</time></trkpt><trkpt lat="42.13835729868809" lon="14.429746564929808"><ele>66.0</ele><time>2026-04-04T05:58:41.999Z</time></trkpt><trkpt lat="42.13830218151831" lon="14.429673183601759"><ele>66.0</ele><time>2026-04-04T05:58:43.999Z</time></trkpt><trkpt lat="42.13825055041298" lon="14.42959516078799"><ele>66.0</ele><time>2026-04-04T05:58:45.999Z</time></trkpt><trkpt lat="42.13819712600862" lon="14.429519577503777"><ele>66.0</ele><time>2026-04-04T05:58:47.999Z</time></trkpt><trkpt lat="42.13814954599089" lon="14.429440780826043"><ele>66.33333333333333</ele><time>2026-04-04T05:58:49.998Z</time></trkpt><trkpt lat="42.13809653723147" lon="14.42936145493488"><ele>66.66666666666667</ele><time>2026-04-04T05:58:51.998Z</time></trkpt><trkpt lat="42.13804329994675" lon="14.429282424199679"><ele>67.0</ele><time>2026-04-04T05:58:53.998Z</time></trkpt><trkpt lat="42.13799678849459" lon="14.429196372963563"><ele>67.33333333333334</ele><time>2026-04-04T05:58:55.998Z</time></trkpt><trkpt lat="42.137956456138774" lon="14.429103026256414"><ele>67.66666666666667</ele><time>2026-04-04T05:58:57.998Z</time></trkpt><trkpt lat="42.13791833712083" lon="14.429006403088861"><ele>68.0</ele><time>2026-04-04T05:58:59.998Z</time></trkpt><trkpt lat="42.13788299566006" lon="14.428909981630394"><ele>68.0</ele><time>2026-04-04T05:59:01.998Z</time></trkpt><trkpt lat="42.1378573135978" lon="14.428804145754977"><ele>68.0</ele><time>2026-04-04T05:59:03.998Z</time></trkpt><trkpt lat="42.13783529325428" lon="14.42869662503232"><ele>68.0</ele><time>2026-04-04T05:59:05.998Z</time></trkpt><trkpt lat="42.13781742766299" lon="14.428592614053237"><ele>68.0</ele><time>2026-04-04T05:59:07.998Z</time></trkpt><trkpt lat="42.137798624086855" lon="14.428486036782022"><ele>68.0</ele><time>2026-04-04T05:59:09.998Z</time></trkpt><trkpt lat="42.13779101224594" lon="14.428380500725982"><ele>68.0</ele><time>2026-04-04T05:59:11.998Z</time></trkpt><trkpt lat="42.13777501383162" lon="14.428276128741224"><ele>67.99999999999999</ele><time>2026-04-04T05:59:13.998Z</time></trkpt><trkpt lat="42.13776312416311" lon="14.428182569310067"><ele>68.0</ele><time>2026-04-04T05:59:15.998Z</time></trkpt><trkpt lat="42.13775443427564" lon="14.42809374156405"><ele>68.0</ele><time>2026-04-04T05:59:17.998Z</time></trkpt><trkpt lat="42.13778059514307" lon="14.427993078282247"><ele>68.0</ele><time>2026-04-04T05:59:20.998Z</time></trkpt><trkpt lat="42.13786036832429" lon="14.427967682942084"><ele>68.0</ele><time>2026-04-04T05:59:25Z</time></trkpt><trkpt lat="42.137936685237406" lon="14.427948652893603"><ele>67.99999999999999</ele><time>2026-04-04T05:59:28Z</time></trkpt><trkpt lat="42.138007027941015" lon="14.427931520578918"><ele>68.0</ele><time>2026-04-04T05:59:31Z</time></trkpt><trkpt lat="42.13807645365155" lon="14.427936831300686"><ele>67.33333333333334</ele><time>2026-04-04T05:59:35Z</time></trkpt><trkpt lat="42.13805715576422" lon="14.427845884147045"><ele>66.66666666666667</ele><time>2026-04-04T05:59:39Z</time></trkpt><trkpt lat="42.137981953108785" lon="14.427842950277718"><ele>66.0</ele><time>2026-04-04T05:59:41Z</time></trkpt><trkpt lat="42.13789231752098" lon="14.427856457625124"><ele>65.33333333333333</ele><time>2026-04-04T05:59:44Z</time></trkpt><trkpt lat="42.13783113712134" lon="14.427817976189178"><ele>64.66666666666666</ele><time>2026-04-04T05:59:47Z</time></trkpt><trkpt lat="42.13784857884272" lon="14.42771062413589"><ele>64.0</ele><time>2026-04-04T05:59:50Z</time></trkpt><trkpt lat="42.137861482039064" lon="14.427609069280793"><ele>64.0</ele><time>2026-04-04T05:59:54Z</time></trkpt><trkpt lat="42.13782668761241" lon="14.427528496445507"><ele>63.99999999999999</ele><time>2026-04-04T05:59:56.999Z</time></trkpt><trkpt lat="42.13776990295024" lon="14.427454325404588"><ele>64.0</ele><time>2026-04-04T05:59:59.999Z</time></trkpt><trkpt lat="42.13772869102403" lon="14.427389059519259"><ele>64.0</ele><time>2026-04-04T06:00:02.999Z</time></trkpt><trkpt lat="42.13769719401344" lon="14.427306159776197"><ele>63.99999999999999</ele><time>2026-04-04T06:00:05.999Z</time></trkpt><trkpt lat="42.1376776133729" lon="14.427217471792693"><ele>64.0</ele><time>2026-04-04T06:00:08.999Z</time></trkpt><trkpt lat="42.13766347178065" lon="14.427124283362964"><ele>64.0</ele><time>2026-04-04T06:00:11.999Z</time></trkpt><trkpt lat="42.13764727162793" lon="14.427015522534072"><ele>63.83333333333333</ele><time>2026-04-04T06:00:14.999Z</time></trkpt><trkpt lat="42.13763957378555" lon="14.426905993403404"><ele>63.666666666666664</ele><time>2026-04-04T06:00:17.999Z</time></trkpt><trkpt lat="42.13761961000107" lon="14.426806007489551"><ele>63.5</ele><time>2026-04-04T06:00:20.999Z</time></trkpt><trkpt lat="42.137615164587295" lon="14.426710342298243"><ele>63.33333333333333</ele><time>2026-04-04T06:00:23.999Z</time></trkpt><trkpt lat="42.13760813074936" lon="14.426602342121955"><ele>63.166666666666664</ele><time>2026-04-04T06:00:27.999Z</time></trkpt><trkpt lat="42.13760176421522" lon="14.426487025279995"><ele>63.0</ele><time>2026-04-04T06:00:31.999Z</time></trkpt><trkpt lat="42.13758717204378" lon="14.426394247494178"><ele>63.166666666666664</ele><time>2026-04-04T06:00:34.999Z</time></trkpt><trkpt lat="42.137570403462625" lon="14.426295196769445"><ele>63.33333333333333</ele><time>2026-04-04T06:00:37.999Z</time></trkpt><trkpt lat="42.13756868276228" lon="14.426189057555346"><ele>63.5</ele><time>2026-04-04T06:00:40.999Z</time></trkpt><trkpt lat="42.1375598987671" lon="14.42607881221282"><ele>63.666666666666664</ele><time>2026-04-04T06:00:43.999Z</time></trkpt><trkpt lat="42.13754641385639" lon="14.425953699883754"><ele>63.83333333333333</ele><time>2026-04-04T06:00:46.999Z</time></trkpt><trkpt lat="42.137530618873676" lon="14.425865440683097"><ele>64.0</ele><time>2026-04-04T06:00:48.999Z</time></trkpt><trkpt lat="42.137524015483095" lon="14.425770926953996"><ele>64.0</ele><time>2026-04-04T06:00:50.998Z</time></trkpt><trkpt lat="42.13751391644334" lon="14.425672805589555"><ele>63.99999999999999</ele><time>2026-04-04T06:00:52.998Z</time></trkpt><trkpt lat="42.13749876537564" lon="14.425574421010278"><ele>64.0</ele><time>2026-04-04T06:00:54.998Z</time></trkpt><trkpt lat="42.1374909224887" lon="14.425469163647566"><ele>64.0</ele><time>2026-04-04T06:00:56.998Z</time></trkpt><trkpt lat="42.137481871532536" lon="14.425370970348052"><ele>63.99999999999999</ele><time>2026-04-04T06:00:58.998Z</time></trkpt><trkpt lat="42.1374742904494" lon="14.425269757185449"><ele>64.0</ele><time>2026-04-04T06:01:00.998Z</time></trkpt><trkpt lat="42.13747429826991" lon="14.42517097157597"><ele>64.0</ele><time>2026-04-04T06:01:02.998Z</time></trkpt><trkpt lat="42.13746351577439" lon="14.425075037360978"><ele>63.99999999999999</ele><time>2026-04-04T06:01:04.998Z</time></trkpt><trkpt lat="42.13745571195326" lon="14.424981525552054"><ele>64.0</ele><time>2026-04-04T06:01:06.998Z</time></trkpt><trkpt lat="42.13744063944532" lon="14.424892957789321"><ele>64.0</ele><time>2026-04-04T06:01:08.998Z</time></trkpt><trkpt lat="42.137389941680034" lon="14.424791537129213"><ele>64.0</ele><time>2026-04-04T06:01:11.998Z</time></trkpt><trkpt lat="42.13731845697885" lon="14.424766007078588"><ele>63.99999999999999</ele><time>2026-04-04T06:01:13.998Z</time></trkpt><trkpt lat="42.1372416460287" lon="14.424769998503724"><ele>64.0</ele><time>2026-04-04T06:01:15.998Z</time></trkpt><trkpt lat="42.13716412799151" lon="14.4247706561107"><ele>64.5</ele><time>2026-04-04T06:01:17.998Z</time></trkpt><trkpt lat="42.137084868652884" lon="14.424772046135168"><ele>65.0</ele><time>2026-04-04T06:01:19.998Z</time></trkpt><trkpt lat="42.137008467415974" lon="14.424759502290447"><ele>65.5</ele><time>2026-04-04T06:01:21.998Z</time></trkpt><trkpt lat="42.13693128043229" lon="14.42478586329878"><ele>66.0</ele><time>2026-04-04T06:01:23.998Z</time></trkpt><trkpt lat="42.13685303743202" lon="14.42478868987441"><ele>66.5</ele><time>2026-04-04T06:01:25.998Z</time></trkpt><trkpt lat="42.13677696937473" lon="14.424797570743316"><ele>67.0</ele><time>2026-04-04T06:01:28Z</time></trkpt><trkpt lat="42.13670325150851" lon="14.424800437503057"><ele>67.0</ele><time>2026-04-04T06:01:30Z</time></trkpt><trkpt lat="42.136627400787546" lon="14.424796053176397"><ele>67.0</ele><time>2026-04-04T06:01:32Z</time></trkpt><trkpt lat="42.13655037990625" lon="14.424807082911975"><ele>67.0</ele><time>2026-04-04T06:01:34Z</time></trkpt><trkpt lat="42.136472074532186" lon="14.424810744564196"><ele>67.0</ele><time>2026-04-04T06:01:36Z</time></trkpt><trkpt lat="42.136393707505576" lon="14.424817307545235"><ele>67.0</ele><time>2026-04-04T06:01:38Z</time></trkpt><trkpt lat="42.136316243921556" lon="14.424821352864548"><ele>67.0</ele><time>2026-04-04T06:01:40Z</time></trkpt><trkpt lat="42.136236793778295" lon="14.42482591293754"><ele>67.5</ele><time>2026-04-04T06:01:42Z</time></trkpt><trkpt lat="42.13615603349772" lon="14.424825829470747"><ele>68.0</ele><time>2026-04-04T06:01:44Z</time></trkpt><trkpt lat="42.13607846854556" lon="14.42483471481323"><ele>68.5</ele><time>2026-04-04T06:01:46Z</time></trkpt><trkpt lat="42.13600128871785" lon="14.424838940265301"><ele>69.0</ele><time>2026-04-04T06:01:48Z</time></trkpt><trkpt lat="42.13592621480764" lon="14.424842147028079"><ele>69.5</ele><time>2026-04-04T06:01:50Z</time></trkpt><trkpt lat="42.13584853493204" lon="14.424849965274642"><ele>70.0</ele><time>2026-04-04T06:01:52Z</time></trkpt><trkpt lat="42.1357708204254" lon="14.424860936445139"><ele>70.0</ele><time>2026-04-04T06:01:54Z</time></trkpt><trkpt lat="42.13569295515603" lon="14.424862906311326"><ele>70.0</ele><time>2026-04-04T06:01:56Z</time></trkpt><trkpt lat="42.13561175825344" lon="14.424869841384577"><ele>70.0</ele><time>2026-04-04T06:01:57.999Z</time></trkpt><trkpt lat="42.13553506686843" lon="14.424873866879832"><ele>70.0</ele><time>2026-04-04T06:01:59.999Z</time></trkpt><trkpt lat="42.13545549258456" lon="14.424883047046396"><ele>70.0</ele><time>2026-04-04T06:02:01.999Z</time></trkpt><trkpt lat="42.13537280555959" lon="14.424884995613223"><ele>70.0</ele><time>2026-04-04T06:02:03.999Z</time></trkpt><trkpt lat="42.13529291827224" lon="14.424883039782259"><ele>70.0</ele><time>2026-04-04T06:02:05.999Z</time></trkpt><trkpt lat="42.1352133272384" lon="14.424887821758931"><ele>70.0</ele><time>2026-04-04T06:02:07.999Z</time></trkpt><trkpt lat="42.1351336329923" lon="14.424897254408691"><ele>70.0</ele><time>2026-04-04T06:02:09.999Z</time></trkpt><trkpt lat="42.13505356200837" lon="14.424901836695318"><ele>70.0</ele><time>2026-04-04T06:02:11.999Z</time></trkpt><trkpt lat="42.134974289192584" lon="14.424906877938145"><ele>70.0</ele><time>2026-04-04T06:02:13.999Z</time></trkpt><trkpt lat="42.13489408941892" lon="14.424909672938757"><ele>70.0</ele><time>2026-04-04T06:02:15.999Z</time></trkpt><trkpt lat="42.13481505960496" lon="14.424904764095059"><ele>70.33333333333333</ele><time>2026-04-04T06:02:17.999Z</time></trkpt><trkpt lat="42.13473740114453" lon="14.424911780002889"><ele>70.66666666666666</ele><time>2026-04-04T06:02:19.999Z</time></trkpt><trkpt lat="42.13466110481946" lon="14.424914010661153"><ele>71.0</ele><time>2026-04-04T06:02:21.999Z</time></trkpt><trkpt lat="42.13458231118509" lon="14.424920776375846"><ele>71.33333333333333</ele><time>2026-04-04T06:02:23.999Z</time></trkpt><trkpt lat="42.134506433053446" lon="14.424934321694986"><ele>71.66666666666667</ele><time>2026-04-04T06:02:25.999Z</time></trkpt><trkpt lat="42.1344289370143" lon="14.424945396736467"><ele>72.0</ele><time>2026-04-04T06:02:27.999Z</time></trkpt><trkpt lat="42.13435026370594" lon="14.424945333217117"><ele>72.00000000000001</ele><time>2026-04-04T06:02:29.999Z</time></trkpt><trkpt lat="42.13427926849696" lon="14.424946669885436"><ele>72.0</ele><time>2026-04-04T06:02:31.999Z</time></trkpt><trkpt lat="42.13420850523488" lon="14.424954098272758"><ele>72.0</ele><time>2026-04-04T06:02:33.999Z</time></trkpt><trkpt lat="42.13413769484073" lon="14.42494986445065"><ele>72.0</ele><time>2026-04-04T06:02:35.999Z</time></trkpt><trkpt lat="42.134066468326544" lon="14.42493457630132"><ele>72.0</ele><time>2026-04-04T06:02:37.999Z</time></trkpt><trkpt lat="42.13399953965808" lon="14.424888034943338"><ele>72.00000000000001</ele><time>2026-04-04T06:02:39.999Z</time></trkpt><trkpt lat="42.13394627029853" lon="14.424822247547006"><ele>72.0</ele><time>2026-04-04T06:02:41.999Z</time></trkpt><trkpt lat="42.133896853353605" lon="14.42475009310244"><ele>72.16666666666667</ele><time>2026-04-04T06:02:43.999Z</time></trkpt><trkpt lat="42.13385009701776" lon="14.424675069844096"><ele>72.33333333333333</ele><time>2026-04-04T06:02:45.999Z</time></trkpt><trkpt lat="42.133796401562805" lon="14.424602137620171"><ele>72.5</ele><time>2026-04-04T06:02:47.999Z</time></trkpt><trkpt lat="42.13374652846407" lon="14.424521281963429"><ele>72.66666666666666</ele><time>2026-04-04T06:02:49.999Z</time></trkpt><trkpt lat="42.133694589612475" lon="14.42444736028943"><ele>72.83333333333333</ele><time>2026-04-04T06:02:51.998Z</time></trkpt><trkpt lat="42.1336410170539" lon="14.424368326751368"><ele>73.0</ele><time>2026-04-04T06:02:53.998Z</time></trkpt><trkpt lat="42.13358726932057" lon="14.424289670720585"><ele>73.0</ele><time>2026-04-04T06:02:55.998Z</time></trkpt><trkpt lat="42.13353070742715" lon="14.42421279120903"><ele>73.0</ele><time>2026-04-04T06:02:57.998Z</time></trkpt><trkpt lat="42.13347569028739" lon="14.424135320622732"><ele>73.0</ele><time>2026-04-04T06:02:59.998Z</time></trkpt><trkpt lat="42.133419817854126" lon="14.424057208273661"><ele>73.0</ele><time>2026-04-04T06:03:01.998Z</time></trkpt><trkpt lat="42.13336122402104" lon="14.42397922107327"><ele>73.0</ele><time>2026-04-04T06:03:03.998Z</time></trkpt><trkpt lat="42.13330262405819" lon="14.423896207172504"><ele>73.0</ele><time>2026-04-04T06:03:05.998Z</time></trkpt><trkpt lat="42.13324735380769" lon="14.423816121357401"><ele>73.5</ele><time>2026-04-04T06:03:07.998Z</time></trkpt><trkpt lat="42.133192753284426" lon="14.423735331472667"><ele>74.0</ele><time>2026-04-04T06:03:09.998Z</time></trkpt><trkpt lat="42.133140914245324" lon="14.423652847488887"><ele>74.5</ele><time>2026-04-04T06:03:11.998Z</time></trkpt><trkpt lat="42.1330823159063" lon="14.423568601255754"><ele>75.0</ele><time>2026-04-04T06:03:13.998Z</time></trkpt><trkpt lat="42.13302555069271" lon="14.423487443812352"><ele>75.5</ele><time>2026-04-04T06:03:15.998Z</time></trkpt><trkpt lat="42.1329715396369" lon="14.423406229544659"><ele>76.0</ele><time>2026-04-04T06:03:17.998Z</time></trkpt><trkpt lat="42.13292001673346" lon="14.42332451450651"><ele>76.0</ele><time>2026-04-04T06:03:19.998Z</time></trkpt><trkpt lat="42.13286309787877" lon="14.423243319954073"><ele>76.0</ele><time>2026-04-04T06:03:21.998Z</time></trkpt><trkpt lat="42.13280822111517" lon="14.42316487512644"><ele>76.0</ele><time>2026-04-04T06:03:23.998Z</time></trkpt><trkpt lat="42.13275608024068" lon="14.423081153097733"><ele>76.0</ele><time>2026-04-04T06:03:25.998Z</time></trkpt><trkpt lat="42.13270000283472" lon="14.423001318677477"><ele>76.0</ele><time>2026-04-04T06:03:27.998Z</time></trkpt><trkpt lat="42.13264782576822" lon="14.422922696586635"><ele>76.0</ele><time>2026-04-04T06:03:29.998Z</time></trkpt><trkpt lat="42.13259457852787" lon="14.4228457551199"><ele>75.66666666666666</ele><time>2026-04-04T06:03:31.998Z</time></trkpt><trkpt lat="42.132541252198834" lon="14.422766523338828"><ele>75.33333333333333</ele><time>2026-04-04T06:03:34Z</time></trkpt><trkpt lat="42.13248705336432" lon="14.422685448854214"><ele>75.0</ele><time>2026-04-04T06:03:36Z</time></trkpt><trkpt lat="42.13243007842693" lon="14.422600064827714"><ele>74.66666666666667</ele><time>2026-04-04T06:03:38Z</time></trkpt><trkpt lat="42.13237253052653" lon="14.422518118718003"><ele>74.33333333333334</ele><time>2026-04-04T06:03:40Z</time></trkpt><trkpt lat="42.13231956814987" lon="14.422437201076152"><ele>74.0</ele><time>2026-04-04T06:03:42Z</time></trkpt><trkpt lat="42.13226675977814" lon="14.422358132641339"><ele>74.66666666666667</ele><time>2026-04-04T06:03:44Z</time></trkpt><trkpt lat="42.13221432731472" lon="14.4222782438487"><ele>75.33333333333334</ele><time>2026-04-04T06:03:46Z</time></trkpt><trkpt lat="42.13216268241218" lon="14.422199252080508"><ele>76.0</ele><time>2026-04-04T06:03:48Z</time></trkpt><trkpt lat="42.13211047471943" lon="14.42212464555619"><ele>76.66666666666667</ele><time>2026-04-04T06:03:50Z</time></trkpt><trkpt lat="42.13205871361775" lon="14.422049007958812"><ele>77.33333333333333</ele><time>2026-04-04T06:03:52Z</time></trkpt><trkpt lat="42.13200849273596" lon="14.42196981800917"><ele>78.0</ele><time>2026-04-04T06:03:54Z</time></trkpt><trkpt lat="42.131955199025676" lon="14.421889766323343"><ele>78.0</ele><time>2026-04-04T06:03:56Z</time></trkpt><trkpt lat="42.1319010485625" lon="14.421808035352274"><ele>78.0</ele><time>2026-04-04T06:03:58Z</time></trkpt><trkpt lat="42.131843320676026" lon="14.421723263586099"><ele>78.0</ele><time>2026-04-04T06:04:00Z</time></trkpt><trkpt lat="42.131785611180604" lon="14.42163878862134"><ele>78.0</ele><time>2026-04-04T06:04:01.999Z</time></trkpt><trkpt lat="42.13172790630498" lon="14.421553606042966"><ele>78.0</ele><time>2026-04-04T06:04:03.999Z</time></trkpt><trkpt lat="42.13167127723277" lon="14.421467857718996"><ele>78.0</ele><time>2026-04-04T06:04:05.999Z</time></trkpt><trkpt lat="42.13161200624502" lon="14.421385360693726"><ele>78.83333333333333</ele><time>2026-04-04T06:04:07.999Z</time></trkpt><trkpt lat="42.131555335098916" lon="14.421301097442191"><ele>79.66666666666667</ele><time>2026-04-04T06:04:09.999Z</time></trkpt><trkpt lat="42.1315034059278" lon="14.421219206500597"><ele>80.5</ele><time>2026-04-04T06:04:11.999Z</time></trkpt><trkpt lat="42.1314507355413" lon="14.421140057048643"><ele>81.33333333333334</ele><time>2026-04-04T06:04:13.999Z</time></trkpt><trkpt lat="42.13140037967578" lon="14.421062192732334"><ele>82.16666666666667</ele><time>2026-04-04T06:04:15.999Z</time></trkpt><trkpt lat="42.13134582382748" lon="14.420987426800318"><ele>83.0</ele><time>2026-04-04T06:04:17.999Z</time></trkpt><trkpt lat="42.13129111697322" lon="14.420905188010218"><ele>83.0</ele><time>2026-04-04T06:04:19.999Z</time></trkpt><trkpt lat="42.13123671419149" lon="14.420823069372497"><ele>83.0</ele><time>2026-04-04T06:04:21.999Z</time></trkpt><trkpt lat="42.13118017290871" lon="14.42074045986858"><ele>83.0</ele><time>2026-04-04T06:04:23.999Z</time></trkpt><trkpt lat="42.13113013226691" lon="14.42066061949447"><ele>83.0</ele><time>2026-04-04T06:04:25.999Z</time></trkpt><trkpt lat="42.13107712705827" lon="14.420580021564298"><ele>83.0</ele><time>2026-04-04T06:04:27.999Z</time></trkpt><trkpt lat="42.13102543598573" lon="14.420498451760853"><ele>83.0</ele><time>2026-04-04T06:04:29.999Z</time></trkpt><trkpt lat="42.13097414842877" lon="14.420413906093302"><ele>82.5</ele><time>2026-04-04T06:04:31.999Z</time></trkpt><trkpt lat="42.13092337887188" lon="14.42032703880232"><ele>82.0</ele><time>2026-04-04T06:04:33.999Z</time></trkpt><trkpt lat="42.13087600371971" lon="14.420244917213106"><ele>81.5</ele><time>2026-04-04T06:04:35.999Z</time></trkpt><trkpt lat="42.130836054232326" lon="14.420167814091668"><ele>81.0</ele><time>2026-04-04T06:04:37.999Z</time></trkpt><trkpt lat="42.13079247407503" lon="14.420062278098758"><ele>80.5</ele><time>2026-04-04T06:04:39.999Z</time></trkpt><trkpt lat="42.130755124825406" lon="14.419962520493053"><ele>80.0</ele><time>2026-04-04T06:04:41.999Z</time></trkpt><trkpt lat="42.13071681525677" lon="14.419873918910783"><ele>81.16666666666667</ele><time>2026-04-04T06:04:43.999Z</time></trkpt><trkpt lat="42.130669500780144" lon="14.4197989590799"><ele>82.33333333333334</ele><time>2026-04-04T06:04:45.999Z</time></trkpt><trkpt lat="42.130589515827126" lon="14.419775108326732"><ele>83.5</ele><time>2026-04-04T06:04:47.999Z</time></trkpt><trkpt lat="42.130553796843955" lon="14.41985496647239"><ele>84.66666666666667</ele><time>2026-04-04T06:04:49.999Z</time></trkpt><trkpt lat="42.13059238597975" lon="14.419957346469712"><ele>85.83333333333333</ele><time>2026-04-04T06:04:52.999Z</time></trkpt><trkpt lat="42.13057133331378" lon="14.419846971265128"><ele>87.0</ele><time>2026-04-04T06:09:59Z</time></trkpt><trkpt lat="42.13060459539843" lon="14.419755937915877"><ele>87.0</ele><time>2026-04-04T06:10:02Z</time></trkpt><trkpt lat="42.13059684461796" lon="14.41965741724013"><ele>87.0</ele><time>2026-04-04T06:10:04Z</time></trkpt><trkpt lat="42.130577954879925" lon="14.419557935089998"><ele>87.0</ele><time>2026-04-04T06:10:06Z</time></trkpt><trkpt lat="42.13055060005408" lon="14.419459922767366"><ele>87.0</ele><time>2026-04-04T06:10:07.999Z</time></trkpt><trkpt lat="42.13051575206164" lon="14.419359295105982"><ele>87.0</ele><time>2026-04-04T06:10:09.999Z</time></trkpt><trkpt lat="42.130479026605315" lon="14.419262833304114"><ele>87.0</ele><time>2026-04-04T06:10:11.999Z</time></trkpt><trkpt lat="42.13045008530717" lon="14.419162829234965"><ele>86.0</ele><time>2026-04-04T06:10:13.999Z</time></trkpt><trkpt lat="42.1304129061539" lon="14.419059718053266"><ele>85.0</ele><time>2026-04-04T06:10:15.999Z</time></trkpt><trkpt lat="42.13037927651975" lon="14.418959546709427"><ele>84.0</ele><time>2026-04-04T06:10:17.999Z</time></trkpt><trkpt lat="42.13034669722691" lon="14.418863151963228"><ele>83.0</ele><time>2026-04-04T06:10:19.999Z</time></trkpt><trkpt lat="42.13031684032283" lon="14.418769736133694"><ele>82.0</ele><time>2026-04-04T06:10:21.999Z</time></trkpt><trkpt lat="42.130284659882875" lon="14.41867950899112"><ele>81.0</ele><time>2026-04-04T06:10:23.999Z</time></trkpt><trkpt lat="42.13025365683375" lon="14.41858768120904"><ele>80.83333333333333</ele><time>2026-04-04T06:10:25.999Z</time></trkpt><trkpt lat="42.130217726917465" lon="14.418495735101242"><ele>80.66666666666667</ele><time>2026-04-04T06:10:27.999Z</time></trkpt><trkpt lat="42.13017889413472" lon="14.418399904124943"><ele>80.5</ele><time>2026-04-04T06:10:29.999Z</time></trkpt><trkpt lat="42.130143004446715" lon="14.418298303296476"><ele>80.33333333333334</ele><time>2026-04-04T06:10:31.999Z</time></trkpt><trkpt lat="42.130107839129835" lon="14.418203868418736"><ele>80.16666666666667</ele><time>2026-04-04T06:10:33.999Z</time></trkpt><trkpt lat="42.13007014548176" lon="14.418102052024302"><ele>80.0</ele><time>2026-04-04T06:10:35.999Z</time></trkpt><trkpt lat="42.13003346226916" lon="14.417996730046264"><ele>80.0</ele><time>2026-04-04T06:10:37.999Z</time></trkpt><trkpt lat="42.129993801357635" lon="14.417896405334757"><ele>80.0</ele><time>2026-04-04T06:10:39.999Z</time></trkpt><trkpt lat="42.12995541828788" lon="14.417791632738275"><ele>80.0</ele><time>2026-04-04T06:10:41.999Z</time></trkpt><trkpt lat="42.12991699310809" lon="14.417687767488893"><ele>80.0</ele><time>2026-04-04T06:10:43.999Z</time></trkpt><trkpt lat="42.12987947424245" lon="14.417588599356387"><ele>80.0</ele><time>2026-04-04T06:10:45.999Z</time></trkpt><trkpt lat="42.12984160717291" lon="14.417482223181448"><ele>80.0</ele><time>2026-04-04T06:10:47.999Z</time></trkpt><trkpt lat="42.129803087972014" lon="14.417375978958276"><ele>80.0</ele><time>2026-04-04T06:10:49.999Z</time></trkpt><trkpt lat="42.12976444219321" lon="14.417266546126285"><ele>80.0</ele><time>2026-04-04T06:10:51.999Z</time></trkpt><trkpt lat="42.12972437248479" lon="14.417156109636739"><ele>80.0</ele><time>2026-04-04T06:10:53.999Z</time></trkpt><trkpt lat="42.12968439737838" lon="14.417047365455083"><ele>80.0</ele><time>2026-04-04T06:10:55.999Z</time></trkpt><trkpt lat="42.129648217695284" lon="14.416943749626732"><ele>80.0</ele><time>2026-04-04T06:10:57.999Z</time></trkpt><trkpt lat="42.12960945410878" lon="14.416847058036295"><ele>80.0</ele><time>2026-04-04T06:10:59.999Z</time></trkpt><trkpt lat="42.12957402428083" lon="14.416746623470647"><ele>80.0</ele><time>2026-04-04T06:11:01.998Z</time></trkpt><trkpt lat="42.12953696923345" lon="14.41664596487493"><ele>80.0</ele><time>2026-04-04T06:11:03.998Z</time></trkpt><trkpt lat="42.12950156635903" lon="14.416548492552845"><ele>80.0</ele><time>2026-04-04T06:11:05.998Z</time></trkpt><trkpt lat="42.12946964235664" lon="14.416449584426838"><ele>80.0</ele><time>2026-04-04T06:11:07.998Z</time></trkpt><trkpt lat="42.129455644479805" lon="14.416343747409975"><ele>80.0</ele><time>2026-04-04T06:11:09.998Z</time></trkpt><trkpt lat="42.129451842670775" lon="14.416229974715746"><ele>80.0</ele><time>2026-04-04T06:11:11.998Z</time></trkpt><trkpt lat="42.12945069913147" lon="14.416115403541212"><ele>80.0</ele><time>2026-04-04T06:11:13.998Z</time></trkpt><trkpt lat="42.12941922016507" lon="14.416002930442147"><ele>80.0</ele><time>2026-04-04T06:11:15.998Z</time></trkpt><trkpt lat="42.12936218924209" lon="14.4159076952235"><ele>80.0</ele><time>2026-04-04T06:11:17.998Z</time></trkpt><trkpt lat="42.12929276334705" lon="14.415822939485514"><ele>80.0</ele><time>2026-04-04T06:11:19.998Z</time></trkpt><trkpt lat="42.12922021711778" lon="14.415748876354453"><ele>80.0</ele><time>2026-04-04T06:11:21.998Z</time></trkpt><trkpt lat="42.129161860847944" lon="14.415655113709837"><ele>80.0</ele><time>2026-04-04T06:11:23.998Z</time></trkpt><trkpt lat="42.12912715600531" lon="14.415537932857676"><ele>80.0</ele><time>2026-04-04T06:11:25.998Z</time></trkpt><trkpt lat="42.12910573159242" lon="14.415419198903681"><ele>80.0</ele><time>2026-04-04T06:11:27.998Z</time></trkpt><trkpt lat="42.129067203573115" lon="14.415315191007203"><ele>80.0</ele><time>2026-04-04T06:11:29.999Z</time></trkpt><trkpt lat="42.12902728420439" lon="14.41521427808366"><ele>80.0</ele><time>2026-04-04T06:11:31.999Z</time></trkpt><trkpt lat="42.1289922353312" lon="14.41511180091413"><ele>80.0</ele><time>2026-04-04T06:11:33.999Z</time></trkpt><trkpt lat="42.12895363027657" lon="14.415007719777321"><ele>80.16666666666667</ele><time>2026-04-04T06:11:35.999Z</time></trkpt><trkpt lat="42.12891500441997" lon="14.414907873200844"><ele>80.33333333333334</ele><time>2026-04-04T06:11:37.999Z</time></trkpt><trkpt lat="42.12887924328879" lon="14.414804097375125"><ele>80.5</ele><time>2026-04-04T06:11:39.999Z</time></trkpt><trkpt lat="42.12883777085008" lon="14.414702822183092"><ele>80.66666666666667</ele><time>2026-04-04T06:11:41.999Z</time></trkpt><trkpt lat="42.12879360391833" lon="14.41456418967554"><ele>80.83333333333333</ele><time>2026-04-04T06:11:44.999Z</time></trkpt><trkpt lat="42.128761476350064" lon="14.41446977168888"><ele>81.0</ele><time>2026-04-04T06:11:46.999Z</time></trkpt><trkpt lat="42.1287229497605" lon="14.414368563526148"><ele>81.33333333333333</ele><time>2026-04-04T06:11:48.999Z</time></trkpt><trkpt lat="42.128697593938284" lon="14.414289441295717"><ele>81.66666666666667</ele><time>2026-04-04T06:11:50.999Z</time></trkpt><trkpt lat="42.128667543727246" lon="14.414207312250568"><ele>82.0</ele><time>2026-04-04T06:11:52.999Z</time></trkpt><trkpt lat="42.128626934552834" lon="14.414106434941555"><ele>82.33333333333334</ele><time>2026-04-04T06:11:56.001Z</time></trkpt><trkpt lat="42.12853860194114" lon="14.41405861786208"><ele>82.66666666666667</ele><time>2026-04-04T06:11:59Z</time></trkpt><trkpt lat="42.12847043564617" lon="14.414088243353728"><ele>83.0</ele><time>2026-04-04T06:12:01Z</time></trkpt><trkpt lat="42.12841353980466" lon="14.414005369275642"><ele>83.0</ele><time>2026-04-04T06:12:05Z</time></trkpt><trkpt lat="42.12839999868117" lon="14.413915272612854"><ele>83.0</ele><time>2026-04-04T06:12:07Z</time></trkpt><trkpt lat="42.12836890758482" lon="14.41382876515013"><ele>83.0</ele><time>2026-04-04T06:12:09.001Z</time></trkpt><trkpt lat="42.12833394433147" lon="14.413739978734355"><ele>83.0</ele><time>2026-04-04T06:12:11Z</time></trkpt><trkpt lat="42.128297652906426" lon="14.413654607492521"><ele>83.0</ele><time>2026-04-04T06:12:13Z</time></trkpt><trkpt lat="42.12825816211646" lon="14.413576646149263"><ele>83.0</ele><time>2026-04-04T06:12:15Z</time></trkpt><trkpt lat="42.12822250373091" lon="14.413499548926932"><ele>83.0</ele><time>2026-04-04T06:12:17Z</time></trkpt><trkpt lat="42.12818393642502" lon="14.413418851946798"><ele>83.28571428571428</ele><time>2026-04-04T06:12:19Z</time></trkpt><trkpt lat="42.12814743325132" lon="14.413338921859646"><ele>83.57142857142858</ele><time>2026-04-04T06:12:21Z</time></trkpt><trkpt lat="42.12810743581972" lon="14.413260639098079"><ele>83.85714285714286</ele><time>2026-04-04T06:12:23Z</time></trkpt><trkpt lat="42.128071196823676" lon="14.413175540267282"><ele>84.14285714285714</ele><time>2026-04-04T06:12:25Z</time></trkpt><trkpt lat="42.12803219049546" lon="14.413093156869783"><ele>84.42857142857142</ele><time>2026-04-04T06:12:27Z</time></trkpt><trkpt lat="42.127994607979" lon="14.41301740213018"><ele>84.71428571428572</ele><time>2026-04-04T06:12:29Z</time></trkpt><trkpt lat="42.12795586129464" lon="14.412939310792567"><ele>85.0</ele><time>2026-04-04T06:12:31Z</time></trkpt><trkpt lat="42.12792297393711" lon="14.412856312448413"><ele>85.0</ele><time>2026-04-04T06:12:33Z</time></trkpt><trkpt lat="42.1278861738706" lon="14.412775572285152"><ele>85.0</ele><time>2026-04-04T06:12:35Z</time></trkpt><trkpt lat="42.127848947975984" lon="14.412698213197794"><ele>85.0</ele><time>2026-04-04T06:12:37Z</time></trkpt><trkpt lat="42.12781326097845" lon="14.412619470806897"><ele>85.0</ele><time>2026-04-04T06:12:39Z</time></trkpt><trkpt lat="42.12776077706663" lon="14.412521471849534"><ele>85.0</ele><time>2026-04-04T06:12:42Z</time></trkpt><trkpt lat="42.12772364098183" lon="14.412435451386548"><ele>85.0</ele><time>2026-04-04T06:12:44Z</time></trkpt><trkpt lat="42.12768751594642" lon="14.412355828831014"><ele>85.0</ele><time>2026-04-04T06:12:46Z</time></trkpt><trkpt lat="42.12765234541333" lon="14.412276060982924"><ele>85.0</ele><time>2026-04-04T06:12:48Z</time></trkpt><trkpt lat="42.12761535327823" lon="14.412194108374976"><ele>85.0</ele><time>2026-04-04T06:12:50Z</time></trkpt><trkpt lat="42.12758024891959" lon="14.412112077328466"><ele>85.0</ele><time>2026-04-04T06:12:52Z</time></trkpt><trkpt lat="42.127544629004426" lon="14.412029360837826"><ele>85.0</ele><time>2026-04-04T06:12:54Z</time></trkpt><trkpt lat="42.12750495527475" lon="14.411948433635114"><ele>85.0</ele><time>2026-04-04T06:12:56Z</time></trkpt><trkpt lat="42.127465404293126" lon="14.411867957187194"><ele>85.0</ele><time>2026-04-04T06:12:58Z</time></trkpt><trkpt lat="42.12743319038559" lon="14.411784091221657"><ele>85.0</ele><time>2026-04-04T06:13:00Z</time></trkpt><trkpt lat="42.12739611421209" lon="14.41170086968182"><ele>85.71428571428572</ele><time>2026-04-04T06:13:02Z</time></trkpt><trkpt lat="42.12735739027404" lon="14.41161800063138"><ele>86.42857142857142</ele><time>2026-04-04T06:13:03.999Z</time></trkpt><trkpt lat="42.12732165550311" lon="14.411537261890297"><ele>87.14285714285714</ele><time>2026-04-04T06:13:05.999Z</time></trkpt><trkpt lat="42.127284723330924" lon="14.41145226166661"><ele>87.85714285714286</ele><time>2026-04-04T06:13:07.999Z</time></trkpt><trkpt lat="42.12724730366767" lon="14.411370440219597"><ele>88.57142857142858</ele><time>2026-04-04T06:13:09.999Z</time></trkpt><trkpt lat="42.127209780968265" lon="14.411290951226388"><ele>89.28571428571428</ele><time>2026-04-04T06:13:11.999Z</time></trkpt><trkpt lat="42.12717118128764" lon="14.411206284851337"><ele>90.0</ele><time>2026-04-04T06:13:13.999Z</time></trkpt><trkpt lat="42.127131153111506" lon="14.41112261759071"><ele>90.0</ele><time>2026-04-04T06:13:15.999Z</time></trkpt><trkpt lat="42.12709407069018" lon="14.41103836936097"><ele>90.0</ele><time>2026-04-04T06:13:17.999Z</time></trkpt><trkpt lat="42.12705341221127" lon="14.410954196830838"><ele>90.0</ele><time>2026-04-04T06:13:19.999Z</time></trkpt><trkpt lat="42.12701623077268" lon="14.41086823196107"><ele>90.0</ele><time>2026-04-04T06:13:21.999Z</time></trkpt><trkpt lat="42.126976757489146" lon="14.410782687792954"><ele>90.0</ele><time>2026-04-04T06:13:23.999Z</time></trkpt><trkpt lat="42.12693740818548" lon="14.410697069739959"><ele>90.0</ele><time>2026-04-04T06:13:25.999Z</time></trkpt><trkpt lat="42.12689673802532" lon="14.410613605815032"><ele>90.0</ele><time>2026-04-04T06:13:27.999Z</time></trkpt><trkpt lat="42.12685632140903" lon="14.410524003372604"><ele>89.85714285714285</ele><time>2026-04-04T06:13:29.999Z</time></trkpt><trkpt lat="42.12681469889522" lon="14.41043809049902"><ele>89.71428571428572</ele><time>2026-04-04T06:13:31.999Z</time></trkpt><trkpt lat="42.12677605610984" lon="14.410351758065154"><ele>89.57142857142857</ele><time>2026-04-04T06:13:33.999Z</time></trkpt><trkpt lat="42.126736937411955" lon="14.41026612229429"><ele>89.42857142857142</ele><time>2026-04-04T06:13:35.999Z</time></trkpt><trkpt lat="42.126699035877046" lon="14.410184718316907"><ele>89.28571428571428</ele><time>2026-04-04T06:13:37.999Z</time></trkpt><trkpt lat="42.12666067628185" lon="14.410104918463752"><ele>89.14285714285714</ele><time>2026-04-04T06:13:39.999Z</time></trkpt><trkpt lat="42.12662006059743" lon="14.410023220349379"><ele>89.0</ele><time>2026-04-04T06:13:41.999Z</time></trkpt><trkpt lat="42.126584996720965" lon="14.409940263752574"><ele>89.33333333333334</ele><time>2026-04-04T06:13:43.999Z</time></trkpt><trkpt lat="42.126543887716146" lon="14.409853867484024"><ele>89.66666666666667</ele><time>2026-04-04T06:13:45.999Z</time></trkpt><trkpt lat="42.126501265351976" lon="14.4097649290944"><ele>90.0</ele><time>2026-04-04T06:13:47.999Z</time></trkpt><trkpt lat="42.12646478120167" lon="14.409673877598758"><ele>90.33333333333333</ele><time>2026-04-04T06:13:49.999Z</time></trkpt><trkpt lat="42.126424286645396" lon="14.409585152251061"><ele>90.66666666666666</ele><time>2026-04-04T06:13:51.999Z</time></trkpt><trkpt lat="42.126384855753294" lon="14.409496780206648"><ele>91.0</ele><time>2026-04-04T06:13:53.999Z</time></trkpt><trkpt lat="42.12634497333917" lon="14.409408338383097"><ele>91.0</ele><time>2026-04-04T06:13:55.999Z</time></trkpt><trkpt lat="42.12630199226493" lon="14.409319851230633"><ele>91.0</ele><time>2026-04-04T06:13:57.998Z</time></trkpt><trkpt lat="42.126260711551616" lon="14.409231085781228"><ele>91.0</ele><time>2026-04-04T06:13:59.998Z</time></trkpt><trkpt lat="42.12622267033425" lon="14.409140205921101"><ele>91.0</ele><time>2026-04-04T06:14:02Z</time></trkpt><trkpt lat="42.12617788414649" lon="14.409049174570278"><ele>91.0</ele><time>2026-04-04T06:14:04Z</time></trkpt><trkpt lat="42.12613043157907" lon="14.408960740742573"><ele>91.0</ele><time>2026-04-04T06:14:06Z</time></trkpt><trkpt lat="42.126081838480154" lon="14.408880733779586"><ele>91.16666666666666</ele><time>2026-04-04T06:14:08Z</time></trkpt><trkpt lat="42.12602522968532" lon="14.408805842512118"><ele>91.33333333333333</ele><time>2026-04-04T06:14:10Z</time></trkpt><trkpt lat="42.1259707731977" lon="14.408731195251496"><ele>91.5</ele><time>2026-04-04T06:14:12Z</time></trkpt><trkpt lat="42.1259161672976" lon="14.408658726818965"><ele>91.66666666666667</ele><time>2026-04-04T06:14:14Z</time></trkpt><trkpt lat="42.12586004076709" lon="14.408591403093213"><ele>91.83333333333334</ele><time>2026-04-04T06:14:16Z</time></trkpt><trkpt lat="42.12580389690272" lon="14.408518497271372"><ele>92.0</ele><time>2026-04-04T06:14:18Z</time></trkpt><trkpt lat="42.12574708096138" lon="14.408447029343767"><ele>93.16666666666667</ele><time>2026-04-04T06:14:20Z</time></trkpt><trkpt lat="42.12569332400295" lon="14.408382153578511"><ele>94.33333333333334</ele><time>2026-04-04T06:14:22Z</time></trkpt><trkpt lat="42.125645518406735" lon="14.408304269447703"><ele>95.5</ele><time>2026-04-04T06:14:24Z</time></trkpt><trkpt lat="42.12558725058265" lon="14.408228675643098"><ele>96.66666666666667</ele><time>2026-04-04T06:14:27Z</time></trkpt><trkpt lat="42.12554083579697" lon="14.408165817300409"><ele>97.83333333333333</ele><time>2026-04-04T06:14:30Z</time></trkpt><trkpt lat="42.125505699371885" lon="14.408069155050882"><ele>99.0</ele><time>2026-04-04T06:14:32Z</time></trkpt><trkpt lat="42.1255745530296" lon="14.408019216919403"><ele>98.5</ele><time>2026-04-04T06:14:36Z</time></trkpt><trkpt lat="42.125630962613315" lon="14.407957666003009"><ele>98.0</ele><time>2026-04-04T06:14:39Z</time></trkpt><trkpt lat="42.12568089326576" lon="14.407901128705547"><ele>97.5</ele><time>2026-04-04T06:14:47Z</time></trkpt><trkpt lat="42.125687499762144" lon="14.407803397581592"><ele>97.0</ele><time>2026-04-04T06:14:49Z</time></trkpt><trkpt lat="42.125648094728156" lon="14.407718410718207"><ele>96.5</ele><time>2026-04-04T06:14:51Z</time></trkpt><trkpt lat="42.125605266785556" lon="14.407601544842791"><ele>96.0</ele><time>2026-04-04T06:14:54Z</time></trkpt><trkpt lat="42.12555901376627" lon="14.407509618696928"><ele>96.0</ele><time>2026-04-04T06:14:56Z</time></trkpt><trkpt lat="42.12552289392691" lon="14.407413157746083"><ele>96.0</ele><time>2026-04-04T06:14:58Z</time></trkpt><trkpt lat="42.1254817672411" lon="14.40732666712928"><ele>96.0</ele><time>2026-04-04T06:15:00Z</time></trkpt><trkpt lat="42.12544193843062" lon="14.407238596806886"><ele>96.0</ele><time>2026-04-04T06:15:02Z</time></trkpt><trkpt lat="42.12540237908817" lon="14.407142610387218"><ele>96.0</ele><time>2026-04-04T06:15:04Z</time></trkpt><trkpt lat="42.12536309402944" lon="14.40705184994499"><ele>96.0</ele><time>2026-04-04T06:15:05.999Z</time></trkpt><trkpt lat="42.12530843761959" lon="14.406965913434606"><ele>95.83333333333333</ele><time>2026-04-04T06:15:07.999Z</time></trkpt><trkpt lat="42.12527847434234" lon="14.406869981261883"><ele>95.66666666666667</ele><time>2026-04-04T06:15:09.999Z</time></trkpt><trkpt lat="42.12524085113284" lon="14.406773427835734"><ele>95.5</ele><time>2026-04-04T06:15:11.999Z</time></trkpt><trkpt lat="42.12519965589735" lon="14.406687605746423"><ele>95.33333333333334</ele><time>2026-04-04T06:15:13.999Z</time></trkpt><trkpt lat="42.12516611044303" lon="14.406604650797288"><ele>95.16666666666667</ele><time>2026-04-04T06:15:15.999Z</time></trkpt><trkpt lat="42.12512564814816" lon="14.406534562411595"><ele>95.0</ele><time>2026-04-04T06:15:17.999Z</time></trkpt><trkpt lat="42.12508201615809" lon="14.406437539636935"><ele>95.0</ele><time>2026-04-04T06:15:19.999Z</time></trkpt><trkpt lat="42.125037287686645" lon="14.406337952175681"><ele>95.0</ele><time>2026-04-04T06:15:21.999Z</time></trkpt><trkpt lat="42.12499329996761" lon="14.406237892981387"><ele>95.0</ele><time>2026-04-04T06:15:23.999Z</time></trkpt><trkpt lat="42.12494873450015" lon="14.406153833188396"><ele>95.0</ele><time>2026-04-04T06:15:25.999Z</time></trkpt><trkpt lat="42.12488329851772" lon="14.405985715334094"><ele>95.0</ele><time>2026-04-04T06:15:28.999Z</time></trkpt><trkpt lat="42.12483683437193" lon="14.40588313927373"><ele>95.16666666666667</ele><time>2026-04-04T06:15:30.999Z</time></trkpt><trkpt lat="42.124793886960084" lon="14.405789991864088"><ele>95.33333333333334</ele><time>2026-04-04T06:15:32.999Z</time></trkpt><trkpt lat="42.124758115074066" lon="14.405692246817209"><ele>95.5</ele><time>2026-04-04T06:15:34.999Z</time></trkpt><trkpt lat="42.124711486303674" lon="14.40560737376544"><ele>95.66666666666667</ele><time>2026-04-04T06:15:36.999Z</time></trkpt><trkpt lat="42.12466915608165" lon="14.405528471829845"><ele>95.83333333333333</ele><time>2026-04-04T06:15:38.999Z</time></trkpt><trkpt lat="42.12462982385895" lon="14.405445644762304"><ele>96.0</ele><time>2026-04-04T06:15:40.999Z</time></trkpt><trkpt lat="42.12459128851527" lon="14.40534454195793"><ele>96.0</ele><time>2026-04-04T06:15:42.999Z</time></trkpt><trkpt lat="42.12455061776006" lon="14.405252362977695"><ele>96.0</ele><time>2026-04-04T06:15:44.999Z</time></trkpt><trkpt lat="42.1244965164621" lon="14.405167018020325"><ele>96.0</ele><time>2026-04-04T06:15:46.999Z</time></trkpt><trkpt lat="42.12446295229883" lon="14.405074838232519"><ele>96.0</ele><time>2026-04-04T06:15:48.999Z</time></trkpt><trkpt lat="42.124408775479516" lon="14.404980936527902"><ele>96.0</ele><time>2026-04-04T06:15:50.999Z</time></trkpt><trkpt lat="42.124365158348375" lon="14.40488580977722"><ele>96.0</ele><time>2026-04-04T06:15:52.999Z</time></trkpt><trkpt lat="42.12432201584156" lon="14.404796076886232"><ele>96.0</ele><time>2026-04-04T06:15:54.999Z</time></trkpt><trkpt lat="42.12428053420049" lon="14.404710627993946"><ele>96.0</ele><time>2026-04-04T06:15:56.999Z</time></trkpt><trkpt lat="42.12424019605915" lon="14.404616483362952"><ele>96.0</ele><time>2026-04-04T06:15:58.999Z</time></trkpt><trkpt lat="42.12420012713545" lon="14.404524810656586"><ele>96.0</ele><time>2026-04-04T06:16:00.998Z</time></trkpt><trkpt lat="42.12416151312098" lon="14.404433170478633"><ele>96.0</ele><time>2026-04-04T06:16:02.998Z</time></trkpt><trkpt lat="42.12412711923368" lon="14.404345146322738"><ele>96.0</ele><time>2026-04-04T06:16:04.998Z</time></trkpt><trkpt lat="42.12407888183392" lon="14.404245854315745"><ele>96.16666666666667</ele><time>2026-04-04T06:16:06.998Z</time></trkpt><trkpt lat="42.12403462058374" lon="14.404144814352659"><ele>96.33333333333334</ele><time>2026-04-04T06:16:09Z</time></trkpt><trkpt lat="42.12399018184559" lon="14.404039471337121"><ele>96.5</ele><time>2026-04-04T06:16:11Z</time></trkpt><trkpt lat="42.12394977044533" lon="14.403952193693472"><ele>96.66666666666667</ele><time>2026-04-04T06:16:13Z</time></trkpt><trkpt lat="42.12390376147276" lon="14.403860863106269"><ele>96.83333333333334</ele><time>2026-04-04T06:16:15Z</time></trkpt><trkpt lat="42.123862040264996" lon="14.403762206310283"><ele>97.0</ele><time>2026-04-04T06:16:17Z</time></trkpt><trkpt lat="42.123815425748965" lon="14.403673279365943"><ele>97.33333333333334</ele><time>2026-04-04T06:16:19Z</time></trkpt><trkpt lat="42.12376916395708" lon="14.403580355035023"><ele>97.66666666666667</ele><time>2026-04-04T06:16:21Z</time></trkpt><trkpt lat="42.12372734071883" lon="14.403482009265884"><ele>98.0</ele><time>2026-04-04T06:16:23Z</time></trkpt><trkpt lat="42.123687877198705" lon="14.403379903717594"><ele>98.33333333333334</ele><time>2026-04-04T06:16:25Z</time></trkpt><trkpt lat="42.12364173894081" lon="14.40328554236689"><ele>98.66666666666667</ele><time>2026-04-04T06:16:27Z</time></trkpt><trkpt lat="42.12359658347016" lon="14.403185650752738"><ele>99.0</ele><time>2026-04-04T06:16:29Z</time></trkpt><trkpt lat="42.12355184854457" lon="14.403084091728056"><ele>99.5</ele><time>2026-04-04T06:16:31Z</time></trkpt><trkpt lat="42.12350650838538" lon="14.402987890634462"><ele>100.0</ele><time>2026-04-04T06:16:33Z</time></trkpt><trkpt lat="42.123463300916896" lon="14.402894208900362"><ele>100.5</ele><time>2026-04-04T06:16:35Z</time></trkpt><trkpt lat="42.12341981845822" lon="14.402801582791769"><ele>101.0</ele><time>2026-04-04T06:16:37Z</time></trkpt><trkpt lat="42.12337478808085" lon="14.402702179573609"><ele>101.5</ele><time>2026-04-04T06:16:39Z</time></trkpt><trkpt lat="42.123328079966655" lon="14.40260404781412"><ele>102.0</ele><time>2026-04-04T06:16:41Z</time></trkpt><trkpt lat="42.12328136382367" lon="14.40251092600896"><ele>102.0</ele><time>2026-04-04T06:16:43Z</time></trkpt><trkpt lat="42.12323618085652" lon="14.402410998670323"><ele>102.0</ele><time>2026-04-04T06:16:45Z</time></trkpt><trkpt lat="42.123192246706" lon="14.402310241427932"><ele>102.0</ele><time>2026-04-04T06:16:47Z</time></trkpt><trkpt lat="42.123147161336775" lon="14.402214766495195"><ele>102.0</ele><time>2026-04-04T06:16:49Z</time></trkpt><trkpt lat="42.12310045780759" lon="14.402118267112389"><ele>102.0</ele><time>2026-04-04T06:16:51Z</time></trkpt><trkpt lat="42.123058007051014" lon="14.402019202855314"><ele>102.0</ele><time>2026-04-04T06:16:53Z</time></trkpt><trkpt lat="42.12301469764487" lon="14.401928266455407"><ele>102.16666666666667</ele><time>2026-04-04T06:16:55Z</time></trkpt><trkpt lat="42.122971268805685" lon="14.401838151849354"><ele>102.33333333333334</ele><time>2026-04-04T06:16:57Z</time></trkpt><trkpt lat="42.1229301310037" lon="14.40174326454036"><ele>102.5</ele><time>2026-04-04T06:16:59Z</time></trkpt><trkpt lat="42.12288638450551" lon="14.401647440609215"><ele>102.66666666666667</ele><time>2026-04-04T06:17:01Z</time></trkpt><trkpt lat="42.12284203749928" lon="14.401551794497014"><ele>102.83333333333334</ele><time>2026-04-04T06:17:03Z</time></trkpt><trkpt lat="42.122799420530306" lon="14.401456047118522"><ele>103.0</ele><time>2026-04-04T06:17:05Z</time></trkpt><trkpt lat="42.12275721402516" lon="14.401364315583786"><ele>103.33333333333334</ele><time>2026-04-04T06:17:06.999Z</time></trkpt><trkpt lat="42.12271425957522" lon="14.401268951473991"><ele>103.66666666666667</ele><time>2026-04-04T06:17:08.999Z</time></trkpt><trkpt lat="42.122673249920574" lon="14.401171246525573"><ele>104.0</ele><time>2026-04-04T06:17:10.999Z</time></trkpt><trkpt lat="42.12262989082954" lon="14.40108031291074"><ele>104.33333333333334</ele><time>2026-04-04T06:17:12.999Z</time></trkpt><trkpt lat="42.12258718367172" lon="14.400988409187098"><ele>104.66666666666667</ele><time>2026-04-04T06:17:14.999Z</time></trkpt><trkpt lat="42.1225431663434" lon="14.400893316620966"><ele>105.0</ele><time>2026-04-04T06:17:16.999Z</time></trkpt><trkpt lat="42.12249383681856" lon="14.400797673253798"><ele>105.0</ele><time>2026-04-04T06:17:18.999Z</time></trkpt><trkpt lat="42.122450837143674" lon="14.400699615958425"><ele>105.0</ele><time>2026-04-04T06:17:20.999Z</time></trkpt><trkpt lat="42.122404619964875" lon="14.400604564456646"><ele>105.0</ele><time>2026-04-04T06:17:22.999Z</time></trkpt><trkpt lat="42.122360808737064" lon="14.400509353671927"><ele>105.0</ele><time>2026-04-04T06:17:24.999Z</time></trkpt><trkpt lat="42.12231622448241" lon="14.400411970725983"><ele>105.0</ele><time>2026-04-04T06:17:26.999Z</time></trkpt><trkpt lat="42.12227241717248" lon="14.400317025876486"><ele>105.0</ele><time>2026-04-04T06:17:28.999Z</time></trkpt><trkpt lat="42.122228592547536" lon="14.400217328063023"><ele>105.16666666666667</ele><time>2026-04-04T06:17:30.999Z</time></trkpt><trkpt lat="42.12218384067579" lon="14.400121101864057"><ele>105.33333333333334</ele><time>2026-04-04T06:17:32.999Z</time></trkpt><trkpt lat="42.12213814124812" lon="14.400030197030256"><ele>105.5</ele><time>2026-04-04T06:17:34.999Z</time></trkpt><trkpt lat="42.122094716964476" lon="14.399931344768577"><ele>105.66666666666667</ele><time>2026-04-04T06:17:36.999Z</time></trkpt><trkpt lat="42.12205089506457" lon="14.399836414607238"><ele>105.83333333333334</ele><time>2026-04-04T06:17:38.999Z</time></trkpt><trkpt lat="42.122005806051185" lon="14.399745491103237"><ele>106.0</ele><time>2026-04-04T06:17:40.999Z</time></trkpt><trkpt lat="42.121961373110025" lon="14.39964506000492"><ele>106.00000000000001</ele><time>2026-04-04T06:17:42.999Z</time></trkpt><trkpt lat="42.12191611403468" lon="14.399547253256864"><ele>106.0</ele><time>2026-04-04T06:17:44.999Z</time></trkpt><trkpt lat="42.12186750821887" lon="14.399451165457227"><ele>106.0</ele><time>2026-04-04T06:17:46.999Z</time></trkpt><trkpt lat="42.12181673548944" lon="14.399361035897181"><ele>106.0</ele><time>2026-04-04T06:17:48.999Z</time></trkpt><trkpt lat="42.121762816584585" lon="14.399272117955125"><ele>106.00000000000001</ele><time>2026-04-04T06:17:50.999Z</time></trkpt><trkpt lat="42.121701989271536" lon="14.399191390044896"><ele>106.0</ele><time>2026-04-04T06:17:52.999Z</time></trkpt><trkpt lat="42.121637562715584" lon="14.399113414148557"><ele>106.00000000000001</ele><time>2026-04-04T06:17:54.999Z</time></trkpt><trkpt lat="42.12157464778623" lon="14.399036279710307"><ele>106.0</ele><time>2026-04-04T06:17:56.999Z</time></trkpt><trkpt lat="42.12151111069983" lon="14.398956015969238"><ele>106.0</ele><time>2026-04-04T06:17:58.999Z</time></trkpt><trkpt lat="42.12144424029119" lon="14.39887822194445"><ele>106.0</ele><time>2026-04-04T06:18:00.998Z</time></trkpt><trkpt lat="42.12138017668369" lon="14.398801201042088"><ele>106.00000000000001</ele><time>2026-04-04T06:18:02.998Z</time></trkpt><trkpt lat="42.12131296396879" lon="14.398725229944372"><ele>106.0</ele><time>2026-04-04T06:18:04.998Z</time></trkpt><trkpt lat="42.12124885143306" lon="14.39864856308013"><ele>106.33333333333334</ele><time>2026-04-04T06:18:06.998Z</time></trkpt><trkpt lat="42.12118240178012" lon="14.398570400595517"><ele>106.66666666666667</ele><time>2026-04-04T06:18:08.998Z</time></trkpt><trkpt lat="42.12111679935234" lon="14.3984945391376"><ele>107.0</ele><time>2026-04-04T06:18:10.998Z</time></trkpt><trkpt lat="42.12105178895976" lon="14.398417537951778"><ele>107.33333333333334</ele><time>2026-04-04T06:18:12.998Z</time></trkpt><trkpt lat="42.12098722014876" lon="14.398341471054918"><ele>107.66666666666667</ele><time>2026-04-04T06:18:15Z</time></trkpt><trkpt lat="42.12092876443362" lon="14.398253685721125"><ele>108.0</ele><time>2026-04-04T06:18:17Z</time></trkpt><trkpt lat="42.120855203887544" lon="14.398202115100142"><ele>108.0</ele><time>2026-04-04T06:18:19Z</time></trkpt><trkpt lat="42.120796100624844" lon="14.398106197872586"><ele>108.0</ele><time>2026-04-04T06:18:21Z</time></trkpt><trkpt lat="42.12073377887207" lon="14.398035262889051"><ele>108.0</ele><time>2026-04-04T06:18:23Z</time></trkpt><trkpt lat="42.120668535886956" lon="14.39795042832263"><ele>108.0</ele><time>2026-04-04T06:18:25Z</time></trkpt><trkpt lat="42.12060548031099" lon="14.397881065645558"><ele>108.0</ele><time>2026-04-04T06:18:27Z</time></trkpt><trkpt lat="42.12053526404285" lon="14.397799337048266"><ele>108.0</ele><time>2026-04-04T06:18:29Z</time></trkpt><trkpt lat="42.12046256382705" lon="14.397722913269218"><ele>108.5</ele><time>2026-04-04T06:18:31Z</time></trkpt><trkpt lat="42.120400244694856" lon="14.397643294234756"><ele>109.0</ele><time>2026-04-04T06:18:33Z</time></trkpt><trkpt lat="42.120335568261645" lon="14.397580880813777"><ele>109.5</ele><time>2026-04-04T06:18:35Z</time></trkpt><trkpt lat="42.12028893289128" lon="14.397509750623737"><ele>110.0</ele><time>2026-04-04T06:18:37Z</time></trkpt><trkpt lat="42.12022118892981" lon="14.397431828031161"><ele>110.5</ele><time>2026-04-04T06:18:39Z</time></trkpt><trkpt lat="42.12015858938295" lon="14.397359046787741"><ele>111.0</ele><time>2026-04-04T06:18:41Z</time></trkpt><trkpt lat="42.12010058578513" lon="14.397282841476214"><ele>111.0</ele><time>2026-04-04T06:18:43Z</time></trkpt><trkpt lat="42.12003419269649" lon="14.397211927725964"><ele>111.0</ele><time>2026-04-04T06:18:45Z</time></trkpt><trkpt lat="42.11996962118058" lon="14.397133080670521"><ele>111.0</ele><time>2026-04-04T06:18:47Z</time></trkpt><trkpt lat="42.11990448620795" lon="14.397063489333748"><ele>111.0</ele><time>2026-04-04T06:18:49Z</time></trkpt><trkpt lat="42.119841571395604" lon="14.396988793663468"><ele>111.0</ele><time>2026-04-04T06:18:51Z</time></trkpt><trkpt lat="42.119775896168136" lon="14.396914788542302"><ele>111.0</ele><time>2026-04-04T06:18:53Z</time></trkpt><trkpt lat="42.11970441635694" lon="14.39683692353852"><ele>111.33333333333333</ele><time>2026-04-04T06:18:55Z</time></trkpt><trkpt lat="42.11963784860104" lon="14.396765017894454"><ele>111.66666666666666</ele><time>2026-04-04T06:18:57Z</time></trkpt><trkpt lat="42.11957254879402" lon="14.396686337334279"><ele>112.0</ele><time>2026-04-04T06:18:59Z</time></trkpt><trkpt lat="42.11950520850326" lon="14.396607386482161"><ele>112.33333333333333</ele><time>2026-04-04T06:19:01Z</time></trkpt><trkpt lat="42.11944234595574" lon="14.396530413242338"><ele>112.66666666666666</ele><time>2026-04-04T06:19:03Z</time></trkpt><trkpt lat="42.119371329140314" lon="14.396444546373456"><ele>113.0</ele><time>2026-04-04T06:19:05Z</time></trkpt><trkpt lat="42.119295872589525" lon="14.396362113184887"><ele>112.83333333333333</ele><time>2026-04-04T06:19:07Z</time></trkpt><trkpt lat="42.11922658225798" lon="14.396280432035079"><ele>112.66666666666666</ele><time>2026-04-04T06:19:09Z</time></trkpt><trkpt lat="42.11915844723975" lon="14.396198351844069"><ele>112.5</ele><time>2026-04-04T06:19:10.999Z</time></trkpt><trkpt lat="42.119086688774495" lon="14.396120705504385"><ele>112.33333333333334</ele><time>2026-04-04T06:19:12.999Z</time></trkpt><trkpt lat="42.11903294547213" lon="14.396045380907582"><ele>112.16666666666667</ele><time>2026-04-04T06:19:14.999Z</time></trkpt><trkpt lat="42.11897659090647" lon="14.395954642057585"><ele>112.0</ele><time>2026-04-04T06:19:16.999Z</time></trkpt><trkpt lat="42.11890717837118" lon="14.395859785004374"><ele>112.00000000000001</ele><time>2026-04-04T06:19:18.999Z</time></trkpt><trkpt lat="42.11884126861781" lon="14.395781519894733"><ele>112.0</ele><time>2026-04-04T06:19:20.999Z</time></trkpt><trkpt lat="42.11878432980678" lon="14.395703057368843"><ele>112.0</ele><time>2026-04-04T06:19:22.999Z</time></trkpt><trkpt lat="42.11872311324065" lon="14.395622783357755"><ele>112.0</ele><time>2026-04-04T06:19:24.999Z</time></trkpt><trkpt lat="42.1186585449068" lon="14.395542321853052"><ele>112.00000000000001</ele><time>2026-04-04T06:19:26.999Z</time></trkpt><trkpt lat="42.11858231044334" lon="14.395474459025634"><ele>112.0</ele><time>2026-04-04T06:19:28.999Z</time></trkpt><trkpt lat="42.118511607502505" lon="14.395378508175979"><ele>112.0</ele><time>2026-04-04T06:19:30.999Z</time></trkpt><trkpt lat="42.118442431479025" lon="14.39529838350215"><ele>111.99999999999999</ele><time>2026-04-04T06:19:32.999Z</time></trkpt><trkpt lat="42.118372335567" lon="14.39521344855846"><ele>111.99999999999999</ele><time>2026-04-04T06:19:34.999Z</time></trkpt><trkpt lat="42.118301109407135" lon="14.395134161454564"><ele>112.0</ele><time>2026-04-04T06:19:36.999Z</time></trkpt><trkpt lat="42.11822982594467" lon="14.395054963936419"><ele>112.0</ele><time>2026-04-04T06:19:38.999Z</time></trkpt><trkpt lat="42.11816008917511" lon="14.394975900725314"><ele>111.83333333333334</ele><time>2026-04-04T06:19:40.999Z</time></trkpt><trkpt lat="42.11808610114871" lon="14.39490160419363"><ele>111.66666666666667</ele><time>2026-04-04T06:19:42.999Z</time></trkpt><trkpt lat="42.118014524506656" lon="14.39481293398461"><ele>111.5</ele><time>2026-04-04T06:19:44.999Z</time></trkpt><trkpt lat="42.117944662679584" lon="14.394724225406257"><ele>111.33333333333334</ele><time>2026-04-04T06:19:46.999Z</time></trkpt><trkpt lat="42.11791594526777" lon="14.394631710958862"><ele>111.16666666666667</ele><time>2026-04-04T06:19:47.999Z</time></trkpt><trkpt lat="42.117837160720235" lon="14.39458742471765"><ele>111.0</ele><time>2026-04-04T06:19:49.999Z</time></trkpt><trkpt lat="42.11776395686384" lon="14.394500077700489"><ele>111.0</ele><time>2026-04-04T06:19:51.999Z</time></trkpt><trkpt lat="42.117695789248685" lon="14.394416244061222"><ele>111.0</ele><time>2026-04-04T06:19:53.999Z</time></trkpt><trkpt lat="42.117625518338045" lon="14.394337383553868"><ele>111.0</ele><time>2026-04-04T06:19:55.999Z</time></trkpt><trkpt lat="42.117555665378035" lon="14.394258994436791"><ele>111.0</ele><time>2026-04-04T06:19:57.999Z</time></trkpt><trkpt lat="42.11748669847328" lon="14.39417732613482"><ele>111.0</ele><time>2026-04-04T06:19:59.999Z</time></trkpt><trkpt lat="42.11741727137949" lon="14.394097574018744"><ele>110.8</ele><time>2026-04-04T06:20:01.999Z</time></trkpt><trkpt lat="42.11734834108687" lon="14.394021114797244"><ele>110.6</ele><time>2026-04-04T06:20:03.998Z</time></trkpt><trkpt lat="42.117280753893084" lon="14.393953916359697"><ele>110.4</ele><time>2026-04-04T06:20:05.998Z</time></trkpt><trkpt lat="42.11720891138315" lon="14.39387997867253"><ele>110.2</ele><time>2026-04-04T06:20:07.998Z</time></trkpt><trkpt lat="42.11713824637628" lon="14.393801317648853"><ele>110.0</ele><time>2026-04-04T06:20:09.998Z</time></trkpt><trkpt lat="42.117063803511414" lon="14.393714287922794"><ele>110.0</ele><time>2026-04-04T06:20:11.998Z</time></trkpt><trkpt lat="42.11698681998149" lon="14.39362874204846"><ele>110.0</ele><time>2026-04-04T06:20:13.998Z</time></trkpt><trkpt lat="42.11690777874298" lon="14.393531837391453"><ele>110.0</ele><time>2026-04-04T06:20:15.998Z</time></trkpt><trkpt lat="42.11682423442664" lon="14.393431641906597"><ele>110.0</ele><time>2026-04-04T06:20:17.998Z</time></trkpt><trkpt lat="42.116737441109514" lon="14.393327326480346"><ele>110.0</ele><time>2026-04-04T06:20:20Z</time></trkpt><trkpt lat="42.11664719713427" lon="14.393223936760942"><ele>110.25</ele><time>2026-04-04T06:20:22Z</time></trkpt><trkpt lat="42.116553129740836" lon="14.393114545904922"><ele>110.5</ele><time>2026-04-04T06:20:24Z</time></trkpt><trkpt lat="42.11646220175536" lon="14.393005216417533"><ele>110.75</ele><time>2026-04-04T06:20:26Z</time></trkpt><trkpt lat="42.116368181573776" lon="14.392899320907782"><ele>111.0</ele><time>2026-04-04T06:20:28Z</time></trkpt><trkpt lat="42.11627683308793" lon="14.392790475094163"><ele>110.0</ele><time>2026-04-04T06:20:30Z</time></trkpt><trkpt lat="42.11618335567749" lon="14.392680533514758"><ele>109.0</ele><time>2026-04-04T06:20:32Z</time></trkpt><trkpt lat="42.11608807040701" lon="14.392571108814103"><ele>108.0</ele><time>2026-04-04T06:20:34Z</time></trkpt><trkpt lat="42.11604041275801" lon="14.392514719479209"><ele>107.0</ele><time>2026-04-04T06:20:35Z</time></trkpt><trkpt lat="42.11599240538789" lon="14.392459590840774"><ele>106.0</ele><time>2026-04-04T06:20:36Z</time></trkpt><trkpt lat="42.115898955213844" lon="14.392346335215858"><ele>106.0</ele><time>2026-04-04T06:20:38Z</time></trkpt><trkpt lat="42.11584974130897" lon="14.392292011483043"><ele>106.0</ele><time>2026-04-04T06:20:39Z</time></trkpt><trkpt lat="42.11580260624388" lon="14.392235234267929"><ele>106.0</ele><time>2026-04-04T06:20:40Z</time></trkpt><trkpt lat="42.11575647397723" lon="14.39217660080163"><ele>106.0</ele><time>2026-04-04T06:20:41Z</time></trkpt><trkpt lat="42.11570729505616" lon="14.39212192880826"><ele>106.0</ele><time>2026-04-04T06:20:42Z</time></trkpt><trkpt lat="42.11566003096969" lon="14.392063897382386"><ele>106.0</ele><time>2026-04-04T06:20:43Z</time></trkpt><trkpt lat="42.11561180969823" lon="14.392007098720816"><ele>106.0</ele><time>2026-04-04T06:20:44Z</time></trkpt><trkpt lat="42.115562237663156" lon="14.391950528892389"><ele>106.0</ele><time>2026-04-04T06:20:45Z</time></trkpt><trkpt lat="42.11551479870306" lon="14.391890717517084"><ele>105.57142857142857</ele><time>2026-04-04T06:20:46Z</time></trkpt><trkpt lat="42.11546691657819" lon="14.391833321905589"><ele>105.14285714285714</ele><time>2026-04-04T06:20:47Z</time></trkpt><trkpt lat="42.11541743271088" lon="14.391777179891596"><ele>104.71428571428571</ele><time>2026-04-04T06:20:48Z</time></trkpt><trkpt lat="42.11536964345138" lon="14.391717689091601"><ele>104.28571428571428</ele><time>2026-04-04T06:20:49Z</time></trkpt><trkpt lat="42.115321075939235" lon="14.391661232164932"><ele>103.85714285714286</ele><time>2026-04-04T06:20:50Z</time></trkpt><trkpt lat="42.11527362199729" lon="14.391604486730778"><ele>103.42857142857142</ele><time>2026-04-04T06:20:51Z</time></trkpt><trkpt lat="42.11518010898417" lon="14.391497254495096"><ele>103.0</ele><time>2026-04-04T06:20:53Z</time></trkpt><trkpt lat="42.11508634813838" lon="14.39138842787839"><ele>103.00000000000001</ele><time>2026-04-04T06:20:55Z</time></trkpt><trkpt lat="42.11499143179414" lon="14.391276716595097"><ele>103.0</ele><time>2026-04-04T06:20:57Z</time></trkpt><trkpt lat="42.114941577054644" lon="14.391219492072167"><ele>103.0</ele><time>2026-04-04T06:20:58Z</time></trkpt><trkpt lat="42.114892084352405" lon="14.391159079888519"><ele>103.0</ele><time>2026-04-04T06:20:59Z</time></trkpt><trkpt lat="42.11484124586963" lon="14.391099842041948"><ele>103.00000000000001</ele><time>2026-04-04T06:21:00Z</time></trkpt><trkpt lat="42.114791448635316" lon="14.39104313301041"><ele>103.0</ele><time>2026-04-04T06:21:01Z</time></trkpt><trkpt lat="42.11474186690839" lon="14.39098231657776"><ele>102.85714285714285</ele><time>2026-04-04T06:21:02Z</time></trkpt><trkpt lat="42.11469165193977" lon="14.390922415214565"><ele>102.71428571428571</ele><time>2026-04-04T06:21:03Z</time></trkpt><trkpt lat="42.11463979721762" lon="14.390864905071187"><ele>102.57142857142857</ele><time>2026-04-04T06:21:04Z</time></trkpt><trkpt lat="42.11458798965492" lon="14.390803231520767"><ele>102.42857142857142</ele><time>2026-04-04T06:21:05Z</time></trkpt><trkpt lat="42.11453748084744" lon="14.390743862242163"><ele>102.28571428571429</ele><time>2026-04-04T06:21:06Z</time></trkpt><trkpt lat="42.1144871007313" lon="14.390683321049263"><ele>102.14285714285714</ele><time>2026-04-04T06:21:07Z</time></trkpt><trkpt lat="42.11443687283819" lon="14.390625646927445"><ele>102.0</ele><time>2026-04-04T06:21:08Z</time></trkpt><trkpt lat="42.11438678617931" lon="14.390570697680808"><ele>102.0</ele><time>2026-04-04T06:21:09Z</time></trkpt><trkpt lat="42.11433893869567" lon="14.390513971828042"><ele>102.0</ele><time>2026-04-04T06:21:10Z</time></trkpt><trkpt lat="42.1142924447208" lon="14.390455896936198"><ele>102.0</ele><time>2026-04-04T06:21:11Z</time></trkpt><trkpt lat="42.11424529794786" lon="14.390399455003298"><ele>102.0</ele><time>2026-04-04T06:21:12Z</time></trkpt><trkpt lat="42.114148363056906" lon="14.390295181302788"><ele>102.0</ele><time>2026-04-04T06:21:13.999Z</time></trkpt><trkpt lat="42.11405560895756" lon="14.390185281351059"><ele>102.0</ele><time>2026-04-04T06:21:15.999Z</time></trkpt><trkpt lat="42.11400857003079" lon="14.390127898506153"><ele>102.39999999999999</ele><time>2026-04-04T06:21:16.999Z</time></trkpt><trkpt lat="42.11391322375585" lon="14.390020604369475"><ele>102.8</ele><time>2026-04-04T06:21:18.999Z</time></trkpt><trkpt lat="42.11382031985465" lon="14.389908178513943"><ele>103.2</ele><time>2026-04-04T06:21:20.999Z</time></trkpt><trkpt lat="42.11372675054678" lon="14.389797898726325"><ele>103.6</ele><time>2026-04-04T06:21:22.999Z</time></trkpt><trkpt lat="42.113678366315774" lon="14.389742827088309"><ele>104.0</ele><time>2026-04-04T06:21:23.999Z</time></trkpt><trkpt lat="42.11362991961268" lon="14.389688114680428"><ele>103.5</ele><time>2026-04-04T06:21:24.999Z</time></trkpt><trkpt lat="42.11353636567211" lon="14.389578058863375"><ele>103.0</ele><time>2026-04-04T06:21:26.999Z</time></trkpt><trkpt lat="42.11344111755013" lon="14.389474221500945"><ele>102.5</ele><time>2026-04-04T06:21:28.999Z</time></trkpt><trkpt lat="42.113348168350704" lon="14.389364982982089"><ele>102.0</ele><time>2026-04-04T06:21:30.999Z</time></trkpt><trkpt lat="42.11325787300092" lon="14.389256584053824"><ele>102.0</ele><time>2026-04-04T06:21:32.999Z</time></trkpt><trkpt lat="42.11316480981455" lon="14.389154389454331"><ele>102.0</ele><time>2026-04-04T06:21:34.999Z</time></trkpt><trkpt lat="42.11307543769989" lon="14.389043208584706"><ele>102.0</ele><time>2026-04-04T06:21:36.999Z</time></trkpt><trkpt lat="42.11298607869423" lon="14.38893291276589"><ele>102.0</ele><time>2026-04-04T06:21:38.999Z</time></trkpt><trkpt lat="42.112896627199" lon="14.38883119659249"><ele>102.0</ele><time>2026-04-04T06:21:40.999Z</time></trkpt><trkpt lat="42.11280798825463" lon="14.388723378468466"><ele>102.0</ele><time>2026-04-04T06:21:42.999Z</time></trkpt><trkpt lat="42.11271991490604" lon="14.388621669659269"><ele>102.0</ele><time>2026-04-04T06:21:44.999Z</time></trkpt><trkpt lat="42.11263604394359" lon="14.388520938550888"><ele>102.0</ele><time>2026-04-04T06:21:46.999Z</time></trkpt><trkpt lat="42.112553175657695" lon="14.388421260990485"><ele>102.0</ele><time>2026-04-04T06:21:48.999Z</time></trkpt><trkpt lat="42.11247552148979" lon="14.388327391182749"><ele>102.0</ele><time>2026-04-04T06:21:50.999Z</time></trkpt><trkpt lat="42.11239757089466" lon="14.388240960395844"><ele>102.0</ele><time>2026-04-04T06:21:52.999Z</time></trkpt><trkpt lat="42.11233057834765" lon="14.388162063071832"><ele>102.0</ele><time>2026-04-04T06:21:54.999Z</time></trkpt><trkpt lat="42.11227475741903" lon="14.388084928449366"><ele>102.0</ele><time>2026-04-04T06:21:57.999Z</time></trkpt><trkpt lat="42.112242060050335" lon="14.387979361784314"><ele>102.5</ele><time>2026-04-04T06:22:00.999Z</time></trkpt><trkpt lat="42.112183634396274" lon="14.387890809199638"><ele>103.0</ele><time>2026-04-04T06:22:04.999Z</time></trkpt><trkpt lat="42.11212965068706" lon="14.387827929722675"><ele>103.5</ele><time>2026-04-04T06:22:06.998Z</time></trkpt><trkpt lat="42.11207007112313" lon="14.387759777847691"><ele>104.0</ele><time>2026-04-04T06:22:08.998Z</time></trkpt><trkpt lat="42.112004631499616" lon="14.387684496926457"><ele>104.5</ele><time>2026-04-04T06:22:10.998Z</time></trkpt><trkpt lat="42.111942772998226" lon="14.38761699166849"><ele>105.0</ele><time>2026-04-04T06:22:12.998Z</time></trkpt><trkpt lat="42.11181511928718" lon="14.387480637453029"><ele>105.0</ele><time>2026-04-04T06:22:14.998Z</time></trkpt><trkpt lat="42.111767962891065" lon="14.387407434608622"><ele>105.0</ele><time>2026-04-04T06:22:15.998Z</time></trkpt><trkpt lat="42.11166830542275" lon="14.386969433309323"><ele>105.0</ele><time>2026-04-04T06:22:16.998Z</time></trkpt><trkpt lat="42.111677143995486" lon="14.38687199247974"><ele>104.4</ele><time>2026-04-04T06:22:17.998Z</time></trkpt><trkpt lat="42.11168730503624" lon="14.386785123115091"><ele>103.8</ele><time>2026-04-04T06:22:18.998Z</time></trkpt><trkpt lat="42.11170290445446" lon="14.386644462502549"><ele>103.19999999999999</ele><time>2026-04-04T06:22:20.998Z</time></trkpt><trkpt lat="42.111718763440095" lon="14.386501461350774"><ele>102.6</ele><time>2026-04-04T06:22:22.998Z</time></trkpt><trkpt lat="42.11173415865988" lon="14.386358502454257"><ele>102.0</ele><time>2026-04-04T06:22:25Z</time></trkpt><trkpt lat="42.11174912026654" lon="14.386213652414504"><ele>101.5</ele><time>2026-04-04T06:22:27Z</time></trkpt><trkpt lat="42.111764932951054" lon="14.386067380460153"><ele>101.0</ele><time>2026-04-04T06:22:29Z</time></trkpt><trkpt lat="42.11177570126804" lon="14.385912102176702"><ele>100.5</ele><time>2026-04-04T06:22:31Z</time></trkpt><trkpt lat="42.11178150381636" lon="14.38575821068719"><ele>100.0</ele><time>2026-04-04T06:22:33Z</time></trkpt><trkpt lat="42.111775710804174" lon="14.385608437199966"><ele>100.0</ele><time>2026-04-04T06:22:35Z</time></trkpt><trkpt lat="42.11176642285996" lon="14.385522474618977"><ele>100.0</ele><time>2026-04-04T06:22:36Z</time></trkpt><trkpt lat="42.11175554266314" lon="14.385356386599685"><ele>100.0</ele><time>2026-04-04T06:22:38Z</time></trkpt><trkpt lat="42.111715624549" lon="14.385228672503978"><ele>100.0</ele><time>2026-04-04T06:22:40Z</time></trkpt><trkpt lat="42.11171267662048" lon="14.385140204679608"><ele>100.0</ele><time>2026-04-04T06:22:41Z</time></trkpt><trkpt lat="42.111669619722036" lon="14.384981186582788"><ele>99.8</ele><time>2026-04-04T06:22:43Z</time></trkpt><trkpt lat="42.11164132410475" lon="14.384830816986227"><ele>99.6</ele><time>2026-04-04T06:22:45Z</time></trkpt><trkpt lat="42.11161473375146" lon="14.384689509603108"><ele>99.4</ele><time>2026-04-04T06:22:47Z</time></trkpt><trkpt lat="42.11158979137182" lon="14.384556959929666"><ele>99.2</ele><time>2026-04-04T06:22:49Z</time></trkpt><trkpt lat="42.11158164146404" lon="14.38443016636873"><ele>99.0</ele><time>2026-04-04T06:22:51Z</time></trkpt><trkpt lat="42.11154426394025" lon="14.384315016463432"><ele>99.6</ele><time>2026-04-04T06:22:53Z</time></trkpt><trkpt lat="42.11152107644022" lon="14.384191792623197"><ele>100.2</ele><time>2026-04-04T06:22:55Z</time></trkpt><trkpt lat="42.111498490243214" lon="14.38407176426565"><ele>100.8</ele><time>2026-04-04T06:22:57Z</time></trkpt><trkpt lat="42.111491815595485" lon="14.383949059287414"><ele>101.39999999999999</ele><time>2026-04-04T06:22:59Z</time></trkpt><trkpt lat="42.111468461188075" lon="14.38382745181891"><ele>102.0</ele><time>2026-04-04T06:23:01Z</time></trkpt><trkpt lat="42.111443734608805" lon="14.383705657240649"><ele>102.0</ele><time>2026-04-04T06:23:03Z</time></trkpt><trkpt lat="42.11141588960799" lon="14.383577906550792"><ele>102.0</ele><time>2026-04-04T06:23:05Z</time></trkpt><trkpt lat="42.11139546722956" lon="14.38345480249292"><ele>102.0</ele><time>2026-04-04T06:23:07Z</time></trkpt><trkpt lat="42.11137247825604" lon="14.383338285433606"><ele>102.0</ele><time>2026-04-04T06:23:09Z</time></trkpt><trkpt lat="42.11135262193377" lon="14.383225970716396"><ele>102.0</ele><time>2026-04-04T06:23:11Z</time></trkpt><trkpt lat="42.11133077285217" lon="14.38311872902305"><ele>101.0</ele><time>2026-04-04T06:23:13Z</time></trkpt><trkpt lat="42.111307766527545" lon="14.383009454114179"><ele>100.0</ele><time>2026-04-04T06:23:14.999Z</time></trkpt><trkpt lat="42.11128612853148" lon="14.38289581113409"><ele>99.0</ele><time>2026-04-04T06:23:16.999Z</time></trkpt><trkpt lat="42.11126037301553" lon="14.38279323949898"><ele>98.0</ele><time>2026-04-04T06:23:18.999Z</time></trkpt><trkpt lat="42.11123300135286" lon="14.382673489732163"><ele>97.0</ele><time>2026-04-04T06:23:20.999Z</time></trkpt><trkpt lat="42.111202489942826" lon="14.382508663508924"><ele>97.00000000000001</ele><time>2026-04-04T06:23:22.999Z</time></trkpt><trkpt lat="42.111185743788674" lon="14.382421530260586"><ele>97.0</ele><time>2026-04-04T06:23:23.999Z</time></trkpt><trkpt lat="42.11116657354323" lon="14.382326581839793"><ele>97.0</ele><time>2026-04-04T06:23:24.999Z</time></trkpt><trkpt lat="42.11114924278185" lon="14.382234759989778"><ele>97.0</ele><time>2026-04-04T06:23:25.999Z</time></trkpt><trkpt lat="42.11112525292372" lon="14.382092765645229"><ele>97.00000000000001</ele><time>2026-04-04T06:23:27.999Z</time></trkpt><trkpt lat="42.11110418150114" lon="14.381983113523278"><ele>97.0</ele><time>2026-04-04T06:23:29.999Z</time></trkpt><trkpt lat="42.111080964424254" lon="14.381876477973977"><ele>96.66666666666667</ele><time>2026-04-04T06:23:31.999Z</time></trkpt><trkpt lat="42.1110639651058" lon="14.381777104581287"><ele>96.33333333333334</ele><time>2026-04-04T06:23:33.999Z</time></trkpt><trkpt lat="42.1110414506642" lon="14.381679421867444"><ele>96.0</ele><time>2026-04-04T06:23:35.999Z</time></trkpt><trkpt lat="42.11102075132703" lon="14.381578966399568"><ele>95.66666666666667</ele><time>2026-04-04T06:23:37.999Z</time></trkpt><trkpt lat="42.1109997339664" lon="14.381477759828886"><ele>95.33333333333334</ele><time>2026-04-04T06:23:39.999Z</time></trkpt><trkpt lat="42.110977784975844" lon="14.381378092069424"><ele>95.0</ele><time>2026-04-04T06:23:41.999Z</time></trkpt><trkpt lat="42.110958989814954" lon="14.381274420140032"><ele>95.83333333333334</ele><time>2026-04-04T06:23:43.999Z</time></trkpt><trkpt lat="42.110944623373925" lon="14.381163837905072"><ele>96.66666666666667</ele><time>2026-04-04T06:23:45.999Z</time></trkpt><trkpt lat="42.110931795390904" lon="14.381056157082355"><ele>97.5</ele><time>2026-04-04T06:23:47.999Z</time></trkpt><trkpt lat="42.11090963160015" lon="14.38095832919388"><ele>98.33333333333334</ele><time>2026-04-04T06:23:49.999Z</time></trkpt><trkpt lat="42.11089601027841" lon="14.380858978701363"><ele>99.16666666666667</ele><time>2026-04-04T06:23:51.999Z</time></trkpt><trkpt lat="42.11093043413361" lon="14.380751294196214"><ele>100.0</ele><time>2026-04-04T06:23:53.999Z</time></trkpt><trkpt lat="42.110935874253855" lon="14.38064900537498"><ele>100.00000000000001</ele><time>2026-04-04T06:23:55.999Z</time></trkpt><trkpt lat="42.110942673765095" lon="14.38053819208939"><ele>100.0</ele><time>2026-04-04T06:23:57.999Z</time></trkpt><trkpt lat="42.11094421258423" lon="14.380427735166219"><ele>100.0</ele><time>2026-04-04T06:23:59.999Z</time></trkpt><trkpt lat="42.110944622493335" lon="14.380328102736947"><ele>100.0</ele><time>2026-04-04T06:24:01.999Z</time></trkpt><trkpt lat="42.110946409052765" lon="14.380227755270322"><ele>100.00000000000001</ele><time>2026-04-04T06:24:03.999Z</time></trkpt><trkpt lat="42.11095226121196" lon="14.380128327342618"><ele>100.0</ele><time>2026-04-04T06:24:05.999Z</time></trkpt><trkpt lat="42.11095439348029" lon="14.380022222352078"><ele>100.66666666666667</ele><time>2026-04-04T06:24:07.999Z</time></trkpt><trkpt lat="42.11096012280051" lon="14.379906793603976"><ele>101.33333333333334</ele><time>2026-04-04T06:24:09.998Z</time></trkpt><trkpt lat="42.11096634226641" lon="14.37979082531159"><ele>102.0</ele><time>2026-04-04T06:24:11.998Z</time></trkpt><trkpt lat="42.11096948276252" lon="14.379677441965368"><ele>102.66666666666666</ele><time>2026-04-04T06:24:13.998Z</time></trkpt><trkpt lat="42.11097462453618" lon="14.379573264679484"><ele>103.33333333333333</ele><time>2026-04-04T06:24:15.998Z</time></trkpt><trkpt lat="42.11097724910526" lon="14.379464379557357"><ele>104.0</ele><time>2026-04-04T06:24:17.998Z</time></trkpt><trkpt lat="42.1109838032118" lon="14.379348552551532"><ele>104.16666666666666</ele><time>2026-04-04T06:24:19.998Z</time></trkpt><trkpt lat="42.110992689231765" lon="14.379235077923399"><ele>104.33333333333333</ele><time>2026-04-04T06:24:21.998Z</time></trkpt><trkpt lat="42.111000456968" lon="14.37912266270104"><ele>104.5</ele><time>2026-04-04T06:24:23.998Z</time></trkpt><trkpt lat="42.11100647519184" lon="14.379013587479967"><ele>104.66666666666666</ele><time>2026-04-04T06:24:25.998Z</time></trkpt><trkpt lat="42.11101316504452" lon="14.378904110009493"><ele>104.83333333333333</ele><time>2026-04-04T06:24:27.998Z</time></trkpt><trkpt lat="42.11101739249147" lon="14.378792040013709"><ele>105.0</ele><time>2026-04-04T06:24:29.998Z</time></trkpt><trkpt lat="42.111019033050546" lon="14.378687253427668"><ele>105.0</ele><time>2026-04-04T06:24:32Z</time></trkpt><trkpt lat="42.111023567938105" lon="14.378585904593734"><ele>105.0</ele><time>2026-04-04T06:24:34Z</time></trkpt><trkpt lat="42.111012896071436" lon="14.378483439299119"><ele>105.0</ele><time>2026-04-04T06:24:36Z</time></trkpt><trkpt lat="42.11100567932972" lon="14.378374775323094"><ele>105.0</ele><time>2026-04-04T06:24:38Z</time></trkpt><trkpt lat="42.11099419360998" lon="14.378262588965795"><ele>105.0</ele><time>2026-04-04T06:24:40Z</time></trkpt><trkpt lat="42.1109830018703" lon="14.378144619457721"><ele>105.0</ele><time>2026-04-04T06:24:42Z</time></trkpt><trkpt lat="42.11096806468296" lon="14.378031232433043"><ele>104.16666666666667</ele><time>2026-04-04T06:24:44Z</time></trkpt><trkpt lat="42.11095615610785" lon="14.377918214117061"><ele>103.33333333333334</ele><time>2026-04-04T06:24:46Z</time></trkpt><trkpt lat="42.110934814021924" lon="14.377809535231515"><ele>102.5</ele><time>2026-04-04T06:24:48Z</time></trkpt><trkpt lat="42.110902595005946" lon="14.377713256582947"><ele>101.66666666666667</ele><time>2026-04-04T06:24:50Z</time></trkpt><trkpt lat="42.11087098664602" lon="14.377611953614316"><ele>100.83333333333334</ele><time>2026-04-04T06:24:53Z</time></trkpt><trkpt lat="42.11080209073407" lon="14.377585384694807"><ele>100.0</ele><time>2026-04-04T06:24:56Z</time></trkpt><trkpt lat="42.110749989955586" lon="14.377650610353848"><ele>101.33333333333334</ele><time>2026-04-04T06:24:58Z</time></trkpt><trkpt lat="42.1106929302179" lon="14.377717422593824"><ele>102.66666666666667</ele><time>2026-04-04T06:25:01Z</time></trkpt><trkpt lat="42.11064374276316" lon="14.377655953554727"><ele>104.0</ele><time>2026-04-04T06:25:04Z</time></trkpt><trkpt lat="42.11057889280632" lon="14.377571164004555"><ele>105.33333333333334</ele><time>2026-04-04T06:25:07Z</time></trkpt><trkpt lat="42.11050345575369" lon="14.377506049949044"><ele>106.66666666666667</ele><time>2026-04-04T06:25:10Z</time></trkpt><trkpt lat="42.110455415884616" lon="14.377440057161188"><ele>108.0</ele><time>2026-04-04T06:25:12Z</time></trkpt><trkpt lat="42.110403265233124" lon="14.377379956099585"><ele>108.0</ele><time>2026-04-04T06:25:14Z</time></trkpt><trkpt lat="42.110353081546904" lon="14.377315031587328"><ele>108.0</ele><time>2026-04-04T06:25:16Z</time></trkpt><trkpt lat="42.11029875385014" lon="14.377259519908732"><ele>108.0</ele><time>2026-04-04T06:25:17.999Z</time></trkpt><trkpt lat="42.110245412002584" lon="14.377204540158369"><ele>108.0</ele><time>2026-04-04T06:25:19.999Z</time></trkpt><trkpt lat="42.11019294520902" lon="14.377141786666673"><ele>108.0</ele><time>2026-04-04T06:25:21.999Z</time></trkpt><trkpt lat="42.11014036378669" lon="14.377081973236209"><ele>108.0</ele><time>2026-04-04T06:25:23.999Z</time></trkpt><trkpt lat="42.110088362211926" lon="14.377025358635903"><ele>108.0</ele><time>2026-04-04T06:25:25.999Z</time></trkpt><trkpt lat="42.110033968303625" lon="14.376961941145295"><ele>107.16666666666667</ele><time>2026-04-04T06:25:27.999Z</time></trkpt><trkpt lat="42.10997882837724" lon="14.376901358424385"><ele>106.33333333333334</ele><time>2026-04-04T06:25:29.999Z</time></trkpt><trkpt lat="42.10992047041013" lon="14.376837092243317"><ele>105.5</ele><time>2026-04-04T06:25:31.999Z</time></trkpt><trkpt lat="42.10985899003391" lon="14.376775453219231"><ele>104.66666666666667</ele><time>2026-04-04T06:25:33.999Z</time></trkpt><trkpt lat="42.10979663424141" lon="14.37670564816147"><ele>103.83333333333334</ele><time>2026-04-04T06:25:35.999Z</time></trkpt><trkpt lat="42.10973560784665" lon="14.376638023664396"><ele>103.0</ele><time>2026-04-04T06:25:37.999Z</time></trkpt><trkpt lat="42.10967594401857" lon="14.376569292115661"><ele>103.00000000000001</ele><time>2026-04-04T06:25:39.999Z</time></trkpt><trkpt lat="42.1096133184219" lon="14.376499812463656"><ele>103.0</ele><time>2026-04-04T06:25:41.999Z</time></trkpt><trkpt lat="42.10955094260002" lon="14.376429854364961"><ele>103.0</ele><time>2026-04-04T06:25:43.999Z</time></trkpt><trkpt lat="42.1094854140322" lon="14.376357603777173"><ele>103.0</ele><time>2026-04-04T06:25:45.999Z</time></trkpt><trkpt lat="42.109421597927465" lon="14.376286384580581"><ele>103.00000000000001</ele><time>2026-04-04T06:25:47.999Z</time></trkpt><trkpt lat="42.1093556740657" lon="14.376218968799312"><ele>103.0</ele><time>2026-04-04T06:25:49.999Z</time></trkpt><trkpt lat="42.10929067377183" lon="14.376146222164387"><ele>102.83333333333334</ele><time>2026-04-04T06:25:51.999Z</time></trkpt><trkpt lat="42.10922895863771" lon="14.376076645873441"><ele>102.66666666666667</ele><time>2026-04-04T06:25:53.999Z</time></trkpt><trkpt lat="42.10916668638694" lon="14.376008650102928"><ele>102.5</ele><time>2026-04-04T06:25:55.999Z</time></trkpt><trkpt lat="42.10910230929069" lon="14.375940847773903"><ele>102.33333333333334</ele><time>2026-04-04T06:25:57.999Z</time></trkpt><trkpt lat="42.10904039168237" lon="14.375871707723451"><ele>102.16666666666667</ele><time>2026-04-04T06:25:59.999Z</time></trkpt><trkpt lat="42.10897594325848" lon="14.375802710086704"><ele>102.0</ele><time>2026-04-04T06:26:01.999Z</time></trkpt><trkpt lat="42.10891094232205" lon="14.375730090948426"><ele>102.0</ele><time>2026-04-04T06:26:03.999Z</time></trkpt><trkpt lat="42.10884714657113" lon="14.37566507088055"><ele>102.0</ele><time>2026-04-04T06:26:05.999Z</time></trkpt><trkpt lat="42.1087879180175" lon="14.37559680853677"><ele>102.0</ele><time>2026-04-04T06:26:07.999Z</time></trkpt><trkpt lat="42.10872571602655" lon="14.375533710957903"><ele>102.0</ele><time>2026-04-04T06:26:09.999Z</time></trkpt><trkpt lat="42.108663620699105" lon="14.37546872533856"><ele>102.0</ele><time>2026-04-04T06:26:11.998Z</time></trkpt><trkpt lat="42.10860414706535" lon="14.375403526350206"><ele>102.0</ele><time>2026-04-04T06:26:13.998Z</time></trkpt><trkpt lat="42.10854254344868" lon="14.375340422131119"><ele>102.0</ele><time>2026-04-04T06:26:15.998Z</time></trkpt><trkpt lat="42.10848236440938" lon="14.375271647437676"><ele>102.0</ele><time>2026-04-04T06:26:17.998Z</time></trkpt><trkpt lat="42.108420468236055" lon="14.375207434150768"><ele>102.0</ele><time>2026-04-04T06:26:19.998Z</time></trkpt><trkpt lat="42.10836095372252" lon="14.375145729340167"><ele>102.0</ele><time>2026-04-04T06:26:21.998Z</time></trkpt><trkpt lat="42.10829903292842" lon="14.375084756877897"><ele>102.0</ele><time>2026-04-04T06:26:23.998Z</time></trkpt><trkpt lat="42.10823903869983" lon="14.37501543889766"><ele>102.0</ele><time>2026-04-04T06:26:25.998Z</time></trkpt><trkpt lat="42.10817973801578" lon="14.374953525460617"><ele>102.16666666666667</ele><time>2026-04-04T06:26:27.998Z</time></trkpt><trkpt lat="42.108118522912314" lon="14.3748931406758"><ele>102.33333333333334</ele><time>2026-04-04T06:26:29.998Z</time></trkpt><trkpt lat="42.1080572671811" lon="14.374823611849566"><ele>102.5</ele><time>2026-04-04T06:26:31.998Z</time></trkpt><trkpt lat="42.10799288759692" lon="14.374747592386806"><ele>102.66666666666667</ele><time>2026-04-04T06:26:33.998Z</time></trkpt><trkpt lat="42.10792811084132" lon="14.374680064085712"><ele>102.83333333333334</ele><time>2026-04-04T06:26:35.998Z</time></trkpt><trkpt lat="42.10786498534088" lon="14.374609610656899"><ele>103.0</ele><time>2026-04-04T06:26:38Z</time></trkpt><trkpt lat="42.10780211688203" lon="14.374543588195815"><ele>103.00000000000001</ele><time>2026-04-04T06:26:40Z</time></trkpt><trkpt lat="42.10773954495697" lon="14.374477347797782"><ele>103.0</ele><time>2026-04-04T06:26:42Z</time></trkpt><trkpt lat="42.107677339682674" lon="14.374411903614472"><ele>103.0</ele><time>2026-04-04T06:26:44Z</time></trkpt><trkpt lat="42.107618392290846" lon="14.37434772271688"><ele>103.0</ele><time>2026-04-04T06:26:46Z</time></trkpt><trkpt lat="42.1075654604856" lon="14.37428714165385"><ele>103.00000000000001</ele><time>2026-04-04T06:26:48Z</time></trkpt><trkpt lat="42.1075063741113" lon="14.374241050147857"><ele>103.0</ele><time>2026-04-04T06:26:50Z</time></trkpt><trkpt lat="42.10743976085438" lon="14.374157909447671"><ele>103.16666666666667</ele><time>2026-04-04T06:26:52Z</time></trkpt><trkpt lat="42.10737942635361" lon="14.374090519617242"><ele>103.33333333333334</ele><time>2026-04-04T06:26:54Z</time></trkpt><trkpt lat="42.10731817670402" lon="14.374022426490637"><ele>103.5</ele><time>2026-04-04T06:26:56Z</time></trkpt><trkpt lat="42.10725881724958" lon="14.37395587783784"><ele>103.66666666666666</ele><time>2026-04-04T06:26:58Z</time></trkpt><trkpt lat="42.107198413464936" lon="14.373888339937956"><ele>103.83333333333333</ele><time>2026-04-04T06:27:00Z</time></trkpt><trkpt lat="42.10713672525905" lon="14.373820886325055"><ele>104.0</ele><time>2026-04-04T06:27:02Z</time></trkpt><trkpt lat="42.10707731258044" lon="14.373753242517065"><ele>104.0</ele><time>2026-04-04T06:27:04Z</time></trkpt><trkpt lat="42.10701992098548" lon="14.373687872174179"><ele>104.0</ele><time>2026-04-04T06:27:06Z</time></trkpt><trkpt lat="42.106963230831255" lon="14.37362756847755"><ele>104.0</ele><time>2026-04-04T06:27:08Z</time></trkpt><trkpt lat="42.106903992910226" lon="14.373567634402898"><ele>104.0</ele><time>2026-04-04T06:27:10Z</time></trkpt><trkpt lat="42.10684564963285" lon="14.37350602295634"><ele>104.0</ele><time>2026-04-04T06:27:12Z</time></trkpt><trkpt lat="42.10678886181304" lon="14.373438731032463"><ele>104.0</ele><time>2026-04-04T06:27:14Z</time></trkpt><trkpt lat="42.10672940727406" lon="14.373375570726889"><ele>104.0</ele><time>2026-04-04T06:27:16Z</time></trkpt><trkpt lat="42.106668719116605" lon="14.373309340223985"><ele>104.0</ele><time>2026-04-04T06:27:18Z</time></trkpt><trkpt lat="42.10661116862829" lon="14.373245513140054"><ele>104.0</ele><time>2026-04-04T06:27:20Z</time></trkpt><trkpt lat="42.10655624629116" lon="14.373183966452427"><ele>104.0</ele><time>2026-04-04T06:27:21.999Z</time></trkpt><trkpt lat="42.106501174278534" lon="14.373121780123904"><ele>104.0</ele><time>2026-04-04T06:27:23.999Z</time></trkpt><trkpt lat="42.106446623824894" lon="14.373061202341136"><ele>104.0</ele><time>2026-04-04T06:27:25.999Z</time></trkpt><trkpt lat="42.10639332487369" lon="14.373004080437365"><ele>104.0</ele><time>2026-04-04T06:27:27.999Z</time></trkpt><trkpt lat="42.10634042670435" lon="14.372950291475385"><ele>104.0</ele><time>2026-04-04T06:27:29.999Z</time></trkpt><trkpt lat="42.106288113937815" lon="14.372892729636174"><ele>104.28571428571428</ele><time>2026-04-04T06:27:31.999Z</time></trkpt><trkpt lat="42.10623630317038" lon="14.372843521627848"><ele>104.57142857142858</ele><time>2026-04-04T06:27:33.999Z</time></trkpt><trkpt lat="42.10618568355936" lon="14.37278455733277"><ele>104.85714285714286</ele><time>2026-04-04T06:27:35.999Z</time></trkpt><trkpt lat="42.106133066989095" lon="14.372729027854238"><ele>105.14285714285714</ele><time>2026-04-04T06:27:37.999Z</time></trkpt><trkpt lat="42.10607764698756" lon="14.372676271844766"><ele>105.42857142857142</ele><time>2026-04-04T06:27:39.999Z</time></trkpt><trkpt lat="42.106022470933674" lon="14.37262083739774"><ele>105.71428571428572</ele><time>2026-04-04T06:27:41.999Z</time></trkpt><trkpt lat="42.105967347135085" lon="14.372559130687835"><ele>106.0</ele><time>2026-04-04T06:27:43.999Z</time></trkpt><trkpt lat="42.10591225164823" lon="14.372501503337787"><ele>106.00000000000001</ele><time>2026-04-04T06:27:45.999Z</time></trkpt><trkpt lat="42.10585548477349" lon="14.372438713779763"><ele>106.0</ele><time>2026-04-04T06:27:47.999Z</time></trkpt><trkpt lat="42.10579631739607" lon="14.372376629723915"><ele>106.0</ele><time>2026-04-04T06:27:49.999Z</time></trkpt><trkpt lat="42.10573751035747" lon="14.372305400291628"><ele>106.0</ele><time>2026-04-04T06:27:51.999Z</time></trkpt><trkpt lat="42.10567808826972" lon="14.372235740355109"><ele>106.00000000000001</ele><time>2026-04-04T06:27:53.999Z</time></trkpt><trkpt lat="42.105618378898434" lon="14.37217150423377"><ele>106.0</ele><time>2026-04-04T06:27:55.999Z</time></trkpt><trkpt lat="42.10555736021193" lon="14.372112934788833"><ele>106.33333333333334</ele><time>2026-04-04T06:27:57.999Z</time></trkpt><trkpt lat="42.1054927803538" lon="14.372049648576812"><ele>106.66666666666667</ele><time>2026-04-04T06:27:59.999Z</time></trkpt><trkpt lat="42.105430313351015" lon="14.371992418118728"><ele>107.0</ele><time>2026-04-04T06:28:01.999Z</time></trkpt><trkpt lat="42.10537058559158" lon="14.371926427908097"><ele>107.33333333333334</ele><time>2026-04-04T06:28:03.999Z</time></trkpt><trkpt lat="42.105311813467935" lon="14.37187545568714"><ele>107.66666666666667</ele><time>2026-04-04T06:28:05.999Z</time></trkpt><trkpt lat="42.10526070868514" lon="14.371806150374354"><ele>108.0</ele><time>2026-04-04T06:28:07.999Z</time></trkpt><trkpt lat="42.10520345308156" lon="14.371741711914579"><ele>108.0</ele><time>2026-04-04T06:28:09.999Z</time></trkpt><trkpt lat="42.10514677667074" lon="14.37167867295252"><ele>108.0</ele><time>2026-04-04T06:28:11.999Z</time></trkpt><trkpt lat="42.10508677360651" lon="14.371625194234534"><ele>108.0</ele><time>2026-04-04T06:28:13.999Z</time></trkpt><trkpt lat="42.1050289300101" lon="14.371557359915208"><ele>108.0</ele><time>2026-04-04T06:28:15.998Z</time></trkpt><trkpt lat="42.104969794500725" lon="14.37150088851228"><ele>108.0</ele><time>2026-04-04T06:28:17.998Z</time></trkpt><trkpt lat="42.104911641833496" lon="14.371441545467556"><ele>108.0</ele><time>2026-04-04T06:28:19.998Z</time></trkpt><trkpt lat="42.10484440886523" lon="14.371406605365095"><ele>108.0</ele><time>2026-04-04T06:28:21.998Z</time></trkpt><trkpt lat="42.104794762163486" lon="14.371333268186811"><ele>108.33333333333333</ele><time>2026-04-04T06:28:23.998Z</time></trkpt><trkpt lat="42.10473687736999" lon="14.371267677718892"><ele>108.66666666666666</ele><time>2026-04-04T06:28:25.998Z</time></trkpt><trkpt lat="42.10467957488358" lon="14.371200836578733"><ele>109.0</ele><time>2026-04-04T06:28:27.998Z</time></trkpt><trkpt lat="42.104623749145205" lon="14.371134120962356"><ele>109.33333333333333</ele><time>2026-04-04T06:28:29.998Z</time></trkpt><trkpt lat="42.10456565866317" lon="14.371068893580063"><ele>109.66666666666666</ele><time>2026-04-04T06:28:31.998Z</time></trkpt><trkpt lat="42.10450593439551" lon="14.371001219410534"><ele>110.0</ele><time>2026-04-04T06:28:33.998Z</time></trkpt><trkpt lat="42.10444631586393" lon="14.370932236719769"><ele>109.99999999999999</ele><time>2026-04-04T06:28:35.998Z</time></trkpt><trkpt lat="42.10438522532379" lon="14.370864183386598"><ele>110.0</ele><time>2026-04-04T06:28:37.998Z</time></trkpt><trkpt lat="42.10432779888338" lon="14.37079922777967"><ele>110.0</ele><time>2026-04-04T06:28:39.998Z</time></trkpt><trkpt lat="42.10426716091846" lon="14.3707440548118"><ele>110.0</ele><time>2026-04-04T06:28:41.998Z</time></trkpt><trkpt lat="42.10421067306176" lon="14.370684879149406"><ele>110.0</ele><time>2026-04-04T06:28:44Z</time></trkpt><trkpt lat="42.10415845576146" lon="14.370623684635662"><ele>109.99999999999999</ele><time>2026-04-04T06:28:46Z</time></trkpt><trkpt lat="42.10411021892005" lon="14.370560947892569"><ele>110.0</ele><time>2026-04-04T06:28:48Z</time></trkpt><trkpt lat="42.104054579374534" lon="14.370503635231787"><ele>109.99999999999999</ele><time>2026-04-04T06:28:50Z</time></trkpt><trkpt lat="42.10400572298076" lon="14.370447374152278"><ele>110.0</ele><time>2026-04-04T06:28:52Z</time></trkpt><trkpt lat="42.10395469493797" lon="14.370393588730266"><ele>110.0</ele><time>2026-04-04T06:28:54Z</time></trkpt><trkpt lat="42.10387928114554" lon="14.370316448599134"><ele>110.0</ele><time>2026-04-04T06:28:57Z</time></trkpt><trkpt lat="42.10382403265796" lon="14.370263789497358"><ele>110.0</ele><time>2026-04-04T06:28:59Z</time></trkpt><trkpt lat="42.10376613583995" lon="14.370220512404996"><ele>109.99999999999999</ele><time>2026-04-04T06:29:01Z</time></trkpt><trkpt lat="42.10370557682666" lon="14.370183411453171"><ele>110.0</ele><time>2026-04-04T06:29:03Z</time></trkpt><trkpt lat="42.10363956025242" lon="14.370146320077222"><ele>109.99999999999999</ele><time>2026-04-04T06:29:05Z</time></trkpt><trkpt lat="42.103573314614806" lon="14.37011482887042"><ele>110.0</ele><time>2026-04-04T06:29:07Z</time></trkpt><trkpt lat="42.10350556609016" lon="14.370085179124986"><ele>110.0</ele><time>2026-04-04T06:29:09Z</time></trkpt><trkpt lat="42.103434470599524" lon="14.370058692418121"><ele>110.0</ele><time>2026-04-04T06:29:11Z</time></trkpt><trkpt lat="42.103356456519336" lon="14.370038871578638"><ele>110.0</ele><time>2026-04-04T06:29:13Z</time></trkpt><trkpt lat="42.1032833966591" lon="14.37001507036335"><ele>109.99999999999999</ele><time>2026-04-04T06:29:15Z</time></trkpt><trkpt lat="42.10320711948328" lon="14.369990317259989"><ele>110.0</ele><time>2026-04-04T06:29:17Z</time></trkpt><trkpt lat="42.10312981259744" lon="14.36996509761481"><ele>109.99999999999999</ele><time>2026-04-04T06:29:19Z</time></trkpt><trkpt lat="42.10305424886666" lon="14.369949114351854"><ele>110.0</ele><time>2026-04-04T06:29:21Z</time></trkpt><trkpt lat="42.10297459857545" lon="14.36993062872357"><ele>110.0</ele><time>2026-04-04T06:29:22.999Z</time></trkpt><trkpt lat="42.10289567747821" lon="14.369913121869272"><ele>110.0</ele><time>2026-04-04T06:29:24.999Z</time></trkpt><trkpt lat="42.10281623970671" lon="14.369909040281785"><ele>109.99999999999999</ele><time>2026-04-04T06:29:26.999Z</time></trkpt><trkpt lat="42.10273847925156" lon="14.369901166167283"><ele>110.0</ele><time>2026-04-04T06:29:28.999Z</time></trkpt><trkpt lat="42.10265918761312" lon="14.36988720006086"><ele>109.99999999999999</ele><time>2026-04-04T06:29:30.999Z</time></trkpt><trkpt lat="42.102579514104605" lon="14.369876788658871"><ele>110.0</ele><time>2026-04-04T06:29:32.999Z</time></trkpt><trkpt lat="42.10250266206137" lon="14.369868795495446"><ele>110.0</ele><time>2026-04-04T06:29:34.999Z</time></trkpt><trkpt lat="42.10242316659085" lon="14.369865576803045"><ele>110.0</ele><time>2026-04-04T06:29:36.999Z</time></trkpt><trkpt lat="42.10234655021945" lon="14.36987044619186"><ele>109.99999999999999</ele><time>2026-04-04T06:29:38.999Z</time></trkpt><trkpt lat="42.10226949511554" lon="14.369887466667622"><ele>110.0</ele><time>2026-04-04T06:29:40.999Z</time></trkpt><trkpt lat="42.10219449110002" lon="14.369906950892771"><ele>110.14285714285714</ele><time>2026-04-04T06:29:42.999Z</time></trkpt><trkpt lat="42.10212164796198" lon="14.369938504909308"><ele>110.28571428571428</ele><time>2026-04-04T06:29:44.999Z</time></trkpt><trkpt lat="42.102050480704925" lon="14.36997276805883"><ele>110.42857142857142</ele><time>2026-04-04T06:29:46.999Z</time></trkpt><trkpt lat="42.101980138352666" lon="14.370007822955387"><ele>110.57142857142857</ele><time>2026-04-04T06:29:48.999Z</time></trkpt><trkpt lat="42.10191011386074" lon="14.370047642054363"><ele>110.71428571428572</ele><time>2026-04-04T06:29:50.999Z</time></trkpt><trkpt lat="42.10184071544198" lon="14.370084925445088"><ele>110.85714285714285</ele><time>2026-04-04T06:29:52.999Z</time></trkpt><trkpt lat="42.101778030494785" lon="14.370125873078914"><ele>111.0</ele><time>2026-04-04T06:29:54.999Z</time></trkpt><trkpt lat="42.101705333692976" lon="14.370158987042318"><ele>111.0</ele><time>2026-04-04T06:29:56.999Z</time></trkpt><trkpt lat="42.101635893711226" lon="14.370197112638984"><ele>111.0</ele><time>2026-04-04T06:29:58.999Z</time></trkpt><trkpt lat="42.101569658245246" lon="14.370237870139224"><ele>111.0</ele><time>2026-04-04T06:30:00.999Z</time></trkpt><trkpt lat="42.1014988617287" lon="14.370271105385564"><ele>111.0</ele><time>2026-04-04T06:30:02.999Z</time></trkpt><trkpt lat="42.101427320701696" lon="14.370281085577462"><ele>111.0</ele><time>2026-04-04T06:30:04.999Z</time></trkpt><trkpt lat="42.10135665023798" lon="14.370271549852756"><ele>111.0</ele><time>2026-04-04T06:30:06.999Z</time></trkpt><trkpt lat="42.10128613338622" lon="14.370245113087343"><ele>111.0</ele><time>2026-04-04T06:30:08.999Z</time></trkpt><trkpt lat="42.10122070955611" lon="14.370205819693586"><ele>111.85714285714286</ele><time>2026-04-04T06:30:10.999Z</time></trkpt><trkpt lat="42.101158527301365" lon="14.37015075334695"><ele>112.71428571428572</ele><time>2026-04-04T06:30:12.999Z</time></trkpt><trkpt lat="42.10109812649576" lon="14.370089466498563"><ele>113.57142857142858</ele><time>2026-04-04T06:30:14.999Z</time></trkpt><trkpt lat="42.10104111411727" lon="14.370025799603008"><ele>114.42857142857143</ele><time>2026-04-04T06:30:16.998Z</time></trkpt><trkpt lat="42.10098567306401" lon="14.36996725163465"><ele>115.2857142857143</ele><time>2026-04-04T06:30:18.998Z</time></trkpt><trkpt lat="42.100932193916" lon="14.369907003527688"><ele>116.14285714285715</ele><time>2026-04-04T06:30:20.998Z</time></trkpt><trkpt lat="42.10088078816993" lon="14.369846554973716"><ele>117.0</ele><time>2026-04-04T06:30:22.998Z</time></trkpt><trkpt lat="42.10082989425377" lon="14.369791084384511"><ele>117.0</ele><time>2026-04-04T06:30:24.998Z</time></trkpt><trkpt lat="42.100778597005856" lon="14.369737790930419"><ele>117.00000000000001</ele><time>2026-04-04T06:30:26.998Z</time></trkpt><trkpt lat="42.100727335258966" lon="14.369680296287065"><ele>117.0</ele><time>2026-04-04T06:30:28.998Z</time></trkpt><trkpt lat="42.10067484741198" lon="14.369622418005306"><ele>117.0</ele><time>2026-04-04T06:30:30.998Z</time></trkpt><trkpt lat="42.100620498494806" lon="14.369567702974454"><ele>117.00000000000001</ele><time>2026-04-04T06:30:32.998Z</time></trkpt><trkpt lat="42.1005670536899" lon="14.369510971332586"><ele>117.0</ele><time>2026-04-04T06:30:34.998Z</time></trkpt><trkpt lat="42.100513218510244" lon="14.36944566268953"><ele>117.0</ele><time>2026-04-04T06:30:36.998Z</time></trkpt><trkpt lat="42.10045411370172" lon="14.369385276172233"><ele>117.0</ele><time>2026-04-04T06:30:38.998Z</time></trkpt><trkpt lat="42.10040149560087" lon="14.36933451347161"><ele>117.00000000000001</ele><time>2026-04-04T06:30:40.998Z</time></trkpt><trkpt lat="42.10034169380337" lon="14.369266639463932"><ele>117.0</ele><time>2026-04-04T06:30:42.998Z</time></trkpt><trkpt lat="42.1002821143957" lon="14.369204280484563"><ele>117.0</ele><time>2026-04-04T06:30:44.998Z</time></trkpt><trkpt lat="42.100222821579415" lon="14.369139108283532"><ele>117.00000000000001</ele><time>2026-04-04T06:30:46.998Z</time></trkpt><trkpt lat="42.10016548237553" lon="14.369075578731087"><ele>117.0</ele><time>2026-04-04T06:30:49Z</time></trkpt><trkpt lat="42.10010740264827" lon="14.369005793093141"><ele>117.0</ele><time>2026-04-04T06:30:51Z</time></trkpt><trkpt lat="42.10005644556635" lon="14.368941893414108"><ele>117.0</ele><time>2026-04-04T06:30:53Z</time></trkpt><trkpt lat="42.100004409628035" lon="14.368882179765851"><ele>117.00000000000001</ele><time>2026-04-04T06:30:55Z</time></trkpt><trkpt lat="42.099950099529394" lon="14.368823121075781"><ele>117.0</ele><time>2026-04-04T06:30:57Z</time></trkpt><trkpt lat="42.09989577916928" lon="14.368758583684361"><ele>117.0</ele><time>2026-04-04T06:30:59Z</time></trkpt><trkpt lat="42.099839347233754" lon="14.368698098372343"><ele>117.00000000000001</ele><time>2026-04-04T06:31:01Z</time></trkpt><trkpt lat="42.09978920739192" lon="14.368637713236753"><ele>117.0</ele><time>2026-04-04T06:31:03Z</time></trkpt><trkpt lat="42.099733339770836" lon="14.36857936489858"><ele>117.0</ele><time>2026-04-04T06:31:05Z</time></trkpt><trkpt lat="42.09967504092561" lon="14.368527313967077"><ele>117.0</ele><time>2026-04-04T06:31:07Z</time></trkpt><trkpt lat="42.099611144217285" lon="14.368482577072838"><ele>117.00000000000001</ele><time>2026-04-04T06:31:09Z</time></trkpt><trkpt lat="42.099543417256086" lon="14.368445807161322"><ele>117.0</ele><time>2026-04-04T06:31:11Z</time></trkpt><trkpt lat="42.09947446257838" lon="14.368418783285568"><ele>117.0</ele><time>2026-04-04T06:31:13Z</time></trkpt><trkpt lat="42.09940521851943" lon="14.36840228788498"><ele>117.00000000000001</ele><time>2026-04-04T06:31:15Z</time></trkpt><trkpt lat="42.09933581989295" lon="14.368395412463371"><ele>117.0</ele><time>2026-04-04T06:31:17Z</time></trkpt><trkpt lat="42.09926728351786" lon="14.368398148468405"><ele>117.0</ele><time>2026-04-04T06:31:19Z</time></trkpt><trkpt lat="42.09920041694467" lon="14.368389642609689"><ele>117.0</ele><time>2026-04-04T06:31:21Z</time></trkpt><trkpt lat="42.099130099020655" lon="14.368389049714981"><ele>117.00000000000001</ele><time>2026-04-04T06:31:23Z</time></trkpt><trkpt lat="42.09905918240951" lon="14.368383759686212"><ele>117.0</ele><time>2026-04-04T06:31:25Z</time></trkpt><trkpt lat="42.09898859049311" lon="14.368388382456748"><ele>117.0</ele><time>2026-04-04T06:31:26.999Z</time></trkpt><trkpt lat="42.098919377920765" lon="14.368389996195683"><ele>117.00000000000001</ele><time>2026-04-04T06:31:28.999Z</time></trkpt><trkpt lat="42.098855886154894" lon="14.368374702587523"><ele>117.0</ele><time>2026-04-04T06:31:30.999Z</time></trkpt><trkpt lat="42.098791692626946" lon="14.36835196877307"><ele>117.0</ele><time>2026-04-04T06:31:32.999Z</time></trkpt><trkpt lat="42.09873502914612" lon="14.368306340439117"><ele>116.71428571428572</ele><time>2026-04-04T06:31:34.999Z</time></trkpt><trkpt lat="42.098684400325155" lon="14.368242341211733"><ele>116.42857142857144</ele><time>2026-04-04T06:31:36.999Z</time></trkpt><trkpt lat="42.09864565843606" lon="14.368165056470449"><ele>116.14285714285714</ele><time>2026-04-04T06:31:38.999Z</time></trkpt><trkpt lat="42.09860497656894" lon="14.36809924369096"><ele>115.85714285714286</ele><time>2026-04-04T06:31:40.999Z</time></trkpt><trkpt lat="42.09854760611063" lon="14.368024848494489"><ele>115.57142857142857</ele><time>2026-04-04T06:31:43.999Z</time></trkpt><trkpt lat="42.098477699125624" lon="14.36794112578838"><ele>115.28571428571428</ele><time>2026-04-04T06:31:46.999Z</time></trkpt><trkpt lat="42.09842972171692" lon="14.36787324035881"><ele>114.99999999999999</ele><time>2026-04-04T06:31:48.999Z</time></trkpt><trkpt lat="42.09836485293796" lon="14.367797664301541"><ele>114.99999999999999</ele><time>2026-04-04T06:31:51.999Z</time></trkpt><trkpt lat="42.09830391321648" lon="14.367757064959065"><ele>115.0</ele><time>2026-04-04T06:31:53.999Z</time></trkpt><trkpt lat="42.09824871682131" lon="14.367706241918082"><ele>114.99999999999999</ele><time>2026-04-04T06:31:55.999Z</time></trkpt><trkpt lat="42.09819240102627" lon="14.367655971530782"><ele>114.99999999999999</ele><time>2026-04-04T06:31:57.999Z</time></trkpt><trkpt lat="42.09813257244054" lon="14.367615720822268"><ele>115.0</ele><time>2026-04-04T06:31:59.999Z</time></trkpt><trkpt lat="42.098076680039554" lon="14.367574136344572"><ele>114.99999999999999</ele><time>2026-04-04T06:32:01.999Z</time></trkpt><trkpt lat="42.09801520468098" lon="14.367534517803842"><ele>114.99999999999999</ele><time>2026-04-04T06:32:03.999Z</time></trkpt><trkpt lat="42.09795591884778" lon="14.367494490458645"><ele>116.50000000000001</ele><time>2026-04-04T06:32:05.999Z</time></trkpt><trkpt lat="42.09789885070536" lon="14.367446761995442"><ele>118.0</ele><time>2026-04-04T06:32:07.999Z</time></trkpt><trkpt lat="42.097809347639256" lon="14.36740024485788"><ele>119.5</ele><time>2026-04-04T06:32:10.999Z</time></trkpt><trkpt lat="42.09774765228823" lon="14.367370982926246"><ele>121.0</ele><time>2026-04-04T06:32:12.999Z</time></trkpt><trkpt lat="42.09768609865859" lon="14.367349345891652"><ele>122.50000000000001</ele><time>2026-04-04T06:32:14.999Z</time></trkpt><trkpt lat="42.097596842914385" lon="14.367327765023667"><ele>124.0</ele><time>2026-04-04T06:32:17.999Z</time></trkpt><trkpt lat="42.097505696960454" lon="14.36732139468944"><ele>124.66666666666667</ele><time>2026-04-04T06:32:20.998Z</time></trkpt><trkpt lat="42.09741318720338" lon="14.367329439313236"><ele>125.33333333333334</ele><time>2026-04-04T06:32:23.998Z</time></trkpt><trkpt lat="42.097320002338705" lon="14.367340111670716"><ele>126.0</ele><time>2026-04-04T06:32:26.998Z</time></trkpt><trkpt lat="42.09722953938833" lon="14.367343046444809"><ele>126.66666666666666</ele><time>2026-04-04T06:32:29.998Z</time></trkpt><trkpt lat="42.09716662562349" lon="14.367350774295193"><ele>127.33333333333333</ele><time>2026-04-04T06:32:31.998Z</time></trkpt><trkpt lat="42.09707942709231" lon="14.367359546595734"><ele>128.0</ele><time>2026-04-04T06:32:34.998Z</time></trkpt><trkpt lat="42.09698940187849" lon="14.36737155358334"><ele>128.0</ele><time>2026-04-04T06:32:37.998Z</time></trkpt><trkpt lat="42.096926288978025" lon="14.367373111579257"><ele>127.99999999999999</ele><time>2026-04-04T06:32:39.998Z</time></trkpt><trkpt lat="42.09686273796326" lon="14.367369367869946"><ele>128.0</ele><time>2026-04-04T06:32:41.998Z</time></trkpt><trkpt lat="42.096796579702904" lon="14.367360888247214"><ele>128.0</ele><time>2026-04-04T06:32:43.998Z</time></trkpt><trkpt lat="42.096730957764535" lon="14.367345184018765"><ele>127.99999999999999</ele><time>2026-04-04T06:32:45.998Z</time></trkpt><trkpt lat="42.096666427705046" lon="14.367324537845942"><ele>128.0</ele><time>2026-04-04T06:32:47.998Z</time></trkpt><trkpt lat="42.0966015112202" lon="14.367306970552491"><ele>128.0</ele><time>2026-04-04T06:32:49.998Z</time></trkpt><trkpt lat="42.096535406426455" lon="14.367281404688697"><ele>127.85714285714285</ele><time>2026-04-04T06:32:51.998Z</time></trkpt><trkpt lat="42.09647460077096" lon="14.367240141465604"><ele>127.7142857142857</ele><time>2026-04-04T06:32:53.998Z</time></trkpt><trkpt lat="42.09641190359068" lon="14.367190907646233"><ele>127.57142857142857</ele><time>2026-04-04T06:32:56Z</time></trkpt><trkpt lat="42.09635633632394" lon="14.36713251379144"><ele>127.42857142857142</ele><time>2026-04-04T06:32:58Z</time></trkpt><trkpt lat="42.096310263674425" lon="14.367068619430055"><ele>127.28571428571428</ele><time>2026-04-04T06:33:00Z</time></trkpt><trkpt lat="42.09627473015178" lon="14.366988326644815"><ele>127.14285714285714</ele><time>2026-04-04T06:33:02Z</time></trkpt><trkpt lat="42.096233612669955" lon="14.366911894594036"><ele>127.0</ele><time>2026-04-04T06:33:04Z</time></trkpt><trkpt lat="42.096192580763976" lon="14.366840316846032"><ele>127.0</ele><time>2026-04-04T06:33:06Z</time></trkpt><trkpt lat="42.096152161810295" lon="14.366760814244062"><ele>127.0</ele><time>2026-04-04T06:33:08Z</time></trkpt><trkpt lat="42.09611042409304" lon="14.366687270600632"><ele>127.0</ele><time>2026-04-04T06:33:10Z</time></trkpt><trkpt lat="42.09606212579643" lon="14.366625168340924"><ele>127.0</ele><time>2026-04-04T06:33:12Z</time></trkpt><trkpt lat="42.096013290520006" lon="14.366559407598684"><ele>127.0</ele><time>2026-04-04T06:33:14Z</time></trkpt><trkpt lat="42.09595471091945" lon="14.36651187165609"><ele>127.0</ele><time>2026-04-04T06:33:16Z</time></trkpt><trkpt lat="42.09588880032845" lon="14.366477334420717"><ele>127.0</ele><time>2026-04-04T06:33:18Z</time></trkpt><trkpt lat="42.09582387486354" lon="14.36645237974269"><ele>127.0</ele><time>2026-04-04T06:33:20Z</time></trkpt><trkpt lat="42.09575596124406" lon="14.366426487780469"><ele>127.0</ele><time>2026-04-04T06:33:22Z</time></trkpt><trkpt lat="42.09568595546865" lon="14.366405730241858"><ele>127.0</ele><time>2026-04-04T06:33:24Z</time></trkpt><trkpt lat="42.095612949895106" lon="14.3663778405915"><ele>127.0</ele><time>2026-04-04T06:33:26Z</time></trkpt><trkpt lat="42.095545103854676" lon="14.3663495798134"><ele>127.0</ele><time>2026-04-04T06:33:28Z</time></trkpt><trkpt lat="42.09548088985742" lon="14.366309930579057"><ele>127.0</ele><time>2026-04-04T06:33:29.999Z</time></trkpt><trkpt lat="42.09542371087143" lon="14.366253174886525"><ele>127.0</ele><time>2026-04-04T06:33:31.999Z</time></trkpt><trkpt lat="42.095370810839455" lon="14.366188672180469"><ele>127.57142857142858</ele><time>2026-04-04T06:33:33.999Z</time></trkpt><trkpt lat="42.09532433022209" lon="14.366118697940337"><ele>128.14285714285714</ele><time>2026-04-04T06:33:35.999Z</time></trkpt><trkpt lat="42.09528843948901" lon="14.36604342130032"><ele>128.71428571428572</ele><time>2026-04-04T06:33:37.999Z</time></trkpt><trkpt lat="42.095250536336295" lon="14.365965164897645"><ele>129.28571428571428</ele><time>2026-04-04T06:33:39.999Z</time></trkpt><trkpt lat="42.09520438283127" lon="14.36589199163041"><ele>129.85714285714286</ele><time>2026-04-04T06:33:41.999Z</time></trkpt><trkpt lat="42.09515139616101" lon="14.365832817553395"><ele>130.42857142857144</ele><time>2026-04-04T06:33:43.999Z</time></trkpt><trkpt lat="42.09508873820558" lon="14.365785017504386"><ele>131.0</ele><time>2026-04-04T06:33:45.999Z</time></trkpt><trkpt lat="42.09502498697009" lon="14.365753233282312"><ele>131.0</ele><time>2026-04-04T06:33:47.999Z</time></trkpt><trkpt lat="42.09495870683615" lon="14.365726429430756"><ele>131.0</ele><time>2026-04-04T06:33:49.999Z</time></trkpt><trkpt lat="42.094888277851624" lon="14.365703227382934"><ele>131.0</ele><time>2026-04-04T06:33:51.999Z</time></trkpt><trkpt lat="42.09481943950041" lon="14.365681715577514"><ele>131.0</ele><time>2026-04-04T06:33:53.999Z</time></trkpt><trkpt lat="42.09475396406804" lon="14.365657448612499"><ele>131.0</ele><time>2026-04-04T06:33:55.999Z</time></trkpt><trkpt lat="42.094687422303096" lon="14.365626074577085"><ele>131.0</ele><time>2026-04-04T06:33:57.999Z</time></trkpt><trkpt lat="42.09462224967036" lon="14.365589677996969"><ele>131.0</ele><time>2026-04-04T06:33:59.999Z</time></trkpt><trkpt lat="42.09456125155511" lon="14.365553013055141"><ele>131.42857142857144</ele><time>2026-04-04T06:34:01.999Z</time></trkpt><trkpt lat="42.094503167550876" lon="14.365498565031668"><ele>131.85714285714286</ele><time>2026-04-04T06:34:03.999Z</time></trkpt><trkpt lat="42.09444934072101" lon="14.365438408996342"><ele>132.28571428571428</ele><time>2026-04-04T06:34:05.999Z</time></trkpt><trkpt lat="42.09439688420154" lon="14.3653775036195"><ele>132.71428571428572</ele><time>2026-04-04T06:34:07.999Z</time></trkpt><trkpt lat="42.09434474525083" lon="14.36531590489687"><ele>133.14285714285714</ele><time>2026-04-04T06:34:09.999Z</time></trkpt><trkpt lat="42.09429047519657" lon="14.365257321425583"><ele>133.57142857142858</ele><time>2026-04-04T06:34:11.999Z</time></trkpt><trkpt lat="42.09423664144595" lon="14.36518981453142"><ele>134.0</ele><time>2026-04-04T06:34:13.999Z</time></trkpt><trkpt lat="42.09417802424274" lon="14.365123093261108"><ele>134.0</ele><time>2026-04-04T06:34:15.999Z</time></trkpt><trkpt lat="42.0941197815808" lon="14.365053197268539"><ele>134.0</ele><time>2026-04-04T06:34:17.999Z</time></trkpt><trkpt lat="42.09406332302553" lon="14.364986931212865"><ele>134.0</ele><time>2026-04-04T06:34:19.999Z</time></trkpt><trkpt lat="42.09400722101203" lon="14.364918844432774"><ele>134.0</ele><time>2026-04-04T06:34:21.999Z</time></trkpt><trkpt lat="42.0939503299336" lon="14.364854758753964"><ele>134.0</ele><time>2026-04-04T06:34:23.998Z</time></trkpt><trkpt lat="42.093894726641494" lon="14.364790800265789"><ele>134.0</ele><time>2026-04-04T06:34:25.998Z</time></trkpt><trkpt lat="42.093841253100564" lon="14.364720000305807"><ele>134.5</ele><time>2026-04-04T06:34:27.998Z</time></trkpt><trkpt lat="42.0937806363911" lon="14.364657292391362"><ele>135.0</ele><time>2026-04-04T06:34:29.998Z</time></trkpt><trkpt lat="42.09372310234185" lon="14.364595742378162"><ele>135.5</ele><time>2026-04-04T06:34:31.998Z</time></trkpt><trkpt lat="42.09366228537845" lon="14.364531365309494"><ele>136.0</ele><time>2026-04-04T06:34:33.998Z</time></trkpt><trkpt lat="42.09360362757406" lon="14.36445856632679"><ele>136.5</ele><time>2026-04-04T06:34:35.998Z</time></trkpt><trkpt lat="42.093553056697964" lon="14.364380146009783"><ele>137.0</ele><time>2026-04-04T06:34:37.998Z</time></trkpt><trkpt lat="42.09349519367128" lon="14.364314751111547"><ele>137.0</ele><time>2026-04-04T06:34:39.998Z</time></trkpt><trkpt lat="42.09343599047597" lon="14.364245103028152"><ele>137.0</ele><time>2026-04-04T06:34:41.998Z</time></trkpt><trkpt lat="42.093378682527536" lon="14.36416971383306"><ele>137.0</ele><time>2026-04-04T06:34:43.998Z</time></trkpt><trkpt lat="42.09332059580153" lon="14.364102817966938"><ele>137.0</ele><time>2026-04-04T06:34:45.998Z</time></trkpt><trkpt lat="42.09326280292342" lon="14.36403246732569"><ele>137.0</ele><time>2026-04-04T06:34:47.998Z</time></trkpt><trkpt lat="42.093200881844446" lon="14.36395790230475"><ele>137.0</ele><time>2026-04-04T06:34:49.998Z</time></trkpt><trkpt lat="42.09313882472796" lon="14.363890634337578"><ele>137.16666666666666</ele><time>2026-04-04T06:34:51.998Z</time></trkpt><trkpt lat="42.0930800520827" lon="14.363822399679034"><ele>137.33333333333331</ele><time>2026-04-04T06:34:53.998Z</time></trkpt><trkpt lat="42.09302177821055" lon="14.363750873539662"><ele>137.5</ele><time>2026-04-04T06:34:55.998Z</time></trkpt><trkpt lat="42.09296358947797" lon="14.363685301112943"><ele>137.66666666666666</ele><time>2026-04-04T06:34:57.998Z</time></trkpt><trkpt lat="42.09290646953249" lon="14.363624489157267"><ele>137.83333333333334</ele><time>2026-04-04T06:34:59.998Z</time></trkpt><trkpt lat="42.09286009800634" lon="14.36355193354173"><ele>138.0</ele><time>2026-04-04T06:35:02Z</time></trkpt><trkpt lat="42.092799555648035" lon="14.363454733984584"><ele>138.0</ele><time>2026-04-04T06:35:04Z</time></trkpt><trkpt lat="42.09274861004101" lon="14.363362905400505"><ele>138.0</ele><time>2026-04-04T06:35:06Z</time></trkpt><trkpt lat="42.09269946744994" lon="14.363271007619211"><ele>138.0</ele><time>2026-04-04T06:35:08Z</time></trkpt><trkpt lat="42.09265664226639" lon="14.363179126009795"><ele>138.0</ele><time>2026-04-04T06:35:10Z</time></trkpt><trkpt lat="42.09261329664295" lon="14.363073221825918"><ele>138.0</ele><time>2026-04-04T06:35:12Z</time></trkpt><trkpt lat="42.09257543756024" lon="14.362971035059282"><ele>138.0</ele><time>2026-04-04T06:35:14Z</time></trkpt><trkpt lat="42.0925399240194" lon="14.362870180445348"><ele>137.0</ele><time>2026-04-04T06:35:16Z</time></trkpt><trkpt lat="42.09251022647592" lon="14.362766101511756"><ele>136.0</ele><time>2026-04-04T06:35:18Z</time></trkpt><trkpt lat="42.09247953280866" lon="14.362661894797624"><ele>135.0</ele><time>2026-04-04T06:35:20Z</time></trkpt><trkpt lat="42.092447411951014" lon="14.362558563463741"><ele>134.0</ele><time>2026-04-04T06:35:22Z</time></trkpt><trkpt lat="42.09241231922706" lon="14.362459765516817"><ele>133.0</ele><time>2026-04-04T06:35:24Z</time></trkpt><trkpt lat="42.09237215544268" lon="14.362388520607182"><ele>132.0</ele><time>2026-04-04T06:35:26Z</time></trkpt><trkpt lat="42.09232061615367" lon="14.362299940845812"><ele>133.16666666666666</ele><time>2026-04-04T06:35:28Z</time></trkpt><trkpt lat="42.092261689042516" lon="14.362228471147084"><ele>134.33333333333334</ele><time>2026-04-04T06:35:30Z</time></trkpt><trkpt lat="42.09219260037351" lon="14.362168430330529"><ele>135.5</ele><time>2026-04-04T06:35:31.999Z</time></trkpt><trkpt lat="42.092119704027134" lon="14.362115751449622"><ele>136.66666666666669</ele><time>2026-04-04T06:35:33.999Z</time></trkpt><trkpt lat="42.092064345389474" lon="14.362069036515866"><ele>137.83333333333334</ele><time>2026-04-04T06:35:35.999Z</time></trkpt><trkpt lat="42.091983106588366" lon="14.362007595854577"><ele>139.0</ele><time>2026-04-04T06:35:37.999Z</time></trkpt><trkpt lat="42.09191434956665" lon="14.361944649468757"><ele>139.0</ele><time>2026-04-04T06:35:39.999Z</time></trkpt><trkpt lat="42.09184446130656" lon="14.361873454287613"><ele>139.0</ele><time>2026-04-04T06:35:41.999Z</time></trkpt><trkpt lat="42.09178148732094" lon="14.361800618217838"><ele>139.0</ele><time>2026-04-04T06:35:43.999Z</time></trkpt><trkpt lat="42.09170225714378" lon="14.361730377967474"><ele>139.0</ele><time>2026-04-04T06:35:45.999Z</time></trkpt><trkpt lat="42.09164516877757" lon="14.36164536993113"><ele>139.0</ele><time>2026-04-04T06:35:47.999Z</time></trkpt><trkpt lat="42.09160089740754" lon="14.361562607652994"><ele>139.0</ele><time>2026-04-04T06:35:49.999Z</time></trkpt><trkpt lat="42.091555908086754" lon="14.361476643369226"><ele>139.66666666666669</ele><time>2026-04-04T06:35:51.999Z</time></trkpt><trkpt lat="42.09151095235872" lon="14.361390174298652"><ele>140.33333333333334</ele><time>2026-04-04T06:35:53.999Z</time></trkpt><trkpt lat="42.091463743793085" lon="14.36128859872254"><ele>141.0</ele><time>2026-04-04T06:35:55.999Z</time></trkpt><trkpt lat="42.09142017810648" lon="14.361225688366305"><ele>141.66666666666666</ele><time>2026-04-04T06:35:58.999Z</time></trkpt><trkpt lat="42.09137309770699" lon="14.361149763160924"><ele>142.33333333333331</ele><time>2026-04-04T06:36:00.999Z</time></trkpt><trkpt lat="42.0913180498827" lon="14.361037381688515"><ele>143.0</ele><time>2026-04-04T06:36:02.999Z</time></trkpt><trkpt lat="42.09127287450455" lon="14.360918739754583"><ele>143.0</ele><time>2026-04-04T06:36:04.999Z</time></trkpt><trkpt lat="42.09123149138482" lon="14.360802613536432"><ele>143.0</ele><time>2026-04-04T06:36:06.999Z</time></trkpt><trkpt lat="42.091178336148495" lon="14.360702161563752"><ele>143.0</ele><time>2026-04-04T06:36:08.999Z</time></trkpt><trkpt lat="42.09111905379276" lon="14.36060386690357"><ele>143.0</ele><time>2026-04-04T06:36:10.999Z</time></trkpt><trkpt lat="42.09104557500889" lon="14.360514892858408"><ele>143.0</ele><time>2026-04-04T06:36:12.999Z</time></trkpt><trkpt lat="42.09096251081772" lon="14.360455584666568"><ele>141.6</ele><time>2026-04-04T06:36:14.999Z</time></trkpt><trkpt lat="42.09087256746896" lon="14.360426636877287"><ele>140.20000000000002</ele><time>2026-04-04T06:36:16.999Z</time></trkpt><trkpt lat="42.090779956981464" lon="14.360409027859225"><ele>138.8</ele><time>2026-04-04T06:36:18.999Z</time></trkpt><trkpt lat="42.09068413177269" lon="14.360406044848451"><ele>137.4</ele><time>2026-04-04T06:36:20.999Z</time></trkpt><trkpt lat="42.090591118346246" lon="14.360388889293446"><ele>136.0</ele><time>2026-04-04T06:36:22.999Z</time></trkpt><trkpt lat="42.09050954286112" lon="14.360337419180285"><ele>136.0</ele><time>2026-04-04T06:36:24.999Z</time></trkpt><trkpt lat="42.09044357157781" lon="14.360252818314626"><ele>136.0</ele><time>2026-04-04T06:36:26.998Z</time></trkpt><trkpt lat="42.090378756649535" lon="14.360172393344051"><ele>136.0</ele><time>2026-04-04T06:36:28.998Z</time></trkpt><trkpt lat="42.09031612340104" lon="14.360094177722596"><ele>136.0</ele><time>2026-04-04T06:36:30.998Z</time></trkpt><trkpt lat="42.09025413300263" lon="14.360016784796134"><ele>136.0</ele><time>2026-04-04T06:36:32.998Z</time></trkpt><trkpt lat="42.09018824156542" lon="14.35993999109408"><ele>136.0</ele><time>2026-04-04T06:36:34.998Z</time></trkpt><trkpt lat="42.090126057925794" lon="14.359858979618053"><ele>136.0</ele><time>2026-04-04T06:36:36.998Z</time></trkpt><trkpt lat="42.090062475719385" lon="14.359779415849209"><ele>136.0</ele><time>2026-04-04T06:36:38.998Z</time></trkpt><trkpt lat="42.0899969005456" lon="14.359697505593816"><ele>136.0</ele><time>2026-04-04T06:36:40.998Z</time></trkpt><trkpt lat="42.08993345775471" lon="14.359612776304903"><ele>136.0</ele><time>2026-04-04T06:36:42.998Z</time></trkpt><trkpt lat="42.08987313201355" lon="14.359525303658556"><ele>136.0</ele><time>2026-04-04T06:36:44.998Z</time></trkpt><trkpt lat="42.089820169042916" lon="14.359433304485048"><ele>136.0</ele><time>2026-04-04T06:36:46.998Z</time></trkpt><trkpt lat="42.08977594918152" lon="14.359338335864514"><ele>137.0</ele><time>2026-04-04T06:36:48.998Z</time></trkpt><trkpt lat="42.08973397768698" lon="14.359248973219168"><ele>138.0</ele><time>2026-04-04T06:36:50.998Z</time></trkpt><trkpt lat="42.089686934847435" lon="14.359150349337643"><ele>139.0</ele><time>2026-04-04T06:36:52.998Z</time></trkpt><trkpt lat="42.089647305438085" lon="14.359044808526587"><ele>140.0</ele><time>2026-04-04T06:36:54.998Z</time></trkpt><trkpt lat="42.08960536265549" lon="14.358950880924594"><ele>141.0</ele><time>2026-04-04T06:36:56.998Z</time></trkpt><trkpt lat="42.08956538716067" lon="14.358854435106227"><ele>142.0</ele><time>2026-04-04T06:36:58.998Z</time></trkpt><trkpt lat="42.08952623835513" lon="14.358753451546926"><ele>142.0</ele><time>2026-04-04T06:37:00.998Z</time></trkpt><trkpt lat="42.08948378878685" lon="14.358659104467186"><ele>142.0</ele><time>2026-04-04T06:37:02.998Z</time></trkpt><trkpt lat="42.089442094434276" lon="14.35856570713689"><ele>142.0</ele><time>2026-04-04T06:37:04.998Z</time></trkpt><trkpt lat="42.08940480275688" lon="14.358467269959268"><ele>142.0</ele><time>2026-04-04T06:37:07Z</time></trkpt><trkpt lat="42.08936078042233" lon="14.35837677118479"><ele>142.0</ele><time>2026-04-04T06:37:09Z</time></trkpt><trkpt lat="42.089321732532255" lon="14.358282574188792"><ele>142.0</ele><time>2026-04-04T06:37:11Z</time></trkpt><trkpt lat="42.089282863921575" lon="14.358187836138162"><ele>142.0</ele><time>2026-04-04T06:37:13Z</time></trkpt><trkpt lat="42.08924144500924" lon="14.358090064178059"><ele>142.0</ele><time>2026-04-04T06:37:15Z</time></trkpt><trkpt lat="42.0892013541489" lon="14.357988149414275"><ele>142.0</ele><time>2026-04-04T06:37:17Z</time></trkpt><trkpt lat="42.089165562864615" lon="14.357888802137635"><ele>142.0</ele><time>2026-04-04T06:37:19Z</time></trkpt><trkpt lat="42.08912469093627" lon="14.357794608080942"><ele>142.0</ele><time>2026-04-04T06:37:21Z</time></trkpt><trkpt lat="42.0890982616676" lon="14.357689680839227"><ele>142.0</ele><time>2026-04-04T06:37:23Z</time></trkpt><trkpt lat="42.0890824246046" lon="14.357581044121748"><ele>141.5</ele><time>2026-04-04T06:37:25Z</time></trkpt><trkpt lat="42.08908245598935" lon="14.357471073741955"><ele>141.0</ele><time>2026-04-04T06:37:27Z</time></trkpt><trkpt lat="42.08909328055828" lon="14.357363551203198"><ele>140.5</ele><time>2026-04-04T06:37:29Z</time></trkpt><trkpt lat="42.08910759324815" lon="14.357258328287687"><ele>140.0</ele><time>2026-04-04T06:37:31Z</time></trkpt><trkpt lat="42.08912488193831" lon="14.35710432120435"><ele>139.5</ele><time>2026-04-04T06:37:34Z</time></trkpt><trkpt lat="42.08912794464226" lon="14.356991702450953"><ele>139.0</ele><time>2026-04-04T06:37:35.999Z</time></trkpt><trkpt lat="42.089122798828626" lon="14.35690501790532"><ele>139.33333333333334</ele><time>2026-04-04T06:37:37.999Z</time></trkpt><trkpt lat="42.089107794522924" lon="14.356781127573251"><ele>139.66666666666669</ele><time>2026-04-04T06:37:39.999Z</time></trkpt><trkpt lat="42.089090678482535" lon="14.35668344977102"><ele>140.0</ele><time>2026-04-04T06:37:41.999Z</time></trkpt><trkpt lat="42.089059358501004" lon="14.356571736831903"><ele>140.33333333333334</ele><time>2026-04-04T06:37:43.999Z</time></trkpt><trkpt lat="42.089018730122476" lon="14.356467132080112"><ele>140.66666666666666</ele><time>2026-04-04T06:37:45.999Z</time></trkpt><trkpt lat="42.08897557241453" lon="14.356371968634635"><ele>141.0</ele><time>2026-04-04T06:37:47.999Z</time></trkpt><trkpt lat="42.08892232611908" lon="14.356291652071533"><ele>141.0</ele><time>2026-04-04T06:37:49.999Z</time></trkpt><trkpt lat="42.08886370336648" lon="14.356214630793161"><ele>141.0</ele><time>2026-04-04T06:37:51.999Z</time></trkpt><trkpt lat="42.08880263283472" lon="14.356135794287438"><ele>141.0</ele><time>2026-04-04T06:37:53.999Z</time></trkpt><trkpt lat="42.088741423776995" lon="14.356056512016382"><ele>141.0</ele><time>2026-04-04T06:37:55.999Z</time></trkpt><trkpt lat="42.08868046655231" lon="14.355973339636995"><ele>141.0</ele><time>2026-04-04T06:37:57.999Z</time></trkpt><trkpt lat="42.08861772531141" lon="14.355893031036166"><ele>141.0</ele><time>2026-04-04T06:37:59.999Z</time></trkpt><trkpt lat="42.088561587021566" lon="14.355813966984448"><ele>141.0</ele><time>2026-04-04T06:38:01.999Z</time></trkpt><trkpt lat="42.088501296405205" lon="14.355750857539755"><ele>141.0</ele><time>2026-04-04T06:38:03.999Z</time></trkpt><trkpt lat="42.088437907925915" lon="14.355691115497073"><ele>141.0</ele><time>2026-04-04T06:38:05.999Z</time></trkpt><trkpt lat="42.088371119616156" lon="14.355650340282095"><ele>141.0</ele><time>2026-04-04T06:38:07.999Z</time></trkpt><trkpt lat="42.08829930780327" lon="14.355609960992938"><ele>141.0</ele><time>2026-04-04T06:38:09.999Z</time></trkpt><trkpt lat="42.088227695434256" lon="14.35557944468167"><ele>141.0</ele><time>2026-04-04T06:38:11.999Z</time></trkpt><trkpt lat="42.088154614274124" lon="14.355550922272348"><ele>138.33333333333334</ele><time>2026-04-04T06:38:13.999Z</time></trkpt><trkpt lat="42.08807290986525" lon="14.35552560882004"><ele>135.66666666666666</ele><time>2026-04-04T06:38:15.999Z</time></trkpt><trkpt lat="42.08799667654928" lon="14.355507637042523"><ele>133.0</ele><time>2026-04-04T06:38:17.999Z</time></trkpt><trkpt lat="42.08792231371822" lon="14.355491533953911"><ele>130.33333333333331</ele><time>2026-04-04T06:38:19.999Z</time></trkpt><trkpt lat="42.087848648340724" lon="14.355488940759594"><ele>127.66666666666666</ele><time>2026-04-04T06:38:21.999Z</time></trkpt><trkpt lat="42.08777251299968" lon="14.35547991236523"><ele>125.0</ele><time>2026-04-04T06:38:23.999Z</time></trkpt><trkpt lat="42.08769396270288" lon="14.355488841655752"><ele>124.99999999999999</ele><time>2026-04-04T06:38:25.999Z</time></trkpt><trkpt lat="42.08761539665648" lon="14.355510675098557"><ele>125.0</ele><time>2026-04-04T06:38:27.999Z</time></trkpt><trkpt lat="42.08753941667537" lon="14.355542501308785"><ele>125.0</ele><time>2026-04-04T06:38:29.998Z</time></trkpt><trkpt lat="42.08746565788203" lon="14.355585738491708"><ele>125.0</ele><time>2026-04-04T06:38:31.998Z</time></trkpt><trkpt lat="42.08739620271424" lon="14.355641431599903"><ele>124.99999999999999</ele><time>2026-04-04T06:38:33.998Z</time></trkpt><trkpt lat="42.08732512915454" lon="14.355702770465808"><ele>125.0</ele><time>2026-04-04T06:38:35.998Z</time></trkpt><trkpt lat="42.08725313082648" lon="14.355755363863162"><ele>126.83333333333333</ele><time>2026-04-04T06:38:37.998Z</time></trkpt><trkpt lat="42.08718257830773" lon="14.355818057590298"><ele>128.66666666666666</ele><time>2026-04-04T06:38:39.998Z</time></trkpt><trkpt lat="42.08711329081826" lon="14.355881213917167"><ele>130.5</ele><time>2026-04-04T06:38:41.998Z</time></trkpt><trkpt lat="42.0870418419074" lon="14.355941889652817"><ele>132.33333333333334</ele><time>2026-04-04T06:38:43.998Z</time></trkpt><trkpt lat="42.08697197185811" lon="14.35600722260083"><ele>134.16666666666669</ele><time>2026-04-04T06:38:45.998Z</time></trkpt><trkpt lat="42.086905308697716" lon="14.35606877662636"><ele>136.0</ele><time>2026-04-04T06:38:47.998Z</time></trkpt><trkpt lat="42.086827670129246" lon="14.356123084515477"><ele>136.0</ele><time>2026-04-04T06:38:49.998Z</time></trkpt><trkpt lat="42.086745981932204" lon="14.356167301727933"><ele>136.0</ele><time>2026-04-04T06:38:51.998Z</time></trkpt><trkpt lat="42.0866589175621" lon="14.356196737228347"><ele>136.0</ele><time>2026-04-04T06:38:53.998Z</time></trkpt><trkpt lat="42.08657129026984" lon="14.356207385119276"><ele>136.0</ele><time>2026-04-04T06:38:55.998Z</time></trkpt><trkpt lat="42.08647847159025" lon="14.35620472049833"><ele>136.0</ele><time>2026-04-04T06:38:57.998Z</time></trkpt><trkpt lat="42.08638910891108" lon="14.356175485892626"><ele>135.83333333333334</ele><time>2026-04-04T06:38:59.998Z</time></trkpt><trkpt lat="42.08629863313856" lon="14.356140737858784"><ele>135.66666666666669</ele><time>2026-04-04T06:39:01.998Z</time></trkpt><trkpt lat="42.08621925124602" lon="14.356104092124912"><ele>135.5</ele><time>2026-04-04T06:39:03.998Z</time></trkpt><trkpt lat="42.08613901033442" lon="14.356069103298406"><ele>135.33333333333334</ele><time>2026-04-04T06:39:05.998Z</time></trkpt><trkpt lat="42.08605122011967" lon="14.356037733656276"><ele>135.16666666666666</ele><time>2026-04-04T06:39:07.998Z</time></trkpt><trkpt lat="42.08596826146771" lon="14.356006566424544"><ele>135.0</ele><time>2026-04-04T06:39:09.998Z</time></trkpt><trkpt lat="42.08585018679823" lon="14.355959020167434"><ele>135.0</ele><time>2026-04-04T06:39:13Z</time></trkpt><trkpt lat="42.08577315576954" lon="14.35592854447017"><ele>135.0</ele><time>2026-04-04T06:39:16Z</time></trkpt><trkpt lat="42.085643718192316" lon="14.355879188055578"><ele>135.0</ele><time>2026-04-04T06:39:17Z</time></trkpt><trkpt lat="42.08555751076742" lon="14.35584773761816"><ele>135.0</ele><time>2026-04-04T06:39:19Z</time></trkpt><trkpt lat="42.085469683104854" lon="14.355828217824174"><ele>135.0</ele><time>2026-04-04T06:39:21Z</time></trkpt><trkpt lat="42.08538285349953" lon="14.35580968594292"><ele>136.2</ele><time>2026-04-04T06:39:23Z</time></trkpt><trkpt lat="42.08529758053274" lon="14.355783129732584"><ele>137.4</ele><time>2026-04-04T06:39:25Z</time></trkpt><trkpt lat="42.08520260243751" lon="14.355762174456673"><ele>138.6</ele><time>2026-04-04T06:39:27Z</time></trkpt><trkpt lat="42.08511208537691" lon="14.35573875020576"><ele>139.8</ele><time>2026-04-04T06:39:29Z</time></trkpt><trkpt lat="42.08502500564519" lon="14.355717396063552"><ele>141.0</ele><time>2026-04-04T06:39:31Z</time></trkpt><trkpt lat="42.08493985375038" lon="14.355692770020939"><ele>140.0</ele><time>2026-04-04T06:39:33Z</time></trkpt><trkpt lat="42.084854573308796" lon="14.355665045177178"><ele>139.0</ele><time>2026-04-04T06:39:35Z</time></trkpt><trkpt lat="42.084787858710776" lon="14.355614883058523"><ele>138.0</ele><time>2026-04-04T06:39:36.999Z</time></trkpt><trkpt lat="42.08470355404209" lon="14.355568303043064"><ele>137.0</ele><time>2026-04-04T06:39:38.999Z</time></trkpt><trkpt lat="42.08463045318137" lon="14.355510568706565"><ele>136.0</ele><time>2026-04-04T06:39:40.999Z</time></trkpt><trkpt lat="42.08457104398355" lon="14.355453365923053"><ele>135.0</ele><time>2026-04-04T06:39:42.999Z</time></trkpt><trkpt lat="42.0845038764771" lon="14.355396079975963"><ele>135.0</ele><time>2026-04-04T06:39:44.999Z</time></trkpt><trkpt lat="42.08443398912518" lon="14.355338636108431"><ele>135.0</ele><time>2026-04-04T06:39:46.999Z</time></trkpt><trkpt lat="42.08436332234806" lon="14.355285395387307"><ele>135.0</ele><time>2026-04-04T06:39:48.999Z</time></trkpt><trkpt lat="42.08429062823545" lon="14.355237235826667"><ele>135.0</ele><time>2026-04-04T06:39:50.999Z</time></trkpt><trkpt lat="42.08421765141769" lon="14.355198371439299"><ele>135.0</ele><time>2026-04-04T06:39:52.999Z</time></trkpt><trkpt lat="42.0841459971688" lon="14.35516332589898"><ele>135.0</ele><time>2026-04-04T06:39:54.999Z</time></trkpt><trkpt lat="42.08406787504278" lon="14.35513028886314"><ele>136.33333333333334</ele><time>2026-04-04T06:39:56.999Z</time></trkpt><trkpt lat="42.08399161528085" lon="14.355090542339505"><ele>137.66666666666666</ele><time>2026-04-04T06:39:58.999Z</time></trkpt><trkpt lat="42.08391762841966" lon="14.355053333164111"><ele>139.0</ele><time>2026-04-04T06:40:00.999Z</time></trkpt><trkpt lat="42.0838471362207" lon="14.355020267568383"><ele>140.33333333333331</ele><time>2026-04-04T06:40:02.999Z</time></trkpt><trkpt lat="42.08377741989183" lon="14.354988716694148"><ele>141.66666666666666</ele><time>2026-04-04T06:40:04.999Z</time></trkpt><trkpt lat="42.08370304328987" lon="14.354965200160365"><ele>143.0</ele><time>2026-04-04T06:40:07.999Z</time></trkpt><trkpt lat="42.08361935027596" lon="14.354928601117782"><ele>142.99999999999997</ele><time>2026-04-04T06:40:09.999Z</time></trkpt><trkpt lat="42.083551131180556" lon="14.354909909154289"><ele>143.0</ele><time>2026-04-04T06:40:11.999Z</time></trkpt><trkpt lat="42.08348416583442" lon="14.354880821362359"><ele>143.0</ele><time>2026-04-04T06:40:13.999Z</time></trkpt><trkpt lat="42.08341532028386" lon="14.354853084388711"><ele>143.0</ele><time>2026-04-04T06:40:15.999Z</time></trkpt><trkpt lat="42.08334127434591" lon="14.35482333430665"><ele>143.0</ele><time>2026-04-04T06:40:18.999Z</time></trkpt><trkpt lat="42.08327178844395" lon="14.354806091571618"><ele>142.99999999999997</ele><time>2026-04-04T06:40:20.999Z</time></trkpt><trkpt lat="42.0832114508872" lon="14.354776678041542"><ele>143.0</ele><time>2026-04-04T06:40:22.999Z</time></trkpt><trkpt lat="42.08312863515522" lon="14.354745132336133"><ele>144.0</ele><time>2026-04-04T06:40:25.999Z</time></trkpt><trkpt lat="42.08306550229667" lon="14.354710534691494"><ele>145.0</ele><time>2026-04-04T06:40:27.999Z</time></trkpt><trkpt lat="42.082995511188784" lon="14.354679181440853"><ele>146.0</ele><time>2026-04-04T06:40:30.998Z</time></trkpt><trkpt lat="42.08291616901692" lon="14.354628646254186"><ele>147.0</ele><time>2026-04-04T06:40:34.998Z</time></trkpt><trkpt lat="42.08284645916723" lon="14.354611039344627"><ele>148.0</ele><time>2026-04-04T06:40:36.998Z</time></trkpt><trkpt lat="42.08276097122098" lon="14.354595509844762"><ele>149.0</ele><time>2026-04-04T06:40:39.998Z</time></trkpt><trkpt lat="42.08268283425638" lon="14.354591793714045"><ele>147.0</ele><time>2026-04-04T06:40:42.998Z</time></trkpt><trkpt lat="42.08259081278663" lon="14.35461030618264"><ele>145.0</ele><time>2026-04-04T06:40:45.998Z</time></trkpt><trkpt lat="42.08252598596678" lon="14.354621402964113"><ele>143.0</ele><time>2026-04-04T06:40:47.998Z</time></trkpt><trkpt lat="42.08246000970632" lon="14.354640276706945"><ele>141.0</ele><time>2026-04-04T06:40:49.998Z</time></trkpt><trkpt lat="42.0823951444908" lon="14.354651739422948"><ele>139.0</ele><time>2026-04-04T06:40:51.998Z</time></trkpt><trkpt lat="42.08233276658435" lon="14.354666962238904"><ele>137.0</ele><time>2026-04-04T06:40:53.998Z</time></trkpt><trkpt lat="42.08226824388601" lon="14.354677690913075"><ele>135.0</ele><time>2026-04-04T06:40:55.998Z</time></trkpt><trkpt lat="42.08220409485062" lon="14.354685977331995"><ele>134.85714285714286</ele><time>2026-04-04T06:40:57.998Z</time></trkpt><trkpt lat="42.08213855563283" lon="14.354699917289903"><ele>134.7142857142857</ele><time>2026-04-04T06:40:59.998Z</time></trkpt><trkpt lat="42.082046625046814" lon="14.354707021111173"><ele>134.57142857142856</ele><time>2026-04-04T06:41:02.998Z</time></trkpt><trkpt lat="42.08198135433955" lon="14.354707754977575"><ele>134.42857142857142</ele><time>2026-04-04T06:41:04.998Z</time></trkpt><trkpt lat="42.08191072244805" lon="14.354714405451398"><ele>134.28571428571428</ele><time>2026-04-04T06:41:06.998Z</time></trkpt><trkpt lat="42.081839084955114" lon="14.354723369831298"><ele>134.14285714285714</ele><time>2026-04-04T06:41:08.998Z</time></trkpt><trkpt lat="42.0817721597876" lon="14.354735330929206"><ele>134.0</ele><time>2026-04-04T06:41:10.998Z</time></trkpt><trkpt lat="42.08168186013358" lon="14.354749441944994"><ele>137.33333333333331</ele><time>2026-04-04T06:41:13.998Z</time></trkpt><trkpt lat="42.08160385300866" lon="14.35477145835668"><ele>140.66666666666666</ele><time>2026-04-04T06:41:16.998Z</time></trkpt><trkpt lat="42.081539506326905" lon="14.354796701520721"><ele>144.0</ele><time>2026-04-04T06:41:21Z</time></trkpt><trkpt lat="42.081463049343384" lon="14.354803827740842"><ele>147.33333333333334</ele><time>2026-04-04T06:42:01.999Z</time></trkpt><trkpt lat="42.08139616918509" lon="14.354806035595455"><ele>150.66666666666669</ele><time>2026-04-04T06:42:05.999Z</time></trkpt><trkpt lat="42.081317329097516" lon="14.35481376656999"><ele>154.0</ele><time>2026-04-04T06:42:10.999Z</time></trkpt><trkpt lat="42.08123421687254" lon="14.354804437884432"><ele>156.0</ele><time>2026-04-04T06:42:14.999Z</time></trkpt><trkpt lat="42.081170556922046" lon="14.354801432744981"><ele>158.0</ele><time>2026-04-04T06:42:17.999Z</time></trkpt><trkpt lat="42.08110607332557" lon="14.354781039960299"><ele>160.0</ele><time>2026-04-04T06:42:20.999Z</time></trkpt><trkpt lat="42.081037155823545" lon="14.354759665898417"><ele>162.0</ele><time>2026-04-04T06:42:23.999Z</time></trkpt><trkpt lat="42.080966180232885" lon="14.354743665949233"><ele>164.0</ele><time>2026-04-04T06:42:26.999Z</time></trkpt><trkpt lat="42.08087138686876" lon="14.354718383647807"><ele>166.0</ele><time>2026-04-04T06:42:30.998Z</time></trkpt><trkpt lat="42.08079379341309" lon="14.354689829603249"><ele>163.16666666666669</ele><time>2026-04-04T06:42:33.998Z</time></trkpt><trkpt lat="42.0807147966274" lon="14.354661597276802"><ele>160.33333333333334</ele><time>2026-04-04T06:42:36.998Z</time></trkpt><trkpt lat="42.080639133615" lon="14.354638960689988"><ele>157.5</ele><time>2026-04-04T06:42:39.998Z</time></trkpt><trkpt lat="42.08057372891253" lon="14.354613457734875"><ele>154.66666666666666</ele><time>2026-04-04T06:42:42.998Z</time></trkpt><trkpt lat="42.080504197111885" lon="14.35457376361049"><ele>151.83333333333331</ele><time>2026-04-04T06:42:45.998Z</time></trkpt><trkpt lat="42.08043157960221" lon="14.354550993317732"><ele>149.0</ele><time>2026-04-04T06:42:48.998Z</time></trkpt><trkpt lat="42.080356146072894" lon="14.3545187024483"><ele>149.0</ele><time>2026-04-04T06:42:51.998Z</time></trkpt><trkpt lat="42.08028416135729" lon="14.354489578307911"><ele>149.0</ele><time>2026-04-04T06:42:54.998Z</time></trkpt><trkpt lat="42.08021113158146" lon="14.354462613171757"><ele>149.0</ele><time>2026-04-04T06:42:57.998Z</time></trkpt><trkpt lat="42.08014029230476" lon="14.354432486702768"><ele>149.0</ele><time>2026-04-04T06:43:00.998Z</time></trkpt><trkpt lat="42.080065679049014" lon="14.354402147310548"><ele>149.0</ele><time>2026-04-04T06:43:03.998Z</time></trkpt><trkpt lat="42.07999118364435" lon="14.354372751280753"><ele>149.0</ele><time>2026-04-04T06:43:06.998Z</time></trkpt><trkpt lat="42.07991707956142" lon="14.354336044095792"><ele>151.66666666666666</ele><time>2026-04-04T06:43:09.998Z</time></trkpt><trkpt lat="42.079839433158675" lon="14.35431476178486"><ele>154.33333333333331</ele><time>2026-04-04T06:43:12.998Z</time></trkpt><trkpt lat="42.079765505569924" lon="14.354279990306258"><ele>157.0</ele><time>2026-04-04T06:43:15.998Z</time></trkpt><trkpt lat="42.07969006576425" lon="14.354247223763462"><ele>159.66666666666666</ele><time>2026-04-04T06:43:18.998Z</time></trkpt><trkpt lat="42.079614455460494" lon="14.354216273957451"><ele>162.33333333333334</ele><time>2026-04-04T06:43:21.998Z</time></trkpt><trkpt lat="42.079531558977514" lon="14.35417926241083"><ele>165.0</ele><time>2026-04-04T06:43:26Z</time></trkpt><trkpt lat="42.07945713897359" lon="14.354132945202943"><ele>165.0</ele><time>2026-04-04T06:43:29Z</time></trkpt><trkpt lat="42.07938802214606" lon="14.354100208610506"><ele>165.0</ele><time>2026-04-04T06:43:32Z</time></trkpt><trkpt lat="42.079317484094624" lon="14.354055916648624"><ele>165.0</ele><time>2026-04-04T06:43:35Z</time></trkpt><trkpt lat="42.07924637294888" lon="14.354016433363446"><ele>165.0</ele><time>2026-04-04T06:43:38Z</time></trkpt><trkpt lat="42.07917038114924" lon="14.353977374191688"><ele>165.0</ele><time>2026-04-04T06:43:40.999Z</time></trkpt><trkpt lat="42.079085019384955" lon="14.3539378264096"><ele>165.0</ele><time>2026-04-04T06:43:43.999Z</time></trkpt><trkpt lat="42.07900476064339" lon="14.353910766715721"><ele>166.33333333333334</ele><time>2026-04-04T06:43:46.999Z</time></trkpt><trkpt lat="42.0789282719678" lon="14.353881781785084"><ele>167.66666666666666</ele><time>2026-04-04T06:43:49.999Z</time></trkpt><trkpt lat="42.07884036772774" lon="14.353837421881362"><ele>169.0</ele><time>2026-04-04T06:43:53.999Z</time></trkpt><trkpt lat="42.07876343718912" lon="14.353800131901929"><ele>170.33333333333331</ele><time>2026-04-04T06:43:56.999Z</time></trkpt><trkpt lat="42.07869211636645" lon="14.353758970532384"><ele>171.66666666666666</ele><time>2026-04-04T06:43:59.999Z</time></trkpt><trkpt lat="42.078621012026225" lon="14.35371744078088"><ele>173.0</ele><time>2026-04-04T06:44:02.999Z</time></trkpt><trkpt lat="42.07854625854642" lon="14.353665766078542"><ele>171.16666666666666</ele><time>2026-04-04T06:44:05.999Z</time></trkpt><trkpt lat="42.07847881489797" lon="14.353616449381159"><ele>169.33333333333331</ele><time>2026-04-04T06:44:08.999Z</time></trkpt><trkpt lat="42.07840706818694" lon="14.353576399817962"><ele>167.5</ele><time>2026-04-04T06:44:11.999Z</time></trkpt><trkpt lat="42.078324055302424" lon="14.353526799833983"><ele>165.66666666666666</ele><time>2026-04-04T06:44:14.999Z</time></trkpt><trkpt lat="42.07825058142952" lon="14.353481153257798"><ele>163.83333333333334</ele><time>2026-04-04T06:44:17.999Z</time></trkpt><trkpt lat="42.07818438644581" lon="14.35343616606397"><ele>162.0</ele><time>2026-04-04T06:44:20.999Z</time></trkpt><trkpt lat="42.07810513874865" lon="14.353390139667834"><ele>162.0</ele><time>2026-04-04T06:44:23.999Z</time></trkpt><trkpt lat="42.07803329532226" lon="14.353345214968051"><ele>162.0</ele><time>2026-04-04T06:44:27.999Z</time></trkpt><trkpt lat="42.077970102688354" lon="14.353332722180834"><ele>162.0</ele><time>2026-04-04T06:44:29.999Z</time></trkpt><trkpt lat="42.07790029684801" lon="14.35330985524152"><ele>162.0</ele><time>2026-04-04T06:44:32.999Z</time></trkpt><trkpt lat="42.07781938364897" lon="14.353277331616937"><ele>162.0</ele><time>2026-04-04T06:44:35.999Z</time></trkpt><trkpt lat="42.07774822301607" lon="14.353254255876958"><ele>162.0</ele><time>2026-04-04T06:44:38.998Z</time></trkpt><trkpt lat="42.07766600177512" lon="14.353227467118804"><ele>162.0</ele><time>2026-04-04T06:44:41.998Z</time></trkpt><trkpt lat="42.07759319905353" lon="14.353208903515776"><ele>162.0</ele><time>2026-04-04T06:44:44.998Z</time></trkpt><trkpt lat="42.07748766541388" lon="14.353195064637209"><ele>162.0</ele><time>2026-04-04T06:44:47.998Z</time></trkpt><trkpt lat="42.07740664944646" lon="14.35320731995455"><ele>162.0</ele><time>2026-04-04T06:44:50.999Z</time></trkpt><trkpt lat="42.07732792514852" lon="14.353235002252756"><ele>162.0</ele><time>2026-04-04T06:44:53.999Z</time></trkpt><trkpt lat="42.07725093950307" lon="14.353286425585447"><ele>162.0</ele><time>2026-04-04T06:44:56.999Z</time></trkpt><trkpt lat="42.07718248842674" lon="14.353344118955839"><ele>160.83333333333334</ele><time>2026-04-04T06:44:59.999Z</time></trkpt><trkpt lat="42.077122956207134" lon="14.353408648228854"><ele>159.66666666666666</ele><time>2026-04-04T06:45:02.999Z</time></trkpt><trkpt lat="42.07705787726438" lon="14.353482210333835"><ele>158.5</ele><time>2026-04-04T06:45:05.999Z</time></trkpt><trkpt lat="42.0769986340032" lon="14.353557673827142"><ele>157.33333333333331</ele><time>2026-04-04T06:45:08.999Z</time></trkpt><trkpt lat="42.076938210131395" lon="14.353635359805402"><ele>156.16666666666666</ele><time>2026-04-04T06:45:11.999Z</time></trkpt><trkpt lat="42.07687871513996" lon="14.353713505776895"><ele>155.0</ele><time>2026-04-04T06:45:14.999Z</time></trkpt><trkpt lat="42.07681458873679" lon="14.353787275930848"><ele>155.0</ele><time>2026-04-04T06:45:17.999Z</time></trkpt><trkpt lat="42.07675426906085" lon="14.353871407122869"><ele>155.0</ele><time>2026-04-04T06:45:20.999Z</time></trkpt><trkpt lat="42.0766960075235" lon="14.353955470648435"><ele>155.0</ele><time>2026-04-04T06:45:23.999Z</time></trkpt><trkpt lat="42.07663348437018" lon="14.354031902353348"><ele>155.0</ele><time>2026-04-04T06:45:26.999Z</time></trkpt><trkpt lat="42.07657379706284" lon="14.354107663724863"><ele>155.0</ele><time>2026-04-04T06:45:30.001Z</time></trkpt><trkpt lat="42.076520710723955" lon="14.354182470676154"><ele>155.0</ele><time>2026-04-04T06:45:33.001Z</time></trkpt><trkpt lat="42.076465018095654" lon="14.354262614990965"><ele>155.0</ele><time>2026-04-04T06:45:36.001Z</time></trkpt><trkpt lat="42.07640721222438" lon="14.35434318878254"><ele>155.0</ele><time>2026-04-04T06:45:39.001Z</time></trkpt><trkpt lat="42.07633928817986" lon="14.354433207779834"><ele>155.0</ele><time>2026-04-04T06:45:44.001Z</time></trkpt><trkpt lat="42.07627891371033" lon="14.354512171140792"><ele>155.0</ele><time>2026-04-04T06:45:46Z</time></trkpt><trkpt lat="42.07622153049048" lon="14.35458979862954"><ele>155.0</ele><time>2026-04-04T06:45:49Z</time></trkpt><trkpt lat="42.076161328607824" lon="14.354666845829174"><ele>155.0</ele><time>2026-04-04T06:45:52Z</time></trkpt><trkpt lat="42.076109322302294" lon="14.354757066658543"><ele>157.16666666666666</ele><time>2026-04-04T06:45:55Z</time></trkpt><trkpt lat="42.07606455289997" lon="14.354833182467855"><ele>159.33333333333331</ele><time>2026-04-04T06:45:58Z</time></trkpt><trkpt lat="42.07601870032222" lon="14.354929474456974"><ele>161.5</ele><time>2026-04-04T06:46:01Z</time></trkpt><trkpt lat="42.07598273345183" lon="14.355029961610112"><ele>163.66666666666666</ele><time>2026-04-04T06:46:04Z</time></trkpt><trkpt lat="42.075940522728644" lon="14.355131337448475"><ele>165.83333333333334</ele><time>2026-04-04T06:46:07Z</time></trkpt><trkpt lat="42.075888580868174" lon="14.355221696839356"><ele>168.0</ele><time>2026-04-04T06:46:10Z</time></trkpt><trkpt lat="42.07583030289133" lon="14.35529340204868"><ele>167.33333333333334</ele><time>2026-04-04T06:46:13Z</time></trkpt><trkpt lat="42.075757881997625" lon="14.355342216195544"><ele>166.66666666666666</ele><time>2026-04-04T06:46:16Z</time></trkpt><trkpt lat="42.07567789880242" lon="14.35536493008983"><ele>166.0</ele><time>2026-04-04T06:46:19Z</time></trkpt><trkpt lat="42.07559847947597" lon="14.355385200251327"><ele>165.33333333333331</ele><time>2026-04-04T06:46:22Z</time></trkpt><trkpt lat="42.07552505588006" lon="14.355402285531724"><ele>164.66666666666666</ele><time>2026-04-04T06:46:25Z</time></trkpt><trkpt lat="42.07543939011455" lon="14.355421483250868"><ele>164.0</ele><time>2026-04-04T06:46:28Z</time></trkpt><trkpt lat="42.07535827189122" lon="14.355435756460654"><ele>164.0</ele><time>2026-04-04T06:46:31Z</time></trkpt><trkpt lat="42.075271658694795" lon="14.355457807088925"><ele>164.0</ele><time>2026-04-04T06:46:34Z</time></trkpt><trkpt lat="42.075182304046486" lon="14.355469001426664"><ele>164.0</ele><time>2026-04-04T06:46:37Z</time></trkpt><trkpt lat="42.0750952646819" lon="14.355491974694047"><ele>164.0</ele><time>2026-04-04T06:46:39.999Z</time></trkpt><trkpt lat="42.07500854421685" lon="14.355526356936522"><ele>164.0</ele><time>2026-04-04T06:46:42.999Z</time></trkpt><trkpt lat="42.07495027080643" lon="14.355562043509392"><ele>164.0</ele><time>2026-04-04T06:46:44.999Z</time></trkpt><trkpt lat="42.07489140911155" lon="14.355593046685245"><ele>165.7142857142857</ele><time>2026-04-04T06:46:46.999Z</time></trkpt><trkpt lat="42.07480960526933" lon="14.355651928186886"><ele>167.42857142857142</ele><time>2026-04-04T06:46:49.999Z</time></trkpt><trkpt lat="42.07474928579258" lon="14.355683229980128"><ele>169.14285714285714</ele><time>2026-04-04T06:46:51.999Z</time></trkpt><trkpt lat="42.0746833573281" lon="14.355706926200646"><ele>170.85714285714283</ele><time>2026-04-04T06:46:53.999Z</time></trkpt><trkpt lat="42.0746126448866" lon="14.355699292324518"><ele>172.57142857142856</ele><time>2026-04-04T06:46:55.999Z</time></trkpt><trkpt lat="42.07455387882392" lon="14.35566350410852"><ele>174.28571428571428</ele><time>2026-04-04T06:46:57.999Z</time></trkpt><trkpt lat="42.07450882508957" lon="14.355594160812375"><ele>176.0</ele><time>2026-04-04T06:46:59.999Z</time></trkpt><trkpt lat="42.07444609355569" lon="14.355501750437943"><ele>176.0</ele><time>2026-04-04T06:47:02.999Z</time></trkpt><trkpt lat="42.074402991619365" lon="14.355439756858571"><ele>176.0</ele><time>2026-04-04T06:47:04.999Z</time></trkpt><trkpt lat="42.07436042899079" lon="14.355374081973391"><ele>176.0</ele><time>2026-04-04T06:47:06.999Z</time></trkpt><trkpt lat="42.07432373054979" lon="14.355274194051637"><ele>176.0</ele><time>2026-04-04T06:47:09.999Z</time></trkpt><trkpt lat="42.07431565119133" lon="14.355160041802979"><ele>176.0</ele><time>2026-04-04T06:47:13.999Z</time></trkpt><trkpt lat="42.07432898649648" lon="14.355067811181758"><ele>176.0</ele><time>2026-04-04T06:47:15.999Z</time></trkpt><trkpt lat="42.07434134979521" lon="14.354969402375067"><ele>176.0</ele><time>2026-04-04T06:47:18.999Z</time></trkpt><trkpt lat="42.07435601820012" lon="14.354876508633065"><ele>176.0</ele><time>2026-04-04T06:47:21.999Z</time></trkpt><trkpt lat="42.074376658948644" lon="14.354780235772"><ele>176.0</ele><time>2026-04-04T06:47:23.999Z</time></trkpt><trkpt lat="42.0743876459261" lon="14.354695952645699"><ele>176.0</ele><time>2026-04-04T06:47:25.999Z</time></trkpt><trkpt lat="42.074398717654375" lon="14.354610825841199"><ele>176.0</ele><time>2026-04-04T06:47:27.999Z</time></trkpt><trkpt lat="42.07437702558943" lon="14.35450226556305"><ele>176.0</ele><time>2026-04-04T06:47:31.999Z</time></trkpt><trkpt lat="42.07436370857469" lon="14.354396021808963"><ele>176.0</ele><time>2026-04-04T06:47:35Z</time></trkpt><trkpt lat="42.07433697424723" lon="14.354285999027283"><ele>175.33333333333331</ele><time>2026-04-04T06:47:38Z</time></trkpt><trkpt lat="42.07436114260926" lon="14.354157791143532"><ele>174.66666666666666</ele><time>2026-04-04T06:47:41Z</time></trkpt><trkpt lat="42.07433086525081" lon="14.354051510832397"><ele>174.0</ele><time>2026-04-04T06:47:44Z</time></trkpt><trkpt lat="42.07427180472619" lon="14.35394694486582"><ele>173.33333333333334</ele><time>2026-04-04T06:47:48Z</time></trkpt><trkpt lat="42.074222909203364" lon="14.353876364276552"><ele>172.66666666666669</ele><time>2026-04-04T06:47:51Z</time></trkpt><trkpt lat="42.07415808416457" lon="14.353795389991973"><ele>172.0</ele><time>2026-04-04T06:47:54Z</time></trkpt><trkpt lat="42.07408559603265" lon="14.353748416565672"><ele>174.0</ele><time>2026-04-04T06:47:57Z</time></trkpt><trkpt lat="42.074023332401225" lon="14.353724308313543"><ele>176.0</ele><time>2026-04-04T06:47:59Z</time></trkpt><trkpt lat="42.07393948013867" lon="14.353719592885387"><ele>178.0</ele><time>2026-04-04T06:48:02Z</time></trkpt><trkpt lat="42.07384169570768" lon="14.353703258440603"><ele>180.0</ele><time>2026-04-04T06:48:04Z</time></trkpt><trkpt lat="42.07376141213923" lon="14.353700551826227"><ele>182.0</ele><time>2026-04-04T06:48:06Z</time></trkpt><trkpt lat="42.073677245877846" lon="14.353685561766715"><ele>184.0</ele><time>2026-04-04T06:48:08Z</time></trkpt><trkpt lat="42.07361435702056" lon="14.35367318815701"><ele>184.0</ele><time>2026-04-04T06:48:10Z</time></trkpt><trkpt lat="42.07352782604959" lon="14.353675936098973"><ele>184.0</ele><time>2026-04-04T06:48:15Z</time></trkpt><trkpt lat="42.073436732066654" lon="14.35366698552597"><ele>184.0</ele><time>2026-04-04T06:48:18Z</time></trkpt><trkpt lat="42.073355146620024" lon="14.353658953413376"><ele>184.0</ele><time>2026-04-04T06:48:21Z</time></trkpt><trkpt lat="42.07327035424873" lon="14.353646860946908"><ele>184.0</ele><time>2026-04-04T06:48:24Z</time></trkpt><trkpt lat="42.07318201462359" lon="14.353631210223279"><ele>184.0</ele><time>2026-04-04T06:48:27Z</time></trkpt><trkpt lat="42.07310224450456" lon="14.353617415605584"><ele>185.0</ele><time>2026-04-04T06:48:31Z</time></trkpt><trkpt lat="42.073014948375025" lon="14.353607416264131"><ele>186.0</ele><time>2026-04-04T06:48:34Z</time></trkpt><trkpt lat="42.07292384487144" lon="14.353590760844208"><ele>187.0</ele><time>2026-04-04T06:48:37Z</time></trkpt><trkpt lat="42.07283754878008" lon="14.35357927753508"><ele>188.0</ele><time>2026-04-04T06:48:39.999Z</time></trkpt><trkpt lat="42.07275152236089" lon="14.353563876839763"><ele>189.0</ele><time>2026-04-04T06:48:42.999Z</time></trkpt><trkpt lat="42.07266707004767" lon="14.353552823903874"><ele>190.0</ele><time>2026-04-04T06:48:45.999Z</time></trkpt><trkpt lat="42.072590999834546" lon="14.353524934440633"><ele>190.0</ele><time>2026-04-04T06:48:48.999Z</time></trkpt><trkpt lat="42.07251796713499" lon="14.35347767682015"><ele>190.0</ele><time>2026-04-04T06:48:51.999Z</time></trkpt><trkpt lat="42.072463136343075" lon="14.35341286088985"><ele>190.0</ele><time>2026-04-04T06:48:54.999Z</time></trkpt><trkpt lat="42.07241454469872" lon="14.353340318107215"><ele>190.0</ele><time>2026-04-04T06:48:57.999Z</time></trkpt><trkpt lat="42.072353642876635" lon="14.353257836441848"><ele>190.0</ele><time>2026-04-04T06:49:01.999Z</time></trkpt><trkpt lat="42.07229893186492" lon="14.353173953535036"><ele>190.0</ele><time>2026-04-04T06:49:04.999Z</time></trkpt><trkpt lat="42.07223916965525" lon="14.353098013776693"><ele>189.42857142857144</ele><time>2026-04-04T06:49:07.999Z</time></trkpt><trkpt lat="42.072178215145065" lon="14.353029519666952"><ele>188.85714285714286</ele><time>2026-04-04T06:49:10.999Z</time></trkpt><trkpt lat="42.072129896959105" lon="14.352973742825297"><ele>188.28571428571428</ele><time>2026-04-04T06:49:13.999Z</time></trkpt><trkpt lat="42.0720761622483" lon="14.352922000031633"><ele>187.71428571428572</ele><time>2026-04-04T06:49:16.999Z</time></trkpt><trkpt lat="42.071992258873294" lon="14.3528745241617"><ele>187.14285714285714</ele><time>2026-04-04T06:49:19.999Z</time></trkpt><trkpt lat="42.07193153264352" lon="14.35282987038383"><ele>186.57142857142858</ele><time>2026-04-04T06:49:22.999Z</time></trkpt><trkpt lat="42.07186517329539" lon="14.352796289676963"><ele>186.0</ele><time>2026-04-04T06:49:25.999Z</time></trkpt><trkpt lat="42.07178660137659" lon="14.352760261168129"><ele>186.0</ele><time>2026-04-04T06:49:28.999Z</time></trkpt><trkpt lat="42.07169636453963" lon="14.352739851798908"><ele>186.0</ele><time>2026-04-04T06:49:31.999Z</time></trkpt><trkpt lat="42.07161261050221" lon="14.352720533612027"><ele>186.0</ele><time>2026-04-04T06:49:34.998Z</time></trkpt><trkpt lat="42.07154785815135" lon="14.352712442690311"><ele>186.0</ele><time>2026-04-04T06:49:37.998Z</time></trkpt><trkpt lat="42.07146959331907" lon="14.352718783009035"><ele>186.0</ele><time>2026-04-04T06:49:41Z</time></trkpt><trkpt lat="42.07137994578276" lon="14.352736102980769"><ele>186.0</ele><time>2026-04-04T06:49:44Z</time></trkpt><trkpt lat="42.07129731807753" lon="14.352759410565566"><ele>186.5</ele><time>2026-04-04T06:49:47Z</time></trkpt><trkpt lat="42.07122043456528" lon="14.35278966732285"><ele>187.0</ele><time>2026-04-04T06:49:50Z</time></trkpt><trkpt lat="42.07116057953452" lon="14.352817358812986"><ele>187.5</ele><time>2026-04-04T06:49:53Z</time></trkpt><trkpt lat="42.071093114891205" lon="14.352835516384712"><ele>188.0</ele><time>2026-04-04T06:49:56Z</time></trkpt><trkpt lat="42.07101123067221" lon="14.352855764026385"><ele>188.5</ele><time>2026-04-04T06:49:59Z</time></trkpt><trkpt lat="42.07089808704749" lon="14.35288774018923"><ele>189.0</ele><time>2026-04-04T06:50:02Z</time></trkpt><trkpt lat="42.070823391965384" lon="14.352898455117273"><ele>190.33333333333334</ele><time>2026-04-04T06:50:05Z</time></trkpt><trkpt lat="42.0707406362623" lon="14.35289863650691"><ele>191.66666666666669</ele><time>2026-04-04T06:50:08Z</time></trkpt><trkpt lat="42.070658787940474" lon="14.352879980525492"><ele>193.0</ele><time>2026-04-04T06:50:11Z</time></trkpt><trkpt lat="42.07058619697273" lon="14.352859621154952"><ele>194.33333333333334</ele><time>2026-04-04T06:50:14Z</time></trkpt><trkpt lat="42.07050784247421" lon="14.352834662975408"><ele>195.66666666666669</ele><time>2026-04-04T06:50:17Z</time></trkpt><trkpt lat="42.07042298054856" lon="14.352811791963331"><ele>197.0</ele><time>2026-04-04T06:50:21Z</time></trkpt><trkpt lat="42.07032596171244" lon="14.352770494111148"><ele>197.00000000000003</ele><time>2026-04-04T06:50:25Z</time></trkpt><trkpt lat="42.07024917501064" lon="14.352739903331454"><ele>197.0</ele><time>2026-04-04T06:50:28Z</time></trkpt><trkpt lat="42.07017040746488" lon="14.352712337772699"><ele>197.0</ele><time>2026-04-04T06:50:31Z</time></trkpt><trkpt lat="42.070091936478896" lon="14.352677643513061"><ele>197.0</ele><time>2026-04-04T06:50:34Z</time></trkpt><trkpt lat="42.07002007696067" lon="14.352639777262306"><ele>197.00000000000003</ele><time>2026-04-04T06:50:37Z</time></trkpt><trkpt lat="42.06995028333406" lon="14.352603627613606"><ele>197.0</ele><time>2026-04-04T06:50:40Z</time></trkpt><trkpt lat="42.06987968584968" lon="14.352564874634547"><ele>198.50000000000003</ele><time>2026-04-04T06:50:42.999Z</time></trkpt><trkpt lat="42.06981162158018" lon="14.352527227374651"><ele>200.0</ele><time>2026-04-04T06:50:45.999Z</time></trkpt><trkpt lat="42.0697383140101" lon="14.352493604300397"><ele>201.5</ele><time>2026-04-04T06:50:48.999Z</time></trkpt><trkpt lat="42.06964936501053" lon="14.352445020819033"><ele>203.0</ele><time>2026-04-04T06:50:52.999Z</time></trkpt><trkpt lat="42.06958370194249" lon="14.352415810673806"><ele>204.50000000000003</ele><time>2026-04-04T06:50:55.999Z</time></trkpt><trkpt lat="42.06951917643364" lon="14.352400528330461"><ele>206.0</ele><time>2026-04-04T06:50:57.999Z</time></trkpt><trkpt lat="42.06944473930671" lon="14.352379263400584"><ele>205.99999999999997</ele><time>2026-04-04T06:51:01.999Z</time></trkpt><trkpt lat="42.069371205594564" lon="14.352361127549846"><ele>206.0</ele><time>2026-04-04T06:51:03.999Z</time></trkpt><trkpt lat="42.069297294284716" lon="14.352347944091743"><ele>206.0</ele><time>2026-04-04T06:51:06.999Z</time></trkpt><trkpt lat="42.069226734207106" lon="14.352337845613782"><ele>206.0</ele><time>2026-04-04T06:51:09.999Z</time></trkpt><trkpt lat="42.06915029103375" lon="14.352328244249785"><ele>206.0</ele><time>2026-04-04T06:51:12.999Z</time></trkpt><trkpt lat="42.06907677562362" lon="14.352323092551286"><ele>205.99999999999997</ele><time>2026-04-04T06:51:15.999Z</time></trkpt><trkpt lat="42.06899992278028" lon="14.352317361504271"><ele>206.0</ele><time>2026-04-04T06:51:18.999Z</time></trkpt><trkpt lat="42.068931038367545" lon="14.352302030747968"><ele>205.33333333333334</ele><time>2026-04-04T06:51:21.999Z</time></trkpt><trkpt lat="42.06885322177605" lon="14.352296744565866"><ele>204.66666666666669</ele><time>2026-04-04T06:51:24.999Z</time></trkpt><trkpt lat="42.0687788676095" lon="14.352289747508944"><ele>204.0</ele><time>2026-04-04T06:51:27.999Z</time></trkpt><trkpt lat="42.06870606601298" lon="14.35227335493531"><ele>203.33333333333331</ele><time>2026-04-04T06:51:30.999Z</time></trkpt><trkpt lat="42.068633410987125" lon="14.352256997778234"><ele>202.66666666666666</ele><time>2026-04-04T06:51:33.999Z</time></trkpt><trkpt lat="42.06855870556275" lon="14.352233578305295"><ele>202.0</ele><time>2026-04-04T06:51:36.998Z</time></trkpt><trkpt lat="42.06847858962499" lon="14.352192346972474"><ele>201.99999999999997</ele><time>2026-04-04T06:51:39.998Z</time></trkpt><trkpt lat="42.06840346401148" lon="14.352146279558497"><ele>202.0</ele><time>2026-04-04T06:51:42.998Z</time></trkpt><trkpt lat="42.06833111432257" lon="14.352103470110064"><ele>202.0</ele><time>2026-04-04T06:51:46Z</time></trkpt><trkpt lat="42.06826617265176" lon="14.352043732222446"><ele>202.0</ele><time>2026-04-04T06:51:49Z</time></trkpt><trkpt lat="42.06819611090667" lon="14.351983260936073"><ele>201.99999999999997</ele><time>2026-04-04T06:51:53Z</time></trkpt><trkpt lat="42.068124484891975" lon="14.351916797709743"><ele>202.0</ele><time>2026-04-04T06:51:56Z</time></trkpt><trkpt lat="42.06806683394432" lon="14.351861722285072"><ele>204.49999999999997</ele><time>2026-04-04T06:51:59Z</time></trkpt><trkpt lat="42.06801015065867" lon="14.351792192224051"><ele>207.0</ele><time>2026-04-04T06:52:01Z</time></trkpt><trkpt lat="42.067952596095495" lon="14.351714296035595"><ele>209.5</ele><time>2026-04-04T06:52:04Z</time></trkpt><trkpt lat="42.06789330408549" lon="14.351632877810934"><ele>212.0</ele><time>2026-04-04T06:52:07Z</time></trkpt><trkpt lat="42.067833805381945" lon="14.3515608579376"><ele>214.49999999999997</ele><time>2026-04-04T06:52:10Z</time></trkpt><trkpt lat="42.0677712472622" lon="14.35149591563227"><ele>217.0</ele><time>2026-04-04T06:52:13Z</time></trkpt><trkpt lat="42.06769627501793" lon="14.351455915684205"><ele>216.99999999999997</ele><time>2026-04-04T06:52:16Z</time></trkpt><trkpt lat="42.06762122414543" lon="14.351425843236191"><ele>217.0</ele><time>2026-04-04T06:52:19Z</time></trkpt><trkpt lat="42.06754552905278" lon="14.351398753660657"><ele>217.0</ele><time>2026-04-04T06:52:22Z</time></trkpt><trkpt lat="42.06747956249453" lon="14.351388216703002"><ele>217.0</ele><time>2026-04-04T06:52:25Z</time></trkpt><trkpt lat="42.06738710808251" lon="14.351364787004313"><ele>216.99999999999997</ele><time>2026-04-04T06:52:28Z</time></trkpt><trkpt lat="42.06732262759673" lon="14.351349200967878"><ele>217.0</ele><time>2026-04-04T06:52:30Z</time></trkpt><trkpt lat="42.06723842686176" lon="14.35133161243009"><ele>213.33333333333331</ele><time>2026-04-04T06:52:33Z</time></trkpt><trkpt lat="42.06715884281665" lon="14.351313369179776"><ele>209.66666666666666</ele><time>2026-04-04T06:52:36Z</time></trkpt><trkpt lat="42.067081002545585" lon="14.351304125070559"><ele>206.0</ele><time>2026-04-04T06:52:39Z</time></trkpt><trkpt lat="42.067010522923816" lon="14.351311185812754"><ele>202.33333333333331</ele><time>2026-04-04T06:52:42Z</time></trkpt><trkpt lat="42.06693198986007" lon="14.351315556038488"><ele>198.66666666666666</ele><time>2026-04-04T06:52:44.999Z</time></trkpt><trkpt lat="42.06685502450301" lon="14.35133507556781"><ele>195.0</ele><time>2026-04-04T06:52:47.999Z</time></trkpt><trkpt lat="42.06677626274733" lon="14.351358343441719"><ele>195.0</ele><time>2026-04-04T06:52:50.999Z</time></trkpt><trkpt lat="42.06670192131397" lon="14.351368473731617"><ele>195.0</ele><time>2026-04-04T06:52:53.999Z</time></trkpt><trkpt lat="42.06663022537185" lon="14.351392239124605"><ele>195.0</ele><time>2026-04-04T06:52:56.999Z</time></trkpt><trkpt lat="42.06656165364819" lon="14.351398015911139"><ele>195.0</ele><time>2026-04-04T06:52:59.999Z</time></trkpt><trkpt lat="42.06649000004755" lon="14.351415089401183"><ele>195.0</ele><time>2026-04-04T06:53:02.999Z</time></trkpt><trkpt lat="42.066400937468" lon="14.351431257176491"><ele>195.0</ele><time>2026-04-04T06:53:06.999Z</time></trkpt><trkpt lat="42.06632767341001" lon="14.351429824834705"><ele>194.5</ele><time>2026-04-04T06:53:09.999Z</time></trkpt><trkpt lat="42.06626391640575" lon="14.351443467551917"><ele>194.0</ele><time>2026-04-04T06:53:13.999Z</time></trkpt><trkpt lat="42.066183596575854" lon="14.35142127116164"><ele>193.5</ele><time>2026-04-04T06:53:16.999Z</time></trkpt><trkpt lat="42.06610267013609" lon="14.351419089311586"><ele>193.0</ele><time>2026-04-04T06:53:19.999Z</time></trkpt><trkpt lat="42.06603280697387" lon="14.35137669733489"><ele>192.5</ele><time>2026-04-04T06:53:22.999Z</time></trkpt><trkpt lat="42.06595685801477" lon="14.351355653640974"><ele>192.0</ele><time>2026-04-04T06:53:25.999Z</time></trkpt><trkpt lat="42.06587980609184" lon="14.351340791246646"><ele>192.0</ele><time>2026-04-04T06:53:28.999Z</time></trkpt><trkpt lat="42.065805351566446" lon="14.351343058215107"><ele>192.0</ele><time>2026-04-04T06:53:31.999Z</time></trkpt><trkpt lat="42.06572972553081" lon="14.351355975045639"><ele>192.0</ele><time>2026-04-04T06:53:34.999Z</time></trkpt><trkpt lat="42.065657317936356" lon="14.351391503187152"><ele>192.0</ele><time>2026-04-04T06:53:37.999Z</time></trkpt><trkpt lat="42.06558600926481" lon="14.351421559711087"><ele>192.0</ele><time>2026-04-04T06:53:40.998Z</time></trkpt><trkpt lat="42.065514020001444" lon="14.351452375957528"><ele>192.0</ele><time>2026-04-04T06:53:43.998Z</time></trkpt><trkpt lat="42.06544647526561" lon="14.351485193550586"><ele>195.7142857142857</ele><time>2026-04-04T06:53:46.998Z</time></trkpt><trkpt lat="42.06537523941952" lon="14.351518507142073"><ele>199.42857142857142</ele><time>2026-04-04T06:53:49.998Z</time></trkpt><trkpt lat="42.0653088672066" lon="14.351546975862412"><ele>203.14285714285714</ele><time>2026-04-04T06:53:53Z</time></trkpt><trkpt lat="42.06524408323026" lon="14.351577288952184"><ele>206.85714285714283</ele><time>2026-04-04T06:53:56Z</time></trkpt><trkpt lat="42.06517654611412" lon="14.351606086589364"><ele>210.57142857142858</ele><time>2026-04-04T06:53:59Z</time></trkpt><trkpt lat="42.06510881213299" lon="14.351647136876716"><ele>214.28571428571428</ele><time>2026-04-04T06:54:02Z</time></trkpt><trkpt lat="42.06504588467852" lon="14.351682986834115"><ele>218.0</ele><time>2026-04-04T06:54:05Z</time></trkpt><trkpt lat="42.064984875971234" lon="14.351731863133276"><ele>217.42857142857144</ele><time>2026-04-04T06:54:08Z</time></trkpt><trkpt lat="42.06492687985852" lon="14.351781058819519"><ele>216.85714285714286</ele><time>2026-04-04T06:54:11Z</time></trkpt><trkpt lat="42.06486805750185" lon="14.351834372407167"><ele>216.28571428571428</ele><time>2026-04-04T06:54:14Z</time></trkpt><trkpt lat="42.064811072392594" lon="14.351880016617173"><ele>215.71428571428572</ele><time>2026-04-04T06:54:17Z</time></trkpt><trkpt lat="42.064753752894795" lon="14.35193264723392"><ele>215.14285714285714</ele><time>2026-04-04T06:54:20Z</time></trkpt><trkpt lat="42.06469036594223" lon="14.351967792466048"><ele>214.57142857142858</ele><time>2026-04-04T06:54:23Z</time></trkpt><trkpt lat="42.06462861369705" lon="14.35199488235867"><ele>214.0</ele><time>2026-04-04T06:54:26Z</time></trkpt><trkpt lat="42.06455945251707" lon="14.352011239942337"><ele>214.00000000000003</ele><time>2026-04-04T06:54:29Z</time></trkpt><trkpt lat="42.06448978032669" lon="14.352024583735854"><ele>214.0</ele><time>2026-04-04T06:54:32Z</time></trkpt><trkpt lat="42.06442212194275" lon="14.352038959278046"><ele>214.0</ele><time>2026-04-04T06:54:35Z</time></trkpt><trkpt lat="42.06433291502776" lon="14.35205966861063"><ele>214.0</ele><time>2026-04-04T06:54:39Z</time></trkpt><trkpt lat="42.06426618281638" lon="14.352077406039589"><ele>214.0</ele><time>2026-04-04T06:54:42Z</time></trkpt><trkpt lat="42.064195334479926" lon="14.352088010977173"><ele>214.00000000000003</ele><time>2026-04-04T06:54:44.999Z</time></trkpt><trkpt lat="42.064127614585054" lon="14.352097015051433"><ele>214.0</ele><time>2026-04-04T06:54:47.999Z</time></trkpt><trkpt lat="42.06406193648226" lon="14.352102315091606"><ele>213.85714285714286</ele><time>2026-04-04T06:54:50.999Z</time></trkpt><trkpt lat="42.063994485611445" lon="14.352092991018722"><ele>213.71428571428572</ele><time>2026-04-04T06:54:53.999Z</time></trkpt><trkpt lat="42.06392576311865" lon="14.352059553195504"><ele>213.57142857142856</ele><time>2026-04-04T06:54:56.999Z</time></trkpt><trkpt lat="42.06386327202961" lon="14.352021666176487"><ele>213.42857142857144</ele><time>2026-04-04T06:54:59.999Z</time></trkpt><trkpt lat="42.06380103525562" lon="14.351980423226431"><ele>213.28571428571428</ele><time>2026-04-04T06:55:02.999Z</time></trkpt><trkpt lat="42.06373958520783" lon="14.351952771288872"><ele>213.14285714285714</ele><time>2026-04-04T06:55:05.999Z</time></trkpt><trkpt lat="42.06367636869033" lon="14.351925458485976"><ele>213.0</ele><time>2026-04-04T06:55:08.999Z</time></trkpt><trkpt lat="42.063610090413796" lon="14.351916201753484"><ele>212.99999999999997</ele><time>2026-04-04T06:55:11.999Z</time></trkpt><trkpt lat="42.06354137931224" lon="14.351925739075366"><ele>213.0</ele><time>2026-04-04T06:55:14.999Z</time></trkpt><trkpt lat="42.063473004100665" lon="14.351950782941591"><ele>213.0</ele><time>2026-04-04T06:55:17.999Z</time></trkpt><trkpt lat="42.06341415227617" lon="14.351999980956988"><ele>213.0</ele><time>2026-04-04T06:55:20.999Z</time></trkpt><trkpt lat="42.06336366211934" lon="14.352067161177459"><ele>213.0</ele><time>2026-04-04T06:55:23.999Z</time></trkpt><trkpt lat="42.06331063007311" lon="14.352121858164184"><ele>212.99999999999997</ele><time>2026-04-04T06:55:26.999Z</time></trkpt><trkpt lat="42.06326031860329" lon="14.352185706329516"><ele>213.0</ele><time>2026-04-04T06:55:29.999Z</time></trkpt><trkpt lat="42.063212302272795" lon="14.352247926292787"><ele>216.85714285714283</ele><time>2026-04-04T06:55:32.999Z</time></trkpt><trkpt lat="42.06316711926545" lon="14.35230863553673"><ele>220.71428571428572</ele><time>2026-04-04T06:55:35.999Z</time></trkpt><trkpt lat="42.06311733582944" lon="14.352370754719306"><ele>224.57142857142856</ele><time>2026-04-04T06:55:38.999Z</time></trkpt><trkpt lat="42.06306670700713" lon="14.352427845594603"><ele>228.42857142857142</ele><time>2026-04-04T06:55:41.998Z</time></trkpt><trkpt lat="42.063008758742335" lon="14.352467789626017"><ele>232.28571428571428</ele><time>2026-04-04T06:55:44.998Z</time></trkpt><trkpt lat="42.06293805366727" lon="14.352476713680304"><ele>236.14285714285714</ele><time>2026-04-04T06:55:47.998Z</time></trkpt><trkpt lat="42.062869098718316" lon="14.352460883466788"><ele>240.0</ele><time>2026-04-04T06:55:50.998Z</time></trkpt><trkpt lat="42.062798249509875" lon="14.352422746118506"><ele>240.0</ele><time>2026-04-04T06:55:53.998Z</time></trkpt><trkpt lat="42.062725979899255" lon="14.352371478652255"><ele>240.0</ele><time>2026-04-04T06:55:58Z</time></trkpt><trkpt lat="42.062666460663486" lon="14.352335190775323"><ele>240.0</ele><time>2026-04-04T06:56:01Z</time></trkpt><trkpt lat="42.0626021555304" lon="14.35230499094274"><ele>240.0</ele><time>2026-04-04T06:56:04Z</time></trkpt><trkpt lat="42.06253310842531" lon="14.352281789643708"><ele>240.0</ele><time>2026-04-04T06:56:07Z</time></trkpt><trkpt lat="42.062463996532415" lon="14.352266253208148"><ele>240.0</ele><time>2026-04-04T06:56:10Z</time></trkpt><trkpt lat="42.0623925292473" lon="14.352270382337911"><ele>240.0</ele><time>2026-04-04T06:56:13Z</time></trkpt><trkpt lat="42.06231821195718" lon="14.352282126400679"><ele>239.0</ele><time>2026-04-04T06:56:16Z</time></trkpt><trkpt lat="42.06224720900557" lon="14.352300795431493"><ele>238.0</ele><time>2026-04-04T06:56:19Z</time></trkpt><trkpt lat="42.062177862655446" lon="14.35233499894055"><ele>237.0</ele><time>2026-04-04T06:56:22Z</time></trkpt><trkpt lat="42.062115054283694" lon="14.352375649249238"><ele>236.0</ele><time>2026-04-04T06:56:25Z</time></trkpt><trkpt lat="42.06204848038991" lon="14.352419663289284"><ele>235.0</ele><time>2026-04-04T06:56:28Z</time></trkpt><trkpt lat="42.06198675339619" lon="14.352461995930039"><ele>234.0</ele><time>2026-04-04T06:56:31Z</time></trkpt><trkpt lat="42.06192749775741" lon="14.352509208043312"><ele>233.0</ele><time>2026-04-04T06:56:34Z</time></trkpt><trkpt lat="42.06186172055951" lon="14.352551374898392"><ele>233.0</ele><time>2026-04-04T06:56:37Z</time></trkpt><trkpt lat="42.06180127619689" lon="14.35259055957795"><ele>233.0</ele><time>2026-04-04T06:56:40Z</time></trkpt><trkpt lat="42.06173612195062" lon="14.352632506599944"><ele>233.0</ele><time>2026-04-04T06:56:43Z</time></trkpt><trkpt lat="42.06165731348087" lon="14.352675167980406"><ele>233.0</ele><time>2026-04-04T06:56:46.999Z</time></trkpt><trkpt lat="42.06159755017247" lon="14.35270938304137"><ele>233.0</ele><time>2026-04-04T06:56:49.999Z</time></trkpt><trkpt lat="42.06153340857507" lon="14.352721158839405"><ele>233.0</ele><time>2026-04-04T06:56:52.999Z</time></trkpt><trkpt lat="42.06146573349332" lon="14.352742123976867"><ele>233.0</ele><time>2026-04-04T06:56:55.999Z</time></trkpt><trkpt lat="42.0613972268951" lon="14.352746963815514"><ele>232.14285714285717</ele><time>2026-04-04T06:56:58.999Z</time></trkpt><trkpt lat="42.061326053737076" lon="14.352761801533706"><ele>231.28571428571428</ele><time>2026-04-04T06:57:01.999Z</time></trkpt><trkpt lat="42.061261789769915" lon="14.352771514267252"><ele>230.42857142857144</ele><time>2026-04-04T06:57:04.999Z</time></trkpt><trkpt lat="42.06119235604962" lon="14.35278495160429"><ele>229.57142857142858</ele><time>2026-04-04T06:57:07.999Z</time></trkpt><trkpt lat="42.06112997461047" lon="14.352800896689216"><ele>228.71428571428572</ele><time>2026-04-04T06:57:10.999Z</time></trkpt><trkpt lat="42.061049909978145" lon="14.352827159218121"><ele>227.85714285714286</ele><time>2026-04-04T06:57:14.999Z</time></trkpt><trkpt lat="42.060983915311745" lon="14.35284487583296"><ele>227.0</ele><time>2026-04-04T06:57:17.999Z</time></trkpt><trkpt lat="42.06091808326347" lon="14.352863804089303"><ele>227.0</ele><time>2026-04-04T06:57:20.999Z</time></trkpt><trkpt lat="42.060855598327464" lon="14.35288339772185"><ele>227.00000000000003</ele><time>2026-04-04T06:57:23.999Z</time></trkpt><trkpt lat="42.06077536185488" lon="14.352908974267416"><ele>227.0</ele><time>2026-04-04T06:57:27.999Z</time></trkpt><trkpt lat="42.06071181132048" lon="14.352929751829889"><ele>227.0</ele><time>2026-04-04T06:57:30.999Z</time></trkpt><trkpt lat="42.06064205951038" lon="14.352941621338434"><ele>227.00000000000003</ele><time>2026-04-04T06:57:33.999Z</time></trkpt><trkpt lat="42.06057830402433" lon="14.352953877958246"><ele>227.0</ele><time>2026-04-04T06:57:36.999Z</time></trkpt><trkpt lat="42.06049653883873" lon="14.352983557254616"><ele>227.0</ele><time>2026-04-04T06:57:40.999Z</time></trkpt><trkpt lat="42.06043205985865" lon="14.35299262632234"><ele>224.85714285714286</ele><time>2026-04-04T06:57:43.998Z</time></trkpt><trkpt lat="42.06036560682878" lon="14.353011077315715"><ele>222.71428571428572</ele><time>2026-04-04T06:57:46.998Z</time></trkpt><trkpt lat="42.06030124885408" lon="14.353036655879686"><ele>220.57142857142858</ele><time>2026-04-04T06:57:49.998Z</time></trkpt><trkpt lat="42.06021722604545" lon="14.353056856315293"><ele>218.42857142857144</ele><time>2026-04-04T06:57:53.998Z</time></trkpt><trkpt lat="42.06013504269176" lon="14.353085524316226"><ele>216.28571428571428</ele><time>2026-04-04T06:57:57.998Z</time></trkpt><trkpt lat="42.06006505983566" lon="14.35310071154946"><ele>214.14285714285717</ele><time>2026-04-04T06:58:00.998Z</time></trkpt><trkpt lat="42.06000078225884" lon="14.353124960240056"><ele>212.0</ele><time>2026-04-04T06:58:04Z</time></trkpt><trkpt lat="42.05993839278849" lon="14.353143735499321"><ele>217.42857142857144</ele><time>2026-04-04T06:58:07Z</time></trkpt><trkpt lat="42.05986432298484" lon="14.353167502399566"><ele>222.85714285714283</ele><time>2026-04-04T06:58:11Z</time></trkpt><trkpt lat="42.05979045306105" lon="14.353193802577577"><ele>228.28571428571428</ele><time>2026-04-04T06:58:15Z</time></trkpt><trkpt lat="42.0597190859389" lon="14.353213287497955"><ele>233.71428571428572</ele><time>2026-04-04T06:58:19Z</time></trkpt><trkpt lat="42.05964587887497" lon="14.353243499694564"><ele>239.14285714285717</ele><time>2026-04-04T06:58:23Z</time></trkpt><trkpt lat="42.05958419115088" lon="14.353267060775838"><ele>244.57142857142856</ele><time>2026-04-04T06:58:26Z</time></trkpt><trkpt lat="42.05950924674305" lon="14.353297351929868"><ele>250.0</ele><time>2026-04-04T06:58:30Z</time></trkpt><trkpt lat="42.05942806074495" lon="14.353320395571014"><ele>249.99999999999997</ele><time>2026-04-04T06:58:34Z</time></trkpt><trkpt lat="42.05934991265382" lon="14.353335319376983"><ele>250.0</ele><time>2026-04-04T06:58:38Z</time></trkpt><trkpt lat="42.0592686716053" lon="14.353348298686289"><ele>250.0</ele><time>2026-04-04T06:58:42Z</time></trkpt><trkpt lat="42.059198037670484" lon="14.353355689522955"><ele>250.0</ele><time>2026-04-04T06:58:46Z</time></trkpt><trkpt lat="42.059121175293406" lon="14.353356452371834"><ele>249.99999999999997</ele><time>2026-04-04T06:58:50Z</time></trkpt><trkpt lat="42.059042053037" lon="14.353359492696477"><ele>250.0</ele><time>2026-04-04T06:58:53.999Z</time></trkpt><trkpt lat="42.05895732743573" lon="14.353351144324149"><ele>250.71428571428572</ele><time>2026-04-04T06:58:57.999Z</time></trkpt><trkpt lat="42.0588795405115" lon="14.353368039949054"><ele>251.42857142857144</ele><time>2026-04-04T06:59:01.999Z</time></trkpt><trkpt lat="42.05881641987792" lon="14.35335271395662"><ele>252.14285714285717</ele><time>2026-04-04T06:59:04.999Z</time></trkpt><trkpt lat="42.05873206382388" lon="14.353357134765544"><ele>252.85714285714286</ele><time>2026-04-04T06:59:08.999Z</time></trkpt><trkpt lat="42.05866560744903" lon="14.353350022429593"><ele>253.5714285714286</ele><time>2026-04-04T06:59:11.999Z</time></trkpt><trkpt lat="42.05859993884353" lon="14.353331927446925"><ele>254.2857142857143</ele><time>2026-04-04T06:59:14.999Z</time></trkpt><trkpt lat="42.05853134441401" lon="14.353321763027393"><ele>255.0</ele><time>2026-04-04T06:59:18.999Z</time></trkpt><trkpt lat="42.058450936348756" lon="14.353303348670726"><ele>255.0</ele><time>2026-04-04T06:59:21.999Z</time></trkpt><trkpt lat="42.058385108227284" lon="14.353282520210435"><ele>255.00000000000003</ele><time>2026-04-04T06:59:24.999Z</time></trkpt><trkpt lat="42.058301008130876" lon="14.353273615169428"><ele>255.0</ele><time>2026-04-04T06:59:28.999Z</time></trkpt><trkpt lat="42.0582368441622" lon="14.353275577839337"><ele>255.0</ele><time>2026-04-04T06:59:31.999Z</time></trkpt><trkpt lat="42.05815952924155" lon="14.35327760649475"><ele>255.00000000000003</ele><time>2026-04-04T06:59:35.999Z</time></trkpt><trkpt lat="42.058083860663224" lon="14.353299123622294"><ele>255.0</ele><time>2026-04-04T06:59:39.999Z</time></trkpt><trkpt lat="42.05801121254488" lon="14.353307657997656"><ele>255.0</ele><time>2026-04-04T06:59:43.999Z</time></trkpt><trkpt lat="42.057941337436546" lon="14.353331350500278"><ele>255.33333333333334</ele><time>2026-04-04T06:59:47.998Z</time></trkpt><trkpt lat="42.057864144963744" lon="14.35335731305673"><ele>255.66666666666669</ele><time>2026-04-04T06:59:51.998Z</time></trkpt><trkpt lat="42.057787084948046" lon="14.353379344436245"><ele>256.0</ele><time>2026-04-04T06:59:55.998Z</time></trkpt><trkpt lat="42.05770723310095" lon="14.353401469086027"><ele>256.33333333333337</ele><time>2026-04-04T06:59:59.998Z</time></trkpt><trkpt lat="42.05762726360475" lon="14.353422151668836"><ele>256.6666666666667</ele><time>2026-04-04T07:00:03.998Z</time></trkpt><trkpt lat="42.057564365043504" lon="14.353444020392917"><ele>257.0</ele><time>2026-04-04T07:00:06.998Z</time></trkpt><trkpt lat="42.057502072478485" lon="14.35346208113378"><ele>257.2857142857143</ele><time>2026-04-04T07:00:10Z</time></trkpt><trkpt lat="42.05742783364518" lon="14.353494024293608"><ele>257.57142857142856</ele><time>2026-04-04T07:00:14Z</time></trkpt><trkpt lat="42.05736453655117" lon="14.353510797621386"><ele>257.8571428571429</ele><time>2026-04-04T07:00:17Z</time></trkpt><trkpt lat="42.057302050639926" lon="14.353535457160557"><ele>258.1428571428571</ele><time>2026-04-04T07:00:20Z</time></trkpt><trkpt lat="42.05724124324923" lon="14.35355920518138"><ele>258.42857142857144</ele><time>2026-04-04T07:00:23Z</time></trkpt><trkpt lat="42.057178750878975" lon="14.353583770031069"><ele>258.7142857142857</ele><time>2026-04-04T07:00:26Z</time></trkpt><trkpt lat="42.0571019202892" lon="14.353605373778528"><ele>259.0</ele><time>2026-04-04T07:00:30Z</time></trkpt><trkpt lat="42.0570189313379" lon="14.353628822576995"><ele>259.0</ele><time>2026-04-04T07:00:34Z</time></trkpt><trkpt lat="42.05694017899239" lon="14.353656473053851"><ele>259.0</ele><time>2026-04-04T07:00:38Z</time></trkpt><trkpt lat="42.05685758651802" lon="14.353673570278879"><ele>259.0</ele><time>2026-04-04T07:00:42Z</time></trkpt><trkpt lat="42.056779411954764" lon="14.353682783059982"><ele>259.0</ele><time>2026-04-04T07:00:46Z</time></trkpt><trkpt lat="42.05669865664592" lon="14.35368129696005"><ele>259.0</ele><time>2026-04-04T07:00:49.999Z</time></trkpt><trkpt lat="42.056633674611035" lon="14.353666150510177"><ele>259.0</ele><time>2026-04-04T07:00:52.999Z</time></trkpt><trkpt lat="42.056550731175875" lon="14.35365194403505"><ele>261.57142857142856</ele><time>2026-04-04T07:00:56.999Z</time></trkpt><trkpt lat="42.05648735835761" lon="14.353646047755376"><ele>264.1428571428571</ele><time>2026-04-04T07:00:59.999Z</time></trkpt><trkpt lat="42.05640713720031" lon="14.353633202767112"><ele>266.7142857142857</ele><time>2026-04-04T07:01:03.999Z</time></trkpt><trkpt lat="42.05632583156851" lon="14.353618358516195"><ele>269.2857142857143</ele><time>2026-04-04T07:01:07.999Z</time></trkpt><trkpt lat="42.0562459790943" lon="14.353600169730761"><ele>271.85714285714283</ele><time>2026-04-04T07:01:11.999Z</time></trkpt><trkpt lat="42.05618448530984" lon="14.353575632787472"><ele>274.42857142857144</ele><time>2026-04-04T07:01:14.999Z</time></trkpt><trkpt lat="42.0561241229046" lon="14.353547376509225"><ele>277.0</ele><time>2026-04-04T07:01:17.999Z</time></trkpt><trkpt lat="42.0560542360334" lon="14.353544492714114"><ele>277.0</ele><time>2026-04-04T07:01:20.999Z</time></trkpt><trkpt lat="42.05599986304181" lon="14.35350071878295"><ele>277.0</ele><time>2026-04-04T07:01:23.999Z</time></trkpt><trkpt lat="42.05594243868065" lon="14.353462861502855"><ele>277.0</ele><time>2026-04-04T07:01:26.999Z</time></trkpt><trkpt lat="42.05588415036643" lon="14.353425525563285"><ele>277.0</ele><time>2026-04-04T07:01:29.999Z</time></trkpt><trkpt lat="42.05582709723996" lon="14.353384324259618"><ele>277.0</ele><time>2026-04-04T07:01:32.999Z</time></trkpt><trkpt lat="42.055757102274946" lon="14.35333682469398"><ele>277.0</ele><time>2026-04-04T07:01:36.999Z</time></trkpt><trkpt lat="42.055693575864986" lon="14.35329255264048"><ele>277.0</ele><time>2026-04-04T07:01:40.999Z</time></trkpt><trkpt lat="42.05563451751655" lon="14.353243103041175"><ele>276.85714285714283</ele><time>2026-04-04T07:01:43.999Z</time></trkpt><trkpt lat="42.055566794986966" lon="14.353185893061704"><ele>276.71428571428567</ele><time>2026-04-04T07:01:47.998Z</time></trkpt><trkpt lat="42.055507431324116" lon="14.353151252251855"><ele>276.57142857142856</ele><time>2026-04-04T07:01:50.998Z</time></trkpt><trkpt lat="42.05545768257367" lon="14.353098292599036"><ele>276.42857142857144</ele><time>2026-04-04T07:01:53.998Z</time></trkpt><trkpt lat="42.05538780066869" lon="14.353040226901683"><ele>276.28571428571433</ele><time>2026-04-04T07:01:57.998Z</time></trkpt><trkpt lat="42.055337315826165" lon="14.352981517886867"><ele>276.14285714285717</ele><time>2026-04-04T07:02:00.998Z</time></trkpt><trkpt lat="42.0552809175052" lon="14.352928169946242"><ele>276.0</ele><time>2026-04-04T07:02:03.998Z</time></trkpt><trkpt lat="42.05522950573731" lon="14.352872365773615"><ele>276.0</ele><time>2026-04-04T07:02:06.998Z</time></trkpt><trkpt lat="42.055172188170104" lon="14.352806839608807"><ele>276.0</ele><time>2026-04-04T07:02:10.998Z</time></trkpt><trkpt lat="42.05510826308166" lon="14.352738082254653"><ele>276.0</ele><time>2026-04-04T07:02:15Z</time></trkpt><trkpt lat="42.05505065493291" lon="14.352656229030604"><ele>276.0</ele><time>2026-04-04T07:02:19Z</time></trkpt><trkpt lat="42.055004600041244" lon="14.352595017884683"><ele>276.0</ele><time>2026-04-04T07:02:22Z</time></trkpt><trkpt lat="42.05495004831691" lon="14.352525628472833"><ele>276.0</ele><time>2026-04-04T07:02:26Z</time></trkpt><trkpt lat="42.05490061589013" lon="14.35246721534438"><ele>276.0</ele><time>2026-04-04T07:02:29Z</time></trkpt><trkpt lat="42.05484846573629" lon="14.352414630019027"><ele>274.57142857142856</ele><time>2026-04-04T07:02:32Z</time></trkpt><trkpt lat="42.05479466682017" lon="14.352361848997342"><ele>273.14285714285717</ele><time>2026-04-04T07:02:35Z</time></trkpt><trkpt lat="42.05473864140841" lon="14.35231440342415"><ele>271.7142857142857</ele><time>2026-04-04T07:02:38Z</time></trkpt><trkpt lat="42.054683621173304" lon="14.352264456033438"><ele>270.2857142857143</ele><time>2026-04-04T07:02:41Z</time></trkpt><trkpt lat="42.05461421690197" lon="14.35221291642698"><ele>268.8571428571429</ele><time>2026-04-04T07:02:45Z</time></trkpt><trkpt lat="42.05455670285343" lon="14.35217240955207"><ele>267.42857142857144</ele><time>2026-04-04T07:02:48Z</time></trkpt><trkpt lat="42.05449986966319" lon="14.352135380893046"><ele>266.0</ele><time>2026-04-04T07:02:51Z</time></trkpt><trkpt lat="42.05442719738213" lon="14.352090639104597"><ele>266.0</ele><time>2026-04-04T07:02:54.999Z</time></trkpt><trkpt lat="42.05434982521991" lon="14.352061217636985"><ele>266.0</ele><time>2026-04-04T07:02:58.999Z</time></trkpt><trkpt lat="42.0542848677035" lon="14.352056066569736"><ele>266.0</ele><time>2026-04-04T07:03:01.999Z</time></trkpt><trkpt lat="42.0542230541356" lon="14.35203734896771"><ele>266.0</ele><time>2026-04-04T07:03:04.999Z</time></trkpt><trkpt lat="42.054156017105086" lon="14.352032522847365"><ele>266.0</ele><time>2026-04-04T07:03:07.999Z</time></trkpt><trkpt lat="42.05409360048499" lon="14.352046654989751"><ele>266.0</ele><time>2026-04-04T07:03:10.999Z</time></trkpt><trkpt lat="42.05401754351044" lon="14.35207228721186"><ele>266.0</ele><time>2026-04-04T07:03:14.999Z</time></trkpt><trkpt lat="42.053938368699505" lon="14.352101275206515"><ele>265.14285714285717</ele><time>2026-04-04T07:03:18.999Z</time></trkpt><trkpt lat="42.053866605344545" lon="14.352129055774222"><ele>264.2857142857143</ele><time>2026-04-04T07:03:22.999Z</time></trkpt><trkpt lat="42.053789167771505" lon="14.352153679226994"><ele>263.42857142857144</ele><time>2026-04-04T07:03:26.999Z</time></trkpt><trkpt lat="42.053705097743396" lon="14.352150626485153"><ele>262.57142857142856</ele><time>2026-04-04T07:03:30.999Z</time></trkpt><trkpt lat="42.05364632188973" lon="14.352115807015458"><ele>261.7142857142857</ele><time>2026-04-04T07:03:33.999Z</time></trkpt><trkpt lat="42.053584643753034" lon="14.352078018823018"><ele>260.8571428571429</ele><time>2026-04-04T07:03:36.999Z</time></trkpt><trkpt lat="42.05352216884777" lon="14.352052095770357"><ele>260.0</ele><time>2026-04-04T07:03:39.999Z</time></trkpt><trkpt lat="42.05343869775321" lon="14.3520286093295"><ele>260.0</ele><time>2026-04-04T07:03:43.999Z</time></trkpt><trkpt lat="42.05335774415561" lon="14.352032766394005"><ele>260.0</ele><time>2026-04-04T07:03:47.999Z</time></trkpt><trkpt lat="42.05327712339999" lon="14.3520640991558"><ele>260.0</ele><time>2026-04-04T07:03:51.998Z</time></trkpt><trkpt lat="42.053218009449104" lon="14.352094062302841"><ele>260.0</ele><time>2026-04-04T07:03:54.998Z</time></trkpt><trkpt lat="42.05315846450223" lon="14.352127763348525"><ele>260.0</ele><time>2026-04-04T07:03:57.998Z</time></trkpt><trkpt lat="42.05308673535804" lon="14.35218208507467"><ele>260.0</ele><time>2026-04-04T07:04:01.998Z</time></trkpt><trkpt lat="42.05300995041071" lon="14.352230644360288"><ele>264.33333333333337</ele><time>2026-04-04T07:04:05.998Z</time></trkpt><trkpt lat="42.05293683632326" lon="14.35228697627378"><ele>268.6666666666667</ele><time>2026-04-04T07:04:09.998Z</time></trkpt><trkpt lat="42.05287560270957" lon="14.35232421542265"><ele>273.0</ele><time>2026-04-04T07:04:12.998Z</time></trkpt><trkpt lat="42.05279804524273" lon="14.35236098213907"><ele>277.3333333333333</ele><time>2026-04-04T07:04:16.998Z</time></trkpt><trkpt lat="42.052732371527895" lon="14.352402142368982"><ele>281.66666666666663</ele><time>2026-04-04T07:04:21Z</time></trkpt><trkpt lat="42.05267523917624" lon="14.352440643496273"><ele>286.0</ele><time>2026-04-04T07:04:24Z</time></trkpt><trkpt lat="42.052602639651006" lon="14.352494354065927"><ele>286.0</ele><time>2026-04-04T07:04:28Z</time></trkpt><trkpt lat="42.05253249478192" lon="14.35255165736793"><ele>286.0</ele><time>2026-04-04T07:04:32Z</time></trkpt><trkpt lat="42.05247870372157" lon="14.35262593870471"><ele>286.0</ele><time>2026-04-04T07:04:36Z</time></trkpt><trkpt lat="42.05242798779399" lon="14.352706076199107"><ele>286.0</ele><time>2026-04-04T07:04:40Z</time></trkpt><trkpt lat="42.052397428515626" lon="14.352805320746947"><ele>286.0</ele><time>2026-04-04T07:04:42Z</time></trkpt><trkpt lat="42.052327108053504" lon="14.352842939208003"><ele>286.0</ele><time>2026-04-04T07:04:47Z</time></trkpt><trkpt lat="42.05225994563435" lon="14.352900810792866"><ele>283.99999999999994</ele><time>2026-04-04T07:04:51Z</time></trkpt><trkpt lat="42.05219550064122" lon="14.352934848655691"><ele>282.0</ele><time>2026-04-04T07:04:55Z</time></trkpt><trkpt lat="42.05213445228794" lon="14.352956505893443"><ele>280.0</ele><time>2026-04-04T07:04:58Z</time></trkpt><trkpt lat="42.05206929500537" lon="14.352970483690989"><ele>278.0</ele><time>2026-04-04T07:05:00.999Z</time></trkpt><trkpt lat="42.051994189844606" lon="14.352994616563684"><ele>276.0</ele><time>2026-04-04T07:05:04.999Z</time></trkpt><trkpt lat="42.05191617205403" lon="14.353014216838282"><ele>273.99999999999994</ele><time>2026-04-04T07:05:08.999Z</time></trkpt><trkpt lat="42.05182703463973" lon="14.353011941846633"><ele>272.0</ele><time>2026-04-04T07:05:13.999Z</time></trkpt><trkpt lat="42.05176141479674" lon="14.353005865486749"><ele>271.99999999999994</ele><time>2026-04-04T07:05:16.999Z</time></trkpt><trkpt lat="42.05168391343776" lon="14.353008749726698"><ele>272.0</ele><time>2026-04-04T07:05:20.999Z</time></trkpt><trkpt lat="42.051619335150825" lon="14.352999452285712"><ele>272.0</ele><time>2026-04-04T07:05:23.999Z</time></trkpt><trkpt lat="42.0515441408892" lon="14.352986230171963"><ele>272.0</ele><time>2026-04-04T07:05:26.999Z</time></trkpt><trkpt lat="42.05147198385716" lon="14.352977467483278"><ele>272.0</ele><time>2026-04-04T07:05:30.999Z</time></trkpt><trkpt lat="42.05139405047999" lon="14.352976357362232"><ele>271.99999999999994</ele><time>2026-04-04T07:05:34.999Z</time></trkpt><trkpt lat="42.05132585229447" lon="14.352964447937618"><ele>272.0</ele><time>2026-04-04T07:05:37.999Z</time></trkpt><trkpt lat="42.05124826895073" lon="14.352961160418385"><ele>271.33333333333337</ele><time>2026-04-04T07:05:41.999Z</time></trkpt><trkpt lat="42.051177771868566" lon="14.352960549110085"><ele>270.6666666666667</ele><time>2026-04-04T07:05:44.999Z</time></trkpt><trkpt lat="42.05109894067147" lon="14.35296615822784"><ele>270.0</ele><time>2026-04-04T07:05:47.999Z</time></trkpt><trkpt lat="42.05102201138587" lon="14.352993332932726"><ele>269.3333333333333</ele><time>2026-04-04T07:05:51.999Z</time></trkpt><trkpt lat="42.05095259731893" lon="14.353024230565316"><ele>268.66666666666663</ele><time>2026-04-04T07:05:55.998Z</time></trkpt><trkpt lat="42.050889170191795" lon="14.353053197711318"><ele>268.0</ele><time>2026-04-04T07:05:58.998Z</time></trkpt><trkpt lat="42.050811256690096" lon="14.353092291324481"><ele>272.57142857142856</ele><time>2026-04-04T07:06:02.998Z</time></trkpt><trkpt lat="42.05075039072079" lon="14.353125948916645"><ele>277.1428571428571</ele><time>2026-04-04T07:06:05.998Z</time></trkpt><trkpt lat="42.05069243174122" lon="14.35316009407118"><ele>281.71428571428567</ele><time>2026-04-04T07:06:08.998Z</time></trkpt><trkpt lat="42.05061774236061" lon="14.353202609157135"><ele>286.2857142857143</ele><time>2026-04-04T07:06:12.998Z</time></trkpt><trkpt lat="42.05054350203243" lon="14.353248730013757"><ele>290.85714285714283</ele><time>2026-04-04T07:06:16.998Z</time></trkpt><trkpt lat="42.05046699354146" lon="14.353295249641494"><ele>295.4285714285714</ele><time>2026-04-04T07:06:20.998Z</time></trkpt><trkpt lat="42.05040606796597" lon="14.353327660704418"><ele>300.0</ele><time>2026-04-04T07:06:23.998Z</time></trkpt><trkpt lat="42.050345083250775" lon="14.353361956412028"><ele>299.99999999999994</ele><time>2026-04-04T07:06:27Z</time></trkpt><trkpt lat="42.05028459795907" lon="14.353396822289092"><ele>300.0</ele><time>2026-04-04T07:06:30Z</time></trkpt><trkpt lat="42.050224388103295" lon="14.353427867034434"><ele>300.0</ele><time>2026-04-04T07:06:33Z</time></trkpt><trkpt lat="42.05014661285287" lon="14.353460565830078"><ele>300.0</ele><time>2026-04-04T07:06:37Z</time></trkpt><trkpt lat="42.05008436489024" lon="14.353479469878103"><ele>300.0</ele><time>2026-04-04T07:06:40Z</time></trkpt><trkpt lat="42.05001154352085" lon="14.353497986508565"><ele>299.99999999999994</ele><time>2026-04-04T07:06:44Z</time></trkpt><trkpt lat="42.04994792969023" lon="14.353498404388858"><ele>300.0</ele><time>2026-04-04T07:06:47Z</time></trkpt><trkpt lat="42.049865791223624" lon="14.353485762553188"><ele>298.85714285714283</ele><time>2026-04-04T07:06:51Z</time></trkpt><trkpt lat="42.04980300233936" lon="14.35347663972318"><ele>297.7142857142857</ele><time>2026-04-04T07:06:54Z</time></trkpt><trkpt lat="42.049719992747754" lon="14.353465849642188"><ele>296.57142857142856</ele><time>2026-04-04T07:06:58Z</time></trkpt><trkpt lat="42.04964192685554" lon="14.353456272994778"><ele>295.42857142857144</ele><time>2026-04-04T07:07:01.999Z</time></trkpt><trkpt lat="42.04955826686661" lon="14.353444830287394"><ele>294.2857142857143</ele><time>2026-04-04T07:07:05.999Z</time></trkpt><trkpt lat="42.049492525452365" lon="14.353442618711506"><ele>293.1428571428571</ele><time>2026-04-04T07:07:08.999Z</time></trkpt><trkpt lat="42.04942578669895" lon="14.353449696538085"><ele>292.0</ele><time>2026-04-04T07:07:11.999Z</time></trkpt><trkpt lat="42.04934187777818" lon="14.35347016276704"><ele>292.0</ele><time>2026-04-04T07:07:15.999Z</time></trkpt><trkpt lat="42.04927282982052" lon="14.353490178211446"><ele>292.0</ele><time>2026-04-04T07:07:18.999Z</time></trkpt><trkpt lat="42.04920883265503" lon="14.353520501438352"><ele>292.0</ele><time>2026-04-04T07:07:21.999Z</time></trkpt><trkpt lat="42.04914739744759" lon="14.353555439186081"><ele>292.0</ele><time>2026-04-04T07:07:24.999Z</time></trkpt><trkpt lat="42.04909167888672" lon="14.353605796322997"><ele>292.0</ele><time>2026-04-04T07:07:27.999Z</time></trkpt><trkpt lat="42.04902043764529" lon="14.353671787455262"><ele>292.0</ele><time>2026-04-04T07:07:31.999Z</time></trkpt><trkpt lat="42.04896885710045" lon="14.353724289626754"><ele>292.0</ele><time>2026-04-04T07:07:34.999Z</time></trkpt><trkpt lat="42.04890173465415" lon="14.353794256856952"><ele>289.85714285714283</ele><time>2026-04-04T07:07:38.999Z</time></trkpt><trkpt lat="42.04884792659995" lon="14.35384322766432"><ele>287.7142857142857</ele><time>2026-04-04T07:07:41.999Z</time></trkpt><trkpt lat="42.04879145662025" lon="14.353889338641844"><ele>285.57142857142856</ele><time>2026-04-04T07:07:44.999Z</time></trkpt><trkpt lat="42.048730665918036" lon="14.353928254320493"><ele>283.42857142857144</ele><time>2026-04-04T07:07:47.999Z</time></trkpt><trkpt lat="42.04867266786782" lon="14.353962011222928"><ele>281.2857142857143</ele><time>2026-04-04T07:07:50.999Z</time></trkpt><trkpt lat="42.048597334660286" lon="14.354004123660077"><ele>279.1428571428571</ele><time>2026-04-04T07:07:54.998Z</time></trkpt><trkpt lat="42.04853809288191" lon="14.354033190250318"><ele>277.0</ele><time>2026-04-04T07:07:57.998Z</time></trkpt><trkpt lat="42.04847818944112" lon="14.354062412776214"><ele>280.1428571428571</ele><time>2026-04-04T07:08:00.998Z</time></trkpt><trkpt lat="42.048414756897" lon="14.354089813613834"><ele>283.2857142857143</ele><time>2026-04-04T07:08:03.998Z</time></trkpt><trkpt lat="42.04835358951075" lon="14.354115605482145"><ele>286.42857142857144</ele><time>2026-04-04T07:08:06.998Z</time></trkpt><trkpt lat="42.048286796770164" lon="14.354133826781572"><ele>289.57142857142856</ele><time>2026-04-04T07:08:09.998Z</time></trkpt><trkpt lat="42.048208768356474" lon="14.354166701866943"><ele>292.7142857142857</ele><time>2026-04-04T07:08:13.998Z</time></trkpt><trkpt lat="42.04813687425401" lon="14.354208553135953"><ele>295.85714285714283</ele><time>2026-04-04T07:08:17.998Z</time></trkpt><trkpt lat="42.0480577360033" lon="14.354247483493957"><ele>299.0</ele><time>2026-04-04T07:08:21.998Z</time></trkpt><trkpt lat="42.04799821545114" lon="14.354281571062538"><ele>299.0</ele><time>2026-04-04T07:08:24.998Z</time></trkpt><trkpt lat="42.04794329604451" lon="14.354323732650633"><ele>299.0</ele><time>2026-04-04T07:08:27.998Z</time></trkpt><trkpt lat="42.04788403834959" lon="14.354364547319788"><ele>299.0</ele><time>2026-04-04T07:08:30.998Z</time></trkpt><trkpt lat="42.04783150389902" lon="14.354422850562736"><ele>299.0</ele><time>2026-04-04T07:08:35Z</time></trkpt><trkpt lat="42.04778112388578" lon="14.354475616829967"><ele>299.0</ele><time>2026-04-04T07:08:38Z</time></trkpt><trkpt lat="42.04770589478608" lon="14.354527817925126"><ele>299.0</ele><time>2026-04-04T07:08:42Z</time></trkpt><trkpt lat="42.04763647106648" lon="14.354591699003084"><ele>299.0</ele><time>2026-04-04T07:08:46Z</time></trkpt><trkpt lat="42.047585475603434" lon="14.354645021094154"><ele>301.1428571428571</ele><time>2026-04-04T07:08:49Z</time></trkpt><trkpt lat="42.04753770460693" lon="14.354712034047125"><ele>303.2857142857143</ele><time>2026-04-04T07:08:52Z</time></trkpt><trkpt lat="42.047491421608946" lon="14.35477674823939"><ele>305.42857142857144</ele><time>2026-04-04T07:08:55Z</time></trkpt><trkpt lat="42.04745246604019" lon="14.354849936196594"><ele>307.57142857142856</ele><time>2026-04-04T07:08:58Z</time></trkpt><trkpt lat="42.04741430252068" lon="14.354921170783694"><ele>309.7142857142857</ele><time>2026-04-04T07:09:01Z</time></trkpt><trkpt lat="42.047367504735675" lon="14.355014137523456"><ele>311.85714285714283</ele><time>2026-04-04T07:09:04.999Z</time></trkpt><trkpt lat="42.04733085035002" lon="14.355088073948519"><ele>314.0</ele><time>2026-04-04T07:09:07.999Z</time></trkpt><trkpt lat="42.047287339561464" lon="14.355155464394118"><ele>313.99999999999994</ele><time>2026-04-04T07:09:10.999Z</time></trkpt><trkpt lat="42.047240448854666" lon="14.355219491723052"><ele>314.0</ele><time>2026-04-04T07:09:13.999Z</time></trkpt><trkpt lat="42.04718960208536" lon="14.355280358414953"><ele>314.0</ele><time>2026-04-04T07:09:16.999Z</time></trkpt><trkpt lat="42.04714005724297" lon="14.355333924077913"><ele>314.0</ele><time>2026-04-04T07:09:19.999Z</time></trkpt><trkpt lat="42.047069189071394" lon="14.355395972259004"><ele>314.0</ele><time>2026-04-04T07:09:23.999Z</time></trkpt><trkpt lat="42.04700167679464" lon="14.355454051453231"><ele>313.99999999999994</ele><time>2026-04-04T07:09:27.999Z</time></trkpt><trkpt lat="42.04693603127823" lon="14.355515576189262"><ele>314.0</ele><time>2026-04-04T07:09:31.999Z</time></trkpt><trkpt lat="42.04687443803055" lon="14.355582016920073"><ele>315.85714285714283</ele><time>2026-04-04T07:09:35.999Z</time></trkpt><trkpt lat="42.04681761638501" lon="14.3556257974989"><ele>317.7142857142857</ele><time>2026-04-04T07:09:38.999Z</time></trkpt><trkpt lat="42.04675007489298" lon="14.355683993470361"><ele>319.57142857142856</ele><time>2026-04-04T07:09:42.999Z</time></trkpt><trkpt lat="42.04668211796968" lon="14.355752538671778"><ele>321.42857142857144</ele><time>2026-04-04T07:09:46.999Z</time></trkpt><trkpt lat="42.04662837969654" lon="14.355798573693308"><ele>323.2857142857143</ele><time>2026-04-04T07:09:49.999Z</time></trkpt><trkpt lat="42.04657931957216" lon="14.355852340439695"><ele>325.1428571428571</ele><time>2026-04-04T07:09:52.999Z</time></trkpt><trkpt lat="42.046528161838054" lon="14.355902661909871"><ele>327.0</ele><time>2026-04-04T07:09:55.999Z</time></trkpt><trkpt lat="42.046473323575675" lon="14.35595157028436"><ele>323.42857142857144</ele><time>2026-04-04T07:09:58.998Z</time></trkpt><trkpt lat="42.04640487290498" lon="14.35601545999051"><ele>319.8571428571429</ele><time>2026-04-04T07:10:02.998Z</time></trkpt><trkpt lat="42.046352656205016" lon="14.356065650790443"><ele>316.28571428571433</ele><time>2026-04-04T07:10:05.998Z</time></trkpt><trkpt lat="42.04629930778649" lon="14.35611526686539"><ele>312.7142857142857</ele><time>2026-04-04T07:10:08.998Z</time></trkpt><trkpt lat="42.046234048225834" lon="14.356182563676697"><ele>309.14285714285717</ele><time>2026-04-04T07:10:12.998Z</time></trkpt><trkpt lat="42.04618804975417" lon="14.35624458269067"><ele>305.5714285714286</ele><time>2026-04-04T07:10:15.998Z</time></trkpt><trkpt lat="42.046141250900824" lon="14.356310924359722"><ele>302.0</ele><time>2026-04-04T07:10:18.998Z</time></trkpt><trkpt lat="42.046102975464756" lon="14.356384172089763"><ele>302.00000000000006</ele><time>2026-04-04T07:10:21.998Z</time></trkpt><trkpt lat="42.0460727991209" lon="14.356461871971026"><ele>302.0</ele><time>2026-04-04T07:10:24.998Z</time></trkpt><trkpt lat="42.046050837335336" lon="14.356550109229746"><ele>302.0</ele><time>2026-04-04T07:10:27.998Z</time></trkpt><trkpt lat="42.046044584045056" lon="14.356644006054596"><ele>302.0</ele><time>2026-04-04T07:10:30.998Z</time></trkpt><trkpt lat="42.04604920385688" lon="14.356734209080546"><ele>302.0</ele><time>2026-04-04T07:10:33.998Z</time></trkpt><trkpt lat="42.04607574821267" lon="14.356814756561803"><ele>302.00000000000006</ele><time>2026-04-04T07:10:36.998Z</time></trkpt><trkpt lat="42.04611059286667" lon="14.356888988290013"><ele>302.0</ele><time>2026-04-04T07:10:40Z</time></trkpt><trkpt lat="42.046150033591914" lon="14.35695760903937"><ele>302.0</ele><time>2026-04-04T07:10:43Z</time></trkpt><trkpt lat="42.04619241519931" lon="14.357046545876656"><ele>302.0</ele><time>2026-04-04T07:10:47Z</time></trkpt><trkpt lat="42.04623345668296" lon="14.357112274268065"><ele>302.0</ele><time>2026-04-04T07:10:50Z</time></trkpt><trkpt lat="42.046286418695225" lon="14.357198654344025"><ele>302.0</ele><time>2026-04-04T07:10:54Z</time></trkpt><trkpt lat="42.04633224177308" lon="14.357288654561515"><ele>302.0</ele><time>2026-04-04T07:10:58Z</time></trkpt><trkpt lat="42.046374673383426" lon="14.357378665505099"><ele>302.0</ele><time>2026-04-04T07:11:02Z</time></trkpt><trkpt lat="42.04642276295946" lon="14.357458446365612"><ele>301.28571428571433</ele><time>2026-04-04T07:11:05.999Z</time></trkpt><trkpt lat="42.046468320241615" lon="14.357523535530586"><ele>300.57142857142856</ele><time>2026-04-04T07:11:08.999Z</time></trkpt><trkpt lat="42.04653602204925" lon="14.357592430680905"><ele>299.8571428571429</ele><time>2026-04-04T07:11:12.999Z</time></trkpt><trkpt lat="42.046598222290605" lon="14.357618282344783"><ele>299.14285714285717</ele><time>2026-04-04T07:11:15.999Z</time></trkpt><trkpt lat="42.04666125579725" lon="14.357624571458718"><ele>298.42857142857144</ele><time>2026-04-04T07:11:18.999Z</time></trkpt><trkpt lat="42.04672471906486" lon="14.357597183465936"><ele>297.7142857142857</ele><time>2026-04-04T07:11:22.999Z</time></trkpt><trkpt lat="42.046787680218976" lon="14.357562814056509"><ele>297.0</ele><time>2026-04-04T07:11:31.999Z</time></trkpt><trkpt lat="42.046854892818416" lon="14.357530514974579"><ele>301.8333333333333</ele><time>2026-04-04T07:14:52Z</time></trkpt><trkpt lat="42.04690933402076" lon="14.357485297695849"><ele>306.6666666666667</ele><time>2026-04-04T07:14:57Z</time></trkpt><trkpt lat="42.04698028886693" lon="14.35744035242758"><ele>311.5</ele><time>2026-04-04T07:15:03Z</time></trkpt><trkpt lat="42.047050190096066" lon="14.357405696364625"><ele>316.33333333333337</ele><time>2026-04-04T07:15:07Z</time></trkpt><trkpt lat="42.04712206841113" lon="14.357388955043744"><ele>321.1666666666667</ele><time>2026-04-04T07:15:10.999Z</time></trkpt><trkpt lat="42.047200945615266" lon="14.357370164527742"><ele>326.0</ele><time>2026-04-04T07:15:14.999Z</time></trkpt><trkpt lat="42.04728076034424" lon="14.357372641458337"><ele>326.0</ele><time>2026-04-04T07:15:18.999Z</time></trkpt><trkpt lat="42.04734381737364" lon="14.357365967529093"><ele>326.0</ele><time>2026-04-04T07:15:21.999Z</time></trkpt><trkpt lat="42.04741982007324" lon="14.35735906296796"><ele>326.0</ele><time>2026-04-04T07:15:25.999Z</time></trkpt><trkpt lat="42.04748469586897" lon="14.35734101284428"><ele>326.0</ele><time>2026-04-04T07:15:28.999Z</time></trkpt><trkpt lat="42.04754767216656" lon="14.357330377423011"><ele>326.0</ele><time>2026-04-04T07:15:31.999Z</time></trkpt><trkpt lat="42.04761561382985" lon="14.35732771133976"><ele>326.0</ele><time>2026-04-04T07:15:34.999Z</time></trkpt><trkpt lat="42.04768165546245" lon="14.35733629869244"><ele>326.0</ele><time>2026-04-04T07:15:37.999Z</time></trkpt><trkpt lat="42.04776222469824" lon="14.357324352748178"><ele>327.8571428571429</ele><time>2026-04-04T07:15:41.999Z</time></trkpt><trkpt lat="42.047840177313496" lon="14.357343408435863"><ele>329.71428571428567</ele><time>2026-04-04T07:15:45.999Z</time></trkpt><trkpt lat="42.047906657755526" lon="14.35736385619955"><ele>331.57142857142856</ele><time>2026-04-04T07:15:48.999Z</time></trkpt><trkpt lat="42.047968273544576" lon="14.357391643936728"><ele>333.42857142857144</ele><time>2026-04-04T07:15:51.999Z</time></trkpt><trkpt lat="42.048032324054255" lon="14.35742353314526"><ele>335.28571428571433</ele><time>2026-04-04T07:15:54.999Z</time></trkpt><trkpt lat="42.048099867704224" lon="14.35743231789526"><ele>337.1428571428571</ele><time>2026-04-04T07:15:57.999Z</time></trkpt><trkpt lat="42.04816728623845" lon="14.357440167344718"><ele>339.0</ele><time>2026-04-04T07:16:00.999Z</time></trkpt><trkpt lat="42.04823660920443" lon="14.357451311386555"><ele>339.4285714285714</ele><time>2026-04-04T07:16:03.998Z</time></trkpt><trkpt lat="42.048314383024774" lon="14.357453466280003"><ele>339.8571428571429</ele><time>2026-04-04T07:16:07.998Z</time></trkpt><trkpt lat="42.04837630830402" lon="14.357471739778513"><ele>340.2857142857143</ele><time>2026-04-04T07:16:10.998Z</time></trkpt><trkpt lat="42.04844458834334" lon="14.357489144425367"><ele>340.71428571428567</ele><time>2026-04-04T07:16:13.998Z</time></trkpt><trkpt lat="42.04851618115573" lon="14.357518776228455"><ele>341.1428571428571</ele><time>2026-04-04T07:16:16.998Z</time></trkpt><trkpt lat="42.04858366529229" lon="14.357564193546427"><ele>341.57142857142856</ele><time>2026-04-04T07:16:19.998Z</time></trkpt><trkpt lat="42.04864006679578" lon="14.357625405318295"><ele>342.0</ele><time>2026-04-04T07:16:22.998Z</time></trkpt><trkpt lat="42.04868906855841" lon="14.35768799020704"><ele>342.0</ele><time>2026-04-04T07:16:25.998Z</time></trkpt><trkpt lat="42.04872826939532" lon="14.357765399475559"><ele>342.0</ele><time>2026-04-04T07:16:28.998Z</time></trkpt><trkpt lat="42.04876470417717" lon="14.357845140391115"><ele>342.0</ele><time>2026-04-04T07:16:31.998Z</time></trkpt><trkpt lat="42.04879017173141" lon="14.357928342801559"><ele>342.0</ele><time>2026-04-04T07:16:34.998Z</time></trkpt><trkpt lat="42.04877858938145" lon="14.358020558136278"><ele>342.0</ele><time>2026-04-04T07:16:39.998Z</time></trkpt><trkpt lat="42.048786868693355" lon="14.358156880481737"><ele>342.0</ele><time>2026-04-04T07:16:44.998Z</time></trkpt><trkpt lat="42.04880707564041" lon="14.358252168596911"><ele>341.3333333333333</ele><time>2026-04-04T07:16:47.998Z</time></trkpt><trkpt lat="42.048844968285415" lon="14.358364281503972"><ele>340.6666666666667</ele><time>2026-04-04T07:16:50.998Z</time></trkpt><trkpt lat="42.0488708183164" lon="14.358452192751434"><ele>340.0</ele><time>2026-04-04T07:16:53.998Z</time></trkpt><trkpt lat="42.04891854998921" lon="14.358540114866486"><ele>339.33333333333337</ele><time>2026-04-04T07:16:57Z</time></trkpt><trkpt lat="42.048975327870686" lon="14.358613281592726"><ele>338.6666666666667</ele><time>2026-04-04T07:17:00Z</time></trkpt><trkpt lat="42.0490375089521" lon="14.358673588643246"><ele>338.0</ele><time>2026-04-04T07:17:03Z</time></trkpt><trkpt lat="42.049101462693635" lon="14.358715663881007"><ele>339.2857142857143</ele><time>2026-04-04T07:17:06Z</time></trkpt><trkpt lat="42.04918070343812" lon="14.358736814253746"><ele>340.57142857142856</ele><time>2026-04-04T07:17:10Z</time></trkpt><trkpt lat="42.04925380037159" lon="14.358775073327244"><ele>341.8571428571429</ele><time>2026-04-04T07:17:13.999Z</time></trkpt><trkpt lat="42.04932945998448" lon="14.35881314835304"><ele>343.1428571428571</ele><time>2026-04-04T07:17:17.999Z</time></trkpt><trkpt lat="42.04939906953757" lon="14.358830077978723"><ele>344.4285714285714</ele><time>2026-04-04T07:17:21.999Z</time></trkpt><trkpt lat="42.04945775376456" lon="14.35886171286247"><ele>345.7142857142857</ele><time>2026-04-04T07:17:24.999Z</time></trkpt><trkpt lat="42.04951611006166" lon="14.358901333950111"><ele>347.0</ele><time>2026-04-04T07:17:27.999Z</time></trkpt><trkpt lat="42.04958279878433" lon="14.35892810654259"><ele>347.0</ele><time>2026-04-04T07:17:31.999Z</time></trkpt><trkpt lat="42.04964947373849" lon="14.35897285234708"><ele>347.0</ele><time>2026-04-04T07:17:34.999Z</time></trkpt><trkpt lat="42.04972609742838" lon="14.359021496011069"><ele>347.0</ele><time>2026-04-04T07:17:38.999Z</time></trkpt><trkpt lat="42.049785837080776" lon="14.35906618321145"><ele>347.0</ele><time>2026-04-04T07:17:41.999Z</time></trkpt><trkpt lat="42.049840984238024" lon="14.359136426183923"><ele>347.0</ele><time>2026-04-04T07:17:45.999Z</time></trkpt><trkpt lat="42.04989686706651" lon="14.359205471756427"><ele>347.0</ele><time>2026-04-04T07:17:48.999Z</time></trkpt><trkpt lat="42.049939207839735" lon="14.359273970379608"><ele>347.0</ele><time>2026-04-04T07:17:51.999Z</time></trkpt><trkpt lat="42.04997624445451" lon="14.359348118585425"><ele>348.5</ele><time>2026-04-04T07:17:54.999Z</time></trkpt><trkpt lat="42.05001041738927" lon="14.359429127333666"><ele>350.0</ele><time>2026-04-04T07:17:57.999Z</time></trkpt><trkpt lat="42.05005058403426" lon="14.359527483118706"><ele>351.5</ele><time>2026-04-04T07:18:01.999Z</time></trkpt><trkpt lat="42.05007305238122" lon="14.359609465360117"><ele>353.0</ele><time>2026-04-04T07:18:04.999Z</time></trkpt><trkpt lat="42.0501085282817" lon="14.35970552541531"><ele>354.5</ele><time>2026-04-04T07:18:08.999Z</time></trkpt><trkpt lat="42.05013340047648" lon="14.35979760504109"><ele>356.0</ele><time>2026-04-04T07:18:13.999Z</time></trkpt><trkpt lat="42.050141104676456" lon="14.35990653813084"><ele>356.6666666666667</ele><time>2026-04-04T07:18:16.999Z</time></trkpt><trkpt lat="42.05012054679347" lon="14.360016823026216"><ele>357.33333333333337</ele><time>2026-04-04T07:18:19.999Z</time></trkpt><trkpt lat="42.050084874543884" lon="14.36011861736458"><ele>358.0</ele><time>2026-04-04T07:18:22.999Z</time></trkpt><trkpt lat="42.050032552123696" lon="14.360204343121428"><ele>358.6666666666667</ele><time>2026-04-04T07:18:25.999Z</time></trkpt><trkpt lat="42.04996601078968" lon="14.36025634617426"><ele>359.3333333333333</ele><time>2026-04-04T07:18:28.999Z</time></trkpt><trkpt lat="42.04988986381849" lon="14.360267596567276"><ele>360.0</ele><time>2026-04-04T07:18:31.999Z</time></trkpt><trkpt lat="42.04982018104973" lon="14.360232186431993"><ele>358.7142857142857</ele><time>2026-04-04T07:18:34.999Z</time></trkpt><trkpt lat="42.049756750024486" lon="14.360180492155033"><ele>357.42857142857144</ele><time>2026-04-04T07:18:37.999Z</time></trkpt><trkpt lat="42.04969289171586" lon="14.36013704845481"><ele>356.14285714285717</ele><time>2026-04-04T07:18:40.999Z</time></trkpt><trkpt lat="42.049619946952355" lon="14.36011006685051"><ele>354.8571428571429</ele><time>2026-04-04T07:18:43.999Z</time></trkpt><trkpt lat="42.049541067153854" lon="14.360109952153746"><ele>353.57142857142856</ele><time>2026-04-04T07:18:46.999Z</time></trkpt><trkpt lat="42.049468319938235" lon="14.36013387315988"><ele>352.28571428571433</ele><time>2026-04-04T07:18:49.999Z</time></trkpt><trkpt lat="42.049406927629036" lon="14.360180711809598"><ele>351.0</ele><time>2026-04-04T07:18:52.999Z</time></trkpt><trkpt lat="42.04935934707761" lon="14.360251510469517"><ele>351.00000000000006</ele><time>2026-04-04T07:18:55.999Z</time></trkpt><trkpt lat="42.0493320640122" lon="14.360333450146799"><ele>351.0</ele><time>2026-04-04T07:18:58.999Z</time></trkpt><trkpt lat="42.049323575504935" lon="14.3604228065331"><ele>351.0</ele><time>2026-04-04T07:19:02.001Z</time></trkpt><trkpt lat="42.049310866884284" lon="14.360509271848112"><ele>351.0</ele><time>2026-04-04T07:19:05.001Z</time></trkpt><trkpt lat="42.049312013949034" lon="14.360602983993228"><ele>351.0</ele><time>2026-04-04T07:19:08.001Z</time></trkpt><trkpt lat="42.04930893519734" lon="14.360688846723487"><ele>351.00000000000006</ele><time>2026-04-04T07:19:11.001Z</time></trkpt><trkpt lat="42.04930598748919" lon="14.360784151278834"><ele>351.0</ele><time>2026-04-04T07:19:14.001Z</time></trkpt><trkpt lat="42.049304781101156" lon="14.360874015501064"><ele>351.7142857142857</ele><time>2026-04-04T07:19:17Z</time></trkpt><trkpt lat="42.04930342279899" lon="14.360964477135486"><ele>352.42857142857144</ele><time>2026-04-04T07:19:20Z</time></trkpt><trkpt lat="42.0493069921698" lon="14.361056852791243"><ele>353.1428571428571</ele><time>2026-04-04T07:19:23Z</time></trkpt><trkpt lat="42.04932046416072" lon="14.361147822290237"><ele>353.8571428571429</ele><time>2026-04-04T07:19:26Z</time></trkpt><trkpt lat="42.049342958575075" lon="14.361227360894091"><ele>354.57142857142856</ele><time>2026-04-04T07:19:29Z</time></trkpt><trkpt lat="42.049371416559545" lon="14.36130790309689"><ele>355.2857142857143</ele><time>2026-04-04T07:19:32Z</time></trkpt><trkpt lat="42.04938412245992" lon="14.36141492745257"><ele>356.0</ele><time>2026-04-04T07:19:35Z</time></trkpt><trkpt lat="42.049411834432114" lon="14.361503674758024"><ele>356.2857142857143</ele><time>2026-04-04T07:19:38Z</time></trkpt><trkpt lat="42.04945685775839" lon="14.361584127372517"><ele>356.57142857142856</ele><time>2026-04-04T07:19:41Z</time></trkpt><trkpt lat="42.04948569006646" lon="14.361682387129715"><ele>356.8571428571429</ele><time>2026-04-04T07:19:44Z</time></trkpt><trkpt lat="42.04950302964119" lon="14.361766492020653"><ele>357.1428571428571</ele><time>2026-04-04T07:19:47Z</time></trkpt><trkpt lat="42.04953682070626" lon="14.361846351755338"><ele>357.42857142857144</ele><time>2026-04-04T07:19:50Z</time></trkpt><trkpt lat="42.04956822677892" lon="14.36193726820766"><ele>357.7142857142857</ele><time>2026-04-04T07:19:53Z</time></trkpt><trkpt lat="42.049605961719216" lon="14.362021672706769"><ele>358.0</ele><time>2026-04-04T07:19:56Z</time></trkpt><trkpt lat="42.049638931375156" lon="14.362105828607874"><ele>358.00000000000006</ele><time>2026-04-04T07:19:59Z</time></trkpt><trkpt lat="42.049663629723135" lon="14.362189637059345"><ele>358.0</ele><time>2026-04-04T07:20:02Z</time></trkpt><trkpt lat="42.04968058797617" lon="14.362284450351794"><ele>358.0</ele><time>2026-04-04T07:20:05Z</time></trkpt><trkpt lat="42.04970141391896" lon="14.362373183292616"><ele>358.0</ele><time>2026-04-04T07:20:08Z</time></trkpt><trkpt lat="42.04969943230426" lon="14.362465220637278"><ele>358.0</ele><time>2026-04-04T07:20:10.999Z</time></trkpt><trkpt lat="42.04967685903693" lon="14.36255501887438"><ele>358.00000000000006</ele><time>2026-04-04T07:20:13.999Z</time></trkpt><trkpt lat="42.0496418727484" lon="14.362641924698668"><ele>358.0</ele><time>2026-04-04T07:20:16.999Z</time></trkpt><trkpt lat="42.04958551261461" lon="14.362701862153953"><ele>359.5</ele><time>2026-04-04T07:20:19.999Z</time></trkpt><trkpt lat="42.04951080735836" lon="14.362737551118942"><ele>361.0</ele><time>2026-04-04T07:20:22.999Z</time></trkpt><trkpt lat="42.04943138709593" lon="14.362757075441944"><ele>362.5</ele><time>2026-04-04T07:20:25.999Z</time></trkpt><trkpt lat="42.049355274460275" lon="14.36278385127956"><ele>364.0</ele><time>2026-04-04T07:20:28.999Z</time></trkpt><trkpt lat="42.0492858900974" lon="14.362811195934224"><ele>365.5</ele><time>2026-04-04T07:20:31.999Z</time></trkpt><trkpt lat="42.04921725286001" lon="14.362835438891828"><ele>367.0</ele><time>2026-04-04T07:20:34.999Z</time></trkpt><trkpt lat="42.049144056148045" lon="14.362857099836816"><ele>366.7142857142857</ele><time>2026-04-04T07:20:37.999Z</time></trkpt><trkpt lat="42.049070458025206" lon="14.362882069293123"><ele>366.42857142857144</ele><time>2026-04-04T07:20:40.999Z</time></trkpt><trkpt lat="42.04899104860535" lon="14.362895076228558"><ele>366.14285714285717</ele><time>2026-04-04T07:20:43.999Z</time></trkpt><trkpt lat="42.04891617902525" lon="14.362908675444734"><ele>365.8571428571429</ele><time>2026-04-04T07:20:46.999Z</time></trkpt><trkpt lat="42.04883690658767" lon="14.362915733033477"><ele>365.57142857142856</ele><time>2026-04-04T07:20:49.999Z</time></trkpt><trkpt lat="42.04876755566107" lon="14.362925448557226"><ele>365.28571428571433</ele><time>2026-04-04T07:20:52.999Z</time></trkpt><trkpt lat="42.048699380266925" lon="14.362928742672441"><ele>365.0</ele><time>2026-04-04T07:20:55.999Z</time></trkpt><trkpt lat="42.04863479578834" lon="14.362939950567451"><ele>365.00000000000006</ele><time>2026-04-04T07:20:58.999Z</time></trkpt><trkpt lat="42.04856872630008" lon="14.362952505598024"><ele>365.0</ele><time>2026-04-04T07:21:01.999Z</time></trkpt><trkpt lat="42.04850166790369" lon="14.362972762090578"><ele>365.0</ele><time>2026-04-04T07:21:04.998Z</time></trkpt><trkpt lat="42.0484380835896" lon="14.36300463295941"><ele>365.0</ele><time>2026-04-04T07:21:08Z</time></trkpt><trkpt lat="42.04837008699839" lon="14.363039350159342"><ele>365.0</ele><time>2026-04-04T07:21:11Z</time></trkpt><trkpt lat="42.048310790905106" lon="14.363091304478736"><ele>365.00000000000006</ele><time>2026-04-04T07:21:14Z</time></trkpt><trkpt lat="42.04825238455691" lon="14.363132386778666"><ele>365.0</ele><time>2026-04-04T07:21:17Z</time></trkpt><trkpt lat="42.04819323700841" lon="14.363195599629904"><ele>366.7142857142857</ele><time>2026-04-04T07:21:20Z</time></trkpt><trkpt lat="42.0481317126454" lon="14.363248721120035"><ele>368.42857142857144</ele><time>2026-04-04T07:21:23Z</time></trkpt><trkpt lat="42.04807052668943" lon="14.363305184259456"><ele>370.1428571428571</ele><time>2026-04-04T07:21:26Z</time></trkpt><trkpt lat="42.04801497460616" lon="14.363371728181235"><ele>371.8571428571429</ele><time>2026-04-04T07:21:29Z</time></trkpt><trkpt lat="42.04796032324085" lon="14.363433608218392"><ele>373.57142857142856</ele><time>2026-04-04T07:21:32Z</time></trkpt><trkpt lat="42.0479062757376" lon="14.363497765968587"><ele>375.2857142857143</ele><time>2026-04-04T07:21:35Z</time></trkpt><trkpt lat="42.04784442070711" lon="14.363559060079547"><ele>377.0</ele><time>2026-04-04T07:21:38Z</time></trkpt><trkpt lat="42.04778499244746" lon="14.363605367537783"><ele>377.0</ele><time>2026-04-04T07:21:41Z</time></trkpt><trkpt lat="42.04771131264324" lon="14.363636215267242"><ele>377.0</ele><time>2026-04-04T07:21:44Z</time></trkpt><trkpt lat="42.047631533810964" lon="14.36362345251229"><ele>377.0</ele><time>2026-04-04T07:21:47Z</time></trkpt><trkpt lat="42.04756511778549" lon="14.363574137449746"><ele>377.0</ele><time>2026-04-04T07:21:50Z</time></trkpt><trkpt lat="42.04750783325423" lon="14.363522345002837"><ele>377.0</ele><time>2026-04-04T07:21:53Z</time></trkpt><trkpt lat="42.04744263584299" lon="14.363448263665504"><ele>377.0</ele><time>2026-04-04T07:21:57Z</time></trkpt><trkpt lat="42.047383858286935" lon="14.363398484478767"><ele>376.99999999999994</ele><time>2026-04-04T07:22:00Z</time></trkpt><trkpt lat="42.047319223029135" lon="14.36335941527703"><ele>377.0</ele><time>2026-04-04T07:22:03Z</time></trkpt><trkpt lat="42.04724679168512" lon="14.363333379620402"><ele>377.0</ele><time>2026-04-04T07:22:06Z</time></trkpt><trkpt lat="42.04717510232585" lon="14.36333346619513"><ele>377.0</ele><time>2026-04-04T07:22:09Z</time></trkpt><trkpt lat="42.047111275340896" lon="14.363339685511065"><ele>377.0</ele><time>2026-04-04T07:22:11.999Z</time></trkpt><trkpt lat="42.04705128402365" lon="14.36336972758979"><ele>376.99999999999994</ele><time>2026-04-04T07:22:15.999Z</time></trkpt><trkpt lat="42.04697812772627" lon="14.36339323974568"><ele>377.0</ele><time>2026-04-04T07:22:18.999Z</time></trkpt><trkpt lat="42.04690571559405" lon="14.363423565055514"><ele>377.0</ele><time>2026-04-04T07:22:22.999Z</time></trkpt><trkpt lat="42.04683394280581" lon="14.36346298890082"><ele>377.0</ele><time>2026-04-04T07:22:25.999Z</time></trkpt><trkpt lat="42.046766771941016" lon="14.363514045547422"><ele>377.0</ele><time>2026-04-04T07:22:29.999Z</time></trkpt><trkpt lat="42.04669713856344" lon="14.363575998809921"><ele>377.0</ele><time>2026-04-04T07:22:33.999Z</time></trkpt><trkpt lat="42.046633740840704" lon="14.363623384713069"><ele>377.0</ele><time>2026-04-04T07:22:36.999Z</time></trkpt><trkpt lat="42.046573630962946" lon="14.363673387071"><ele>377.0</ele><time>2026-04-04T07:22:39.999Z</time></trkpt><trkpt lat="42.04650545171924" lon="14.363710792711053"><ele>377.71428571428567</ele><time>2026-04-04T07:22:42.999Z</time></trkpt><trkpt lat="42.04643581712872" lon="14.363746552367777"><ele>378.42857142857144</ele><time>2026-04-04T07:22:45.999Z</time></trkpt><trkpt lat="42.04636402986106" lon="14.36376955594166"><ele>379.1428571428571</ele><time>2026-04-04T07:22:48.999Z</time></trkpt><trkpt lat="42.04629598848649" lon="14.363787986069346"><ele>379.85714285714283</ele><time>2026-04-04T07:22:51.999Z</time></trkpt><trkpt lat="42.04622662400629" lon="14.36380316071607"><ele>380.57142857142856</ele><time>2026-04-04T07:22:54.999Z</time></trkpt><trkpt lat="42.04615851809696" lon="14.363809336033011"><ele>381.2857142857143</ele><time>2026-04-04T07:22:57.999Z</time></trkpt><trkpt lat="42.04609403474632" lon="14.363810441926656"><ele>382.0</ele><time>2026-04-04T07:23:00.999Z</time></trkpt><trkpt lat="42.0460207288595" lon="14.363795923517864"><ele>382.0</ele><time>2026-04-04T07:23:03.999Z</time></trkpt><trkpt lat="42.04594244882735" lon="14.36377264877083"><ele>382.0</ele><time>2026-04-04T07:23:07.998Z</time></trkpt><trkpt lat="42.045873125404704" lon="14.363742302177064"><ele>382.0</ele><time>2026-04-04T07:23:10.998Z</time></trkpt><trkpt lat="42.04581053341145" lon="14.363702399492455"><ele>382.0</ele><time>2026-04-04T07:23:14Z</time></trkpt><trkpt lat="42.04574643267456" lon="14.36366458282462"><ele>382.0</ele><time>2026-04-04T07:23:17Z</time></trkpt><trkpt lat="42.04567591196739" lon="14.363619380584996"><ele>382.0</ele><time>2026-04-04T07:23:21Z</time></trkpt><trkpt lat="42.045606307933106" lon="14.363576058219493"><ele>382.0</ele><time>2026-04-04T07:23:25Z</time></trkpt><trkpt lat="42.04554953856202" lon="14.363538799592874"><ele>383.16666666666663</ele><time>2026-04-04T07:23:28Z</time></trkpt><trkpt lat="42.04547907536267" lon="14.363481983815664"><ele>384.3333333333333</ele><time>2026-04-04T07:23:32Z</time></trkpt><trkpt lat="42.0454050304683" lon="14.363449425856889"><ele>385.5</ele><time>2026-04-04T07:23:36Z</time></trkpt><trkpt lat="42.045328646324236" lon="14.36341650239509"><ele>386.66666666666663</ele><time>2026-04-04T07:23:40Z</time></trkpt><trkpt lat="42.045251161224755" lon="14.363379894265854"><ele>387.8333333333333</ele><time>2026-04-04T07:23:44Z</time></trkpt><trkpt lat="42.04517176707448" lon="14.363348388945408"><ele>389.0</ele><time>2026-04-04T07:23:48Z</time></trkpt><trkpt lat="42.045091240696294" lon="14.36331894874866"><ele>389.0</ele><time>2026-04-04T07:23:52Z</time></trkpt><trkpt lat="42.045012489469904" lon="14.363306757611134"><ele>389.0</ele><time>2026-04-04T07:23:56Z</time></trkpt><trkpt lat="42.04494545078005" lon="14.363298130683424"><ele>389.0</ele><time>2026-04-04T07:23:59Z</time></trkpt><trkpt lat="42.04486306488525" lon="14.363290364585781"><ele>389.0</ele><time>2026-04-04T07:24:03Z</time></trkpt><trkpt lat="42.044796875162234" lon="14.363279156347275"><ele>389.0</ele><time>2026-04-04T07:24:06Z</time></trkpt><trkpt lat="42.044713707442384" lon="14.363270743235196"><ele>389.0</ele><time>2026-04-04T07:24:10Z</time></trkpt><trkpt lat="42.04464781012442" lon="14.363255391274924"><ele>389.0</ele><time>2026-04-04T07:24:13Z</time></trkpt><trkpt lat="42.044582113180326" lon="14.363244491525712"><ele>389.0</ele><time>2026-04-04T07:24:16Z</time></trkpt><trkpt lat="42.044495842909" lon="14.363242371458481"><ele>389.0</ele><time>2026-04-04T07:24:19.999Z</time></trkpt><trkpt lat="42.04442651260584" lon="14.363229814575888"><ele>389.0</ele><time>2026-04-04T07:24:22.999Z</time></trkpt><trkpt lat="42.04435637934766" lon="14.3632275897194"><ele>389.0</ele><time>2026-04-04T07:24:25.999Z</time></trkpt><trkpt lat="42.04428664310971" lon="14.363226456148135"><ele>389.0</ele><time>2026-04-04T07:24:28.999Z</time></trkpt><trkpt lat="42.044213826090264" lon="14.363225941721876"><ele>389.0</ele><time>2026-04-04T07:24:31.999Z</time></trkpt><trkpt lat="42.044137676417165" lon="14.363232889680763"><ele>389.0</ele><time>2026-04-04T07:24:34.999Z</time></trkpt><trkpt lat="42.0440678958679" lon="14.363240128804211"><ele>389.0</ele><time>2026-04-04T07:24:37.999Z</time></trkpt><trkpt lat="42.0439976786024" lon="14.36323780095803"><ele>389.0</ele><time>2026-04-04T07:24:40.999Z</time></trkpt><trkpt lat="42.04392483585899" lon="14.363216822824809"><ele>389.0</ele><time>2026-04-04T07:24:44.999Z</time></trkpt><trkpt lat="42.04384662909157" lon="14.363227693493553"><ele>389.0</ele><time>2026-04-04T07:24:48.999Z</time></trkpt><trkpt lat="42.04377345116335" lon="14.363229931920879"><ele>389.0</ele><time>2026-04-04T07:24:52.999Z</time></trkpt><trkpt lat="42.04370327967008" lon="14.363243440730368"><ele>389.0</ele><time>2026-04-04T07:24:55.999Z</time></trkpt><trkpt lat="42.04362853612216" lon="14.363249088078103"><ele>389.0</ele><time>2026-04-04T07:24:58.999Z</time></trkpt><trkpt lat="42.04355324232386" lon="14.363259750443994"><ele>388.99999999999994</ele><time>2026-04-04T07:25:01.999Z</time></trkpt><trkpt lat="42.04347891328082" lon="14.363275206087815"><ele>389.0</ele><time>2026-04-04T07:25:04.999Z</time></trkpt><trkpt lat="42.043405151877074" lon="14.363288755095843"><ele>389.0</ele><time>2026-04-04T07:25:07.999Z</time></trkpt><trkpt lat="42.04334058124851" lon="14.363319475099914"><ele>389.0</ele><time>2026-04-04T07:25:10.998Z</time></trkpt><trkpt lat="42.04326480683191" lon="14.363364871828606"><ele>388.99999999999994</ele><time>2026-04-04T07:25:14.998Z</time></trkpt><trkpt lat="42.04319696286736" lon="14.363430514488199"><ele>389.0</ele><time>2026-04-04T07:25:19Z</time></trkpt><trkpt lat="42.04314619895387" lon="14.363489815347338"><ele>390.8571428571429</ele><time>2026-04-04T07:25:22Z</time></trkpt><trkpt lat="42.04309573304071" lon="14.363543077585751"><ele>392.71428571428567</ele><time>2026-04-04T07:25:25Z</time></trkpt><trkpt lat="42.04305335771178" lon="14.363615422448252"><ele>394.57142857142856</ele><time>2026-04-04T07:25:28Z</time></trkpt><trkpt lat="42.04302648903588" lon="14.363702784161385"><ele>396.42857142857144</ele><time>2026-04-04T07:25:31Z</time></trkpt><trkpt lat="42.04301917640812" lon="14.363794792186246"><ele>398.28571428571433</ele><time>2026-04-04T07:25:34Z</time></trkpt><trkpt lat="42.04303224724831" lon="14.363891723983855"><ele>400.1428571428571</ele><time>2026-04-04T07:25:37Z</time></trkpt><trkpt lat="42.04304469526347" lon="14.363982059907343"><ele>402.0</ele><time>2026-04-04T07:25:40Z</time></trkpt><trkpt lat="42.043056394010314" lon="14.364076272258036"><ele>402.0</ele><time>2026-04-04T07:25:43Z</time></trkpt><trkpt lat="42.04307111599958" lon="14.364164988071286"><ele>402.0</ele><time>2026-04-04T07:25:46Z</time></trkpt><trkpt lat="42.04308265265587" lon="14.364254181504526"><ele>402.0</ele><time>2026-04-04T07:25:49Z</time></trkpt><trkpt lat="42.043083044499845" lon="14.364352648740189"><ele>402.0</ele><time>2026-04-04T07:25:52Z</time></trkpt><trkpt lat="42.043030261329115" lon="14.3644326492618"><ele>402.0</ele><time>2026-04-04T07:25:55Z</time></trkpt><trkpt lat="42.04296462360542" lon="14.364496257990437"><ele>402.0</ele><time>2026-04-04T07:25:58Z</time></trkpt><trkpt lat="42.0429066442694" lon="14.36455297183467"><ele>402.0</ele><time>2026-04-04T07:26:01Z</time></trkpt><trkpt lat="42.04284264794124" lon="14.364613450390264"><ele>402.0</ele><time>2026-04-04T07:26:04Z</time></trkpt><trkpt lat="42.04277296545981" lon="14.364664149688313"><ele>402.0</ele><time>2026-04-04T07:26:07Z</time></trkpt><trkpt lat="42.04269968599175" lon="14.364687000604983"><ele>402.0</ele><time>2026-04-04T07:26:10Z</time></trkpt><trkpt lat="42.042625334305285" lon="14.364675705711623"><ele>402.0</ele><time>2026-04-04T07:26:13Z</time></trkpt><trkpt lat="42.04256194373205" lon="14.364654028091746"><ele>402.0</ele><time>2026-04-04T07:26:15.999Z</time></trkpt><trkpt lat="42.04250442621576" lon="14.36461286275781"><ele>402.0</ele><time>2026-04-04T07:26:18.999Z</time></trkpt><trkpt lat="42.04246048910138" lon="14.364548080282033"><ele>402.0</ele><time>2026-04-04T07:26:21.999Z</time></trkpt><trkpt lat="42.0424469070957" lon="14.364454368785355"><ele>404.5</ele><time>2026-04-04T07:26:24.999Z</time></trkpt><trkpt lat="42.04243001273775" lon="14.364361749331183"><ele>407.0</ele><time>2026-04-04T07:26:27.999Z</time></trkpt><trkpt lat="42.042409537050474" lon="14.364278898676798"><ele>409.5</ele><time>2026-04-04T07:26:30.999Z</time></trkpt><trkpt lat="42.04237934284249" lon="14.364182682033022"><ele>412.0</ele><time>2026-04-04T07:26:33.999Z</time></trkpt><trkpt lat="42.04233608777761" lon="14.364084976531752"><ele>414.5</ele><time>2026-04-04T07:26:36.999Z</time></trkpt><trkpt lat="42.04226705453247" lon="14.364010620462354"><ele>417.0</ele><time>2026-04-04T07:26:39.999Z</time></trkpt><trkpt lat="42.0421963815823" lon="14.363960465292173"><ele>417.0</ele><time>2026-04-04T07:26:42.999Z</time></trkpt><trkpt lat="42.042117976165294" lon="14.363931795811409"><ele>417.0</ele><time>2026-04-04T07:26:45.999Z</time></trkpt><trkpt lat="42.042041040769924" lon="14.363916217952125"><ele>417.0</ele><time>2026-04-04T07:26:48.999Z</time></trkpt><trkpt lat="42.04196852047514" lon="14.363909322832052"><ele>417.0</ele><time>2026-04-04T07:26:51.999Z</time></trkpt><trkpt lat="42.041899149559654" lon="14.363900392054653"><ele>417.0</ele><time>2026-04-04T07:26:54.999Z</time></trkpt><trkpt lat="42.041831960055184" lon="14.363899099667778"><ele>417.0</ele><time>2026-04-04T07:26:57.999Z</time></trkpt><trkpt lat="42.04175683574194" lon="14.363881826652834"><ele>417.0</ele><time>2026-04-04T07:27:00.999Z</time></trkpt><trkpt lat="42.04167893891664" lon="14.363883137037227"><ele>417.7142857142857</ele><time>2026-04-04T07:27:04.999Z</time></trkpt><trkpt lat="42.04159797408807" lon="14.363882058348304"><ele>418.4285714285714</ele><time>2026-04-04T07:27:08.998Z</time></trkpt><trkpt lat="42.04152954648916" lon="14.36388649960988"><ele>419.1428571428571</ele><time>2026-04-04T07:27:11.998Z</time></trkpt><trkpt lat="42.041444565685374" lon="14.363880891945158"><ele>419.8571428571429</ele><time>2026-04-04T07:27:15.998Z</time></trkpt><trkpt lat="42.04137623539931" lon="14.363864437250625"><ele>420.57142857142856</ele><time>2026-04-04T07:27:18.998Z</time></trkpt><trkpt lat="42.04130473266457" lon="14.36385532951051"><ele>421.2857142857143</ele><time>2026-04-04T07:27:21.998Z</time></trkpt><trkpt lat="42.041236841530214" lon="14.363855851918293"><ele>422.0</ele><time>2026-04-04T07:27:25Z</time></trkpt><trkpt lat="42.041172955486985" lon="14.36385647633441"><ele>414.66666666666663</ele><time>2026-04-04T07:27:28Z</time></trkpt><trkpt lat="42.041103477151864" lon="14.363856196725907"><ele>407.3333333333333</ele><time>2026-04-04T07:27:31Z</time></trkpt><trkpt lat="42.04102118738867" lon="14.363844411910087"><ele>400.0</ele><time>2026-04-04T07:27:34Z</time></trkpt><trkpt lat="42.040946627518444" lon="14.36381865650726"><ele>392.66666666666663</ele><time>2026-04-04T07:27:37Z</time></trkpt><trkpt lat="42.04086654275804" lon="14.363807851545547"><ele>385.3333333333333</ele><time>2026-04-04T07:27:40Z</time></trkpt><trkpt lat="42.0407773576461" lon="14.36379331111164"><ele>378.0</ele><time>2026-04-04T07:27:43Z</time></trkpt><trkpt lat="42.040714666616935" lon="14.363781874353974"><ele>378.0</ele><time>2026-04-04T07:27:45Z</time></trkpt><trkpt lat="42.04062443321173" lon="14.36377732702215"><ele>378.0</ele><time>2026-04-04T07:27:48Z</time></trkpt><trkpt lat="42.04053110770591" lon="14.363774147926561"><ele>378.0</ele><time>2026-04-04T07:27:51Z</time></trkpt><trkpt lat="42.04046674319964" lon="14.363768095211467"><ele>378.0</ele><time>2026-04-04T07:27:53Z</time></trkpt><trkpt lat="42.040402476607035" lon="14.363765914143729"><ele>378.0</ele><time>2026-04-04T07:27:55Z</time></trkpt><trkpt lat="42.04033892929115" lon="14.363753312714378"><ele>378.0</ele><time>2026-04-04T07:27:57Z</time></trkpt><trkpt lat="42.040273406852435" lon="14.363744674367814"><ele>378.0</ele><time>2026-04-04T07:27:59Z</time></trkpt><trkpt lat="42.0402020993393" lon="14.363736379058446"><ele>378.0</ele><time>2026-04-04T07:28:01Z</time></trkpt><trkpt lat="42.04013309111279" lon="14.363730706572019"><ele>378.0</ele><time>2026-04-04T07:28:03Z</time></trkpt><trkpt lat="42.040044382016866" lon="14.363722099970067"><ele>378.0</ele><time>2026-04-04T07:28:06Z</time></trkpt><trkpt lat="42.03996831561878" lon="14.363710295632504"><ele>378.0</ele><time>2026-04-04T07:28:09Z</time></trkpt><trkpt lat="42.0398982099588" lon="14.363703329161314"><ele>378.0</ele><time>2026-04-04T07:28:12Z</time></trkpt><trkpt lat="42.03982549846934" lon="14.363690800627836"><ele>378.0</ele><time>2026-04-04T07:28:15.999Z</time></trkpt><trkpt lat="42.03976045742034" lon="14.363708425226278"><ele>378.0</ele><time>2026-04-04T07:28:38.999Z</time></trkpt><trkpt lat="42.03967358192072" lon="14.363685907336741"><ele>379.14285714285717</ele><time>2026-04-04T07:29:30Z</time></trkpt><trkpt lat="42.03959678424286" lon="14.363722635356144"><ele>380.2857142857143</ele><time>2026-04-04T07:29:33Z</time></trkpt><trkpt lat="42.03955581003898" lon="14.363787665758913"><ele>381.42857142857144</ele><time>2026-04-04T07:29:35Z</time></trkpt><trkpt lat="42.03951744490816" lon="14.363863888628597"><ele>382.57142857142856</ele><time>2026-04-04T07:29:37Z</time></trkpt><trkpt lat="42.039485197645234" lon="14.363943646378626"><ele>383.7142857142857</ele><time>2026-04-04T07:29:39Z</time></trkpt><trkpt lat="42.03946007496393" lon="14.364028587332458"><ele>384.8571428571429</ele><time>2026-04-04T07:29:41Z</time></trkpt><trkpt lat="42.039430467664864" lon="14.364107254938508"><ele>386.0</ele><time>2026-04-04T07:29:43Z</time></trkpt><trkpt lat="42.039377252865556" lon="14.364159642501653"><ele>386.3333333333333</ele><time>2026-04-04T07:29:45Z</time></trkpt><trkpt lat="42.03931250894609" lon="14.364190209083644"><ele>386.66666666666663</ele><time>2026-04-04T07:29:47Z</time></trkpt><trkpt lat="42.03922859677638" lon="14.364159662833892"><ele>387.0</ele><time>2026-04-04T07:29:50Z</time></trkpt><trkpt lat="42.039175966656856" lon="14.364083991312281"><ele>387.33333333333337</ele><time>2026-04-04T07:29:52Z</time></trkpt><trkpt lat="42.03915367247307" lon="14.36398892136862"><ele>387.6666666666667</ele><time>2026-04-04T07:29:54Z</time></trkpt><trkpt lat="42.03912205852048" lon="14.363893946537157"><ele>388.0</ele><time>2026-04-04T07:29:56Z</time></trkpt><trkpt lat="42.03909879837573" lon="14.363803940047449"><ele>388.00000000000006</ele><time>2026-04-04T07:29:58Z</time></trkpt><trkpt lat="42.039062564751006" lon="14.363720627120125"><ele>388.0</ele><time>2026-04-04T07:30:00Z</time></trkpt><trkpt lat="42.03901332135282" lon="14.363653154154859"><ele>388.0</ele><time>2026-04-04T07:30:02Z</time></trkpt><trkpt lat="42.038949099542954" lon="14.363596423580782"><ele>388.0</ele><time>2026-04-04T07:30:04Z</time></trkpt><trkpt lat="42.03887115351657" lon="14.36355761067986"><ele>388.00000000000006</ele><time>2026-04-04T07:30:06Z</time></trkpt><trkpt lat="42.03878975656771" lon="14.363545414320372"><ele>388.0</ele><time>2026-04-04T07:30:08Z</time></trkpt><trkpt lat="42.03870962497428" lon="14.363549631297152"><ele>388.0</ele><time>2026-04-04T07:30:10Z</time></trkpt><trkpt lat="42.038642131743615" lon="14.363577990774303"><ele>388.0</ele><time>2026-04-04T07:30:12Z</time></trkpt><trkpt lat="42.038576545248716" lon="14.363620267186802"><ele>388.0</ele><time>2026-04-04T07:30:14Z</time></trkpt><trkpt lat="42.03851406126237" lon="14.363660217870013"><ele>388.0</ele><time>2026-04-04T07:30:16Z</time></trkpt><trkpt lat="42.03845631080418" lon="14.363708140875236"><ele>388.0</ele><time>2026-04-04T07:30:18Z</time></trkpt><trkpt lat="42.038395045783254" lon="14.36374485784713"><ele>388.0</ele><time>2026-04-04T07:30:19.999Z</time></trkpt><trkpt lat="42.03833183082538" lon="14.363783578395102"><ele>388.0</ele><time>2026-04-04T07:30:21.999Z</time></trkpt><trkpt lat="42.03826685921193" lon="14.363818376649752"><ele>385.57142857142856</ele><time>2026-04-04T07:30:23.999Z</time></trkpt><trkpt lat="42.03819991235579" lon="14.36385415076079"><ele>383.14285714285717</ele><time>2026-04-04T07:30:25.999Z</time></trkpt><trkpt lat="42.03813218098227" lon="14.363886376675833"><ele>380.7142857142857</ele><time>2026-04-04T07:30:27.999Z</time></trkpt><trkpt lat="42.0380649085228" lon="14.363914902319381"><ele>378.2857142857143</ele><time>2026-04-04T07:30:29.999Z</time></trkpt><trkpt lat="42.0379945564998" lon="14.363943356888244"><ele>375.8571428571429</ele><time>2026-04-04T07:30:31.999Z</time></trkpt><trkpt lat="42.03792550315593" lon="14.363976913729436"><ele>373.42857142857144</ele><time>2026-04-04T07:30:33.999Z</time></trkpt><trkpt lat="42.037859685479695" lon="14.36400370538058"><ele>371.0</ele><time>2026-04-04T07:30:35.999Z</time></trkpt><trkpt lat="42.03779017033408" lon="14.364028284990262"><ele>374.2857142857143</ele><time>2026-04-04T07:30:37.999Z</time></trkpt><trkpt lat="42.03772031538404" lon="14.364044716951582"><ele>377.57142857142856</ele><time>2026-04-04T07:30:39.999Z</time></trkpt><trkpt lat="42.0376531722661" lon="14.364052382222445"><ele>380.8571428571429</ele><time>2026-04-04T07:30:41.999Z</time></trkpt><trkpt lat="42.037584380971914" lon="14.36406979897723"><ele>384.1428571428571</ele><time>2026-04-04T07:30:43.999Z</time></trkpt><trkpt lat="42.03751238636208" lon="14.364088102715398"><ele>387.42857142857144</ele><time>2026-04-04T07:30:45.999Z</time></trkpt><trkpt lat="42.037441520077856" lon="14.364110615799563"><ele>390.7142857142857</ele><time>2026-04-04T07:30:47.999Z</time></trkpt><trkpt lat="42.03737839803441" lon="14.364127917671416"><ele>394.0</ele><time>2026-04-04T07:30:49.999Z</time></trkpt><trkpt lat="42.037285398044865" lon="14.364174512303883"><ele>394.00000000000006</ele><time>2026-04-04T07:30:52.999Z</time></trkpt><trkpt lat="42.037205219766975" lon="14.364237046340413"><ele>394.0</ele><time>2026-04-04T07:30:55.999Z</time></trkpt><trkpt lat="42.03714842993315" lon="14.364315946085915"><ele>394.0</ele><time>2026-04-04T07:30:58.999Z</time></trkpt><trkpt lat="42.037101139269794" lon="14.364411004179054"><ele>394.0</ele><time>2026-04-04T07:31:01.999Z</time></trkpt><trkpt lat="42.03705453173016" lon="14.364471784843229"><ele>394.00000000000006</ele><time>2026-04-04T07:31:04.999Z</time></trkpt><trkpt lat="42.03699011844883" lon="14.36455234434905"><ele>394.0</ele><time>2026-04-04T07:31:08.999Z</time></trkpt><trkpt lat="42.03693367793222" lon="14.364642181319306"><ele>397.83333333333337</ele><time>2026-04-04T07:31:11.999Z</time></trkpt><trkpt lat="42.036888130956676" lon="14.364720810874232"><ele>401.6666666666667</ele><time>2026-04-04T07:31:14.998Z</time></trkpt><trkpt lat="42.03684204437668" lon="14.364807404875846"><ele>405.5</ele><time>2026-04-04T07:31:17.998Z</time></trkpt><trkpt lat="42.03680489652469" lon="14.364900561318741"><ele>409.33333333333337</ele><time>2026-04-04T07:31:20.998Z</time></trkpt><trkpt lat="42.036769391089045" lon="14.365012027833616"><ele>413.1666666666667</ele><time>2026-04-04T07:31:23.998Z</time></trkpt><trkpt lat="42.0367261025556" lon="14.365114728716017"><ele>417.0</ele><time>2026-04-04T07:31:26.998Z</time></trkpt><trkpt lat="42.03667465450546" lon="14.365214947189381"><ele>417.0</ele><time>2026-04-04T07:31:29.998Z</time></trkpt><trkpt lat="42.03663838931271" lon="14.365291759218662"><ele>417.0</ele><time>2026-04-04T07:31:31.998Z</time></trkpt><trkpt lat="42.036600639893166" lon="14.365360893197689"><ele>417.0</ele><time>2026-04-04T07:31:33.998Z</time></trkpt><trkpt lat="42.036544520823895" lon="14.36546138777766"><ele>417.0</ele><time>2026-04-04T07:31:37Z</time></trkpt><trkpt lat="42.03647803826079" lon="14.365549353279372"><ele>417.0</ele><time>2026-04-04T07:31:40Z</time></trkpt><trkpt lat="42.03641442916949" lon="14.365634661618104"><ele>417.0</ele><time>2026-04-04T07:31:43Z</time></trkpt><trkpt lat="42.03635137170049" lon="14.365724474566658"><ele>417.5714285714286</ele><time>2026-04-04T07:31:46Z</time></trkpt><trkpt lat="42.03629448758765" lon="14.365794981756288"><ele>418.1428571428571</ele><time>2026-04-04T07:31:49Z</time></trkpt><trkpt lat="42.03624285298862" lon="14.365845991264866"><ele>418.7142857142857</ele><time>2026-04-04T07:31:52Z</time></trkpt><trkpt lat="42.03617215663656" lon="14.365877207857137"><ele>419.28571428571433</ele><time>2026-04-04T07:31:54Z</time></trkpt><trkpt lat="42.03610896753131" lon="14.365909108976659"><ele>419.8571428571429</ele><time>2026-04-04T07:31:56Z</time></trkpt><trkpt lat="42.03603502533781" lon="14.365926630770115"><ele>420.42857142857144</ele><time>2026-04-04T07:31:58Z</time></trkpt><trkpt lat="42.03596831399646" lon="14.365953973082005"><ele>421.0</ele><time>2026-04-04T07:32:00Z</time></trkpt><trkpt lat="42.035897506518644" lon="14.365981032224374"><ele>421.00000000000006</ele><time>2026-04-04T07:32:02Z</time></trkpt><trkpt lat="42.035830855282505" lon="14.366001328334471"><ele>421.0</ele><time>2026-04-04T07:32:04Z</time></trkpt><trkpt lat="42.03576606860981" lon="14.36603243641961"><ele>421.0</ele><time>2026-04-04T07:32:06Z</time></trkpt><trkpt lat="42.0357082087228" lon="14.36607070559684"><ele>421.0</ele><time>2026-04-04T07:32:08Z</time></trkpt><trkpt lat="42.035655024505346" lon="14.366120263492103"><ele>421.0</ele><time>2026-04-04T07:32:11Z</time></trkpt><trkpt lat="42.03557141479626" lon="14.36618858398002"><ele>421.00000000000006</ele><time>2026-04-04T07:32:15Z</time></trkpt><trkpt lat="42.03548760854902" lon="14.366203269098175"><ele>421.0</ele><time>2026-04-04T07:32:17Z</time></trkpt><trkpt lat="42.0354148759363" lon="14.366239104515849"><ele>421.50000000000006</ele><time>2026-04-04T07:32:19Z</time></trkpt><trkpt lat="42.035349258065" lon="14.36630125145906"><ele>422.0</ele><time>2026-04-04T07:32:21Z</time></trkpt><trkpt lat="42.03524852491284" lon="14.366302842073088"><ele>422.5</ele><time>2026-04-04T07:32:22.999Z</time></trkpt><trkpt lat="42.03516365151562" lon="14.366314727699505"><ele>423.0</ele><time>2026-04-04T07:32:24.999Z</time></trkpt><trkpt lat="42.035092500358665" lon="14.36634610319472"><ele>423.50000000000006</ele><time>2026-04-04T07:32:26.999Z</time></trkpt><trkpt lat="42.035040161583225" lon="14.366393717316562"><ele>424.0</ele><time>2026-04-04T07:32:28.999Z</time></trkpt><trkpt lat="42.03502310813933" lon="14.366490980644768"><ele>424.7142857142857</ele><time>2026-04-04T07:32:31.999Z</time></trkpt><trkpt lat="42.03505903791502" lon="14.366573965508968"><ele>425.4285714285714</ele><time>2026-04-04T07:32:35.999Z</time></trkpt><trkpt lat="42.034995206762716" lon="14.366547031439266"><ele>426.1428571428571</ele><time>2026-04-04T07:33:32.998Z</time></trkpt><trkpt lat="42.03492615423234" lon="14.366492246163128"><ele>426.8571428571429</ele><time>2026-04-04T07:38:50Z</time></trkpt><trkpt lat="42.03490643435263" lon="14.366404144817212"><ele>427.57142857142856</ele><time>2026-04-04T07:38:54Z</time></trkpt><trkpt lat="42.03484722952014" lon="14.366364471930302"><ele>428.2857142857143</ele><time>2026-04-04T07:38:57Z</time></trkpt><trkpt lat="42.034766650095946" lon="14.3663524391233"><ele>429.0</ele><time>2026-04-04T07:39:00Z</time></trkpt><trkpt lat="42.03468831062069" lon="14.366364534886484"><ele>429.0</ele><time>2026-04-04T07:39:03Z</time></trkpt><trkpt lat="42.03462708449067" lon="14.366386211199915"><ele>429.0</ele><time>2026-04-04T07:39:05Z</time></trkpt><trkpt lat="42.034533061251416" lon="14.366389023281895"><ele>429.0</ele><time>2026-04-04T07:39:08Z</time></trkpt><trkpt lat="42.03446684826434" lon="14.36639989890455"><ele>429.0</ele><time>2026-04-04T07:39:09.999Z</time></trkpt><trkpt lat="42.03437265086933" lon="14.366401951841336"><ele>429.0</ele><time>2026-04-04T07:39:12.999Z</time></trkpt><trkpt lat="42.03429697124072" lon="14.366423586363442"><ele>429.0</ele><time>2026-04-04T07:39:15.999Z</time></trkpt><trkpt lat="42.03420042448782" lon="14.366421843209837"><ele>429.0</ele><time>2026-04-04T07:39:18.999Z</time></trkpt><trkpt lat="42.03413857797269" lon="14.366443762087787"><ele>429.0</ele><time>2026-04-04T07:39:20.999Z</time></trkpt><trkpt lat="42.03405570090848" lon="14.36648352433268"><ele>429.0</ele><time>2026-04-04T07:39:23.999Z</time></trkpt><trkpt lat="42.033989383117024" lon="14.366549170859075"><ele>429.0</ele><time>2026-04-04T07:39:26.999Z</time></trkpt><trkpt lat="42.03393104121851" lon="14.366593433504512"><ele>429.0</ele><time>2026-04-04T07:39:29.999Z</time></trkpt><trkpt lat="42.033863496274485" lon="14.366635121431086"><ele>429.0</ele><time>2026-04-04T07:39:32.999Z</time></trkpt><trkpt lat="42.03378385057206" lon="14.366688780510296"><ele>427.3333333333333</ele><time>2026-04-04T07:39:35.999Z</time></trkpt><trkpt lat="42.03370621042199" lon="14.366765890827736"><ele>425.66666666666663</ele><time>2026-04-04T07:39:38.999Z</time></trkpt><trkpt lat="42.03363408607396" lon="14.366801315861801"><ele>424.0</ele><time>2026-04-04T07:39:40.999Z</time></trkpt><trkpt lat="42.03357330059715" lon="14.366849028475347"><ele>422.3333333333333</ele><time>2026-04-04T07:39:42.999Z</time></trkpt><trkpt lat="42.0335047335041" lon="14.366891901693789"><ele>420.66666666666663</ele><time>2026-04-04T07:39:44.999Z</time></trkpt><trkpt lat="42.03343139985998" lon="14.36693805203894"><ele>419.0</ele><time>2026-04-04T07:39:46.999Z</time></trkpt><trkpt lat="42.03336403766404" lon="14.366990522724617"><ele>417.3333333333333</ele><time>2026-04-04T07:39:48.999Z</time></trkpt><trkpt lat="42.033289651305225" lon="14.36704262562519"><ele>415.66666666666663</ele><time>2026-04-04T07:39:50.999Z</time></trkpt><trkpt lat="42.03319993306794" lon="14.367070522768746"><ele>414.0</ele><time>2026-04-04T07:39:52.999Z</time></trkpt><trkpt lat="42.033103691503754" lon="14.367075184993997"><ele>412.33333333333337</ele><time>2026-04-04T07:39:54.999Z</time></trkpt><trkpt lat="42.03301644430626" lon="14.367072020936662"><ele>410.6666666666667</ele><time>2026-04-04T07:39:56.999Z</time></trkpt><trkpt lat="42.03292887045994" lon="14.3670654541222"><ele>409.0</ele><time>2026-04-04T07:39:58.999Z</time></trkpt><trkpt lat="42.03284359416969" lon="14.367057370673681"><ele>409.00000000000006</ele><time>2026-04-04T07:40:00.999Z</time></trkpt><trkpt lat="42.032758526731" lon="14.36704857553504"><ele>409.0</ele><time>2026-04-04T07:40:02.999Z</time></trkpt><trkpt lat="42.032678541080124" lon="14.367041036384506"><ele>409.0</ele><time>2026-04-04T07:40:04.998Z</time></trkpt><trkpt lat="42.03259310969934" lon="14.367057546091727"><ele>409.0</ele><time>2026-04-04T07:40:06.998Z</time></trkpt><trkpt lat="42.03250229299521" lon="14.367084522460042"><ele>409.00000000000006</ele><time>2026-04-04T07:40:08.998Z</time></trkpt><trkpt lat="42.03240650388209" lon="14.367120089050378"><ele>409.0</ele><time>2026-04-04T07:40:10.998Z</time></trkpt><trkpt lat="42.03231914293011" lon="14.367151748590716"><ele>408.00000000000006</ele><time>2026-04-04T07:40:12.998Z</time></trkpt><trkpt lat="42.03223314618416" lon="14.36718067668645"><ele>407.0</ele><time>2026-04-04T07:40:14.998Z</time></trkpt><trkpt lat="42.0321440960307" lon="14.36719100762688"><ele>406.0</ele><time>2026-04-04T07:40:16.998Z</time></trkpt><trkpt lat="42.03205268604398" lon="14.367203654770805"><ele>405.0</ele><time>2026-04-04T07:40:18.998Z</time></trkpt><trkpt lat="42.03196399585208" lon="14.367207718663431"><ele>404.00000000000006</ele><time>2026-04-04T07:40:20.998Z</time></trkpt><trkpt lat="42.03189718771298" lon="14.367197587148095"><ele>403.0</ele><time>2026-04-04T07:40:22.998Z</time></trkpt><trkpt lat="42.031814913355944" lon="14.367188377233527"><ele>406.6666666666667</ele><time>2026-04-04T07:40:24.998Z</time></trkpt><trkpt lat="42.03174653202162" lon="14.367198314462298"><ele>410.33333333333337</ele><time>2026-04-04T07:40:26.998Z</time></trkpt><trkpt lat="42.03167363143293" lon="14.367216181069477"><ele>414.0</ele><time>2026-04-04T07:40:28.998Z</time></trkpt><trkpt lat="42.03159405515456" lon="14.367212452942626"><ele>417.66666666666663</ele><time>2026-04-04T07:40:30.998Z</time></trkpt><trkpt lat="42.03151077971288" lon="14.367219444001726"><ele>421.3333333333333</ele><time>2026-04-04T07:40:32.998Z</time></trkpt><trkpt lat="42.031439832954746" lon="14.367240591783691"><ele>425.0</ele><time>2026-04-04T07:40:34.998Z</time></trkpt><trkpt lat="42.03135703989024" lon="14.367270957736341"><ele>424.99999999999994</ele><time>2026-04-04T07:40:36.998Z</time></trkpt><trkpt lat="42.03127610782843" lon="14.367297512019043"><ele>425.0</ele><time>2026-04-04T07:40:38.998Z</time></trkpt><trkpt lat="42.031196347462654" lon="14.367313603159435"><ele>425.0</ele><time>2026-04-04T07:40:40.998Z</time></trkpt><trkpt lat="42.031117168324535" lon="14.36732432172246"><ele>425.0</ele><time>2026-04-04T07:40:43Z</time></trkpt><trkpt lat="42.03103250489161" lon="14.36731257875866"><ele>424.99999999999994</ele><time>2026-04-04T07:40:45Z</time></trkpt><trkpt lat="42.03094872368013" lon="14.367303524056624"><ele>425.0</ele><time>2026-04-04T07:40:47Z</time></trkpt><trkpt lat="42.03086632533434" lon="14.3672904185931"><ele>423.8333333333333</ele><time>2026-04-04T07:40:49Z</time></trkpt><trkpt lat="42.03078185225726" lon="14.367283201753358"><ele>422.66666666666663</ele><time>2026-04-04T07:40:51Z</time></trkpt><trkpt lat="42.03069740712952" lon="14.367287897129792"><ele>421.5</ele><time>2026-04-04T07:40:53Z</time></trkpt><trkpt lat="42.030614476237936" lon="14.367287940983296"><ele>420.33333333333337</ele><time>2026-04-04T07:40:55Z</time></trkpt><trkpt lat="42.030534709667855" lon="14.367298194827423"><ele>419.1666666666667</ele><time>2026-04-04T07:40:57Z</time></trkpt><trkpt lat="42.030450454610154" lon="14.367302971225003"><ele>418.0</ele><time>2026-04-04T07:40:59Z</time></trkpt><trkpt lat="42.03036339750403" lon="14.367305070769337"><ele>418.00000000000006</ele><time>2026-04-04T07:41:01Z</time></trkpt><trkpt lat="42.030279194170674" lon="14.367312502861175"><ele>418.0</ele><time>2026-04-04T07:41:03Z</time></trkpt><trkpt lat="42.03019500511516" lon="14.367342342914826"><ele>418.0</ele><time>2026-04-04T07:41:05Z</time></trkpt><trkpt lat="42.03010803057571" lon="14.367386926609704"><ele>418.0</ele><time>2026-04-04T07:41:07Z</time></trkpt><trkpt lat="42.03003554112621" lon="14.367460711662794"><ele>418.00000000000006</ele><time>2026-04-04T07:41:09Z</time></trkpt><trkpt lat="42.02997874556807" lon="14.367547502740042"><ele>418.0</ele><time>2026-04-04T07:41:11Z</time></trkpt><trkpt lat="42.02993757807664" lon="14.367649570601905"><ele>418.33333333333337</ele><time>2026-04-04T07:41:13Z</time></trkpt><trkpt lat="42.0298740779447" lon="14.36773412846609"><ele>418.6666666666667</ele><time>2026-04-04T07:41:14.999Z</time></trkpt><trkpt lat="42.02979323594204" lon="14.367763469397119"><ele>419.0</ele><time>2026-04-04T07:41:16.999Z</time></trkpt><trkpt lat="42.029720163272" lon="14.367760109424937"><ele>419.33333333333337</ele><time>2026-04-04T07:41:18.999Z</time></trkpt><trkpt lat="42.029654465928004" lon="14.367728610624908"><ele>419.6666666666667</ele><time>2026-04-04T07:41:20.999Z</time></trkpt><trkpt lat="42.02956110448652" lon="14.367710715494505"><ele>420.0</ele><time>2026-04-04T07:41:23.999Z</time></trkpt><trkpt lat="42.029470873109446" lon="14.367679902701648"><ele>420.0</ele><time>2026-04-04T07:41:26.999Z</time></trkpt><trkpt lat="42.0294080025947" lon="14.367657792856518"><ele>420.0</ele><time>2026-04-04T07:41:28.999Z</time></trkpt><trkpt lat="42.0293438640061" lon="14.367631151487913"><ele>420.0</ele><time>2026-04-04T07:41:30.999Z</time></trkpt><trkpt lat="42.02927685092905" lon="14.367610426233721"><ele>420.0</ele><time>2026-04-04T07:41:32.999Z</time></trkpt><trkpt lat="42.029211378516024" lon="14.367574424600644"><ele>420.0</ele><time>2026-04-04T07:41:34.999Z</time></trkpt><trkpt lat="42.029158791199414" lon="14.367514693117982"><ele>420.0</ele><time>2026-04-04T07:41:36.999Z</time></trkpt><trkpt lat="42.02911492529648" lon="14.367447421430017"><ele>420.0</ele><time>2026-04-04T07:41:38.999Z</time></trkpt><trkpt lat="42.02905216733001" lon="14.367386326293854"><ele>420.6666666666667</ele><time>2026-04-04T07:41:40.999Z</time></trkpt><trkpt lat="42.02898548037541" lon="14.367313026567818"><ele>421.33333333333337</ele><time>2026-04-04T07:41:42.999Z</time></trkpt><trkpt lat="42.028912794928715" lon="14.36725204979725"><ele>422.0</ele><time>2026-04-04T07:41:44.999Z</time></trkpt><trkpt lat="42.02884573029646" lon="14.367179438128824"><ele>422.6666666666667</ele><time>2026-04-04T07:41:46.999Z</time></trkpt><trkpt lat="42.02877824922264" lon="14.36710822751586"><ele>423.33333333333337</ele><time>2026-04-04T07:41:48.999Z</time></trkpt><trkpt lat="42.02870812236277" lon="14.367043401486766"><ele>424.0</ele><time>2026-04-04T07:41:50.999Z</time></trkpt><trkpt lat="42.02862759679964" lon="14.36696385186953"><ele>419.79999999999995</ele><time>2026-04-04T07:41:52.999Z</time></trkpt><trkpt lat="42.028542217463006" lon="14.36688491211732"><ele>415.59999999999997</ele><time>2026-04-04T07:41:54.999Z</time></trkpt><trkpt lat="42.02845128107028" lon="14.366817217911597"><ele>411.4</ele><time>2026-04-04T07:41:56.999Z</time></trkpt><trkpt lat="42.028365479002126" lon="14.366752644789843"><ele>407.2</ele><time>2026-04-04T07:41:58.999Z</time></trkpt><trkpt lat="42.02827591017744" lon="14.366691528376988"><ele>403.0</ele><time>2026-04-04T07:42:00.999Z</time></trkpt><trkpt lat="42.02819236579964" lon="14.366642574955751"><ele>402.00000000000006</ele><time>2026-04-04T07:42:02.999Z</time></trkpt><trkpt lat="42.02812163358019" lon="14.366590099358737"><ele>401.0</ele><time>2026-04-04T07:42:04.999Z</time></trkpt><trkpt lat="42.02806928531319" lon="14.366507217877889"><ele>400.0</ele><time>2026-04-04T07:42:06.999Z</time></trkpt><trkpt lat="42.02804123739333" lon="14.366395178244108"><ele>399.0</ele><time>2026-04-04T07:42:08.998Z</time></trkpt><trkpt lat="42.02803023679073" lon="14.366268225898102"><ele>398.00000000000006</ele><time>2026-04-04T07:42:10.998Z</time></trkpt><trkpt lat="42.02803237920429" lon="14.366134777321612"><ele>397.0</ele><time>2026-04-04T07:42:12.998Z</time></trkpt><trkpt lat="42.02803410309869" lon="14.366005635236212"><ele>394.40000000000003</ele><time>2026-04-04T07:42:14.998Z</time></trkpt><trkpt lat="42.028032823449976" lon="14.365872204595433"><ele>391.8</ele><time>2026-04-04T07:42:16.998Z</time></trkpt><trkpt lat="42.02802938206342" lon="14.36573070121488"><ele>389.2</ele><time>2026-04-04T07:42:18.998Z</time></trkpt><trkpt lat="42.02799910926753" lon="14.365591311993782"><ele>386.6</ele><time>2026-04-04T07:42:20.998Z</time></trkpt><trkpt lat="42.027933662660175" lon="14.36546307836548"><ele>384.0</ele><time>2026-04-04T07:42:22.998Z</time></trkpt><trkpt lat="42.0278496482305" lon="14.365356450102071"><ele>381.0</ele><time>2026-04-04T07:42:24.998Z</time></trkpt><trkpt lat="42.02774583144376" lon="14.365282860827804"><ele>378.0</ele><time>2026-04-04T07:42:26.998Z</time></trkpt><trkpt lat="42.02762181063753" lon="14.365253170273073"><ele>375.0</ele><time>2026-04-04T07:42:28.998Z</time></trkpt><trkpt lat="42.02750047420509" lon="14.365266339507246"><ele>372.0</ele><time>2026-04-04T07:42:30.998Z</time></trkpt><trkpt lat="42.027387641116626" lon="14.365303853577583"><ele>369.8333333333333</ele><time>2026-04-04T07:42:32.998Z</time></trkpt><trkpt lat="42.02726616255379" lon="14.365347395973258"><ele>367.6666666666667</ele><time>2026-04-04T07:42:34.998Z</time></trkpt><trkpt lat="42.02720378067803" lon="14.365373601280144"><ele>365.5</ele><time>2026-04-04T07:42:35.998Z</time></trkpt><trkpt lat="42.027139956434304" lon="14.365402436134712"><ele>363.33333333333337</ele><time>2026-04-04T07:42:36.998Z</time></trkpt><trkpt lat="42.02707281971737" lon="14.365429060996364"><ele>361.1666666666667</ele><time>2026-04-04T07:42:37.998Z</time></trkpt><trkpt lat="42.027001908782815" lon="14.365457164041402"><ele>359.0</ele><time>2026-04-04T07:42:38.998Z</time></trkpt><trkpt lat="42.02692987649961" lon="14.365483615390104"><ele>359.0</ele><time>2026-04-04T07:42:39.998Z</time></trkpt><trkpt lat="42.0268574776049" lon="14.365511003154815"><ele>359.0</ele><time>2026-04-04T07:42:40.998Z</time></trkpt><trkpt lat="42.02678679025272" lon="14.365532313130272"><ele>359.0</ele><time>2026-04-04T07:42:41.998Z</time></trkpt><trkpt lat="42.02671511870335" lon="14.36554721978586"><ele>359.0</ele><time>2026-04-04T07:42:42.998Z</time></trkpt><trkpt lat="42.026639755866235" lon="14.365551903089626"><ele>359.0</ele><time>2026-04-04T07:42:43.998Z</time></trkpt><trkpt lat="42.02656503061988" lon="14.365540736654403"><ele>359.0</ele><time>2026-04-04T07:42:44.998Z</time></trkpt><trkpt lat="42.02649283875071" lon="14.365514387436956"><ele>359.0</ele><time>2026-04-04T07:42:45.998Z</time></trkpt><trkpt lat="42.02642252474931" lon="14.365481585089363"><ele>358.0</ele><time>2026-04-04T07:42:46.998Z</time></trkpt><trkpt lat="42.02635338067011" lon="14.365449795312877"><ele>357.0</ele><time>2026-04-04T07:42:47.998Z</time></trkpt><trkpt lat="42.02628402097355" lon="14.365420553827512"><ele>356.0</ele><time>2026-04-04T07:42:49Z</time></trkpt><trkpt lat="42.02621556029176" lon="14.365392266373979"><ele>355.0</ele><time>2026-04-04T07:42:50Z</time></trkpt><trkpt lat="42.02614829662902" lon="14.365363639103983"><ele>354.0</ele><time>2026-04-04T07:42:51Z</time></trkpt><trkpt lat="42.026085078744096" lon="14.365333717058746"><ele>353.0</ele><time>2026-04-04T07:42:52Z</time></trkpt><trkpt lat="42.02602507804833" lon="14.365293612107138"><ele>352.0</ele><time>2026-04-04T07:42:53Z</time></trkpt><trkpt lat="42.025964836700034" lon="14.365237386169058"><ele>352.0</ele><time>2026-04-04T07:42:54Z</time></trkpt><trkpt lat="42.02591280304077" lon="14.365164279161439"><ele>352.0</ele><time>2026-04-04T07:42:55Z</time></trkpt><trkpt lat="42.025867284305335" lon="14.36507591441853"><ele>352.0</ele><time>2026-04-04T07:42:56Z</time></trkpt><trkpt lat="42.02582802942951" lon="14.36498453086383"><ele>352.0</ele><time>2026-04-04T07:42:57Z</time></trkpt><trkpt lat="42.02578826187885" lon="14.364897219266018"><ele>352.0</ele><time>2026-04-04T07:42:58Z</time></trkpt><trkpt lat="42.02574516913857" lon="14.364816311359638"><ele>352.0</ele><time>2026-04-04T07:42:59Z</time></trkpt><trkpt lat="42.02569826882078" lon="14.364741536276785"><ele>350.0</ele><time>2026-04-04T07:43:00Z</time></trkpt><trkpt lat="42.02564607945171" lon="14.364674634364576"><ele>348.0</ele><time>2026-04-04T07:43:01Z</time></trkpt><trkpt lat="42.025581784474774" lon="14.364623299650315"><ele>346.0</ele><time>2026-04-04T07:43:02Z</time></trkpt><trkpt lat="42.02550766651913" lon="14.364593881003914"><ele>344.0</ele><time>2026-04-04T07:43:03Z</time></trkpt><trkpt lat="42.02543108699768" lon="14.364584887792045"><ele>342.0</ele><time>2026-04-04T07:43:04Z</time></trkpt><trkpt lat="42.02535380554516" lon="14.364603752652327"><ele>340.0</ele><time>2026-04-04T07:43:05Z</time></trkpt><trkpt lat="42.025280186761634" lon="14.364634796898773"><ele>340.0</ele><time>2026-04-04T07:43:06Z</time></trkpt><trkpt lat="42.025212090976645" lon="14.364667780249983"><ele>340.0</ele><time>2026-04-04T07:43:07Z</time></trkpt><trkpt lat="42.025144525342284" lon="14.364692344766324"><ele>340.0</ele><time>2026-04-04T07:43:08Z</time></trkpt><trkpt lat="42.025069131086354" lon="14.364694512779222"><ele>340.0</ele><time>2026-04-04T07:43:09Z</time></trkpt><trkpt lat="42.02499045240945" lon="14.364681179609944"><ele>340.0</ele><time>2026-04-04T07:43:10Z</time></trkpt><trkpt lat="42.02491063576265" lon="14.36465101607633"><ele>340.0</ele><time>2026-04-04T07:43:11Z</time></trkpt><trkpt lat="42.02482934856381" lon="14.364623606650802"><ele>339.42857142857144</ele><time>2026-04-04T07:43:12Z</time></trkpt><trkpt lat="42.02475461597138" lon="14.364592020982634"><ele>338.85714285714283</ele><time>2026-04-04T07:43:13Z</time></trkpt><trkpt lat="42.02468289724513" lon="14.364567167994021"><ele>338.2857142857143</ele><time>2026-04-04T07:43:14Z</time></trkpt><trkpt lat="42.02461635074177" lon="14.36454334431916"><ele>337.7142857142857</ele><time>2026-04-04T07:43:15Z</time></trkpt><trkpt lat="42.024551029057896" lon="14.364514810348696"><ele>337.1428571428571</ele><time>2026-04-04T07:43:16Z</time></trkpt><trkpt lat="42.02448994159902" lon="14.364476731577955"><ele>336.57142857142856</ele><time>2026-04-04T07:43:17Z</time></trkpt><trkpt lat="42.02443449950565" lon="14.364429871052993"><ele>336.0</ele><time>2026-04-04T07:43:18Z</time></trkpt><trkpt lat="42.02438241205869" lon="14.364374504045925"><ele>336.0</ele><time>2026-04-04T07:43:19Z</time></trkpt><trkpt lat="42.024336786960134" lon="14.364307457727993"><ele>336.0</ele><time>2026-04-04T07:43:19.999Z</time></trkpt><trkpt lat="42.02429771452735" lon="14.364224872222799"><ele>336.0</ele><time>2026-04-04T07:43:20.999Z</time></trkpt><trkpt lat="42.02426301850751" lon="14.364134223004084"><ele>336.0</ele><time>2026-04-04T07:43:21.999Z</time></trkpt><trkpt lat="42.02423500735492" lon="14.36404164035461"><ele>336.0</ele><time>2026-04-04T07:43:22.999Z</time></trkpt><trkpt lat="42.02420726692891" lon="14.363953926583653"><ele>336.0</ele><time>2026-04-04T07:43:23.999Z</time></trkpt><trkpt lat="42.02418170822505" lon="14.363875228503225"><ele>336.0</ele><time>2026-04-04T07:43:24.999Z</time></trkpt><trkpt lat="42.02411502595949" lon="14.36374529274879"><ele>334.3333333333333</ele><time>2026-04-04T07:43:26.999Z</time></trkpt><trkpt lat="42.02399750330375" lon="14.363685211088068"><ele>332.6666666666667</ele><time>2026-04-04T07:43:28.999Z</time></trkpt><trkpt lat="42.02392789510847" lon="14.36369858844157"><ele>331.0</ele><time>2026-04-04T07:43:29.999Z</time></trkpt><trkpt lat="42.023866542113744" lon="14.363718556896856"><ele>329.33333333333337</ele><time>2026-04-04T07:43:30.999Z</time></trkpt><trkpt lat="42.02374763377278" lon="14.363700559197834"><ele>327.6666666666667</ele><time>2026-04-04T07:43:32.999Z</time></trkpt><trkpt lat="42.023691785683816" lon="14.363647266124874"><ele>326.0</ele><time>2026-04-04T07:43:33.999Z</time></trkpt><trkpt lat="42.0236434456488" lon="14.363573483899792"><ele>326.0</ele><time>2026-04-04T07:43:34.999Z</time></trkpt><trkpt lat="42.02358600554407" lon="14.363517926979762"><ele>326.0</ele><time>2026-04-04T07:43:35.999Z</time></trkpt><trkpt lat="42.02351875222898" lon="14.363488794553659"><ele>326.0</ele><time>2026-04-04T07:43:36.999Z</time></trkpt><trkpt lat="42.023446382588354" lon="14.363485976368532"><ele>326.0</ele><time>2026-04-04T07:43:37.999Z</time></trkpt><trkpt lat="42.023376677723974" lon="14.363491730465567"><ele>326.0</ele><time>2026-04-04T07:43:38.999Z</time></trkpt><trkpt lat="42.02331238267498" lon="14.363489836459701"><ele>326.0</ele><time>2026-04-04T07:43:39.999Z</time></trkpt><trkpt lat="42.02325145682458" lon="14.363464597502274"><ele>326.0</ele><time>2026-04-04T07:43:40.999Z</time></trkpt><trkpt lat="42.02316366146679" lon="14.363349201713197"><ele>326.20000000000005</ele><time>2026-04-04T07:43:42.999Z</time></trkpt><trkpt lat="42.023107109548405" lon="14.363226782554973"><ele>326.40000000000003</ele><time>2026-04-04T07:43:44.999Z</time></trkpt><trkpt lat="42.02305566893471" lon="14.363108420641336"><ele>326.6</ele><time>2026-04-04T07:43:46.999Z</time></trkpt><trkpt lat="42.022988068957055" lon="14.363004382374337"><ele>326.8</ele><time>2026-04-04T07:43:48.999Z</time></trkpt><trkpt lat="42.022922234785185" lon="14.36291050811401"><ele>327.0</ele><time>2026-04-04T07:43:50.999Z</time></trkpt><trkpt lat="42.02285233021364" lon="14.362817724250204"><ele>327.0</ele><time>2026-04-04T07:43:52.999Z</time></trkpt><trkpt lat="42.02278269233947" lon="14.362727238555403"><ele>327.0</ele><time>2026-04-04T07:43:54.999Z</time></trkpt><trkpt lat="42.02270969672171" lon="14.362642097213609"><ele>327.0</ele><time>2026-04-04T07:43:56.999Z</time></trkpt><trkpt lat="42.022639659107405" lon="14.362554829243333"><ele>327.0</ele><time>2026-04-04T07:43:58.999Z</time></trkpt><trkpt lat="42.02257411399277" lon="14.362466555679173"><ele>327.0</ele><time>2026-04-04T07:44:00.999Z</time></trkpt><trkpt lat="42.022505404757794" lon="14.362382378589825"><ele>326.20000000000005</ele><time>2026-04-04T07:44:02.999Z</time></trkpt><trkpt lat="42.022437507679705" lon="14.362302702780877"><ele>325.4</ele><time>2026-04-04T07:44:04.999Z</time></trkpt><trkpt lat="42.02236748577368" lon="14.362227923415347"><ele>324.6</ele><time>2026-04-04T07:44:06.999Z</time></trkpt><trkpt lat="42.022286704513526" lon="14.362167829504983"><ele>323.79999999999995</ele><time>2026-04-04T07:44:08.999Z</time></trkpt><trkpt lat="42.022198041579884" lon="14.362134898697878"><ele>323.0</ele><time>2026-04-04T07:44:10.999Z</time></trkpt><trkpt lat="42.02211152472485" lon="14.362106022432128"><ele>323.0</ele><time>2026-04-04T07:44:12.999Z</time></trkpt><trkpt lat="42.02202628101951" lon="14.362091317344145"><ele>323.0</ele><time>2026-04-04T07:44:14.998Z</time></trkpt><trkpt lat="42.02193982391056" lon="14.36207282442477"><ele>323.0</ele><time>2026-04-04T07:44:16.998Z</time></trkpt><trkpt lat="42.021854959612085" lon="14.36206204442762"><ele>323.0</ele><time>2026-04-04T07:44:18.998Z</time></trkpt><trkpt lat="42.02177131931267" lon="14.36204663399625"><ele>323.0</ele><time>2026-04-04T07:44:20.998Z</time></trkpt><trkpt lat="42.02168178793491" lon="14.362031567026442"><ele>323.0</ele><time>2026-04-04T07:44:22.998Z</time></trkpt><trkpt lat="42.021590635667756" lon="14.362014652004486"><ele>323.59999999999997</ele><time>2026-04-04T07:44:24.998Z</time></trkpt><trkpt lat="42.0215003809451" lon="14.36199520637523"><ele>324.2</ele><time>2026-04-04T07:44:26.998Z</time></trkpt><trkpt lat="42.02140856909313" lon="14.361972964716717"><ele>324.8</ele><time>2026-04-04T07:44:28.998Z</time></trkpt><trkpt lat="42.02131707199859" lon="14.36194743766568"><ele>325.4</ele><time>2026-04-04T07:44:30.998Z</time></trkpt><trkpt lat="42.02122380094708" lon="14.361913394446436"><ele>326.0</ele><time>2026-04-04T07:44:32.998Z</time></trkpt><trkpt lat="42.02113428236167" lon="14.361865731473738"><ele>326.0</ele><time>2026-04-04T07:44:34.998Z</time></trkpt><trkpt lat="42.02104440354728" lon="14.361823781918451"><ele>326.0</ele><time>2026-04-04T07:44:36.998Z</time></trkpt><trkpt lat="42.02095493303819" lon="14.361777758207047"><ele>326.0</ele><time>2026-04-04T07:44:38.998Z</time></trkpt><trkpt lat="42.02086275871811" lon="14.361726895600205"><ele>326.0</ele><time>2026-04-04T07:44:40.998Z</time></trkpt><trkpt lat="42.02077133701314" lon="14.3616753894532"><ele>326.0</ele><time>2026-04-04T07:44:42.998Z</time></trkpt><trkpt lat="42.02067932054556" lon="14.361624250190784"><ele>326.20000000000005</ele><time>2026-04-04T07:44:44.998Z</time></trkpt><trkpt lat="42.02058526933944" lon="14.361576658289568"><ele>326.40000000000003</ele><time>2026-04-04T07:44:46.998Z</time></trkpt><trkpt lat="42.02049568565276" lon="14.361526036963104"><ele>326.6</ele><time>2026-04-04T07:44:48.998Z</time></trkpt><trkpt lat="42.02041131389229" lon="14.361460249546296"><ele>326.8</ele><time>2026-04-04T07:44:50.998Z</time></trkpt><trkpt lat="42.020335328112544" lon="14.361370084840333"><ele>327.0</ele><time>2026-04-04T07:44:52.998Z</time></trkpt><trkpt lat="42.020277909866756" lon="14.361265163423386"><ele>325.8333333333333</ele><time>2026-04-04T07:44:55Z</time></trkpt><trkpt lat="42.020245212814196" lon="14.36116765487179"><ele>324.6666666666667</ele><time>2026-04-04T07:44:57Z</time></trkpt><trkpt lat="42.020215049127394" lon="14.361072277300018"><ele>323.5</ele><time>2026-04-04T07:45:00Z</time></trkpt><trkpt lat="42.02015299120278" lon="14.360998587894109"><ele>322.33333333333337</ele><time>2026-04-04T07:45:03Z</time></trkpt><trkpt lat="42.020077400298334" lon="14.361002077358803"><ele>321.1666666666667</ele><time>2026-04-04T07:45:05Z</time></trkpt><trkpt lat="42.020015432536226" lon="14.361026864244101"><ele>320.0</ele><time>2026-04-04T07:45:07Z</time></trkpt><trkpt lat="42.019938209104005" lon="14.361068847195927"><ele>317.6</ele><time>2026-04-04T07:45:09Z</time></trkpt><trkpt lat="42.019844072062156" lon="14.361114139358142"><ele>315.2</ele><time>2026-04-04T07:45:11Z</time></trkpt><trkpt lat="42.019737829287074" lon="14.361134324135916"><ele>312.8</ele><time>2026-04-04T07:45:13Z</time></trkpt><trkpt lat="42.01962065550542" lon="14.361133473216531"><ele>310.4</ele><time>2026-04-04T07:45:15Z</time></trkpt><trkpt lat="42.019498073029226" lon="14.361135038803667"><ele>308.0</ele><time>2026-04-04T07:45:17Z</time></trkpt><trkpt lat="42.01943437688748" lon="14.361134862791536"><ele>308.0</ele><time>2026-04-04T07:45:18Z</time></trkpt><trkpt lat="42.01936581306322" lon="14.361134756927429"><ele>308.0</ele><time>2026-04-04T07:45:19Z</time></trkpt><trkpt lat="42.019297423062916" lon="14.361134311242456"><ele>308.0</ele><time>2026-04-04T07:45:20Z</time></trkpt><trkpt lat="42.01922659765393" lon="14.361132490406607"><ele>308.0</ele><time>2026-04-04T07:45:21Z</time></trkpt><trkpt lat="42.01916017327393" lon="14.361130848455103"><ele>308.0</ele><time>2026-04-04T07:45:22Z</time></trkpt><trkpt lat="42.01904096197386" lon="14.361133026100305"><ele>308.0</ele><time>2026-04-04T07:45:23.999Z</time></trkpt><trkpt lat="42.01893130165021" lon="14.36113219621913"><ele>305.6</ele><time>2026-04-04T07:45:25.999Z</time></trkpt><trkpt lat="42.01883903978236" lon="14.361122402470649"><ele>303.20000000000005</ele><time>2026-04-04T07:45:27.999Z</time></trkpt><trkpt lat="42.01875574434377" lon="14.361134530148702"><ele>300.8</ele><time>2026-04-04T07:45:29.999Z</time></trkpt><trkpt lat="42.01867099030664" lon="14.361140729343514"><ele>298.40000000000003</ele><time>2026-04-04T07:45:31.999Z</time></trkpt><trkpt lat="42.01862172894038" lon="14.360993974036843"><ele>296.0</ele><time>2026-04-04T07:45:32.999Z</time></trkpt><trkpt lat="42.018532660948594" lon="14.360887148494665"><ele>296.0</ele><time>2026-04-04T07:45:34.999Z</time></trkpt><trkpt lat="42.01846014522946" lon="14.360776890887227"><ele>296.0</ele><time>2026-04-04T07:45:36.999Z</time></trkpt><trkpt lat="42.018411035279925" lon="14.360651742190031"><ele>296.0</ele><time>2026-04-04T07:45:38.999Z</time></trkpt><trkpt lat="42.01837996610775" lon="14.360499063615825"><ele>296.0</ele><time>2026-04-04T07:45:40.999Z</time></trkpt><trkpt lat="42.018365473705245" lon="14.360332253375109"><ele>295.0</ele><time>2026-04-04T07:45:42.999Z</time></trkpt><trkpt lat="42.01835211929112" lon="14.360166963934631"><ele>294.0</ele><time>2026-04-04T07:45:44.999Z</time></trkpt><trkpt lat="42.01833198560673" lon="14.360019552013139"><ele>293.0</ele><time>2026-04-04T07:45:46.999Z</time></trkpt><trkpt lat="42.01830190827924" lon="14.359899717334187"><ele>292.0</ele><time>2026-04-04T07:45:48.999Z</time></trkpt><trkpt lat="42.01823695465299" lon="14.35978823605176"><ele>291.0</ele><time>2026-04-04T07:45:50.999Z</time></trkpt><trkpt lat="42.01814363379346" lon="14.359706747525419"><ele>285.75</ele><time>2026-04-04T07:45:52.999Z</time></trkpt><trkpt lat="42.018042434692305" lon="14.359648341586887"><ele>280.5</ele><time>2026-04-04T07:45:54.999Z</time></trkpt><trkpt lat="42.01793448652661" lon="14.359614651249414"><ele>275.25</ele><time>2026-04-04T07:45:56.999Z</time></trkpt><trkpt lat="42.01781603501735" lon="14.35961643313307"><ele>270.0</ele><time>2026-04-04T07:45:58.999Z</time></trkpt><trkpt lat="42.017701008367496" lon="14.359622737733343"><ele>270.0</ele><time>2026-04-04T07:46:00.999Z</time></trkpt><trkpt lat="42.01758374599359" lon="14.359633755515027"><ele>270.0</ele><time>2026-04-04T07:46:02.999Z</time></trkpt><trkpt lat="42.017480504144594" lon="14.359639644268507"><ele>270.0</ele><time>2026-04-04T07:46:04.999Z</time></trkpt><trkpt lat="42.017396471089015" lon="14.359635965595833"><ele>270.0</ele><time>2026-04-04T07:46:06.999Z</time></trkpt><trkpt lat="42.017330622411855" lon="14.359613874227806"><ele>270.0</ele><time>2026-04-04T07:46:08.999Z</time></trkpt><trkpt lat="42.01726419258139" lon="14.359621853168505"><ele>270.0</ele><time>2026-04-04T07:46:12.999Z</time></trkpt><trkpt lat="42.0172678911573" lon="14.359448360558213"><ele>268.6</ele><time>2026-04-04T07:46:14.999Z</time></trkpt><trkpt lat="42.01728118538043" lon="14.359319031397032"><ele>267.2</ele><time>2026-04-04T07:46:16.998Z</time></trkpt><trkpt lat="42.01732451171769" lon="14.359164624828265"><ele>265.8</ele><time>2026-04-04T07:46:18.998Z</time></trkpt><trkpt lat="42.017343107233884" lon="14.359081078265076"><ele>264.4</ele><time>2026-04-04T07:46:19.998Z</time></trkpt><trkpt lat="42.017374006003884" lon="14.358944428496596"><ele>263.0</ele><time>2026-04-04T07:46:21.998Z</time></trkpt><trkpt lat="42.01740477089579" lon="14.358828998917133"><ele>262.4</ele><time>2026-04-04T07:46:23.998Z</time></trkpt><trkpt lat="42.017437151273164" lon="14.358703690506786"><ele>261.8</ele><time>2026-04-04T07:46:25.998Z</time></trkpt><trkpt lat="42.01747920176574" lon="14.358571301575871"><ele>261.2</ele><time>2026-04-04T07:46:27.998Z</time></trkpt><trkpt lat="42.01752832240628" lon="14.35843826218227"><ele>260.6</ele><time>2026-04-04T07:46:29.998Z</time></trkpt><trkpt lat="42.01757277920178" lon="14.358327512353691"><ele>260.0</ele><time>2026-04-04T07:46:31.998Z</time></trkpt><trkpt lat="42.01763701996741" lon="14.358222556739761"><ele>260.0</ele><time>2026-04-04T07:46:33.998Z</time></trkpt><trkpt lat="42.01769999599491" lon="14.358129121562655"><ele>260.0</ele><time>2026-04-04T07:46:35.998Z</time></trkpt><trkpt lat="42.017749852323604" lon="14.358052012396204"><ele>260.0</ele><time>2026-04-04T07:46:37.998Z</time></trkpt><trkpt lat="42.01775457256065" lon="14.357934948325122"><ele>260.0</ele><time>2026-04-04T07:46:40.998Z</time></trkpt><trkpt lat="42.01771132974047" lon="14.357858615675536"><ele>260.0</ele><time>2026-04-04T07:46:42.998Z</time></trkpt><trkpt lat="42.017668355556175" lon="14.35779481161333"><ele>260.0</ele><time>2026-04-04T07:46:44.998Z</time></trkpt><trkpt lat="42.017625553601185" lon="14.357709246528305"><ele>259.7142857142857</ele><time>2026-04-04T07:46:47.998Z</time></trkpt><trkpt lat="42.017559170542434" lon="14.357617070999794"><ele>259.42857142857144</ele><time>2026-04-04T07:46:50.998Z</time></trkpt><trkpt lat="42.017505656415004" lon="14.357564038703082"><ele>259.1428571428571</ele><time>2026-04-04T07:46:55.998Z</time></trkpt><trkpt lat="42.01744326485324" lon="14.357544325913235"><ele>258.8571428571429</ele><time>2026-04-04T07:47:05Z</time></trkpt><trkpt lat="42.017371630314905" lon="14.35752771316789"><ele>258.57142857142856</ele><time>2026-04-04T07:47:09Z</time></trkpt><trkpt lat="42.01731141725" lon="14.357556732546309"><ele>258.2857142857143</ele><time>2026-04-04T07:47:45.999Z</time></trkpt><trkpt lat="42.01732731004698" lon="14.357653213016668"><ele>258.0</ele><time>2026-04-04T07:50:49.998Z</time></trkpt><trkpt lat="42.0173449663723" lon="14.357564570470826"><ele>257.99999999999994</ele><time>2026-04-04T07:51:01.998Z</time></trkpt><trkpt lat="42.017309736365064" lon="14.357658357114081"><ele>258.0</ele><time>2026-04-04T07:51:09.998Z</time></trkpt><trkpt lat="42.01733838726015" lon="14.357576589041416"><ele>258.0</ele><time>2026-04-04T07:51:19Z</time></trkpt><trkpt lat="42.017404518629064" lon="14.357592395650775"><ele>258.0</ele><time>2026-04-04T07:51:24Z</time></trkpt><trkpt lat="42.0174701281453" lon="14.357588323316856"><ele>258.0</ele><time>2026-04-04T07:51:29.999Z</time></trkpt><trkpt lat="42.01753285349044" lon="14.35762808600531"><ele>257.99999999999994</ele><time>2026-04-04T07:51:34.999Z</time></trkpt><trkpt lat="42.01756288426675" lon="14.357703507322263"><ele>258.0</ele><time>2026-04-04T07:51:38.999Z</time></trkpt><trkpt lat="42.01753679143233" lon="14.357623499156498"><ele>257.99999999999994</ele><time>2026-04-04T07:51:43.999Z</time></trkpt><trkpt lat="42.01758288213856" lon="14.357703823376413"><ele>258.0</ele><time>2026-04-04T07:51:54.999Z</time></trkpt><trkpt lat="42.01762204983755" lon="14.357775944541414"><ele>258.0</ele><time>2026-04-04T07:51:59.999Z</time></trkpt><trkpt lat="42.01766660815691" lon="14.357836215684456"><ele>258.0</ele><time>2026-04-04T07:52:04.999Z</time></trkpt><trkpt lat="42.01768228706444" lon="14.357925319615191"><ele>258.0</ele><time>2026-04-04T07:52:09.999Z</time></trkpt><trkpt lat="42.017749209680545" lon="14.357914230068411"><ele>257.99999999999994</ele><time>2026-04-04T07:52:16.999Z</time></trkpt><trkpt lat="42.01781479516774" lon="14.357875915084332"><ele>258.0</ele><time>2026-04-04T07:52:22.998Z</time></trkpt><trkpt lat="42.01777200435001" lon="14.357945682307054"><ele>257.99999999999994</ele><time>2026-04-04T07:52:29.998Z</time></trkpt><trkpt lat="42.017802842565146" lon="14.357862273631657"><ele>258.0</ele><time>2026-04-04T07:52:35.999Z</time></trkpt><trkpt lat="42.0178708922475" lon="14.357852296129764"><ele>258.0</ele><time>2026-04-04T07:52:40.999Z</time></trkpt><trkpt lat="42.01793579123289" lon="14.357795649466432"><ele>258.0</ele><time>2026-04-04T07:52:45.999Z</time></trkpt><trkpt lat="42.01799521489031" lon="14.35775428604564"><ele>258.0</ele><time>2026-04-04T07:52:49.999Z</time></trkpt><trkpt lat="42.018041554255" lon="14.357693522702636"><ele>257.99999999999994</ele><time>2026-04-04T07:52:53.999Z</time></trkpt><trkpt lat="42.01810290914213" lon="14.357657729854772"><ele>258.0</ele><time>2026-04-04T07:52:57.999Z</time></trkpt><trkpt lat="42.01816408841841" lon="14.357686729852832"><ele>257.99999999999994</ele><time>2026-04-04T07:53:01.999Z</time></trkpt><trkpt lat="42.0182409423281" lon="14.357698411454766"><ele>258.0</ele><time>2026-04-04T07:53:06.999Z</time></trkpt><trkpt lat="42.01829892132064" lon="14.357758573547159"><ele>258.0</ele><time>2026-04-04T07:53:11.999Z</time></trkpt><trkpt lat="42.01836730156018" lon="14.357774753767739"><ele>258.0</ele><time>2026-04-04T07:53:15.998Z</time></trkpt><trkpt lat="42.018449226328705" lon="14.357776666859618"><ele>258.0</ele><time>2026-04-04T07:53:21Z</time></trkpt><trkpt lat="42.018524239245316" lon="14.35775362862396"><ele>257.99999999999994</ele><time>2026-04-04T07:53:25Z</time></trkpt><trkpt lat="42.01858449382045" lon="14.357722753387781"><ele>258.0</ele><time>2026-04-04T07:53:28Z</time></trkpt><trkpt lat="42.01863881659137" lon="14.357678693079482"><ele>258.85714285714283</ele><time>2026-04-04T07:53:31Z</time></trkpt><trkpt lat="42.0187213275014" lon="14.35766726319706"><ele>259.7142857142857</ele><time>2026-04-04T07:53:35Z</time></trkpt><trkpt lat="42.01879477917866" lon="14.357670115118923"><ele>260.57142857142856</ele><time>2026-04-04T07:53:39Z</time></trkpt><trkpt lat="42.0188580290965" lon="14.357714523748852"><ele>261.42857142857144</ele><time>2026-04-04T07:55:45Z</time></trkpt><trkpt lat="42.018877235451804" lon="14.357814893342146"><ele>262.2857142857143</ele><time>2026-04-04T07:55:50Z</time></trkpt><trkpt lat="42.01886393558806" lon="14.357899077870103"><ele>263.1428571428571</ele><time>2026-04-04T07:55:54Z</time></trkpt><trkpt lat="42.018828007056726" lon="14.357978541324641"><ele>264.0</ele><time>2026-04-04T07:55:58Z</time></trkpt><trkpt lat="42.01877674958686" lon="14.358036788687365"><ele>265.2857142857143</ele><time>2026-04-04T07:56:01Z</time></trkpt><trkpt lat="42.018736010698966" lon="14.358116996086013"><ele>266.57142857142856</ele><time>2026-04-04T07:56:05Z</time></trkpt><trkpt lat="42.01871786319879" lon="14.358222831604623"><ele>267.8571428571429</ele><time>2026-04-04T07:56:09Z</time></trkpt><trkpt lat="42.01872486256378" lon="14.358308929856934"><ele>269.1428571428571</ele><time>2026-04-04T07:56:12Z</time></trkpt><trkpt lat="42.01875864316659" lon="14.358393829031094"><ele>270.42857142857144</ele><time>2026-04-04T07:56:16Z</time></trkpt><trkpt lat="42.01881890420443" lon="14.35845189070447"><ele>271.7142857142857</ele><time>2026-04-04T07:56:19.999Z</time></trkpt><trkpt lat="42.01886767815107" lon="14.358515252899112"><ele>273.0</ele><time>2026-04-04T07:56:23.999Z</time></trkpt><trkpt lat="42.018908010584305" lon="14.358602981517862"><ele>273.0</ele><time>2026-04-04T07:56:28.999Z</time></trkpt><trkpt lat="42.01891015115087" lon="14.358693488760757"><ele>273.0</ele><time>2026-04-04T07:56:32.999Z</time></trkpt><trkpt lat="42.01887715216615" lon="14.358768519123426"><ele>273.0</ele><time>2026-04-04T07:56:36.999Z</time></trkpt><trkpt lat="42.01881893512354" lon="14.358838811444143"><ele>273.0</ele><time>2026-04-04T07:56:41.999Z</time></trkpt><trkpt lat="42.018779491816716" lon="14.3589125390341"><ele>273.0</ele><time>2026-04-04T07:56:47.999Z</time></trkpt><trkpt lat="42.01876327422505" lon="14.359000745162453"><ele>273.0</ele><time>2026-04-04T07:56:52.999Z</time></trkpt><trkpt lat="42.01875748112118" lon="14.359099051649794"><ele>273.0</ele><time>2026-04-04T07:56:57.999Z</time></trkpt><trkpt lat="42.018752469317704" lon="14.359189945452282"><ele>274.42857142857144</ele><time>2026-04-04T07:57:02.999Z</time></trkpt><trkpt lat="42.01875673387305" lon="14.359291748889508"><ele>275.8571428571429</ele><time>2026-04-04T07:57:07.999Z</time></trkpt><trkpt lat="42.01878214822451" lon="14.359375278701776"><ele>277.2857142857143</ele><time>2026-04-04T07:57:12.999Z</time></trkpt><trkpt lat="42.01882179400881" lon="14.359451456772678"><ele>278.7142857142857</ele><time>2026-04-04T07:57:17.998Z</time></trkpt><trkpt lat="42.018872481911245" lon="14.359513532725472"><ele>280.14285714285717</ele><time>2026-04-04T07:57:22.998Z</time></trkpt><trkpt lat="42.01892667396545" lon="14.359559578363676"><ele>281.57142857142856</ele><time>2026-04-04T07:57:27.998Z</time></trkpt><trkpt lat="42.018982046538305" lon="14.359600774817244"><ele>283.0</ele><time>2026-04-04T07:57:33Z</time></trkpt><trkpt lat="42.019046959692055" lon="14.359648507645367"><ele>283.0</ele><time>2026-04-04T07:57:39Z</time></trkpt><trkpt lat="42.01910601990616" lon="14.3596922426028"><ele>283.0</ele><time>2026-04-04T07:57:44Z</time></trkpt><trkpt lat="42.01917040139929" lon="14.359731998027796"><ele>283.0</ele><time>2026-04-04T07:57:49Z</time></trkpt><trkpt lat="42.01923220142137" lon="14.359762377019091"><ele>283.0</ele><time>2026-04-04T07:57:54Z</time></trkpt><trkpt lat="42.0192776674628" lon="14.35982194264235"><ele>283.0</ele><time>2026-04-04T07:57:59Z</time></trkpt><trkpt lat="42.0193444445007" lon="14.359839208586441"><ele>283.0</ele><time>2026-04-04T07:58:05Z</time></trkpt><trkpt lat="42.01939928670461" lon="14.359900581609109"><ele>283.0</ele><time>2026-04-04T07:58:11Z</time></trkpt><trkpt lat="42.019463272656694" lon="14.359946945404749"><ele>285.8571428571429</ele><time>2026-04-04T07:58:17Z</time></trkpt><trkpt lat="42.019531427645504" lon="14.359988668664547"><ele>288.7142857142857</ele><time>2026-04-04T07:58:22.999Z</time></trkpt><trkpt lat="42.01959807482425" lon="14.360037643274602"><ele>291.57142857142856</ele><time>2026-04-04T07:58:28.999Z</time></trkpt><trkpt lat="42.01966288050951" lon="14.36005787337052"><ele>294.42857142857144</ele><time>2026-04-04T07:58:33.999Z</time></trkpt><trkpt lat="42.01972591497598" lon="14.36009470726345"><ele>297.2857142857143</ele><time>2026-04-04T07:58:39.999Z</time></trkpt><trkpt lat="42.019790137708156" lon="14.360132453790646"><ele>300.14285714285717</ele><time>2026-04-04T07:58:45.999Z</time></trkpt><trkpt lat="42.0198457299368" lon="14.360184665177732"><ele>303.0</ele><time>2026-04-04T07:58:51.999Z</time></trkpt><trkpt lat="42.01989773719218" lon="14.360239243455105"><ele>303.0</ele><time>2026-04-04T07:58:57.999Z</time></trkpt><trkpt lat="42.019940644848056" lon="14.360314461249283"><ele>303.0</ele><time>2026-04-04T07:59:04.999Z</time></trkpt><trkpt lat="42.01997693804753" lon="14.360402771566186"><ele>303.0</ele><time>2026-04-04T07:59:11.999Z</time></trkpt><trkpt lat="42.01999718435495" lon="14.36050585810089"><ele>303.0</ele><time>2026-04-04T07:59:18.998Z</time></trkpt><trkpt lat="42.02001064891356" lon="14.360599733708609"><ele>303.0</ele><time>2026-04-04T07:59:26.998Z</time></trkpt><trkpt lat="42.020032018922564" lon="14.360688902325187"><ele>303.0</ele><time>2026-04-04T07:59:31.998Z</time></trkpt><trkpt lat="42.02006553715793" lon="14.360776878478319"><ele>303.0</ele><time>2026-04-04T07:59:33.998Z</time></trkpt><trkpt lat="42.0200722567194" lon="14.360862233520265"><ele>305.42857142857144</ele><time>2026-04-04T07:59:41Z</time></trkpt><trkpt lat="42.02010959085688" lon="14.360947968753804"><ele>307.85714285714283</ele><time>2026-04-04T07:59:43Z</time></trkpt><trkpt lat="42.02014793370045" lon="14.36101593177764"><ele>310.2857142857143</ele><time>2026-04-04T07:59:48Z</time></trkpt><trkpt lat="42.020159652117684" lon="14.36111259331905"><ele>312.7142857142857</ele><time>2026-04-04T07:59:57Z</time></trkpt><trkpt lat="42.020195895712774" lon="14.361187694302231"><ele>315.14285714285717</ele><time>2026-04-04T08:00:06Z</time></trkpt><trkpt lat="42.02021103619934" lon="14.36127046815779"><ele>317.57142857142856</ele><time>2026-04-04T08:00:11Z</time></trkpt><trkpt lat="42.020244804941264" lon="14.361349878311616"><ele>320.0</ele><time>2026-04-04T08:00:15Z</time></trkpt><trkpt lat="42.020291163393416" lon="14.36141420811806"><ele>321.0</ele><time>2026-04-04T08:00:20Z</time></trkpt><trkpt lat="42.02034369592852" lon="14.361481292198233"><ele>322.0</ele><time>2026-04-04T08:00:25Z</time></trkpt><trkpt lat="42.020408650137774" lon="14.361543485104928"><ele>323.0</ele><time>2026-04-04T08:00:30Z</time></trkpt><trkpt lat="42.02046384362919" lon="14.361585448122286"><ele>324.0</ele><time>2026-04-04T08:00:33.999Z</time></trkpt><trkpt lat="42.02052395234125" lon="14.361618402853615"><ele>325.0</ele><time>2026-04-04T08:00:37.999Z</time></trkpt><trkpt lat="42.02058853016361" lon="14.361655670890023"><ele>326.0</ele><time>2026-04-04T08:00:41.999Z</time></trkpt><trkpt lat="42.0206625350508" lon="14.36170460606698"><ele>327.0</ele><time>2026-04-04T08:00:45.999Z</time></trkpt><trkpt lat="42.020724451928245" lon="14.361734851691223"><ele>327.0</ele><time>2026-04-04T08:00:48.999Z</time></trkpt><trkpt lat="42.020799060323434" lon="14.361760902503958"><ele>327.0</ele><time>2026-04-04T08:00:53.999Z</time></trkpt><trkpt lat="42.02087108025348" lon="14.361804538261673"><ele>327.0</ele><time>2026-04-04T08:00:58.999Z</time></trkpt><trkpt lat="42.02094343142516" lon="14.361865911904653"><ele>327.0</ele><time>2026-04-04T08:01:01.999Z</time></trkpt><trkpt lat="42.021017639889294" lon="14.36190119691741"><ele>327.0</ele><time>2026-04-04T08:01:04.999Z</time></trkpt><trkpt lat="42.021093062722585" lon="14.361932600640017"><ele>327.0</ele><time>2026-04-04T08:01:07.999Z</time></trkpt><trkpt lat="42.0211673733616" lon="14.361971608418141"><ele>326.8333333333333</ele><time>2026-04-04T08:01:10.999Z</time></trkpt><trkpt lat="42.02123836819516" lon="14.362003028360553"><ele>326.6666666666667</ele><time>2026-04-04T08:01:13.999Z</time></trkpt><trkpt lat="42.021313815731276" lon="14.362028617226883"><ele>326.5</ele><time>2026-04-04T08:01:16.999Z</time></trkpt><trkpt lat="42.021393997810776" lon="14.362047966603441"><ele>326.33333333333337</ele><time>2026-04-04T08:01:19.999Z</time></trkpt><trkpt lat="42.021469921381716" lon="14.362066497781761"><ele>326.1666666666667</ele><time>2026-04-04T08:01:22.999Z</time></trkpt><trkpt lat="42.021538039852935" lon="14.36208723652524"><ele>326.0</ele><time>2026-04-04T08:01:25.999Z</time></trkpt><trkpt lat="42.02161776100003" lon="14.362102613198823"><ele>325.5714285714286</ele><time>2026-04-04T08:01:29.998Z</time></trkpt><trkpt lat="42.02168284272741" lon="14.362119408376824"><ele>325.1428571428571</ele><time>2026-04-04T08:01:33.998Z</time></trkpt><trkpt lat="42.021759796044876" lon="14.362133519987736"><ele>324.7142857142857</ele><time>2026-04-04T08:01:37.998Z</time></trkpt><trkpt lat="42.02182794621856" lon="14.362127130521221"><ele>324.28571428571433</ele><time>2026-04-04T08:01:43Z</time></trkpt><trkpt lat="42.02190213360392" lon="14.362138685402579"><ele>323.8571428571429</ele><time>2026-04-04T08:01:46Z</time></trkpt><trkpt lat="42.021965973480775" lon="14.362153884665867"><ele>323.42857142857144</ele><time>2026-04-04T08:01:49Z</time></trkpt><trkpt lat="42.022030378987566" lon="14.36217156255787"><ele>323.0</ele><time>2026-04-04T08:01:52Z</time></trkpt><trkpt lat="42.022107892495214" lon="14.362223487048809"><ele>323.5714285714286</ele><time>2026-04-04T08:01:56Z</time></trkpt><trkpt lat="42.022183827092185" lon="14.362232731322804"><ele>324.14285714285717</ele><time>2026-04-04T08:01:58Z</time></trkpt><trkpt lat="42.022276097648884" lon="14.36228087740108"><ele>324.7142857142857</ele><time>2026-04-04T08:01:59Z</time></trkpt><trkpt lat="42.02233290831027" lon="14.362327876687218"><ele>325.28571428571433</ele><time>2026-04-04T08:02:01Z</time></trkpt><trkpt lat="42.022384748045006" lon="14.36238308778395"><ele>325.8571428571429</ele><time>2026-04-04T08:02:03Z</time></trkpt><trkpt lat="42.022436223583306" lon="14.362444254433381"><ele>326.42857142857144</ele><time>2026-04-04T08:02:05Z</time></trkpt><trkpt lat="42.02248826577163" lon="14.36250889873393"><ele>327.0</ele><time>2026-04-04T08:02:07Z</time></trkpt><trkpt lat="42.02257524348676" lon="14.362574012779074"><ele>327.0</ele><time>2026-04-04T08:02:10Z</time></trkpt><trkpt lat="42.02262397742459" lon="14.362642325768599"><ele>327.0</ele><time>2026-04-04T08:02:12Z</time></trkpt><trkpt lat="42.022673674206864" lon="14.362703268885262"><ele>327.0</ele><time>2026-04-04T08:02:14Z</time></trkpt><trkpt lat="42.02274146638102" lon="14.362790141567215"><ele>327.0</ele><time>2026-04-04T08:02:17Z</time></trkpt><trkpt lat="42.02278917226376" lon="14.362846336631193"><ele>327.0</ele><time>2026-04-04T08:02:19Z</time></trkpt><trkpt lat="42.0228496285855" lon="14.362918520162394"><ele>327.0</ele><time>2026-04-04T08:02:22Z</time></trkpt><trkpt lat="42.02290084780657" lon="14.362983359625701"><ele>327.0</ele><time>2026-04-04T08:02:25Z</time></trkpt><trkpt lat="42.02295238972356" lon="14.363076131261547"><ele>328.8333333333333</ele><time>2026-04-04T08:02:29Z</time></trkpt><trkpt lat="42.02301300542876" lon="14.36310273008832"><ele>330.6666666666667</ele><time>2026-04-04T08:02:33Z</time></trkpt><trkpt lat="42.02306165247847" lon="14.363220881258266"><ele>332.5</ele><time>2026-04-04T08:02:36Z</time></trkpt><trkpt lat="42.02308132111356" lon="14.363320753716339"><ele>334.33333333333337</ele><time>2026-04-04T08:02:38Z</time></trkpt><trkpt lat="42.023110893151596" lon="14.363404743058053"><ele>336.1666666666667</ele><time>2026-04-04T08:02:40Z</time></trkpt><trkpt lat="42.023178336052744" lon="14.36351603471064"><ele>338.0</ele><time>2026-04-04T08:02:42Z</time></trkpt><trkpt lat="42.02322743919777" lon="14.363586194773054"><ele>338.0</ele><time>2026-04-04T08:02:43.999Z</time></trkpt><trkpt lat="42.023283505973396" lon="14.363678646529971"><ele>338.0</ele><time>2026-04-04T08:02:46.999Z</time></trkpt><trkpt lat="42.02333534456916" lon="14.363752002657202"><ele>338.0</ele><time>2026-04-04T08:02:49.999Z</time></trkpt><trkpt lat="42.02338429282919" lon="14.363820675720238"><ele>338.0</ele><time>2026-04-04T08:02:52.999Z</time></trkpt><trkpt lat="42.02344043594432" lon="14.363882010749629"><ele>338.0</ele><time>2026-04-04T08:02:55.999Z</time></trkpt><trkpt lat="42.02350270875617" lon="14.363924416282584"><ele>338.0</ele><time>2026-04-04T08:02:58.999Z</time></trkpt><trkpt lat="42.02356443080693" lon="14.363956171873474"><ele>338.0</ele><time>2026-04-04T08:03:01.999Z</time></trkpt><trkpt lat="42.02363023286818" lon="14.363925350545285"><ele>337.14285714285717</ele><time>2026-04-04T08:03:06.999Z</time></trkpt><trkpt lat="42.0236965854409" lon="14.363889578714216"><ele>336.2857142857143</ele><time>2026-04-04T08:03:10.999Z</time></trkpt><trkpt lat="42.023753889860984" lon="14.363853549567507"><ele>335.42857142857144</ele><time>2026-04-04T08:03:13.999Z</time></trkpt><trkpt lat="42.023817227328905" lon="14.36381180207677"><ele>334.57142857142856</ele><time>2026-04-04T08:03:17.999Z</time></trkpt><trkpt lat="42.02388059611309" lon="14.363791255329266"><ele>333.7142857142857</ele><time>2026-04-04T08:03:21.999Z</time></trkpt><trkpt lat="42.02395132936322" lon="14.363777690874995"><ele>332.85714285714283</ele><time>2026-04-04T08:03:25.999Z</time></trkpt><trkpt lat="42.0240234430644" lon="14.363804189300197"><ele>332.0</ele><time>2026-04-04T08:03:29.999Z</time></trkpt><trkpt lat="42.02408901141682" lon="14.363862722913533"><ele>332.0</ele><time>2026-04-04T08:03:33.999Z</time></trkpt><trkpt lat="42.02412004427563" lon="14.36395599368174"><ele>332.0</ele><time>2026-04-04T08:03:41.998Z</time></trkpt><trkpt lat="42.02414716569649" lon="14.364040660319944"><ele>332.0</ele><time>2026-04-04T08:03:44.998Z</time></trkpt><trkpt lat="42.02416151760451" lon="14.364137866318753"><ele>332.0</ele><time>2026-04-04T08:03:51Z</time></trkpt><trkpt lat="42.02421804084299" lon="14.364177986984837"><ele>332.0</ele><time>2026-04-04T08:03:55Z</time></trkpt><trkpt lat="42.02421962703164" lon="14.364281129047695"><ele>332.0</ele><time>2026-04-04T08:04:00Z</time></trkpt><trkpt lat="42.024273050639984" lon="14.364330158091644"><ele>332.0</ele><time>2026-04-04T08:04:04Z</time></trkpt><trkpt lat="42.024303138918334" lon="14.36442200634215"><ele>332.57142857142856</ele><time>2026-04-04T08:04:09Z</time></trkpt><trkpt lat="42.02436131180465" lon="14.364458712155617"><ele>333.14285714285717</ele><time>2026-04-04T08:04:13Z</time></trkpt><trkpt lat="42.02440533770101" lon="14.36453460513749"><ele>333.7142857142857</ele><time>2026-04-04T08:04:18Z</time></trkpt><trkpt lat="42.024470109076816" lon="14.36457055906681"><ele>334.2857142857143</ele><time>2026-04-04T08:04:24Z</time></trkpt><trkpt lat="42.02454150676746" lon="14.364596390569334"><ele>334.8571428571429</ele><time>2026-04-04T08:04:30Z</time></trkpt><trkpt lat="42.024607834283316" lon="14.364622968980846"><ele>335.42857142857144</ele><time>2026-04-04T08:04:34Z</time></trkpt><trkpt lat="42.02467470137085" lon="14.36465886326805"><ele>336.0</ele><time>2026-04-04T08:04:39Z</time></trkpt><trkpt lat="42.02473982700618" lon="14.364696553471447"><ele>337.2857142857143</ele><time>2026-04-04T08:04:43.999Z</time></trkpt><trkpt lat="42.02480252913244" lon="14.364712642763747"><ele>338.57142857142856</ele><time>2026-04-04T08:04:48.999Z</time></trkpt><trkpt lat="42.024865942105436" lon="14.364720570677251"><ele>339.8571428571429</ele><time>2026-04-04T08:04:53.999Z</time></trkpt><trkpt lat="42.024935572823765" lon="14.36475585489784"><ele>341.1428571428571</ele><time>2026-04-04T08:04:58.999Z</time></trkpt><trkpt lat="42.02499630119891" lon="14.364787955394563"><ele>342.42857142857144</ele><time>2026-04-04T08:05:03.999Z</time></trkpt><trkpt lat="42.02506943242982" lon="14.364799822244182"><ele>343.7142857142857</ele><time>2026-04-04T08:05:08.999Z</time></trkpt><trkpt lat="42.025143053743456" lon="14.364798554890523"><ele>345.0</ele><time>2026-04-04T08:05:12.999Z</time></trkpt><trkpt lat="42.02520388327617" lon="14.36477540447919"><ele>345.7142857142857</ele><time>2026-04-04T08:05:16.999Z</time></trkpt><trkpt lat="42.02527386188664" lon="14.364740506264019"><ele>346.42857142857144</ele><time>2026-04-04T08:05:21.999Z</time></trkpt><trkpt lat="42.02534707921699" lon="14.364724147513117"><ele>347.1428571428571</ele><time>2026-04-04T08:05:26.999Z</time></trkpt><trkpt lat="42.02542028873431" lon="14.364702530070192"><ele>347.8571428571429</ele><time>2026-04-04T08:05:31.999Z</time></trkpt><trkpt lat="42.02549617519957" lon="14.364716678051737"><ele>348.57142857142856</ele><time>2026-04-04T08:05:36.999Z</time></trkpt><trkpt lat="42.02556070673656" lon="14.364742210620728"><ele>349.2857142857143</ele><time>2026-04-04T08:05:40.998Z</time></trkpt><trkpt lat="42.02562577962777" lon="14.364789720251235"><ele>350.0</ele><time>2026-04-04T08:05:45.998Z</time></trkpt><trkpt lat="42.02568049421505" lon="14.36484942399715"><ele>350.0</ele><time>2026-04-04T08:05:50.998Z</time></trkpt><trkpt lat="42.02570358448812" lon="14.36493370825781"><ele>350.0</ele><time>2026-04-04T08:05:56Z</time></trkpt><trkpt lat="42.02574767507602" lon="14.36501828823379"><ele>350.0</ele><time>2026-04-04T08:06:02Z</time></trkpt><trkpt lat="42.025777767757106" lon="14.365098407584192"><ele>350.0</ele><time>2026-04-04T08:06:08Z</time></trkpt><trkpt lat="42.02582423163755" lon="14.365171607219823"><ele>350.0</ele><time>2026-04-04T08:06:14Z</time></trkpt><trkpt lat="42.0258735541156" lon="14.365250184985019"><ele>350.0</ele><time>2026-04-04T08:06:20Z</time></trkpt><trkpt lat="42.02592979548646" lon="14.365310760028496"><ele>350.0</ele><time>2026-04-04T08:06:24Z</time></trkpt><trkpt lat="42.025999712228554" lon="14.3653261758416"><ele>350.2857142857143</ele><time>2026-04-04T08:06:28Z</time></trkpt><trkpt lat="42.02603032066336" lon="14.365400356653282"><ele>350.57142857142856</ele><time>2026-04-04T08:06:32Z</time></trkpt><trkpt lat="42.02610250146994" lon="14.3653762209626"><ele>350.8571428571429</ele><time>2026-04-04T08:06:37Z</time></trkpt><trkpt lat="42.02613679003537" lon="14.365461213316724"><ele>351.1428571428571</ele><time>2026-04-04T08:06:42Z</time></trkpt><trkpt lat="42.02620734575205" lon="14.365468307889266"><ele>351.42857142857144</ele><time>2026-04-04T08:06:46.999Z</time></trkpt><trkpt lat="42.02625815582684" lon="14.36552724507382"><ele>351.7142857142857</ele><time>2026-04-04T08:06:50.999Z</time></trkpt><trkpt lat="42.02632728507461" lon="14.365529274545501"><ele>352.0</ele><time>2026-04-04T08:06:55.999Z</time></trkpt><trkpt lat="42.026379144011294" lon="14.365578154276184"><ele>353.2857142857143</ele><time>2026-04-04T08:07:00.999Z</time></trkpt><trkpt lat="42.02644726147608" lon="14.365600629404483"><ele>354.57142857142856</ele><time>2026-04-04T08:07:05.999Z</time></trkpt><trkpt lat="42.026511579515876" lon="14.365627543123475"><ele>355.8571428571429</ele><time>2026-04-04T08:07:11.999Z</time></trkpt><trkpt lat="42.0265887635351" lon="14.365645385177563"><ele>357.1428571428571</ele><time>2026-04-04T08:07:17.999Z</time></trkpt><trkpt lat="42.02665173899516" lon="14.365653529991238"><ele>358.4285714285714</ele><time>2026-04-04T08:07:22.999Z</time></trkpt><trkpt lat="42.02672587235161" lon="14.365649746315444"><ele>359.7142857142857</ele><time>2026-04-04T08:07:27.999Z</time></trkpt><trkpt lat="42.02679802362528" lon="14.36563152442209"><ele>361.0</ele><time>2026-04-04T08:07:33.999Z</time></trkpt><trkpt lat="42.026860718585" lon="14.365622030239061"><ele>360.7142857142857</ele><time>2026-04-04T08:07:38.999Z</time></trkpt><trkpt lat="42.026930708255534" lon="14.365606479201071"><ele>360.4285714285714</ele><time>2026-04-04T08:07:43.998Z</time></trkpt><trkpt lat="42.026992739284" lon="14.365578638988685"><ele>360.1428571428571</ele><time>2026-04-04T08:07:48.998Z</time></trkpt><trkpt lat="42.02701444397691" lon="14.365494040150336"><ele>359.8571428571429</ele><time>2026-04-04T08:07:53.998Z</time></trkpt><trkpt lat="42.02708105967967" lon="14.365534217435398"><ele>359.57142857142856</ele><time>2026-04-04T08:07:59Z</time></trkpt><trkpt lat="42.02714804421364" lon="14.365496723156191"><ele>359.2857142857143</ele><time>2026-04-04T08:08:07Z</time></trkpt><trkpt lat="42.02721330013305" lon="14.365482556200467"><ele>359.0</ele><time>2026-04-04T08:08:12Z</time></trkpt><trkpt lat="42.02727901313451" lon="14.365458111962704"><ele>359.0</ele><time>2026-04-04T08:08:17Z</time></trkpt><trkpt lat="42.027347075738014" lon="14.365431295641969"><ele>359.0</ele><time>2026-04-04T08:08:23Z</time></trkpt><trkpt lat="42.02740707193011" lon="14.36540549134364"><ele>359.0</ele><time>2026-04-04T08:08:28Z</time></trkpt><trkpt lat="42.02748125997302" lon="14.365382986080691"><ele>359.0</ele><time>2026-04-04T08:08:34Z</time></trkpt><trkpt lat="42.02755191094036" lon="14.365376347071518"><ele>359.0</ele><time>2026-04-04T08:08:39Z</time></trkpt><trkpt lat="42.027628418843236" lon="14.36537540351309"><ele>359.0</ele><time>2026-04-04T08:08:44Z</time></trkpt><trkpt lat="42.027691217074505" lon="14.365408370923515"><ele>359.0</ele><time>2026-04-04T08:08:48.999Z</time></trkpt><trkpt lat="42.02776296137479" lon="14.365439937295688"><ele>360.8571428571429</ele><time>2026-04-04T08:08:53.999Z</time></trkpt><trkpt lat="42.02782329230146" lon="14.365476714954918"><ele>362.7142857142857</ele><time>2026-04-04T08:08:58.999Z</time></trkpt><trkpt lat="42.027870633415574" lon="14.365543991436832"><ele>364.57142857142856</ele><time>2026-04-04T08:09:04.999Z</time></trkpt><trkpt lat="42.02789627732468" lon="14.365627175680329"><ele>366.42857142857144</ele><time>2026-04-04T08:09:10.999Z</time></trkpt><trkpt lat="42.02794473275675" lon="14.365691871839063"><ele>368.2857142857143</ele><time>2026-04-04T08:09:16.999Z</time></trkpt><trkpt lat="42.0279269366179" lon="14.365778147970776"><ele>370.14285714285717</ele><time>2026-04-04T08:09:22.999Z</time></trkpt><trkpt lat="42.02796158283303" lon="14.365854192052437"><ele>372.0</ele><time>2026-04-04T08:09:27.999Z</time></trkpt><trkpt lat="42.02794125779713" lon="14.365940186106194"><ele>374.0</ele><time>2026-04-04T08:09:32.999Z</time></trkpt><trkpt lat="42.027940972498875" lon="14.366034579440184"><ele>376.0</ele><time>2026-04-04T08:09:37.999Z</time></trkpt><trkpt lat="42.0279457876446" lon="14.366142670250436"><ele>378.0</ele><time>2026-04-04T08:09:43.998Z</time></trkpt><trkpt lat="42.02794854091907" lon="14.366241386717771"><ele>380.0</ele><time>2026-04-04T08:09:48.998Z</time></trkpt><trkpt lat="42.027958332440406" lon="14.36633601047488"><ele>382.0</ele><time>2026-04-04T08:09:53.998Z</time></trkpt><trkpt lat="42.02797470276317" lon="14.366437084080658"><ele>384.0</ele><time>2026-04-04T08:09:58.998Z</time></trkpt><trkpt lat="42.02800946292071" lon="14.366541488526352"><ele>385.85714285714283</ele><time>2026-04-04T08:10:04Z</time></trkpt><trkpt lat="42.027986006299464" lon="14.366628818514224"><ele>387.7142857142857</ele><time>2026-04-04T08:10:10Z</time></trkpt><trkpt lat="42.028047546193044" lon="14.366659464633127"><ele>389.57142857142856</ele><time>2026-04-04T08:12:46Z</time></trkpt><trkpt lat="42.02810547810234" lon="14.36670772100845"><ele>391.42857142857144</ele><time>2026-04-04T08:12:50.999Z</time></trkpt><trkpt lat="42.02816862352176" lon="14.3667413118167"><ele>393.2857142857143</ele><time>2026-04-04T08:12:55.999Z</time></trkpt><trkpt lat="42.02822889284476" lon="14.366768524067336"><ele>395.1428571428571</ele><time>2026-04-04T08:13:00.999Z</time></trkpt><trkpt lat="42.02829477360635" lon="14.366813595440586"><ele>397.0</ele><time>2026-04-04T08:13:05.999Z</time></trkpt><trkpt lat="42.028356596824885" lon="14.366860248030303"><ele>397.85714285714283</ele><time>2026-04-04T08:13:10.999Z</time></trkpt><trkpt lat="42.02842692565817" lon="14.366912105542896"><ele>398.71428571428567</ele><time>2026-04-04T08:13:15.999Z</time></trkpt><trkpt lat="42.02848565679522" lon="14.366959172973885"><ele>399.57142857142856</ele><time>2026-04-04T08:13:20.999Z</time></trkpt><trkpt lat="42.028543817955835" lon="14.367015585195139"><ele>400.42857142857144</ele><time>2026-04-04T08:13:25.999Z</time></trkpt><trkpt lat="42.02859581804468" lon="14.367063573639092"><ele>401.2857142857143</ele><time>2026-04-04T08:13:29.999Z</time></trkpt><trkpt lat="42.02864987778197" lon="14.367114293730742"><ele>402.14285714285717</ele><time>2026-04-04T08:13:33.999Z</time></trkpt><trkpt lat="42.02871062384157" lon="14.367163359691839"><ele>403.0</ele><time>2026-04-04T08:13:38.999Z</time></trkpt><trkpt lat="42.028777888148234" lon="14.367217277162867"><ele>406.0</ele><time>2026-04-04T08:13:43.998Z</time></trkpt><trkpt lat="42.02883233186301" lon="14.367265393258611"><ele>409.0</ele><time>2026-04-04T08:13:47.998Z</time></trkpt><trkpt lat="42.02888507168322" lon="14.367320349411948"><ele>412.0</ele><time>2026-04-04T08:13:51.998Z</time></trkpt><trkpt lat="42.0289358945662" lon="14.367380493961763"><ele>415.0</ele><time>2026-04-04T08:13:55.998Z</time></trkpt><trkpt lat="42.02899165735656" lon="14.367425508218004"><ele>418.0</ele><time>2026-04-04T08:13:59.998Z</time></trkpt><trkpt lat="42.02905707042856" lon="14.367486875999731"><ele>421.0</ele><time>2026-04-04T08:14:04.998Z</time></trkpt><trkpt lat="42.02911065068368" lon="14.36753609202497"><ele>424.0</ele><time>2026-04-04T08:14:08.998Z</time></trkpt><trkpt lat="42.02913085043723" lon="14.367620750018279"><ele>423.33333333333337</ele><time>2026-04-04T08:14:14.998Z</time></trkpt><trkpt lat="42.029182926756576" lon="14.367677285552654"><ele>422.6666666666667</ele><time>2026-04-04T08:14:23Z</time></trkpt><trkpt lat="42.02924446679872" lon="14.367705096237456"><ele>422.0</ele><time>2026-04-04T08:14:30Z</time></trkpt><trkpt lat="42.0293632656426" lon="14.367673215986486"><ele>421.33333333333337</ele><time>2026-04-04T08:14:57.999Z</time></trkpt><trkpt lat="42.02943051781057" lon="14.367705735923192"><ele>420.6666666666667</ele><time>2026-04-04T08:15:00.999Z</time></trkpt><trkpt lat="42.029501040778264" lon="14.367748843857116"><ele>420.0</ele><time>2026-04-04T08:15:04.999Z</time></trkpt><trkpt lat="42.02957389997506" lon="14.367783487014112"><ele>420.0</ele><time>2026-04-04T08:15:08.999Z</time></trkpt><trkpt lat="42.02965338517627" lon="14.367803547507279"><ele>420.0</ele><time>2026-04-04T08:15:12.999Z</time></trkpt><trkpt lat="42.02972629016578" lon="14.367848684522212"><ele>420.0</ele><time>2026-04-04T08:15:16.999Z</time></trkpt><trkpt lat="42.02979566264111" lon="14.367859805513618"><ele>420.0</ele><time>2026-04-04T08:15:20.999Z</time></trkpt><trkpt lat="42.02986996744054" lon="14.367818084957266"><ele>420.0</ele><time>2026-04-04T08:15:24.999Z</time></trkpt><trkpt lat="42.02993017290632" lon="14.367766019896381"><ele>420.0</ele><time>2026-04-04T08:15:27.999Z</time></trkpt><trkpt lat="42.02996956931578" lon="14.367698588724073"><ele>420.0</ele><time>2026-04-04T08:15:30.999Z</time></trkpt><trkpt lat="42.030011696189604" lon="14.36763390618595"><ele>419.6666666666667</ele><time>2026-04-04T08:15:35.999Z</time></trkpt><trkpt lat="42.03007098821489" lon="14.36755661026113"><ele>419.33333333333337</ele><time>2026-04-04T08:15:39.999Z</time></trkpt><trkpt lat="42.030130948864475" lon="14.36746447184704"><ele>419.0</ele><time>2026-04-04T08:15:42.999Z</time></trkpt><trkpt lat="42.03021003110444" lon="14.36741484933619"><ele>418.6666666666667</ele><time>2026-04-04T08:15:45.999Z</time></trkpt><trkpt lat="42.030298663210765" lon="14.367394500360165"><ele>418.33333333333337</ele><time>2026-04-04T08:15:48.998Z</time></trkpt><trkpt lat="42.030380775157084" lon="14.367368488444411"><ele>418.0</ele><time>2026-04-04T08:15:51.998Z</time></trkpt><trkpt lat="42.03046120910094" lon="14.36736046021539"><ele>418.0</ele><time>2026-04-04T08:15:54.998Z</time></trkpt><trkpt lat="42.030534787525475" lon="14.367372015035045"><ele>418.0</ele><time>2026-04-04T08:15:57.998Z</time></trkpt><trkpt lat="42.030600628644486" lon="14.367359762626247"><ele>418.0</ele><time>2026-04-04T08:16:00.998Z</time></trkpt><trkpt lat="42.03067417463496" lon="14.367358216833022"><ele>418.0</ele><time>2026-04-04T08:16:03.998Z</time></trkpt><trkpt lat="42.03075027064644" lon="14.367356325620854"><ele>418.0</ele><time>2026-04-04T08:16:06.998Z</time></trkpt><trkpt lat="42.030821082806106" lon="14.367353952843205"><ele>418.0</ele><time>2026-04-04T08:16:09.998Z</time></trkpt><trkpt lat="42.030888259042804" lon="14.367359595640123"><ele>418.0</ele><time>2026-04-04T08:16:12.998Z</time></trkpt><trkpt lat="42.03095603695937" lon="14.367365578777498"><ele>419.0</ele><time>2026-04-04T08:16:15.998Z</time></trkpt><trkpt lat="42.03102708083553" lon="14.36736614701859"><ele>420.0</ele><time>2026-04-04T08:16:18.998Z</time></trkpt><trkpt lat="42.031099892524274" lon="14.367373282517566"><ele>421.0</ele><time>2026-04-04T08:16:22Z</time></trkpt><trkpt lat="42.03116996728457" lon="14.367374777012337"><ele>422.0</ele><time>2026-04-04T08:16:25Z</time></trkpt><trkpt lat="42.03124071260917" lon="14.36735843750148"><ele>423.0</ele><time>2026-04-04T08:16:28Z</time></trkpt><trkpt lat="42.03130823278383" lon="14.367343231929924"><ele>424.0</ele><time>2026-04-04T08:16:31Z</time></trkpt><trkpt lat="42.03137517822567" lon="14.36730247049087"><ele>425.0</ele><time>2026-04-04T08:16:34Z</time></trkpt><trkpt lat="42.03144937387725" lon="14.367261527640634"><ele>424.99999999999994</ele><time>2026-04-04T08:16:37Z</time></trkpt><trkpt lat="42.0315289234338" lon="14.367250913958676"><ele>425.0</ele><time>2026-04-04T08:16:40Z</time></trkpt><trkpt lat="42.03161548647598" lon="14.367260475247608"><ele>425.0</ele><time>2026-04-04T08:16:43Z</time></trkpt><trkpt lat="42.03169478123057" lon="14.36726440724418"><ele>425.0</ele><time>2026-04-04T08:16:46Z</time></trkpt><trkpt lat="42.03176973862146" lon="14.367267886736665"><ele>424.99999999999994</ele><time>2026-04-04T08:16:49Z</time></trkpt><trkpt lat="42.03184729158598" lon="14.367269819469485"><ele>425.0</ele><time>2026-04-04T08:16:52Z</time></trkpt><trkpt lat="42.0319252231982" lon="14.367268667793516"><ele>425.16666666666663</ele><time>2026-04-04T08:16:54.999Z</time></trkpt><trkpt lat="42.03200691124848" lon="14.367282956438835"><ele>425.3333333333333</ele><time>2026-04-04T08:16:57.999Z</time></trkpt><trkpt lat="42.03208814045221" lon="14.36728137758548"><ele>425.5</ele><time>2026-04-04T08:17:00.999Z</time></trkpt><trkpt lat="42.03217066158956" lon="14.367284283216364"><ele>425.66666666666663</ele><time>2026-04-04T08:17:03.999Z</time></trkpt><trkpt lat="42.032246514857405" lon="14.367265482493538"><ele>425.8333333333333</ele><time>2026-04-04T08:17:06.999Z</time></trkpt><trkpt lat="42.03232246980389" lon="14.367242534370833"><ele>426.0</ele><time>2026-04-04T08:17:09.999Z</time></trkpt><trkpt lat="42.032402923847854" lon="14.367207054840803"><ele>422.6</ele><time>2026-04-04T08:17:12.999Z</time></trkpt><trkpt lat="42.032497518585714" lon="14.367177829250608"><ele>419.20000000000005</ele><time>2026-04-04T08:17:15.999Z</time></trkpt><trkpt lat="42.03258762668627" lon="14.367147065677017"><ele>415.79999999999995</ele><time>2026-04-04T08:17:18.999Z</time></trkpt><trkpt lat="42.03267738660422" lon="14.367117046143928"><ele>412.4</ele><time>2026-04-04T08:17:21.999Z</time></trkpt><trkpt lat="42.03276614228349" lon="14.367118281009363"><ele>409.0</ele><time>2026-04-04T08:17:24.999Z</time></trkpt><trkpt lat="42.032924681526126" lon="14.36714667860268"><ele>409.00000000000006</ele><time>2026-04-04T08:17:30.999Z</time></trkpt><trkpt lat="42.033002481723486" lon="14.367150106631868"><ele>409.0</ele><time>2026-04-04T08:17:33.999Z</time></trkpt><trkpt lat="42.03308221841322" lon="14.367147306332733"><ele>409.0</ele><time>2026-04-04T08:17:36.999Z</time></trkpt><trkpt lat="42.03316158956437" lon="14.367126850701494"><ele>409.0</ele><time>2026-04-04T08:17:39.999Z</time></trkpt><trkpt lat="42.03323752433222" lon="14.367084834864201"><ele>409.00000000000006</ele><time>2026-04-04T08:17:42.999Z</time></trkpt><trkpt lat="42.03330908249011" lon="14.367054728497264"><ele>409.0</ele><time>2026-04-04T08:17:45.999Z</time></trkpt><trkpt lat="42.033373220512686" lon="14.367020949625505"><ele>410.6666666666667</ele><time>2026-04-04T08:17:48.999Z</time></trkpt><trkpt lat="42.03343979192696" lon="14.366964752562973"><ele>412.33333333333337</ele><time>2026-04-04T08:17:51.998Z</time></trkpt><trkpt lat="42.033510819540105" lon="14.366910439053626"><ele>414.0</ele><time>2026-04-04T08:17:54.998Z</time></trkpt><trkpt lat="42.03358361455859" lon="14.366843750497114"><ele>415.66666666666663</ele><time>2026-04-04T08:17:57.998Z</time></trkpt><trkpt lat="42.03365861962369" lon="14.366792758678308"><ele>417.3333333333333</ele><time>2026-04-04T08:18:00.998Z</time></trkpt><trkpt lat="42.03372705011006" lon="14.366751454271828"><ele>419.0</ele><time>2026-04-04T08:18:03.998Z</time></trkpt><trkpt lat="42.0338020145058" lon="14.36670238744365"><ele>418.99999999999994</ele><time>2026-04-04T08:18:06.998Z</time></trkpt><trkpt lat="42.033865194261224" lon="14.366631777187289"><ele>419.0</ele><time>2026-04-04T08:18:09.998Z</time></trkpt><trkpt lat="42.03392143448264" lon="14.36659074674701"><ele>419.0</ele><time>2026-04-04T08:18:11.998Z</time></trkpt><trkpt lat="42.03397958273874" lon="14.366548223064571"><ele>419.0</ele><time>2026-04-04T08:18:13.998Z</time></trkpt><trkpt lat="42.03403671520388" lon="14.366505398966547"><ele>419.0</ele><time>2026-04-04T08:18:15.998Z</time></trkpt><trkpt lat="42.034114792545274" lon="14.366448572970992"><ele>418.99999999999994</ele><time>2026-04-04T08:18:18.998Z</time></trkpt><trkpt lat="42.034174226936535" lon="14.3664110518181"><ele>419.0</ele><time>2026-04-04T08:18:20.998Z</time></trkpt><trkpt lat="42.034240060994904" lon="14.366381795022729"><ele>421.0</ele><time>2026-04-04T08:18:22.998Z</time></trkpt><trkpt lat="42.034326443758395" lon="14.366367173401196"><ele>423.0</ele><time>2026-04-04T08:18:24.998Z</time></trkpt><trkpt lat="42.03446392110883" lon="14.366379644490134"><ele>425.0</ele><time>2026-04-04T08:18:28Z</time></trkpt><trkpt lat="42.03456256678839" lon="14.36636339321544"><ele>427.0</ele><time>2026-04-04T08:18:30Z</time></trkpt><trkpt lat="42.03466083764999" lon="14.366358093428579"><ele>429.0</ele><time>2026-04-04T08:18:32Z</time></trkpt><trkpt lat="42.034760140503025" lon="14.366352929272203"><ele>429.0</ele><time>2026-04-04T08:18:34Z</time></trkpt><trkpt lat="42.03486647916251" lon="14.366364763457065"><ele>429.0</ele><time>2026-04-04T08:18:36Z</time></trkpt><trkpt lat="42.03492698282493" lon="14.366338264455516"><ele>429.0</ele><time>2026-04-04T08:18:37Z</time></trkpt><trkpt lat="42.03503720485406" lon="14.366330967042302"><ele>429.0</ele><time>2026-04-04T08:18:39Z</time></trkpt><trkpt lat="42.03512604506141" lon="14.366279910022548"><ele>429.0</ele><time>2026-04-04T08:18:41Z</time></trkpt><trkpt lat="42.035201659212134" lon="14.366260895371969"><ele>428.1666666666667</ele><time>2026-04-04T08:18:43Z</time></trkpt><trkpt lat="42.035262861280344" lon="14.366238658594135"><ele>427.33333333333337</ele><time>2026-04-04T08:18:45Z</time></trkpt><trkpt lat="42.03532611052086" lon="14.366220070387413"><ele>426.5</ele><time>2026-04-04T08:18:47Z</time></trkpt><trkpt lat="42.035410999515946" lon="14.36618370416154"><ele>425.6666666666667</ele><time>2026-04-04T08:18:50Z</time></trkpt><trkpt lat="42.035547158718245" lon="14.366160313251994"><ele>424.83333333333337</ele><time>2026-04-04T08:18:55Z</time></trkpt><trkpt lat="42.03560804509167" lon="14.366131690012704"><ele>424.0</ele><time>2026-04-04T08:18:57Z</time></trkpt><trkpt lat="42.03567464570978" lon="14.366107724374258"><ele>424.0</ele><time>2026-04-04T08:18:58.999Z</time></trkpt><trkpt lat="42.03576776490427" lon="14.366069855671878"><ele>424.0</ele><time>2026-04-04T08:19:00.999Z</time></trkpt><trkpt lat="42.03585958891398" lon="14.366006777891297"><ele>424.0</ele><time>2026-04-04T08:19:02.999Z</time></trkpt><trkpt lat="42.035952870881005" lon="14.36596291351417"><ele>424.0</ele><time>2026-04-04T08:19:04.999Z</time></trkpt><trkpt lat="42.03605596091424" lon="14.365932994596202"><ele>424.0</ele><time>2026-04-04T08:19:06.999Z</time></trkpt><trkpt lat="42.0361570637683" lon="14.365897129547028"><ele>423.25</ele><time>2026-04-04T08:19:08.999Z</time></trkpt><trkpt lat="42.03625506968792" lon="14.36583094709645"><ele>422.5</ele><time>2026-04-04T08:19:10.999Z</time></trkpt><trkpt lat="42.036346982047846" lon="14.365735243297271"><ele>421.75</ele><time>2026-04-04T08:19:12.999Z</time></trkpt><trkpt lat="42.03643422251973" lon="14.365615881823183"><ele>421.0</ele><time>2026-04-04T08:19:14.999Z</time></trkpt><trkpt lat="42.03652410298416" lon="14.365496243172776"><ele>420.42857142857144</ele><time>2026-04-04T08:19:16.999Z</time></trkpt><trkpt lat="42.03656685086621" lon="14.365428697174444"><ele>419.8571428571429</ele><time>2026-04-04T08:19:17.999Z</time></trkpt><trkpt lat="42.036608221655825" lon="14.365358719202153"><ele>419.28571428571433</ele><time>2026-04-04T08:19:18.999Z</time></trkpt><trkpt lat="42.036648527147264" lon="14.365285593844247"><ele>418.7142857142857</ele><time>2026-04-04T08:19:19.999Z</time></trkpt><trkpt lat="42.03668481307681" lon="14.36520857763916"><ele>418.1428571428571</ele><time>2026-04-04T08:19:20.999Z</time></trkpt><trkpt lat="42.03671629549721" lon="14.365125707399486"><ele>417.5714285714286</ele><time>2026-04-04T08:19:21.999Z</time></trkpt><trkpt lat="42.03674631872346" lon="14.365040491408894"><ele>417.0</ele><time>2026-04-04T08:19:22.999Z</time></trkpt><trkpt lat="42.036781595877756" lon="14.364959548589168"><ele>417.0</ele><time>2026-04-04T08:19:23.999Z</time></trkpt><trkpt lat="42.03681992289422" lon="14.364885454459781"><ele>417.0</ele><time>2026-04-04T08:19:24.999Z</time></trkpt><trkpt lat="42.036856859503224" lon="14.364815301670246"><ele>417.0</ele><time>2026-04-04T08:19:25.999Z</time></trkpt><trkpt lat="42.03691994700784" lon="14.364714140596526"><ele>417.0</ele><time>2026-04-04T08:19:27.999Z</time></trkpt><trkpt lat="42.03697700491658" lon="14.364630398448238"><ele>417.0</ele><time>2026-04-04T08:19:29.999Z</time></trkpt><trkpt lat="42.037034577750134" lon="14.364534296652758"><ele>417.0</ele><time>2026-04-04T08:19:31.999Z</time></trkpt><trkpt lat="42.03709398256746" lon="14.364433138090204"><ele>415.40000000000003</ele><time>2026-04-04T08:19:33.999Z</time></trkpt><trkpt lat="42.03716210933367" lon="14.364330200337724"><ele>413.8</ele><time>2026-04-04T08:19:35.999Z</time></trkpt><trkpt lat="42.03724957827596" lon="14.36424003732851"><ele>412.2</ele><time>2026-04-04T08:19:37.999Z</time></trkpt><trkpt lat="42.037356646358774" lon="14.364168195286416"><ele>410.6</ele><time>2026-04-04T08:19:39.999Z</time></trkpt><trkpt lat="42.03741897829758" lon="14.364156249502425"><ele>409.0</ele><time>2026-04-04T08:19:40.999Z</time></trkpt><trkpt lat="42.03753476584772" lon="14.364132898582755"><ele>409.00000000000006</ele><time>2026-04-04T08:19:42.999Z</time></trkpt><trkpt lat="42.03762182219879" lon="14.364105719322696"><ele>409.0</ele><time>2026-04-04T08:19:44.999Z</time></trkpt><trkpt lat="42.03770676358483" lon="14.364081333477843"><ele>409.0</ele><time>2026-04-04T08:19:46.999Z</time></trkpt><trkpt lat="42.0377788259874" lon="14.364070195204514"><ele>409.0</ele><time>2026-04-04T08:19:48.999Z</time></trkpt><trkpt lat="42.03787072283425" lon="14.364045908882439"><ele>409.00000000000006</ele><time>2026-04-04T08:19:50.999Z</time></trkpt><trkpt lat="42.03796532812026" lon="14.364011458723379"><ele>409.0</ele><time>2026-04-04T08:19:52.999Z</time></trkpt><trkpt lat="42.03805925190545" lon="14.363974517021687"><ele>409.0</ele><time>2026-04-04T08:19:54.998Z</time></trkpt><trkpt lat="42.038152532153454" lon="14.363930572604009"><ele>409.0</ele><time>2026-04-04T08:19:56.998Z</time></trkpt><trkpt lat="42.038251012636614" lon="14.363888111372566"><ele>409.0</ele><time>2026-04-04T08:19:58.998Z</time></trkpt><trkpt lat="42.03834464700071" lon="14.363843914685056"><ele>409.0</ele><time>2026-04-04T08:20:00.998Z</time></trkpt><trkpt lat="42.038431512421845" lon="14.363785191820511"><ele>409.0</ele><time>2026-04-04T08:20:02.998Z</time></trkpt><trkpt lat="42.03851823803897" lon="14.363713258797661"><ele>404.79999999999995</ele><time>2026-04-04T08:20:04.998Z</time></trkpt><trkpt lat="42.03860713608943" lon="14.363651985464376"><ele>400.59999999999997</ele><time>2026-04-04T08:20:06.998Z</time></trkpt><trkpt lat="42.03869952033679" lon="14.363613868391774"><ele>396.4</ele><time>2026-04-04T08:20:08.998Z</time></trkpt><trkpt lat="42.03879470968361" lon="14.363608300353224"><ele>392.2</ele><time>2026-04-04T08:20:10.998Z</time></trkpt><trkpt lat="42.038884076204454" lon="14.363648293177373"><ele>388.0</ele><time>2026-04-04T08:20:12.998Z</time></trkpt><trkpt lat="42.038958218223094" lon="14.36372965824976"><ele>388.0</ele><time>2026-04-04T08:20:14.998Z</time></trkpt><trkpt lat="42.03902031236071" lon="14.363828241659476"><ele>388.0</ele><time>2026-04-04T08:20:16.998Z</time></trkpt><trkpt lat="42.03905681491544" lon="14.363945858138583"><ele>388.0</ele><time>2026-04-04T08:20:18.998Z</time></trkpt><trkpt lat="42.03909806065878" lon="14.364056720455988"><ele>388.0</ele><time>2026-04-04T08:20:20.998Z</time></trkpt><trkpt lat="42.039148329476426" lon="14.364154739947297"><ele>388.0</ele><time>2026-04-04T08:20:22.998Z</time></trkpt><trkpt lat="42.03923603282924" lon="14.364205020881924"><ele>387.59999999999997</ele><time>2026-04-04T08:20:24.998Z</time></trkpt><trkpt lat="42.03933447887983" lon="14.364201491221644"><ele>387.2</ele><time>2026-04-04T08:20:26.998Z</time></trkpt><trkpt lat="42.03941669052978" lon="14.364124603271865"><ele>386.8</ele><time>2026-04-04T08:20:28.998Z</time></trkpt><trkpt lat="42.039465097129934" lon="14.364013228918786"><ele>386.4</ele><time>2026-04-04T08:20:30.998Z</time></trkpt><trkpt lat="42.039504564341" lon="14.363909717127235"><ele>386.0</ele><time>2026-04-04T08:20:32.998Z</time></trkpt><trkpt lat="42.03955878871556" lon="14.363816130380096"><ele>385.99999999999994</ele><time>2026-04-04T08:20:35Z</time></trkpt><trkpt lat="42.03963144593735" lon="14.363752993155105"><ele>386.0</ele><time>2026-04-04T08:20:37Z</time></trkpt><trkpt lat="42.03971518602048" lon="14.363731614608925"><ele>386.0</ele><time>2026-04-04T08:20:39Z</time></trkpt><trkpt lat="42.039797635026" lon="14.36373522214577"><ele>386.0</ele><time>2026-04-04T08:20:41Z</time></trkpt><trkpt lat="42.03988141648561" lon="14.363745741000798"><ele>385.99999999999994</ele><time>2026-04-04T08:20:43Z</time></trkpt><trkpt lat="42.03996510684025" lon="14.363758629626027"><ele>386.0</ele><time>2026-04-04T08:20:45Z</time></trkpt><trkpt lat="42.04005070804856" lon="14.363770877453916"><ele>384.66666666666663</ele><time>2026-04-04T08:20:47Z</time></trkpt><trkpt lat="42.040135227353346" lon="14.36377767886035"><ele>383.3333333333333</ele><time>2026-04-04T08:20:49Z</time></trkpt><trkpt lat="42.040217492006725" lon="14.363793941866943"><ele>382.0</ele><time>2026-04-04T08:20:51Z</time></trkpt><trkpt lat="42.040299852464265" lon="14.363799772652156"><ele>380.66666666666663</ele><time>2026-04-04T08:20:53Z</time></trkpt><trkpt lat="42.040381664498824" lon="14.363805392712452"><ele>379.3333333333333</ele><time>2026-04-04T08:20:55Z</time></trkpt><trkpt lat="42.04046171436131" lon="14.36380986367664"><ele>378.0</ele><time>2026-04-04T08:20:57Z</time></trkpt><trkpt lat="42.040541812077535" lon="14.363812195936765"><ele>378.0</ele><time>2026-04-04T08:20:59Z</time></trkpt><trkpt lat="42.04061945418143" lon="14.363820382976845"><ele>378.0</ele><time>2026-04-04T08:21:00.999Z</time></trkpt><trkpt lat="42.04069781912398" lon="14.363832191655804"><ele>378.0</ele><time>2026-04-04T08:21:02.999Z</time></trkpt><trkpt lat="42.040776422820706" lon="14.363837197824202"><ele>378.0</ele><time>2026-04-04T08:21:04.999Z</time></trkpt><trkpt lat="42.04085592682831" lon="14.3638449004992"><ele>378.0</ele><time>2026-04-04T08:21:06.999Z</time></trkpt><trkpt lat="42.040934599543945" lon="14.363858452712536"><ele>378.0</ele><time>2026-04-04T08:21:08.999Z</time></trkpt><trkpt lat="42.04101341609983" lon="14.363873950690408"><ele>385.3333333333333</ele><time>2026-04-04T08:21:10.999Z</time></trkpt><trkpt lat="42.04108923336321" lon="14.363901241798441"><ele>392.66666666666663</ele><time>2026-04-04T08:21:12.999Z</time></trkpt><trkpt lat="42.04116486485724" lon="14.363882181963248"><ele>400.0</ele><time>2026-04-04T08:21:14.999Z</time></trkpt><trkpt lat="42.04124551048964" lon="14.363879530741594"><ele>407.3333333333333</ele><time>2026-04-04T08:21:16.999Z</time></trkpt><trkpt lat="42.041321889616185" lon="14.363888067625643"><ele>414.66666666666663</ele><time>2026-04-04T08:21:18.999Z</time></trkpt><trkpt lat="42.0413946030793" lon="14.36388980016424"><ele>422.0</ele><time>2026-04-04T08:21:20.999Z</time></trkpt><trkpt lat="42.041462692529834" lon="14.363903861587115"><ele>422.0</ele><time>2026-04-04T08:21:22.999Z</time></trkpt><trkpt lat="42.041534374294876" lon="14.36390460400863"><ele>422.0</ele><time>2026-04-04T08:21:24.999Z</time></trkpt><trkpt lat="42.041608319781254" lon="14.363912920534"><ele>422.0</ele><time>2026-04-04T08:21:26.999Z</time></trkpt><trkpt lat="42.04168625039584" lon="14.36392183688315"><ele>422.0</ele><time>2026-04-04T08:21:28.999Z</time></trkpt><trkpt lat="42.04175978441018" lon="14.363926917543676"><ele>422.0</ele><time>2026-04-04T08:21:30.999Z</time></trkpt><trkpt lat="42.04182900041768" lon="14.363934512915176"><ele>422.0</ele><time>2026-04-04T08:21:32.999Z</time></trkpt><trkpt lat="42.04189193278534" lon="14.363939570327524"><ele>422.0</ele><time>2026-04-04T08:21:34.999Z</time></trkpt><trkpt lat="42.04196078960777" lon="14.363929604154897"><ele>421.2857142857143</ele><time>2026-04-04T08:21:38.999Z</time></trkpt><trkpt lat="42.042027735200726" lon="14.363962311213333"><ele>420.57142857142856</ele><time>2026-04-04T08:22:24.998Z</time></trkpt><trkpt lat="42.04209804939572" lon="14.36396206225741"><ele>419.8571428571429</ele><time>2026-04-04T08:22:32.998Z</time></trkpt><trkpt lat="42.04216852278413" lon="14.36400330607508"><ele>419.1428571428571</ele><time>2026-04-04T08:22:37.998Z</time></trkpt><trkpt lat="42.042215150970044" lon="14.364065069274647"><ele>418.4285714285714</ele><time>2026-04-04T08:22:40Z</time></trkpt><trkpt lat="42.04226893206868" lon="14.36412024338542"><ele>417.7142857142857</ele><time>2026-04-04T08:22:42Z</time></trkpt><trkpt lat="42.04230779410459" lon="14.364213010344482"><ele>417.0</ele><time>2026-04-04T08:22:44Z</time></trkpt><trkpt lat="42.042332932173984" lon="14.364318496930993"><ele>417.0</ele><time>2026-04-04T08:22:46Z</time></trkpt><trkpt lat="42.042361400059086" lon="14.364434767167882"><ele>417.0</ele><time>2026-04-04T08:22:48Z</time></trkpt><trkpt lat="42.042389453038524" lon="14.36455000416831"><ele>417.0</ele><time>2026-04-04T08:22:50Z</time></trkpt><trkpt lat="42.04245833566653" lon="14.3646440646786"><ele>417.0</ele><time>2026-04-04T08:22:52Z</time></trkpt><trkpt lat="42.04255449614916" lon="14.36471781829794"><ele>417.0</ele><time>2026-04-04T08:22:54Z</time></trkpt><trkpt lat="42.04266687029401" lon="14.36473740260834"><ele>416.8</ele><time>2026-04-04T08:22:56Z</time></trkpt><trkpt lat="42.04278300226643" lon="14.36471617771376"><ele>416.6</ele><time>2026-04-04T08:22:58Z</time></trkpt><trkpt lat="42.042874016867174" lon="14.364646484016879"><ele>416.40000000000003</ele><time>2026-04-04T08:23:00Z</time></trkpt><trkpt lat="42.042954641519785" lon="14.364574288891927"><ele>416.20000000000005</ele><time>2026-04-04T08:23:02Z</time></trkpt><trkpt lat="42.04302934768518" lon="14.364507966759788"><ele>416.0</ele><time>2026-04-04T08:23:04Z</time></trkpt><trkpt lat="42.04309136845858" lon="14.364445485076477"><ele>413.66666666666663</ele><time>2026-04-04T08:23:05.999Z</time></trkpt><trkpt lat="42.043115768769425" lon="14.364348903044714"><ele>411.3333333333333</ele><time>2026-04-04T08:23:07.999Z</time></trkpt><trkpt lat="42.04309867751923" lon="14.364232622812676"><ele>409.0</ele><time>2026-04-04T08:23:09.999Z</time></trkpt><trkpt lat="42.04307245150474" lon="14.364116143085814"><ele>406.66666666666663</ele><time>2026-04-04T08:23:11.999Z</time></trkpt><trkpt lat="42.04305128144924" lon="14.363994302126002"><ele>404.3333333333333</ele><time>2026-04-04T08:23:13.999Z</time></trkpt><trkpt lat="42.043047013529645" lon="14.363863354439781"><ele>402.0</ele><time>2026-04-04T08:23:15.999Z</time></trkpt><trkpt lat="42.04303695547661" lon="14.363732712443513"><ele>399.40000000000003</ele><time>2026-04-04T08:23:17.999Z</time></trkpt><trkpt lat="42.04309297486843" lon="14.363603270853908"><ele>396.8</ele><time>2026-04-04T08:23:19.999Z</time></trkpt><trkpt lat="42.04317271786626" lon="14.36350448970054"><ele>394.2</ele><time>2026-04-04T08:23:21.999Z</time></trkpt><trkpt lat="42.0432549837495" lon="14.363425365172715"><ele>391.6</ele><time>2026-04-04T08:23:23.999Z</time></trkpt><trkpt lat="42.0433349357808" lon="14.363360532053074"><ele>389.0</ele><time>2026-04-04T08:23:25.999Z</time></trkpt><trkpt lat="42.0434252721732" lon="14.363316379097057"><ele>389.0</ele><time>2026-04-04T08:23:27.999Z</time></trkpt><trkpt lat="42.04352402215509" lon="14.363296995890733"><ele>389.0</ele><time>2026-04-04T08:23:29.999Z</time></trkpt><trkpt lat="42.04362666312733" lon="14.363295897945738"><ele>389.0</ele><time>2026-04-04T08:23:31.999Z</time></trkpt><trkpt lat="42.04373089987408" lon="14.36329944943064"><ele>389.0</ele><time>2026-04-04T08:23:33.999Z</time></trkpt><trkpt lat="42.043838771280505" lon="14.363298847828833"><ele>389.0</ele><time>2026-04-04T08:23:35.999Z</time></trkpt><trkpt lat="42.04394450614926" lon="14.363277370703305"><ele>389.0</ele><time>2026-04-04T08:23:37.999Z</time></trkpt><trkpt lat="42.04405355295802" lon="14.363268166617033"><ele>389.0</ele><time>2026-04-04T08:23:39.999Z</time></trkpt><trkpt lat="42.04416357090522" lon="14.36325091545471"><ele>389.0</ele><time>2026-04-04T08:23:41.999Z</time></trkpt><trkpt lat="42.04427335683302" lon="14.363254051173403"><ele>389.0</ele><time>2026-04-04T08:23:43.999Z</time></trkpt><trkpt lat="42.044385941645245" lon="14.363265292728393"><ele>389.0</ele><time>2026-04-04T08:23:45.999Z</time></trkpt><trkpt lat="42.044500029138675" lon="14.363278216658836"><ele>388.99999999999994</ele><time>2026-04-04T08:23:47.999Z</time></trkpt><trkpt lat="42.04461771234345" lon="14.363302573546507"><ele>389.0</ele><time>2026-04-04T08:23:49.999Z</time></trkpt><trkpt lat="42.04474166213296" lon="14.363320972436222"><ele>389.0</ele><time>2026-04-04T08:23:51.999Z</time></trkpt><trkpt lat="42.04480540221737" lon="14.363333149406444"><ele>389.0</ele><time>2026-04-04T08:23:52.999Z</time></trkpt><trkpt lat="42.04486961604745" lon="14.363344059661632"><ele>388.99999999999994</ele><time>2026-04-04T08:23:53.999Z</time></trkpt><trkpt lat="42.04493450367221" lon="14.363350017432229"><ele>389.0</ele><time>2026-04-04T08:23:54.999Z</time></trkpt><trkpt lat="42.045001457033266" lon="14.363361148246133"><ele>389.0</ele><time>2026-04-04T08:23:55.999Z</time></trkpt><trkpt lat="42.04506680887794" lon="14.363372985509697"><ele>389.0</ele><time>2026-04-04T08:23:56.999Z</time></trkpt><trkpt lat="42.04513242314245" lon="14.36338791762192"><ele>389.0</ele><time>2026-04-04T08:23:57.999Z</time></trkpt><trkpt lat="42.04519802941692" lon="14.363414530363366"><ele>389.0</ele><time>2026-04-04T08:23:58.999Z</time></trkpt><trkpt lat="42.04526146221809" lon="14.363441673111137"><ele>389.0</ele><time>2026-04-04T08:23:59.999Z</time></trkpt><trkpt lat="42.04532568390653" lon="14.363472395296302"><ele>389.0</ele><time>2026-04-04T08:24:00.999Z</time></trkpt><trkpt lat="42.04538743613211" lon="14.363509370344383"><ele>389.0</ele><time>2026-04-04T08:24:01.998Z</time></trkpt><trkpt lat="42.0454478068684" lon="14.363550322057472"><ele>389.0</ele><time>2026-04-04T08:24:02.998Z</time></trkpt><trkpt lat="42.045506336367396" lon="14.363595128680215"><ele>389.0</ele><time>2026-04-04T08:24:03.998Z</time></trkpt><trkpt lat="42.04556527521272" lon="14.36364178311573"><ele>389.0</ele><time>2026-04-04T08:24:04.998Z</time></trkpt><trkpt lat="42.04562073345248" lon="14.363686332110968"><ele>389.0</ele><time>2026-04-04T08:24:05.998Z</time></trkpt><trkpt lat="42.04567747055926" lon="14.363727856430314"><ele>389.0</ele><time>2026-04-04T08:24:06.998Z</time></trkpt><trkpt lat="42.04573655695731" lon="14.36376358782035"><ele>389.0</ele><time>2026-04-04T08:24:07.998Z</time></trkpt><trkpt lat="42.045795385462085" lon="14.363794897416943"><ele>389.0</ele><time>2026-04-04T08:24:08.998Z</time></trkpt><trkpt lat="42.04585823287685" lon="14.363824021608432"><ele>387.8333333333333</ele><time>2026-04-04T08:24:09.998Z</time></trkpt><trkpt lat="42.04592258984898" lon="14.36383938222559"><ele>386.66666666666663</ele><time>2026-04-04T08:24:10.998Z</time></trkpt><trkpt lat="42.046046204566466" lon="14.363855827439103"><ele>385.5</ele><time>2026-04-04T08:24:12.998Z</time></trkpt><trkpt lat="42.04611365224032" lon="14.363861750111809"><ele>384.3333333333333</ele><time>2026-04-04T08:24:13.998Z</time></trkpt><trkpt lat="42.04618230867722" lon="14.36385963990997"><ele>383.16666666666663</ele><time>2026-04-04T08:24:14.998Z</time></trkpt><trkpt lat="42.04625040730679" lon="14.363852778546924"><ele>382.0</ele><time>2026-04-04T08:24:15.998Z</time></trkpt><trkpt lat="42.04631887128477" lon="14.363840435433762"><ele>382.0</ele><time>2026-04-04T08:24:16.998Z</time></trkpt><trkpt lat="42.04638676174459" lon="14.363819227621901"><ele>382.0</ele><time>2026-04-04T08:24:17.998Z</time></trkpt><trkpt lat="42.046455175155714" lon="14.363796488601077"><ele>382.0</ele><time>2026-04-04T08:24:18.998Z</time></trkpt><trkpt lat="42.04652116614389" lon="14.36375650865039"><ele>382.0</ele><time>2026-04-04T08:24:19.998Z</time></trkpt><trkpt lat="42.04658331249816" lon="14.363709830510379"><ele>382.0</ele><time>2026-04-04T08:24:20.998Z</time></trkpt><trkpt lat="42.046645179764205" lon="14.363658128431226"><ele>382.0</ele><time>2026-04-04T08:24:21.998Z</time></trkpt><trkpt lat="42.0467058608529" lon="14.363604485601595"><ele>382.0</ele><time>2026-04-04T08:24:22.998Z</time></trkpt><trkpt lat="42.0467681248024" lon="14.363550609758029"><ele>381.16666666666663</ele><time>2026-04-04T08:24:23.998Z</time></trkpt><trkpt lat="42.04683429025607" lon="14.363500451449294"><ele>380.3333333333333</ele><time>2026-04-04T08:24:24.998Z</time></trkpt><trkpt lat="42.046905058797456" lon="14.363457886554164"><ele>379.5</ele><time>2026-04-04T08:24:25.998Z</time></trkpt><trkpt lat="42.04697806351842" lon="14.363430560319312"><ele>378.6666666666667</ele><time>2026-04-04T08:24:26.998Z</time></trkpt><trkpt lat="42.047055311421346" lon="14.363406658846255"><ele>377.83333333333337</ele><time>2026-04-04T08:24:27.998Z</time></trkpt><trkpt lat="42.04713177587029" lon="14.363387774078525"><ele>377.0</ele><time>2026-04-04T08:24:28.998Z</time></trkpt><trkpt lat="42.04721040672353" lon="14.363383503858527"><ele>377.0</ele><time>2026-04-04T08:24:29.998Z</time></trkpt><trkpt lat="42.047286718792456" lon="14.363406005358858"><ele>377.0</ele><time>2026-04-04T08:24:30.998Z</time></trkpt><trkpt lat="42.04735842824357" lon="14.363460533750644"><ele>377.0</ele><time>2026-04-04T08:24:31.998Z</time></trkpt><trkpt lat="42.047419894921696" lon="14.36353252560733"><ele>377.0</ele><time>2026-04-04T08:24:32.998Z</time></trkpt><trkpt lat="42.047479460677685" lon="14.36360269344338"><ele>377.0</ele><time>2026-04-04T08:24:33.998Z</time></trkpt><trkpt lat="42.04753606401406" lon="14.363652115759516"><ele>377.0</ele><time>2026-04-04T08:24:34.998Z</time></trkpt><trkpt lat="42.0475960836622" lon="14.36369325133337"><ele>376.99999999999994</ele><time>2026-04-04T08:24:35.998Z</time></trkpt><trkpt lat="42.047663986514245" lon="14.363716892569649"><ele>377.0</ele><time>2026-04-04T08:24:36.998Z</time></trkpt><trkpt lat="42.04773822565974" lon="14.36371023008812"><ele>377.0</ele><time>2026-04-04T08:24:37.998Z</time></trkpt><trkpt lat="42.0478057113836" lon="14.363670151013059"><ele>377.0</ele><time>2026-04-04T08:24:38.998Z</time></trkpt><trkpt lat="42.047865533705036" lon="14.363609044375496"><ele>377.0</ele><time>2026-04-04T08:24:39.998Z</time></trkpt><trkpt lat="42.0479208802889" lon="14.363540014026393"><ele>376.99999999999994</ele><time>2026-04-04T08:24:40.998Z</time></trkpt><trkpt lat="42.04797795306765" lon="14.363475638737713"><ele>377.0</ele><time>2026-04-04T08:24:41.998Z</time></trkpt><trkpt lat="42.048036838262625" lon="14.363414963239164"><ele>376.99999999999994</ele><time>2026-04-04T08:24:42.998Z</time></trkpt><trkpt lat="42.04809409705582" lon="14.363351008641608"><ele>377.0</ele><time>2026-04-04T08:24:43.998Z</time></trkpt><trkpt lat="42.04815174083551" lon="14.363286303618903"><ele>377.0</ele><time>2026-04-04T08:24:44.998Z</time></trkpt><trkpt lat="42.04821051249938" lon="14.363228951203263"><ele>377.0</ele><time>2026-04-04T08:24:46Z</time></trkpt><trkpt lat="42.04827208279733" lon="14.363177243861804"><ele>377.0</ele><time>2026-04-04T08:24:47Z</time></trkpt><trkpt lat="42.04833165824535" lon="14.36312833107824"><ele>376.99999999999994</ele><time>2026-04-04T08:24:48Z</time></trkpt><trkpt lat="42.04839374308236" lon="14.363080437545495"><ele>377.0</ele><time>2026-04-04T08:24:49Z</time></trkpt><trkpt lat="42.04845829591567" lon="14.363038899944339"><ele>375.2857142857143</ele><time>2026-04-04T08:24:50Z</time></trkpt><trkpt lat="42.04853008172353" lon="14.363009020915063"><ele>373.57142857142856</ele><time>2026-04-04T08:24:51Z</time></trkpt><trkpt lat="42.04859891119486" lon="14.362992055375273"><ele>371.8571428571429</ele><time>2026-04-04T08:24:52Z</time></trkpt><trkpt lat="42.04866789997648" lon="14.362981922242337"><ele>370.1428571428571</ele><time>2026-04-04T08:24:53Z</time></trkpt><trkpt lat="42.04874029749154" lon="14.362983036995736"><ele>368.42857142857144</ele><time>2026-04-04T08:24:54Z</time></trkpt><trkpt lat="42.04881828704682" lon="14.36298093056764"><ele>366.7142857142857</ele><time>2026-04-04T08:24:55Z</time></trkpt><trkpt lat="42.0488933767624" lon="14.362970474176091"><ele>365.0</ele><time>2026-04-04T08:24:56Z</time></trkpt><trkpt lat="42.04896852065003" lon="14.362970334442146"><ele>365.00000000000006</ele><time>2026-04-04T08:24:57Z</time></trkpt><trkpt lat="42.04904295934604" lon="14.36296045384065"><ele>365.0</ele><time>2026-04-04T08:24:58Z</time></trkpt><trkpt lat="42.049113676032405" lon="14.36293947074873"><ele>365.0</ele><time>2026-04-04T08:24:59Z</time></trkpt><trkpt lat="42.04918360524084" lon="14.362920764681489"><ele>365.0</ele><time>2026-04-04T08:25:00Z</time></trkpt><trkpt lat="42.04925099140271" lon="14.362897880327461"><ele>365.0</ele><time>2026-04-04T08:25:01Z</time></trkpt><trkpt lat="42.04931661998443" lon="14.362868518403374"><ele>365.00000000000006</ele><time>2026-04-04T08:25:02Z</time></trkpt><trkpt lat="42.04938427723688" lon="14.36284193303494"><ele>365.0</ele><time>2026-04-04T08:25:03Z</time></trkpt><trkpt lat="42.04945243622408" lon="14.362820565384752"><ele>365.4</ele><time>2026-04-04T08:25:04Z</time></trkpt><trkpt lat="42.04951558136596" lon="14.362799279551702"><ele>365.8</ele><time>2026-04-04T08:25:05Z</time></trkpt><trkpt lat="42.04962878063446" lon="14.362734975756311"><ele>366.20000000000005</ele><time>2026-04-04T08:25:07Z</time></trkpt><trkpt lat="42.049708288818785" lon="14.36260629969754"><ele>366.6</ele><time>2026-04-04T08:25:08.999Z</time></trkpt><trkpt lat="42.04973127684761" lon="14.362527269518575"><ele>367.0</ele><time>2026-04-04T08:25:09.999Z</time></trkpt><trkpt lat="42.04974637273798" lon="14.362364562095584"><ele>367.0</ele><time>2026-04-04T08:25:11.999Z</time></trkpt><trkpt lat="42.04973157618417" lon="14.362281829077062"><ele>367.0</ele><time>2026-04-04T08:25:12.999Z</time></trkpt><trkpt lat="42.04970893762737" lon="14.362200443266707"><ele>367.0</ele><time>2026-04-04T08:25:13.999Z</time></trkpt><trkpt lat="42.04968196156804" lon="14.36212004581106"><ele>367.0</ele><time>2026-04-04T08:25:14.999Z</time></trkpt><trkpt lat="42.04964873101358" lon="14.362042519845454"><ele>367.0</ele><time>2026-04-04T08:25:15.999Z</time></trkpt><trkpt lat="42.049587105117546" lon="14.361891745662989"><ele>367.0</ele><time>2026-04-04T08:25:17.999Z</time></trkpt><trkpt lat="42.04955549545049" lon="14.361812749708148"><ele>365.7142857142857</ele><time>2026-04-04T08:25:18.999Z</time></trkpt><trkpt lat="42.04952070633384" lon="14.361734724857053"><ele>364.42857142857144</ele><time>2026-04-04T08:25:19.999Z</time></trkpt><trkpt lat="42.049486481927495" lon="14.361653291243183"><ele>363.14285714285717</ele><time>2026-04-04T08:25:20.999Z</time></trkpt><trkpt lat="42.04945238096096" lon="14.361571326875092"><ele>361.8571428571429</ele><time>2026-04-04T08:25:21.999Z</time></trkpt><trkpt lat="42.04941793366997" lon="14.361483246570602"><ele>360.57142857142856</ele><time>2026-04-04T08:25:22.999Z</time></trkpt><trkpt lat="42.0493836255683" lon="14.36139647377028"><ele>359.28571428571433</ele><time>2026-04-04T08:25:23.999Z</time></trkpt><trkpt lat="42.049350287507316" lon="14.361313341636455"><ele>358.0</ele><time>2026-04-04T08:25:24.999Z</time></trkpt><trkpt lat="42.0493221581234" lon="14.361228358942466"><ele>357.66666666666663</ele><time>2026-04-04T08:25:25.999Z</time></trkpt><trkpt lat="42.04930366085904" lon="14.36113178779964"><ele>357.3333333333333</ele><time>2026-04-04T08:25:26.999Z</time></trkpt><trkpt lat="42.04929613180781" lon="14.361028038657562"><ele>357.0</ele><time>2026-04-04T08:25:27.999Z</time></trkpt><trkpt lat="42.04929717258818" lon="14.36092448311582"><ele>356.6666666666667</ele><time>2026-04-04T08:25:28.999Z</time></trkpt><trkpt lat="42.04930262790036" lon="14.360817740451933"><ele>356.33333333333337</ele><time>2026-04-04T08:25:29.999Z</time></trkpt><trkpt lat="42.04930476731434" lon="14.360716914200376"><ele>356.0</ele><time>2026-04-04T08:25:30.999Z</time></trkpt><trkpt lat="42.04930525355697" lon="14.36060991938829"><ele>355.1666666666667</ele><time>2026-04-04T08:25:31.999Z</time></trkpt><trkpt lat="42.04931176559367" lon="14.360503365208768"><ele>354.33333333333337</ele><time>2026-04-04T08:25:32.999Z</time></trkpt><trkpt lat="42.049328152999514" lon="14.360396805259452"><ele>353.5</ele><time>2026-04-04T08:25:33.999Z</time></trkpt><trkpt lat="42.04936327524568" lon="14.360296882758856"><ele>352.6666666666667</ele><time>2026-04-04T08:25:34.999Z</time></trkpt><trkpt lat="42.04941631273794" lon="14.36021783765408"><ele>351.8333333333333</ele><time>2026-04-04T08:25:35.999Z</time></trkpt><trkpt lat="42.049483297896074" lon="14.360163287151542"><ele>351.0</ele><time>2026-04-04T08:25:36.999Z</time></trkpt><trkpt lat="42.04956347101798" lon="14.360144346854955"><ele>351.0</ele><time>2026-04-04T08:25:37.999Z</time></trkpt><trkpt lat="42.04964332512433" lon="14.360159650909797"><ele>351.0</ele><time>2026-04-04T08:25:38.999Z</time></trkpt><trkpt lat="42.04971660886288" lon="14.360194327627008"><ele>351.0</ele><time>2026-04-04T08:25:39.999Z</time></trkpt><trkpt lat="42.049773797908834" lon="14.3602394504104"><ele>351.0</ele><time>2026-04-04T08:25:40.999Z</time></trkpt><trkpt lat="42.04986585430501" lon="14.360313832087261"><ele>351.0</ele><time>2026-04-04T08:25:42.999Z</time></trkpt><trkpt lat="42.04994969583163" lon="14.360322964888008"><ele>351.0</ele><time>2026-04-04T08:25:44.999Z</time></trkpt><trkpt lat="42.050014706481285" lon="14.360277630548572"><ele>351.8333333333333</ele><time>2026-04-04T08:25:47.999Z</time></trkpt><trkpt lat="42.05009113028518" lon="14.360228700433439"><ele>352.6666666666667</ele><time>2026-04-04T08:25:50.999Z</time></trkpt><trkpt lat="42.05014043941994" lon="14.360169601482378"><ele>353.5</ele><time>2026-04-04T08:25:52.999Z</time></trkpt><trkpt lat="42.05017466930723" lon="14.360072539520434"><ele>354.33333333333337</ele><time>2026-04-04T08:25:54.999Z</time></trkpt><trkpt lat="42.05020856337486" lon="14.359947913413446"><ele>355.1666666666667</ele><time>2026-04-04T08:25:56.999Z</time></trkpt><trkpt lat="42.050189045901256" lon="14.359802761918333"><ele>356.0</ele><time>2026-04-04T08:25:58.999Z</time></trkpt><trkpt lat="42.05013315093656" lon="14.359663874412728"><ele>356.0</ele><time>2026-04-04T08:26:00.999Z</time></trkpt><trkpt lat="42.05008282919124" lon="14.359507451902163"><ele>356.0</ele><time>2026-04-04T08:26:02.999Z</time></trkpt><trkpt lat="42.05002520898516" lon="14.359357462732444"><ele>356.0</ele><time>2026-04-04T08:26:04.998Z</time></trkpt><trkpt lat="42.04999942293742" lon="14.359278033723191"><ele>356.0</ele><time>2026-04-04T08:26:05.998Z</time></trkpt><trkpt lat="42.04996939646337" lon="14.35920182086444"><ele>356.0</ele><time>2026-04-04T08:26:06.998Z</time></trkpt><trkpt lat="42.049925757505505" lon="14.359135039247894"><ele>356.0</ele><time>2026-04-04T08:26:07.998Z</time></trkpt><trkpt lat="42.04987155049613" lon="14.359082066926565"><ele>355.71428571428567</ele><time>2026-04-04T08:26:08.998Z</time></trkpt><trkpt lat="42.04981465186443" lon="14.359042815308534"><ele>355.42857142857144</ele><time>2026-04-04T08:26:09.998Z</time></trkpt><trkpt lat="42.04975573979056" lon="14.3590114493048"><ele>355.1428571428571</ele><time>2026-04-04T08:26:10.998Z</time></trkpt><trkpt lat="42.04969489457076" lon="14.358978060895748"><ele>354.85714285714283</ele><time>2026-04-04T08:26:11.998Z</time></trkpt><trkpt lat="42.049633980775546" lon="14.358950835646205"><ele>354.57142857142856</ele><time>2026-04-04T08:26:12.998Z</time></trkpt><trkpt lat="42.049574018255676" lon="14.358921131511941"><ele>354.2857142857143</ele><time>2026-04-04T08:26:13.998Z</time></trkpt><trkpt lat="42.0494561959179" lon="14.358864696158717"><ele>354.0</ele><time>2026-04-04T08:26:15.998Z</time></trkpt><trkpt lat="42.04939423502712" lon="14.358841302854218"><ele>354.0</ele><time>2026-04-04T08:26:16.998Z</time></trkpt><trkpt lat="42.04934090557389" lon="14.358794417346672"><ele>354.0</ele><time>2026-04-04T08:26:17.998Z</time></trkpt><trkpt lat="42.04927642525443" lon="14.35876399221808"><ele>354.0</ele><time>2026-04-04T08:26:18.998Z</time></trkpt><trkpt lat="42.049213186616576" lon="14.358733603996546"><ele>354.0</ele><time>2026-04-04T08:26:19.998Z</time></trkpt><trkpt lat="42.049148764030676" lon="14.358726241955978"><ele>354.0</ele><time>2026-04-04T08:26:20.998Z</time></trkpt><trkpt lat="42.04908706096593" lon="14.358695253088735"><ele>354.0</ele><time>2026-04-04T08:26:21.998Z</time></trkpt><trkpt lat="42.048984687574475" lon="14.358609386724371"><ele>350.79999999999995</ele><time>2026-04-04T08:26:23.998Z</time></trkpt><trkpt lat="42.04891741262129" lon="14.358468337654601"><ele>347.59999999999997</ele><time>2026-04-04T08:26:25.998Z</time></trkpt><trkpt lat="42.04889666543706" lon="14.358385890320852"><ele>344.4</ele><time>2026-04-04T08:26:26.998Z</time></trkpt><trkpt lat="42.0488672177195" lon="14.358215885601151"><ele>341.2</ele><time>2026-04-04T08:26:28.998Z</time></trkpt><trkpt lat="42.04885637251448" lon="14.358125888036103"><ele>338.0</ele><time>2026-04-04T08:26:29.998Z</time></trkpt><trkpt lat="42.04884308560971" lon="14.358036123795955"><ele>338.6666666666667</ele><time>2026-04-04T08:26:30.998Z</time></trkpt><trkpt lat="42.04882195392187" lon="14.357940240298555"><ele>339.33333333333337</ele><time>2026-04-04T08:26:31.998Z</time></trkpt><trkpt lat="42.048791562437835" lon="14.357851091795432"><ele>340.0</ele><time>2026-04-04T08:26:32.998Z</time></trkpt><trkpt lat="42.04875473527989" lon="14.35776320205466"><ele>340.6666666666667</ele><time>2026-04-04T08:26:33.998Z</time></trkpt><trkpt lat="42.048708322879754" lon="14.35767897972873"><ele>341.3333333333333</ele><time>2026-04-04T08:26:34.998Z</time></trkpt><trkpt lat="42.04865614989898" lon="14.357604352147202"><ele>342.0</ele><time>2026-04-04T08:26:35.998Z</time></trkpt><trkpt lat="42.048594496027135" lon="14.35754400689561"><ele>342.0</ele><time>2026-04-04T08:26:36.998Z</time></trkpt><trkpt lat="42.048522585081635" lon="14.357499819373798"><ele>342.0</ele><time>2026-04-04T08:26:37.998Z</time></trkpt><trkpt lat="42.048447230031215" lon="14.357469336833221"><ele>342.0</ele><time>2026-04-04T08:26:38.998Z</time></trkpt><trkpt lat="42.04837287438985" lon="14.3574507799079"><ele>342.0</ele><time>2026-04-04T08:26:39.998Z</time></trkpt><trkpt lat="42.04829756349603" lon="14.357433755327772"><ele>342.0</ele><time>2026-04-04T08:26:40.998Z</time></trkpt><trkpt lat="42.04822313421779" lon="14.357418526809782"><ele>342.0</ele><time>2026-04-04T08:26:41.998Z</time></trkpt><trkpt lat="42.04814707427883" lon="14.357402445632218"><ele>341.5</ele><time>2026-04-04T08:26:42.998Z</time></trkpt><trkpt lat="42.048072089323966" lon="14.357378488011609"><ele>341.0</ele><time>2026-04-04T08:26:43.998Z</time></trkpt><trkpt lat="42.0480003963065" lon="14.357352965372456"><ele>340.5</ele><time>2026-04-04T08:26:44.998Z</time></trkpt><trkpt lat="42.04792505488535" lon="14.357336588068074"><ele>340.0</ele><time>2026-04-04T08:26:45.998Z</time></trkpt><trkpt lat="42.04784695254129" lon="14.357324982682286"><ele>339.5</ele><time>2026-04-04T08:26:46.998Z</time></trkpt><trkpt lat="42.04776851094716" lon="14.357315501740336"><ele>339.0</ele><time>2026-04-04T08:26:47.998Z</time></trkpt><trkpt lat="42.04768952297445" lon="14.357307106116215"><ele>339.0</ele><time>2026-04-04T08:26:48.998Z</time></trkpt><trkpt lat="42.04761053389426" lon="14.357301505957677"><ele>339.0</ele><time>2026-04-04T08:26:49.998Z</time></trkpt><trkpt lat="42.04753155644922" lon="14.357303021944826"><ele>339.0</ele><time>2026-04-04T08:26:50.998Z</time></trkpt><trkpt lat="42.047453621071966" lon="14.357309332419787"><ele>339.0</ele><time>2026-04-04T08:26:52Z</time></trkpt><trkpt lat="42.04738095466695" lon="14.357320220915812"><ele>339.0</ele><time>2026-04-04T08:26:53Z</time></trkpt><trkpt lat="42.047312664377884" lon="14.357329437191568"><ele>339.0</ele><time>2026-04-04T08:26:54Z</time></trkpt><trkpt lat="42.047248076796876" lon="14.357342317831849"><ele>339.0</ele><time>2026-04-04T08:26:55Z</time></trkpt><trkpt lat="42.04713082167248" lon="14.357374994431567"><ele>336.8333333333333</ele><time>2026-04-04T08:26:57Z</time></trkpt><trkpt lat="42.04702934826254" lon="14.357424635174748"><ele>334.6666666666667</ele><time>2026-04-04T08:26:59Z</time></trkpt><trkpt lat="42.046940479315204" lon="14.357466948859203"><ele>332.5</ele><time>2026-04-04T08:27:01Z</time></trkpt><trkpt lat="42.046874033204745" lon="14.35749458866149"><ele>330.33333333333337</ele><time>2026-04-04T08:27:03Z</time></trkpt><trkpt lat="42.04680770724728" lon="14.357518015194298"><ele>328.1666666666667</ele><time>2026-04-04T08:27:06Z</time></trkpt><trkpt lat="42.04673465109785" lon="14.357531916615274"><ele>326.0</ele><time>2026-04-04T08:27:14.999Z</time></trkpt><trkpt lat="42.04666352120547" lon="14.357551608943773"><ele>322.5714285714286</ele><time>2026-04-04T08:27:17.999Z</time></trkpt><trkpt lat="42.046599300642285" lon="14.357537010644675"><ele>319.1428571428571</ele><time>2026-04-04T08:27:19.999Z</time></trkpt><trkpt lat="42.04653729887024" lon="14.35750180601062"><ele>315.7142857142857</ele><time>2026-04-04T08:27:21.999Z</time></trkpt><trkpt lat="42.04648847157782" lon="14.357436312068684"><ele>312.28571428571433</ele><time>2026-04-04T08:27:23.999Z</time></trkpt><trkpt lat="42.04644045324989" lon="14.357361000812222"><ele>308.8571428571429</ele><time>2026-04-04T08:27:25.999Z</time></trkpt><trkpt lat="42.046395429916295" lon="14.357274969895782"><ele>305.42857142857144</ele><time>2026-04-04T08:27:27.999Z</time></trkpt><trkpt lat="42.04633741913704" lon="14.357184027492554"><ele>302.0</ele><time>2026-04-04T08:27:29.999Z</time></trkpt><trkpt lat="42.04627531225917" lon="14.357083370162846"><ele>302.0</ele><time>2026-04-04T08:27:31.999Z</time></trkpt><trkpt lat="42.04621684261617" lon="14.356965946983266"><ele>302.0</ele><time>2026-04-04T08:27:33.999Z</time></trkpt><trkpt lat="42.04614798440012" lon="14.356862855653736"><ele>302.0</ele><time>2026-04-04T08:27:35.999Z</time></trkpt><trkpt lat="42.046101616681035" lon="14.356732470207271"><ele>302.0</ele><time>2026-04-04T08:27:37.999Z</time></trkpt><trkpt lat="42.046094588048156" lon="14.356575205901958"><ele>302.0</ele><time>2026-04-04T08:27:39.999Z</time></trkpt><trkpt lat="42.046146095597" lon="14.356418610668413"><ele>301.8571428571429</ele><time>2026-04-04T08:27:41.999Z</time></trkpt><trkpt lat="42.04618546974139" lon="14.356347920188337"><ele>301.7142857142857</ele><time>2026-04-04T08:27:42.999Z</time></trkpt><trkpt lat="42.0462329649909" lon="14.356284211732714"><ele>301.57142857142856</ele><time>2026-04-04T08:27:43.999Z</time></trkpt><trkpt lat="42.04628572469925" lon="14.356226370567923"><ele>301.42857142857144</ele><time>2026-04-04T08:27:44.999Z</time></trkpt><trkpt lat="42.046339544016654" lon="14.356171221375565"><ele>301.2857142857143</ele><time>2026-04-04T08:27:45.999Z</time></trkpt><trkpt lat="42.04639719012838" lon="14.356118817656187"><ele>301.14285714285717</ele><time>2026-04-04T08:27:46.999Z</time></trkpt><trkpt lat="42.04645558114189" lon="14.356065533998214"><ele>301.0</ele><time>2026-04-04T08:27:47.999Z</time></trkpt><trkpt lat="42.04651395314205" lon="14.356009110820397"><ele>301.0</ele><time>2026-04-04T08:27:48.999Z</time></trkpt><trkpt lat="42.04657398638716" lon="14.35595318952921"><ele>301.0</ele><time>2026-04-04T08:27:49.999Z</time></trkpt><trkpt lat="42.0466325254958" lon="14.355895863201901"><ele>301.0</ele><time>2026-04-04T08:27:50.999Z</time></trkpt><trkpt lat="42.04669234553382" lon="14.355836880149639"><ele>301.0</ele><time>2026-04-04T08:27:51.999Z</time></trkpt><trkpt lat="42.046751517365635" lon="14.355778399232968"><ele>301.0</ele><time>2026-04-04T08:27:52.999Z</time></trkpt><trkpt lat="42.04681107802942" lon="14.355719251773536"><ele>301.0</ele><time>2026-04-04T08:27:53.999Z</time></trkpt><trkpt lat="42.04686896950213" lon="14.355662348448735"><ele>301.0</ele><time>2026-04-04T08:27:54.999Z</time></trkpt><trkpt lat="42.04692953502635" lon="14.35560639344452"><ele>302.85714285714283</ele><time>2026-04-04T08:27:55.999Z</time></trkpt><trkpt lat="42.04698885422498" lon="14.355553072709931"><ele>304.7142857142857</ele><time>2026-04-04T08:27:56.999Z</time></trkpt><trkpt lat="42.04704790362686" lon="14.355495578519273"><ele>306.57142857142856</ele><time>2026-04-04T08:27:57.999Z</time></trkpt><trkpt lat="42.04711025591531" lon="14.355440790257814"><ele>308.42857142857144</ele><time>2026-04-04T08:27:58.999Z</time></trkpt><trkpt lat="42.04717193227156" lon="14.355386887426208"><ele>310.2857142857143</ele><time>2026-04-04T08:27:59.999Z</time></trkpt><trkpt lat="42.04722919464961" lon="14.355327514577018"><ele>312.1428571428571</ele><time>2026-04-04T08:28:00.999Z</time></trkpt><trkpt lat="42.04728169006199" lon="14.355257626423832"><ele>314.0</ele><time>2026-04-04T08:28:01.999Z</time></trkpt><trkpt lat="42.04732833680855" lon="14.355179379951508"><ele>314.0</ele><time>2026-04-04T08:28:02.999Z</time></trkpt><trkpt lat="42.04736924583821" lon="14.355095167925013"><ele>314.0</ele><time>2026-04-04T08:28:03.999Z</time></trkpt><trkpt lat="42.04740647061838" lon="14.355007504051752"><ele>314.0</ele><time>2026-04-04T08:28:04.999Z</time></trkpt><trkpt lat="42.04744279733412" lon="14.354918726897578"><ele>314.0</ele><time>2026-04-04T08:28:05.998Z</time></trkpt><trkpt lat="42.04748558411843" lon="14.354833635536195"><ele>314.0</ele><time>2026-04-04T08:28:06.998Z</time></trkpt><trkpt lat="42.04753775461734" lon="14.35475531143458"><ele>314.0</ele><time>2026-04-04T08:28:07.998Z</time></trkpt><trkpt lat="42.04759569213965" lon="14.354686324752565"><ele>311.5</ele><time>2026-04-04T08:28:08.998Z</time></trkpt><trkpt lat="42.04765795427796" lon="14.354626541049072"><ele>309.0</ele><time>2026-04-04T08:28:09.998Z</time></trkpt><trkpt lat="42.047725253595" lon="14.354572649779536"><ele>306.5</ele><time>2026-04-04T08:28:10.998Z</time></trkpt><trkpt lat="42.0477911598971" lon="14.354517395927946"><ele>304.0</ele><time>2026-04-04T08:28:11.998Z</time></trkpt><trkpt lat="42.047855464945" lon="14.354458481052605"><ele>301.5</ele><time>2026-04-04T08:28:12.998Z</time></trkpt><trkpt lat="42.04792147041324" lon="14.354402914930802"><ele>299.0</ele><time>2026-04-04T08:28:13.998Z</time></trkpt><trkpt lat="42.0479890113408" lon="14.354349551566195"><ele>299.0</ele><time>2026-04-04T08:28:14.998Z</time></trkpt><trkpt lat="42.04806042984485" lon="14.354305738154006"><ele>299.0</ele><time>2026-04-04T08:28:15.998Z</time></trkpt><trkpt lat="42.04813782896657" lon="14.354270736008901"><ele>299.0</ele><time>2026-04-04T08:28:16.998Z</time></trkpt><trkpt lat="42.048215434859486" lon="14.354239867152831"><ele>299.0</ele><time>2026-04-04T08:28:17.998Z</time></trkpt><trkpt lat="42.0482906823771" lon="14.354201712841785"><ele>299.0</ele><time>2026-04-04T08:28:18.998Z</time></trkpt><trkpt lat="42.048367525467384" lon="14.354164114748908"><ele>299.0</ele><time>2026-04-04T08:28:19.998Z</time></trkpt><trkpt lat="42.04844200406742" lon="14.354128939350714"><ele>301.5</ele><time>2026-04-04T08:28:20.998Z</time></trkpt><trkpt lat="42.04851773035556" lon="14.35409789271484"><ele>304.0</ele><time>2026-04-04T08:28:21.998Z</time></trkpt><trkpt lat="42.048591851561184" lon="14.354062676457005"><ele>306.5</ele><time>2026-04-04T08:28:22.998Z</time></trkpt><trkpt lat="42.04866575795362" lon="14.354022403025011"><ele>309.0</ele><time>2026-04-04T08:28:23.998Z</time></trkpt><trkpt lat="42.04873849468988" lon="14.35398306560888"><ele>311.5</ele><time>2026-04-04T08:28:24.998Z</time></trkpt><trkpt lat="42.04880928064633" lon="14.353935435552694"><ele>314.0</ele><time>2026-04-04T08:28:25.998Z</time></trkpt><trkpt lat="42.04887395239548" lon="14.353872897651542"><ele>310.33333333333337</ele><time>2026-04-04T08:28:26.998Z</time></trkpt><trkpt lat="42.04893330560663" lon="14.353808647730697"><ele>306.6666666666667</ele><time>2026-04-04T08:28:27.998Z</time></trkpt><trkpt lat="42.0489932156929" lon="14.353746187481683"><ele>303.0</ele><time>2026-04-04T08:28:28.998Z</time></trkpt><trkpt lat="42.04905531037106" lon="14.353682521598117"><ele>299.3333333333333</ele><time>2026-04-04T08:28:29.998Z</time></trkpt><trkpt lat="42.04912119284455" lon="14.353623378181407"><ele>295.66666666666663</ele><time>2026-04-04T08:28:30.998Z</time></trkpt><trkpt lat="42.04919397060337" lon="14.353576021681869"><ele>292.0</ele><time>2026-04-04T08:28:31.998Z</time></trkpt><trkpt lat="42.04927171469137" lon="14.353543296531557"><ele>292.0</ele><time>2026-04-04T08:28:32.998Z</time></trkpt><trkpt lat="42.049354120475286" lon="14.353521192471291"><ele>292.0</ele><time>2026-04-04T08:28:33.998Z</time></trkpt><trkpt lat="42.04943535866447" lon="14.353510728695474"><ele>292.0</ele><time>2026-04-04T08:28:34.998Z</time></trkpt><trkpt lat="42.04951416743785" lon="14.3535192186134"><ele>292.0</ele><time>2026-04-04T08:28:35.998Z</time></trkpt><trkpt lat="42.04959037985245" lon="14.353538193097364"><ele>292.0</ele><time>2026-04-04T08:28:36.998Z</time></trkpt><trkpt lat="42.049668761855216" lon="14.353548061021039"><ele>292.0</ele><time>2026-04-04T08:28:37.998Z</time></trkpt><trkpt lat="42.04974662440474" lon="14.35356077548096"><ele>292.0</ele><time>2026-04-04T08:28:38.998Z</time></trkpt><trkpt lat="42.04982363972979" lon="14.35357355475514"><ele>292.0</ele><time>2026-04-04T08:28:39.998Z</time></trkpt><trkpt lat="42.04990252422586" lon="14.353578626559306"><ele>292.0</ele><time>2026-04-04T08:28:40.998Z</time></trkpt><trkpt lat="42.049981078907905" lon="14.353578028390096"><ele>292.0</ele><time>2026-04-04T08:28:41.998Z</time></trkpt><trkpt lat="42.05006122783393" lon="14.35356415083599"><ele>292.0</ele><time>2026-04-04T08:28:42.998Z</time></trkpt><trkpt lat="42.05013941429905" lon="14.353534577762225"><ele>292.0</ele><time>2026-04-04T08:28:43.998Z</time></trkpt><trkpt lat="42.05021454948018" lon="14.353494924236571"><ele>293.3333333333333</ele><time>2026-04-04T08:28:44.998Z</time></trkpt><trkpt lat="42.050289313289476" lon="14.353454801446237"><ele>294.66666666666663</ele><time>2026-04-04T08:28:45.998Z</time></trkpt><trkpt lat="42.05036235650461" lon="14.353410400891242"><ele>296.0</ele><time>2026-04-04T08:28:46.998Z</time></trkpt><trkpt lat="42.05043465621751" lon="14.353362880209087"><ele>297.3333333333333</ele><time>2026-04-04T08:28:47.998Z</time></trkpt><trkpt lat="42.05050836790062" lon="14.353320078430624"><ele>298.6666666666667</ele><time>2026-04-04T08:28:48.998Z</time></trkpt><trkpt lat="42.05058424925563" lon="14.353278408150638"><ele>300.0</ele><time>2026-04-04T08:28:49.998Z</time></trkpt><trkpt lat="42.05065882934492" lon="14.353237807072396"><ele>300.0</ele><time>2026-04-04T08:28:50.998Z</time></trkpt><trkpt lat="42.05073216472229" lon="14.353193542020307"><ele>300.0</ele><time>2026-04-04T08:28:51.998Z</time></trkpt><trkpt lat="42.05080487670958" lon="14.353148587220241"><ele>300.0</ele><time>2026-04-04T08:28:52.998Z</time></trkpt><trkpt lat="42.050877496538035" lon="14.353110729693839"><ele>300.0</ele><time>2026-04-04T08:28:53.998Z</time></trkpt><trkpt lat="42.0509520099957" lon="14.353077584086408"><ele>300.0</ele><time>2026-04-04T08:28:54.998Z</time></trkpt><trkpt lat="42.05102690454463" lon="14.353048580984733"><ele>300.0</ele><time>2026-04-04T08:28:55.998Z</time></trkpt><trkpt lat="42.05110363928411" lon="14.353032729133298"><ele>301.5</ele><time>2026-04-04T08:28:56.998Z</time></trkpt><trkpt lat="42.0511808392794" lon="14.353025841942728"><ele>303.0</ele><time>2026-04-04T08:28:58Z</time></trkpt><trkpt lat="42.05125866542819" lon="14.353030835534593"><ele>304.5</ele><time>2026-04-04T08:28:59Z</time></trkpt><trkpt lat="42.0513362371352" lon="14.3530374791717"><ele>306.0</ele><time>2026-04-04T08:29:00Z</time></trkpt><trkpt lat="42.05141482822113" lon="14.353038715325265"><ele>307.5</ele><time>2026-04-04T08:29:01Z</time></trkpt><trkpt lat="42.051491597830946" lon="14.353046841183199"><ele>309.0</ele><time>2026-04-04T08:29:02Z</time></trkpt><trkpt lat="42.05157040166579" lon="14.35305978895657"><ele>310.1666666666667</ele><time>2026-04-04T08:29:03Z</time></trkpt><trkpt lat="42.051649939430234" lon="14.353067326551974"><ele>311.3333333333333</ele><time>2026-04-04T08:29:04Z</time></trkpt><trkpt lat="42.05173023795891" lon="14.353071456252533"><ele>312.5</ele><time>2026-04-04T08:29:05.001Z</time></trkpt><trkpt lat="42.051809816890994" lon="14.353070320512602"><ele>313.66666666666663</ele><time>2026-04-04T08:29:06.001Z</time></trkpt><trkpt lat="42.05188808215752" lon="14.353061390731561"><ele>314.8333333333333</ele><time>2026-04-04T08:29:07.001Z</time></trkpt><trkpt lat="42.05196888036732" lon="14.353049620046777"><ele>316.0</ele><time>2026-04-04T08:29:08.001Z</time></trkpt><trkpt lat="42.05204529502206" lon="14.353027843116115"><ele>308.66666666666663</ele><time>2026-04-04T08:29:09.001Z</time></trkpt><trkpt lat="42.052117140182546" lon="14.353001070210812"><ele>301.3333333333333</ele><time>2026-04-04T08:29:10.001Z</time></trkpt><trkpt lat="42.052187530924094" lon="14.352973277794352"><ele>294.0</ele><time>2026-04-04T08:29:11.001Z</time></trkpt><trkpt lat="42.052255996462776" lon="14.352938123304195"><ele>286.6666666666667</ele><time>2026-04-04T08:29:12.001Z</time></trkpt><trkpt lat="42.05232210969426" lon="14.352891265124587"><ele>279.33333333333337</ele><time>2026-04-04T08:29:13Z</time></trkpt><trkpt lat="42.05238064640045" lon="14.352824575227125"><ele>272.0</ele><time>2026-04-04T08:29:14Z</time></trkpt><trkpt lat="42.052445939085636" lon="14.352765848142363"><ele>274.33333333333337</ele><time>2026-04-04T08:29:15Z</time></trkpt><trkpt lat="42.05248466854816" lon="14.352673091803318"><ele>276.6666666666667</ele><time>2026-04-04T08:29:16Z</time></trkpt><trkpt lat="42.05253857633628" lon="14.352599299440127"><ele>279.0</ele><time>2026-04-04T08:29:17Z</time></trkpt><trkpt lat="42.05260187381005" lon="14.352537635170183"><ele>281.3333333333333</ele><time>2026-04-04T08:29:18Z</time></trkpt><trkpt lat="42.0526738410493" lon="14.35249141908964"><ele>283.66666666666663</ele><time>2026-04-04T08:29:19Z</time></trkpt><trkpt lat="42.05274556051834" lon="14.352449222270296"><ele>286.0</ele><time>2026-04-04T08:29:20Z</time></trkpt><trkpt lat="42.052817975296406" lon="14.352407696348354"><ele>285.99999999999994</ele><time>2026-04-04T08:29:21Z</time></trkpt><trkpt lat="42.052890032479404" lon="14.352363163899383"><ele>286.0</ele><time>2026-04-04T08:29:22Z</time></trkpt><trkpt lat="42.05296071246779" lon="14.352317210217103"><ele>286.0</ele><time>2026-04-04T08:29:23Z</time></trkpt><trkpt lat="42.05302657496121" lon="14.352271279920444"><ele>286.0</ele><time>2026-04-04T08:29:24Z</time></trkpt><trkpt lat="42.05309161692899" lon="14.352229225975034"><ele>286.0</ele><time>2026-04-04T08:29:25Z</time></trkpt><trkpt lat="42.05315369807199" lon="14.352186200943434"><ele>285.99999999999994</ele><time>2026-04-04T08:29:26Z</time></trkpt><trkpt lat="42.05321495158828" lon="14.352144763379544"><ele>286.0</ele><time>2026-04-04T08:29:27Z</time></trkpt><trkpt lat="42.053276740477116" lon="14.35211291331091"><ele>288.85714285714283</ele><time>2026-04-04T08:29:28Z</time></trkpt><trkpt lat="42.05334115227009" lon="14.352096460712891"><ele>291.7142857142857</ele><time>2026-04-04T08:29:29Z</time></trkpt><trkpt lat="42.05340890306247" lon="14.352098455340265"><ele>294.57142857142856</ele><time>2026-04-04T08:29:30Z</time></trkpt><trkpt lat="42.05347847016787" lon="14.352121661948198"><ele>297.42857142857144</ele><time>2026-04-04T08:29:31Z</time></trkpt><trkpt lat="42.05354301088071" lon="14.352161417628574"><ele>300.2857142857143</ele><time>2026-04-04T08:29:32Z</time></trkpt><trkpt lat="42.05360693653057" lon="14.352193564878368"><ele>303.1428571428571</ele><time>2026-04-04T08:29:33Z</time></trkpt><trkpt lat="42.053673167464886" lon="14.35221148418865"><ele>306.0</ele><time>2026-04-04T08:29:34Z</time></trkpt><trkpt lat="42.053741510119586" lon="14.352217704664069"><ele>300.2857142857143</ele><time>2026-04-04T08:29:35Z</time></trkpt><trkpt lat="42.05381107624966" lon="14.352199002127326"><ele>294.57142857142856</ele><time>2026-04-04T08:29:36Z</time></trkpt><trkpt lat="42.05387926581402" lon="14.35216318633967"><ele>288.8571428571429</ele><time>2026-04-04T08:29:37Z</time></trkpt><trkpt lat="42.053947148777766" lon="14.352131524348938"><ele>283.1428571428571</ele><time>2026-04-04T08:29:38Z</time></trkpt><trkpt lat="42.05401942933055" lon="14.352103529709797"><ele>277.42857142857144</ele><time>2026-04-04T08:29:39Z</time></trkpt><trkpt lat="42.054092194395324" lon="14.352081287285655"><ele>271.7142857142857</ele><time>2026-04-04T08:29:40Z</time></trkpt><trkpt lat="42.054166348434975" lon="14.35206737417037"><ele>266.0</ele><time>2026-04-04T08:29:41Z</time></trkpt><trkpt lat="42.054243957571664" lon="14.352079083628245"><ele>266.0</ele><time>2026-04-04T08:29:42Z</time></trkpt><trkpt lat="42.054320769579896" lon="14.352107044417835"><ele>266.0</ele><time>2026-04-04T08:29:43Z</time></trkpt><trkpt lat="42.05439436690002" lon="14.352141579187363"><ele>266.0</ele><time>2026-04-04T08:29:44Z</time></trkpt><trkpt lat="42.054464663573356" lon="14.352188601435675"><ele>266.0</ele><time>2026-04-04T08:29:45Z</time></trkpt><trkpt lat="42.05453135032064" lon="14.352236360047105"><ele>266.0</ele><time>2026-04-04T08:29:46Z</time></trkpt><trkpt lat="42.05459457074755" lon="14.352274788318736"><ele>266.0</ele><time>2026-04-04T08:29:47Z</time></trkpt><trkpt lat="42.054658318035834" lon="14.352321299255667"><ele>267.6666666666667</ele><time>2026-04-04T08:29:48Z</time></trkpt><trkpt lat="42.054722891333974" lon="14.352381774092544"><ele>269.33333333333337</ele><time>2026-04-04T08:29:49Z</time></trkpt><trkpt lat="42.05478183456624" lon="14.352447786073487"><ele>271.0</ele><time>2026-04-04T08:29:50Z</time></trkpt><trkpt lat="42.05483919515564" lon="14.352516974854845"><ele>272.6666666666667</ele><time>2026-04-04T08:29:51Z</time></trkpt><trkpt lat="42.05489448222829" lon="14.352587012554885"><ele>274.3333333333333</ele><time>2026-04-04T08:29:52Z</time></trkpt><trkpt lat="42.05494442804348" lon="14.352659155928306"><ele>276.0</ele><time>2026-04-04T08:29:53Z</time></trkpt><trkpt lat="42.05499663082843" lon="14.352730939648318"><ele>276.0</ele><time>2026-04-04T08:29:54Z</time></trkpt><trkpt lat="42.055051262751576" lon="14.352800369063404"><ele>276.0</ele><time>2026-04-04T08:29:55Z</time></trkpt><trkpt lat="42.055110189043205" lon="14.352870843659426"><ele>276.0</ele><time>2026-04-04T08:29:56Z</time></trkpt><trkpt lat="42.05516688212877" lon="14.352936829437967"><ele>276.0</ele><time>2026-04-04T08:29:57Z</time></trkpt><trkpt lat="42.05522846635027" lon="14.352999607302769"><ele>276.0</ele><time>2026-04-04T08:29:58Z</time></trkpt><trkpt lat="42.05529362371" lon="14.353062661849439"><ele>276.0</ele><time>2026-04-04T08:29:59Z</time></trkpt><trkpt lat="42.05536119757862" lon="14.35311915197512"><ele>276.1666666666667</ele><time>2026-04-04T08:30:00Z</time></trkpt><trkpt lat="42.05543081657323" lon="14.353173617525412"><ele>276.3333333333333</ele><time>2026-04-04T08:30:01Z</time></trkpt><trkpt lat="42.05550086070359" lon="14.353231523345258"><ele>276.5</ele><time>2026-04-04T08:30:02Z</time></trkpt><trkpt lat="42.05556954706149" lon="14.353292033464744"><ele>276.66666666666663</ele><time>2026-04-04T08:30:03Z</time></trkpt><trkpt lat="42.05563986211123" lon="14.3533513025258"><ele>276.8333333333333</ele><time>2026-04-04T08:30:04Z</time></trkpt><trkpt lat="42.05571227353384" lon="14.35340390222296"><ele>277.0</ele><time>2026-04-04T08:30:05Z</time></trkpt><trkpt lat="42.055788644988745" lon="14.353449489892908"><ele>277.0</ele><time>2026-04-04T08:30:06Z</time></trkpt><trkpt lat="42.0558642172895" lon="14.353499140092223"><ele>277.0</ele><time>2026-04-04T08:30:07Z</time></trkpt><trkpt lat="42.05594365421997" lon="14.353544892171971"><ele>277.0</ele><time>2026-04-04T08:30:08Z</time></trkpt><trkpt lat="42.05602383171601" lon="14.353585202003364"><ele>277.0</ele><time>2026-04-04T08:30:09Z</time></trkpt><trkpt lat="42.05610626086362" lon="14.353621890807691"><ele>277.0</ele><time>2026-04-04T08:30:09.999Z</time></trkpt><trkpt lat="42.05619042125366" lon="14.35365342053543"><ele>277.0</ele><time>2026-04-04T08:30:10.999Z</time></trkpt><trkpt lat="42.056274316353" lon="14.353697605190836"><ele>277.0</ele><time>2026-04-04T08:30:11.999Z</time></trkpt><trkpt lat="42.056363048115344" lon="14.353721406681101"><ele>277.0</ele><time>2026-04-04T08:30:12.999Z</time></trkpt><trkpt lat="42.05645714976244" lon="14.353717005552502"><ele>277.0</ele><time>2026-04-04T08:30:13.999Z</time></trkpt><trkpt lat="42.05653606780359" lon="14.353751216828618"><ele>277.0</ele><time>2026-04-04T08:30:14.999Z</time></trkpt><trkpt lat="42.05662565803504" lon="14.353761619417893"><ele>277.0</ele><time>2026-04-04T08:30:15.999Z</time></trkpt><trkpt lat="42.05672030286127" lon="14.35375664331508"><ele>274.0</ele><time>2026-04-04T08:30:16.999Z</time></trkpt><trkpt lat="42.05680567148495" lon="14.35375974115133"><ele>271.0</ele><time>2026-04-04T08:30:17.999Z</time></trkpt><trkpt lat="42.056894007118565" lon="14.353739041787364"><ele>268.0</ele><time>2026-04-04T08:30:18.999Z</time></trkpt><trkpt lat="42.05698214117753" lon="14.353713866611868"><ele>265.0</ele><time>2026-04-04T08:30:19.999Z</time></trkpt><trkpt lat="42.05706596603012" lon="14.353666160803485"><ele>262.0</ele><time>2026-04-04T08:30:20.999Z</time></trkpt><trkpt lat="42.05714964727771" lon="14.35363649962445"><ele>259.0</ele><time>2026-04-04T08:30:21.999Z</time></trkpt><trkpt lat="42.05723062050864" lon="14.353608993545857"><ele>259.0</ele><time>2026-04-04T08:30:22.999Z</time></trkpt><trkpt lat="42.05731988482562" lon="14.353600635025364"><ele>259.0</ele><time>2026-04-04T08:30:23.999Z</time></trkpt><trkpt lat="42.05740007679578" lon="14.353550673710714"><ele>259.0</ele><time>2026-04-04T08:30:24.999Z</time></trkpt><trkpt lat="42.057488152093484" lon="14.35352164444747"><ele>259.0</ele><time>2026-04-04T08:30:25.999Z</time></trkpt><trkpt lat="42.057577894235" lon="14.353493195044532"><ele>259.0</ele><time>2026-04-04T08:30:26.999Z</time></trkpt><trkpt lat="42.057669163896215" lon="14.353480250305534"><ele>258.59999999999997</ele><time>2026-04-04T08:30:27.999Z</time></trkpt><trkpt lat="42.05775469278828" lon="14.35343091479314"><ele>258.2</ele><time>2026-04-04T08:30:28.999Z</time></trkpt><trkpt lat="42.057845551271775" lon="14.353425595782646"><ele>257.79999999999995</ele><time>2026-04-04T08:30:29.999Z</time></trkpt><trkpt lat="42.05793480609597" lon="14.353398628433832"><ele>257.4</ele><time>2026-04-04T08:30:30.999Z</time></trkpt><trkpt lat="42.05802087754002" lon="14.353357322117375"><ele>257.0</ele><time>2026-04-04T08:30:31.999Z</time></trkpt><trkpt lat="42.05811403921013" lon="14.3533445337168"><ele>257.0</ele><time>2026-04-04T08:30:32.999Z</time></trkpt><trkpt lat="42.05820829285721" lon="14.353341294597875"><ele>257.0</ele><time>2026-04-04T08:30:33.999Z</time></trkpt><trkpt lat="42.05830237431721" lon="14.353354236703938"><ele>257.0</ele><time>2026-04-04T08:30:34.999Z</time></trkpt><trkpt lat="42.05839475350739" lon="14.35337420395405"><ele>257.0</ele><time>2026-04-04T08:30:35.999Z</time></trkpt><trkpt lat="42.05848384518132" lon="14.35339918434367"><ele>257.0</ele><time>2026-04-04T08:30:36.999Z</time></trkpt><trkpt lat="42.058573243405924" lon="14.353414591993245"><ele>256.6</ele><time>2026-04-04T08:30:37.999Z</time></trkpt><trkpt lat="42.05866676686542" lon="14.35342301304252"><ele>256.2</ele><time>2026-04-04T08:30:38.999Z</time></trkpt><trkpt lat="42.05875986883501" lon="14.353429233513282"><ele>255.8</ele><time>2026-04-04T08:30:39.999Z</time></trkpt><trkpt lat="42.05885193913937" lon="14.35343138014641"><ele>255.4</ele><time>2026-04-04T08:30:40.999Z</time></trkpt><trkpt lat="42.05894376669507" lon="14.353429675251224"><ele>255.0</ele><time>2026-04-04T08:30:41.999Z</time></trkpt><trkpt lat="42.05903597584476" lon="14.353425586581265"><ele>254.0</ele><time>2026-04-04T08:30:42.999Z</time></trkpt><trkpt lat="42.05912961224276" lon="14.353423209862889"><ele>253.0</ele><time>2026-04-04T08:30:43.999Z</time></trkpt><trkpt lat="42.05922246629694" lon="14.353416261663792"><ele>252.0</ele><time>2026-04-04T08:30:44.999Z</time></trkpt><trkpt lat="42.05931601828524" lon="14.353400936482227"><ele>251.0</ele><time>2026-04-04T08:30:45.999Z</time></trkpt><trkpt lat="42.05940846844662" lon="14.353379967345116"><ele>250.0</ele><time>2026-04-04T08:30:46.999Z</time></trkpt><trkpt lat="42.05949777421768" lon="14.35334724806577"><ele>250.0</ele><time>2026-04-04T08:30:47.999Z</time></trkpt><trkpt lat="42.05958748080222" lon="14.353310491605063"><ele>250.0</ele><time>2026-04-04T08:30:48.999Z</time></trkpt><trkpt lat="42.05967560873582" lon="14.353280832109078"><ele>250.0</ele><time>2026-04-04T08:30:49.999Z</time></trkpt><trkpt lat="42.05976500137149" lon="14.353252513956518"><ele>250.0</ele><time>2026-04-04T08:30:50.999Z</time></trkpt><trkpt lat="42.05985464550827" lon="14.353222275027887"><ele>250.0</ele><time>2026-04-04T08:30:51.999Z</time></trkpt><trkpt lat="42.059945253114236" lon="14.353196637812637"><ele>251.6</ele><time>2026-04-04T08:30:52.999Z</time></trkpt><trkpt lat="42.06003604490017" lon="14.353168404566409"><ele>253.2</ele><time>2026-04-04T08:30:53.999Z</time></trkpt><trkpt lat="42.0601259424496" lon="14.353141090100497"><ele>254.8</ele><time>2026-04-04T08:30:54.999Z</time></trkpt><trkpt lat="42.06021483055246" lon="14.353114664978941"><ele>256.4</ele><time>2026-04-04T08:30:55.999Z</time></trkpt><trkpt lat="42.06030336572335" lon="14.35308847005621"><ele>258.0</ele><time>2026-04-04T08:30:56.999Z</time></trkpt><trkpt lat="42.060392166992884" lon="14.353064893005895"><ele>258.0</ele><time>2026-04-04T08:30:57.999Z</time></trkpt><trkpt lat="42.060478459754584" lon="14.353041022859431"><ele>258.0</ele><time>2026-04-04T08:30:58.999Z</time></trkpt><trkpt lat="42.06056442997748" lon="14.35301660395569"><ele>258.0</ele><time>2026-04-04T08:30:59.999Z</time></trkpt><trkpt lat="42.0606499258996" lon="14.352991942376313"><ele>258.0</ele><time>2026-04-04T08:31:00.999Z</time></trkpt><trkpt lat="42.060735345628025" lon="14.352971371885822"><ele>258.0</ele><time>2026-04-04T08:31:01.999Z</time></trkpt><trkpt lat="42.06082144580942" lon="14.352949440522105"><ele>258.0</ele><time>2026-04-04T08:31:03Z</time></trkpt><trkpt lat="42.060906619188756" lon="14.352925863034066"><ele>252.83333333333334</ele><time>2026-04-04T08:31:04Z</time></trkpt><trkpt lat="42.0609915993418" lon="14.352906824723833"><ele>247.66666666666669</ele><time>2026-04-04T08:31:05Z</time></trkpt><trkpt lat="42.06107773633932" lon="14.352891117808676"><ele>242.5</ele><time>2026-04-04T08:31:06Z</time></trkpt><trkpt lat="42.06115964295417" lon="14.35286642445143"><ele>237.33333333333334</ele><time>2026-04-04T08:31:07Z</time></trkpt><trkpt lat="42.06124244484001" lon="14.352847089950297"><ele>232.16666666666669</ele><time>2026-04-04T08:31:08Z</time></trkpt><trkpt lat="42.06132575763102" lon="14.35283158556052"><ele>227.0</ele><time>2026-04-04T08:31:09Z</time></trkpt><trkpt lat="42.06140864688998" lon="14.352817047506166"><ele>227.00000000000003</ele><time>2026-04-04T08:31:10Z</time></trkpt><trkpt lat="42.061490517239775" lon="14.35280114834632"><ele>227.0</ele><time>2026-04-04T08:31:11Z</time></trkpt><trkpt lat="42.061566568814534" lon="14.352774717859544"><ele>227.0</ele><time>2026-04-04T08:31:12Z</time></trkpt><trkpt lat="42.06164418389353" lon="14.352735374663284"><ele>227.0</ele><time>2026-04-04T08:31:13Z</time></trkpt><trkpt lat="42.061719828462095" lon="14.352691285154213"><ele>227.00000000000003</ele><time>2026-04-04T08:31:14Z</time></trkpt><trkpt lat="42.06179403330129" lon="14.352638544574283"><ele>227.0</ele><time>2026-04-04T08:31:15Z</time></trkpt><trkpt lat="42.06186842774524" lon="14.352581417388325"><ele>228.00000000000003</ele><time>2026-04-04T08:31:16Z</time></trkpt><trkpt lat="42.0619432873861" lon="14.352524161597508"><ele>229.0</ele><time>2026-04-04T08:31:17Z</time></trkpt><trkpt lat="42.06201782729623" lon="14.352469157722776"><ele>230.0</ele><time>2026-04-04T08:31:18Z</time></trkpt><trkpt lat="42.0620947818534" lon="14.352418005753481"><ele>231.0</ele><time>2026-04-04T08:31:19Z</time></trkpt><trkpt lat="42.06217024225843" lon="14.35237285572357"><ele>232.00000000000003</ele><time>2026-04-04T08:31:20Z</time></trkpt><trkpt lat="42.062246070282455" lon="14.35233760831166"><ele>233.0</ele><time>2026-04-04T08:31:21Z</time></trkpt><trkpt lat="42.06232665598782" lon="14.35232348262688"><ele>233.00000000000003</ele><time>2026-04-04T08:31:22Z</time></trkpt><trkpt lat="42.062406458364805" lon="14.352328855906592"><ele>233.0</ele><time>2026-04-04T08:31:23Z</time></trkpt><trkpt lat="42.06248506615163" lon="14.352343975942786"><ele>233.0</ele><time>2026-04-04T08:31:24Z</time></trkpt><trkpt lat="42.06256241575626" lon="14.352370499353505"><ele>233.0</ele><time>2026-04-04T08:31:25Z</time></trkpt><trkpt lat="42.06263362206185" lon="14.352412130009316"><ele>233.00000000000003</ele><time>2026-04-04T08:31:26Z</time></trkpt><trkpt lat="42.062701290486665" lon="14.352462443263061"><ele>233.0</ele><time>2026-04-04T08:31:27Z</time></trkpt><trkpt lat="42.06276833032" lon="14.352509126518072"><ele>234.16666666666669</ele><time>2026-04-04T08:31:28Z</time></trkpt><trkpt lat="42.062839775559276" lon="14.352541474288456"><ele>235.33333333333334</ele><time>2026-04-04T08:31:29Z</time></trkpt><trkpt lat="42.0629190470928" lon="14.3525409356763"><ele>236.5</ele><time>2026-04-04T08:31:30Z</time></trkpt><trkpt lat="42.06299439727096" lon="14.352512910206883"><ele>237.66666666666669</ele><time>2026-04-04T08:31:31Z</time></trkpt><trkpt lat="42.06306354633153" lon="14.35246307976384"><ele>238.83333333333334</ele><time>2026-04-04T08:31:32Z</time></trkpt><trkpt lat="42.06312265774458" lon="14.3523890194705"><ele>240.0</ele><time>2026-04-04T08:31:33Z</time></trkpt><trkpt lat="42.06318300954826" lon="14.35231251847001"><ele>240.0</ele><time>2026-04-04T08:31:34Z</time></trkpt><trkpt lat="42.06324333956023" lon="14.352236131523112"><ele>240.0</ele><time>2026-04-04T08:31:35Z</time></trkpt><trkpt lat="42.06330287254948" lon="14.352158707269036"><ele>240.0</ele><time>2026-04-04T08:31:36Z</time></trkpt><trkpt lat="42.0633568051099" lon="14.352089796807496"><ele>240.0</ele><time>2026-04-04T08:31:37Z</time></trkpt><trkpt lat="42.06341399319714" lon="14.352025951145611"><ele>240.0</ele><time>2026-04-04T08:31:38Z</time></trkpt><trkpt lat="42.063483515564634" lon="14.351982384555546"><ele>240.0</ele><time>2026-04-04T08:31:39Z</time></trkpt><trkpt lat="42.06356184208539" lon="14.351973832634984"><ele>235.5</ele><time>2026-04-04T08:31:40Z</time></trkpt><trkpt lat="42.0636407360012" lon="14.351992643988849"><ele>231.0</ele><time>2026-04-04T08:31:41Z</time></trkpt><trkpt lat="42.063713414277586" lon="14.352032317332416"><ele>226.5</ele><time>2026-04-04T08:31:42Z</time></trkpt><trkpt lat="42.06378234636854" lon="14.352081727387333"><ele>222.0</ele><time>2026-04-04T08:31:43Z</time></trkpt><trkpt lat="42.06385652223542" lon="14.3521216979595"><ele>217.5</ele><time>2026-04-04T08:31:44Z</time></trkpt><trkpt lat="42.06393316020641" lon="14.352149113809835"><ele>213.0</ele><time>2026-04-04T08:31:45Z</time></trkpt><trkpt lat="42.064014516511" lon="14.352161322332023"><ele>213.0</ele><time>2026-04-04T08:31:46Z</time></trkpt><trkpt lat="42.06409726389272" lon="14.352160349254532"><ele>213.0</ele><time>2026-04-04T08:31:47Z</time></trkpt><trkpt lat="42.06418184375327" lon="14.352145847346213"><ele>213.0</ele><time>2026-04-04T08:31:48Z</time></trkpt><trkpt lat="42.06426494659271" lon="14.35212686656204"><ele>213.0</ele><time>2026-04-04T08:31:49Z</time></trkpt><trkpt lat="42.064351167440044" lon="14.352109749487864"><ele>213.0</ele><time>2026-04-04T08:31:50Z</time></trkpt><trkpt lat="42.06443603865672" lon="14.352090444961233"><ele>213.0</ele><time>2026-04-04T08:31:51Z</time></trkpt><trkpt lat="42.064520703932665" lon="14.352065390390552"><ele>213.16666666666666</ele><time>2026-04-04T08:31:52Z</time></trkpt><trkpt lat="42.064602318548936" lon="14.352034673519796"><ele>213.33333333333331</ele><time>2026-04-04T08:31:53Z</time></trkpt><trkpt lat="42.064690116765505" lon="14.352015803059496"><ele>213.5</ele><time>2026-04-04T08:31:54Z</time></trkpt><trkpt lat="42.0647610397509" lon="14.351943716890002"><ele>213.66666666666666</ele><time>2026-04-04T08:31:55Z</time></trkpt><trkpt lat="42.06483453154377" lon="14.35188515257378"><ele>213.83333333333331</ele><time>2026-04-04T08:31:56Z</time></trkpt><trkpt lat="42.06490654883881" lon="14.351818673404898"><ele>214.0</ele><time>2026-04-04T08:31:57Z</time></trkpt><trkpt lat="42.06498198693104" lon="14.351757701672078"><ele>214.79999999999998</ele><time>2026-04-04T08:31:58Z</time></trkpt><trkpt lat="42.06506098062258" lon="14.35170206391713"><ele>215.59999999999997</ele><time>2026-04-04T08:31:59Z</time></trkpt><trkpt lat="42.065142317718504" lon="14.35165737136265"><ele>216.4</ele><time>2026-04-04T08:32:00Z</time></trkpt><trkpt lat="42.065228863236555" lon="14.351624755861623"><ele>217.2</ele><time>2026-04-04T08:32:01Z</time></trkpt><trkpt lat="42.06531635554096" lon="14.35158918138451"><ele>218.0</ele><time>2026-04-04T08:32:02Z</time></trkpt><trkpt lat="42.065403097371934" lon="14.351547567670531"><ele>218.0</ele><time>2026-04-04T08:32:03Z</time></trkpt><trkpt lat="42.06549111543176" lon="14.351506004305607"><ele>218.0</ele><time>2026-04-04T08:32:04Z</time></trkpt><trkpt lat="42.06557936606418" lon="14.351463638717748"><ele>218.0</ele><time>2026-04-04T08:32:05Z</time></trkpt><trkpt lat="42.06566712561969" lon="14.351429990555324"><ele>218.0</ele><time>2026-04-04T08:32:06Z</time></trkpt><trkpt lat="42.06575617115191" lon="14.351409242092693"><ele>218.0</ele><time>2026-04-04T08:32:07Z</time></trkpt><trkpt lat="42.06584758048469" lon="14.351413462012733"><ele>219.0</ele><time>2026-04-04T08:32:08Z</time></trkpt><trkpt lat="42.06594023456286" lon="14.351436519797465"><ele>220.0</ele><time>2026-04-04T08:32:09Z</time></trkpt><trkpt lat="42.06603123159849" lon="14.351455688317573"><ele>221.0</ele><time>2026-04-04T08:32:10Z</time></trkpt><trkpt lat="42.066120544370875" lon="14.351492279409653"><ele>222.0</ele><time>2026-04-04T08:32:11Z</time></trkpt><trkpt lat="42.066212087690566" lon="14.351501953143172"><ele>223.0</ele><time>2026-04-04T08:32:12Z</time></trkpt><trkpt lat="42.06630060202119" lon="14.351483994456277"><ele>222.99999999999997</ele><time>2026-04-04T08:32:13Z</time></trkpt><trkpt lat="42.066387935102576" lon="14.351499597023471"><ele>223.0</ele><time>2026-04-04T08:32:13.999Z</time></trkpt><trkpt lat="42.06647697501346" lon="14.351488504324445"><ele>223.0</ele><time>2026-04-04T08:32:14.999Z</time></trkpt><trkpt lat="42.06656622090716" lon="14.3514660086072"><ele>223.0</ele><time>2026-04-04T08:32:15.999Z</time></trkpt><trkpt lat="42.06664848705703" lon="14.351441087842847"><ele>222.99999999999997</ele><time>2026-04-04T08:32:16.999Z</time></trkpt><trkpt lat="42.06672504661306" lon="14.351420414401383"><ele>223.0</ele><time>2026-04-04T08:32:17.999Z</time></trkpt><trkpt lat="42.06680085695434" lon="14.35140108914719"><ele>223.33333333333331</ele><time>2026-04-04T08:32:18.999Z</time></trkpt><trkpt lat="42.066872941734964" lon="14.35138440866641"><ele>223.66666666666666</ele><time>2026-04-04T08:32:19.999Z</time></trkpt><trkpt lat="42.06694493574191" lon="14.351347528433985"><ele>224.0</ele><time>2026-04-04T08:32:20.999Z</time></trkpt><trkpt lat="42.06702115319509" lon="14.351357964957602"><ele>224.33333333333331</ele><time>2026-04-04T08:32:21.999Z</time></trkpt><trkpt lat="42.067097653953795" lon="14.351365483258313"><ele>224.66666666666666</ele><time>2026-04-04T08:32:22.999Z</time></trkpt><trkpt lat="42.067174060771286" lon="14.351373685599633"><ele>225.0</ele><time>2026-04-04T08:32:23.999Z</time></trkpt><trkpt lat="42.06724695066932" lon="14.351389074781345"><ele>225.00000000000003</ele><time>2026-04-04T08:32:24.999Z</time></trkpt><trkpt lat="42.067321139802985" lon="14.35139999372418"><ele>225.0</ele><time>2026-04-04T08:32:25.999Z</time></trkpt><trkpt lat="42.06739513527603" lon="14.35141319053791"><ele>225.00000000000003</ele><time>2026-04-04T08:32:26.999Z</time></trkpt><trkpt lat="42.06746950535548" lon="14.351431089240107"><ele>225.00000000000003</ele><time>2026-04-04T08:32:27.999Z</time></trkpt><trkpt lat="42.06754242884484" lon="14.351458119814868"><ele>225.0</ele><time>2026-04-04T08:32:28.999Z</time></trkpt><trkpt lat="42.06761051410755" lon="14.351492055287723"><ele>225.00000000000003</ele><time>2026-04-04T08:32:29.999Z</time></trkpt><trkpt lat="42.067672470197124" lon="14.351549031419422"><ele>225.00000000000003</ele><time>2026-04-04T08:32:30.999Z</time></trkpt><trkpt lat="42.06773718265374" lon="14.351610022087177"><ele>223.66666666666666</ele><time>2026-04-04T08:32:31.999Z</time></trkpt><trkpt lat="42.067791213048515" lon="14.351684405604857"><ele>222.33333333333331</ele><time>2026-04-04T08:32:32.999Z</time></trkpt><trkpt lat="42.06784797363777" lon="14.351755718268834"><ele>221.0</ele><time>2026-04-04T08:32:33.999Z</time></trkpt><trkpt lat="42.06790488970509" lon="14.351826927373187"><ele>219.66666666666666</ele><time>2026-04-04T08:32:34.999Z</time></trkpt><trkpt lat="42.06796866496737" lon="14.351889863445916"><ele>218.33333333333331</ele><time>2026-04-04T08:32:35.999Z</time></trkpt><trkpt lat="42.06803805253938" lon="14.351939521428099"><ele>217.0</ele><time>2026-04-04T08:32:36.999Z</time></trkpt><trkpt lat="42.06810361252489" lon="14.352003334037045"><ele>216.99999999999997</ele><time>2026-04-04T08:32:37.999Z</time></trkpt><trkpt lat="42.06817076899117" lon="14.35206130903503"><ele>217.0</ele><time>2026-04-04T08:32:38.999Z</time></trkpt><trkpt lat="42.068239646189426" lon="14.352116915147045"><ele>217.0</ele><time>2026-04-04T08:32:39.999Z</time></trkpt><trkpt lat="42.06831045964495" lon="14.352171412469541"><ele>217.0</ele><time>2026-04-04T08:32:40.999Z</time></trkpt><trkpt lat="42.06838589708373" lon="14.352217143900337"><ele>216.99999999999997</ele><time>2026-04-04T08:32:41.999Z</time></trkpt><trkpt lat="42.06846189624117" lon="14.352276570404026"><ele>217.0</ele><time>2026-04-04T08:32:42.999Z</time></trkpt><trkpt lat="42.0685511737571" lon="14.352278902119055"><ele>218.16666666666666</ele><time>2026-04-04T08:32:43.999Z</time></trkpt><trkpt lat="42.068637034170834" lon="14.352296288795534"><ele>219.33333333333331</ele><time>2026-04-04T08:32:44.999Z</time></trkpt><trkpt lat="42.06872425219227" lon="14.352306958545526"><ele>220.5</ele><time>2026-04-04T08:32:45.999Z</time></trkpt><trkpt lat="42.06881182592202" lon="14.352316808798486"><ele>221.66666666666669</ele><time>2026-04-04T08:32:46.999Z</time></trkpt><trkpt lat="42.06889966056279" lon="14.35232707394"><ele>222.83333333333334</ele><time>2026-04-04T08:32:47.999Z</time></trkpt><trkpt lat="42.06898547885237" lon="14.352336752363179"><ele>224.0</ele><time>2026-04-04T08:32:48.999Z</time></trkpt><trkpt lat="42.06907215957734" lon="14.352345814188668"><ele>221.00000000000003</ele><time>2026-04-04T08:32:49.999Z</time></trkpt><trkpt lat="42.069158324308304" lon="14.35235300895796"><ele>218.0</ele><time>2026-04-04T08:32:50.999Z</time></trkpt><trkpt lat="42.069244463492886" lon="14.35236333500978"><ele>215.0</ele><time>2026-04-04T08:32:51.999Z</time></trkpt><trkpt lat="42.0693295612368" lon="14.352378435957636"><ele>212.0</ele><time>2026-04-04T08:32:52.999Z</time></trkpt><trkpt lat="42.06941590301405" lon="14.352402550012975"><ele>209.00000000000003</ele><time>2026-04-04T08:32:53.999Z</time></trkpt><trkpt lat="42.06950055727169" lon="14.352436928131718"><ele>206.0</ele><time>2026-04-04T08:32:54.999Z</time></trkpt><trkpt lat="42.06958448662435" lon="14.352475436790213"><ele>206.00000000000003</ele><time>2026-04-04T08:32:55.999Z</time></trkpt><trkpt lat="42.06966906068645" lon="14.352518386459927"><ele>206.0</ele><time>2026-04-04T08:32:56.999Z</time></trkpt><trkpt lat="42.06975165380884" lon="14.352561741430069"><ele>206.0</ele><time>2026-04-04T08:32:57.999Z</time></trkpt><trkpt lat="42.06983391620855" lon="14.352602631715635"><ele>206.0</ele><time>2026-04-04T08:32:58.999Z</time></trkpt><trkpt lat="42.069909326671535" lon="14.352639125715354"><ele>206.00000000000003</ele><time>2026-04-04T08:32:59.999Z</time></trkpt><trkpt lat="42.069983405717196" lon="14.352672714214798"><ele>206.0</ele><time>2026-04-04T08:33:00.999Z</time></trkpt><trkpt lat="42.07005775293762" lon="14.352708955053657"><ele>204.50000000000003</ele><time>2026-04-04T08:33:01.999Z</time></trkpt><trkpt lat="42.07013177188652" lon="14.352746148083526"><ele>203.0</ele><time>2026-04-04T08:33:02.999Z</time></trkpt><trkpt lat="42.07020613609695" lon="14.352779325299954"><ele>201.5</ele><time>2026-04-04T08:33:03.999Z</time></trkpt><trkpt lat="42.07027747686681" lon="14.352811172514821"><ele>200.0</ele><time>2026-04-04T08:33:04.999Z</time></trkpt><trkpt lat="42.07034838935692" lon="14.352844711879309"><ele>198.50000000000003</ele><time>2026-04-04T08:33:05.999Z</time></trkpt><trkpt lat="42.07041691258073" lon="14.352877084166128"><ele>197.0</ele><time>2026-04-04T08:33:06.999Z</time></trkpt><trkpt lat="42.07048482103219" lon="14.352910927685551"><ele>197.00000000000003</ele><time>2026-04-04T08:33:07.999Z</time></trkpt><trkpt lat="42.070553564328" lon="14.352942914678115"><ele>197.0</ele><time>2026-04-04T08:33:09Z</time></trkpt><trkpt lat="42.07062454592294" lon="14.352958661733618"><ele>197.0</ele><time>2026-04-04T08:33:10Z</time></trkpt><trkpt lat="42.07069844281901" lon="14.352967547434378"><ele>197.0</ele><time>2026-04-04T08:33:11Z</time></trkpt><trkpt lat="42.07077361224469" lon="14.352962268663584"><ele>197.00000000000003</ele><time>2026-04-04T08:33:12Z</time></trkpt><trkpt lat="42.070850628727904" lon="14.352972765347246"><ele>197.0</ele><time>2026-04-04T08:33:13Z</time></trkpt><trkpt lat="42.07092834693513" lon="14.352950878680305"><ele>195.66666666666669</ele><time>2026-04-04T08:33:14Z</time></trkpt><trkpt lat="42.07100376840938" lon="14.352920729104646"><ele>194.33333333333334</ele><time>2026-04-04T08:33:15Z</time></trkpt><trkpt lat="42.07107917570398" lon="14.352888628671261"><ele>193.0</ele><time>2026-04-04T08:33:16Z</time></trkpt><trkpt lat="42.07114815532275" lon="14.352834302075092"><ele>191.66666666666669</ele><time>2026-04-04T08:33:17Z</time></trkpt><trkpt lat="42.071224244718515" lon="14.352810675250202"><ele>190.33333333333334</ele><time>2026-04-04T08:33:18Z</time></trkpt><trkpt lat="42.071298231889536" lon="14.35278105588922"><ele>189.0</ele><time>2026-04-04T08:33:19Z</time></trkpt><trkpt lat="42.07137371636482" lon="14.352755968506878"><ele>189.0</ele><time>2026-04-04T08:33:20Z</time></trkpt><trkpt lat="42.07145319132633" lon="14.35274388533951"><ele>189.0</ele><time>2026-04-04T08:33:21Z</time></trkpt><trkpt lat="42.07153405901629" lon="14.352746438135828"><ele>189.0</ele><time>2026-04-04T08:33:22Z</time></trkpt><trkpt lat="42.07161286947236" lon="14.352759047183014"><ele>189.0</ele><time>2026-04-04T08:33:23Z</time></trkpt><trkpt lat="42.0716885421798" lon="14.352778510862642"><ele>189.0</ele><time>2026-04-04T08:33:24Z</time></trkpt><trkpt lat="42.071763253345054" lon="14.352810036912878"><ele>189.0</ele><time>2026-04-04T08:33:25Z</time></trkpt><trkpt lat="42.0718383243522" lon="14.352842008070338"><ele>188.5</ele><time>2026-04-04T08:33:26Z</time></trkpt><trkpt lat="42.071910663282786" lon="14.352884052656181"><ele>188.0</ele><time>2026-04-04T08:33:27Z</time></trkpt><trkpt lat="42.07197796492706" lon="14.35293492804586"><ele>187.5</ele><time>2026-04-04T08:33:28Z</time></trkpt><trkpt lat="42.07204055459848" lon="14.352994579592195"><ele>187.0</ele><time>2026-04-04T08:33:29Z</time></trkpt><trkpt lat="42.07210010375348" lon="14.3530672709475"><ele>186.5</ele><time>2026-04-04T08:33:30Z</time></trkpt><trkpt lat="42.07215682800609" lon="14.353138411414909"><ele>186.0</ele><time>2026-04-04T08:33:31Z</time></trkpt><trkpt lat="42.072213160994515" lon="14.35321584883745"><ele>186.66666666666666</ele><time>2026-04-04T08:33:32Z</time></trkpt><trkpt lat="42.0722670822619" lon="14.353293942939546"><ele>187.33333333333334</ele><time>2026-04-04T08:33:33Z</time></trkpt><trkpt lat="42.072319098661126" lon="14.353371628155047"><ele>188.0</ele><time>2026-04-04T08:33:34Z</time></trkpt><trkpt lat="42.07237593342304" lon="14.353443715768941"><ele>188.66666666666669</ele><time>2026-04-04T08:33:35Z</time></trkpt><trkpt lat="42.072442980098295" lon="14.353503600969773"><ele>189.33333333333334</ele><time>2026-04-04T08:33:36Z</time></trkpt><trkpt lat="42.07251777699436" lon="14.353548951203859"><ele>190.0</ele><time>2026-04-04T08:33:37Z</time></trkpt><trkpt lat="42.0726001459531" lon="14.35356994599975"><ele>190.0</ele><time>2026-04-04T08:33:38Z</time></trkpt><trkpt lat="42.07267902999424" lon="14.35360521149666"><ele>190.0</ele><time>2026-04-04T08:33:39Z</time></trkpt><trkpt lat="42.072766878893965" lon="14.353605193171271"><ele>190.0</ele><time>2026-04-04T08:33:40Z</time></trkpt><trkpt lat="42.07285217230126" lon="14.353621856186704"><ele>190.0</ele><time>2026-04-04T08:33:41Z</time></trkpt><trkpt lat="42.07293951609989" lon="14.353636601060984"><ele>190.0</ele><time>2026-04-04T08:33:42Z</time></trkpt><trkpt lat="42.07302656900329" lon="14.353650796776074"><ele>190.0</ele><time>2026-04-04T08:33:43Z</time></trkpt><trkpt lat="42.07311318891166" lon="14.353665415421606"><ele>190.0</ele><time>2026-04-04T08:33:44Z</time></trkpt><trkpt lat="42.07320004829679" lon="14.35367503501578"><ele>190.0</ele><time>2026-04-04T08:33:45Z</time></trkpt><trkpt lat="42.07328551407006" lon="14.353683751892506"><ele>190.0</ele><time>2026-04-04T08:33:46Z</time></trkpt><trkpt lat="42.07337059867333" lon="14.353693578393838"><ele>190.0</ele><time>2026-04-04T08:33:47Z</time></trkpt><trkpt lat="42.07345275243427" lon="14.353701928477056"><ele>190.0</ele><time>2026-04-04T08:33:48Z</time></trkpt><trkpt lat="42.07353425225329" lon="14.353713700813817"><ele>190.0</ele><time>2026-04-04T08:33:49Z</time></trkpt><trkpt lat="42.07361625713979" lon="14.35371587249885"><ele>189.0</ele><time>2026-04-04T08:33:50Z</time></trkpt><trkpt lat="42.073699365633686" lon="14.353723775186943"><ele>188.0</ele><time>2026-04-04T08:33:51Z</time></trkpt><trkpt lat="42.07378254167127" lon="14.353733301266029"><ele>187.0</ele><time>2026-04-04T08:33:52Z</time></trkpt><trkpt lat="42.07386608639285" lon="14.353747079947247"><ele>186.0</ele><time>2026-04-04T08:33:53Z</time></trkpt><trkpt lat="42.07394753715535" lon="14.353769385922872"><ele>185.0</ele><time>2026-04-04T08:33:54Z</time></trkpt><trkpt lat="42.074016432229065" lon="14.35380597249814"><ele>184.0</ele><time>2026-04-04T08:33:55Z</time></trkpt><trkpt lat="42.0740785950254" lon="14.353860228645763"><ele>183.57142857142858</ele><time>2026-04-04T08:33:56Z</time></trkpt><trkpt lat="42.074138854567586" lon="14.353927141072559"><ele>183.14285714285714</ele><time>2026-04-04T08:33:57Z</time></trkpt><trkpt lat="42.074192987249944" lon="14.354000101618114"><ele>182.71428571428572</ele><time>2026-04-04T08:33:58Z</time></trkpt><trkpt lat="42.074242293472366" lon="14.354078287943253"><ele>182.28571428571428</ele><time>2026-04-04T08:33:59Z</time></trkpt><trkpt lat="42.07428606543864" lon="14.35415331496763"><ele>181.85714285714283</ele><time>2026-04-04T08:34:00Z</time></trkpt><trkpt lat="42.0743224772636" lon="14.354234574311118"><ele>181.42857142857142</ele><time>2026-04-04T08:34:01Z</time></trkpt><trkpt lat="42.074347491375" lon="14.354327065561895"><ele>181.0</ele><time>2026-04-04T08:34:02Z</time></trkpt><trkpt lat="42.07435591896248" lon="14.354430017403068"><ele>181.0</ele><time>2026-04-04T08:34:03Z</time></trkpt><trkpt lat="42.074355434613416" lon="14.354531253175258"><ele>181.0</ele><time>2026-04-04T08:34:04Z</time></trkpt><trkpt lat="42.0743453805848" lon="14.354634077839185"><ele>181.0</ele><time>2026-04-04T08:34:05Z</time></trkpt><trkpt lat="42.074327072954816" lon="14.354738050497884"><ele>181.0</ele><time>2026-04-04T08:34:06Z</time></trkpt><trkpt lat="42.07431086406762" lon="14.354834570857225"><ele>181.0</ele><time>2026-04-04T08:34:07Z</time></trkpt><trkpt lat="42.07428940760798" lon="14.35493168308734"><ele>181.0</ele><time>2026-04-04T08:34:08Z</time></trkpt><trkpt lat="42.0742699622283" lon="14.35502232950762"><ele>181.14285714285714</ele><time>2026-04-04T08:34:09Z</time></trkpt><trkpt lat="42.07425854910254" lon="14.355120311696039"><ele>181.28571428571428</ele><time>2026-04-04T08:34:10Z</time></trkpt><trkpt lat="42.07426062939661" lon="14.355219575723881"><ele>181.42857142857144</ele><time>2026-04-04T08:34:11Z</time></trkpt><trkpt lat="42.074277377554694" lon="14.355312876538148"><ele>181.57142857142856</ele><time>2026-04-04T08:34:11.999Z</time></trkpt><trkpt lat="42.07430638826815" lon="14.355405360350884"><ele>181.71428571428572</ele><time>2026-04-04T08:34:12.999Z</time></trkpt><trkpt lat="42.07434684259912" lon="14.355490223765392"><ele>181.85714285714286</ele><time>2026-04-04T08:34:13.999Z</time></trkpt><trkpt lat="42.07439062662826" lon="14.355565136389368"><ele>182.0</ele><time>2026-04-04T08:34:14.999Z</time></trkpt><trkpt lat="42.074433575664244" lon="14.355639644962581"><ele>182.0</ele><time>2026-04-04T08:34:15.999Z</time></trkpt><trkpt lat="42.07448090483581" lon="14.355708771316133"><ele>182.0</ele><time>2026-04-04T08:34:16.999Z</time></trkpt><trkpt lat="42.07453826974449" lon="14.355758820316986"><ele>182.0</ele><time>2026-04-04T08:34:17.999Z</time></trkpt><trkpt lat="42.07460588673927" lon="14.355772683703055"><ele>182.0</ele><time>2026-04-04T08:34:18.999Z</time></trkpt><trkpt lat="42.074674793769354" lon="14.355787538047172"><ele>182.0</ele><time>2026-04-04T08:34:19.999Z</time></trkpt><trkpt lat="42.0747346810571" lon="14.355739423323243"><ele>182.0</ele><time>2026-04-04T08:34:20.999Z</time></trkpt><trkpt lat="42.074795657780314" lon="14.355710742058129"><ele>182.0</ele><time>2026-04-04T08:34:21.999Z</time></trkpt><trkpt lat="42.07485550762352" lon="14.355677837279925"><ele>182.0</ele><time>2026-04-04T08:34:22.999Z</time></trkpt><trkpt lat="42.074912377500674" lon="14.355640359216617"><ele>182.0</ele><time>2026-04-04T08:34:23.999Z</time></trkpt><trkpt lat="42.07497022999342" lon="14.355605507156936"><ele>182.0</ele><time>2026-04-04T08:34:24.999Z</time></trkpt><trkpt lat="42.07503167171835" lon="14.355584715377617"><ele>182.0</ele><time>2026-04-04T08:34:25.999Z</time></trkpt><trkpt lat="42.075096545840175" lon="14.35557493887897"><ele>182.0</ele><time>2026-04-04T08:34:26.999Z</time></trkpt><trkpt lat="42.07515966278572" lon="14.35556146645791"><ele>182.0</ele><time>2026-04-04T08:34:27.999Z</time></trkpt><trkpt lat="42.075279789470876" lon="14.355536755755104"><ele>182.0</ele><time>2026-04-04T08:34:29.999Z</time></trkpt><trkpt lat="42.07540245773857" lon="14.355506944312248"><ele>179.66666666666666</ele><time>2026-04-04T08:34:31.999Z</time></trkpt><trkpt lat="42.07546408179213" lon="14.35548927734893"><ele>177.33333333333331</ele><time>2026-04-04T08:34:32.999Z</time></trkpt><trkpt lat="42.07552688693499" lon="14.355472458941655"><ele>175.0</ele><time>2026-04-04T08:34:33.999Z</time></trkpt><trkpt lat="42.07559452412285" lon="14.35547949176005"><ele>172.66666666666666</ele><time>2026-04-04T08:34:34.999Z</time></trkpt><trkpt lat="42.07565747089117" lon="14.355465975827178"><ele>170.33333333333334</ele><time>2026-04-04T08:34:35.999Z</time></trkpt><trkpt lat="42.07578052462365" lon="14.355424358198986"><ele>168.0</ele><time>2026-04-04T08:34:37.999Z</time></trkpt><trkpt lat="42.075838152273306" lon="14.355384894675021"><ele>168.0</ele><time>2026-04-04T08:34:38.999Z</time></trkpt><trkpt lat="42.07589038044057" lon="14.355330488730612"><ele>168.0</ele><time>2026-04-04T08:34:39.999Z</time></trkpt><trkpt lat="42.07593261741257" lon="14.355260476841813"><ele>168.0</ele><time>2026-04-04T08:34:40.999Z</time></trkpt><trkpt lat="42.075966890497725" lon="14.355187144666287"><ele>168.0</ele><time>2026-04-04T08:34:41.999Z</time></trkpt><trkpt lat="42.07598201576939" lon="14.355098565376718"><ele>168.0</ele><time>2026-04-04T08:34:42.999Z</time></trkpt><trkpt lat="42.0760099212732" lon="14.355020328397332"><ele>168.0</ele><time>2026-04-04T08:34:43.999Z</time></trkpt><trkpt lat="42.07604162186046" lon="14.354943550690857"><ele>168.0</ele><time>2026-04-04T08:34:44.999Z</time></trkpt><trkpt lat="42.076076762907164" lon="14.354868342546363"><ele>168.0</ele><time>2026-04-04T08:34:45.999Z</time></trkpt><trkpt lat="42.07611871902279" lon="14.354800029508462"><ele>168.0</ele><time>2026-04-04T08:34:46.999Z</time></trkpt><trkpt lat="42.0761611122899" lon="14.354734178896301"><ele>168.0</ele><time>2026-04-04T08:34:47.999Z</time></trkpt><trkpt lat="42.07620405760859" lon="14.35466955932771"><ele>168.0</ele><time>2026-04-04T08:34:48.999Z</time></trkpt><trkpt lat="42.07624755870804" lon="14.354602682251487"><ele>168.0</ele><time>2026-04-04T08:34:49.999Z</time></trkpt><trkpt lat="42.07629508437026" lon="14.354542362397257"><ele>168.0</ele><time>2026-04-04T08:34:50.999Z</time></trkpt><trkpt lat="42.076340493093575" lon="14.354482768353675"><ele>168.0</ele><time>2026-04-04T08:34:51.999Z</time></trkpt><trkpt lat="42.076425004570574" lon="14.354366722105814"><ele>168.5</ele><time>2026-04-04T08:34:53.999Z</time></trkpt><trkpt lat="42.07650540449439" lon="14.354258328300286"><ele>169.0</ele><time>2026-04-04T08:34:55.999Z</time></trkpt><trkpt lat="42.07658647147166" lon="14.354155576615925"><ele>169.5</ele><time>2026-04-04T08:34:57.999Z</time></trkpt><trkpt lat="42.07666209858223" lon="14.354044613671139"><ele>170.0</ele><time>2026-04-04T08:34:59.999Z</time></trkpt><trkpt lat="42.076746661176344" lon="14.353936106584632"><ele>166.25</ele><time>2026-04-04T08:35:01.999Z</time></trkpt><trkpt lat="42.07682974661012" lon="14.353827758590391"><ele>162.5</ele><time>2026-04-04T08:35:03.999Z</time></trkpt><trkpt lat="42.07691503469819" lon="14.353716806623689"><ele>158.75</ele><time>2026-04-04T08:35:05.999Z</time></trkpt><trkpt lat="42.07699703371636" lon="14.3536020552919"><ele>155.0</ele><time>2026-04-04T08:35:07.998Z</time></trkpt><trkpt lat="42.07708583021654" lon="14.353495329839074"><ele>155.0</ele><time>2026-04-04T08:35:09.998Z</time></trkpt><trkpt lat="42.077175612826196" lon="14.353384920591452"><ele>155.0</ele><time>2026-04-04T08:35:11.998Z</time></trkpt><trkpt lat="42.07728270876509" lon="14.353311863410223"><ele>155.0</ele><time>2026-04-04T08:35:13.998Z</time></trkpt><trkpt lat="42.07739599516027" lon="14.353264718500862"><ele>155.0</ele><time>2026-04-04T08:35:16Z</time></trkpt><trkpt lat="42.077517537439256" lon="14.353262613578725"><ele>156.16666666666666</ele><time>2026-04-04T08:35:18Z</time></trkpt><trkpt lat="42.07763767308027" lon="14.353286506641762"><ele>157.33333333333331</ele><time>2026-04-04T08:35:20Z</time></trkpt><trkpt lat="42.07776214799475" lon="14.353321782009637"><ele>158.5</ele><time>2026-04-04T08:35:22Z</time></trkpt><trkpt lat="42.07782550511664" lon="14.35334283832913"><ele>159.66666666666666</ele><time>2026-04-04T08:35:23Z</time></trkpt><trkpt lat="42.07788876423167" lon="14.353367201593441"><ele>160.83333333333334</ele><time>2026-04-04T08:35:24Z</time></trkpt><trkpt lat="42.07795234402404" lon="14.353398393085213"><ele>162.0</ele><time>2026-04-04T08:35:25Z</time></trkpt><trkpt lat="42.07801705705536" lon="14.353432793616282"><ele>162.0</ele><time>2026-04-04T08:35:26Z</time></trkpt><trkpt lat="42.078082992542626" lon="14.353463575652254"><ele>162.0</ele><time>2026-04-04T08:35:27Z</time></trkpt><trkpt lat="42.07814843585865" lon="14.353496173056564"><ele>162.0</ele><time>2026-04-04T08:35:28Z</time></trkpt><trkpt lat="42.07821503039807" lon="14.353535776529458"><ele>162.0</ele><time>2026-04-04T08:35:29Z</time></trkpt><trkpt lat="42.07827903452801" lon="14.353580537496363"><ele>162.0</ele><time>2026-04-04T08:35:30Z</time></trkpt><trkpt lat="42.07834494657026" lon="14.353617902570912"><ele>162.0</ele><time>2026-04-04T08:35:31Z</time></trkpt><trkpt lat="42.078408887781755" lon="14.353660033460725"><ele>162.0</ele><time>2026-04-04T08:35:32Z</time></trkpt><trkpt lat="42.07847226361198" lon="14.353704405527786"><ele>161.28571428571428</ele><time>2026-04-04T08:35:33Z</time></trkpt><trkpt lat="42.07853711019081" lon="14.353744713260172"><ele>160.57142857142856</ele><time>2026-04-04T08:35:34Z</time></trkpt><trkpt lat="42.07860063090238" lon="14.353783385226345"><ele>159.85714285714283</ele><time>2026-04-04T08:35:35Z</time></trkpt><trkpt lat="42.07866489861617" lon="14.353820295008715"><ele>159.14285714285714</ele><time>2026-04-04T08:35:36Z</time></trkpt><trkpt lat="42.07873118183258" lon="14.353854071020049"><ele>158.42857142857142</ele><time>2026-04-04T08:35:37Z</time></trkpt><trkpt lat="42.078798008481044" lon="14.353887863291442"><ele>157.7142857142857</ele><time>2026-04-04T08:35:38Z</time></trkpt><trkpt lat="42.07886488791866" lon="14.353922589618485"><ele>157.0</ele><time>2026-04-04T08:35:39Z</time></trkpt><trkpt lat="42.07893010669907" lon="14.35395813109645"><ele>158.14285714285714</ele><time>2026-04-04T08:35:40Z</time></trkpt><trkpt lat="42.07899736969503" lon="14.353991892606276"><ele>159.28571428571428</ele><time>2026-04-04T08:35:41Z</time></trkpt><trkpt lat="42.07906379706068" lon="14.354025076403355"><ele>160.42857142857144</ele><time>2026-04-04T08:35:42Z</time></trkpt><trkpt lat="42.07913113105068" lon="14.354056060734624"><ele>161.57142857142856</ele><time>2026-04-04T08:35:43Z</time></trkpt><trkpt lat="42.079198139904626" lon="14.354088162650823"><ele>162.71428571428572</ele><time>2026-04-04T08:35:44Z</time></trkpt><trkpt lat="42.07926701402936" lon="14.354119918201008"><ele>163.85714285714286</ele><time>2026-04-04T08:35:45Z</time></trkpt><trkpt lat="42.079334786100624" lon="14.35415319719369"><ele>165.0</ele><time>2026-04-04T08:35:46Z</time></trkpt><trkpt lat="42.07940211367323" lon="14.35418736353402"><ele>165.00000000000003</ele><time>2026-04-04T08:35:47Z</time></trkpt><trkpt lat="42.07946888769597" lon="14.354224860624923"><ele>165.0</ele><time>2026-04-04T08:35:48Z</time></trkpt><trkpt lat="42.07953750909201" lon="14.354258878443368"><ele>165.0</ele><time>2026-04-04T08:35:49Z</time></trkpt><trkpt lat="42.07960641269864" lon="14.354290917865526"><ele>165.0</ele><time>2026-04-04T08:35:50Z</time></trkpt><trkpt lat="42.079674673674795" lon="14.354322438991051"><ele>165.0</ele><time>2026-04-04T08:35:51Z</time></trkpt><trkpt lat="42.07974193242673" lon="14.354354108263534"><ele>165.00000000000003</ele><time>2026-04-04T08:35:52Z</time></trkpt><trkpt lat="42.079809419241265" lon="14.354385187842366"><ele>165.0</ele><time>2026-04-04T08:35:53Z</time></trkpt><trkpt lat="42.07987781925024" lon="14.35441412131872"><ele>162.71428571428572</ele><time>2026-04-04T08:35:54Z</time></trkpt><trkpt lat="42.07994810351063" lon="14.354447507321199"><ele>160.42857142857144</ele><time>2026-04-04T08:35:55Z</time></trkpt><trkpt lat="42.08001377754669" lon="14.354475379447281"><ele>158.14285714285714</ele><time>2026-04-04T08:35:56Z</time></trkpt><trkpt lat="42.08008401355199" lon="14.354507215034294"><ele>155.85714285714286</ele><time>2026-04-04T08:35:57Z</time></trkpt><trkpt lat="42.08014862370805" lon="14.354541268643489"><ele>153.57142857142856</ele><time>2026-04-04T08:35:58Z</time></trkpt><trkpt lat="42.08021758704072" lon="14.354572632486272"><ele>151.28571428571428</ele><time>2026-04-04T08:35:59Z</time></trkpt><trkpt lat="42.08028705407471" lon="14.354599433048394"><ele>149.0</ele><time>2026-04-04T08:36:00Z</time></trkpt><trkpt lat="42.08035489838655" lon="14.354626519185029"><ele>149.0</ele><time>2026-04-04T08:36:01Z</time></trkpt><trkpt lat="42.080423357481386" lon="14.354656419814397"><ele>149.0</ele><time>2026-04-04T08:36:02Z</time></trkpt><trkpt lat="42.08049179391711" lon="14.354678278801376"><ele>149.0</ele><time>2026-04-04T08:36:03Z</time></trkpt><trkpt lat="42.0805587279937" lon="14.35470218901776"><ele>149.0</ele><time>2026-04-04T08:36:04Z</time></trkpt><trkpt lat="42.0806251462742" lon="14.354726349107166"><ele>149.0</ele><time>2026-04-04T08:36:05Z</time></trkpt><trkpt lat="42.08069297309686" lon="14.35474506855856"><ele>149.0</ele><time>2026-04-04T08:36:06Z</time></trkpt><trkpt lat="42.0807574444515" lon="14.354767739817625"><ele>149.0</ele><time>2026-04-04T08:36:07Z</time></trkpt><trkpt lat="42.08082160183876" lon="14.354787046813701"><ele>152.4</ele><time>2026-04-04T08:36:08Z</time></trkpt><trkpt lat="42.08088329257186" lon="14.354805417529166"><ele>155.8</ele><time>2026-04-04T08:36:09Z</time></trkpt><trkpt lat="42.08099770957991" lon="14.354834007702399"><ele>159.20000000000002</ele><time>2026-04-04T08:36:11Z</time></trkpt><trkpt lat="42.08109918438166" lon="14.354834101579009"><ele>162.60000000000002</ele><time>2026-04-04T08:36:13Z</time></trkpt><trkpt lat="42.08119527490008" lon="14.354831823417427"><ele>166.0</ele><time>2026-04-04T08:36:14.999Z</time></trkpt><trkpt lat="42.0812826535673" lon="14.35484913890013"><ele>166.0</ele><time>2026-04-04T08:36:16.999Z</time></trkpt><trkpt lat="42.08135697760847" lon="14.354834836101416"><ele>166.0</ele><time>2026-04-04T08:36:18.999Z</time></trkpt><trkpt lat="42.08142736557211" lon="14.354835868869069"><ele>166.0</ele><time>2026-04-04T08:36:21.999Z</time></trkpt><trkpt lat="42.08148998510088" lon="14.354817879352579"><ele>166.0</ele><time>2026-04-04T08:36:41.999Z</time></trkpt><trkpt lat="42.08155333186248" lon="14.354821808072067"><ele>166.0</ele><time>2026-04-04T08:36:47.999Z</time></trkpt><trkpt lat="42.08161610531512" lon="14.354804895635015"><ele>166.0</ele><time>2026-04-04T08:36:54.999Z</time></trkpt><trkpt lat="42.0816815152869" lon="14.354786010650852"><ele>166.0</ele><time>2026-04-04T08:37:04.999Z</time></trkpt><trkpt lat="42.08178517945573" lon="14.35479460184452"><ele>164.0</ele><time>2026-04-04T08:38:05Z</time></trkpt><trkpt lat="42.081856542193975" lon="14.354791970717011"><ele>162.0</ele><time>2026-04-04T08:38:07Z</time></trkpt><trkpt lat="42.08193470008657" lon="14.354774855706738"><ele>160.0</ele><time>2026-04-04T08:38:09Z</time></trkpt><trkpt lat="42.08202204832355" lon="14.35474918386599"><ele>158.0</ele><time>2026-04-04T08:38:11Z</time></trkpt><trkpt lat="42.08211076041986" lon="14.354739631706115"><ele>156.0</ele><time>2026-04-04T08:38:13Z</time></trkpt><trkpt lat="42.082192725985784" lon="14.354716639388743"><ele>154.0</ele><time>2026-04-04T08:38:14.999Z</time></trkpt><trkpt lat="42.08227964337104" lon="14.35468181864709"><ele>150.2</ele><time>2026-04-04T08:38:16.999Z</time></trkpt><trkpt lat="42.082374286918146" lon="14.354657278468217"><ele>146.4</ele><time>2026-04-04T08:38:18.999Z</time></trkpt><trkpt lat="42.08247556849495" lon="14.35463376553093"><ele>142.6</ele><time>2026-04-04T08:38:20.999Z</time></trkpt><trkpt lat="42.08257810440771" lon="14.354619510449067"><ele>138.8</ele><time>2026-04-04T08:38:22.999Z</time></trkpt><trkpt lat="42.082686006159285" lon="14.354627995398284"><ele>135.0</ele><time>2026-04-04T08:38:24.999Z</time></trkpt><trkpt lat="42.0827904250265" lon="14.354656251539481"><ele>135.0</ele><time>2026-04-04T08:38:26.999Z</time></trkpt><trkpt lat="42.08289306652302" lon="14.354694765854003"><ele>135.0</ele><time>2026-04-04T08:38:28.999Z</time></trkpt><trkpt lat="42.08299616923212" lon="14.354741520647188"><ele>135.0</ele><time>2026-04-04T08:38:30.999Z</time></trkpt><trkpt lat="42.083103625144766" lon="14.354796515939515"><ele>135.0</ele><time>2026-04-04T08:38:32.999Z</time></trkpt><trkpt lat="42.083211686874726" lon="14.354834855014724"><ele>135.0</ele><time>2026-04-04T08:38:34.999Z</time></trkpt><trkpt lat="42.083322532060144" lon="14.354887488458642"><ele>137.0</ele><time>2026-04-04T08:38:36.999Z</time></trkpt><trkpt lat="42.08343514263295" lon="14.354941416946915"><ele>139.0</ele><time>2026-04-04T08:38:38.999Z</time></trkpt><trkpt lat="42.08355379045595" lon="14.354983056200535"><ele>141.0</ele><time>2026-04-04T08:38:40.999Z</time></trkpt><trkpt lat="42.083672744615264" lon="14.355039742036551"><ele>143.0</ele><time>2026-04-04T08:38:42.999Z</time></trkpt><trkpt lat="42.08378858931631" lon="14.355074251800167"><ele>142.99999999999997</ele><time>2026-04-04T08:38:44.999Z</time></trkpt><trkpt lat="42.083852879757835" lon="14.355096309406715"><ele>143.0</ele><time>2026-04-04T08:38:45.999Z</time></trkpt><trkpt lat="42.0839174510586" lon="14.355127150669691"><ele>143.0</ele><time>2026-04-04T08:38:46.999Z</time></trkpt><trkpt lat="42.08397984640222" lon="14.35515196519775"><ele>143.0</ele><time>2026-04-04T08:38:47.999Z</time></trkpt><trkpt lat="42.08404457439067" lon="14.35518211126185"><ele>143.0</ele><time>2026-04-04T08:38:48.999Z</time></trkpt><trkpt lat="42.08410540511893" lon="14.355215145113982"><ele>142.99999999999997</ele><time>2026-04-04T08:38:49.999Z</time></trkpt><trkpt lat="42.08416942669501" lon="14.355244765315351"><ele>143.0</ele><time>2026-04-04T08:38:50.999Z</time></trkpt><trkpt lat="42.08423009703102" lon="14.35527729495144"><ele>141.4</ele><time>2026-04-04T08:38:51.999Z</time></trkpt><trkpt lat="42.08428940427203" lon="14.35531332116055"><ele>139.8</ele><time>2026-04-04T08:38:52.999Z</time></trkpt><trkpt lat="42.084343255597815" lon="14.355357888370467"><ele>138.2</ele><time>2026-04-04T08:38:53.999Z</time></trkpt><trkpt lat="42.08444668480115" lon="14.355451007735722"><ele>136.6</ele><time>2026-04-04T08:38:55.999Z</time></trkpt><trkpt lat="42.08454577283962" lon="14.35553755392699"><ele>135.0</ele><time>2026-04-04T08:38:57.999Z</time></trkpt><trkpt lat="42.08464400465386" lon="14.355616166286332"><ele>136.5</ele><time>2026-04-04T08:38:59.999Z</time></trkpt><trkpt lat="42.08475223238768" lon="14.355674484975548"><ele>138.0</ele><time>2026-04-04T08:39:01.999Z</time></trkpt><trkpt lat="42.08486216173771" lon="14.355716785417128"><ele>139.5</ele><time>2026-04-04T08:39:03.999Z</time></trkpt><trkpt lat="42.08497269340413" lon="14.355744635617262"><ele>141.0</ele><time>2026-04-04T08:39:05.999Z</time></trkpt><trkpt lat="42.085077314144065" lon="14.355771769085324"><ele>141.0</ele><time>2026-04-04T08:39:07.999Z</time></trkpt><trkpt lat="42.08518275251527" lon="14.355799660196887"><ele>141.0</ele><time>2026-04-04T08:39:09.999Z</time></trkpt><trkpt lat="42.08528705265304" lon="14.355826997889737"><ele>141.0</ele><time>2026-04-04T08:39:11.998Z</time></trkpt><trkpt lat="42.08539141516188" lon="14.355851054119377"><ele>141.0</ele><time>2026-04-04T08:39:13.998Z</time></trkpt><trkpt lat="42.0854937678397" lon="14.355883788254168"><ele>141.0</ele><time>2026-04-04T08:39:15.998Z</time></trkpt><trkpt lat="42.08559395914975" lon="14.35591297264434"><ele>141.0</ele><time>2026-04-04T08:39:17.998Z</time></trkpt><trkpt lat="42.085691371757015" lon="14.355938418495837"><ele>141.0</ele><time>2026-04-04T08:39:19.998Z</time></trkpt><trkpt lat="42.08578839899556" lon="14.355978409888024"><ele>141.0</ele><time>2026-04-04T08:39:21.998Z</time></trkpt><trkpt lat="42.08588643704851" lon="14.356023539852591"><ele>141.0</ele><time>2026-04-04T08:39:23.998Z</time></trkpt><trkpt lat="42.08598293435962" lon="14.356065956576423"><ele>141.0</ele><time>2026-04-04T08:39:26Z</time></trkpt><trkpt lat="42.08608222488086" lon="14.356111988039164"><ele>139.8</ele><time>2026-04-04T08:39:28Z</time></trkpt><trkpt lat="42.086179330704816" lon="14.356149160811519"><ele>138.6</ele><time>2026-04-04T08:39:30Z</time></trkpt><trkpt lat="42.08627568429359" lon="14.356195100629149"><ele>137.4</ele><time>2026-04-04T08:39:32Z</time></trkpt><trkpt lat="42.08637268807843" lon="14.356225116556958"><ele>136.2</ele><time>2026-04-04T08:39:34Z</time></trkpt><trkpt lat="42.0864699257665" lon="14.356262059840871"><ele>135.0</ele><time>2026-04-04T08:39:36Z</time></trkpt><trkpt lat="42.08657322885275" lon="14.356264948418175"><ele>135.2</ele><time>2026-04-04T08:39:38Z</time></trkpt><trkpt lat="42.08667398335792" lon="14.356241687235718"><ele>135.4</ele><time>2026-04-04T08:39:40Z</time></trkpt><trkpt lat="42.086771293457296" lon="14.356194505931784"><ele>135.6</ele><time>2026-04-04T08:39:42Z</time></trkpt><trkpt lat="42.08686118213257" lon="14.356133752429932"><ele>135.8</ele><time>2026-04-04T08:39:44Z</time></trkpt><trkpt lat="42.086947106864216" lon="14.356064794193356"><ele>136.0</ele><time>2026-04-04T08:39:46Z</time></trkpt><trkpt lat="42.087019328620165" lon="14.355974940290539"><ele>136.0</ele><time>2026-04-04T08:39:48Z</time></trkpt><trkpt lat="42.08710008961536" lon="14.355901759837908"><ele>136.0</ele><time>2026-04-04T08:39:50Z</time></trkpt><trkpt lat="42.0871814815417" lon="14.355834950697497"><ele>136.0</ele><time>2026-04-04T08:39:52Z</time></trkpt><trkpt lat="42.087263285978196" lon="14.35576691153212"><ele>136.0</ele><time>2026-04-04T08:39:54Z</time></trkpt><trkpt lat="42.087343702704565" lon="14.355703095176226"><ele>136.0</ele><time>2026-04-04T08:39:56Z</time></trkpt><trkpt lat="42.08742155785547" lon="14.355656933449966"><ele>138.0</ele><time>2026-04-04T08:39:57.999Z</time></trkpt><trkpt lat="42.087506284667846" lon="14.355594641511749"><ele>140.0</ele><time>2026-04-04T08:39:59.999Z</time></trkpt><trkpt lat="42.08759602841045" lon="14.355558390637787"><ele>142.0</ele><time>2026-04-04T08:40:01.999Z</time></trkpt><trkpt lat="42.087689573326" lon="14.355539680509443"><ele>144.0</ele><time>2026-04-04T08:40:03.999Z</time></trkpt><trkpt lat="42.08777975444525" lon="14.35553010131485"><ele>146.0</ele><time>2026-04-04T08:40:05.999Z</time></trkpt><trkpt lat="42.08786968283025" lon="14.35553510846694"><ele>146.0</ele><time>2026-04-04T08:40:07.999Z</time></trkpt><trkpt lat="42.08796169516442" lon="14.35555623877946"><ele>146.0</ele><time>2026-04-04T08:40:09.999Z</time></trkpt><trkpt lat="42.08805206942858" lon="14.355582454295662"><ele>146.0</ele><time>2026-04-04T08:40:11.999Z</time></trkpt><trkpt lat="42.088143947762845" lon="14.355614354952273"><ele>146.0</ele><time>2026-04-04T08:40:13.999Z</time></trkpt><trkpt lat="42.08823410710417" lon="14.355646468547341"><ele>146.0</ele><time>2026-04-04T08:40:15.999Z</time></trkpt><trkpt lat="42.08832525368032" lon="14.355686360147569"><ele>145.0</ele><time>2026-04-04T08:40:17.999Z</time></trkpt><trkpt lat="42.08840857616213" lon="14.355747629544132"><ele>144.0</ele><time>2026-04-04T08:40:19.999Z</time></trkpt><trkpt lat="42.08848517636293" lon="14.355825205438435"><ele>143.0</ele><time>2026-04-04T08:40:21.999Z</time></trkpt><trkpt lat="42.08855782292737" lon="14.355907356929718"><ele>142.0</ele><time>2026-04-04T08:40:23.999Z</time></trkpt><trkpt lat="42.08862822218931" lon="14.355995170736676"><ele>141.0</ele><time>2026-04-04T08:40:25.999Z</time></trkpt><trkpt lat="42.08870247497654" lon="14.356079387792242"><ele>141.0</ele><time>2026-04-04T08:40:27.999Z</time></trkpt><trkpt lat="42.08876948989351" lon="14.356159096473577"><ele>141.0</ele><time>2026-04-04T08:40:29.999Z</time></trkpt><trkpt lat="42.08883311475974" lon="14.356243223446858"><ele>141.0</ele><time>2026-04-04T08:40:31.999Z</time></trkpt><trkpt lat="42.088897893402" lon="14.356324247782224"><ele>141.0</ele><time>2026-04-04T08:40:33.999Z</time></trkpt><trkpt lat="42.08895726479129" lon="14.356419745309713"><ele>141.0</ele><time>2026-04-04T08:40:35.999Z</time></trkpt><trkpt lat="42.08900780614946" lon="14.356529144090308"><ele>146.0</ele><time>2026-04-04T08:40:37.999Z</time></trkpt><trkpt lat="42.08904469967028" lon="14.356642568419485"><ele>151.0</ele><time>2026-04-04T08:40:39.999Z</time></trkpt><trkpt lat="42.08906756115631" lon="14.356764005155489"><ele>156.0</ele><time>2026-04-04T08:40:41.999Z</time></trkpt><trkpt lat="42.08907770195917" lon="14.356889386983166"><ele>161.0</ele><time>2026-04-04T08:40:43.999Z</time></trkpt><trkpt lat="42.08907936335567" lon="14.357010539662769"><ele>166.0</ele><time>2026-04-04T08:40:45.998Z</time></trkpt><trkpt lat="42.08907144132454" lon="14.357132236673502"><ele>165.66666666666669</ele><time>2026-04-04T08:40:47.998Z</time></trkpt><trkpt lat="42.08906164433475" lon="14.357251353418718"><ele>165.33333333333334</ele><time>2026-04-04T08:40:49.998Z</time></trkpt><trkpt lat="42.08904782397248" lon="14.357367790397332"><ele>165.0</ele><time>2026-04-04T08:40:51.998Z</time></trkpt><trkpt lat="42.089036155567086" lon="14.35748143233483"><ele>164.66666666666666</ele><time>2026-04-04T08:40:53.998Z</time></trkpt><trkpt lat="42.089038235457366" lon="14.357604042262114"><ele>164.33333333333331</ele><time>2026-04-04T08:40:55.998Z</time></trkpt><trkpt lat="42.08906761126799" lon="14.357722577330616"><ele>164.0</ele><time>2026-04-04T08:40:57.998Z</time></trkpt><trkpt lat="42.089102130038306" lon="14.3578381742389"><ele>159.6</ele><time>2026-04-04T08:40:59.998Z</time></trkpt><trkpt lat="42.08914619635722" lon="14.357948983458334"><ele>155.2</ele><time>2026-04-04T08:41:01.998Z</time></trkpt><trkpt lat="42.089194459523725" lon="14.35805580893768"><ele>150.79999999999998</ele><time>2026-04-04T08:41:03.998Z</time></trkpt><trkpt lat="42.08924001278122" lon="14.358173221077324"><ele>146.39999999999998</ele><time>2026-04-04T08:41:05.998Z</time></trkpt><trkpt lat="42.089287428751504" lon="14.358287592690992"><ele>142.0</ele><time>2026-04-04T08:41:07.998Z</time></trkpt><trkpt lat="42.08933099385333" lon="14.35839768954173"><ele>142.0</ele><time>2026-04-04T08:41:09.998Z</time></trkpt><trkpt lat="42.08937481395607" lon="14.35850356055816"><ele>142.0</ele><time>2026-04-04T08:41:11.998Z</time></trkpt><trkpt lat="42.08941917849911" lon="14.358609590448514"><ele>142.0</ele><time>2026-04-04T08:41:13.998Z</time></trkpt><trkpt lat="42.08946634311051" lon="14.358718498866674"><ele>142.0</ele><time>2026-04-04T08:41:15.998Z</time></trkpt><trkpt lat="42.08951151094462" lon="14.358837040037969"><ele>142.0</ele><time>2026-04-04T08:41:17.998Z</time></trkpt><trkpt lat="42.089559736813555" lon="14.358958843182682"><ele>143.4</ele><time>2026-04-04T08:41:19.998Z</time></trkpt><trkpt lat="42.089614344394846" lon="14.359089274773229"><ele>144.79999999999998</ele><time>2026-04-04T08:41:21.998Z</time></trkpt><trkpt lat="42.08967056322371" lon="14.359230454228229"><ele>146.2</ele><time>2026-04-04T08:41:23.998Z</time></trkpt><trkpt lat="42.0897266546621" lon="14.359364032014685"><ele>147.6</ele><time>2026-04-04T08:41:25.998Z</time></trkpt><trkpt lat="42.0897834049757" lon="14.35947907238266"><ele>149.0</ele><time>2026-04-04T08:41:27.998Z</time></trkpt><trkpt lat="42.08983723848488" lon="14.359585644181792"><ele>149.0</ele><time>2026-04-04T08:41:29.998Z</time></trkpt><trkpt lat="42.08990449890034" lon="14.359664809895632"><ele>149.0</ele><time>2026-04-04T08:41:32Z</time></trkpt><trkpt lat="42.08995848035037" lon="14.359750928188971"><ele>149.0</ele><time>2026-04-04T08:41:34Z</time></trkpt><trkpt lat="42.090018597597236" lon="14.35982362833466"><ele>149.0</ele><time>2026-04-04T08:41:36Z</time></trkpt><trkpt lat="42.090072422715366" lon="14.359881910085829"><ele>149.0</ele><time>2026-04-04T08:41:38Z</time></trkpt><trkpt lat="42.09013599840147" lon="14.359965233448273"><ele>149.0</ele><time>2026-04-04T08:41:41Z</time></trkpt><trkpt lat="42.09019207426134" lon="14.360041332062577"><ele>147.14285714285714</ele><time>2026-04-04T08:41:44Z</time></trkpt><trkpt lat="42.090260610426355" lon="14.360129743030726"><ele>145.28571428571428</ele><time>2026-04-04T08:41:47Z</time></trkpt><trkpt lat="42.09030622467512" lon="14.360193480681769"><ele>143.42857142857142</ele><time>2026-04-04T08:41:49Z</time></trkpt><trkpt lat="42.090357452342154" lon="14.360255265023877"><ele>141.57142857142856</ele><time>2026-04-04T08:41:51Z</time></trkpt><trkpt lat="42.090406464085156" lon="14.360321499878268"><ele>139.71428571428572</ele><time>2026-04-04T08:41:53Z</time></trkpt><trkpt lat="42.09039576950993" lon="14.360409757404845"><ele>137.85714285714283</ele><time>2026-04-04T08:41:56Z</time></trkpt><trkpt lat="42.090441620522355" lon="14.360330102461589"><ele>136.0</ele><time>2026-04-04T08:42:03Z</time></trkpt><trkpt lat="42.09039219103537" lon="14.360240672045586"><ele>136.0</ele><time>2026-04-04T08:42:06Z</time></trkpt><trkpt lat="42.0903303074051" lon="14.360161269814174"><ele>136.0</ele><time>2026-04-04T08:42:09Z</time></trkpt><trkpt lat="42.09028198254437" lon="14.36009715111721"><ele>136.0</ele><time>2026-04-04T08:42:11Z</time></trkpt><trkpt lat="42.09022803462252" lon="14.360023942002602"><ele>136.0</ele><time>2026-04-04T08:42:13Z</time></trkpt><trkpt lat="42.09016961630159" lon="14.359953389050416"><ele>136.0</ele><time>2026-04-04T08:42:15Z</time></trkpt><trkpt lat="42.09011413675692" lon="14.359879364597102"><ele>136.0</ele><time>2026-04-04T08:42:17Z</time></trkpt><trkpt lat="42.09005885570415" lon="14.359805859336687"><ele>136.0</ele><time>2026-04-04T08:42:19Z</time></trkpt><trkpt lat="42.09000274241726" lon="14.359738478816768"><ele>136.0</ele><time>2026-04-04T08:42:21Z</time></trkpt><trkpt lat="42.089951028557074" lon="14.359667644875445"><ele>136.0</ele><time>2026-04-04T08:42:22.999Z</time></trkpt><trkpt lat="42.089897363216416" lon="14.359593169411164"><ele>136.0</ele><time>2026-04-04T08:42:24.999Z</time></trkpt><trkpt lat="42.08984750752702" lon="14.35951138123347"><ele>136.0</ele><time>2026-04-04T08:42:26.999Z</time></trkpt><trkpt lat="42.08980287148283" lon="14.359430525601036"><ele>136.0</ele><time>2026-04-04T08:42:28.999Z</time></trkpt><trkpt lat="42.089766572056504" lon="14.359345677871508"><ele>137.85714285714283</ele><time>2026-04-04T08:42:30.999Z</time></trkpt><trkpt lat="42.08973184316408" lon="14.359257604820556"><ele>139.71428571428572</ele><time>2026-04-04T08:42:32.999Z</time></trkpt><trkpt lat="42.08969502582498" lon="14.35917009612266"><ele>141.57142857142856</ele><time>2026-04-04T08:42:34.999Z</time></trkpt><trkpt lat="42.08966132253056" lon="14.359088201606912"><ele>143.42857142857142</ele><time>2026-04-04T08:42:36.999Z</time></trkpt><trkpt lat="42.08963094884302" lon="14.359008583832525"><ele>145.28571428571428</ele><time>2026-04-04T08:42:38.999Z</time></trkpt><trkpt lat="42.08959296995398" lon="14.358905602451419"><ele>147.14285714285714</ele><time>2026-04-04T08:42:41.999Z</time></trkpt><trkpt lat="42.0896600602164" lon="14.358909477958605"><ele>149.0</ele><time>2026-04-04T08:42:45.999Z</time></trkpt><trkpt lat="42.08974277447499" lon="14.358956674190303"><ele>149.0</ele><time>2026-04-04T08:42:48.999Z</time></trkpt><trkpt lat="42.08981467811246" lon="14.35901345673656"><ele>149.0</ele><time>2026-04-04T08:42:50.999Z</time></trkpt><trkpt lat="42.08990579983194" lon="14.35908129451664"><ele>149.0</ele><time>2026-04-04T08:42:52.999Z</time></trkpt><trkpt lat="42.09001217514738" lon="14.359170793678704"><ele>149.0</ele><time>2026-04-04T08:42:54.999Z</time></trkpt><trkpt lat="42.09006582223734" lon="14.359227755085275"><ele>149.0</ele><time>2026-04-04T08:42:55.999Z</time></trkpt><trkpt lat="42.09012519550404" lon="14.359270207418788"><ele>149.0</ele><time>2026-04-04T08:42:56.999Z</time></trkpt><trkpt lat="42.09019003646189" lon="14.359293814229884"><ele>146.33333333333331</ele><time>2026-04-04T08:42:57.999Z</time></trkpt><trkpt lat="42.0902565868276" lon="14.359312490359248"><ele>143.66666666666666</ele><time>2026-04-04T08:42:58.999Z</time></trkpt><trkpt lat="42.09032094405147" lon="14.35932695903363"><ele>141.0</ele><time>2026-04-04T08:42:59.999Z</time></trkpt><trkpt lat="42.09038219584801" lon="14.359347550248765"><ele>138.33333333333334</ele><time>2026-04-04T08:43:00.999Z</time></trkpt><trkpt lat="42.09049274663004" lon="14.359406172675303"><ele>135.66666666666669</ele><time>2026-04-04T08:43:02.999Z</time></trkpt><trkpt lat="42.09059160743377" lon="14.35948207575192"><ele>133.0</ele><time>2026-04-04T08:43:04.999Z</time></trkpt><trkpt lat="42.09068428036857" lon="14.359552097540991"><ele>132.0</ele><time>2026-04-04T08:43:06.999Z</time></trkpt><trkpt lat="42.09075882146549" lon="14.359611256074357"><ele>131.0</ele><time>2026-04-04T08:43:08.999Z</time></trkpt><trkpt lat="42.09082736841285" lon="14.359578963839132"><ele>130.0</ele><time>2026-04-04T08:43:10.999Z</time></trkpt><trkpt lat="42.09084791882393" lon="14.359471370727876"><ele>129.0</ele><time>2026-04-04T08:43:13.999Z</time></trkpt><trkpt lat="42.09093058534606" lon="14.35947506439806"><ele>128.0</ele><time>2026-04-04T08:43:15.999Z</time></trkpt><trkpt lat="42.090998237677745" lon="14.359520397028206"><ele>127.0</ele><time>2026-04-04T08:43:17.999Z</time></trkpt><trkpt lat="42.091057782921304" lon="14.359572586765143"><ele>127.0</ele><time>2026-04-04T08:43:19.999Z</time></trkpt><trkpt lat="42.09112123958232" lon="14.359628103506028"><ele>126.99999999999999</ele><time>2026-04-04T08:43:21.998Z</time></trkpt><trkpt lat="42.0912001394046" lon="14.359685853581068"><ele>126.99999999999999</ele><time>2026-04-04T08:43:23.998Z</time></trkpt><trkpt lat="42.0913008992149" lon="14.35974125153349"><ele>127.0</ele><time>2026-04-04T08:43:25.998Z</time></trkpt><trkpt lat="42.091387361541415" lon="14.359801726618263"><ele>127.0</ele><time>2026-04-04T08:43:27.998Z</time></trkpt><trkpt lat="42.09147726819333" lon="14.359842950442468"><ele>126.39999999999999</ele><time>2026-04-04T08:43:29.998Z</time></trkpt><trkpt lat="42.091566439433585" lon="14.359872403169378"><ele>125.79999999999998</ele><time>2026-04-04T08:43:31.998Z</time></trkpt><trkpt lat="42.09167417838263" lon="14.35986997042726"><ele>125.2</ele><time>2026-04-04T08:43:33.998Z</time></trkpt><trkpt lat="42.091783199146526" lon="14.35984561432953"><ele>124.6</ele><time>2026-04-04T08:43:35.998Z</time></trkpt><trkpt lat="42.09189461366724" lon="14.359824937721989"><ele>124.0</ele><time>2026-04-04T08:43:38Z</time></trkpt><trkpt lat="42.091990772604134" lon="14.359818200152105"><ele>124.0</ele><time>2026-04-04T08:43:40Z</time></trkpt><trkpt lat="42.09209178196498" lon="14.359832735539753"><ele>124.0</ele><time>2026-04-04T08:43:42Z</time></trkpt><trkpt lat="42.09217904895996" lon="14.35991069473079"><ele>124.0</ele><time>2026-04-04T08:43:44Z</time></trkpt><trkpt lat="42.09225157917098" lon="14.360013109301665"><ele>124.0</ele><time>2026-04-04T08:43:46Z</time></trkpt><trkpt lat="42.09231952539262" lon="14.360119292952684"><ele>124.0</ele><time>2026-04-04T08:43:48Z</time></trkpt><trkpt lat="42.09237865897021" lon="14.36022879948017"><ele>123.4</ele><time>2026-04-04T08:43:50Z</time></trkpt><trkpt lat="42.092433213676856" lon="14.360349061925186"><ele>122.80000000000001</ele><time>2026-04-04T08:43:52Z</time></trkpt><trkpt lat="42.09248407672988" lon="14.360478120321533"><ele>122.19999999999999</ele><time>2026-04-04T08:43:54Z</time></trkpt><trkpt lat="42.092523805703195" lon="14.360612597931603"><ele>121.6</ele><time>2026-04-04T08:43:56Z</time></trkpt><trkpt lat="42.09256442678463" lon="14.360735129551962"><ele>121.0</ele><time>2026-04-04T08:43:58Z</time></trkpt><trkpt lat="42.092596860319254" lon="14.36083693292726"><ele>121.00000000000001</ele><time>2026-04-04T08:44:01Z</time></trkpt><trkpt lat="42.092647419487214" lon="14.36097161735472"><ele>121.0</ele><time>2026-04-04T08:44:02Z</time></trkpt><trkpt lat="42.0926927081992" lon="14.361086039214102"><ele>121.0</ele><time>2026-04-04T08:44:04Z</time></trkpt><trkpt lat="42.092728541073576" lon="14.361182909072566"><ele>121.0</ele><time>2026-04-04T08:44:07Z</time></trkpt><trkpt lat="42.09275217153061" lon="14.361273370053558"><ele>121.00000000000001</ele><time>2026-04-04T08:44:09Z</time></trkpt><trkpt lat="42.09277981568592" lon="14.361380088315759"><ele>121.0</ele><time>2026-04-04T08:44:11Z</time></trkpt><trkpt lat="42.09280682557719" lon="14.3614982840538"><ele>121.4</ele><time>2026-04-04T08:44:13Z</time></trkpt><trkpt lat="42.09284139371323" lon="14.361613508473967"><ele>121.8</ele><time>2026-04-04T08:44:15Z</time></trkpt><trkpt lat="42.09286470128873" lon="14.361738801297202"><ele>122.20000000000002</ele><time>2026-04-04T08:44:17Z</time></trkpt><trkpt lat="42.09289422429603" lon="14.361857991956372"><ele>122.60000000000001</ele><time>2026-04-04T08:44:19Z</time></trkpt><trkpt lat="42.09293538723985" lon="14.361976146746851"><ele>123.0</ele><time>2026-04-04T08:44:21Z</time></trkpt><trkpt lat="42.09297212422331" lon="14.362116249143886"><ele>124.5</ele><time>2026-04-04T08:44:23Z</time></trkpt><trkpt lat="42.09299780096087" lon="14.362237221193743"><ele>126.0</ele><time>2026-04-04T08:44:24.999Z</time></trkpt><trkpt lat="42.09303333654311" lon="14.362353542568496"><ele>127.5</ele><time>2026-04-04T08:44:26.999Z</time></trkpt><trkpt lat="42.09306425770827" lon="14.362467588533534"><ele>129.0</ele><time>2026-04-04T08:44:28.999Z</time></trkpt><trkpt lat="42.09310718105829" lon="14.362545944841482"><ele>130.5</ele><time>2026-04-04T08:44:30.999Z</time></trkpt><trkpt lat="42.09314184657473" lon="14.362625614795077"><ele>132.0</ele><time>2026-04-04T08:44:32.999Z</time></trkpt><trkpt lat="42.09318366333535" lon="14.36270503131931"><ele>132.0</ele><time>2026-04-04T08:44:34.999Z</time></trkpt><trkpt lat="42.093228212307736" lon="14.362801149756942"><ele>132.0</ele><time>2026-04-04T08:44:36.999Z</time></trkpt><trkpt lat="42.093279178899685" lon="14.362892823652363"><ele>132.0</ele><time>2026-04-04T08:44:38.999Z</time></trkpt><trkpt lat="42.09333524039705" lon="14.362978077030261"><ele>132.0</ele><time>2026-04-04T08:44:40.999Z</time></trkpt><trkpt lat="42.093385022485926" lon="14.363068849142861"><ele>132.0</ele><time>2026-04-04T08:44:42.999Z</time></trkpt><trkpt lat="42.09343918961762" lon="14.363162749998585"><ele>132.0</ele><time>2026-04-04T08:44:44.999Z</time></trkpt><trkpt lat="42.09349941143598" lon="14.363249848730515"><ele>130.6</ele><time>2026-04-04T08:44:46.999Z</time></trkpt><trkpt lat="42.09357549010515" lon="14.363317465889118"><ele>129.2</ele><time>2026-04-04T08:44:48.999Z</time></trkpt><trkpt lat="42.09366439052865" lon="14.363364587926123"><ele>127.8</ele><time>2026-04-04T08:44:50.999Z</time></trkpt><trkpt lat="42.093760134167105" lon="14.363406884233743"><ele>126.4</ele><time>2026-04-04T08:44:52.999Z</time></trkpt><trkpt lat="42.09385449751045" lon="14.363454788211522"><ele>125.0</ele><time>2026-04-04T08:44:54.999Z</time></trkpt><trkpt lat="42.09395469966476" lon="14.363480549949504"><ele>124.99999999999999</ele><time>2026-04-04T08:44:56.999Z</time></trkpt><trkpt lat="42.09404815808248" lon="14.363505500480102"><ele>125.0</ele><time>2026-04-04T08:44:58.999Z</time></trkpt><trkpt lat="42.0941289420566" lon="14.363513905875402"><ele>125.0</ele><time>2026-04-04T08:45:01.999Z</time></trkpt><trkpt lat="42.09419509257129" lon="14.363526491610417"><ele>125.0</ele><time>2026-04-04T08:45:02.999Z</time></trkpt><trkpt lat="42.094268447271105" lon="14.363553490913352"><ele>124.99999999999999</ele><time>2026-04-04T08:45:04.999Z</time></trkpt><trkpt lat="42.094327802622914" lon="14.363620416055594"><ele>125.0</ele><time>2026-04-04T08:45:06.999Z</time></trkpt><trkpt lat="42.09440283207036" lon="14.363643431486688"><ele>123.99999999999999</ele><time>2026-04-04T08:45:08.999Z</time></trkpt><trkpt lat="42.09447107088405" lon="14.363664963922085"><ele>123.0</ele><time>2026-04-04T08:45:10.999Z</time></trkpt><trkpt lat="42.09454440646243" lon="14.363667582306297"><ele>122.0</ele><time>2026-04-04T08:45:12.999Z</time></trkpt><trkpt lat="42.094621423203385" lon="14.363691426770805"><ele>121.0</ele><time>2026-04-04T08:45:14.999Z</time></trkpt><trkpt lat="42.09469953754203" lon="14.363716115445728"><ele>119.99999999999999</ele><time>2026-04-04T08:45:16.999Z</time></trkpt><trkpt lat="42.09477344337511" lon="14.363760754880479"><ele>119.0</ele><time>2026-04-04T08:45:18.999Z</time></trkpt><trkpt lat="42.09484511742122" lon="14.363814672709111"><ele>119.33333333333333</ele><time>2026-04-04T08:45:20.998Z</time></trkpt><trkpt lat="42.094915310033706" lon="14.363892093838025"><ele>119.66666666666666</ele><time>2026-04-04T08:45:22.998Z</time></trkpt><trkpt lat="42.094968588460915" lon="14.36397571014896"><ele>120.0</ele><time>2026-04-04T08:45:24.998Z</time></trkpt><trkpt lat="42.09501140747685" lon="14.364057213609845"><ele>120.33333333333334</ele><time>2026-04-04T08:45:26.998Z</time></trkpt><trkpt lat="42.09505396203324" lon="14.364141676997992"><ele>120.66666666666667</ele><time>2026-04-04T08:45:28.998Z</time></trkpt><trkpt lat="42.09509352074458" lon="14.364224842214426"><ele>121.0</ele><time>2026-04-04T08:45:30.998Z</time></trkpt><trkpt lat="42.09513042512097" lon="14.364295496990623"><ele>121.00000000000001</ele><time>2026-04-04T08:45:32.998Z</time></trkpt><trkpt lat="42.095170249463045" lon="14.364371839517958"><ele>121.0</ele><time>2026-04-04T08:45:34.998Z</time></trkpt><trkpt lat="42.09522936603199" lon="14.364471478860676"><ele>121.0</ele><time>2026-04-04T08:45:37.998Z</time></trkpt><trkpt lat="42.095266106903026" lon="14.364543621951826"><ele>121.0</ele><time>2026-04-04T08:45:39.998Z</time></trkpt><trkpt lat="42.095326930511945" lon="14.36463937882506"><ele>121.00000000000001</ele><time>2026-04-04T08:45:43Z</time></trkpt><trkpt lat="42.09537074699609" lon="14.36470789101581"><ele>121.0</ele><time>2026-04-04T08:45:45Z</time></trkpt><trkpt lat="42.09541773240368" lon="14.364783074602512"><ele>121.33333333333334</ele><time>2026-04-04T08:45:47Z</time></trkpt><trkpt lat="42.09547148914987" lon="14.36487254548479"><ele>121.66666666666667</ele><time>2026-04-04T08:45:49Z</time></trkpt><trkpt lat="42.09552471041908" lon="14.364957083325246"><ele>122.0</ele><time>2026-04-04T08:45:52Z</time></trkpt><trkpt lat="42.09556350198555" lon="14.365027965826282"><ele>122.33333333333334</ele><time>2026-04-04T08:45:57Z</time></trkpt><trkpt lat="42.095607014532" lon="14.365123879692375"><ele>122.66666666666667</ele><time>2026-04-04T08:46:02Z</time></trkpt><trkpt lat="42.09563370903609" lon="14.365201776029771"><ele>123.0</ele><time>2026-04-04T08:46:04Z</time></trkpt><trkpt lat="42.09567198546041" lon="14.365289563560214"><ele>123.0</ele><time>2026-04-04T08:46:06Z</time></trkpt><trkpt lat="42.09572602111918" lon="14.365381647818815"><ele>123.00000000000001</ele><time>2026-04-04T08:46:08Z</time></trkpt><trkpt lat="42.09578738544685" lon="14.365486591378843"><ele>123.00000000000001</ele><time>2026-04-04T08:46:10Z</time></trkpt><trkpt lat="42.09586084296897" lon="14.365588578098269"><ele>123.0</ele><time>2026-04-04T08:46:12Z</time></trkpt><trkpt lat="42.09593376735875" lon="14.365694229495423"><ele>123.0</ele><time>2026-04-04T08:46:14Z</time></trkpt><trkpt lat="42.096013296909796" lon="14.365774533651843"><ele>122.2</ele><time>2026-04-04T08:46:16Z</time></trkpt><trkpt lat="42.09609868701369" lon="14.365864048418622"><ele>121.4</ele><time>2026-04-04T08:46:18Z</time></trkpt><trkpt lat="42.09617936483679" lon="14.365945439349394"><ele>120.60000000000001</ele><time>2026-04-04T08:46:20Z</time></trkpt><trkpt lat="42.09625303033501" lon="14.366020229201737"><ele>119.80000000000001</ele><time>2026-04-04T08:46:22Z</time></trkpt><trkpt lat="42.09632878243744" lon="14.366089675133667"><ele>119.0</ele><time>2026-04-04T08:46:24Z</time></trkpt><trkpt lat="42.096405419069136" lon="14.366156492283707"><ele>118.99999999999999</ele><time>2026-04-04T08:46:25.999Z</time></trkpt><trkpt lat="42.096485078351336" lon="14.366214846749886"><ele>119.0</ele><time>2026-04-04T08:46:27.999Z</time></trkpt><trkpt lat="42.096572500120764" lon="14.366242081414084"><ele>119.0</ele><time>2026-04-04T08:46:29.999Z</time></trkpt><trkpt lat="42.09665735168612" lon="14.366252448695773"><ele>119.0</ele><time>2026-04-04T08:46:31.999Z</time></trkpt><trkpt lat="42.0967325362849" lon="14.366241257647953"><ele>118.99999999999999</ele><time>2026-04-04T08:46:33.999Z</time></trkpt><trkpt lat="42.09681547371259" lon="14.366235839947162"><ele>119.0</ele><time>2026-04-04T08:46:36.999Z</time></trkpt><trkpt lat="42.09687950473993" lon="14.366225929049259"><ele>118.99999999999999</ele><time>2026-04-04T08:46:41.999Z</time></trkpt><trkpt lat="42.096948700619016" lon="14.366219388354319"><ele>119.0</ele><time>2026-04-04T08:46:45.999Z</time></trkpt><trkpt lat="42.09701490945835" lon="14.366235736097545"><ele>119.0</ele><time>2026-04-04T08:46:47.999Z</time></trkpt><trkpt lat="42.09708871509271" lon="14.366247467652913"><ele>119.0</ele><time>2026-04-04T08:46:49.999Z</time></trkpt><trkpt lat="42.09716899528152" lon="14.366287836543671"><ele>118.99999999999999</ele><time>2026-04-04T08:46:51.999Z</time></trkpt><trkpt lat="42.097258669555515" lon="14.366328539209492"><ele>119.0</ele><time>2026-04-04T08:46:53.999Z</time></trkpt><trkpt lat="42.09735395689993" lon="14.366372489382291"><ele>118.0</ele><time>2026-04-04T08:46:55.999Z</time></trkpt><trkpt lat="42.09745473886865" lon="14.366433631571454"><ele>117.0</ele><time>2026-04-04T08:46:57.999Z</time></trkpt><trkpt lat="42.09755721592118" lon="14.366496351770317"><ele>116.0</ele><time>2026-04-04T08:46:59.999Z</time></trkpt><trkpt lat="42.09765111050225" lon="14.366566882654196"><ele>115.0</ele><time>2026-04-04T08:47:01.999Z</time></trkpt><trkpt lat="42.09773966069786" lon="14.36663944010168"><ele>114.0</ele><time>2026-04-04T08:47:03.999Z</time></trkpt><trkpt lat="42.09783535858609" lon="14.366697706656328"><ele>114.0</ele><time>2026-04-04T08:47:05.999Z</time></trkpt><trkpt lat="42.09792573834266" lon="14.366756014401545"><ele>114.0</ele><time>2026-04-04T08:47:07.999Z</time></trkpt><trkpt lat="42.09801310220787" lon="14.366813647107207"><ele>114.0</ele><time>2026-04-04T08:47:09.999Z</time></trkpt><trkpt lat="42.098102114230024" lon="14.366873589781955"><ele>114.0</ele><time>2026-04-04T08:47:11.999Z</time></trkpt><trkpt lat="42.09818743775642" lon="14.366945706433874"><ele>114.0</ele><time>2026-04-04T08:47:13.999Z</time></trkpt><trkpt lat="42.09827845768767" lon="14.367008288405659"><ele>114.2</ele><time>2026-04-04T08:47:15.999Z</time></trkpt><trkpt lat="42.09837287322496" lon="14.367067275307924"><ele>114.4</ele><time>2026-04-04T08:47:17.999Z</time></trkpt><trkpt lat="42.09846858121062" lon="14.367125554650688"><ele>114.6</ele><time>2026-04-04T08:47:19.999Z</time></trkpt><trkpt lat="42.09856152052516" lon="14.367183830553326"><ele>114.8</ele><time>2026-04-04T08:47:21.998Z</time></trkpt><trkpt lat="42.09864902684024" lon="14.367239310823155"><ele>115.0</ele><time>2026-04-04T08:47:23.998Z</time></trkpt><trkpt lat="42.09874201637157" lon="14.367303316063248"><ele>115.0</ele><time>2026-04-04T08:47:25.998Z</time></trkpt><trkpt lat="42.09883717489144" lon="14.367361775614693"><ele>115.0</ele><time>2026-04-04T08:47:27.998Z</time></trkpt><trkpt lat="42.09893085597007" lon="14.367423460999294"><ele>115.0</ele><time>2026-04-04T08:47:29.998Z</time></trkpt><trkpt lat="42.0990196593116" lon="14.367493346026848"><ele>115.0</ele><time>2026-04-04T08:47:31.998Z</time></trkpt><trkpt lat="42.09911135499648" lon="14.3675608280783"><ele>115.0</ele><time>2026-04-04T08:47:33.998Z</time></trkpt><trkpt lat="42.099202689391795" lon="14.367619860670748"><ele>114.2</ele><time>2026-04-04T08:47:35.998Z</time></trkpt><trkpt lat="42.09929628600237" lon="14.367671921744773"><ele>113.4</ele><time>2026-04-04T08:47:37.998Z</time></trkpt><trkpt lat="42.09938365432751" lon="14.367714351166846"><ele>112.6</ele><time>2026-04-04T08:47:39.998Z</time></trkpt><trkpt lat="42.099474095685466" lon="14.367737096327039"><ele>111.8</ele><time>2026-04-04T08:47:41.998Z</time></trkpt><trkpt lat="42.09955915195226" lon="14.36775745527977"><ele>111.0</ele><time>2026-04-04T08:47:43.998Z</time></trkpt><trkpt lat="42.09964323899302" lon="14.367780864741242"><ele>111.0</ele><time>2026-04-04T08:47:45.998Z</time></trkpt><trkpt lat="42.09972927398871" lon="14.367796831396026"><ele>111.0</ele><time>2026-04-04T08:47:47.998Z</time></trkpt><trkpt lat="42.09981264950232" lon="14.36780526509"><ele>111.0</ele><time>2026-04-04T08:47:50Z</time></trkpt><trkpt lat="42.099897946133154" lon="14.367805956112166"><ele>111.0</ele><time>2026-04-04T08:47:52Z</time></trkpt><trkpt lat="42.09998618626453" lon="14.36780050114598"><ele>111.0</ele><time>2026-04-04T08:47:54Z</time></trkpt><trkpt lat="42.10007675719324" lon="14.367797177122448"><ele>111.0</ele><time>2026-04-04T08:47:56Z</time></trkpt><trkpt lat="42.100169407927176" lon="14.367802299615867"><ele>110.66666666666667</ele><time>2026-04-04T08:47:58Z</time></trkpt><trkpt lat="42.1002559820944" lon="14.367821864698842"><ele>110.33333333333334</ele><time>2026-04-04T08:48:00Z</time></trkpt><trkpt lat="42.10033818485145" lon="14.367844906152149"><ele>110.0</ele><time>2026-04-04T08:48:02Z</time></trkpt><trkpt lat="42.10041939431257" lon="14.367895413766405"><ele>109.66666666666667</ele><time>2026-04-04T08:48:04Z</time></trkpt><trkpt lat="42.10050289211161" lon="14.367933032799076"><ele>109.33333333333334</ele><time>2026-04-04T08:48:06Z</time></trkpt><trkpt lat="42.10059125139492" lon="14.36797774806701"><ele>109.0</ele><time>2026-04-04T08:48:08Z</time></trkpt><trkpt lat="42.1006783748282" lon="14.368024825866796"><ele>109.0</ele><time>2026-04-04T08:48:10Z</time></trkpt><trkpt lat="42.100762109217754" lon="14.368074228179076"><ele>109.0</ele><time>2026-04-04T08:48:12Z</time></trkpt><trkpt lat="42.10084298427355" lon="14.368127316111474"><ele>109.0</ele><time>2026-04-04T08:48:14Z</time></trkpt><trkpt lat="42.10092223823231" lon="14.368181538172745"><ele>109.0</ele><time>2026-04-04T08:48:16Z</time></trkpt><trkpt lat="42.101003140383334" lon="14.368244689624795"><ele>109.0</ele><time>2026-04-04T08:48:18Z</time></trkpt><trkpt lat="42.101085488754016" lon="14.368309900769315"><ele>109.00000000000001</ele><time>2026-04-04T08:48:20Z</time></trkpt><trkpt lat="42.101163849680574" lon="14.368379232360306"><ele>109.0</ele><time>2026-04-04T08:48:22Z</time></trkpt><trkpt lat="42.10124057351054" lon="14.368450979686552"><ele>109.0</ele><time>2026-04-04T08:48:24Z</time></trkpt><trkpt lat="42.10131639398278" lon="14.368506936349142"><ele>109.0</ele><time>2026-04-04T08:48:26Z</time></trkpt><trkpt lat="42.101387135041534" lon="14.368555354756861"><ele>109.00000000000001</ele><time>2026-04-04T08:48:28Z</time></trkpt><trkpt lat="42.10145576261011" lon="14.368607764054993"><ele>109.0</ele><time>2026-04-04T08:48:29.999Z</time></trkpt><trkpt lat="42.10151972601213" lon="14.368650916168367"><ele>109.0</ele><time>2026-04-04T08:48:31.999Z</time></trkpt><trkpt lat="42.10157251633559" lon="14.368705310670434"><ele>109.0</ele><time>2026-04-04T08:48:33.999Z</time></trkpt><trkpt lat="42.10162603720625" lon="14.368767637771642"><ele>109.0</ele><time>2026-04-04T08:48:35.999Z</time></trkpt><trkpt lat="42.10166846693823" lon="14.368832526619718"><ele>109.0</ele><time>2026-04-04T08:48:37.999Z</time></trkpt><trkpt lat="42.10172739541621" lon="14.368863548984795"><ele>109.0</ele><time>2026-04-04T08:48:39.999Z</time></trkpt><trkpt lat="42.10179526743444" lon="14.368892152844499"><ele>109.0</ele><time>2026-04-04T08:48:41.999Z</time></trkpt><trkpt lat="42.101864911745956" lon="14.368956128939995"><ele>109.0</ele><time>2026-04-04T08:48:43.999Z</time></trkpt><trkpt lat="42.101940546354605" lon="14.369018939446457"><ele>109.0</ele><time>2026-04-04T08:48:45.999Z</time></trkpt><trkpt lat="42.102019191959464" lon="14.369082508529317"><ele>109.0</ele><time>2026-04-04T08:48:47.999Z</time></trkpt><trkpt lat="42.10210482458641" lon="14.369135830580799"><ele>109.0</ele><time>2026-04-04T08:48:49.999Z</time></trkpt><trkpt lat="42.10219874211412" lon="14.369174133407569"><ele>109.0</ele><time>2026-04-04T08:48:51.999Z</time></trkpt><trkpt lat="42.10229772074631" lon="14.369205294737357"><ele>109.0</ele><time>2026-04-04T08:48:53.999Z</time></trkpt><trkpt lat="42.10239195045613" lon="14.369238803436966"><ele>109.0</ele><time>2026-04-04T08:48:55.999Z</time></trkpt><trkpt lat="42.10248712095161" lon="14.369269853416384"><ele>109.0</ele><time>2026-04-04T08:48:57.999Z</time></trkpt><trkpt lat="42.102578818631116" lon="14.369300938094339"><ele>109.0</ele><time>2026-04-04T08:48:59.999Z</time></trkpt><trkpt lat="42.10267058041383" lon="14.369334240852165"><ele>109.0</ele><time>2026-04-04T08:49:01.999Z</time></trkpt><trkpt lat="42.1027661764055" lon="14.369371020955555"><ele>109.0</ele><time>2026-04-04T08:49:03.999Z</time></trkpt><trkpt lat="42.10286405314618" lon="14.369403641819265"><ele>109.0</ele><time>2026-04-04T08:49:05.999Z</time></trkpt><trkpt lat="42.102955039679365" lon="14.369436807284378"><ele>109.0</ele><time>2026-04-04T08:49:07.999Z</time></trkpt><trkpt lat="42.10304800422839" lon="14.369471072173651"><ele>109.0</ele><time>2026-04-04T08:49:09.999Z</time></trkpt><trkpt lat="42.103145129568034" lon="14.369505726026457"><ele>109.0</ele><time>2026-04-04T08:49:11.999Z</time></trkpt><trkpt lat="42.10324567651154" lon="14.369533074474614"><ele>109.0</ele><time>2026-04-04T08:49:13.999Z</time></trkpt><trkpt lat="42.103346432804024" lon="14.369562226518012"><ele>108.83333333333334</ele><time>2026-04-04T08:49:15.999Z</time></trkpt><trkpt lat="42.10344231902936" lon="14.369592528413966"><ele>108.66666666666667</ele><time>2026-04-04T08:49:17.999Z</time></trkpt><trkpt lat="42.103535339987566" lon="14.36961818416833"><ele>108.5</ele><time>2026-04-04T08:49:19.999Z</time></trkpt><trkpt lat="42.1036168999922" lon="14.369645902208172"><ele>108.33333333333334</ele><time>2026-04-04T08:49:21.999Z</time></trkpt><trkpt lat="42.10369235462452" lon="14.369652526290196"><ele>108.16666666666667</ele><time>2026-04-04T08:49:23.998Z</time></trkpt><trkpt lat="42.103743284465544" lon="14.369712102295658"><ele>108.0</ele><time>2026-04-04T08:49:25.998Z</time></trkpt><trkpt lat="42.10383368722179" lon="14.369746181550015"><ele>107.83333333333333</ele><time>2026-04-04T08:49:28.998Z</time></trkpt><trkpt lat="42.10390673295336" lon="14.369769083299433"><ele>107.66666666666666</ele><time>2026-04-04T08:49:30.998Z</time></trkpt><trkpt lat="42.10397988669059" lon="14.369789397624011"><ele>107.5</ele><time>2026-04-04T08:49:32.998Z</time></trkpt><trkpt lat="42.10405575065454" lon="14.369811089889346"><ele>107.33333333333333</ele><time>2026-04-04T08:49:34.998Z</time></trkpt><trkpt lat="42.10413124887143" lon="14.3698319786759"><ele>107.16666666666666</ele><time>2026-04-04T08:49:36.998Z</time></trkpt><trkpt lat="42.104207278249724" lon="14.369864122178708"><ele>107.0</ele><time>2026-04-04T08:49:38.998Z</time></trkpt><trkpt lat="42.104273075796854" lon="14.369915658077918"><ele>107.00000000000001</ele><time>2026-04-04T08:49:40.998Z</time></trkpt><trkpt lat="42.10434410603802" lon="14.369949233931491"><ele>107.0</ele><time>2026-04-04T08:49:42.998Z</time></trkpt><trkpt lat="42.10441008340977" lon="14.369983140250508"><ele>107.0</ele><time>2026-04-04T08:49:44.998Z</time></trkpt><trkpt lat="42.104465720601034" lon="14.370039470857288"><ele>107.0</ele><time>2026-04-04T08:49:46.998Z</time></trkpt><trkpt lat="42.104473057639595" lon="14.37013435430637"><ele>107.0</ele><time>2026-04-04T08:49:49.998Z</time></trkpt><trkpt lat="42.104391505291815" lon="14.370131738610125"><ele>107.00000000000001</ele><time>2026-04-04T08:49:53.998Z</time></trkpt><trkpt lat="42.10432210332542" lon="14.370170650509655"><ele>107.0</ele><time>2026-04-04T08:49:57Z</time></trkpt><trkpt lat="42.1042440361419" lon="14.37018608142163"><ele>106.99999999999999</ele><time>2026-04-04T08:50:00Z</time></trkpt><trkpt lat="42.104171552739835" lon="14.370246136534876"><ele>107.0</ele><time>2026-04-04T08:50:03Z</time></trkpt><trkpt lat="42.104117741749484" lon="14.370331296720964"><ele>107.0</ele><time>2026-04-04T08:50:06Z</time></trkpt><trkpt lat="42.10408727770192" lon="14.37043277693348"><ele>107.0</ele><time>2026-04-04T08:50:09Z</time></trkpt><trkpt lat="42.10407440991645" lon="14.37053654652141"><ele>106.99999999999999</ele><time>2026-04-04T08:50:13Z</time></trkpt><trkpt lat="42.10409789672957" lon="14.370634670141637"><ele>107.0</ele><time>2026-04-04T08:50:16Z</time></trkpt><trkpt lat="42.104164023295496" lon="14.370724020238493"><ele>107.49999999999999</ele><time>2026-04-04T08:50:19Z</time></trkpt><trkpt lat="42.104217917305" lon="14.370775032402678"><ele>108.0</ele><time>2026-04-04T08:50:21Z</time></trkpt><trkpt lat="42.10427575903949" lon="14.370829317948896"><ele>108.5</ele><time>2026-04-04T08:50:23Z</time></trkpt><trkpt lat="42.10433432021297" lon="14.37089198519483"><ele>109.0</ele><time>2026-04-04T08:50:25Z</time></trkpt><trkpt lat="42.104393924879545" lon="14.370960131352298"><ele>109.49999999999999</ele><time>2026-04-04T08:50:27Z</time></trkpt><trkpt lat="42.104459941042634" lon="14.371019792287493"><ele>110.0</ele><time>2026-04-04T08:50:29Z</time></trkpt><trkpt lat="42.104517314169236" lon="14.37109796344647"><ele>109.99999999999999</ele><time>2026-04-04T08:50:31Z</time></trkpt><trkpt lat="42.10458443337334" lon="14.371158030521928"><ele>110.0</ele><time>2026-04-04T08:50:33Z</time></trkpt><trkpt lat="42.10465429697013" lon="14.371220770337935"><ele>110.0</ele><time>2026-04-04T08:50:34.999Z</time></trkpt><trkpt lat="42.104726030713536" lon="14.371288500554538"><ele>110.0</ele><time>2026-04-04T08:50:36.999Z</time></trkpt><trkpt lat="42.1047901063197" lon="14.371380716664722"><ele>109.99999999999999</ele><time>2026-04-04T08:50:38.999Z</time></trkpt><trkpt lat="42.10486570661809" lon="14.371460226690647"><ele>110.0</ele><time>2026-04-04T08:50:40.999Z</time></trkpt><trkpt lat="42.1049409996948" lon="14.371544852851226"><ele>109.6</ele><time>2026-04-04T08:50:42.999Z</time></trkpt><trkpt lat="42.105013536522705" lon="14.371623029461366"><ele>109.2</ele><time>2026-04-04T08:50:44.999Z</time></trkpt><trkpt lat="42.10508283937235" lon="14.371703478488804"><ele>108.80000000000001</ele><time>2026-04-04T08:50:46.999Z</time></trkpt><trkpt lat="42.10515010019902" lon="14.371783925761868"><ele>108.4</ele><time>2026-04-04T08:50:48.999Z</time></trkpt><trkpt lat="42.105223256325665" lon="14.371855939885352"><ele>108.0</ele><time>2026-04-04T08:50:50.999Z</time></trkpt><trkpt lat="42.105297235841206" lon="14.371927927636643"><ele>108.0</ele><time>2026-04-04T08:50:52.999Z</time></trkpt><trkpt lat="42.10536456438032" lon="14.372001324532414"><ele>108.0</ele><time>2026-04-04T08:50:54.999Z</time></trkpt><trkpt lat="42.10542956129763" lon="14.372078425996046"><ele>108.0</ele><time>2026-04-04T08:50:56.999Z</time></trkpt><trkpt lat="42.10549554734671" lon="14.372146991001"><ele>108.0</ele><time>2026-04-04T08:50:58.999Z</time></trkpt><trkpt lat="42.105565680879046" lon="14.372217294426711"><ele>108.0</ele><time>2026-04-04T08:51:00.999Z</time></trkpt><trkpt lat="42.105635552692824" lon="14.372292787560738"><ele>108.0</ele><time>2026-04-04T08:51:02.999Z</time></trkpt><trkpt lat="42.105709863660046" lon="14.372365452053115"><ele>107.66666666666667</ele><time>2026-04-04T08:51:04.999Z</time></trkpt><trkpt lat="42.10576804383919" lon="14.372432493029818"><ele>107.33333333333334</ele><time>2026-04-04T08:51:06.999Z</time></trkpt><trkpt lat="42.10582545185648" lon="14.372495792229826"><ele>107.0</ele><time>2026-04-04T08:51:08.999Z</time></trkpt><trkpt lat="42.10588873819286" lon="14.372557944979722"><ele>106.66666666666667</ele><time>2026-04-04T08:51:10.999Z</time></trkpt><trkpt lat="42.1059481145604" lon="14.372634368851198"><ele>106.33333333333334</ele><time>2026-04-04T08:51:12.999Z</time></trkpt><trkpt lat="42.10601282449902" lon="14.372706128310634"><ele>106.0</ele><time>2026-04-04T08:51:14.999Z</time></trkpt><trkpt lat="42.10607899087678" lon="14.372776785962898"><ele>106.0</ele><time>2026-04-04T08:51:16.999Z</time></trkpt><trkpt lat="42.10614338525327" lon="14.372850303344515"><ele>106.0</ele><time>2026-04-04T08:51:18.999Z</time></trkpt><trkpt lat="42.1062103639018" lon="14.372914042582886"><ele>106.0</ele><time>2026-04-04T08:51:20.999Z</time></trkpt><trkpt lat="42.1062834727285" lon="14.372985677528774"><ele>106.0</ele><time>2026-04-04T08:51:22.999Z</time></trkpt><trkpt lat="42.1063516645443" lon="14.373075040378232"><ele>106.0</ele><time>2026-04-04T08:51:24.999Z</time></trkpt><trkpt lat="42.10642740053095" lon="14.373158824143806"><ele>106.71428571428572</ele><time>2026-04-04T08:51:26.999Z</time></trkpt><trkpt lat="42.106490446386296" lon="14.373232345135346"><ele>107.42857142857142</ele><time>2026-04-04T08:51:28.999Z</time></trkpt><trkpt lat="42.10654874970893" lon="14.373300387820755"><ele>108.14285714285714</ele><time>2026-04-04T08:51:31.998Z</time></trkpt><trkpt lat="42.10648430521742" lon="14.37329929923026"><ele>108.85714285714286</ele><time>2026-04-04T08:51:38.998Z</time></trkpt><trkpt lat="42.106441040652435" lon="14.373236068678521"><ele>109.57142857142858</ele><time>2026-04-04T08:51:42.998Z</time></trkpt><trkpt lat="42.10640273777798" lon="14.373155346224014"><ele>110.28571428571428</ele><time>2026-04-04T08:51:46.998Z</time></trkpt><trkpt lat="42.10634763179953" lon="14.373097597309854"><ele>111.0</ele><time>2026-04-04T08:51:50.998Z</time></trkpt><trkpt lat="42.106289909488524" lon="14.373029836789833"><ele>111.0</ele><time>2026-04-04T08:51:54.998Z</time></trkpt><trkpt lat="42.1062366723557" lon="14.372964321501803"><ele>111.0</ele><time>2026-04-04T08:51:58.998Z</time></trkpt><trkpt lat="42.10616331263356" lon="14.372916413583825"><ele>111.0</ele><time>2026-04-04T08:52:03Z</time></trkpt><trkpt lat="42.10610406026741" lon="14.372952874180896"><ele>111.0</ele><time>2026-04-04T08:52:06Z</time></trkpt><trkpt lat="42.10611577579254" lon="14.37303817888959"><ele>111.0</ele><time>2026-04-04T08:55:05.999Z</time></trkpt><trkpt lat="42.106097913868666" lon="14.373121486276846"><ele>111.0</ele><time>2026-04-04T08:55:08.999Z</time></trkpt><trkpt lat="42.10604099038511" lon="14.373201171027109"><ele>111.0</ele><time>2026-04-04T08:55:11.999Z</time></trkpt><trkpt lat="42.106039328909326" lon="14.373309829002187"><ele>111.0</ele><time>2026-04-04T08:55:14.999Z</time></trkpt><trkpt lat="42.10606369268088" lon="14.373391453202492"><ele>111.0</ele><time>2026-04-04T08:55:16.999Z</time></trkpt><trkpt lat="42.106089281159875" lon="14.373476584586921"><ele>111.0</ele><time>2026-04-04T08:55:18.999Z</time></trkpt><trkpt lat="42.106116732192646" lon="14.37356677301191"><ele>111.0</ele><time>2026-04-04T08:55:20.999Z</time></trkpt><trkpt lat="42.106142617529535" lon="14.373655562783524"><ele>111.0</ele><time>2026-04-04T08:55:22.999Z</time></trkpt><trkpt lat="42.10618142121186" lon="14.373769797523433"><ele>111.0</ele><time>2026-04-04T08:55:25.999Z</time></trkpt><trkpt lat="42.10621533663554" lon="14.373887883924274"><ele>111.42857142857142</ele><time>2026-04-04T08:55:28.999Z</time></trkpt><trkpt lat="42.106231342761696" lon="14.373970622953724"><ele>111.85714285714286</ele><time>2026-04-04T08:55:30.999Z</time></trkpt><trkpt lat="42.106227692680946" lon="14.37405988993487"><ele>112.28571428571428</ele><time>2026-04-04T08:55:32.999Z</time></trkpt><trkpt lat="42.10623077719495" lon="14.374150596583009"><ele>112.71428571428571</ele><time>2026-04-04T08:55:34.999Z</time></trkpt><trkpt lat="42.10623243685124" lon="14.37424461682274"><ele>113.14285714285714</ele><time>2026-04-04T08:55:36.999Z</time></trkpt><trkpt lat="42.106244008603426" lon="14.374338670154032"><ele>113.57142857142857</ele><time>2026-04-04T08:55:38.998Z</time></trkpt><trkpt lat="42.106258978373134" lon="14.374434872677602"><ele>114.0</ele><time>2026-04-04T08:55:40.998Z</time></trkpt><trkpt lat="42.10627699765184" lon="14.37453320692014"><ele>114.0</ele><time>2026-04-04T08:55:42.998Z</time></trkpt><trkpt lat="42.1063011296249" lon="14.374629243794846"><ele>113.99999999999999</ele><time>2026-04-04T08:55:44.998Z</time></trkpt><trkpt lat="42.106320873055715" lon="14.374725399914183"><ele>114.0</ele><time>2026-04-04T08:55:46.998Z</time></trkpt><trkpt lat="42.10633901236687" lon="14.374816599757034"><ele>114.0</ele><time>2026-04-04T08:55:48.998Z</time></trkpt><trkpt lat="42.10636512157147" lon="14.374908649517549"><ele>113.99999999999999</ele><time>2026-04-04T08:55:50.998Z</time></trkpt><trkpt lat="42.106387483567126" lon="14.375002444490155"><ele>114.0</ele><time>2026-04-04T08:55:52.998Z</time></trkpt><trkpt lat="42.106415658771915" lon="14.375097509820698"><ele>114.0</ele><time>2026-04-04T08:55:54.998Z</time></trkpt><trkpt lat="42.10644619014065" lon="14.375189493980685"><ele>113.85714285714285</ele><time>2026-04-04T08:55:56.998Z</time></trkpt><trkpt lat="42.10649117051685" lon="14.375271413462986"><ele>113.7142857142857</ele><time>2026-04-04T08:55:58.998Z</time></trkpt><trkpt lat="42.106548278239316" lon="14.37533933511355"><ele>113.57142857142857</ele><time>2026-04-04T08:56:00.998Z</time></trkpt><trkpt lat="42.106608114478576" lon="14.375398742335152"><ele>113.42857142857142</ele><time>2026-04-04T08:56:02.998Z</time></trkpt><trkpt lat="42.106670993921796" lon="14.375444573445167"><ele>113.28571428571428</ele><time>2026-04-04T08:56:04.998Z</time></trkpt><trkpt lat="42.10672881491345" lon="14.375497513165417"><ele>113.14285714285714</ele><time>2026-04-04T08:56:06.998Z</time></trkpt><trkpt lat="42.10678014955459" lon="14.375557314411346"><ele>113.0</ele><time>2026-04-04T08:56:08.998Z</time></trkpt><trkpt lat="42.1068315479895" lon="14.375621338123944"><ele>113.0</ele><time>2026-04-04T08:56:10.998Z</time></trkpt><trkpt lat="42.10687710664246" lon="14.375716598329802"><ele>113.00000000000001</ele><time>2026-04-04T08:56:13Z</time></trkpt><trkpt lat="42.10692125519918" lon="14.375826507024211"><ele>113.00000000000001</ele><time>2026-04-04T08:56:15Z</time></trkpt><trkpt lat="42.10696335909017" lon="14.375943831757676"><ele>113.0</ele><time>2026-04-04T08:56:17Z</time></trkpt><trkpt lat="42.10701572494256" lon="14.3760697368942"><ele>113.0</ele><time>2026-04-04T08:56:19Z</time></trkpt><trkpt lat="42.10709476015331" lon="14.376188754280154"><ele>113.0</ele><time>2026-04-04T08:56:21Z</time></trkpt><trkpt lat="42.10717913016178" lon="14.37630135702597"><ele>113.00000000000001</ele><time>2026-04-04T08:56:23Z</time></trkpt><trkpt lat="42.10726893004285" lon="14.376399784096808"><ele>113.00000000000001</ele><time>2026-04-04T08:56:25Z</time></trkpt><trkpt lat="42.1073512602271" lon="14.376485956759295"><ele>113.0</ele><time>2026-04-04T08:56:27Z</time></trkpt><trkpt lat="42.10744363716769" lon="14.37655842399285"><ele>113.0</ele><time>2026-04-04T08:56:29Z</time></trkpt><trkpt lat="42.10753472873416" lon="14.376622813171675"><ele>111.60000000000001</ele><time>2026-04-04T08:56:31Z</time></trkpt><trkpt lat="42.107624242452566" lon="14.376676890032853"><ele>110.20000000000002</ele><time>2026-04-04T08:56:33Z</time></trkpt><trkpt lat="42.10771432618405" lon="14.376742371265138"><ele>108.8</ele><time>2026-04-04T08:56:35Z</time></trkpt><trkpt lat="42.10780280948014" lon="14.376810723671158"><ele>107.4</ele><time>2026-04-04T08:56:37Z</time></trkpt><trkpt lat="42.10788630149926" lon="14.376886235514164"><ele>106.0</ele><time>2026-04-04T08:56:39Z</time></trkpt><trkpt lat="42.10795705023694" lon="14.376958708118172"><ele>106.0</ele><time>2026-04-04T08:56:41Z</time></trkpt><trkpt lat="42.10803854905407" lon="14.377016314154684"><ele>106.0</ele><time>2026-04-04T08:56:43Z</time></trkpt><trkpt lat="42.10812209633021" lon="14.377066859239052"><ele>106.0</ele><time>2026-04-04T08:56:44.999Z</time></trkpt><trkpt lat="42.10821169612817" lon="14.377105609098262"><ele>106.0</ele><time>2026-04-04T08:56:46.999Z</time></trkpt><trkpt lat="42.10830231741548" lon="14.377142570496382"><ele>106.0</ele><time>2026-04-04T08:56:48.999Z</time></trkpt><trkpt lat="42.10839302465834" lon="14.37717850297859"><ele>106.8</ele><time>2026-04-04T08:56:50.999Z</time></trkpt><trkpt lat="42.108489776079374" lon="14.377215023442693"><ele>107.6</ele><time>2026-04-04T08:56:52.999Z</time></trkpt><trkpt lat="42.10859316791571" lon="14.377237034519126"><ele>108.4</ele><time>2026-04-04T08:56:54.999Z</time></trkpt><trkpt lat="42.108699259754076" lon="14.377257535926057"><ele>109.2</ele><time>2026-04-04T08:56:56.999Z</time></trkpt><trkpt lat="42.108809054837224" lon="14.377273690829023"><ele>110.0</ele><time>2026-04-04T08:56:58.999Z</time></trkpt><trkpt lat="42.10891512856827" lon="14.377286032705443"><ele>110.0</ele><time>2026-04-04T08:57:00.999Z</time></trkpt><trkpt lat="42.109020117268784" lon="14.377295348019791"><ele>110.0</ele><time>2026-04-04T08:57:02.999Z</time></trkpt><trkpt lat="42.109125283103644" lon="14.377295676928101"><ele>110.0</ele><time>2026-04-04T08:57:04.999Z</time></trkpt><trkpt lat="42.10922447732042" lon="14.377286460977732"><ele>110.0</ele><time>2026-04-04T08:57:06.999Z</time></trkpt><trkpt lat="42.10932549004007" lon="14.377267981405671"><ele>110.0</ele><time>2026-04-04T08:57:08.999Z</time></trkpt><trkpt lat="42.10942555489912" lon="14.377240695370912"><ele>110.33333333333333</ele><time>2026-04-04T08:57:10.999Z</time></trkpt><trkpt lat="42.109516811598816" lon="14.37721001385711"><ele>110.66666666666666</ele><time>2026-04-04T08:57:12.999Z</time></trkpt><trkpt lat="42.10961256896149" lon="14.377195924208838"><ele>111.0</ele><time>2026-04-04T08:57:14.999Z</time></trkpt><trkpt lat="42.10970049370837" lon="14.377189775178518"><ele>111.33333333333334</ele><time>2026-04-04T08:57:16.999Z</time></trkpt><trkpt lat="42.10978334042663" lon="14.377189080383381"><ele>111.66666666666667</ele><time>2026-04-04T08:57:18.999Z</time></trkpt><trkpt lat="42.10984791379471" lon="14.377172769913482"><ele>112.0</ele><time>2026-04-04T08:57:20.999Z</time></trkpt><trkpt lat="42.10990778573689" lon="14.377142422097075"><ele>111.33333333333334</ele><time>2026-04-04T08:57:22.999Z</time></trkpt><trkpt lat="42.109989019130175" lon="14.377162988278558"><ele>110.66666666666667</ele><time>2026-04-04T08:57:24.999Z</time></trkpt><trkpt lat="42.11006400331368" lon="14.377160432672891"><ele>110.0</ele><time>2026-04-04T08:57:26.999Z</time></trkpt><trkpt lat="42.11013217072195" lon="14.377198714351472"><ele>109.33333333333334</ele><time>2026-04-04T08:57:28.999Z</time></trkpt><trkpt lat="42.110188263023765" lon="14.377260750121206"><ele>108.66666666666667</ele><time>2026-04-04T08:57:30.999Z</time></trkpt><trkpt lat="42.11025590072212" lon="14.377335732759898"><ele>108.0</ele><time>2026-04-04T08:57:32.999Z</time></trkpt><trkpt lat="42.11031763273998" lon="14.377406546245824"><ele>108.0</ele><time>2026-04-04T08:57:34.999Z</time></trkpt><trkpt lat="42.11037564022384" lon="14.377479446651826"><ele>108.0</ele><time>2026-04-04T08:57:36.999Z</time></trkpt><trkpt lat="42.11043534381989" lon="14.37755278224145"><ele>108.0</ele><time>2026-04-04T08:57:38.999Z</time></trkpt><trkpt lat="42.11049676656613" lon="14.377625983143803"><ele>108.0</ele><time>2026-04-04T08:57:40.998Z</time></trkpt><trkpt lat="42.11055952142967" lon="14.377713318951223"><ele>108.0</ele><time>2026-04-04T08:57:42.998Z</time></trkpt><trkpt lat="42.11062251529814" lon="14.377810144460037"><ele>108.0</ele><time>2026-04-04T08:57:44.998Z</time></trkpt><trkpt lat="42.11067799939902" lon="14.377909252443683"><ele>108.0</ele><time>2026-04-04T08:57:46.998Z</time></trkpt><trkpt lat="42.11073343636705" lon="14.378015411299625"><ele>108.00000000000001</ele><time>2026-04-04T08:57:48.998Z</time></trkpt><trkpt lat="42.110774950378925" lon="14.378131461743715"><ele>108.00000000000001</ele><time>2026-04-04T08:57:50.998Z</time></trkpt><trkpt lat="42.110808751103995" lon="14.37824734239315"><ele>108.0</ele><time>2026-04-04T08:57:52.998Z</time></trkpt><trkpt lat="42.110833331819315" lon="14.378361480201704"><ele>108.0</ele><time>2026-04-04T08:57:54.998Z</time></trkpt><trkpt lat="42.11085596468734" lon="14.37847707086755"><ele>107.4</ele><time>2026-04-04T08:57:56.998Z</time></trkpt><trkpt lat="42.11087289643412" lon="14.378601608398139"><ele>106.80000000000001</ele><time>2026-04-04T08:57:58.998Z</time></trkpt><trkpt lat="42.110886128481" lon="14.378731645424047"><ele>106.2</ele><time>2026-04-04T08:58:00.998Z</time></trkpt><trkpt lat="42.110887989413506" lon="14.37886337074047"><ele>105.6</ele><time>2026-04-04T08:58:02.998Z</time></trkpt><trkpt lat="42.11088720049968" lon="14.378997964161208"><ele>105.0</ele><time>2026-04-04T08:58:04.998Z</time></trkpt><trkpt lat="42.1108756417112" lon="14.379132156199672"><ele>105.0</ele><time>2026-04-04T08:58:06.998Z</time></trkpt><trkpt lat="42.11086469484963" lon="14.379269196496669"><ele>105.0</ele><time>2026-04-04T08:58:08.998Z</time></trkpt><trkpt lat="42.1108530633032" lon="14.379408912078178"><ele>105.0</ele><time>2026-04-04T08:58:10.998Z</time></trkpt><trkpt lat="42.11084443044814" lon="14.37954883159394"><ele>105.0</ele><time>2026-04-04T08:58:12.998Z</time></trkpt><trkpt lat="42.11083659391239" lon="14.37968593208347"><ele>105.0</ele><time>2026-04-04T08:58:14.998Z</time></trkpt><trkpt lat="42.11082725199115" lon="14.379824512183339"><ele>104.8</ele><time>2026-04-04T08:58:16.998Z</time></trkpt><trkpt lat="42.110820725244864" lon="14.379962774733922"><ele>104.6</ele><time>2026-04-04T08:58:19Z</time></trkpt><trkpt lat="42.110812018858574" lon="14.380106772243337"><ele>104.4</ele><time>2026-04-04T08:58:21Z</time></trkpt><trkpt lat="42.11080175551075" lon="14.38025764388679"><ele>104.2</ele><time>2026-04-04T08:58:23Z</time></trkpt><trkpt lat="42.11079099129091" lon="14.380412195058604"><ele>104.0</ele><time>2026-04-04T08:58:25Z</time></trkpt><trkpt lat="42.110782999206876" lon="14.38056913281373"><ele>103.0</ele><time>2026-04-04T08:58:27Z</time></trkpt><trkpt lat="42.11078001435772" lon="14.380727989547406"><ele>102.0</ele><time>2026-04-04T08:58:29Z</time></trkpt><trkpt lat="42.110783265013644" lon="14.380878365950759"><ele>101.0</ele><time>2026-04-04T08:58:31Z</time></trkpt><trkpt lat="42.110806967584956" lon="14.381026585796143"><ele>100.0</ele><time>2026-04-04T08:58:33Z</time></trkpt><trkpt lat="42.11083269081746" lon="14.381177542136529"><ele>100.0</ele><time>2026-04-04T08:58:35Z</time></trkpt><trkpt lat="42.11086242836468" lon="14.381330401781828"><ele>100.0</ele><time>2026-04-04T08:58:37Z</time></trkpt><trkpt lat="42.110892010815974" lon="14.381483585721423"><ele>100.0</ele><time>2026-04-04T08:58:39Z</time></trkpt><trkpt lat="42.11091943137566" lon="14.381632052924344"><ele>100.0</ele><time>2026-04-04T08:58:41Z</time></trkpt><trkpt lat="42.11094754817252" lon="14.381778420013406"><ele>99.4</ele><time>2026-04-04T08:58:43Z</time></trkpt><trkpt lat="42.11097385820404" lon="14.381924253923646"><ele>98.8</ele><time>2026-04-04T08:58:45Z</time></trkpt><trkpt lat="42.110999743477805" lon="14.382067932019106"><ele>98.19999999999999</ele><time>2026-04-04T08:58:46.999Z</time></trkpt><trkpt lat="42.11102687332172" lon="14.382209804592405"><ele>97.6</ele><time>2026-04-04T08:58:48.999Z</time></trkpt><trkpt lat="42.11105759719036" lon="14.382352510034528"><ele>97.0</ele><time>2026-04-04T08:58:50.999Z</time></trkpt><trkpt lat="42.11108277966529" lon="14.382495082296323"><ele>97.0</ele><time>2026-04-04T08:58:52.999Z</time></trkpt><trkpt lat="42.1111119479999" lon="14.382634485894606"><ele>97.0</ele><time>2026-04-04T08:58:54.999Z</time></trkpt><trkpt lat="42.111137820922565" lon="14.382773910481738"><ele>97.0</ele><time>2026-04-04T08:58:56.999Z</time></trkpt><trkpt lat="42.11116729010245" lon="14.382910071380554"><ele>97.0</ele><time>2026-04-04T08:58:58.999Z</time></trkpt><trkpt lat="42.111192841317184" lon="14.383041987983818"><ele>97.0</ele><time>2026-04-04T08:59:00.999Z</time></trkpt><trkpt lat="42.11121769143791" lon="14.38318131510172"><ele>98.0</ele><time>2026-04-04T08:59:02.999Z</time></trkpt><trkpt lat="42.111245265446954" lon="14.38332242447586"><ele>99.0</ele><time>2026-04-04T08:59:04.999Z</time></trkpt><trkpt lat="42.11128306360712" lon="14.383455523469264"><ele>100.0</ele><time>2026-04-04T08:59:06.999Z</time></trkpt><trkpt lat="42.11131039847783" lon="14.383590627539153"><ele>101.0</ele><time>2026-04-04T08:59:08.999Z</time></trkpt><trkpt lat="42.11133075727202" lon="14.38372574615008"><ele>102.0</ele><time>2026-04-04T08:59:10.999Z</time></trkpt><trkpt lat="42.11135266689415" lon="14.38385637096268"><ele>104.0</ele><time>2026-04-04T08:59:12.999Z</time></trkpt><trkpt lat="42.11137243166549" lon="14.383981470464496"><ele>106.0</ele><time>2026-04-04T08:59:14.999Z</time></trkpt><trkpt lat="42.11139435345865" lon="14.384101321539953"><ele>107.99999999999999</ele><time>2026-04-04T08:59:16.999Z</time></trkpt><trkpt lat="42.111419238319634" lon="14.38421922091892"><ele>110.0</ele><time>2026-04-04T08:59:18.999Z</time></trkpt><trkpt lat="42.11143857077119" lon="14.384338808645559"><ele>112.0</ele><time>2026-04-04T08:59:20.999Z</time></trkpt><trkpt lat="42.111463589912816" lon="14.384457726128709"><ele>112.0</ele><time>2026-04-04T08:59:22.999Z</time></trkpt><trkpt lat="42.11148365464997" lon="14.384578042380468"><ele>111.99999999999999</ele><time>2026-04-04T08:59:24.999Z</time></trkpt><trkpt lat="42.11150841021861" lon="14.38469468607187"><ele>111.99999999999999</ele><time>2026-04-04T08:59:26.999Z</time></trkpt><trkpt lat="42.11152964875391" lon="14.384817195187665"><ele>112.0</ele><time>2026-04-04T08:59:28.999Z</time></trkpt><trkpt lat="42.11155440733154" lon="14.384941761801786"><ele>112.0</ele><time>2026-04-04T08:59:30.999Z</time></trkpt><trkpt lat="42.111575988479494" lon="14.38506815247525"><ele>109.6</ele><time>2026-04-04T08:59:32.999Z</time></trkpt><trkpt lat="42.11159963682731" lon="14.38519172061858"><ele>107.19999999999999</ele><time>2026-04-04T08:59:34.999Z</time></trkpt><trkpt lat="42.11162247574085" lon="14.385316697352675"><ele>104.8</ele><time>2026-04-04T08:59:36.999Z</time></trkpt><trkpt lat="42.11164538390322" lon="14.38543872452953"><ele>102.4</ele><time>2026-04-04T08:59:38.999Z</time></trkpt><trkpt lat="42.11166490869958" lon="14.385563492016491"><ele>100.0</ele><time>2026-04-04T08:59:40.999Z</time></trkpt><trkpt lat="42.1116791062676" lon="14.385691097599683"><ele>100.0</ele><time>2026-04-04T08:59:42.998Z</time></trkpt><trkpt lat="42.11167996653001" lon="14.385815180429235"><ele>100.0</ele><time>2026-04-04T08:59:44.998Z</time></trkpt><trkpt lat="42.11167601421508" lon="14.385934951443108"><ele>100.0</ele><time>2026-04-04T08:59:46.998Z</time></trkpt><trkpt lat="42.111663143506135" lon="14.386058793844525"><ele>100.0</ele><time>2026-04-04T08:59:48.998Z</time></trkpt><trkpt lat="42.1116458892215" lon="14.386183971256155"><ele>100.0</ele><time>2026-04-04T08:59:50.998Z</time></trkpt><trkpt lat="42.11163087142207" lon="14.386310999932373"><ele>100.4</ele><time>2026-04-04T08:59:52.998Z</time></trkpt><trkpt lat="42.11161821860824" lon="14.386432357449312"><ele>100.8</ele><time>2026-04-04T08:59:54.998Z</time></trkpt><trkpt lat="42.11160419087336" lon="14.38655403657666"><ele>101.19999999999999</ele><time>2026-04-04T08:59:56.998Z</time></trkpt><trkpt lat="42.11158998534536" lon="14.386679514085454"><ele>101.6</ele><time>2026-04-04T08:59:58.998Z</time></trkpt><trkpt lat="42.111578579211" lon="14.386805009137154"><ele>102.0</ele><time>2026-04-04T09:00:00.998Z</time></trkpt><trkpt lat="42.11154684313887" lon="14.386975545468582"><ele>102.5</ele><time>2026-04-04T09:00:03.998Z</time></trkpt><trkpt lat="42.11153719496187" lon="14.387095316395312"><ele>103.0</ele><time>2026-04-04T09:00:05.998Z</time></trkpt><trkpt lat="42.111544066314" lon="14.38721327258446"><ele>103.5</ele><time>2026-04-04T09:00:07.998Z</time></trkpt><trkpt lat="42.11157220366878" lon="14.387320347246424"><ele>104.0</ele><time>2026-04-04T09:00:09.998Z</time></trkpt><trkpt lat="42.11161492087751" lon="14.38742643707926"><ele>104.5</ele><time>2026-04-04T09:00:11.998Z</time></trkpt><trkpt lat="42.11167401034919" lon="14.387518532379394"><ele>105.0</ele><time>2026-04-04T09:00:13.998Z</time></trkpt><trkpt lat="42.111736357290454" lon="14.387602196921039"><ele>105.0</ele><time>2026-04-04T09:00:15.998Z</time></trkpt><trkpt lat="42.111801808541884" lon="14.387675998585435"><ele>105.0</ele><time>2026-04-04T09:00:17.998Z</time></trkpt><trkpt lat="42.111865839134126" lon="14.3877514206203"><ele>105.0</ele><time>2026-04-04T09:00:19.998Z</time></trkpt><trkpt lat="42.11193101707029" lon="14.387831543514595"><ele>105.0</ele><time>2026-04-04T09:00:21.998Z</time></trkpt><trkpt lat="42.11197566262366" lon="14.38790194387994"><ele>105.0</ele><time>2026-04-04T09:00:22.998Z</time></trkpt><trkpt lat="42.112041630174325" lon="14.387978627426488"><ele>105.0</ele><time>2026-04-04T09:00:25Z</time></trkpt><trkpt lat="42.112105332206546" lon="14.388066642297126"><ele>105.16666666666667</ele><time>2026-04-04T09:00:27Z</time></trkpt><trkpt lat="42.11217730560466" lon="14.388134691465032"><ele>105.33333333333334</ele><time>2026-04-04T09:00:29Z</time></trkpt><trkpt lat="42.11224387946796" lon="14.388211212435293"><ele>105.5</ele><time>2026-04-04T09:00:31Z</time></trkpt><trkpt lat="42.11230968534755" lon="14.388285342293527"><ele>105.66666666666667</ele><time>2026-04-04T09:00:33Z</time></trkpt><trkpt lat="42.112373933702706" lon="14.388360713329998"><ele>105.83333333333334</ele><time>2026-04-04T09:00:35Z</time></trkpt><trkpt lat="42.11243812239431" lon="14.388437559113392"><ele>106.0</ele><time>2026-04-04T09:00:37Z</time></trkpt><trkpt lat="42.11250539659056" lon="14.3885108206082"><ele>105.33333333333334</ele><time>2026-04-04T09:00:39Z</time></trkpt><trkpt lat="42.11257088965644" lon="14.388584615817354"><ele>104.66666666666667</ele><time>2026-04-04T09:00:41Z</time></trkpt><trkpt lat="42.11263570788355" lon="14.388658469077022"><ele>104.0</ele><time>2026-04-04T09:00:43Z</time></trkpt><trkpt lat="42.112694637777864" lon="14.388742138277912"><ele>103.33333333333334</ele><time>2026-04-04T09:00:45Z</time></trkpt><trkpt lat="42.11276316852555" lon="14.388816151219089"><ele>102.66666666666667</ele><time>2026-04-04T09:00:46.999Z</time></trkpt><trkpt lat="42.11283634979551" lon="14.388892212988166"><ele>102.0</ele><time>2026-04-04T09:00:49.999Z</time></trkpt><trkpt lat="42.11289588069177" lon="14.388953954702648"><ele>102.0</ele><time>2026-04-04T09:00:50.999Z</time></trkpt><trkpt lat="42.11296161761955" lon="14.389036632484128"><ele>102.0</ele><time>2026-04-04T09:00:52.999Z</time></trkpt><trkpt lat="42.11303248723463" lon="14.389116399739734"><ele>102.0</ele><time>2026-04-04T09:00:54.999Z</time></trkpt><trkpt lat="42.11310181051168" lon="14.389196987648237"><ele>102.0</ele><time>2026-04-04T09:00:56.999Z</time></trkpt><trkpt lat="42.11317009851271" lon="14.389276160076857"><ele>102.0</ele><time>2026-04-04T09:00:58.999Z</time></trkpt><trkpt lat="42.113234998727926" lon="14.389353867688692"><ele>102.0</ele><time>2026-04-04T09:01:00.999Z</time></trkpt><trkpt lat="42.113303373905694" lon="14.38943305106328"><ele>102.0</ele><time>2026-04-04T09:01:02.999Z</time></trkpt><trkpt lat="42.113371226450504" lon="14.38951512719698"><ele>102.0</ele><time>2026-04-04T09:01:04.999Z</time></trkpt><trkpt lat="42.11344205742842" lon="14.389597469882327"><ele>102.0</ele><time>2026-04-04T09:01:06.999Z</time></trkpt><trkpt lat="42.11351230224227" lon="14.389680390839592"><ele>102.0</ele><time>2026-04-04T09:01:08.999Z</time></trkpt><trkpt lat="42.11355412821405" lon="14.389753211323253"><ele>102.0</ele><time>2026-04-04T09:01:09.999Z</time></trkpt><trkpt lat="42.113616537008795" lon="14.389847359637574"><ele>102.39999999999999</ele><time>2026-04-04T09:01:11.999Z</time></trkpt><trkpt lat="42.11369959798401" lon="14.389918312377175"><ele>102.8</ele><time>2026-04-04T09:01:13.999Z</time></trkpt><trkpt lat="42.11376720003039" lon="14.389998183673182"><ele>103.2</ele><time>2026-04-04T09:01:15.999Z</time></trkpt><trkpt lat="42.11383278565177" lon="14.390074775952552"><ele>103.6</ele><time>2026-04-04T09:01:17.999Z</time></trkpt><trkpt lat="42.11389982430965" lon="14.390153326485029"><ele>104.0</ele><time>2026-04-04T09:01:19.999Z</time></trkpt><trkpt lat="42.11396872207304" lon="14.390231281192237"><ele>104.0</ele><time>2026-04-04T09:01:21.999Z</time></trkpt><trkpt lat="42.114037201813545" lon="14.390312320890915"><ele>104.0</ele><time>2026-04-04T09:01:23.999Z</time></trkpt><trkpt lat="42.11410256982338" lon="14.39040090819264"><ele>104.0</ele><time>2026-04-04T09:01:25.999Z</time></trkpt><trkpt lat="42.114171418226334" lon="14.390477487269633"><ele>104.0</ele><time>2026-04-04T09:01:27.999Z</time></trkpt><trkpt lat="42.11424185665491" lon="14.390556168720888"><ele>104.0</ele><time>2026-04-04T09:01:29.999Z</time></trkpt><trkpt lat="42.11430953235993" lon="14.39063412686772"><ele>103.6</ele><time>2026-04-04T09:01:31.999Z</time></trkpt><trkpt lat="42.11437704503289" lon="14.390717409802619"><ele>103.2</ele><time>2026-04-04T09:01:33.999Z</time></trkpt><trkpt lat="42.11444583654257" lon="14.390798938707581"><ele>102.8</ele><time>2026-04-04T09:01:35.999Z</time></trkpt><trkpt lat="42.114516801814794" lon="14.390878461825556"><ele>102.39999999999999</ele><time>2026-04-04T09:01:37.999Z</time></trkpt><trkpt lat="42.114586013480896" lon="14.390955276738746"><ele>102.0</ele><time>2026-04-04T09:01:39.999Z</time></trkpt><trkpt lat="42.114652482441194" lon="14.391035379880819"><ele>102.0</ele><time>2026-04-04T09:01:41.999Z</time></trkpt><trkpt lat="42.1147175251202" lon="14.391112013331274"><ele>102.0</ele><time>2026-04-04T09:01:43.998Z</time></trkpt><trkpt lat="42.1147834219635" lon="14.391183482671622"><ele>102.0</ele><time>2026-04-04T09:01:45.998Z</time></trkpt><trkpt lat="42.11484715098418" lon="14.39125897048337"><ele>102.0</ele><time>2026-04-04T09:01:47.998Z</time></trkpt><trkpt lat="42.11491086388428" lon="14.391338182646273"><ele>102.0</ele><time>2026-04-04T09:01:49.998Z</time></trkpt><trkpt lat="42.11498026935273" lon="14.39141210645134"><ele>102.0</ele><time>2026-04-04T09:01:51.998Z</time></trkpt><trkpt lat="42.11505166242134" lon="14.39148857172397"><ele>102.16666666666667</ele><time>2026-04-04T09:01:53.998Z</time></trkpt><trkpt lat="42.11511906180755" lon="14.391566865955333"><ele>102.33333333333334</ele><time>2026-04-04T09:01:55.998Z</time></trkpt><trkpt lat="42.11517694431285" lon="14.391656601421232"><ele>102.5</ele><time>2026-04-04T09:01:57.998Z</time></trkpt><trkpt lat="42.11524300047917" lon="14.391736522558142"><ele>102.66666666666667</ele><time>2026-04-04T09:01:59.998Z</time></trkpt><trkpt lat="42.11530536424799" lon="14.391814077686172"><ele>102.83333333333334</ele><time>2026-04-04T09:02:01.998Z</time></trkpt><trkpt lat="42.115368172916725" lon="14.391883462215313"><ele>103.0</ele><time>2026-04-04T09:02:03.998Z</time></trkpt><trkpt lat="42.115428956806134" lon="14.391955143061992"><ele>102.99999999999999</ele><time>2026-04-04T09:02:05.998Z</time></trkpt><trkpt lat="42.11548885040377" lon="14.392023825702044"><ele>103.0</ele><time>2026-04-04T09:02:07.998Z</time></trkpt><trkpt lat="42.1155456844324" lon="14.392092657871856"><ele>103.0</ele><time>2026-04-04T09:02:09.998Z</time></trkpt><trkpt lat="42.11560480005899" lon="14.392157579697225"><ele>103.0</ele><time>2026-04-04T09:02:11.998Z</time></trkpt><trkpt lat="42.11566092964039" lon="14.39222216714998"><ele>103.0</ele><time>2026-04-04T09:02:13.998Z</time></trkpt><trkpt lat="42.11571399137629" lon="14.392288368195612"><ele>102.99999999999999</ele><time>2026-04-04T09:02:15.998Z</time></trkpt><trkpt lat="42.11576639661398" lon="14.3923480222399"><ele>103.0</ele><time>2026-04-04T09:02:17.998Z</time></trkpt><trkpt lat="42.11581798506975" lon="14.39241037032185"><ele>103.50000000000001</ele><time>2026-04-04T09:02:19.998Z</time></trkpt><trkpt lat="42.11586806918434" lon="14.392469302947429"><ele>104.0</ele><time>2026-04-04T09:02:21.998Z</time></trkpt><trkpt lat="42.11592025983633" lon="14.39252920683376"><ele>104.5</ele><time>2026-04-04T09:02:23.998Z</time></trkpt><trkpt lat="42.11597256819441" lon="14.39259142959466"><ele>105.0</ele><time>2026-04-04T09:02:25.998Z</time></trkpt><trkpt lat="42.116036677291106" lon="14.392663291884622"><ele>105.50000000000001</ele><time>2026-04-04T09:02:28.998Z</time></trkpt><trkpt lat="42.116099441426755" lon="14.392736717943864"><ele>106.0</ele><time>2026-04-04T09:02:31Z</time></trkpt><trkpt lat="42.11617723426891" lon="14.392829870030674"><ele>106.00000000000001</ele><time>2026-04-04T09:02:34Z</time></trkpt><trkpt lat="42.116229523819776" lon="14.392896880641532"><ele>106.0</ele><time>2026-04-04T09:02:36Z</time></trkpt><trkpt lat="42.11629083467583" lon="14.392969973560577"><ele>106.0</ele><time>2026-04-04T09:02:39Z</time></trkpt><trkpt lat="42.11635181648995" lon="14.393038414579404"><ele>106.0</ele><time>2026-04-04T09:02:41Z</time></trkpt><trkpt lat="42.11640058045293" lon="14.393096406007043"><ele>106.00000000000001</ele><time>2026-04-04T09:02:42Z</time></trkpt><trkpt lat="42.11645030310978" lon="14.393153290545296"><ele>106.0</ele><time>2026-04-04T09:02:45Z</time></trkpt><trkpt lat="42.11652101592572" lon="14.393229546323829"><ele>106.57142857142857</ele><time>2026-04-04T09:02:47Z</time></trkpt><trkpt lat="42.11657482780773" lon="14.393297654902376"><ele>107.14285714285714</ele><time>2026-04-04T09:02:48.999Z</time></trkpt><trkpt lat="42.1166324296045" lon="14.393363052745954"><ele>107.71428571428571</ele><time>2026-04-04T09:02:50.999Z</time></trkpt><trkpt lat="42.11668848746965" lon="14.393426596202668"><ele>108.28571428571428</ele><time>2026-04-04T09:02:52.999Z</time></trkpt><trkpt lat="42.116741358080915" lon="14.393489945447566"><ele>108.85714285714286</ele><time>2026-04-04T09:02:54.999Z</time></trkpt><trkpt lat="42.116800670476636" lon="14.393551921155936"><ele>109.42857142857142</ele><time>2026-04-04T09:02:56.999Z</time></trkpt><trkpt lat="42.1168582193114" lon="14.39361952816125"><ele>110.0</ele><time>2026-04-04T09:02:58.999Z</time></trkpt><trkpt lat="42.11691444665408" lon="14.393684191904624"><ele>109.99999999999999</ele><time>2026-04-04T09:03:00.999Z</time></trkpt><trkpt lat="42.11696940636863" lon="14.393756396483093"><ele>110.0</ele><time>2026-04-04T09:03:02.999Z</time></trkpt><trkpt lat="42.117013982156536" lon="14.393833685015135"><ele>110.0</ele><time>2026-04-04T09:03:04.999Z</time></trkpt><trkpt lat="42.11707036719823" lon="14.393891986688367"><ele>110.0</ele><time>2026-04-04T09:03:06.999Z</time></trkpt><trkpt lat="42.117154463188115" lon="14.393988611129668"><ele>109.99999999999999</ele><time>2026-04-04T09:03:09.999Z</time></trkpt><trkpt lat="42.11721417000276" lon="14.394037078688427"><ele>110.0</ele><time>2026-04-04T09:03:11.999Z</time></trkpt><trkpt lat="42.117270340399344" lon="14.39409289247377"><ele>110.16666666666666</ele><time>2026-04-04T09:03:13.999Z</time></trkpt><trkpt lat="42.117332629289166" lon="14.394146565773996"><ele>110.33333333333333</ele><time>2026-04-04T09:03:15.999Z</time></trkpt><trkpt lat="42.11739456284623" lon="14.394207911143354"><ele>110.5</ele><time>2026-04-04T09:03:17.999Z</time></trkpt><trkpt lat="42.11745512931392" lon="14.394276153081707"><ele>110.66666666666666</ele><time>2026-04-04T09:03:19.999Z</time></trkpt><trkpt lat="42.11751704423329" lon="14.394348053952791"><ele>110.83333333333333</ele><time>2026-04-04T09:03:21.999Z</time></trkpt><trkpt lat="42.11757911689645" lon="14.394421854837947"><ele>111.0</ele><time>2026-04-04T09:03:23.999Z</time></trkpt><trkpt lat="42.11764053955204" lon="14.39449543045319"><ele>111.0</ele><time>2026-04-04T09:03:25.999Z</time></trkpt><trkpt lat="42.11770503245412" lon="14.394572938737875"><ele>111.0</ele><time>2026-04-04T09:03:27.999Z</time></trkpt><trkpt lat="42.11777854757709" lon="14.394674349771378"><ele>111.0</ele><time>2026-04-04T09:03:29.999Z</time></trkpt><trkpt lat="42.11784658096202" lon="14.394744812137558"><ele>111.0</ele><time>2026-04-04T09:03:31.999Z</time></trkpt><trkpt lat="42.11791928553849" lon="14.394820905573265"><ele>111.0</ele><time>2026-04-04T09:03:33.999Z</time></trkpt><trkpt lat="42.11798757501386" lon="14.394893331820644"><ele>111.19999999999999</ele><time>2026-04-04T09:03:35.999Z</time></trkpt><trkpt lat="42.11806530509213" lon="14.394976673426434"><ele>111.39999999999999</ele><time>2026-04-04T09:03:37.999Z</time></trkpt><trkpt lat="42.118144341281244" lon="14.395065525808066"><ele>111.6</ele><time>2026-04-04T09:03:39.999Z</time></trkpt><trkpt lat="42.118214110465466" lon="14.395141976809562"><ele>111.8</ele><time>2026-04-04T09:03:41.999Z</time></trkpt><trkpt lat="42.118272036358185" lon="14.395224341892504"><ele>112.0</ele><time>2026-04-04T09:03:43.999Z</time></trkpt><trkpt lat="42.118336076235956" lon="14.395308773666597"><ele>112.0</ele><time>2026-04-04T09:03:45.998Z</time></trkpt><trkpt lat="42.11840123233571" lon="14.395391530586464"><ele>111.99999999999999</ele><time>2026-04-04T09:03:47.998Z</time></trkpt><trkpt lat="42.11847514997412" lon="14.395471322208344"><ele>111.99999999999999</ele><time>2026-04-04T09:03:49.998Z</time></trkpt><trkpt lat="42.118545562808535" lon="14.39556094112401"><ele>112.0</ele><time>2026-04-04T09:03:51.998Z</time></trkpt><trkpt lat="42.11861978968671" lon="14.39565615924189"><ele>112.0</ele><time>2026-04-04T09:03:53.998Z</time></trkpt><trkpt lat="42.11869455586717" lon="14.395746552967216"><ele>112.0</ele><time>2026-04-04T09:03:55.998Z</time></trkpt><trkpt lat="42.118767991559345" lon="14.39583686841634"><ele>111.99999999999999</ele><time>2026-04-04T09:03:57.998Z</time></trkpt><trkpt lat="42.118842988766644" lon="14.395935219727221"><ele>111.99999999999999</ele><time>2026-04-04T09:03:59.998Z</time></trkpt><trkpt lat="42.11892044336633" lon="14.396031870344935"><ele>112.0</ele><time>2026-04-04T09:04:01.998Z</time></trkpt><trkpt lat="42.118999989533464" lon="14.396129488863137"><ele>112.0</ele><time>2026-04-04T09:04:03.998Z</time></trkpt><trkpt lat="42.119080131460606" lon="14.39622953636874"><ele>112.0</ele><time>2026-04-04T09:04:05.998Z</time></trkpt><trkpt lat="42.11916124636319" lon="14.396329323217195"><ele>111.99999999999999</ele><time>2026-04-04T09:04:07.998Z</time></trkpt><trkpt lat="42.11924398638028" lon="14.396427078298789"><ele>111.99999999999999</ele><time>2026-04-04T09:04:09.998Z</time></trkpt><trkpt lat="42.119323792638276" lon="14.396524863059016"><ele>112.0</ele><time>2026-04-04T09:04:11.998Z</time></trkpt><trkpt lat="42.11940893655323" lon="14.396622692584245"><ele>112.0</ele><time>2026-04-04T09:04:13.998Z</time></trkpt><trkpt lat="42.1194905077781" lon="14.396721155576374"><ele>112.19999999999999</ele><time>2026-04-04T09:04:15.998Z</time></trkpt><trkpt lat="42.11957492241257" lon="14.39681613338841"><ele>112.39999999999999</ele><time>2026-04-04T09:04:17.998Z</time></trkpt><trkpt lat="42.11965557578662" lon="14.396918888467999"><ele>112.60000000000001</ele><time>2026-04-04T09:04:19.998Z</time></trkpt><trkpt lat="42.119739626251416" lon="14.397018117560677"><ele>112.80000000000001</ele><time>2026-04-04T09:04:21.998Z</time></trkpt><trkpt lat="42.119830292346464" lon="14.397116208065864"><ele>113.0</ele><time>2026-04-04T09:04:23.998Z</time></trkpt><trkpt lat="42.11991520287888" lon="14.397221406831774"><ele>112.5</ele><time>2026-04-04T09:04:25.998Z</time></trkpt><trkpt lat="42.12000361669986" lon="14.397325767817549"><ele>112.0</ele><time>2026-04-04T09:04:27.998Z</time></trkpt><trkpt lat="42.12009072279625" lon="14.397429253790685"><ele>111.5</ele><time>2026-04-04T09:04:29.998Z</time></trkpt><trkpt lat="42.12017975783724" lon="14.397532912006172"><ele>111.0</ele><time>2026-04-04T09:04:31.998Z</time></trkpt><trkpt lat="42.12026707881378" lon="14.397637271250911"><ele>111.0</ele><time>2026-04-04T09:04:33.998Z</time></trkpt><trkpt lat="42.1203551967016" lon="14.397735667316288"><ele>111.0</ele><time>2026-04-04T09:04:36Z</time></trkpt><trkpt lat="42.12044060154366" lon="14.397837801548972"><ele>111.0</ele><time>2026-04-04T09:04:37.999Z</time></trkpt><trkpt lat="42.12052314030267" lon="14.397935213442242"><ele>111.0</ele><time>2026-04-04T09:04:40Z</time></trkpt><trkpt lat="42.12060393439744" lon="14.39802630839933"><ele>111.0</ele><time>2026-04-04T09:04:42Z</time></trkpt><trkpt lat="42.12068375370596" lon="14.398121426978909"><ele>110.4</ele><time>2026-04-04T09:04:44Z</time></trkpt><trkpt lat="42.120765702396355" lon="14.398219206476671"><ele>109.8</ele><time>2026-04-04T09:04:46Z</time></trkpt><trkpt lat="42.12084625860022" lon="14.398313356151297"><ele>109.20000000000002</ele><time>2026-04-04T09:04:48Z</time></trkpt><trkpt lat="42.12092782091262" lon="14.39841020777303"><ele>108.60000000000001</ele><time>2026-04-04T09:04:50Z</time></trkpt><trkpt lat="42.1210097164013" lon="14.39850482242063"><ele>108.0</ele><time>2026-04-04T09:04:51.999Z</time></trkpt><trkpt lat="42.121091432102126" lon="14.398598820875288"><ele>108.0</ele><time>2026-04-04T09:04:53.999Z</time></trkpt><trkpt lat="42.12117389387748" lon="14.398697201722698"><ele>108.00000000000001</ele><time>2026-04-04T09:04:55.999Z</time></trkpt><trkpt lat="42.12125773440732" lon="14.398794493684115"><ele>108.00000000000001</ele><time>2026-04-04T09:04:57.999Z</time></trkpt><trkpt lat="42.12133975728876" lon="14.39889236510604"><ele>108.0</ele><time>2026-04-04T09:04:59.999Z</time></trkpt><trkpt lat="42.121423468095585" lon="14.398988889530377"><ele>108.0</ele><time>2026-04-04T09:05:01.999Z</time></trkpt><trkpt lat="42.12150632308306" lon="14.39908587874639"><ele>107.5</ele><time>2026-04-04T09:05:03.999Z</time></trkpt><trkpt lat="42.12158839063969" lon="14.39918430037895"><ele>107.0</ele><time>2026-04-04T09:05:05.999Z</time></trkpt><trkpt lat="42.12167475461707" lon="14.399287884391297"><ele>106.5</ele><time>2026-04-04T09:05:07.999Z</time></trkpt><trkpt lat="42.121750044144136" lon="14.399401816688814"><ele>106.0</ele><time>2026-04-04T09:05:09.999Z</time></trkpt><trkpt lat="42.12182154433332" lon="14.39952772915128"><ele>106.0</ele><time>2026-04-04T09:05:11.999Z</time></trkpt><trkpt lat="42.12188171370585" lon="14.399663812409907"><ele>106.0</ele><time>2026-04-04T09:05:13.999Z</time></trkpt><trkpt lat="42.12194563008948" lon="14.399798731181257"><ele>106.0</ele><time>2026-04-04T09:05:15.999Z</time></trkpt><trkpt lat="42.12200680852149" lon="14.399931824068846"><ele>106.0</ele><time>2026-04-04T09:05:17.999Z</time></trkpt><trkpt lat="42.122068866929126" lon="14.400067214036927"><ele>106.25</ele><time>2026-04-04T09:05:19.999Z</time></trkpt><trkpt lat="42.122129955232715" lon="14.400204964767534"><ele>106.5</ele><time>2026-04-04T09:05:21.999Z</time></trkpt><trkpt lat="42.12219580600794" lon="14.40033744131433"><ele>106.75</ele><time>2026-04-04T09:05:23.999Z</time></trkpt><trkpt lat="42.12225652566251" lon="14.400473856852656"><ele>107.0</ele><time>2026-04-04T09:05:25.999Z</time></trkpt><trkpt lat="42.12232099743128" lon="14.400603451030735"><ele>107.0</ele><time>2026-04-04T09:05:27.999Z</time></trkpt><trkpt lat="42.12238111705566" lon="14.400736161290958"><ele>107.0</ele><time>2026-04-04T09:05:29.999Z</time></trkpt><trkpt lat="42.12244516657164" lon="14.400873946112087"><ele>107.0</ele><time>2026-04-04T09:05:31.999Z</time></trkpt><trkpt lat="42.12250901591218" lon="14.401008280148906"><ele>107.0</ele><time>2026-04-04T09:05:33.999Z</time></trkpt><trkpt lat="42.122573051362046" lon="14.401147416782829"><ele>106.5</ele><time>2026-04-04T09:05:35.999Z</time></trkpt><trkpt lat="42.122637316614586" lon="14.401289288312316"><ele>106.0</ele><time>2026-04-04T09:05:37.999Z</time></trkpt><trkpt lat="42.122702112003694" lon="14.401425761818826"><ele>105.5</ele><time>2026-04-04T09:05:39.999Z</time></trkpt><trkpt lat="42.12276533620597" lon="14.401567168346888"><ele>105.0</ele><time>2026-04-04T09:05:41.999Z</time></trkpt><trkpt lat="42.12283071948326" lon="14.401708330555266"><ele>104.5</ele><time>2026-04-04T09:05:43.999Z</time></trkpt><trkpt lat="42.12289245721558" lon="14.401846347614775"><ele>104.0</ele><time>2026-04-04T09:05:45.999Z</time></trkpt><trkpt lat="42.12295680179735" lon="14.401989155745987"><ele>103.5</ele><time>2026-04-04T09:05:47.999Z</time></trkpt><trkpt lat="42.12302120141801" lon="14.402130411133397"><ele>103.0</ele><time>2026-04-04T09:05:49.998Z</time></trkpt><trkpt lat="42.12308763962805" lon="14.402273967246852"><ele>102.80000000000001</ele><time>2026-04-04T09:05:51.998Z</time></trkpt><trkpt lat="42.12312088058473" lon="14.402346799044505"><ele>102.6</ele><time>2026-04-04T09:05:52.998Z</time></trkpt><trkpt lat="42.123187025108244" lon="14.402487879284072"><ele>102.4</ele><time>2026-04-04T09:05:54.998Z</time></trkpt><trkpt lat="42.12325201061367" lon="14.402626730656804"><ele>102.19999999999999</ele><time>2026-04-04T09:05:56.998Z</time></trkpt><trkpt lat="42.123315410954305" lon="14.402761507056898"><ele>102.0</ele><time>2026-04-04T09:05:58.998Z</time></trkpt><trkpt lat="42.12337854629162" lon="14.402891218542814"><ele>101.39999999999999</ele><time>2026-04-04T09:06:00.998Z</time></trkpt><trkpt lat="42.12343926711544" lon="14.403020199433058"><ele>100.8</ele><time>2026-04-04T09:06:02.998Z</time></trkpt><trkpt lat="42.12350193221803" lon="14.40313734134655"><ele>100.2</ele><time>2026-04-04T09:06:04.998Z</time></trkpt><trkpt lat="42.12354555641155" lon="14.403265961749296"><ele>99.6</ele><time>2026-04-04T09:06:06.998Z</time></trkpt><trkpt lat="42.123602161090666" lon="14.403390115120217"><ele>99.0</ele><time>2026-04-04T09:06:08.998Z</time></trkpt><trkpt lat="42.123659418916525" lon="14.40351571846634"><ele>99.0</ele><time>2026-04-04T09:06:10.998Z</time></trkpt><trkpt lat="42.12371973160688" lon="14.403644723907473"><ele>99.0</ele><time>2026-04-04T09:06:12.998Z</time></trkpt><trkpt lat="42.12378218217975" lon="14.403772255286311"><ele>99.0</ele><time>2026-04-04T09:06:14.998Z</time></trkpt><trkpt lat="42.12384193516667" lon="14.403902797828225"><ele>99.0</ele><time>2026-04-04T09:06:16.998Z</time></trkpt><trkpt lat="42.12390496100007" lon="14.404039191289094"><ele>98.5</ele><time>2026-04-04T09:06:18.998Z</time></trkpt><trkpt lat="42.12396914862381" lon="14.404171245541546"><ele>98.0</ele><time>2026-04-04T09:06:20.998Z</time></trkpt><trkpt lat="42.12402873206295" lon="14.404304126793006"><ele>97.5</ele><time>2026-04-04T09:06:22.999Z</time></trkpt><trkpt lat="42.12409139080978" lon="14.404426368591043"><ele>97.0</ele><time>2026-04-04T09:06:24.999Z</time></trkpt><trkpt lat="42.12414456649349" lon="14.40455671292873"><ele>96.75</ele><time>2026-04-04T09:06:26.999Z</time></trkpt><trkpt lat="42.124204101287454" lon="14.404685252656632"><ele>96.5</ele><time>2026-04-04T09:06:28.999Z</time></trkpt><trkpt lat="42.12426082369983" lon="14.404818541920857"><ele>96.25</ele><time>2026-04-04T09:06:30.999Z</time></trkpt><trkpt lat="42.12432098296721" lon="14.404950598109949"><ele>96.0</ele><time>2026-04-04T09:06:32.999Z</time></trkpt><trkpt lat="42.12438155932573" lon="14.405083521074022"><ele>96.0</ele><time>2026-04-04T09:06:34.999Z</time></trkpt><trkpt lat="42.12444496213808" lon="14.40521564515153"><ele>96.0</ele><time>2026-04-04T09:06:36.999Z</time></trkpt><trkpt lat="42.12450758768346" lon="14.405354857553496"><ele>96.0</ele><time>2026-04-04T09:06:38.999Z</time></trkpt><trkpt lat="42.12457321253702" lon="14.405494429190004"><ele>96.0</ele><time>2026-04-04T09:06:40.999Z</time></trkpt><trkpt lat="42.12463812765199" lon="14.405635957075427"><ele>95.8</ele><time>2026-04-04T09:06:43Z</time></trkpt><trkpt lat="42.12470366814202" lon="14.405780986378614"><ele>95.6</ele><time>2026-04-04T09:06:45Z</time></trkpt><trkpt lat="42.124736963286274" lon="14.405854498563647"><ele>95.4</ele><time>2026-04-04T09:06:46Z</time></trkpt><trkpt lat="42.12480173061301" lon="14.40599908694815"><ele>95.2</ele><time>2026-04-04T09:06:48Z</time></trkpt><trkpt lat="42.12486717612092" lon="14.406143005758315"><ele>95.0</ele><time>2026-04-04T09:06:50Z</time></trkpt><trkpt lat="42.1249354062976" lon="14.406283366370038"><ele>95.0</ele><time>2026-04-04T09:06:52Z</time></trkpt><trkpt lat="42.12500235228132" lon="14.406423668810852"><ele>95.0</ele><time>2026-04-04T09:06:54Z</time></trkpt><trkpt lat="42.12506678542524" lon="14.406561678673423"><ele>95.0</ele><time>2026-04-04T09:06:56Z</time></trkpt><trkpt lat="42.12512890044718" lon="14.406702466559176"><ele>95.0</ele><time>2026-04-04T09:06:58Z</time></trkpt><trkpt lat="42.12519188731155" lon="14.406837534480903"><ele>95.0</ele><time>2026-04-04T09:07:00Z</time></trkpt><trkpt lat="42.125254446136395" lon="14.406972609775762"><ele>95.0</ele><time>2026-04-04T09:07:02Z</time></trkpt><trkpt lat="42.12531498069518" lon="14.407104211066567"><ele>95.0</ele><time>2026-04-04T09:07:04Z</time></trkpt><trkpt lat="42.12537666879826" lon="14.40723377070469"><ele>95.0</ele><time>2026-04-04T09:07:06Z</time></trkpt><trkpt lat="42.12543702034896" lon="14.407367015380462"><ele>95.25</ele><time>2026-04-04T09:07:08Z</time></trkpt><trkpt lat="42.12550319805736" lon="14.407504369446414"><ele>95.5</ele><time>2026-04-04T09:07:10Z</time></trkpt><trkpt lat="42.12556634890382" lon="14.407639545860064"><ele>95.75</ele><time>2026-04-04T09:07:12Z</time></trkpt><trkpt lat="42.12562756997138" lon="14.407780428070089"><ele>96.0</ele><time>2026-04-04T09:07:14Z</time></trkpt><trkpt lat="42.125693626981416" lon="14.407910565643906"><ele>95.0</ele><time>2026-04-04T09:07:16Z</time></trkpt><trkpt lat="42.12575511319871" lon="14.408042957563694"><ele>94.0</ele><time>2026-04-04T09:07:18Z</time></trkpt><trkpt lat="42.125815912079815" lon="14.408180517173365"><ele>93.0</ele><time>2026-04-04T09:07:20Z</time></trkpt><trkpt lat="42.125875930299884" lon="14.408318069747141"><ele>92.0</ele><time>2026-04-04T09:07:22Z</time></trkpt><trkpt lat="42.12594011759267" lon="14.408454032228692"><ele>92.0</ele><time>2026-04-04T09:07:24Z</time></trkpt><trkpt lat="42.12600668845989" lon="14.408592404869003"><ele>92.0</ele><time>2026-04-04T09:07:26Z</time></trkpt><trkpt lat="42.12606876739458" lon="14.40873311735904"><ele>92.0</ele><time>2026-04-04T09:07:28Z</time></trkpt><trkpt lat="42.1261379482819" lon="14.4088737611393"><ele>92.0</ele><time>2026-04-04T09:07:30Z</time></trkpt><trkpt lat="42.126203664913234" lon="14.409019413985776"><ele>91.85714285714286</ele><time>2026-04-04T09:07:32Z</time></trkpt><trkpt lat="42.12623736885761" lon="14.409092909452777"><ele>91.71428571428571</ele><time>2026-04-04T09:07:33Z</time></trkpt><trkpt lat="42.12627164096488" lon="14.409165532297028"><ele>91.57142857142857</ele><time>2026-04-04T09:07:34Z</time></trkpt><trkpt lat="42.12630508411069" lon="14.409237617096606"><ele>91.42857142857143</ele><time>2026-04-04T09:07:35Z</time></trkpt><trkpt lat="42.126340338322535" lon="14.409309532177407"><ele>91.28571428571428</ele><time>2026-04-04T09:07:36Z</time></trkpt><trkpt lat="42.12637514043986" lon="14.409384950479554"><ele>91.14285714285714</ele><time>2026-04-04T09:07:37Z</time></trkpt><trkpt lat="42.12640949535373" lon="14.409460705580608"><ele>91.0</ele><time>2026-04-04T09:07:38Z</time></trkpt><trkpt lat="42.12644213653181" lon="14.409537413553686"><ele>91.0</ele><time>2026-04-04T09:07:39Z</time></trkpt><trkpt lat="42.12647634600949" lon="14.409614921599005"><ele>91.0</ele><time>2026-04-04T09:07:40Z</time></trkpt><trkpt lat="42.12651167482712" lon="14.409688888670521"><ele>91.0</ele><time>2026-04-04T09:07:41Z</time></trkpt><trkpt lat="42.126547634744036" lon="14.40976489231747"><ele>91.0</ele><time>2026-04-04T09:07:42Z</time></trkpt><trkpt lat="42.12658237576526" lon="14.40984067964263"><ele>91.0</ele><time>2026-04-04T09:07:43Z</time></trkpt><trkpt lat="42.126616461577434" lon="14.409916871883365"><ele>91.0</ele><time>2026-04-04T09:07:44Z</time></trkpt><trkpt lat="42.126654300865354" lon="14.409994275497711"><ele>91.0</ele><time>2026-04-04T09:07:45Z</time></trkpt><trkpt lat="42.12669050267786" lon="14.410070567952152"><ele>90.85714285714286</ele><time>2026-04-04T09:07:46Z</time></trkpt><trkpt lat="42.12672527295736" lon="14.41014521607514"><ele>90.71428571428572</ele><time>2026-04-04T09:07:47Z</time></trkpt><trkpt lat="42.12676155674135" lon="14.410221385601325"><ele>90.57142857142857</ele><time>2026-04-04T09:07:48Z</time></trkpt><trkpt lat="42.12679549885445" lon="14.410297992227166"><ele>90.42857142857143</ele><time>2026-04-04T09:07:49Z</time></trkpt><trkpt lat="42.12683020876473" lon="14.410376758107942"><ele>90.28571428571429</ele><time>2026-04-04T09:07:50Z</time></trkpt><trkpt lat="42.12686598369472" lon="14.410453777541976"><ele>90.14285714285714</ele><time>2026-04-04T09:07:50.999Z</time></trkpt><trkpt lat="42.126902553888094" lon="14.410529713369035"><ele>90.0</ele><time>2026-04-04T09:07:51.999Z</time></trkpt><trkpt lat="42.12693762232576" lon="14.410605368794714"><ele>90.0</ele><time>2026-04-04T09:07:52.999Z</time></trkpt><trkpt lat="42.12697370511541" lon="14.410680410578003"><ele>90.0</ele><time>2026-04-04T09:07:53.999Z</time></trkpt><trkpt lat="42.12700813051099" lon="14.410755980982401"><ele>90.0</ele><time>2026-04-04T09:07:54.999Z</time></trkpt><trkpt lat="42.12706927395315" lon="14.410892516845555"><ele>90.0</ele><time>2026-04-04T09:07:56.999Z</time></trkpt><trkpt lat="42.127127239771596" lon="14.411017546268111"><ele>90.0</ele><time>2026-04-04T09:07:58.999Z</time></trkpt><trkpt lat="42.12719021322954" lon="14.411147119062592"><ele>90.0</ele><time>2026-04-04T09:08:00.999Z</time></trkpt><trkpt lat="42.127249144766786" lon="14.41128151998131"><ele>90.0</ele><time>2026-04-04T09:08:02.999Z</time></trkpt><trkpt lat="42.127310628168516" lon="14.411412517939565"><ele>90.0</ele><time>2026-04-04T09:08:04.999Z</time></trkpt><trkpt lat="42.127372942126094" lon="14.411546228405426"><ele>90.0</ele><time>2026-04-04T09:08:06.999Z</time></trkpt><trkpt lat="42.12743337440311" lon="14.411682784423773"><ele>89.16666666666667</ele><time>2026-04-04T09:08:08.999Z</time></trkpt><trkpt lat="42.127496779186416" lon="14.411819731262517"><ele>88.33333333333333</ele><time>2026-04-04T09:08:10.999Z</time></trkpt><trkpt lat="42.12755617381609" lon="14.411953205127139"><ele>87.5</ele><time>2026-04-04T09:08:12.999Z</time></trkpt><trkpt lat="42.12759247150897" lon="14.412030235044014"><ele>86.66666666666666</ele><time>2026-04-04T09:08:13.999Z</time></trkpt><trkpt lat="42.12762694102138" lon="14.412103900407942"><ele>85.83333333333333</ele><time>2026-04-04T09:08:14.999Z</time></trkpt><trkpt lat="42.127661764329964" lon="14.412175293729504"><ele>85.0</ele><time>2026-04-04T09:08:15.999Z</time></trkpt><trkpt lat="42.12769458008066" lon="14.412248738432256"><ele>85.0</ele><time>2026-04-04T09:08:16.999Z</time></trkpt><trkpt lat="42.127760878920256" lon="14.412394674261353"><ele>85.0</ele><time>2026-04-04T09:08:18.999Z</time></trkpt><trkpt lat="42.12779626599746" lon="14.412468626465708"><ele>85.0</ele><time>2026-04-04T09:08:19.999Z</time></trkpt><trkpt lat="42.12782940388289" lon="14.412544974835404"><ele>85.0</ele><time>2026-04-04T09:08:20.999Z</time></trkpt><trkpt lat="42.12786249687886" lon="14.41262009101436"><ele>85.0</ele><time>2026-04-04T09:08:21.999Z</time></trkpt><trkpt lat="42.12789907937715" lon="14.412693957085104"><ele>85.0</ele><time>2026-04-04T09:08:22.999Z</time></trkpt><trkpt lat="42.127933182559524" lon="14.412768694109879"><ele>85.0</ele><time>2026-04-04T09:08:23.999Z</time></trkpt><trkpt lat="42.12796804748667" lon="14.412843146019524"><ele>85.0</ele><time>2026-04-04T09:08:24.999Z</time></trkpt><trkpt lat="42.12800305098474" lon="14.412917631650366"><ele>85.0</ele><time>2026-04-04T09:08:25.999Z</time></trkpt><trkpt lat="42.128037916291" lon="14.412991962406553"><ele>85.0</ele><time>2026-04-04T09:08:26.999Z</time></trkpt><trkpt lat="42.12807431880095" lon="14.413064227839827"><ele>85.0</ele><time>2026-04-04T09:08:27.999Z</time></trkpt><trkpt lat="42.1281096883763" lon="14.413137124689337"><ele>85.0</ele><time>2026-04-04T09:08:28.999Z</time></trkpt><trkpt lat="42.1281437141855" lon="14.413212513024181"><ele>85.0</ele><time>2026-04-04T09:08:29.999Z</time></trkpt><trkpt lat="42.12817765057996" lon="14.413288661302548"><ele>84.85714285714286</ele><time>2026-04-04T09:08:30.999Z</time></trkpt><trkpt lat="42.12821085744467" lon="14.413364308306484"><ele>84.71428571428571</ele><time>2026-04-04T09:08:31.999Z</time></trkpt><trkpt lat="42.128245673310985" lon="14.413440070312786"><ele>84.57142857142857</ele><time>2026-04-04T09:08:32.999Z</time></trkpt><trkpt lat="42.128279541857104" lon="14.41351384852516"><ele>84.42857142857143</ele><time>2026-04-04T09:08:33.999Z</time></trkpt><trkpt lat="42.12831599162128" lon="14.413585340531908"><ele>84.28571428571428</ele><time>2026-04-04T09:08:34.999Z</time></trkpt><trkpt lat="42.12835030285853" lon="14.413657070876255"><ele>84.14285714285714</ele><time>2026-04-04T09:08:35.999Z</time></trkpt><trkpt lat="42.12838230160054" lon="14.41373305172798"><ele>84.0</ele><time>2026-04-04T09:08:36.999Z</time></trkpt><trkpt lat="42.12844619322913" lon="14.413877415123395"><ele>83.83333333333333</ele><time>2026-04-04T09:08:38.999Z</time></trkpt><trkpt lat="42.128511247267525" lon="14.414022436961178"><ele>83.66666666666667</ele><time>2026-04-04T09:08:40.999Z</time></trkpt><trkpt lat="42.128543082627914" lon="14.414098340800397"><ele>83.5</ele><time>2026-04-04T09:08:41.999Z</time></trkpt><trkpt lat="42.12857665358135" lon="14.4141748071428"><ele>83.33333333333334</ele><time>2026-04-04T09:08:42.999Z</time></trkpt><trkpt lat="42.12860924141307" lon="14.414251293983792"><ele>83.16666666666667</ele><time>2026-04-04T09:08:43.999Z</time></trkpt><trkpt lat="42.12863934750632" lon="14.414330750336763"><ele>83.0</ele><time>2026-04-04T09:08:44.999Z</time></trkpt><trkpt lat="42.1286695216857" lon="14.41440999637126"><ele>83.0</ele><time>2026-04-04T09:08:45.999Z</time></trkpt><trkpt lat="42.12869876558041" lon="14.414486901494364"><ele>83.0</ele><time>2026-04-04T09:08:46.999Z</time></trkpt><trkpt lat="42.12872554610405" lon="14.414566134022483"><ele>83.0</ele><time>2026-04-04T09:08:48Z</time></trkpt><trkpt lat="42.1287532905724" lon="14.414647530009722"><ele>83.0</ele><time>2026-04-04T09:08:49Z</time></trkpt><trkpt lat="42.12878287198039" lon="14.414722798547126"><ele>83.0</ele><time>2026-04-04T09:08:50Z</time></trkpt><trkpt lat="42.128840677151125" lon="14.414869668513248"><ele>83.0</ele><time>2026-04-04T09:08:52Z</time></trkpt><trkpt lat="42.128894891785535" lon="14.415020179071007"><ele>82.5</ele><time>2026-04-04T09:08:54Z</time></trkpt><trkpt lat="42.12894786444463" lon="14.415166676485951"><ele>82.0</ele><time>2026-04-04T09:08:56Z</time></trkpt><trkpt lat="42.12900100211519" lon="14.415313690293042"><ele>81.5</ele><time>2026-04-04T09:08:58Z</time></trkpt><trkpt lat="42.12904975162638" lon="14.41546088218984"><ele>81.0</ele><time>2026-04-04T09:09:00Z</time></trkpt><trkpt lat="42.12909918056912" lon="14.41560330506518"><ele>80.83333333333333</ele><time>2026-04-04T09:09:02Z</time></trkpt><trkpt lat="42.12912348881109" lon="14.415737812763448"><ele>80.66666666666667</ele><time>2026-04-04T09:09:04Z</time></trkpt><trkpt lat="42.12911671462584" lon="14.415834219760223"><ele>80.5</ele><time>2026-04-04T09:09:06Z</time></trkpt><trkpt lat="42.12911549693331" lon="14.415949395747708"><ele>80.33333333333334</ele><time>2026-04-04T09:09:08Z</time></trkpt><trkpt lat="42.129124924893" lon="14.416064756216985"><ele>80.16666666666667</ele><time>2026-04-04T09:09:10Z</time></trkpt><trkpt lat="42.12915754747785" lon="14.41618089136333"><ele>80.0</ele><time>2026-04-04T09:09:12Z</time></trkpt><trkpt lat="42.12921363346583" lon="14.416285749503492"><ele>80.0</ele><time>2026-04-04T09:09:14Z</time></trkpt><trkpt lat="42.12928999425393" lon="14.416376439856325"><ele>80.0</ele><time>2026-04-04T09:09:16Z</time></trkpt><trkpt lat="42.12937106429021" lon="14.4164653957302"><ele>80.0</ele><time>2026-04-04T09:09:18Z</time></trkpt><trkpt lat="42.12944231056424" lon="14.416571923558923"><ele>80.0</ele><time>2026-04-04T09:09:20Z</time></trkpt><trkpt lat="42.12949137994569" lon="14.416697826931383"><ele>80.0</ele><time>2026-04-04T09:09:22Z</time></trkpt><trkpt lat="42.129540703036426" lon="14.416828954111953"><ele>80.0</ele><time>2026-04-04T09:09:24Z</time></trkpt><trkpt lat="42.12959061302226" lon="14.416953695727832"><ele>80.0</ele><time>2026-04-04T09:09:26Z</time></trkpt><trkpt lat="42.129639932091386" lon="14.417086077219741"><ele>80.0</ele><time>2026-04-04T09:09:28Z</time></trkpt><trkpt lat="42.129686109618085" lon="14.417219985113576"><ele>80.0</ele><time>2026-04-04T09:09:30Z</time></trkpt><trkpt lat="42.12973743560368" lon="14.417354046404434"><ele>80.0</ele><time>2026-04-04T09:09:32Z</time></trkpt><trkpt lat="42.12978355276966" lon="14.417487134726349"><ele>80.0</ele><time>2026-04-04T09:09:34Z</time></trkpt><trkpt lat="42.12983455548269" lon="14.417618199177666"><ele>80.0</ele><time>2026-04-04T09:09:36Z</time></trkpt><trkpt lat="42.129883657793904" lon="14.41774864359889"><ele>80.0</ele><time>2026-04-04T09:09:38Z</time></trkpt><trkpt lat="42.129930695919896" lon="14.417882016235678"><ele>80.0</ele><time>2026-04-04T09:09:40Z</time></trkpt><trkpt lat="42.129976747787985" lon="14.418017345975887"><ele>80.0</ele><time>2026-04-04T09:09:42Z</time></trkpt><trkpt lat="42.130023840465846" lon="14.418150758457788"><ele>80.0</ele><time>2026-04-04T09:09:44Z</time></trkpt><trkpt lat="42.13007364614014" lon="14.41827853027187"><ele>80.0</ele><time>2026-04-04T09:09:46Z</time></trkpt><trkpt lat="42.13011889078541" lon="14.418408586255023"><ele>80.0</ele><time>2026-04-04T09:09:48Z</time></trkpt><trkpt lat="42.1301701980451" lon="14.418542300564573"><ele>80.0</ele><time>2026-04-04T09:09:50Z</time></trkpt><trkpt lat="42.130223039009316" lon="14.418677489132023"><ele>80.0</ele><time>2026-04-04T09:09:52Z</time></trkpt><trkpt lat="42.13027242463905" lon="14.418812599568886"><ele>80.25</ele><time>2026-04-04T09:09:53.999Z</time></trkpt><trkpt lat="42.130323381600824" lon="14.41894951955715"><ele>80.5</ele><time>2026-04-04T09:09:55.999Z</time></trkpt><trkpt lat="42.13037255996354" lon="14.419089180565994"><ele>80.75</ele><time>2026-04-04T09:09:57.999Z</time></trkpt><trkpt lat="42.130420613346146" lon="14.419226711705049"><ele>81.0</ele><time>2026-04-04T09:09:59.999Z</time></trkpt><trkpt lat="42.1304697300788" lon="14.419362228358022"><ele>81.0</ele><time>2026-04-04T09:10:01.999Z</time></trkpt><trkpt lat="42.13051831797508" lon="14.419485684188794"><ele>81.0</ele><time>2026-04-04T09:10:03.999Z</time></trkpt><trkpt lat="42.13055458924449" lon="14.419594549489736"><ele>81.0</ele><time>2026-04-04T09:10:05.999Z</time></trkpt><trkpt lat="42.13060321544954" lon="14.419705225310896"><ele>81.0</ele><time>2026-04-04T09:10:07.999Z</time></trkpt><trkpt lat="42.13064485444923" lon="14.419827268896057"><ele>81.0</ele><time>2026-04-04T09:10:09.999Z</time></trkpt><trkpt lat="42.130689050340855" lon="14.419959580304978"><ele>80.75</ele><time>2026-04-04T09:10:11.999Z</time></trkpt><trkpt lat="42.13073755675828" lon="14.420090321716708"><ele>80.5</ele><time>2026-04-04T09:10:13.999Z</time></trkpt><trkpt lat="42.13079141212901" lon="14.420220628615384"><ele>80.25</ele><time>2026-04-04T09:10:15.999Z</time></trkpt><trkpt lat="42.13085527850797" lon="14.420348580362386"><ele>80.0</ele><time>2026-04-04T09:10:17.999Z</time></trkpt><trkpt lat="42.13092847435474" lon="14.420477506463259"><ele>80.5</ele><time>2026-04-04T09:10:19.999Z</time></trkpt><trkpt lat="42.13099682947763" lon="14.420598616657925"><ele>81.0</ele><time>2026-04-04T09:10:21.999Z</time></trkpt><trkpt lat="42.131052437801486" lon="14.420673779694118"><ele>81.5</ele><time>2026-04-04T09:10:23.999Z</time></trkpt><trkpt lat="42.13109974508018" lon="14.420753324298111"><ele>82.0</ele><time>2026-04-04T09:10:25.999Z</time></trkpt><trkpt lat="42.131152523942646" lon="14.420826059632194"><ele>82.5</ele><time>2026-04-04T09:10:27.999Z</time></trkpt><trkpt lat="42.13120631779782" lon="14.420909418922479"><ele>83.0</ele><time>2026-04-04T09:10:29.999Z</time></trkpt><trkpt lat="42.1312573988605" lon="14.420985025245267"><ele>83.0</ele><time>2026-04-04T09:10:31.999Z</time></trkpt><trkpt lat="42.13131290143752" lon="14.421059875562309"><ele>83.0</ele><time>2026-04-04T09:10:33.999Z</time></trkpt><trkpt lat="42.1313669488636" lon="14.421148435699727"><ele>83.0</ele><time>2026-04-04T09:10:35.999Z</time></trkpt><trkpt lat="42.13142522708054" lon="14.421238745799597"><ele>83.0</ele><time>2026-04-04T09:10:37.999Z</time></trkpt><trkpt lat="42.13148549498008" lon="14.421325010575037"><ele>83.0</ele><time>2026-04-04T09:10:39.999Z</time></trkpt><trkpt lat="42.131549325424956" lon="14.421419775033904"><ele>83.0</ele><time>2026-04-04T09:10:41.999Z</time></trkpt><trkpt lat="42.13161769358979" lon="14.421518551150685"><ele>82.0</ele><time>2026-04-04T09:10:43.999Z</time></trkpt><trkpt lat="42.13168700137178" lon="14.421623642793815"><ele>81.0</ele><time>2026-04-04T09:10:45.999Z</time></trkpt><trkpt lat="42.13175811656173" lon="14.421730083321938"><ele>80.0</ele><time>2026-04-04T09:10:47.999Z</time></trkpt><trkpt lat="42.131833414892675" lon="14.421837052648563"><ele>79.0</ele><time>2026-04-04T09:10:49.999Z</time></trkpt><trkpt lat="42.13191385117399" lon="14.421946608881763"><ele>78.0</ele><time>2026-04-04T09:10:51.998Z</time></trkpt><trkpt lat="42.13198925093071" lon="14.422059287413571"><ele>78.5</ele><time>2026-04-04T09:10:54Z</time></trkpt><trkpt lat="42.13206801013387" lon="14.422167394444024"><ele>79.0</ele><time>2026-04-04T09:10:56Z</time></trkpt><trkpt lat="42.132137932948744" lon="14.42229265175945"><ele>79.5</ele><time>2026-04-04T09:10:58Z</time></trkpt><trkpt lat="42.13221644884687" lon="14.422413145054641"><ele>80.0</ele><time>2026-04-04T09:11:00Z</time></trkpt><trkpt lat="42.13229658220309" lon="14.422529398980856"><ele>80.0</ele><time>2026-04-04T09:11:02Z</time></trkpt><trkpt lat="42.13237584330598" lon="14.422647881755358"><ele>80.0</ele><time>2026-04-04T09:11:04Z</time></trkpt><trkpt lat="42.13245574234828" lon="14.422763693779777"><ele>80.0</ele><time>2026-04-04T09:11:06Z</time></trkpt><trkpt lat="42.13253589853369" lon="14.422879926623462"><ele>80.0</ele><time>2026-04-04T09:11:08Z</time></trkpt><trkpt lat="42.13261776070548" lon="14.422998897313978"><ele>79.0</ele><time>2026-04-04T09:11:10Z</time></trkpt><trkpt lat="42.13269829560625" lon="14.423123123267404"><ele>78.0</ele><time>2026-04-04T09:11:12Z</time></trkpt><trkpt lat="42.13278135216451" lon="14.42324491148654"><ele>77.0</ele><time>2026-04-04T09:11:14Z</time></trkpt><trkpt lat="42.13286478891631" lon="14.423365418836903"><ele>76.0</ele><time>2026-04-04T09:11:16Z</time></trkpt><trkpt lat="42.13294388566976" lon="14.423488604499509"><ele>76.0</ele><time>2026-04-04T09:11:18Z</time></trkpt><trkpt lat="42.133025692730286" lon="14.423607315524968"><ele>76.0</ele><time>2026-04-04T09:11:20Z</time></trkpt><trkpt lat="42.1331079866021" lon="14.423729498230818"><ele>76.0</ele><time>2026-04-04T09:11:22Z</time></trkpt><trkpt lat="42.1331930375627" lon="14.423850878301579"><ele>76.0</ele><time>2026-04-04T09:11:24Z</time></trkpt><trkpt lat="42.133273744873875" lon="14.423976217337174"><ele>75.25</ele><time>2026-04-04T09:11:26Z</time></trkpt><trkpt lat="42.133356003215" lon="14.42409837676906"><ele>74.5</ele><time>2026-04-04T09:11:28Z</time></trkpt><trkpt lat="42.133437334545874" lon="14.424220900724098"><ele>73.75</ele><time>2026-04-04T09:11:30Z</time></trkpt><trkpt lat="42.13351467460479" lon="14.424331859520256"><ele>73.0</ele><time>2026-04-04T09:11:32Z</time></trkpt><trkpt lat="42.13358968370242" lon="14.424443051457407"><ele>73.0</ele><time>2026-04-04T09:11:34Z</time></trkpt><trkpt lat="42.133665287403424" lon="14.424554863189364"><ele>73.0</ele><time>2026-04-04T09:11:36Z</time></trkpt><trkpt lat="42.13374065089842" lon="14.424663936112902"><ele>73.0</ele><time>2026-04-04T09:11:38Z</time></trkpt><trkpt lat="42.13381477681659" lon="14.424777619805637"><ele>73.0</ele><time>2026-04-04T09:11:40Z</time></trkpt><trkpt lat="42.1338908360893" lon="14.4248923345703"><ele>73.0</ele><time>2026-04-04T09:11:42Z</time></trkpt><trkpt lat="42.13396721253422" lon="14.425009080492286"><ele>73.0</ele><time>2026-04-04T09:11:44Z</time></trkpt><trkpt lat="42.13404697297602" lon="14.425129740545827"><ele>73.0</ele><time>2026-04-04T09:11:46Z</time></trkpt><trkpt lat="42.13412841773175" lon="14.425251006414024"><ele>73.0</ele><time>2026-04-04T09:11:48Z</time></trkpt><trkpt lat="42.13421074426731" lon="14.425374144111496"><ele>73.0</ele><time>2026-04-04T09:11:50Z</time></trkpt><trkpt lat="42.1342935846926" lon="14.425495559766215"><ele>72.6</ele><time>2026-04-04T09:11:52Z</time></trkpt><trkpt lat="42.13437722677735" lon="14.425617597373007"><ele>72.19999999999999</ele><time>2026-04-04T09:11:54Z</time></trkpt><trkpt lat="42.134419993636214" lon="14.425680813268965"><ele>71.8</ele><time>2026-04-04T09:11:55Z</time></trkpt><trkpt lat="42.134503931985144" lon="14.425806420006195"><ele>71.39999999999999</ele><time>2026-04-04T09:11:56.999Z</time></trkpt><trkpt lat="42.13454630917209" lon="14.425870122108117"><ele>71.0</ele><time>2026-04-04T09:11:57.999Z</time></trkpt><trkpt lat="42.13462862988752" lon="14.425996808054732"><ele>71.0</ele><time>2026-04-04T09:11:59.999Z</time></trkpt><trkpt lat="42.13467247894598" lon="14.42606126728894"><ele>71.0</ele><time>2026-04-04T09:12:00.999Z</time></trkpt><trkpt lat="42.13471579145609" lon="14.426125197707199"><ele>71.0</ele><time>2026-04-04T09:12:01.999Z</time></trkpt><trkpt lat="42.13475885106848" lon="14.426189809537176"><ele>71.0</ele><time>2026-04-04T09:12:02.999Z</time></trkpt><trkpt lat="42.1348041038385" lon="14.426253264118909"><ele>71.0</ele><time>2026-04-04T09:12:03.999Z</time></trkpt><trkpt lat="42.134847218318264" lon="14.426315251478048"><ele>71.0</ele><time>2026-04-04T09:12:04.999Z</time></trkpt><trkpt lat="42.13489075745752" lon="14.426379981444594"><ele>71.0</ele><time>2026-04-04T09:12:05.999Z</time></trkpt><trkpt lat="42.134936048298904" lon="14.426445891093621"><ele>70.66666666666667</ele><time>2026-04-04T09:12:06.999Z</time></trkpt><trkpt lat="42.13497946009809" lon="14.42651043974988"><ele>70.33333333333334</ele><time>2026-04-04T09:12:07.999Z</time></trkpt><trkpt lat="42.13502158420598" lon="14.426573583122789"><ele>70.0</ele><time>2026-04-04T09:12:08.999Z</time></trkpt><trkpt lat="42.135105228342674" lon="14.426694186434704"><ele>69.66666666666667</ele><time>2026-04-04T09:12:10.999Z</time></trkpt><trkpt lat="42.13518861479233" lon="14.426818824341515"><ele>69.33333333333333</ele><time>2026-04-04T09:12:12.999Z</time></trkpt><trkpt lat="42.135230290344545" lon="14.426882997328743"><ele>69.0</ele><time>2026-04-04T09:12:13.999Z</time></trkpt><trkpt lat="42.13531111664763" lon="14.427007011719072"><ele>69.0</ele><time>2026-04-04T09:12:15.999Z</time></trkpt><trkpt lat="42.135392192822884" lon="14.427127284083182"><ele>69.0</ele><time>2026-04-04T09:12:17.999Z</time></trkpt><trkpt lat="42.13546502673721" lon="14.427232613135489"><ele>69.0</ele><time>2026-04-04T09:12:19.999Z</time></trkpt><trkpt lat="42.1355280804912" lon="14.427326414640868"><ele>69.0</ele><time>2026-04-04T09:12:21.999Z</time></trkpt><trkpt lat="42.13558731879119" lon="14.427409192875892"><ele>69.0</ele><time>2026-04-04T09:12:23.999Z</time></trkpt><trkpt lat="42.135637225441364" lon="14.427485407690687"><ele>69.0</ele><time>2026-04-04T09:12:25.999Z</time></trkpt><trkpt lat="42.13568677675952" lon="14.427559433161791"><ele>69.0</ele><time>2026-04-04T09:12:27.999Z</time></trkpt><trkpt lat="42.1357416397258" lon="14.427633473784258"><ele>69.0</ele><time>2026-04-04T09:12:29.999Z</time></trkpt><trkpt lat="42.13579391619532" lon="14.427715475147192"><ele>69.0</ele><time>2026-04-04T09:12:31.999Z</time></trkpt><trkpt lat="42.13583191641988" lon="14.427814423638129"><ele>69.0</ele><time>2026-04-04T09:12:33.999Z</time></trkpt><trkpt lat="42.13585870715905" lon="14.427934975208007"><ele>69.0</ele><time>2026-04-04T09:12:35.999Z</time></trkpt><trkpt lat="42.13588126645685" lon="14.428071150379713"><ele>69.0</ele><time>2026-04-04T09:12:37.999Z</time></trkpt><trkpt lat="42.13594041139594" lon="14.428191358883279"><ele>69.0</ele><time>2026-04-04T09:12:39.999Z</time></trkpt><trkpt lat="42.13601776183671" lon="14.428302842496127"><ele>69.0</ele><time>2026-04-04T09:12:41.999Z</time></trkpt><trkpt lat="42.13610309988155" lon="14.428397196329628"><ele>69.0</ele><time>2026-04-04T09:12:43.999Z</time></trkpt><trkpt lat="42.13620047830892" lon="14.428481636585635"><ele>69.0</ele><time>2026-04-04T09:12:45.999Z</time></trkpt><trkpt lat="42.136304686822434" lon="14.428555746815597"><ele>69.0</ele><time>2026-04-04T09:12:47.999Z</time></trkpt><trkpt lat="42.13640125840985" lon="14.42864545280358"><ele>69.0</ele><time>2026-04-04T09:12:49.999Z</time></trkpt><trkpt lat="42.136487933133026" lon="14.428749852253286"><ele>69.0</ele><time>2026-04-04T09:12:51.999Z</time></trkpt><trkpt lat="42.13656403995604" lon="14.42886102346927"><ele>69.0</ele><time>2026-04-04T09:12:53.998Z</time></trkpt><trkpt lat="42.136639134411" lon="14.42897796693632"><ele>68.5</ele><time>2026-04-04T09:12:55.998Z</time></trkpt><trkpt lat="42.13671454850246" lon="14.429093006731785"><ele>68.0</ele><time>2026-04-04T09:12:57.998Z</time></trkpt><trkpt lat="42.1367943955518" lon="14.42921034132132"><ele>67.5</ele><time>2026-04-04T09:13:00Z</time></trkpt><trkpt lat="42.13687350875442" lon="14.429327425315416"><ele>67.0</ele><time>2026-04-04T09:13:02Z</time></trkpt><trkpt lat="42.13695232016438" lon="14.429443357123398"><ele>67.0</ele><time>2026-04-04T09:13:04Z</time></trkpt><trkpt lat="42.13703232578254" lon="14.429562599204585"><ele>67.0</ele><time>2026-04-04T09:13:06Z</time></trkpt><trkpt lat="42.13711219523393" lon="14.429677888701725"><ele>67.0</ele><time>2026-04-04T09:13:08Z</time></trkpt><trkpt lat="42.13718758634638" lon="14.429799718909168"><ele>67.0</ele><time>2026-04-04T09:13:10Z</time></trkpt><trkpt lat="42.137268720686" lon="14.429918150366467"><ele>66.75</ele><time>2026-04-04T09:13:12Z</time></trkpt><trkpt lat="42.13734694113213" lon="14.430037714911133"><ele>66.5</ele><time>2026-04-04T09:13:14Z</time></trkpt><trkpt lat="42.13742764954187" lon="14.430158823139587"><ele>66.25</ele><time>2026-04-04T09:13:16Z</time></trkpt><trkpt lat="42.13751127699955" lon="14.430278743387577"><ele>66.0</ele><time>2026-04-04T09:13:18Z</time></trkpt><trkpt lat="42.137590597696196" lon="14.430399685781618"><ele>65.25</ele><time>2026-04-04T09:13:20Z</time></trkpt><trkpt lat="42.137671088733924" lon="14.430516439710798"><ele>64.5</ele><time>2026-04-04T09:13:22Z</time></trkpt><trkpt lat="42.13775079569405" lon="14.430635590143257"><ele>63.75</ele><time>2026-04-04T09:13:24Z</time></trkpt><trkpt lat="42.13782983085538" lon="14.43075431468609"><ele>63.0</ele><time>2026-04-04T09:13:26Z</time></trkpt><trkpt lat="42.13791456805502" lon="14.430871156162432"><ele>63.0</ele><time>2026-04-04T09:13:28Z</time></trkpt><trkpt lat="42.13799557195858" lon="14.430998983670605"><ele>63.0</ele><time>2026-04-04T09:13:30Z</time></trkpt><trkpt lat="42.13807911559789" lon="14.431122137556766"><ele>63.0</ele><time>2026-04-04T09:13:32Z</time></trkpt><trkpt lat="42.1381616738177" lon="14.43124764876381"><ele>63.0</ele><time>2026-04-04T09:13:34Z</time></trkpt><trkpt lat="42.138201596072854" lon="14.431314203390217"><ele>63.0</ele><time>2026-04-04T09:13:35Z</time></trkpt><trkpt lat="42.13828790018849" lon="14.431436010006617"><ele>63.599999999999994</ele><time>2026-04-04T09:13:37Z</time></trkpt><trkpt lat="42.13837089228638" lon="14.431560395950653"><ele>64.19999999999999</ele><time>2026-04-04T09:13:39Z</time></trkpt><trkpt lat="42.13841314696524" lon="14.431623418993878"><ele>64.8</ele><time>2026-04-04T09:13:40Z</time></trkpt><trkpt lat="42.13845697187766" lon="14.431685762680024"><ele>65.39999999999999</ele><time>2026-04-04T09:13:41Z</time></trkpt><trkpt lat="42.13854008718219" lon="14.431814074612861"><ele>66.0</ele><time>2026-04-04T09:13:43Z</time></trkpt><trkpt lat="42.13862507640975" lon="14.431935866780535"><ele>66.0</ele><time>2026-04-04T09:13:45Z</time></trkpt><trkpt lat="42.13870818960602" lon="14.432059152423454"><ele>66.0</ele><time>2026-04-04T09:13:47Z</time></trkpt><trkpt lat="42.138793658817136" lon="14.432180377208718"><ele>66.0</ele><time>2026-04-04T09:13:49Z</time></trkpt><trkpt lat="42.138875900111906" lon="14.4323029703427"><ele>66.0</ele><time>2026-04-04T09:13:51Z</time></trkpt><trkpt lat="42.13896090773755" lon="14.432424992887935"><ele>65.8</ele><time>2026-04-04T09:13:53Z</time></trkpt><trkpt lat="42.13904124641992" lon="14.432549490698946"><ele>65.6</ele><time>2026-04-04T09:13:55Z</time></trkpt><trkpt lat="42.139123126909055" lon="14.432674408756855"><ele>65.4</ele><time>2026-04-04T09:13:57Z</time></trkpt><trkpt lat="42.13920522372922" lon="14.432794327536076"><ele>65.2</ele><time>2026-04-04T09:13:59Z</time></trkpt><trkpt lat="42.13924868996548" lon="14.432855804689138"><ele>65.0</ele><time>2026-04-04T09:14:00Z</time></trkpt><trkpt lat="42.13932996894293" lon="14.432975653333882"><ele>65.0</ele><time>2026-04-04T09:14:01.999Z</time></trkpt><trkpt lat="42.139412116270925" lon="14.433093939253684"><ele>65.0</ele><time>2026-04-04T09:14:03.999Z</time></trkpt><trkpt lat="42.139493596150984" lon="14.433219645823137"><ele>65.0</ele><time>2026-04-04T09:14:05.999Z</time></trkpt><trkpt lat="42.13957662293818" lon="14.43334372793936"><ele>65.0</ele><time>2026-04-04T09:14:07.999Z</time></trkpt><trkpt lat="42.1396605818019" lon="14.433464378262917"><ele>65.0</ele><time>2026-04-04T09:14:09.999Z</time></trkpt><trkpt lat="42.13974348616461" lon="14.433585158611217"><ele>65.0</ele><time>2026-04-04T09:14:11.999Z</time></trkpt><trkpt lat="42.139821486483754" lon="14.433713420036478"><ele>65.0</ele><time>2026-04-04T09:14:13.999Z</time></trkpt><trkpt lat="42.1398791796225" lon="14.433862852552751"><ele>65.0</ele><time>2026-04-04T09:14:15.999Z</time></trkpt><trkpt lat="42.13989587206248" lon="14.43394607287976"><ele>65.0</ele><time>2026-04-04T09:14:16.999Z</time></trkpt><trkpt lat="42.139905587341374" lon="14.434038020421836"><ele>64.16666666666667</ele><time>2026-04-04T09:14:17.999Z</time></trkpt><trkpt lat="42.13991838764508" lon="14.43412834045453"><ele>63.333333333333336</ele><time>2026-04-04T09:14:18.999Z</time></trkpt><trkpt lat="42.139935673217224" lon="14.434216043994187"><ele>62.5</ele><time>2026-04-04T09:14:19.999Z</time></trkpt><trkpt lat="42.139958923877984" lon="14.434295156215724"><ele>61.66666666666667</ele><time>2026-04-04T09:14:20.999Z</time></trkpt><trkpt lat="42.14004105701743" lon="14.434412954345058"><ele>60.833333333333336</ele><time>2026-04-04T09:14:22.999Z</time></trkpt><trkpt lat="42.140105351928845" lon="14.434417131188512"><ele>60.0</ele><time>2026-04-04T09:14:23.999Z</time></trkpt><trkpt lat="42.14020552927727" lon="14.434422063989079"><ele>60.0</ele><time>2026-04-04T09:14:25.999Z</time></trkpt><trkpt lat="42.140310956994774" lon="14.43449183241955"><ele>60.0</ele><time>2026-04-04T09:14:27.999Z</time></trkpt><trkpt lat="42.14041452686292" lon="14.434530798090867"><ele>60.0</ele><time>2026-04-04T09:14:29.999Z</time></trkpt><trkpt lat="42.14044645783684" lon="14.43463549612648"><ele>60.0</ele><time>2026-04-04T09:14:30.999Z</time></trkpt><trkpt lat="42.14052781104723" lon="14.434748864830535"><ele>60.0</ele><time>2026-04-04T09:14:32.999Z</time></trkpt><trkpt lat="42.14060592144913" lon="14.434867411260434"><ele>60.25</ele><time>2026-04-04T09:14:34.999Z</time></trkpt><trkpt lat="42.140688940472224" lon="14.434991001963851"><ele>60.5</ele><time>2026-04-04T09:14:36.999Z</time></trkpt><trkpt lat="42.14077156681759" lon="14.435113363801403"><ele>60.75</ele><time>2026-04-04T09:14:38.999Z</time></trkpt><trkpt lat="42.1408541247698" lon="14.43523872058089"><ele>61.0</ele><time>2026-04-04T09:14:40.999Z</time></trkpt><trkpt lat="42.14093993281567" lon="14.435360508178583"><ele>61.8</ele><time>2026-04-04T09:14:42.999Z</time></trkpt><trkpt lat="42.141021683178884" lon="14.43548599199237"><ele>62.599999999999994</ele><time>2026-04-04T09:14:44.999Z</time></trkpt><trkpt lat="42.14110040776469" lon="14.435613712871136"><ele>63.4</ele><time>2026-04-04T09:14:46.999Z</time></trkpt><trkpt lat="42.141142643040006" lon="14.435676674948922"><ele>64.2</ele><time>2026-04-04T09:14:47.999Z</time></trkpt><trkpt lat="42.141226805347834" lon="14.435800753674592"><ele>65.0</ele><time>2026-04-04T09:14:49.999Z</time></trkpt><trkpt lat="42.14131019883505" lon="14.435926521308895"><ele>65.0</ele><time>2026-04-04T09:14:51.999Z</time></trkpt><trkpt lat="42.14135255578152" lon="14.435990581097663"><ele>65.0</ele><time>2026-04-04T09:14:52.999Z</time></trkpt><trkpt lat="42.14139544164346" lon="14.436053365444838"><ele>65.0</ele><time>2026-04-04T09:14:53.999Z</time></trkpt><trkpt lat="42.141438610929065" lon="14.436117181878023"><ele>65.0</ele><time>2026-04-04T09:14:54.999Z</time></trkpt><trkpt lat="42.14148074038836" lon="14.436181874795185"><ele>65.0</ele><time>2026-04-04T09:14:55.999Z</time></trkpt><trkpt lat="42.14152239973562" lon="14.436246137859952"><ele>65.0</ele><time>2026-04-04T09:14:56.999Z</time></trkpt><trkpt lat="42.14156424067637" lon="14.436311204783467"><ele>65.0</ele><time>2026-04-04T09:14:57.999Z</time></trkpt><trkpt lat="42.141606593314975" lon="14.436375181980718"><ele>65.0</ele><time>2026-04-04T09:14:58.999Z</time></trkpt><trkpt lat="42.14165037518183" lon="14.436438281035231"><ele>64.25</ele><time>2026-04-04T09:14:59.998Z</time></trkpt><trkpt lat="42.14173331257327" lon="14.436557161106371"><ele>63.5</ele><time>2026-04-04T09:15:01.998Z</time></trkpt><trkpt lat="42.14181632920149" lon="14.436681014319925"><ele>62.75</ele><time>2026-04-04T09:15:03.998Z</time></trkpt><trkpt lat="42.14190024053282" lon="14.436803507003498"><ele>62.0</ele><time>2026-04-04T09:15:06Z</time></trkpt><trkpt lat="42.14198385237705" lon="14.436925153788094"><ele>62.0</ele><time>2026-04-04T09:15:08Z</time></trkpt><trkpt lat="42.142063442513056" lon="14.437050098537847"><ele>62.0</ele><time>2026-04-04T09:15:10Z</time></trkpt><trkpt lat="42.1421491655246" lon="14.437174048829617"><ele>62.0</ele><time>2026-04-04T09:15:12Z</time></trkpt><trkpt lat="42.14219166772848" lon="14.437237373246145"><ele>62.0</ele><time>2026-04-04T09:15:13Z</time></trkpt><trkpt lat="42.142274799847804" lon="14.437364968716658"><ele>62.0</ele><time>2026-04-04T09:15:15Z</time></trkpt><trkpt lat="42.14231718484006" lon="14.437428132407844"><ele>61.875</ele><time>2026-04-04T09:15:16Z</time></trkpt><trkpt lat="42.14236048344786" lon="14.437490330328206"><ele>61.75</ele><time>2026-04-04T09:15:17Z</time></trkpt><trkpt lat="42.142404456725444" lon="14.43755241900492"><ele>61.625</ele><time>2026-04-04T09:15:18Z</time></trkpt><trkpt lat="42.14244760417832" lon="14.437615660968804"><ele>61.5</ele><time>2026-04-04T09:15:19Z</time></trkpt><trkpt lat="42.14249086413259" lon="14.437682037376742"><ele>61.375</ele><time>2026-04-04T09:15:20Z</time></trkpt><trkpt lat="42.14253475487358" lon="14.437747021111592"><ele>61.25</ele><time>2026-04-04T09:15:21Z</time></trkpt><trkpt lat="42.14257685085753" lon="14.437811829554029"><ele>61.125</ele><time>2026-04-04T09:15:22Z</time></trkpt><trkpt lat="42.14261980890902" lon="14.437875818940684"><ele>61.0</ele><time>2026-04-04T09:15:23Z</time></trkpt><trkpt lat="42.14266350257012" lon="14.437938913753138"><ele>60.75</ele><time>2026-04-04T09:15:24Z</time></trkpt><trkpt lat="42.142745603464505" lon="14.438060990402336"><ele>60.5</ele><time>2026-04-04T09:15:26Z</time></trkpt><trkpt lat="42.14282686649773" lon="14.438181526416914"><ele>60.25</ele><time>2026-04-04T09:15:28Z</time></trkpt><trkpt lat="42.1429065159964" lon="14.438303962401474"><ele>60.0</ele><time>2026-04-04T09:15:30Z</time></trkpt><trkpt lat="42.14298917668799" lon="14.438425891990748"><ele>60.0</ele><time>2026-04-04T09:15:32Z</time></trkpt><trkpt lat="42.143073203509125" lon="14.438552390417328"><ele>60.0</ele><time>2026-04-04T09:15:34Z</time></trkpt><trkpt lat="42.14316103154414" lon="14.438674672422414"><ele>60.0</ele><time>2026-04-04T09:15:36Z</time></trkpt><trkpt lat="42.14320303941016" lon="14.438738246524643"><ele>60.0</ele><time>2026-04-04T09:15:37Z</time></trkpt><trkpt lat="42.14324538665986" lon="14.43880121623431"><ele>60.0</ele><time>2026-04-04T09:15:38Z</time></trkpt><trkpt lat="42.143325646450975" lon="14.438926796939441"><ele>59.75</ele><time>2026-04-04T09:15:40Z</time></trkpt><trkpt lat="42.14340774341158" lon="14.439049023125623"><ele>59.5</ele><time>2026-04-04T09:15:42Z</time></trkpt><trkpt lat="42.1434900593898" lon="14.439166718632539"><ele>59.25</ele><time>2026-04-04T09:15:44Z</time></trkpt><trkpt lat="42.14357164087485" lon="14.439286508432334"><ele>59.0</ele><time>2026-04-04T09:15:46Z</time></trkpt><trkpt lat="42.143654563531115" lon="14.43940295878417"><ele>59.0</ele><time>2026-04-04T09:15:48Z</time></trkpt><trkpt lat="42.143737467915976" lon="14.439517824343005"><ele>59.0</ele><time>2026-04-04T09:15:50Z</time></trkpt><trkpt lat="42.14381721871761" lon="14.439636707575895"><ele>59.0</ele><time>2026-04-04T09:15:52Z</time></trkpt><trkpt lat="42.143895519251856" lon="14.439758654032252"><ele>59.0</ele><time>2026-04-04T09:15:54Z</time></trkpt><trkpt lat="42.14397213511043" lon="14.43987908701276"><ele>58.5</ele><time>2026-04-04T09:15:56Z</time></trkpt><trkpt lat="42.144053354608054" lon="14.439995230715185"><ele>58.0</ele><time>2026-04-04T09:15:58Z</time></trkpt><trkpt lat="42.144131849468806" lon="14.440116524114611"><ele>57.5</ele><time>2026-04-04T09:16:00Z</time></trkpt><trkpt lat="42.14421860001382" lon="14.440236127638572"><ele>57.0</ele><time>2026-04-04T09:16:02Z</time></trkpt><trkpt lat="42.14430158130153" lon="14.440360524743655"><ele>57.5</ele><time>2026-04-04T09:16:04Z</time></trkpt><trkpt lat="42.144386031459426" lon="14.440483501761301"><ele>58.0</ele><time>2026-04-04T09:16:05.999Z</time></trkpt><trkpt lat="42.14447055093066" lon="14.440607778914796"><ele>58.5</ele><time>2026-04-04T09:16:07.999Z</time></trkpt><trkpt lat="42.14455323266864" lon="14.44073203644829"><ele>59.0</ele><time>2026-04-04T09:16:09.999Z</time></trkpt><trkpt lat="42.14463527822258" lon="14.44085750166286"><ele>59.0</ele><time>2026-04-04T09:16:11.999Z</time></trkpt><trkpt lat="42.14467779245913" lon="14.440920206156234"><ele>59.00000000000001</ele><time>2026-04-04T09:16:12.999Z</time></trkpt><trkpt lat="42.144761232376716" lon="14.441042378929263"><ele>59.00000000000001</ele><time>2026-04-04T09:16:14.999Z</time></trkpt><trkpt lat="42.14484364954536" lon="14.441166308837602"><ele>59.0</ele><time>2026-04-04T09:16:16.999Z</time></trkpt><trkpt lat="42.14492910969913" lon="14.441288824464387"><ele>59.0</ele><time>2026-04-04T09:16:18.999Z</time></trkpt><trkpt lat="42.145010116079504" lon="14.441415453513297"><ele>59.0</ele><time>2026-04-04T09:16:20.999Z</time></trkpt><trkpt lat="42.14505337611552" lon="14.441477160667148"><ele>59.00000000000001</ele><time>2026-04-04T09:16:21.999Z</time></trkpt><trkpt lat="42.14509901479204" lon="14.44153575620869"><ele>59.00000000000001</ele><time>2026-04-04T09:16:22.999Z</time></trkpt><trkpt lat="42.145180523339754" lon="14.441656451490338"><ele>59.0</ele><time>2026-04-04T09:16:24.999Z</time></trkpt><trkpt lat="42.145255633074235" lon="14.441776342949906"><ele>59.0</ele><time>2026-04-04T09:16:26.999Z</time></trkpt><trkpt lat="42.14533304795328" lon="14.441890999763194"><ele>59.0</ele><time>2026-04-04T09:16:28.999Z</time></trkpt><trkpt lat="42.14541084139204" lon="14.442007970752968"><ele>59.0</ele><time>2026-04-04T09:16:30.999Z</time></trkpt><trkpt lat="42.1454890567816" lon="14.442123155428417"><ele>59.0</ele><time>2026-04-04T09:16:32.999Z</time></trkpt><trkpt lat="42.14556495616183" lon="14.442239591049512"><ele>59.0</ele><time>2026-04-04T09:16:34.999Z</time></trkpt><trkpt lat="42.145643587313984" lon="14.442351572019565"><ele>58.6</ele><time>2026-04-04T09:16:36.999Z</time></trkpt><trkpt lat="42.14571991881089" lon="14.442468887183862"><ele>58.2</ele><time>2026-04-04T09:16:38.999Z</time></trkpt><trkpt lat="42.14579514710921" lon="14.44257726958166"><ele>57.800000000000004</ele><time>2026-04-04T09:16:40.999Z</time></trkpt><trkpt lat="42.14586331834613" lon="14.442677446674207"><ele>57.400000000000006</ele><time>2026-04-04T09:16:42.999Z</time></trkpt><trkpt lat="42.14592501219479" lon="14.442770430973741"><ele>57.0</ele><time>2026-04-04T09:16:44.999Z</time></trkpt><trkpt lat="42.1459850642826" lon="14.442863454395077"><ele>57.0</ele><time>2026-04-04T09:16:46.999Z</time></trkpt><trkpt lat="42.14604526588149" lon="14.442959369274867"><ele>57.0</ele><time>2026-04-04T09:16:48.999Z</time></trkpt><trkpt lat="42.14611092630555" lon="14.443053126485918"><ele>57.0</ele><time>2026-04-04T09:16:50.999Z</time></trkpt><trkpt lat="42.14617312807875" lon="14.44315192807383"><ele>57.0</ele><time>2026-04-04T09:16:52.999Z</time></trkpt><trkpt lat="42.14623644391032" lon="14.443253719866075"><ele>57.0</ele><time>2026-04-04T09:16:54.999Z</time></trkpt><trkpt lat="42.14630395295464" lon="14.443357223480074"><ele>57.2</ele><time>2026-04-04T09:16:56.999Z</time></trkpt><trkpt lat="42.1463750424669" lon="14.443460187411164"><ele>57.400000000000006</ele><time>2026-04-04T09:16:58.999Z</time></trkpt><trkpt lat="42.14644594210559" lon="14.443561050449492"><ele>57.599999999999994</ele><time>2026-04-04T09:17:00.999Z</time></trkpt><trkpt lat="42.146516069663726" lon="14.443666417816043"><ele>57.8</ele><time>2026-04-04T09:17:02.999Z</time></trkpt><trkpt lat="42.14658827120527" lon="14.443770268953767"><ele>58.0</ele><time>2026-04-04T09:17:04.998Z</time></trkpt><trkpt lat="42.146661226814786" lon="14.443873421774475"><ele>58.0</ele><time>2026-04-04T09:17:06.998Z</time></trkpt><trkpt lat="42.146731158237785" lon="14.443975610026184"><ele>58.0</ele><time>2026-04-04T09:17:08.998Z</time></trkpt><trkpt lat="42.14680232757823" lon="14.444083987380207"><ele>58.0</ele><time>2026-04-04T09:17:10.998Z</time></trkpt><trkpt lat="42.14687348756408" lon="14.444189960531821"><ele>58.0</ele><time>2026-04-04T09:17:13Z</time></trkpt><trkpt lat="42.14694652340978" lon="14.444298716249333"><ele>58.0</ele><time>2026-04-04T09:17:15Z</time></trkpt><trkpt lat="42.14702073963102" lon="14.444411057040622"><ele>58.0</ele><time>2026-04-04T09:17:17Z</time></trkpt><trkpt lat="42.14709918461309" lon="14.444521699932194"><ele>58.0</ele><time>2026-04-04T09:17:19Z</time></trkpt><trkpt lat="42.14717101458161" lon="14.44463565130016"><ele>58.0</ele><time>2026-04-04T09:17:21Z</time></trkpt><trkpt lat="42.14724193760064" lon="14.444739709471136"><ele>58.0</ele><time>2026-04-04T09:17:23Z</time></trkpt><trkpt lat="42.14731455375572" lon="14.444843056059138"><ele>58.0</ele><time>2026-04-04T09:17:25Z</time></trkpt><trkpt lat="42.14739486071673" lon="14.444957480234605"><ele>58.0</ele><time>2026-04-04T09:17:27Z</time></trkpt><trkpt lat="42.14747809476568" lon="14.44507229431628"><ele>58.0</ele><time>2026-04-04T09:17:29Z</time></trkpt><trkpt lat="42.147555764655394" lon="14.445189729589131"><ele>58.0</ele><time>2026-04-04T09:17:31Z</time></trkpt><trkpt lat="42.1476346255231" lon="14.445312038551991"><ele>58.0</ele><time>2026-04-04T09:17:33Z</time></trkpt><trkpt lat="42.14771249673942" lon="14.445434472869769"><ele>57.0</ele><time>2026-04-04T09:17:35Z</time></trkpt><trkpt lat="42.147795197102056" lon="14.445554117929564"><ele>56.0</ele><time>2026-04-04T09:17:37Z</time></trkpt><trkpt lat="42.14787699260067" lon="14.445671672619088"><ele>55.0</ele><time>2026-04-04T09:17:39Z</time></trkpt><trkpt lat="42.14796171382506" lon="14.445788922866639"><ele>54.0</ele><time>2026-04-04T09:17:41Z</time></trkpt><trkpt lat="42.148043910208294" lon="14.445912140535293"><ele>54.0</ele><time>2026-04-04T09:17:43Z</time></trkpt><trkpt lat="42.14812372665799" lon="14.446036233904977"><ele>54.0</ele><time>2026-04-04T09:17:45Z</time></trkpt><trkpt lat="42.14820508094132" lon="14.446161217532612"><ele>54.0</ele><time>2026-04-04T09:17:47Z</time></trkpt><trkpt lat="42.148290491437564" lon="14.446282895974038"><ele>54.0</ele><time>2026-04-04T09:17:49Z</time></trkpt><trkpt lat="42.148373426200344" lon="14.446409011592591"><ele>53.6</ele><time>2026-04-04T09:17:51Z</time></trkpt><trkpt lat="42.148415147031855" lon="14.446472691838416"><ele>53.2</ele><time>2026-04-04T09:17:52Z</time></trkpt><trkpt lat="42.14849902449468" lon="14.446598646128193"><ele>52.800000000000004</ele><time>2026-04-04T09:17:54Z</time></trkpt><trkpt lat="42.14858315749746" lon="14.446721684524961"><ele>52.400000000000006</ele><time>2026-04-04T09:17:56Z</time></trkpt><trkpt lat="42.148666412684946" lon="14.446847568031675"><ele>52.0</ele><time>2026-04-04T09:17:58Z</time></trkpt><trkpt lat="42.14874830375016" lon="14.446971444848458"><ele>52.0</ele><time>2026-04-04T09:18:00Z</time></trkpt><trkpt lat="42.14882741389606" lon="14.447089302794815"><ele>52.0</ele><time>2026-04-04T09:18:02Z</time></trkpt><trkpt lat="42.14890925355812" lon="14.447210854319353"><ele>52.0</ele><time>2026-04-04T09:18:04Z</time></trkpt><trkpt lat="42.14899252310004" lon="14.447335993113464"><ele>52.0</ele><time>2026-04-04T09:18:05.999Z</time></trkpt><trkpt lat="42.14903606164295" lon="14.447400583396728"><ele>52.0</ele><time>2026-04-04T09:18:06.999Z</time></trkpt><trkpt lat="42.14907957360476" lon="14.44746432123168"><ele>52.0</ele><time>2026-04-04T09:18:07.999Z</time></trkpt><trkpt lat="42.14912291104081" lon="14.447530154587826"><ele>52.0</ele><time>2026-04-04T09:18:08.999Z</time></trkpt><trkpt lat="42.14916597534923" lon="14.447593701741495"><ele>52.0</ele><time>2026-04-04T09:18:09.999Z</time></trkpt><trkpt lat="42.14920820126904" lon="14.44765769236905"><ele>52.0</ele><time>2026-04-04T09:18:10.999Z</time></trkpt><trkpt lat="42.149252989161035" lon="14.447721202862594"><ele>52.0</ele><time>2026-04-04T09:18:11.999Z</time></trkpt><trkpt lat="42.149294903057836" lon="14.447785267697558"><ele>52.0</ele><time>2026-04-04T09:18:12.999Z</time></trkpt><trkpt lat="42.149339117916" lon="14.447848518089643"><ele>52.0</ele><time>2026-04-04T09:18:13.999Z</time></trkpt><trkpt lat="42.149381560522706" lon="14.447913318976225"><ele>52.0</ele><time>2026-04-04T09:18:14.999Z</time></trkpt><trkpt lat="42.149424289299056" lon="14.447977548932704"><ele>52.0</ele><time>2026-04-04T09:18:15.999Z</time></trkpt><trkpt lat="42.14946911795821" lon="14.448041062549088"><ele>52.0</ele><time>2026-04-04T09:18:16.999Z</time></trkpt><trkpt lat="42.149554141464904" lon="14.44816696960319"><ele>52.0</ele><time>2026-04-04T09:18:18.999Z</time></trkpt><trkpt lat="42.149597633369304" lon="14.448231824559256"><ele>52.0</ele><time>2026-04-04T09:18:19.999Z</time></trkpt><trkpt lat="42.14963930283836" lon="14.448297702430944"><ele>52.0</ele><time>2026-04-04T09:18:20.999Z</time></trkpt><trkpt lat="42.149683562760394" lon="14.448360475547352"><ele>52.0</ele><time>2026-04-04T09:18:21.999Z</time></trkpt><trkpt lat="42.14972661114563" lon="14.448422693406647"><ele>52.0</ele><time>2026-04-04T09:18:22.999Z</time></trkpt><trkpt lat="42.1497687235569" lon="14.448488017426198"><ele>52.0</ele><time>2026-04-04T09:18:23.999Z</time></trkpt><trkpt lat="42.149851388390815" lon="14.448611887648534"><ele>52.0</ele><time>2026-04-04T09:18:25.999Z</time></trkpt><trkpt lat="42.149935217837296" lon="14.448734314814361"><ele>52.0</ele><time>2026-04-04T09:18:27.999Z</time></trkpt><trkpt lat="42.15001963194517" lon="14.448854735202907"><ele>52.0</ele><time>2026-04-04T09:18:29.999Z</time></trkpt><trkpt lat="42.15009932925725" lon="14.44897642145655"><ele>51.5</ele><time>2026-04-04T09:18:31.999Z</time></trkpt><trkpt lat="42.15017954224739" lon="14.449100162500224"><ele>51.0</ele><time>2026-04-04T09:18:33.999Z</time></trkpt><trkpt lat="42.15026689709858" lon="14.44921958391595"><ele>50.5</ele><time>2026-04-04T09:18:35.999Z</time></trkpt><trkpt lat="42.15035008113843" lon="14.449346051418988"><ele>50.0</ele><time>2026-04-04T09:18:37.999Z</time></trkpt><trkpt lat="42.150433864093586" lon="14.449470005383917"><ele>50.0</ele><time>2026-04-04T09:18:39.999Z</time></trkpt><trkpt lat="42.15051697936143" lon="14.449595967696672"><ele>50.0</ele><time>2026-04-04T09:18:41.999Z</time></trkpt><trkpt lat="42.15060068818907" lon="14.44971855639569"><ele>50.0</ele><time>2026-04-04T09:18:43.999Z</time></trkpt><trkpt lat="42.15068196481562" lon="14.449842069874963"><ele>50.0</ele><time>2026-04-04T09:18:45.999Z</time></trkpt><trkpt lat="42.150766861341715" lon="14.449965849097378"><ele>50.5</ele><time>2026-04-04T09:18:47.999Z</time></trkpt><trkpt lat="42.15085238480687" lon="14.450092344205352"><ele>51.0</ele><time>2026-04-04T09:18:49.999Z</time></trkpt><trkpt lat="42.15093393613087" lon="14.450217608299985"><ele>51.5</ele><time>2026-04-04T09:18:51.999Z</time></trkpt><trkpt lat="42.15101548929571" lon="14.450336059893134"><ele>52.0</ele><time>2026-04-04T09:18:53.999Z</time></trkpt><trkpt lat="42.15109312141354" lon="14.450452956003701"><ele>52.0</ele><time>2026-04-04T09:18:55.999Z</time></trkpt><trkpt lat="42.15117199153395" lon="14.450572696721391"><ele>52.0</ele><time>2026-04-04T09:18:57.999Z</time></trkpt><trkpt lat="42.15125338707571" lon="14.450688962123614"><ele>52.0</ele><time>2026-04-04T09:18:59.999Z</time></trkpt><trkpt lat="42.151331480439396" lon="14.450807134997069"><ele>52.0</ele><time>2026-04-04T09:19:01.999Z</time></trkpt><trkpt lat="42.15140644395679" lon="14.450920398632233"><ele>52.0</ele><time>2026-04-04T09:19:03.999Z</time></trkpt><trkpt lat="42.15148029358638" lon="14.451033824466064"><ele>52.0</ele><time>2026-04-04T09:19:05.998Z</time></trkpt><trkpt lat="42.15155879167626" lon="14.451147526439627"><ele>52.0</ele><time>2026-04-04T09:19:07.998Z</time></trkpt><trkpt lat="42.15163471580663" lon="14.451262899114163"><ele>52.0</ele><time>2026-04-04T09:19:09.998Z</time></trkpt><trkpt lat="42.15171043004493" lon="14.451369317313379"><ele>51.6</ele><time>2026-04-04T09:19:11.998Z</time></trkpt><trkpt lat="42.151784709139044" lon="14.451483355243814"><ele>51.2</ele><time>2026-04-04T09:19:13.998Z</time></trkpt><trkpt lat="42.15186103002781" lon="14.451596083036291"><ele>50.8</ele><time>2026-04-04T09:19:15.998Z</time></trkpt><trkpt lat="42.151934968036315" lon="14.45170682852336"><ele>50.4</ele><time>2026-04-04T09:19:18Z</time></trkpt><trkpt lat="42.15201133759157" lon="14.451818110514525"><ele>50.0</ele><time>2026-04-04T09:19:20Z</time></trkpt><trkpt lat="42.1520891241394" lon="14.451932440836142"><ele>50.0</ele><time>2026-04-04T09:19:22Z</time></trkpt><trkpt lat="42.15216516445248" lon="14.452050420693551"><ele>50.0</ele><time>2026-04-04T09:19:24Z</time></trkpt><trkpt lat="42.15224292102168" lon="14.452166604525901"><ele>50.0</ele><time>2026-04-04T09:19:26Z</time></trkpt><trkpt lat="42.15231945808487" lon="14.452275502167648"><ele>50.0</ele><time>2026-04-04T09:19:28Z</time></trkpt><trkpt lat="42.15239383030009" lon="14.452388815056828"><ele>50.25</ele><time>2026-04-04T09:19:30Z</time></trkpt><trkpt lat="42.152472384500086" lon="14.452497668260275"><ele>50.5</ele><time>2026-04-04T09:19:32Z</time></trkpt><trkpt lat="42.15254598973127" lon="14.452613662548517"><ele>50.75</ele><time>2026-04-04T09:19:34Z</time></trkpt><trkpt lat="42.15262143909491" lon="14.452723944353476"><ele>51.0</ele><time>2026-04-04T09:19:36Z</time></trkpt><trkpt lat="42.152697947809386" lon="14.452835917664055"><ele>51.0</ele><time>2026-04-04T09:19:38Z</time></trkpt><trkpt lat="42.15277608731604" lon="14.452948988817868"><ele>51.0</ele><time>2026-04-04T09:19:40Z</time></trkpt><trkpt lat="42.15285083713819" lon="14.453062537653063"><ele>51.0</ele><time>2026-04-04T09:19:42Z</time></trkpt><trkpt lat="42.152930421298244" lon="14.453176296406058"><ele>51.0</ele><time>2026-04-04T09:19:44Z</time></trkpt><trkpt lat="42.15300882397261" lon="14.453295437774363"><ele>50.5</ele><time>2026-04-04T09:19:46Z</time></trkpt><trkpt lat="42.15308907380236" lon="14.45341637926811"><ele>50.0</ele><time>2026-04-04T09:19:48Z</time></trkpt><trkpt lat="42.15316979914238" lon="14.453534904394028"><ele>49.5</ele><time>2026-04-04T09:19:50Z</time></trkpt><trkpt lat="42.15324980922248" lon="14.453656572594435"><ele>49.0</ele><time>2026-04-04T09:19:52Z</time></trkpt><trkpt lat="42.1533300207397" lon="14.453777329698031"><ele>49.0</ele><time>2026-04-04T09:19:54Z</time></trkpt><trkpt lat="42.15340683571056" lon="14.453897054410369"><ele>49.0</ele><time>2026-04-04T09:19:56Z</time></trkpt><trkpt lat="42.15348689349454" lon="14.454016805580094"><ele>49.0</ele><time>2026-04-04T09:19:58Z</time></trkpt><trkpt lat="42.1535690366163" lon="14.454137056364146"><ele>49.0</ele><time>2026-04-04T09:20:00Z</time></trkpt><trkpt lat="42.15364995887381" lon="14.454253884542572"><ele>49.0</ele><time>2026-04-04T09:20:02Z</time></trkpt><trkpt lat="42.15372789030542" lon="14.454375830311315"><ele>49.0</ele><time>2026-04-04T09:20:04Z</time></trkpt><trkpt lat="42.1538083648518" lon="14.454494959475317"><ele>49.0</ele><time>2026-04-04T09:20:06Z</time></trkpt><trkpt lat="42.15388879189118" lon="14.454610665055274"><ele>49.0</ele><time>2026-04-04T09:20:07.999Z</time></trkpt><trkpt lat="42.153966136184884" lon="14.454729411734105"><ele>49.0</ele><time>2026-04-04T09:20:09.999Z</time></trkpt><trkpt lat="42.1540454181086" lon="14.454844918089513"><ele>49.0</ele><time>2026-04-04T09:20:11.999Z</time></trkpt><trkpt lat="42.15412525616447" lon="14.454962095063701"><ele>49.0</ele><time>2026-04-04T09:20:13.999Z</time></trkpt><trkpt lat="42.154207517164465" lon="14.455081547111991"><ele>49.0</ele><time>2026-04-04T09:20:15.999Z</time></trkpt><trkpt lat="42.15428596420611" lon="14.455201614397875"><ele>49.0</ele><time>2026-04-04T09:20:17.999Z</time></trkpt><trkpt lat="42.15436456645487" lon="14.455323269360523"><ele>49.0</ele><time>2026-04-04T09:20:19.999Z</time></trkpt><trkpt lat="42.15444343181242" lon="14.455440627723116"><ele>49.0</ele><time>2026-04-04T09:20:21.999Z</time></trkpt><trkpt lat="42.15452334996826" lon="14.455557313395223"><ele>49.0</ele><time>2026-04-04T09:20:23.999Z</time></trkpt><trkpt lat="42.15460046576393" lon="14.455671840575414"><ele>49.0</ele><time>2026-04-04T09:20:25.999Z</time></trkpt><trkpt lat="42.154677562364455" lon="14.455791022724416"><ele>49.0</ele><time>2026-04-04T09:20:27.999Z</time></trkpt><trkpt lat="42.15475713893504" lon="14.45590467088547"><ele>49.0</ele><time>2026-04-04T09:20:29.999Z</time></trkpt><trkpt lat="42.15483370287292" lon="14.45601926763444"><ele>49.0</ele><time>2026-04-04T09:20:31.999Z</time></trkpt><trkpt lat="42.15490738675556" lon="14.456131440278492"><ele>49.0</ele><time>2026-04-04T09:20:33.999Z</time></trkpt><trkpt lat="42.15497874399558" lon="14.456244625260165"><ele>49.0</ele><time>2026-04-04T09:20:35.999Z</time></trkpt><trkpt lat="42.15505361532202" lon="14.45635092042477"><ele>49.0</ele><time>2026-04-04T09:20:37.999Z</time></trkpt><trkpt lat="42.15512818776896" lon="14.456460196905839"><ele>49.0</ele><time>2026-04-04T09:20:39.999Z</time></trkpt><trkpt lat="42.15520318144739" lon="14.45657193075445"><ele>49.0</ele><time>2026-04-04T09:20:41.999Z</time></trkpt><trkpt lat="42.15528052635683" lon="14.456687955475084"><ele>48.5</ele><time>2026-04-04T09:20:43.999Z</time></trkpt><trkpt lat="42.15535620515761" lon="14.456802581423247"><ele>48.0</ele><time>2026-04-04T09:20:45.999Z</time></trkpt><trkpt lat="42.15543465977403" lon="14.4569178574797"><ele>47.5</ele><time>2026-04-04T09:20:47.999Z</time></trkpt><trkpt lat="42.15551206931672" lon="14.457032179059762"><ele>47.0</ele><time>2026-04-04T09:20:49.999Z</time></trkpt><trkpt lat="42.155586712772774" lon="14.457140365663882"><ele>47.0</ele><time>2026-04-04T09:20:51.999Z</time></trkpt><trkpt lat="42.155657753566764" lon="14.457249038500542"><ele>47.0</ele><time>2026-04-04T09:20:53.999Z</time></trkpt><trkpt lat="42.155730761079106" lon="14.457362612318612"><ele>47.0</ele><time>2026-04-04T09:20:55.999Z</time></trkpt><trkpt lat="42.15580965862612" lon="14.45747161041762"><ele>47.0</ele><time>2026-04-04T09:20:57.999Z</time></trkpt><trkpt lat="42.155885711493895" lon="14.457586815475688"><ele>47.0</ele><time>2026-04-04T09:20:59.999Z</time></trkpt><trkpt lat="42.155963230900674" lon="14.45770350103508"><ele>47.0</ele><time>2026-04-04T09:21:01.999Z</time></trkpt><trkpt lat="42.15604193675679" lon="14.457817183371112"><ele>47.0</ele><time>2026-04-04T09:21:03.999Z</time></trkpt><trkpt lat="42.15611872922424" lon="14.457929993780292"><ele>47.0</ele><time>2026-04-04T09:21:05.999Z</time></trkpt><trkpt lat="42.15618154845377" lon="14.458054636109502"><ele>47.0</ele><time>2026-04-04T09:21:07.999Z</time></trkpt><trkpt lat="42.156219218697764" lon="14.458197743757175"><ele>46.75</ele><time>2026-04-04T09:21:09.998Z</time></trkpt><trkpt lat="42.15623988792937" lon="14.458348683310104"><ele>46.5</ele><time>2026-04-04T09:21:11.998Z</time></trkpt><trkpt lat="42.15626049080902" lon="14.458499143611068"><ele>46.25</ele><time>2026-04-04T09:21:13.998Z</time></trkpt><trkpt lat="42.156319379627305" lon="14.458628537497427"><ele>46.0</ele><time>2026-04-04T09:21:15.998Z</time></trkpt><trkpt lat="42.156406133867236" lon="14.458727576163975"><ele>46.0</ele><time>2026-04-04T09:21:17.998Z</time></trkpt><trkpt lat="42.156516931105955" lon="14.458734466231272"><ele>46.0</ele><time>2026-04-04T09:21:19.998Z</time></trkpt><trkpt lat="42.156625421672295" lon="14.458729311351195"><ele>46.0</ele><time>2026-04-04T09:21:21.998Z</time></trkpt><trkpt lat="42.15667593906325" lon="14.458826511556508"><ele>46.0</ele><time>2026-04-04T09:21:23Z</time></trkpt><trkpt lat="42.15677553273793" lon="14.458909714144834"><ele>46.0</ele><time>2026-04-04T09:21:25Z</time></trkpt><trkpt lat="42.15685705762175" lon="14.459030972385662"><ele>46.25</ele><time>2026-04-04T09:21:27Z</time></trkpt><trkpt lat="42.156932665194105" lon="14.459151096476038"><ele>46.5</ele><time>2026-04-04T09:21:29Z</time></trkpt><trkpt lat="42.157010722496395" lon="14.459265237455792"><ele>46.75</ele><time>2026-04-04T09:21:31Z</time></trkpt><trkpt lat="42.15708463634003" lon="14.459382029772234"><ele>47.0</ele><time>2026-04-04T09:21:33Z</time></trkpt><trkpt lat="42.157162753280595" lon="14.459494275825154"><ele>47.0</ele><time>2026-04-04T09:21:35Z</time></trkpt><trkpt lat="42.157242433474806" lon="14.45961112107549"><ele>47.0</ele><time>2026-04-04T09:21:37Z</time></trkpt><trkpt lat="42.15731760403954" lon="14.459734089523385"><ele>47.0</ele><time>2026-04-04T09:21:39Z</time></trkpt><trkpt lat="42.157394088062176" lon="14.459854787851926"><ele>47.0</ele><time>2026-04-04T09:21:41Z</time></trkpt><trkpt lat="42.157475726174546" lon="14.45997339374845"><ele>46.75</ele><time>2026-04-04T09:21:43Z</time></trkpt><trkpt lat="42.15755421623872" lon="14.4600951098765"><ele>46.5</ele><time>2026-04-04T09:21:45Z</time></trkpt><trkpt lat="42.15763396126494" lon="14.460210853068153"><ele>46.25</ele><time>2026-04-04T09:21:47Z</time></trkpt><trkpt lat="42.15771092061338" lon="14.460324108512886"><ele>46.0</ele><time>2026-04-04T09:21:49Z</time></trkpt><trkpt lat="42.15778828096836" lon="14.46044011598469"><ele>46.0</ele><time>2026-04-04T09:21:51Z</time></trkpt><trkpt lat="42.15786909584791" lon="14.460553324658862"><ele>46.0</ele><time>2026-04-04T09:21:53Z</time></trkpt><trkpt lat="42.157945794433054" lon="14.460669296996116"><ele>46.0</ele><time>2026-04-04T09:21:55Z</time></trkpt><trkpt lat="42.15802032282222" lon="14.460784011891086"><ele>46.0</ele><time>2026-04-04T09:21:57Z</time></trkpt><trkpt lat="42.15809937806087" lon="14.460892505476332"><ele>46.0</ele><time>2026-04-04T09:21:59Z</time></trkpt><trkpt lat="42.15817723951048" lon="14.461006581888217"><ele>46.0</ele><time>2026-04-04T09:22:01Z</time></trkpt><trkpt lat="42.158257521327336" lon="14.46112171012357"><ele>46.0</ele><time>2026-04-04T09:22:03Z</time></trkpt><trkpt lat="42.15833546076941" lon="14.461240828465014"><ele>46.0</ele><time>2026-04-04T09:22:05Z</time></trkpt><trkpt lat="42.158415301560474" lon="14.461357164482036"><ele>46.0</ele><time>2026-04-04T09:22:07Z</time></trkpt><trkpt lat="42.15849510312705" lon="14.46147712325707"><ele>46.0</ele><time>2026-04-04T09:22:09Z</time></trkpt><trkpt lat="42.158574897723845" lon="14.461594872582257"><ele>46.0</ele><time>2026-04-04T09:22:11Z</time></trkpt><trkpt lat="42.15865225802166" lon="14.461715751044371"><ele>46.0</ele><time>2026-04-04T09:22:13Z</time></trkpt><trkpt lat="42.15873198908346" lon="14.461831009411254"><ele>46.0</ele><time>2026-04-04T09:22:14.999Z</time></trkpt><trkpt lat="42.15880961141502" lon="14.461950285086534"><ele>46.0</ele><time>2026-04-04T09:22:16.999Z</time></trkpt><trkpt lat="42.15889187777055" lon="14.462065188690206"><ele>46.0</ele><time>2026-04-04T09:22:18.999Z</time></trkpt><trkpt lat="42.15896745817649" lon="14.462187917321014"><ele>46.0</ele><time>2026-04-04T09:22:20.999Z</time></trkpt><trkpt lat="42.159045341723576" lon="14.462310778321946"><ele>46.5</ele><time>2026-04-04T09:22:22.999Z</time></trkpt><trkpt lat="42.1591238288357" lon="14.462430799039087"><ele>47.0</ele><time>2026-04-04T09:22:24.999Z</time></trkpt><trkpt lat="42.15920629298569" lon="14.462546734959995"><ele>47.5</ele><time>2026-04-04T09:22:26.999Z</time></trkpt><trkpt lat="42.15928013975987" lon="14.46266501219089"><ele>48.0</ele><time>2026-04-04T09:22:28.999Z</time></trkpt><trkpt lat="42.159357761350904" lon="14.462778473722583"><ele>48.0</ele><time>2026-04-04T09:22:30.999Z</time></trkpt><trkpt lat="42.15943451620426" lon="14.462893820718932"><ele>48.0</ele><time>2026-04-04T09:22:32.999Z</time></trkpt><trkpt lat="42.15951221998499" lon="14.463006785801682"><ele>48.0</ele><time>2026-04-04T09:22:34.999Z</time></trkpt><trkpt lat="42.15958786118794" lon="14.463119357463942"><ele>48.0</ele><time>2026-04-04T09:22:36.999Z</time></trkpt><trkpt lat="42.159663076832324" lon="14.463228168992794"><ele>47.25</ele><time>2026-04-04T09:22:38.999Z</time></trkpt><trkpt lat="42.1597401801407" lon="14.463339806892805"><ele>46.5</ele><time>2026-04-04T09:22:40.999Z</time></trkpt><trkpt lat="42.159820749706554" lon="14.463455146614864"><ele>45.75</ele><time>2026-04-04T09:22:42.999Z</time></trkpt><trkpt lat="42.15989779019965" lon="14.463572437080794"><ele>45.0</ele><time>2026-04-04T09:22:44.999Z</time></trkpt><trkpt lat="42.159978110570165" lon="14.463690621899206"><ele>45.25</ele><time>2026-04-04T09:22:46.999Z</time></trkpt><trkpt lat="42.160055671740764" lon="14.463809427215885"><ele>45.5</ele><time>2026-04-04T09:22:48.999Z</time></trkpt><trkpt lat="42.160134116452646" lon="14.4639255398373"><ele>45.75</ele><time>2026-04-04T09:22:50.999Z</time></trkpt><trkpt lat="42.16021424025082" lon="14.46404253634558"><ele>46.0</ele><time>2026-04-04T09:22:52.999Z</time></trkpt><trkpt lat="42.16029265887533" lon="14.464161808993806"><ele>46.0</ele><time>2026-04-04T09:22:54.999Z</time></trkpt><trkpt lat="42.160369577862" lon="14.46427422199865"><ele>46.0</ele><time>2026-04-04T09:22:56.999Z</time></trkpt><trkpt lat="42.16044542651844" lon="14.464383070271658"><ele>46.0</ele><time>2026-04-04T09:22:58.999Z</time></trkpt><trkpt lat="42.16052394363093" lon="14.464501854050532"><ele>46.0</ele><time>2026-04-04T09:23:00.999Z</time></trkpt><trkpt lat="42.160603660488675" lon="14.464603879203416"><ele>46.0</ele><time>2026-04-04T09:23:02.999Z</time></trkpt><trkpt lat="42.16064555164532" lon="14.46467731419219"><ele>46.0</ele><time>2026-04-04T09:23:03.999Z</time></trkpt><trkpt lat="42.160719868525895" lon="14.464786246868067"><ele>46.0</ele><time>2026-04-04T09:23:05.999Z</time></trkpt><trkpt lat="42.16079255504111" lon="14.464902154713426"><ele>46.0</ele><time>2026-04-04T09:23:07.999Z</time></trkpt><trkpt lat="42.16086429551985" lon="14.46502043584874"><ele>46.0</ele><time>2026-04-04T09:23:09.999Z</time></trkpt><trkpt lat="42.160942732787504" lon="14.465131508381969"><ele>46.0</ele><time>2026-04-04T09:23:11.999Z</time></trkpt><trkpt lat="42.16101913563463" lon="14.465244943011157"><ele>46.0</ele><time>2026-04-04T09:23:13.999Z</time></trkpt><trkpt lat="42.161094078263936" lon="14.465359669293251"><ele>46.0</ele><time>2026-04-04T09:23:15.998Z</time></trkpt><trkpt lat="42.16117299871187" lon="14.465473666286128"><ele>46.0</ele><time>2026-04-04T09:23:17.998Z</time></trkpt><trkpt lat="42.16124943297889" lon="14.465589026383153"><ele>46.25</ele><time>2026-04-04T09:23:19.998Z</time></trkpt><trkpt lat="42.16132534654261" lon="14.465703297836138"><ele>46.5</ele><time>2026-04-04T09:23:21.998Z</time></trkpt><trkpt lat="42.16140431342853" lon="14.465809273137229"><ele>46.75</ele><time>2026-04-04T09:23:23.998Z</time></trkpt><trkpt lat="42.16147832026366" lon="14.465922681762237"><ele>47.0</ele><time>2026-04-04T09:23:25.998Z</time></trkpt><trkpt lat="42.161554428278286" lon="14.466039691432174"><ele>46.0</ele><time>2026-04-04T09:23:27.998Z</time></trkpt><trkpt lat="42.161633407057984" lon="14.4661530749687"><ele>45.0</ele><time>2026-04-04T09:23:30Z</time></trkpt><trkpt lat="42.16171107645291" lon="14.466267467396998"><ele>44.0</ele><time>2026-04-04T09:23:32Z</time></trkpt><trkpt lat="42.161788438643406" lon="14.46638486660735"><ele>43.0</ele><time>2026-04-04T09:23:34Z</time></trkpt><trkpt lat="42.16186782967315" lon="14.46650313173331"><ele>43.0</ele><time>2026-04-04T09:23:36Z</time></trkpt><trkpt lat="42.16194736586794" lon="14.466621333722767"><ele>43.0</ele><time>2026-04-04T09:23:38Z</time></trkpt><trkpt lat="42.16202631756491" lon="14.466740560794317"><ele>43.0</ele><time>2026-04-04T09:23:40Z</time></trkpt><trkpt lat="42.16210798215197" lon="14.466856716579095"><ele>43.0</ele><time>2026-04-04T09:23:42Z</time></trkpt><trkpt lat="42.16218629906831" lon="14.466976590385757"><ele>43.0</ele><time>2026-04-04T09:23:44Z</time></trkpt><trkpt lat="42.162264118625885" lon="14.467096022455285"><ele>43.0</ele><time>2026-04-04T09:23:46Z</time></trkpt><trkpt lat="42.16234359446467" lon="14.467213197722808"><ele>43.0</ele><time>2026-04-04T09:23:48Z</time></trkpt><trkpt lat="42.16241746707617" lon="14.467330743892637"><ele>43.0</ele><time>2026-04-04T09:23:50Z</time></trkpt><trkpt lat="42.162495376112304" lon="14.467444311235905"><ele>43.5</ele><time>2026-04-04T09:23:52Z</time></trkpt><trkpt lat="42.16257344786763" lon="14.467558973583923"><ele>44.0</ele><time>2026-04-04T09:23:54Z</time></trkpt><trkpt lat="42.16264810162232" lon="14.467672410178272"><ele>44.5</ele><time>2026-04-04T09:23:56Z</time></trkpt><trkpt lat="42.162725878855206" lon="14.467784632547525"><ele>45.0</ele><time>2026-04-04T09:23:58Z</time></trkpt><trkpt lat="42.162802970040545" lon="14.467898874057747"><ele>44.75</ele><time>2026-04-04T09:24:00Z</time></trkpt><trkpt lat="42.162879179053625" lon="14.468016494504248"><ele>44.5</ele><time>2026-04-04T09:24:02Z</time></trkpt><trkpt lat="42.16295441226095" lon="14.468131747319292"><ele>44.25</ele><time>2026-04-04T09:24:04Z</time></trkpt><trkpt lat="42.1630316333656" lon="14.46824489112822"><ele>44.0</ele><time>2026-04-04T09:24:06Z</time></trkpt><trkpt lat="42.16310786109033" lon="14.468358993897187"><ele>44.0</ele><time>2026-04-04T09:24:08Z</time></trkpt><trkpt lat="42.16318815046334" lon="14.468472556544315"><ele>44.0</ele><time>2026-04-04T09:24:10Z</time></trkpt><trkpt lat="42.163263430594434" lon="14.468587862961014"><ele>44.0</ele><time>2026-04-04T09:24:12Z</time></trkpt><trkpt lat="42.16333891317342" lon="14.468700125338875"><ele>44.0</ele><time>2026-04-04T09:24:14Z</time></trkpt><trkpt lat="42.163411295405226" lon="14.468810037352313"><ele>43.6</ele><time>2026-04-04T09:24:16Z</time></trkpt><trkpt lat="42.163484740520964" lon="14.468921270740312"><ele>43.2</ele><time>2026-04-04T09:24:17.999Z</time></trkpt><trkpt lat="42.163559322663595" lon="14.469027034554648"><ele>42.800000000000004</ele><time>2026-04-04T09:24:19.999Z</time></trkpt><trkpt lat="42.1636339612754" lon="14.469138096612092"><ele>42.400000000000006</ele><time>2026-04-04T09:24:21.999Z</time></trkpt><trkpt lat="42.163706959175784" lon="14.469250632477314"><ele>42.0</ele><time>2026-04-04T09:24:23.999Z</time></trkpt><trkpt lat="42.163782517895946" lon="14.469363470851539"><ele>42.0</ele><time>2026-04-04T09:24:25.999Z</time></trkpt><trkpt lat="42.163859019200174" lon="14.469476281021597"><ele>42.0</ele><time>2026-04-04T09:24:27.999Z</time></trkpt><trkpt lat="42.16393690184019" lon="14.46958668316672"><ele>42.0</ele><time>2026-04-04T09:24:29.999Z</time></trkpt><trkpt lat="42.164010638998626" lon="14.469702745620808"><ele>42.0</ele><time>2026-04-04T09:24:31.999Z</time></trkpt><trkpt lat="42.1640887813674" lon="14.469816253757017"><ele>41.25</ele><time>2026-04-04T09:24:33.999Z</time></trkpt><trkpt lat="42.16416552953959" lon="14.469931793545197"><ele>40.5</ele><time>2026-04-04T09:24:35.999Z</time></trkpt><trkpt lat="42.16424283357427" lon="14.470049516219234"><ele>39.75</ele><time>2026-04-04T09:24:37.999Z</time></trkpt><trkpt lat="42.16432003481917" lon="14.470170384622895"><ele>39.0</ele><time>2026-04-04T09:24:39.999Z</time></trkpt><trkpt lat="42.16440276669409" lon="14.470285943735735"><ele>39.0</ele><time>2026-04-04T09:24:41.999Z</time></trkpt><trkpt lat="42.16448096934908" lon="14.470403319924518"><ele>39.0</ele><time>2026-04-04T09:24:43.999Z</time></trkpt><trkpt lat="42.164558792865755" lon="14.470521124320694"><ele>39.0</ele><time>2026-04-04T09:24:45.999Z</time></trkpt><trkpt lat="42.16463726331538" lon="14.470636218609592"><ele>39.0</ele><time>2026-04-04T09:24:47.999Z</time></trkpt><trkpt lat="42.1647133872258" lon="14.470752627487272"><ele>39.5</ele><time>2026-04-04T09:24:49.999Z</time></trkpt><trkpt lat="42.164789895693396" lon="14.47086939996744"><ele>40.0</ele><time>2026-04-04T09:24:51.999Z</time></trkpt><trkpt lat="42.16486534766027" lon="14.470981528908126"><ele>40.5</ele><time>2026-04-04T09:24:53.999Z</time></trkpt><trkpt lat="42.16494351790572" lon="14.471090976616942"><ele>41.0</ele><time>2026-04-04T09:24:55.999Z</time></trkpt><trkpt lat="42.16501730552317" lon="14.471209117539084"><ele>41.25</ele><time>2026-04-04T09:24:57.999Z</time></trkpt><trkpt lat="42.1650941660569" lon="14.471318721659102"><ele>41.5</ele><time>2026-04-04T09:24:59.999Z</time></trkpt><trkpt lat="42.16517553058923" lon="14.471424875494943"><ele>41.75</ele><time>2026-04-04T09:25:01.999Z</time></trkpt><trkpt lat="42.16525100630072" lon="14.471540254085568"><ele>42.0</ele><time>2026-04-04T09:25:03.999Z</time></trkpt><trkpt lat="42.16532268453767" lon="14.471659026754173"><ele>42.0</ele><time>2026-04-04T09:25:05.999Z</time></trkpt><trkpt lat="42.16539313435398" lon="14.471752319934387"><ele>42.0</ele><time>2026-04-04T09:25:07.999Z</time></trkpt><trkpt lat="42.16545191516265" lon="14.471845591468718"><ele>42.0</ele><time>2026-04-04T09:25:09.999Z</time></trkpt><trkpt lat="42.16545804333783" lon="14.471938038568327"><ele>42.0</ele><time>2026-04-04T09:25:11.999Z</time></trkpt><trkpt lat="42.16538651521071" lon="14.472023646743377"><ele>42.0</ele><time>2026-04-04T09:25:13.999Z</time></trkpt><trkpt lat="42.16532864705616" lon="14.472062500649184"><ele>42.0</ele><time>2026-04-04T09:25:15.999Z</time></trkpt><trkpt lat="42.16525643173004" lon="14.472139576715058"><ele>41.833333333333336</ele><time>2026-04-04T09:25:18.998Z</time></trkpt><trkpt lat="42.16518777106287" lon="14.472193857744537"><ele>41.666666666666664</ele><time>2026-04-04T09:25:21.998Z</time></trkpt><trkpt lat="42.16511532615258" lon="14.472235799317765"><ele>41.5</ele><time>2026-04-04T09:25:24.998Z</time></trkpt><trkpt lat="42.16504479392385" lon="14.472299949703896"><ele>41.33333333333333</ele><time>2026-04-04T09:25:27.998Z</time></trkpt><trkpt lat="42.16496148439583" lon="14.472348542219502"><ele>41.166666666666664</ele><time>2026-04-04T09:25:30.998Z</time></trkpt><trkpt lat="42.164913654830954" lon="14.472405529610104"><ele>41.0</ele><time>2026-04-04T09:25:32.998Z</time></trkpt><trkpt lat="42.16484433617153" lon="14.472459575693772"><ele>40.857142857142854</ele><time>2026-04-04T09:25:36Z</time></trkpt><trkpt lat="42.1647809507774" lon="14.47249293618182"><ele>40.714285714285715</ele><time>2026-04-04T09:25:39Z</time></trkpt><trkpt lat="42.16471406166727" lon="14.472553621169405"><ele>40.57142857142857</ele><time>2026-04-04T09:25:42Z</time></trkpt><trkpt lat="42.16464716402004" lon="14.472607366764219"><ele>40.42857142857143</ele><time>2026-04-04T09:25:45Z</time></trkpt><trkpt lat="42.16458409052642" lon="14.472629904717017"><ele>40.285714285714285</ele><time>2026-04-04T09:25:48Z</time></trkpt><trkpt lat="42.164519041498046" lon="14.472667596965383"><ele>40.14285714285714</ele><time>2026-04-04T09:25:52Z</time></trkpt><trkpt lat="42.16446012426793" lon="14.472705649128635"><ele>40.0</ele><time>2026-04-04T09:25:55Z</time></trkpt><trkpt lat="42.16439956027392" lon="14.47273473175197"><ele>40.0</ele><time>2026-04-04T09:25:58Z</time></trkpt><trkpt lat="42.164337981647186" lon="14.472756792126445"><ele>40.0</ele><time>2026-04-04T09:26:01Z</time></trkpt><trkpt lat="42.16427666724187" lon="14.472805633860624"><ele>40.0</ele><time>2026-04-04T09:26:04Z</time></trkpt><trkpt lat="42.16419528232475" lon="14.472840406215914"><ele>40.0</ele><time>2026-04-04T09:26:07Z</time></trkpt><trkpt lat="42.16411210932742" lon="14.472871649529143"><ele>40.0</ele><time>2026-04-04T09:26:10Z</time></trkpt><trkpt lat="42.16402344012085" lon="14.47291438230275"><ele>40.0</ele><time>2026-04-04T09:26:13Z</time></trkpt><trkpt lat="42.16395460068722" lon="14.472944335366883"><ele>40.333333333333336</ele><time>2026-04-04T09:26:15Z</time></trkpt><trkpt lat="42.16388218522608" lon="14.472975540814751"><ele>40.66666666666667</ele><time>2026-04-04T09:26:16.999Z</time></trkpt><trkpt lat="42.16380836502367" lon="14.473004414247958"><ele>41.0</ele><time>2026-04-04T09:26:18.999Z</time></trkpt><trkpt lat="42.16373190887797" lon="14.473039690346248"><ele>41.333333333333336</ele><time>2026-04-04T09:26:20.999Z</time></trkpt><trkpt lat="42.1636564808674" lon="14.473079414345094"><ele>41.666666666666664</ele><time>2026-04-04T09:26:22.999Z</time></trkpt><trkpt lat="42.16357912977282" lon="14.473118348188855"><ele>42.0</ele><time>2026-04-04T09:26:24.999Z</time></trkpt><trkpt lat="42.16349825008999" lon="14.473149314410605"><ele>42.0</ele><time>2026-04-04T09:26:26.999Z</time></trkpt><trkpt lat="42.163418305048474" lon="14.47317980414566"><ele>42.0</ele><time>2026-04-04T09:26:28.999Z</time></trkpt><trkpt lat="42.163339246047094" lon="14.473218140208225"><ele>42.0</ele><time>2026-04-04T09:26:30.999Z</time></trkpt><trkpt lat="42.16325889310266" lon="14.473256426330536"><ele>42.0</ele><time>2026-04-04T09:26:32.999Z</time></trkpt><trkpt lat="42.16317986620372" lon="14.473295518882905"><ele>42.0</ele><time>2026-04-04T09:26:34.999Z</time></trkpt><trkpt lat="42.16310111179983" lon="14.47333441354037"><ele>42.0</ele><time>2026-04-04T09:26:36.999Z</time></trkpt><trkpt lat="42.1630313304724" lon="14.473300127744649"><ele>41.833333333333336</ele><time>2026-04-04T09:26:38.999Z</time></trkpt><trkpt lat="42.16299016186706" lon="14.473229736446726"><ele>41.666666666666664</ele><time>2026-04-04T09:26:40.999Z</time></trkpt><trkpt lat="42.162925724398455" lon="14.473143445341398"><ele>41.5</ele><time>2026-04-04T09:26:43.999Z</time></trkpt><trkpt lat="42.162868910734645" lon="14.473046969193687"><ele>41.33333333333333</ele><time>2026-04-04T09:26:46.999Z</time></trkpt><trkpt lat="42.162812610038785" lon="14.472956885696478"><ele>41.166666666666664</ele><time>2026-04-04T09:26:49.999Z</time></trkpt><trkpt lat="42.162748596233" lon="14.472877515241288"><ele>41.0</ele><time>2026-04-04T09:26:52.999Z</time></trkpt><trkpt lat="42.16275745349402" lon="14.472788154645926"><ele>40.83333333333333</ele><time>2026-04-04T09:26:56.999Z</time></trkpt><trkpt lat="42.162652196227285" lon="14.472742384460856"><ele>40.666666666666664</ele><time>2026-04-04T09:30:34.999Z</time></trkpt><trkpt lat="42.16259238298513" lon="14.472684648525254"><ele>40.5</ele><time>2026-04-04T09:31:00.999Z</time></trkpt><trkpt lat="42.16258027839178" lon="14.47281181728419"><ele>40.333333333333336</ele><time>2026-04-04T09:31:27.999Z</time></trkpt><trkpt lat="42.162659424892404" lon="14.47280615707901"><ele>40.16666666666667</ele><time>2026-04-04T09:31:43.998Z</time></trkpt><trkpt lat="42.1626133112543" lon="14.472724502729145"><ele>40.0</ele><time>2026-04-04T09:33:04.017Z</time></trkpt><trkpt lat="42.16269031397552" lon="14.472618465815106"><ele>40.0</ele><time>2026-04-04T09:34:45.402Z</time></trkpt><trkpt lat="42.16264357456025" lon="14.472520397429628"><ele>40.0</ele><time>2026-04-04T09:36:12.013Z</time></trkpt><trkpt lat="42.162682018044784" lon="14.47273880458064"><ele>40.0</ele><time>2026-04-04T09:37:04.408Z</time></trkpt><trkpt lat="42.16252833104434" lon="14.473102220400927"><ele>40.0</ele><time>2026-04-04T09:38:01.01Z</time></trkpt><trkpt lat="42.162536952912646" lon="14.473009471363788"><ele>40.0</ele><time>2026-04-04T09:38:04.01Z</time></trkpt><trkpt lat="42.162578817813646" lon="14.472939673172963"><ele>40.0</ele><time>2026-04-04T09:38:07.01Z</time></trkpt><trkpt lat="42.162583526088966" lon="14.472775650955612"><ele>40.0</ele><time>2026-04-04T09:38:10.013Z</time></trkpt><trkpt lat="42.16260677212633" lon="14.472650613967156"><ele>40.0</ele><time>2026-04-04T09:38:12.013Z</time></trkpt><trkpt lat="42.1628125958993" lon="14.47278664436076"><ele>40.0</ele><time>2026-04-04T09:39:03.015Z</time></trkpt><trkpt lat="42.16267133417322" lon="14.472796600204983"><ele>40.0</ele><time>2026-04-04T09:39:04.015Z</time></trkpt><trkpt lat="42.16262518699786" lon="14.472717453587157"><ele>40.0</ele><time>2026-04-04T09:39:08.014Z</time></trkpt><trkpt lat="42.16262364693914" lon="14.47261748768591"><ele>40.0</ele><time>2026-04-04T09:39:19.016Z</time></trkpt><trkpt lat="42.16251407170697" lon="14.472695176124429"><ele>40.0</ele><time>2026-04-04T09:39:37.015Z</time></trkpt><trkpt lat="42.16260201585189" lon="14.472681090239343"><ele>40.0</ele><time>2026-04-04T09:39:46.991Z</time></trkpt><trkpt lat="42.16267073385897" lon="14.472723664585232"><ele>40.0</ele><time>2026-04-04T09:39:55Z</time></trkpt><trkpt lat="42.16268146079914" lon="14.472825474113598"><ele>40.0</ele><time>2026-04-04T09:40:31.999Z</time></trkpt><trkpt lat="42.162724137616046" lon="14.472893501615866"><ele>40.0</ele><time>2026-04-04T09:40:37.999Z</time></trkpt><trkpt lat="42.1627960035503" lon="14.47292409173026"><ele>40.0</ele><time>2026-04-04T09:40:43.999Z</time></trkpt><trkpt lat="42.16284096682325" lon="14.472985809026044"><ele>40.0</ele><time>2026-04-04T09:40:47.999Z</time></trkpt><trkpt lat="42.162858892347266" lon="14.473088150406971"><ele>40.0</ele><time>2026-04-04T09:40:52.999Z</time></trkpt><trkpt lat="42.162901902285306" lon="14.473163185648446"><ele>40.14285714285714</ele><time>2026-04-04T09:40:57.999Z</time></trkpt><trkpt lat="42.16296163339062" lon="14.473200108901464"><ele>40.285714285714285</ele><time>2026-04-04T09:41:02.999Z</time></trkpt><trkpt lat="42.16299421244764" lon="14.473280840663094"><ele>40.42857142857143</ele><time>2026-04-04T09:41:27.998Z</time></trkpt><trkpt lat="42.162982738631236" lon="14.473378433622827"><ele>40.57142857142857</ele><time>2026-04-04T09:41:48.998Z</time></trkpt><trkpt lat="42.16292404307075" lon="14.473428808347306"><ele>40.714285714285715</ele><time>2026-04-04T09:41:51.998Z</time></trkpt><trkpt lat="42.16284266060168" lon="14.473495194818264"><ele>40.857142857142854</ele><time>2026-04-04T09:41:54.998Z</time></trkpt><trkpt lat="42.16278062721912" lon="14.473544088240272"><ele>41.0</ele><time>2026-04-04T09:41:56.998Z</time></trkpt><trkpt lat="42.162720727193104" lon="14.47360451237883"><ele>41.0</ele><time>2026-04-04T09:41:59Z</time></trkpt><trkpt lat="42.16266121251687" lon="14.473677099254719"><ele>41.0</ele><time>2026-04-04T09:42:01Z</time></trkpt><trkpt lat="42.162596108599324" lon="14.473753367323898"><ele>41.0</ele><time>2026-04-04T09:42:03Z</time></trkpt><trkpt lat="42.162525839389" lon="14.473823342505558"><ele>41.0</ele><time>2026-04-04T09:42:05Z</time></trkpt><trkpt lat="42.16245901572313" lon="14.47389704265062"><ele>41.0</ele><time>2026-04-04T09:42:07Z</time></trkpt><trkpt lat="42.16239676107747" lon="14.473974014155607"><ele>41.0</ele><time>2026-04-04T09:42:09Z</time></trkpt><trkpt lat="42.162335102522235" lon="14.47404596264221"><ele>41.33333333333333</ele><time>2026-04-04T09:42:11Z</time></trkpt><trkpt lat="42.16227490088536" lon="14.474115882794038"><ele>41.666666666666664</ele><time>2026-04-04T09:42:13Z</time></trkpt><trkpt lat="42.16221477090062" lon="14.474186458600274"><ele>42.0</ele><time>2026-04-04T09:42:15Z</time></trkpt><trkpt lat="42.162159235065126" lon="14.474258740032312"><ele>42.333333333333336</ele><time>2026-04-04T09:42:17Z</time></trkpt><trkpt lat="42.16210570575526" lon="14.474343035831913"><ele>42.66666666666667</ele><time>2026-04-04T09:42:18.999Z</time></trkpt><trkpt lat="42.16205576008774" lon="14.474434307725009"><ele>43.0</ele><time>2026-04-04T09:42:20.999Z</time></trkpt><trkpt lat="42.162005693616855" lon="14.474528711146334"><ele>42.833333333333336</ele><time>2026-04-04T09:42:22.999Z</time></trkpt><trkpt lat="42.16195881368078" lon="14.474619953797633"><ele>42.66666666666667</ele><time>2026-04-04T09:42:24.999Z</time></trkpt><trkpt lat="42.16191244895543" lon="14.474717794639286"><ele>42.5</ele><time>2026-04-04T09:42:26.999Z</time></trkpt><trkpt lat="42.161866850139965" lon="14.474817797561116"><ele>42.333333333333336</ele><time>2026-04-04T09:42:28.999Z</time></trkpt><trkpt lat="42.161822596447024" lon="14.474919874214928"><ele>42.166666666666664</ele><time>2026-04-04T09:42:30.999Z</time></trkpt><trkpt lat="42.16177418804754" lon="14.475023530494978"><ele>42.0</ele><time>2026-04-04T09:42:32.999Z</time></trkpt><trkpt lat="42.161726621979" lon="14.475129394118428"><ele>42.0</ele><time>2026-04-04T09:42:34.999Z</time></trkpt><trkpt lat="42.16168196199257" lon="14.475237773284203"><ele>42.0</ele><time>2026-04-04T09:42:36.999Z</time></trkpt><trkpt lat="42.161634316844896" lon="14.47534189455101"><ele>42.0</ele><time>2026-04-04T09:42:38.999Z</time></trkpt><trkpt lat="42.1615868672645" lon="14.475445965484052"><ele>42.0</ele><time>2026-04-04T09:42:40.999Z</time></trkpt><trkpt lat="42.16154248683076" lon="14.475552657887919"><ele>42.0</ele><time>2026-04-04T09:42:42.999Z</time></trkpt><trkpt lat="42.161489340685705" lon="14.475650204526533"><ele>42.333333333333336</ele><time>2026-04-04T09:42:44.999Z</time></trkpt><trkpt lat="42.16144514523397" lon="14.475754407408548"><ele>42.666666666666664</ele><time>2026-04-04T09:42:46.999Z</time></trkpt><trkpt lat="42.16140234386341" lon="14.475861286045893"><ele>43.0</ele><time>2026-04-04T09:42:48.999Z</time></trkpt><trkpt lat="42.16135636842095" lon="14.475964974979586"><ele>43.33333333333333</ele><time>2026-04-04T09:42:50.999Z</time></trkpt><trkpt lat="42.16131389520208" lon="14.476069131170174"><ele>43.666666666666664</ele><time>2026-04-04T09:42:52.999Z</time></trkpt><trkpt lat="42.16126882026306" lon="14.476170944614383"><ele>44.0</ele><time>2026-04-04T09:42:54.999Z</time></trkpt><trkpt lat="42.161225288627215" lon="14.476271639617348"><ele>44.0</ele><time>2026-04-04T09:42:56.999Z</time></trkpt><trkpt lat="42.16116039577666" lon="14.476349543461737"><ele>44.0</ele><time>2026-04-04T09:42:58.999Z</time></trkpt><trkpt lat="42.161074943932626" lon="14.476387746532916"><ele>44.0</ele><time>2026-04-04T09:43:00.999Z</time></trkpt><trkpt lat="42.16097862921733" lon="14.476383854197401"><ele>44.0</ele><time>2026-04-04T09:43:02.999Z</time></trkpt><trkpt lat="42.16088178184034" lon="14.476329483239056"><ele>44.0</ele><time>2026-04-04T09:43:04.999Z</time></trkpt><trkpt lat="42.160790860467245" lon="14.476256387873084"><ele>44.0</ele><time>2026-04-04T09:43:06.999Z</time></trkpt><trkpt lat="42.16069818273161" lon="14.47618206437103"><ele>44.0</ele><time>2026-04-04T09:43:08.999Z</time></trkpt><trkpt lat="42.16060039786225" lon="14.476107262155411"><ele>44.0</ele><time>2026-04-04T09:43:10.999Z</time></trkpt><trkpt lat="42.16050170371631" lon="14.47602387279272"><ele>44.0</ele><time>2026-04-04T09:43:12.999Z</time></trkpt><trkpt lat="42.16039231829663" lon="14.475963100762693"><ele>44.0</ele><time>2026-04-04T09:43:14.999Z</time></trkpt><trkpt lat="42.160280519357926" lon="14.475911520556235"><ele>44.0</ele><time>2026-04-04T09:43:16.999Z</time></trkpt><trkpt lat="42.16017057719059" lon="14.47586148560469"><ele>44.0</ele><time>2026-04-04T09:43:18.999Z</time></trkpt><trkpt lat="42.16005960373804" lon="14.475812306157504"><ele>44.0</ele><time>2026-04-04T09:43:20.998Z</time></trkpt><trkpt lat="42.15994907851188" lon="14.47576668089362"><ele>44.25</ele><time>2026-04-04T09:43:22.998Z</time></trkpt><trkpt lat="42.15983942948952" lon="14.475720926722152"><ele>44.5</ele><time>2026-04-04T09:43:24.998Z</time></trkpt><trkpt lat="42.15972725475706" lon="14.475675925947343"><ele>44.75</ele><time>2026-04-04T09:43:26.998Z</time></trkpt><trkpt lat="42.1596163750372" lon="14.475627755979183"><ele>45.0</ele><time>2026-04-04T09:43:28.998Z</time></trkpt><trkpt lat="42.15950312209462" lon="14.475577639392961"><ele>45.0</ele><time>2026-04-04T09:43:30.998Z</time></trkpt><trkpt lat="42.15938908245765" lon="14.475523023162483"><ele>45.0</ele><time>2026-04-04T09:43:32.998Z</time></trkpt><trkpt lat="42.15927803093646" lon="14.475475238605878"><ele>45.0</ele><time>2026-04-04T09:43:34.998Z</time></trkpt><trkpt lat="42.15916468953943" lon="14.475424724998197"><ele>45.0</ele><time>2026-04-04T09:43:36.998Z</time></trkpt><trkpt lat="42.15905224827536" lon="14.47537483630338"><ele>45.25</ele><time>2026-04-04T09:43:38.998Z</time></trkpt><trkpt lat="42.15893870429692" lon="14.475324568043128"><ele>45.5</ele><time>2026-04-04T09:43:40.998Z</time></trkpt><trkpt lat="42.158825267283255" lon="14.475274937035742"><ele>45.75</ele><time>2026-04-04T09:43:42.998Z</time></trkpt><trkpt lat="42.15871083791618" lon="14.475227476142239"><ele>46.0</ele><time>2026-04-04T09:43:44.998Z</time></trkpt><trkpt lat="42.15859775372183" lon="14.475176392358504"><ele>46.0</ele><time>2026-04-04T09:43:46.998Z</time></trkpt><trkpt lat="42.15848304363436" lon="14.475121984277076"><ele>46.0</ele><time>2026-04-04T09:43:48.998Z</time></trkpt><trkpt lat="42.158371288336696" lon="14.475061702519277"><ele>46.0</ele><time>2026-04-04T09:43:50.998Z</time></trkpt><trkpt lat="42.15826297739812" lon="14.4749893889454"><ele>46.0</ele><time>2026-04-04T09:43:52.998Z</time></trkpt><trkpt lat="42.1581568520883" lon="14.474909417467037"><ele>45.75</ele><time>2026-04-04T09:43:54.998Z</time></trkpt><trkpt lat="42.15805849320022" lon="14.474822972941856"><ele>45.5</ele><time>2026-04-04T09:43:56.998Z</time></trkpt><trkpt lat="42.15795935779274" lon="14.474731388263905"><ele>45.25</ele><time>2026-04-04T09:43:58.998Z</time></trkpt><trkpt lat="42.15786469844667" lon="14.47464254231925"><ele>45.0</ele><time>2026-04-04T09:44:00.998Z</time></trkpt><trkpt lat="42.157769627191854" lon="14.474552167512076"><ele>44.75</ele><time>2026-04-04T09:44:02.998Z</time></trkpt><trkpt lat="42.15767517099685" lon="14.474458620366905"><ele>44.5</ele><time>2026-04-04T09:44:05Z</time></trkpt><trkpt lat="42.15757697849352" lon="14.474371528397091"><ele>44.25</ele><time>2026-04-04T09:44:07Z</time></trkpt><trkpt lat="42.15748161524608" lon="14.474275926381994"><ele>44.0</ele><time>2026-04-04T09:44:09Z</time></trkpt><trkpt lat="42.15738686693657" lon="14.474183080629295"><ele>44.0</ele><time>2026-04-04T09:44:11Z</time></trkpt><trkpt lat="42.15728426723683" lon="14.474093046809916"><ele>44.0</ele><time>2026-04-04T09:44:13Z</time></trkpt><trkpt lat="42.15717427076351" lon="14.474028287617442"><ele>44.0</ele><time>2026-04-04T09:44:15Z</time></trkpt><trkpt lat="42.15705470324902" lon="14.474005456486964"><ele>44.0</ele><time>2026-04-04T09:44:17Z</time></trkpt><trkpt lat="42.156933387600745" lon="14.474015847618304"><ele>44.0</ele><time>2026-04-04T09:44:19Z</time></trkpt><trkpt lat="42.15681525912244" lon="14.474043183596907"><ele>44.0</ele><time>2026-04-04T09:44:21Z</time></trkpt><trkpt lat="42.15670110111531" lon="14.474074140038272"><ele>44.0</ele><time>2026-04-04T09:44:23Z</time></trkpt><trkpt lat="42.15658871494377" lon="14.474101944851782"><ele>44.0</ele><time>2026-04-04T09:44:24.999Z</time></trkpt><trkpt lat="42.15647445488364" lon="14.474128177827055"><ele>44.25</ele><time>2026-04-04T09:44:26.999Z</time></trkpt><trkpt lat="42.1563618105344" lon="14.474152782551192"><ele>44.5</ele><time>2026-04-04T09:44:28.999Z</time></trkpt><trkpt lat="42.15624852161736" lon="14.474164082270548"><ele>44.75</ele><time>2026-04-04T09:44:30.999Z</time></trkpt><trkpt lat="42.15613309139914" lon="14.47415701381285"><ele>45.0</ele><time>2026-04-04T09:44:32.999Z</time></trkpt><trkpt lat="42.156021897135254" lon="14.474125988753153"><ele>45.0</ele><time>2026-04-04T09:44:34.999Z</time></trkpt><trkpt lat="42.15591475223561" lon="14.474080890949729"><ele>45.0</ele><time>2026-04-04T09:44:36.999Z</time></trkpt><trkpt lat="42.15580844962265" lon="14.474030504196795"><ele>45.0</ele><time>2026-04-04T09:44:38.999Z</time></trkpt><trkpt lat="42.155701322575375" lon="14.473972456625642"><ele>45.0</ele><time>2026-04-04T09:44:40.999Z</time></trkpt><trkpt lat="42.15559772727809" lon="14.473923911666274"><ele>45.8</ele><time>2026-04-04T09:44:42.999Z</time></trkpt><trkpt lat="42.15549322406322" lon="14.473870488218786"><ele>46.6</ele><time>2026-04-04T09:44:44.999Z</time></trkpt><trkpt lat="42.15538763098892" lon="14.473820330760576"><ele>47.400000000000006</ele><time>2026-04-04T09:44:46.999Z</time></trkpt><trkpt lat="42.15528164832687" lon="14.473776875313963"><ele>48.2</ele><time>2026-04-04T09:44:48.999Z</time></trkpt><trkpt lat="42.155175523422265" lon="14.473738710819918"><ele>49.0</ele><time>2026-04-04T09:44:50.999Z</time></trkpt><trkpt lat="42.15506690313115" lon="14.47371255317518"><ele>49.0</ele><time>2026-04-04T09:44:52.999Z</time></trkpt><trkpt lat="42.15495506943981" lon="14.473687311072334"><ele>49.0</ele><time>2026-04-04T09:44:54.999Z</time></trkpt><trkpt lat="42.154843436814076" lon="14.473667971579188"><ele>49.0</ele><time>2026-04-04T09:44:56.999Z</time></trkpt><trkpt lat="42.15473236268173" lon="14.473651605208508"><ele>49.0</ele><time>2026-04-04T09:44:58.999Z</time></trkpt><trkpt lat="42.15462317149234" lon="14.473633654723907"><ele>49.0</ele><time>2026-04-04T09:45:00.999Z</time></trkpt><trkpt lat="42.15451439847005" lon="14.473617290171292"><ele>48.800000000000004</ele><time>2026-04-04T09:45:02.999Z</time></trkpt><trkpt lat="42.154404355172645" lon="14.473597585528177"><ele>48.6</ele><time>2026-04-04T09:45:04.999Z</time></trkpt><trkpt lat="42.15429534452842" lon="14.47357720364201"><ele>48.4</ele><time>2026-04-04T09:45:06.999Z</time></trkpt><trkpt lat="42.15419138143522" lon="14.473559125743968"><ele>48.2</ele><time>2026-04-04T09:45:08.999Z</time></trkpt><trkpt lat="42.154091999032026" lon="14.473534508374076"><ele>48.0</ele><time>2026-04-04T09:45:10.999Z</time></trkpt><trkpt lat="42.153992839686715" lon="14.47351228785238"><ele>49.0</ele><time>2026-04-04T09:45:12.999Z</time></trkpt><trkpt lat="42.153892636414504" lon="14.473494640617089"><ele>50.0</ele><time>2026-04-04T09:45:14.999Z</time></trkpt><trkpt lat="42.15379581830201" lon="14.473477424852206"><ele>51.0</ele><time>2026-04-04T09:45:16.999Z</time></trkpt><trkpt lat="42.153701454687706" lon="14.473456569446608"><ele>52.0</ele><time>2026-04-04T09:45:18.999Z</time></trkpt><trkpt lat="42.15361193168312" lon="14.47344453175094"><ele>53.0</ele><time>2026-04-04T09:45:20.999Z</time></trkpt><trkpt lat="42.15353744029856" lon="14.473440567177581"><ele>53.00000000000001</ele><time>2026-04-04T09:45:22.999Z</time></trkpt><trkpt lat="42.15346322806655" lon="14.473431170108594"><ele>53.0</ele><time>2026-04-04T09:45:24.999Z</time></trkpt><trkpt lat="42.15339668910303" lon="14.47343593576307"><ele>53.0</ele><time>2026-04-04T09:45:26.999Z</time></trkpt><trkpt lat="42.15330619578457" lon="14.473459321224652"><ele>53.0</ele><time>2026-04-04T09:45:29.998Z</time></trkpt><trkpt lat="42.153224875696175" lon="14.473508967547106"><ele>53.00000000000001</ele><time>2026-04-04T09:45:32.998Z</time></trkpt><trkpt lat="42.153149762173335" lon="14.473564102518585"><ele>53.0</ele><time>2026-04-04T09:45:35.998Z</time></trkpt><trkpt lat="42.15308511408013" lon="14.473612825845926"><ele>54.142857142857146</ele><time>2026-04-04T09:45:38.998Z</time></trkpt><trkpt lat="42.15302568779802" lon="14.47365618237195"><ele>55.28571428571428</ele><time>2026-04-04T09:45:41.999Z</time></trkpt><trkpt lat="42.152970981014015" lon="14.473713000091486"><ele>56.42857142857142</ele><time>2026-04-04T09:45:46.999Z</time></trkpt><trkpt lat="42.15290322075918" lon="14.473761589996442"><ele>57.57142857142857</ele><time>2026-04-04T09:45:50.999Z</time></trkpt><trkpt lat="42.15283644698878" lon="14.473822466918556"><ele>58.71428571428571</ele><time>2026-04-04T09:45:54.999Z</time></trkpt><trkpt lat="42.1527698078398" lon="14.473883782821193"><ele>59.85714285714285</ele><time>2026-04-04T09:45:58.999Z</time></trkpt><trkpt lat="42.15270666731796" lon="14.473927960629654"><ele>60.99999999999999</ele><time>2026-04-04T09:46:02.999Z</time></trkpt><trkpt lat="42.15263865317679" lon="14.473990485127345"><ele>61.14285714285714</ele><time>2026-04-04T09:46:06.999Z</time></trkpt><trkpt lat="42.15257442727725" lon="14.474045987348243"><ele>61.285714285714285</ele><time>2026-04-04T09:46:11.001Z</time></trkpt><trkpt lat="42.152509942202876" lon="14.474097636850528"><ele>61.42857142857143</ele><time>2026-04-04T09:46:15.001Z</time></trkpt><trkpt lat="42.15244833846912" lon="14.47414236400748"><ele>61.57142857142857</ele><time>2026-04-04T09:46:19.001Z</time></trkpt><trkpt lat="42.15238086195095" lon="14.474192649674585"><ele>61.71428571428572</ele><time>2026-04-04T09:46:23.001Z</time></trkpt><trkpt lat="42.1523580963693" lon="14.474279069814838"><ele>61.85714285714286</ele><time>2026-04-04T09:46:27Z</time></trkpt><trkpt lat="42.15240088877027" lon="14.474363462052377"><ele>62.0</ele><time>2026-04-04T09:46:31Z</time></trkpt><trkpt lat="42.15244881309445" lon="14.474437125918259"><ele>62.00000000000001</ele><time>2026-04-04T09:46:35Z</time></trkpt><trkpt lat="42.152509719068064" lon="14.474519363038358"><ele>62.0</ele><time>2026-04-04T09:46:40Z</time></trkpt><trkpt lat="42.15256637186047" lon="14.47459692481452"><ele>62.0</ele><time>2026-04-04T09:46:44Z</time></trkpt><trkpt lat="42.15262143645079" lon="14.474671836169017"><ele>62.0</ele><time>2026-04-04T09:46:48Z</time></trkpt><trkpt lat="42.15266970980837" lon="14.474753628490193"><ele>62.00000000000001</ele><time>2026-04-04T09:46:52Z</time></trkpt><trkpt lat="42.15271527532805" lon="14.474818277457066"><ele>62.0</ele><time>2026-04-04T09:46:56Z</time></trkpt><trkpt lat="42.152767077435726" lon="14.474888698255803"><ele>62.142857142857146</ele><time>2026-04-04T09:47:00Z</time></trkpt><trkpt lat="42.152821746604964" lon="14.474950831438967"><ele>62.28571428571429</ele><time>2026-04-04T09:47:04Z</time></trkpt><trkpt lat="42.152869039147724" lon="14.475033764725936"><ele>62.42857142857143</ele><time>2026-04-04T09:47:08Z</time></trkpt><trkpt lat="42.15291939758644" lon="14.475091182544654"><ele>62.57142857142857</ele><time>2026-04-04T09:47:11Z</time></trkpt><trkpt lat="42.15298009457051" lon="14.475165129554902"><ele>62.714285714285715</ele><time>2026-04-04T09:47:15Z</time></trkpt><trkpt lat="42.15302540871944" lon="14.475224696591217"><ele>62.85714285714286</ele><time>2026-04-04T09:47:18Z</time></trkpt><trkpt lat="42.15307461359034" lon="14.475278113161252"><ele>63.0</ele><time>2026-04-04T09:47:20.999Z</time></trkpt><trkpt lat="42.1531221260802" lon="14.475334582780777"><ele>63.0</ele><time>2026-04-04T09:47:23.999Z</time></trkpt><trkpt lat="42.15318377734046" lon="14.47540404609227"><ele>63.0</ele><time>2026-04-04T09:47:27.999Z</time></trkpt><trkpt lat="42.15324045532998" lon="14.475475725889119"><ele>63.0</ele><time>2026-04-04T09:47:31.999Z</time></trkpt><trkpt lat="42.15329820126525" lon="14.475550832344569"><ele>63.0</ele><time>2026-04-04T09:47:35.999Z</time></trkpt><trkpt lat="42.15334050214758" lon="14.475617453653582"><ele>63.0</ele><time>2026-04-04T09:47:38.999Z</time></trkpt><trkpt lat="42.15339254685121" lon="14.475696182968944"><ele>63.0</ele><time>2026-04-04T09:47:42.999Z</time></trkpt><trkpt lat="42.15343904524944" lon="14.475781697191573"><ele>63.85714285714286</ele><time>2026-04-04T09:47:46.999Z</time></trkpt><trkpt lat="42.15347664341685" lon="14.47585236133653"><ele>64.71428571428572</ele><time>2026-04-04T09:47:49.999Z</time></trkpt><trkpt lat="42.153511202474036" lon="14.475924023063476"><ele>65.57142857142857</ele><time>2026-04-04T09:47:52.999Z</time></trkpt><trkpt lat="42.153540546802326" lon="14.476026013151591"><ele>66.42857142857143</ele><time>2026-04-04T09:47:56.999Z</time></trkpt><trkpt lat="42.15355985536442" lon="14.476109019430973"><ele>67.28571428571429</ele><time>2026-04-04T09:47:59.999Z</time></trkpt><trkpt lat="42.153579124554255" lon="14.476202868126107"><ele>68.14285714285714</ele><time>2026-04-04T09:48:02.999Z</time></trkpt><trkpt lat="42.15359733917058" lon="14.476285762634054"><ele>69.0</ele><time>2026-04-04T09:48:05.999Z</time></trkpt><trkpt lat="42.15360461679455" lon="14.476398138195224"><ele>69.66666666666667</ele><time>2026-04-04T09:48:09.999Z</time></trkpt><trkpt lat="42.15360466362946" lon="14.476483371941029"><ele>70.33333333333333</ele><time>2026-04-04T09:48:12.999Z</time></trkpt><trkpt lat="42.15360043646254" lon="14.4765897899396"><ele>71.0</ele><time>2026-04-04T09:48:17Z</time></trkpt><trkpt lat="42.15358226442017" lon="14.476689184489622"><ele>71.66666666666666</ele><time>2026-04-04T09:48:21Z</time></trkpt><trkpt lat="42.153563804825794" lon="14.476789605418654"><ele>72.33333333333333</ele><time>2026-04-04T09:48:25Z</time></trkpt><trkpt lat="42.15354302172216" lon="14.476888303735562"><ele>73.0</ele><time>2026-04-04T09:48:29Z</time></trkpt><trkpt lat="42.15352535126937" lon="14.476991802318611"><ele>73.0</ele><time>2026-04-04T09:48:33Z</time></trkpt><trkpt lat="42.15351184661513" lon="14.47708980970915"><ele>73.0</ele><time>2026-04-04T09:48:37Z</time></trkpt><trkpt lat="42.15350460795377" lon="14.477194348692722"><ele>73.0</ele><time>2026-04-04T09:48:41Z</time></trkpt><trkpt lat="42.1535020136903" lon="14.477290172211003"><ele>73.0</ele><time>2026-04-04T09:48:45Z</time></trkpt><trkpt lat="42.153498772198105" lon="14.477383235322929"><ele>73.0</ele><time>2026-04-04T09:48:49Z</time></trkpt><trkpt lat="42.15350115516335" lon="14.47747897560992"><ele>73.0</ele><time>2026-04-04T09:48:53Z</time></trkpt><trkpt lat="42.153503106025134" lon="14.477589390465212"><ele>73.0</ele><time>2026-04-04T09:48:57Z</time></trkpt><trkpt lat="42.15350354504913" lon="14.47770208084619"><ele>74.0</ele><time>2026-04-04T09:49:01Z</time></trkpt><trkpt lat="42.153499967856284" lon="14.477811775662117"><ele>75.0</ele><time>2026-04-04T09:49:05Z</time></trkpt><trkpt lat="42.15350379357056" lon="14.477920823812891"><ele>76.0</ele><time>2026-04-04T09:49:09Z</time></trkpt><trkpt lat="42.15350689203695" lon="14.478023857662386"><ele>77.0</ele><time>2026-04-04T09:49:13Z</time></trkpt><trkpt lat="42.15351813681378" lon="14.47812180526389"><ele>78.0</ele><time>2026-04-04T09:49:17Z</time></trkpt><trkpt lat="42.15354556749487" lon="14.478212543106737"><ele>79.0</ele><time>2026-04-04T09:49:21Z</time></trkpt><trkpt lat="42.153577228289315" lon="14.478297430732281"><ele>80.33333333333333</ele><time>2026-04-04T09:49:25Z</time></trkpt><trkpt lat="42.1536120678632" lon="14.478396238515751"><ele>81.66666666666666</ele><time>2026-04-04T09:49:29.999Z</time></trkpt><trkpt lat="42.1536258114085" lon="14.478495041283729"><ele>83.0</ele><time>2026-04-04T09:49:33.999Z</time></trkpt><trkpt lat="42.15362701029758" lon="14.478584197663027"><ele>84.33333333333333</ele><time>2026-04-04T09:49:37.999Z</time></trkpt><trkpt lat="42.15362427223874" lon="14.478674407022302"><ele>85.66666666666667</ele><time>2026-04-04T09:49:40.999Z</time></trkpt><trkpt lat="42.15359939218562" lon="14.478801403323981"><ele>87.0</ele><time>2026-04-04T09:49:43.999Z</time></trkpt><trkpt lat="42.15356158380311" lon="14.47889765039786"><ele>87.16666666666667</ele><time>2026-04-04T09:49:45.999Z</time></trkpt><trkpt lat="42.1534964183837" lon="14.479017285067021"><ele>87.33333333333333</ele><time>2026-04-04T09:49:47.999Z</time></trkpt><trkpt lat="42.153422570002164" lon="14.479151357409197"><ele>87.5</ele><time>2026-04-04T09:49:49.999Z</time></trkpt><trkpt lat="42.153380276959666" lon="14.479224002871529"><ele>87.66666666666666</ele><time>2026-04-04T09:49:50.999Z</time></trkpt><trkpt lat="42.15333665604122" lon="14.479294650023592"><ele>87.83333333333333</ele><time>2026-04-04T09:49:51.999Z</time></trkpt><trkpt lat="42.15329522858106" lon="14.479374739603475"><ele>88.0</ele><time>2026-04-04T09:49:52.999Z</time></trkpt><trkpt lat="42.15325809450066" lon="14.47946109908569"><ele>88.0</ele><time>2026-04-04T09:49:53.999Z</time></trkpt><trkpt lat="42.15323239246348" lon="14.479551118485864"><ele>88.0</ele><time>2026-04-04T09:49:54.999Z</time></trkpt><trkpt lat="42.153220322426215" lon="14.47964488194639"><ele>88.0</ele><time>2026-04-04T09:49:55.999Z</time></trkpt><trkpt lat="42.153221536164324" lon="14.479736613850548"><ele>88.0</ele><time>2026-04-04T09:49:56.999Z</time></trkpt><trkpt lat="42.15323132931608" lon="14.479824908227055"><ele>88.0</ele><time>2026-04-04T09:49:57.999Z</time></trkpt><trkpt lat="42.15326013423485" lon="14.479976574626598"><ele>88.0</ele><time>2026-04-04T09:49:59.999Z</time></trkpt><trkpt lat="42.15329523450119" lon="14.48010784285223"><ele>87.0</ele><time>2026-04-04T09:50:01.999Z</time></trkpt><trkpt lat="42.15332065904484" lon="14.480226211801083"><ele>86.0</ele><time>2026-04-04T09:50:03.999Z</time></trkpt><trkpt lat="42.15335930740311" lon="14.48032033416116"><ele>85.0</ele><time>2026-04-04T09:50:05.999Z</time></trkpt><trkpt lat="42.153383146140364" lon="14.480412406083614"><ele>84.0</ele><time>2026-04-04T09:50:07.999Z</time></trkpt><trkpt lat="42.15342395964288" lon="14.480494538120569"><ele>83.0</ele><time>2026-04-04T09:50:09.999Z</time></trkpt><trkpt lat="42.153453428216885" lon="14.480577930285655"><ele>82.0</ele><time>2026-04-04T09:50:11.999Z</time></trkpt><trkpt lat="42.15348663260392" lon="14.480669291474255"><ele>81.39999999999999</ele><time>2026-04-04T09:50:13.999Z</time></trkpt><trkpt lat="42.15353400555951" lon="14.480750862125157"><ele>80.8</ele><time>2026-04-04T09:50:15.999Z</time></trkpt><trkpt lat="42.153585427004835" lon="14.480842591983098"><ele>80.2</ele><time>2026-04-04T09:50:17.999Z</time></trkpt><trkpt lat="42.15364550917922" lon="14.480951523855829"><ele>79.6</ele><time>2026-04-04T09:50:19.999Z</time></trkpt><trkpt lat="42.15372612310849" lon="14.481074667480604"><ele>79.0</ele><time>2026-04-04T09:50:22Z</time></trkpt><trkpt lat="42.1537742149215" lon="14.481139080252325"><ele>79.0</ele><time>2026-04-04T09:50:23Z</time></trkpt><trkpt lat="42.15382418614036" lon="14.481200503291324"><ele>79.0</ele><time>2026-04-04T09:50:24Z</time></trkpt><trkpt lat="42.153874666977124" lon="14.48125953149849"><ele>79.0</ele><time>2026-04-04T09:50:25Z</time></trkpt><trkpt lat="42.15392232879546" lon="14.481318071226825"><ele>79.0</ele><time>2026-04-04T09:50:26Z</time></trkpt><trkpt lat="42.153969406613065" lon="14.481375030193401"><ele>79.0</ele><time>2026-04-04T09:50:27Z</time></trkpt><trkpt lat="42.154045802056274" lon="14.48149657665886"><ele>79.0</ele><time>2026-04-04T09:50:29Z</time></trkpt><trkpt lat="42.15408296750974" lon="14.481629335100545"><ele>79.2</ele><time>2026-04-04T09:50:31Z</time></trkpt><trkpt lat="42.15408472999963" lon="14.481753297415313"><ele>79.4</ele><time>2026-04-04T09:50:33Z</time></trkpt><trkpt lat="42.15408646571829" lon="14.481858288649248"><ele>79.6</ele><time>2026-04-04T09:50:35Z</time></trkpt><trkpt lat="42.15407845446741" lon="14.481952218212804"><ele>79.8</ele><time>2026-04-04T09:50:37Z</time></trkpt><trkpt lat="42.15409027213933" lon="14.482055495624957"><ele>80.0</ele><time>2026-04-04T09:50:40Z</time></trkpt><trkpt lat="42.153931063929235" lon="14.482139931669854"><ele>80.0</ele><time>2026-04-04T09:50:43Z</time></trkpt><trkpt lat="42.15386992619412" lon="14.48217951001214"><ele>80.0</ele><time>2026-04-04T09:50:45Z</time></trkpt><trkpt lat="42.153795318364" lon="14.482224891410286"><ele>80.0</ele><time>2026-04-04T09:50:48Z</time></trkpt><trkpt lat="42.15373612558784" lon="14.482183280317168"><ele>80.0</ele><time>2026-04-04T09:50:54Z</time></trkpt><trkpt lat="42.15368119558175" lon="14.482134835824008"><ele>80.0</ele><time>2026-04-04T09:51:16Z</time></trkpt><trkpt lat="42.15364370592415" lon="14.482049080418312"><ele>80.0</ele><time>2026-04-04T09:51:20Z</time></trkpt><trkpt lat="42.15360589828556" lon="14.481972636788313"><ele>80.0</ele><time>2026-04-04T09:51:23Z</time></trkpt><trkpt lat="42.15358719276083" lon="14.481883998872222"><ele>79.85714285714286</ele><time>2026-04-04T09:51:26Z</time></trkpt><trkpt lat="42.15359922027719" lon="14.481777444289701"><ele>79.71428571428572</ele><time>2026-04-04T09:51:28.999Z</time></trkpt><trkpt lat="42.1535876594523" lon="14.481865533015647"><ele>79.57142857142858</ele><time>2026-04-04T09:52:48Z</time></trkpt><trkpt lat="42.153609058545236" lon="14.481951357636406"><ele>79.42857142857143</ele><time>2026-04-04T09:52:58Z</time></trkpt><trkpt lat="42.153671588451864" lon="14.48193856223932"><ele>79.28571428571429</ele><time>2026-04-04T09:53:05Z</time></trkpt><trkpt lat="42.15371972327086" lon="14.48187915999178"><ele>79.14285714285715</ele><time>2026-04-04T09:53:13Z</time></trkpt><trkpt lat="42.15372395716355" lon="14.481773124228974"><ele>79.0</ele><time>2026-04-04T09:53:22Z</time></trkpt><trkpt lat="42.153647568709424" lon="14.481718295103235"><ele>79.0</ele><time>2026-04-04T09:55:14.016Z</time></trkpt><trkpt lat="42.15365221679352" lon="14.481862731484227"><ele>79.0</ele><time>2026-04-04T09:55:19.014Z</time></trkpt><trkpt lat="42.15361095616828" lon="14.48178416547974"><ele>79.0</ele><time>2026-04-04T09:55:40.997Z</time></trkpt></trkseg></trk></gpx>